<?xml version="1.0" encoding="UTF-8" standalone="no" ?>
<gpx xmlns="http://www.topografix.com/GPX/1/1" xmlns:xsi="http://www.w3.org/2001/XMLSchema-instance" xsi:schemaLocation="http://www.topografix.com/GPX/1/1 http://www.topografix.com/GPX/1/1/gpx.xsd" version="1.1" creator="VisuGPX - https://www.visugpx.com">
  <metadata>
    <name>Tour de Chartreuse par les sommets</name>
    <desc><![CDATA[Magnifique traversée !]]></desc>
  </metadata>
  <trk>
    <name><![CDATA[2015-03-07 23:56:15]]></name>
    <trkseg>
      <trkpt lat="45.3328" lon="5.84225">
        <ele>967.7</ele>
        <time>2015-03-07T04:21:55Z</time>
      </trkpt>
      <trkpt lat="45.3328" lon="5.84226">
        <ele>967.7</ele>
        <time>2015-03-07T04:21:56Z</time>
      </trkpt>
      <trkpt lat="45.3328" lon="5.84226">
        <ele>967.7</ele>
        <time>2015-03-07T04:21:57Z</time>
      </trkpt>
      <trkpt lat="45.3328" lon="5.8423">
        <ele>967.7</ele>
        <time>2015-03-07T04:22:22Z</time>
      </trkpt>
      <trkpt lat="45.33279" lon="5.84228">
        <ele>967.7</ele>
        <time>2015-03-07T04:22:37Z</time>
      </trkpt>
      <trkpt lat="45.33277" lon="5.8423">
        <ele>967.7</ele>
        <time>2015-03-07T04:22:51Z</time>
      </trkpt>
      <trkpt lat="45.33277" lon="5.8423">
        <ele>967.7</ele>
        <time>2015-03-07T04:23:06Z</time>
      </trkpt>
      <trkpt lat="45.33274" lon="5.84229">
        <ele>967.22</ele>
        <time>2015-03-07T04:23:32Z</time>
      </trkpt>
      <trkpt lat="45.33276" lon="5.84229">
        <ele>967.22</ele>
        <time>2015-03-07T04:23:58Z</time>
      </trkpt>
      <trkpt lat="45.33277" lon="5.84229">
        <ele>967.22</ele>
        <time>2015-03-07T04:24:12Z</time>
      </trkpt>
      <trkpt lat="45.33277" lon="5.8423">
        <ele>964.34</ele>
        <time>2015-03-07T04:24:15Z</time>
      </trkpt>
      <trkpt lat="45.33276" lon="5.8423">
        <ele>964.34</ele>
        <time>2015-03-07T04:24:16Z</time>
      </trkpt>
      <trkpt lat="45.33276" lon="5.84229">
        <ele>968.18</ele>
        <time>2015-03-07T04:24:17Z</time>
      </trkpt>
      <trkpt lat="45.33277" lon="5.84233">
        <ele>966.26</ele>
        <time>2015-03-07T04:24:25Z</time>
      </trkpt>
      <trkpt lat="45.33277" lon="5.84233">
        <ele>961.46</ele>
        <time>2015-03-07T04:24:26Z</time>
      </trkpt>
      <trkpt lat="45.33277" lon="5.84233">
        <ele>967.22</ele>
        <time>2015-03-07T04:24:27Z</time>
      </trkpt>
      <trkpt lat="45.33278" lon="5.84233">
        <ele>970.11</ele>
        <time>2015-03-07T04:24:28Z</time>
      </trkpt>
      <trkpt lat="45.33278" lon="5.84232">
        <ele>962.9</ele>
        <time>2015-03-07T04:24:31Z</time>
      </trkpt>
      <trkpt lat="45.33278" lon="5.84231">
        <ele>966.26</ele>
        <time>2015-03-07T04:24:32Z</time>
      </trkpt>
      <trkpt lat="45.33276" lon="5.8423">
        <ele>968.67</ele>
        <time>2015-03-07T04:24:34Z</time>
      </trkpt>
      <trkpt lat="45.33274" lon="5.84229">
        <ele>965.3</ele>
        <time>2015-03-07T04:24:37Z</time>
      </trkpt>
      <trkpt lat="45.33273" lon="5.84229">
        <ele>969.15</ele>
        <time>2015-03-07T04:24:38Z</time>
      </trkpt>
      <trkpt lat="45.33273" lon="5.84232">
        <ele>965.78</ele>
        <time>2015-03-07T04:24:40Z</time>
      </trkpt>
      <trkpt lat="45.33275" lon="5.84229">
        <ele>972.03</ele>
        <time>2015-03-07T04:24:50Z</time>
      </trkpt>
      <trkpt lat="45.33275" lon="5.84229">
        <ele>967.22</ele>
        <time>2015-03-07T04:24:51Z</time>
      </trkpt>
      <trkpt lat="45.33275" lon="5.84227">
        <ele>966.74</ele>
        <time>2015-03-07T04:25:12Z</time>
      </trkpt>
      <trkpt lat="45.33273" lon="5.84232">
        <ele>966.74</ele>
        <time>2015-03-07T04:25:39Z</time>
      </trkpt>
      <trkpt lat="45.33272" lon="5.84233">
        <ele>966.26</ele>
        <time>2015-03-07T04:26:03Z</time>
      </trkpt>
      <trkpt lat="45.33272" lon="5.84232">
        <ele>967.22</ele>
        <time>2015-03-07T04:26:25Z</time>
      </trkpt>
      <trkpt lat="45.33271" lon="5.84238">
        <ele>967.7</ele>
        <time>2015-03-07T04:26:49Z</time>
      </trkpt>
      <trkpt lat="45.33269" lon="5.84243">
        <ele>968.18</ele>
        <time>2015-03-07T04:27:09Z</time>
      </trkpt>
      <trkpt lat="45.33263" lon="5.84251">
        <ele>971.07</ele>
        <time>2015-03-07T04:27:24Z</time>
      </trkpt>
      <trkpt lat="45.33249" lon="5.84256">
        <ele>972.51</ele>
        <time>2015-03-07T04:27:41Z</time>
      </trkpt>
      <trkpt lat="45.33235" lon="5.84249">
        <ele>973.95</ele>
        <time>2015-03-07T04:27:57Z</time>
      </trkpt>
      <trkpt lat="45.33222" lon="5.84243">
        <ele>976.36</ele>
        <time>2015-03-07T04:28:13Z</time>
      </trkpt>
      <trkpt lat="45.33216" lon="5.84243">
        <ele>976.84</ele>
        <time>2015-03-07T04:28:20Z</time>
      </trkpt>
      <trkpt lat="45.33201" lon="5.84246">
        <ele>978.76</ele>
        <time>2015-03-07T04:28:35Z</time>
      </trkpt>
      <trkpt lat="45.33185" lon="5.84247">
        <ele>980.68</ele>
        <time>2015-03-07T04:28:52Z</time>
      </trkpt>
      <trkpt lat="45.33174" lon="5.84254">
        <ele>983.09</ele>
        <time>2015-03-07T04:29:06Z</time>
      </trkpt>
      <trkpt lat="45.33162" lon="5.84259">
        <ele>986.45</ele>
        <time>2015-03-07T04:29:20Z</time>
      </trkpt>
      <trkpt lat="45.33151" lon="5.84269">
        <ele>988.37</ele>
        <time>2015-03-07T04:29:33Z</time>
      </trkpt>
      <trkpt lat="45.33138" lon="5.84278">
        <ele>990.78</ele>
        <time>2015-03-07T04:29:50Z</time>
      </trkpt>
      <trkpt lat="45.33123" lon="5.84291">
        <ele>992.7</ele>
        <time>2015-03-07T04:30:08Z</time>
      </trkpt>
      <trkpt lat="45.33117" lon="5.84305">
        <ele>995.1</ele>
        <time>2015-03-07T04:30:23Z</time>
      </trkpt>
      <trkpt lat="45.33112" lon="5.84321">
        <ele>996.54</ele>
        <time>2015-03-07T04:30:40Z</time>
      </trkpt>
      <trkpt lat="45.33105" lon="5.84336">
        <ele>997.99</ele>
        <time>2015-03-07T04:30:55Z</time>
      </trkpt>
      <trkpt lat="45.33099" lon="5.84351">
        <ele>1000.39</ele>
        <time>2015-03-07T04:31:11Z</time>
      </trkpt>
      <trkpt lat="45.3309" lon="5.8437">
        <ele>1002.31</ele>
        <time>2015-03-07T04:31:27Z</time>
      </trkpt>
      <trkpt lat="45.33086" lon="5.84392">
        <ele>1005.2</ele>
        <time>2015-03-07T04:31:45Z</time>
      </trkpt>
      <trkpt lat="45.33082" lon="5.84404">
        <ele>1006.64</ele>
        <time>2015-03-07T04:31:58Z</time>
      </trkpt>
      <trkpt lat="45.33071" lon="5.84417">
        <ele>1009.04</ele>
        <time>2015-03-07T04:32:13Z</time>
      </trkpt>
      <trkpt lat="45.33059" lon="5.84427">
        <ele>1011.44</ele>
        <time>2015-03-07T04:32:28Z</time>
      </trkpt>
      <trkpt lat="45.33044" lon="5.84438">
        <ele>1014.33</ele>
        <time>2015-03-07T04:32:47Z</time>
      </trkpt>
      <trkpt lat="45.33029" lon="5.84442">
        <ele>1016.25</ele>
        <time>2015-03-07T04:33:05Z</time>
      </trkpt>
      <trkpt lat="45.3302" lon="5.84451">
        <ele>1018.17</ele>
        <time>2015-03-07T04:33:19Z</time>
      </trkpt>
      <trkpt lat="45.33014" lon="5.84464">
        <ele>1020.1</ele>
        <time>2015-03-07T04:33:33Z</time>
      </trkpt>
      <trkpt lat="45.33009" lon="5.84475">
        <ele>1022.98</ele>
        <time>2015-03-07T04:33:48Z</time>
      </trkpt>
      <trkpt lat="45.33004" lon="5.8449">
        <ele>1025.38</ele>
        <time>2015-03-07T04:34:03Z</time>
      </trkpt>
      <trkpt lat="45.32997" lon="5.84506">
        <ele>1027.79</ele>
        <time>2015-03-07T04:34:16Z</time>
      </trkpt>
      <trkpt lat="45.32991" lon="5.84523">
        <ele>1029.23</ele>
        <time>2015-03-07T04:34:30Z</time>
      </trkpt>
      <trkpt lat="45.32984" lon="5.84533">
        <ele>1031.63</ele>
        <time>2015-03-07T04:34:42Z</time>
      </trkpt>
      <trkpt lat="45.32978" lon="5.84543">
        <ele>1034.04</ele>
        <time>2015-03-07T04:34:56Z</time>
      </trkpt>
      <trkpt lat="45.32966" lon="5.84534">
        <ele>1036.44</ele>
        <time>2015-03-07T04:35:12Z</time>
      </trkpt>
      <trkpt lat="45.32961" lon="5.84524">
        <ele>1039.32</ele>
        <time>2015-03-07T04:35:26Z</time>
      </trkpt>
      <trkpt lat="45.32957" lon="5.84509">
        <ele>1041.25</ele>
        <time>2015-03-07T04:35:42Z</time>
      </trkpt>
      <trkpt lat="45.32956" lon="5.84478">
        <ele>1043.65</ele>
        <time>2015-03-07T04:35:59Z</time>
      </trkpt>
      <trkpt lat="45.32957" lon="5.84458">
        <ele>1045.09</ele>
        <time>2015-03-07T04:36:15Z</time>
      </trkpt>
      <trkpt lat="45.32958" lon="5.84439">
        <ele>1047.01</ele>
        <time>2015-03-07T04:36:28Z</time>
      </trkpt>
      <trkpt lat="45.32958" lon="5.8442">
        <ele>1049.42</ele>
        <time>2015-03-07T04:36:45Z</time>
      </trkpt>
      <trkpt lat="45.3296" lon="5.84402">
        <ele>1052.78</ele>
        <time>2015-03-07T04:37:01Z</time>
      </trkpt>
      <trkpt lat="45.32956" lon="5.84385">
        <ele>1055.18</ele>
        <time>2015-03-07T04:37:19Z</time>
      </trkpt>
      <trkpt lat="45.32958" lon="5.8437">
        <ele>1057.11</ele>
        <time>2015-03-07T04:37:34Z</time>
      </trkpt>
      <trkpt lat="45.32964" lon="5.84354">
        <ele>1060.47</ele>
        <time>2015-03-07T04:37:50Z</time>
      </trkpt>
      <trkpt lat="45.3297" lon="5.84344">
        <ele>1061.91</ele>
        <time>2015-03-07T04:37:59Z</time>
      </trkpt>
      <trkpt lat="45.32975" lon="5.8433">
        <ele>1064.32</ele>
        <time>2015-03-07T04:38:13Z</time>
      </trkpt>
      <trkpt lat="45.32973" lon="5.84316">
        <ele>1066.24</ele>
        <time>2015-03-07T04:38:28Z</time>
      </trkpt>
      <trkpt lat="45.32974" lon="5.84303">
        <ele>1068.64</ele>
        <time>2015-03-07T04:38:39Z</time>
      </trkpt>
      <trkpt lat="45.32977" lon="5.84285">
        <ele>1070.57</ele>
        <time>2015-03-07T04:38:53Z</time>
      </trkpt>
      <trkpt lat="45.32978" lon="5.84267">
        <ele>1073.45</ele>
        <time>2015-03-07T04:39:07Z</time>
      </trkpt>
      <trkpt lat="45.32982" lon="5.84252">
        <ele>1075.85</ele>
        <time>2015-03-07T04:39:21Z</time>
      </trkpt>
      <trkpt lat="45.32985" lon="5.84234">
        <ele>1077.78</ele>
        <time>2015-03-07T04:39:33Z</time>
      </trkpt>
      <trkpt lat="45.32985" lon="5.84215">
        <ele>1081.14</ele>
        <time>2015-03-07T04:39:50Z</time>
      </trkpt>
      <trkpt lat="45.32985" lon="5.84192">
        <ele>1084.02</ele>
        <time>2015-03-07T04:40:08Z</time>
      </trkpt>
      <trkpt lat="45.32976" lon="5.84194">
        <ele>1086.43</ele>
        <time>2015-03-07T04:40:23Z</time>
      </trkpt>
      <trkpt lat="45.32972" lon="5.84206">
        <ele>1088.35</ele>
        <time>2015-03-07T04:40:35Z</time>
      </trkpt>
      <trkpt lat="45.32962" lon="5.84221">
        <ele>1089.79</ele>
        <time>2015-03-07T04:40:51Z</time>
      </trkpt>
      <trkpt lat="45.32953" lon="5.84232">
        <ele>1091.71</ele>
        <time>2015-03-07T04:41:04Z</time>
      </trkpt>
      <trkpt lat="45.32944" lon="5.84247">
        <ele>1094.12</ele>
        <time>2015-03-07T04:41:20Z</time>
      </trkpt>
      <trkpt lat="45.32936" lon="5.8426">
        <ele>1096.52</ele>
        <time>2015-03-07T04:41:37Z</time>
      </trkpt>
      <trkpt lat="45.3293" lon="5.84272">
        <ele>1098.92</ele>
        <time>2015-03-07T04:41:53Z</time>
      </trkpt>
      <trkpt lat="45.3293" lon="5.84276">
        <ele>1098.92</ele>
        <time>2015-03-07T04:42:11Z</time>
      </trkpt>
      <trkpt lat="45.32931" lon="5.84277">
        <ele>1094.12</ele>
        <time>2015-03-07T04:42:14Z</time>
      </trkpt>
      <trkpt lat="45.32931" lon="5.84277">
        <ele>1100.37</ele>
        <time>2015-03-07T04:42:15Z</time>
      </trkpt>
      <trkpt lat="45.32925" lon="5.84277">
        <ele>1099.4</ele>
        <time>2015-03-07T04:42:30Z</time>
      </trkpt>
      <trkpt lat="45.32921" lon="5.84281">
        <ele>1102.77</ele>
        <time>2015-03-07T04:42:45Z</time>
      </trkpt>
      <trkpt lat="45.32919" lon="5.84285">
        <ele>1102.77</ele>
        <time>2015-03-07T04:42:58Z</time>
      </trkpt>
      <trkpt lat="45.32915" lon="5.84295">
        <ele>1102.77</ele>
        <time>2015-03-07T04:43:13Z</time>
      </trkpt>
      <trkpt lat="45.32908" lon="5.84301">
        <ele>1104.69</ele>
        <time>2015-03-07T04:43:26Z</time>
      </trkpt>
      <trkpt lat="45.3291" lon="5.84304">
        <ele>1105.65</ele>
        <time>2015-03-07T04:43:44Z</time>
      </trkpt>
      <trkpt lat="45.32903" lon="5.84313">
        <ele>1106.61</ele>
        <time>2015-03-07T04:43:56Z</time>
      </trkpt>
      <trkpt lat="45.32893" lon="5.84323">
        <ele>1109.02</ele>
        <time>2015-03-07T04:44:10Z</time>
      </trkpt>
      <trkpt lat="45.32884" lon="5.84334">
        <ele>1111.42</ele>
        <time>2015-03-07T04:44:26Z</time>
      </trkpt>
      <trkpt lat="45.32879" lon="5.84346">
        <ele>1113.82</ele>
        <time>2015-03-07T04:44:41Z</time>
      </trkpt>
      <trkpt lat="45.32869" lon="5.84359">
        <ele>1116.23</ele>
        <time>2015-03-07T04:44:56Z</time>
      </trkpt>
      <trkpt lat="45.32857" lon="5.84371">
        <ele>1117.67</ele>
        <time>2015-03-07T04:45:09Z</time>
      </trkpt>
      <trkpt lat="45.3285" lon="5.84376">
        <ele>1119.11</ele>
        <time>2015-03-07T04:45:20Z</time>
      </trkpt>
      <trkpt lat="45.32841" lon="5.84383">
        <ele>1121.03</ele>
        <time>2015-03-07T04:45:32Z</time>
      </trkpt>
      <trkpt lat="45.32828" lon="5.84393">
        <ele>1123.92</ele>
        <time>2015-03-07T04:45:48Z</time>
      </trkpt>
      <trkpt lat="45.32817" lon="5.84396">
        <ele>1126.32</ele>
        <time>2015-03-07T04:46:02Z</time>
      </trkpt>
      <trkpt lat="45.32806" lon="5.84397">
        <ele>1129.21</ele>
        <time>2015-03-07T04:46:18Z</time>
      </trkpt>
      <trkpt lat="45.32794" lon="5.844">
        <ele>1131.61</ele>
        <time>2015-03-07T04:46:32Z</time>
      </trkpt>
      <trkpt lat="45.32786" lon="5.8441">
        <ele>1134.01</ele>
        <time>2015-03-07T04:46:48Z</time>
      </trkpt>
      <trkpt lat="45.3278" lon="5.84424">
        <ele>1136.42</ele>
        <time>2015-03-07T04:47:03Z</time>
      </trkpt>
      <trkpt lat="45.32771" lon="5.84433">
        <ele>1138.34</ele>
        <time>2015-03-07T04:47:16Z</time>
      </trkpt>
      <trkpt lat="45.32763" lon="5.84441">
        <ele>1139.78</ele>
        <time>2015-03-07T04:47:29Z</time>
      </trkpt>
      <trkpt lat="45.32753" lon="5.84454">
        <ele>1141.7</ele>
        <time>2015-03-07T04:47:43Z</time>
      </trkpt>
      <trkpt lat="45.32741" lon="5.84469">
        <ele>1143.14</ele>
        <time>2015-03-07T04:47:57Z</time>
      </trkpt>
      <trkpt lat="45.32732" lon="5.84477">
        <ele>1144.11</ele>
        <time>2015-03-07T04:48:09Z</time>
      </trkpt>
      <trkpt lat="45.32722" lon="5.84469">
        <ele>1146.03</ele>
        <time>2015-03-07T04:48:26Z</time>
      </trkpt>
      <trkpt lat="45.32714" lon="5.84457">
        <ele>1148.91</ele>
        <time>2015-03-07T04:48:43Z</time>
      </trkpt>
      <trkpt lat="45.3271" lon="5.84449">
        <ele>1152.28</ele>
        <time>2015-03-07T04:48:56Z</time>
      </trkpt>
      <trkpt lat="45.32706" lon="5.84441">
        <ele>1155.64</ele>
        <time>2015-03-07T04:49:09Z</time>
      </trkpt>
      <trkpt lat="45.32701" lon="5.84426">
        <ele>1158.53</ele>
        <time>2015-03-07T04:49:25Z</time>
      </trkpt>
      <trkpt lat="45.3269" lon="5.84417">
        <ele>1159.97</ele>
        <time>2015-03-07T04:49:39Z</time>
      </trkpt>
      <trkpt lat="45.32678" lon="5.84411">
        <ele>1161.89</ele>
        <time>2015-03-07T04:49:55Z</time>
      </trkpt>
      <trkpt lat="45.32666" lon="5.84405">
        <ele>1163.33</ele>
        <time>2015-03-07T04:50:10Z</time>
      </trkpt>
      <trkpt lat="45.32651" lon="5.84402">
        <ele>1166.7</ele>
        <time>2015-03-07T04:50:28Z</time>
      </trkpt>
      <trkpt lat="45.32641" lon="5.844">
        <ele>1168.62</ele>
        <time>2015-03-07T04:50:43Z</time>
      </trkpt>
      <trkpt lat="45.32626" lon="5.84396">
        <ele>1171.02</ele>
        <time>2015-03-07T04:51:00Z</time>
      </trkpt>
      <trkpt lat="45.32617" lon="5.84397">
        <ele>1173.43</ele>
        <time>2015-03-07T04:51:15Z</time>
      </trkpt>
      <trkpt lat="45.32603" lon="5.84397">
        <ele>1175.83</ele>
        <time>2015-03-07T04:51:32Z</time>
      </trkpt>
      <trkpt lat="45.32595" lon="5.84397">
        <ele>1178.23</ele>
        <time>2015-03-07T04:51:46Z</time>
      </trkpt>
      <trkpt lat="45.32585" lon="5.84395">
        <ele>1180.64</ele>
        <time>2015-03-07T04:52:02Z</time>
      </trkpt>
      <trkpt lat="45.32574" lon="5.84393">
        <ele>1183.04</ele>
        <time>2015-03-07T04:52:18Z</time>
      </trkpt>
      <trkpt lat="45.32561" lon="5.84388">
        <ele>1185.44</ele>
        <time>2015-03-07T04:52:34Z</time>
      </trkpt>
      <trkpt lat="45.3255" lon="5.84387">
        <ele>1187.85</ele>
        <time>2015-03-07T04:52:49Z</time>
      </trkpt>
      <trkpt lat="45.32535" lon="5.84387">
        <ele>1191.21</ele>
        <time>2015-03-07T04:53:07Z</time>
      </trkpt>
      <trkpt lat="45.32525" lon="5.8439">
        <ele>1192.17</ele>
        <time>2015-03-07T04:53:18Z</time>
      </trkpt>
      <trkpt lat="45.32515" lon="5.84394">
        <ele>1194.58</ele>
        <time>2015-03-07T04:53:31Z</time>
      </trkpt>
      <trkpt lat="45.32504" lon="5.84399">
        <ele>1196.98</ele>
        <time>2015-03-07T04:53:46Z</time>
      </trkpt>
      <trkpt lat="45.32496" lon="5.84407">
        <ele>1198.42</ele>
        <time>2015-03-07T04:53:58Z</time>
      </trkpt>
      <trkpt lat="45.32488" lon="5.84412">
        <ele>1200.34</ele>
        <time>2015-03-07T04:54:10Z</time>
      </trkpt>
      <trkpt lat="45.32479" lon="5.84417">
        <ele>1202.27</ele>
        <time>2015-03-07T04:54:24Z</time>
      </trkpt>
      <trkpt lat="45.32478" lon="5.84419">
        <ele>1202.27</ele>
        <time>2015-03-07T04:54:26Z</time>
      </trkpt>
      <trkpt lat="45.32468" lon="5.8443">
        <ele>1203.71</ele>
        <time>2015-03-07T04:54:38Z</time>
      </trkpt>
      <trkpt lat="45.32458" lon="5.84444">
        <ele>1205.63</ele>
        <time>2015-03-07T04:54:52Z</time>
      </trkpt>
      <trkpt lat="45.32447" lon="5.84454">
        <ele>1207.07</ele>
        <time>2015-03-07T04:55:06Z</time>
      </trkpt>
      <trkpt lat="45.32438" lon="5.84462">
        <ele>1208.51</ele>
        <time>2015-03-07T04:55:18Z</time>
      </trkpt>
      <trkpt lat="45.32427" lon="5.84473">
        <ele>1209.96</ele>
        <time>2015-03-07T04:55:31Z</time>
      </trkpt>
      <trkpt lat="45.32419" lon="5.84478">
        <ele>1211.88</ele>
        <time>2015-03-07T04:55:41Z</time>
      </trkpt>
      <trkpt lat="45.3241" lon="5.84481">
        <ele>1212.84</ele>
        <time>2015-03-07T04:55:54Z</time>
      </trkpt>
      <trkpt lat="45.32402" lon="5.84485">
        <ele>1214.76</ele>
        <time>2015-03-07T04:56:06Z</time>
      </trkpt>
      <trkpt lat="45.32394" lon="5.84486">
        <ele>1218.13</ele>
        <time>2015-03-07T04:56:19Z</time>
      </trkpt>
      <trkpt lat="45.32384" lon="5.8449">
        <ele>1221.01</ele>
        <time>2015-03-07T04:56:33Z</time>
      </trkpt>
      <trkpt lat="45.32374" lon="5.84495">
        <ele>1223.42</ele>
        <time>2015-03-07T04:56:47Z</time>
      </trkpt>
      <trkpt lat="45.32365" lon="5.84501">
        <ele>1226.3</ele>
        <time>2015-03-07T04:57:00Z</time>
      </trkpt>
      <trkpt lat="45.32356" lon="5.84502">
        <ele>1228.7</ele>
        <time>2015-03-07T04:57:13Z</time>
      </trkpt>
      <trkpt lat="45.32348" lon="5.84498">
        <ele>1232.55</ele>
        <time>2015-03-07T04:57:28Z</time>
      </trkpt>
      <trkpt lat="45.32338" lon="5.84487">
        <ele>1235.91</ele>
        <time>2015-03-07T04:57:44Z</time>
      </trkpt>
      <trkpt lat="45.32331" lon="5.84483">
        <ele>1239.28</ele>
        <time>2015-03-07T04:57:59Z</time>
      </trkpt>
      <trkpt lat="45.3232" lon="5.84486">
        <ele>1242.16</ele>
        <time>2015-03-07T04:58:11Z</time>
      </trkpt>
      <trkpt lat="45.32308" lon="5.84489">
        <ele>1244.56</ele>
        <time>2015-03-07T04:58:28Z</time>
      </trkpt>
      <trkpt lat="45.32297" lon="5.84489">
        <ele>1246.97</ele>
        <time>2015-03-07T04:58:42Z</time>
      </trkpt>
      <trkpt lat="45.32288" lon="5.84491">
        <ele>1247.93</ele>
        <time>2015-03-07T04:58:55Z</time>
      </trkpt>
      <trkpt lat="45.32273" lon="5.84496">
        <ele>1249.37</ele>
        <time>2015-03-07T04:59:09Z</time>
      </trkpt>
      <trkpt lat="45.32265" lon="5.845">
        <ele>1250.33</ele>
        <time>2015-03-07T04:59:20Z</time>
      </trkpt>
      <trkpt lat="45.32253" lon="5.84495">
        <ele>1253.22</ele>
        <time>2015-03-07T04:59:36Z</time>
      </trkpt>
      <trkpt lat="45.32241" lon="5.84489">
        <ele>1256.1</ele>
        <time>2015-03-07T04:59:52Z</time>
      </trkpt>
      <trkpt lat="45.32233" lon="5.84489">
        <ele>1258.98</ele>
        <time>2015-03-07T05:00:07Z</time>
      </trkpt>
      <trkpt lat="45.32222" lon="5.84491">
        <ele>1261.87</ele>
        <time>2015-03-07T05:00:21Z</time>
      </trkpt>
      <trkpt lat="45.32214" lon="5.84494">
        <ele>1263.31</ele>
        <time>2015-03-07T05:00:31Z</time>
      </trkpt>
      <trkpt lat="45.32202" lon="5.84495">
        <ele>1266.67</ele>
        <time>2015-03-07T05:00:47Z</time>
      </trkpt>
      <trkpt lat="45.32191" lon="5.84494">
        <ele>1268.6</ele>
        <time>2015-03-07T05:00:58Z</time>
      </trkpt>
      <trkpt lat="45.3218" lon="5.84497">
        <ele>1271.48</ele>
        <time>2015-03-07T05:01:13Z</time>
      </trkpt>
      <trkpt lat="45.32171" lon="5.84499">
        <ele>1274.85</ele>
        <time>2015-03-07T05:01:28Z</time>
      </trkpt>
      <trkpt lat="45.32161" lon="5.84502">
        <ele>1277.73</ele>
        <time>2015-03-07T05:01:45Z</time>
      </trkpt>
      <trkpt lat="45.32153" lon="5.84506">
        <ele>1280.61</ele>
        <time>2015-03-07T05:01:59Z</time>
      </trkpt>
      <trkpt lat="45.32145" lon="5.84505">
        <ele>1283.02</ele>
        <time>2015-03-07T05:02:13Z</time>
      </trkpt>
      <trkpt lat="45.32138" lon="5.84506">
        <ele>1285.9</ele>
        <time>2015-03-07T05:02:29Z</time>
      </trkpt>
      <trkpt lat="45.32127" lon="5.84507">
        <ele>1288.78</ele>
        <time>2015-03-07T05:02:45Z</time>
      </trkpt>
      <trkpt lat="45.32115" lon="5.84507">
        <ele>1290.71</ele>
        <time>2015-03-07T05:02:59Z</time>
      </trkpt>
      <trkpt lat="45.32103" lon="5.84508">
        <ele>1292.63</ele>
        <time>2015-03-07T05:03:13Z</time>
      </trkpt>
      <trkpt lat="45.32095" lon="5.84502">
        <ele>1295.51</ele>
        <time>2015-03-07T05:03:29Z</time>
      </trkpt>
      <trkpt lat="45.32086" lon="5.84485">
        <ele>1298.4</ele>
        <time>2015-03-07T05:03:44Z</time>
      </trkpt>
      <trkpt lat="45.32082" lon="5.84474">
        <ele>1300.8</ele>
        <time>2015-03-07T05:03:59Z</time>
      </trkpt>
      <trkpt lat="45.32074" lon="5.84472">
        <ele>1303.69</ele>
        <time>2015-03-07T05:04:15Z</time>
      </trkpt>
      <trkpt lat="45.32061" lon="5.8447">
        <ele>1305.13</ele>
        <time>2015-03-07T05:04:31Z</time>
      </trkpt>
      <trkpt lat="45.3205" lon="5.84465">
        <ele>1308.01</ele>
        <time>2015-03-07T05:04:45Z</time>
      </trkpt>
      <trkpt lat="45.32041" lon="5.84465">
        <ele>1309.45</ele>
        <time>2015-03-07T05:04:58Z</time>
      </trkpt>
      <trkpt lat="45.32032" lon="5.84464">
        <ele>1311.38</ele>
        <time>2015-03-07T05:05:10Z</time>
      </trkpt>
      <trkpt lat="45.32023" lon="5.84468">
        <ele>1313.3</ele>
        <time>2015-03-07T05:05:22Z</time>
      </trkpt>
      <trkpt lat="45.32016" lon="5.84465">
        <ele>1314.74</ele>
        <time>2015-03-07T05:05:34Z</time>
      </trkpt>
      <trkpt lat="45.32006" lon="5.84457">
        <ele>1316.66</ele>
        <time>2015-03-07T05:05:48Z</time>
      </trkpt>
      <trkpt lat="45.31996" lon="5.84453">
        <ele>1318.1</ele>
        <time>2015-03-07T05:06:02Z</time>
      </trkpt>
      <trkpt lat="45.31992" lon="5.84453">
        <ele>1318.59</ele>
        <time>2015-03-07T05:06:06Z</time>
      </trkpt>
      <trkpt lat="45.31983" lon="5.84453">
        <ele>1320.51</ele>
        <time>2015-03-07T05:06:22Z</time>
      </trkpt>
      <trkpt lat="45.31974" lon="5.84452">
        <ele>1320.51</ele>
        <time>2015-03-07T05:06:40Z</time>
      </trkpt>
      <trkpt lat="45.31971" lon="5.84454">
        <ele>1320.99</ele>
        <time>2015-03-07T05:06:53Z</time>
      </trkpt>
      <trkpt lat="45.31966" lon="5.84452">
        <ele>1320.99</ele>
        <time>2015-03-07T05:07:05Z</time>
      </trkpt>
      <trkpt lat="45.31958" lon="5.84451">
        <ele>1321.95</ele>
        <time>2015-03-07T05:07:16Z</time>
      </trkpt>
      <trkpt lat="45.31945" lon="5.84449">
        <ele>1322.91</ele>
        <time>2015-03-07T05:07:31Z</time>
      </trkpt>
      <trkpt lat="45.31927" lon="5.8444">
        <ele>1325.31</ele>
        <time>2015-03-07T05:07:47Z</time>
      </trkpt>
      <trkpt lat="45.31917" lon="5.84438">
        <ele>1328.2</ele>
        <time>2015-03-07T05:08:01Z</time>
      </trkpt>
      <trkpt lat="45.31902" lon="5.84438">
        <ele>1331.08</ele>
        <time>2015-03-07T05:08:18Z</time>
      </trkpt>
      <trkpt lat="45.31892" lon="5.84438">
        <ele>1333.97</ele>
        <time>2015-03-07T05:08:34Z</time>
      </trkpt>
      <trkpt lat="45.31879" lon="5.84429">
        <ele>1336.37</ele>
        <time>2015-03-07T05:08:48Z</time>
      </trkpt>
      <trkpt lat="45.31867" lon="5.84416">
        <ele>1339.25</ele>
        <time>2015-03-07T05:09:02Z</time>
      </trkpt>
      <trkpt lat="45.31858" lon="5.84408">
        <ele>1341.66</ele>
        <time>2015-03-07T05:09:17Z</time>
      </trkpt>
      <trkpt lat="45.31847" lon="5.84398">
        <ele>1344.06</ele>
        <time>2015-03-07T05:09:33Z</time>
      </trkpt>
      <trkpt lat="45.3183" lon="5.84384">
        <ele>1343.58</ele>
        <time>2015-03-07T05:09:50Z</time>
      </trkpt>
      <trkpt lat="45.31817" lon="5.84374">
        <ele>1345.02</ele>
        <time>2015-03-07T05:10:05Z</time>
      </trkpt>
      <trkpt lat="45.31807" lon="5.84368">
        <ele>1345.5</ele>
        <time>2015-03-07T05:10:17Z</time>
      </trkpt>
      <trkpt lat="45.31797" lon="5.84364">
        <ele>1347.91</ele>
        <time>2015-03-07T05:10:31Z</time>
      </trkpt>
      <trkpt lat="45.31785" lon="5.84361">
        <ele>1349.83</ele>
        <time>2015-03-07T05:10:47Z</time>
      </trkpt>
      <trkpt lat="45.31772" lon="5.84359">
        <ele>1351.27</ele>
        <time>2015-03-07T05:11:02Z</time>
      </trkpt>
      <trkpt lat="45.3176" lon="5.84359">
        <ele>1351.75</ele>
        <time>2015-03-07T05:11:15Z</time>
      </trkpt>
      <trkpt lat="45.31747" lon="5.84354">
        <ele>1353.19</ele>
        <time>2015-03-07T05:11:29Z</time>
      </trkpt>
      <trkpt lat="45.31736" lon="5.84352">
        <ele>1354.15</ele>
        <time>2015-03-07T05:11:41Z</time>
      </trkpt>
      <trkpt lat="45.31728" lon="5.84356">
        <ele>1356.08</ele>
        <time>2015-03-07T05:11:53Z</time>
      </trkpt>
      <trkpt lat="45.31717" lon="5.84355">
        <ele>1359.44</ele>
        <time>2015-03-07T05:12:07Z</time>
      </trkpt>
      <trkpt lat="45.31704" lon="5.84349">
        <ele>1362.33</ele>
        <time>2015-03-07T05:12:23Z</time>
      </trkpt>
      <trkpt lat="45.31694" lon="5.84349">
        <ele>1365.69</ele>
        <time>2015-03-07T05:12:37Z</time>
      </trkpt>
      <trkpt lat="45.31686" lon="5.84351">
        <ele>1368.09</ele>
        <time>2015-03-07T05:12:50Z</time>
      </trkpt>
      <trkpt lat="45.31678" lon="5.84351">
        <ele>1370.02</ele>
        <time>2015-03-07T05:13:01Z</time>
      </trkpt>
      <trkpt lat="45.3167" lon="5.84352">
        <ele>1372.42</ele>
        <time>2015-03-07T05:13:12Z</time>
      </trkpt>
      <trkpt lat="45.31658" lon="5.84355">
        <ele>1375.3</ele>
        <time>2015-03-07T05:13:27Z</time>
      </trkpt>
      <trkpt lat="45.31649" lon="5.84356">
        <ele>1378.19</ele>
        <time>2015-03-07T05:13:38Z</time>
      </trkpt>
      <trkpt lat="45.31641" lon="5.84351">
        <ele>1381.55</ele>
        <time>2015-03-07T05:13:52Z</time>
      </trkpt>
      <trkpt lat="45.31631" lon="5.84344">
        <ele>1384.92</ele>
        <time>2015-03-07T05:14:08Z</time>
      </trkpt>
      <trkpt lat="45.31621" lon="5.84341">
        <ele>1388.76</ele>
        <time>2015-03-07T05:14:23Z</time>
      </trkpt>
      <trkpt lat="45.31614" lon="5.84336">
        <ele>1391.17</ele>
        <time>2015-03-07T05:14:35Z</time>
      </trkpt>
      <trkpt lat="45.3161" lon="5.84329">
        <ele>1394.53</ele>
        <time>2015-03-07T05:14:48Z</time>
      </trkpt>
      <trkpt lat="45.31616" lon="5.84322">
        <ele>1396.45</ele>
        <time>2015-03-07T05:15:01Z</time>
      </trkpt>
      <trkpt lat="45.31629" lon="5.84317">
        <ele>1399.34</ele>
        <time>2015-03-07T05:15:14Z</time>
      </trkpt>
      <trkpt lat="45.31633" lon="5.84304">
        <ele>1402.22</ele>
        <time>2015-03-07T05:15:28Z</time>
      </trkpt>
      <trkpt lat="45.31627" lon="5.84299">
        <ele>1404.62</ele>
        <time>2015-03-07T05:15:41Z</time>
      </trkpt>
      <trkpt lat="45.31626" lon="5.843">
        <ele>1405.58</ele>
        <time>2015-03-07T05:16:04Z</time>
      </trkpt>
      <trkpt lat="45.31616" lon="5.84294">
        <ele>1408.47</ele>
        <time>2015-03-07T05:16:19Z</time>
      </trkpt>
      <trkpt lat="45.31607" lon="5.84284">
        <ele>1412.31</ele>
        <time>2015-03-07T05:16:38Z</time>
      </trkpt>
      <trkpt lat="45.31601" lon="5.84275">
        <ele>1415.2</ele>
        <time>2015-03-07T05:16:52Z</time>
      </trkpt>
      <trkpt lat="45.31595" lon="5.84267">
        <ele>1418.08</ele>
        <time>2015-03-07T05:17:07Z</time>
      </trkpt>
      <trkpt lat="45.31586" lon="5.84267">
        <ele>1420.97</ele>
        <time>2015-03-07T05:17:23Z</time>
      </trkpt>
      <trkpt lat="45.31576" lon="5.84255">
        <ele>1424.81</ele>
        <time>2015-03-07T05:17:39Z</time>
      </trkpt>
      <trkpt lat="45.31571" lon="5.84242">
        <ele>1427.7</ele>
        <time>2015-03-07T05:17:54Z</time>
      </trkpt>
      <trkpt lat="45.31569" lon="5.84232">
        <ele>1431.06</ele>
        <time>2015-03-07T05:18:07Z</time>
      </trkpt>
      <trkpt lat="45.31567" lon="5.84221">
        <ele>1433.46</ele>
        <time>2015-03-07T05:18:20Z</time>
      </trkpt>
      <trkpt lat="45.31563" lon="5.84212">
        <ele>1436.35</ele>
        <time>2015-03-07T05:18:34Z</time>
      </trkpt>
      <trkpt lat="45.31558" lon="5.84203">
        <ele>1439.71</ele>
        <time>2015-03-07T05:18:47Z</time>
      </trkpt>
      <trkpt lat="45.31549" lon="5.84199">
        <ele>1441.63</ele>
        <time>2015-03-07T05:19:02Z</time>
      </trkpt>
      <trkpt lat="45.31542" lon="5.84194">
        <ele>1443.56</ele>
        <time>2015-03-07T05:19:15Z</time>
      </trkpt>
      <trkpt lat="45.31533" lon="5.84183">
        <ele>1446.44</ele>
        <time>2015-03-07T05:19:30Z</time>
      </trkpt>
      <trkpt lat="45.31522" lon="5.84181">
        <ele>1448.84</ele>
        <time>2015-03-07T05:19:43Z</time>
      </trkpt>
      <trkpt lat="45.31511" lon="5.84177">
        <ele>1451.25</ele>
        <time>2015-03-07T05:19:56Z</time>
      </trkpt>
      <trkpt lat="45.315" lon="5.84178">
        <ele>1453.65</ele>
        <time>2015-03-07T05:20:10Z</time>
      </trkpt>
      <trkpt lat="45.31492" lon="5.84177">
        <ele>1456.53</ele>
        <time>2015-03-07T05:20:24Z</time>
      </trkpt>
      <trkpt lat="45.31482" lon="5.84178">
        <ele>1458.94</ele>
        <time>2015-03-07T05:20:37Z</time>
      </trkpt>
      <trkpt lat="45.31472" lon="5.84183">
        <ele>1460.86</ele>
        <time>2015-03-07T05:20:51Z</time>
      </trkpt>
      <trkpt lat="45.31461" lon="5.84183">
        <ele>1463.26</ele>
        <time>2015-03-07T05:21:06Z</time>
      </trkpt>
      <trkpt lat="45.3145" lon="5.84182">
        <ele>1465.19</ele>
        <time>2015-03-07T05:21:22Z</time>
      </trkpt>
      <trkpt lat="45.31434" lon="5.84178">
        <ele>1466.15</ele>
        <time>2015-03-07T05:21:38Z</time>
      </trkpt>
      <trkpt lat="45.31422" lon="5.84166">
        <ele>1469.03</ele>
        <time>2015-03-07T05:21:55Z</time>
      </trkpt>
      <trkpt lat="45.31412" lon="5.84161">
        <ele>1470.95</ele>
        <time>2015-03-07T05:22:09Z</time>
      </trkpt>
      <trkpt lat="45.31402" lon="5.84163">
        <ele>1472.88</ele>
        <time>2015-03-07T05:22:23Z</time>
      </trkpt>
      <trkpt lat="45.31387" lon="5.84162">
        <ele>1475.76</ele>
        <time>2015-03-07T05:22:39Z</time>
      </trkpt>
      <trkpt lat="45.31377" lon="5.84161">
        <ele>1477.68</ele>
        <time>2015-03-07T05:22:51Z</time>
      </trkpt>
      <trkpt lat="45.31365" lon="5.8416">
        <ele>1479.13</ele>
        <time>2015-03-07T05:23:05Z</time>
      </trkpt>
      <trkpt lat="45.31358" lon="5.84159">
        <ele>1480.57</ele>
        <time>2015-03-07T05:23:15Z</time>
      </trkpt>
      <trkpt lat="45.31348" lon="5.84159">
        <ele>1482.49</ele>
        <time>2015-03-07T05:23:27Z</time>
      </trkpt>
      <trkpt lat="45.31335" lon="5.84158">
        <ele>1484.41</ele>
        <time>2015-03-07T05:23:42Z</time>
      </trkpt>
      <trkpt lat="45.31328" lon="5.84153">
        <ele>1486.82</ele>
        <time>2015-03-07T05:23:55Z</time>
      </trkpt>
      <trkpt lat="45.31315" lon="5.84143">
        <ele>1489.7</ele>
        <time>2015-03-07T05:24:14Z</time>
      </trkpt>
      <trkpt lat="45.31305" lon="5.84129">
        <ele>1493.06</ele>
        <time>2015-03-07T05:24:32Z</time>
      </trkpt>
      <trkpt lat="45.31305" lon="5.84129">
        <ele>1493.06</ele>
        <time>2015-03-07T05:24:33Z</time>
      </trkpt>
      <trkpt lat="45.31293" lon="5.84127">
        <ele>1495.47</ele>
        <time>2015-03-07T05:24:48Z</time>
      </trkpt>
      <trkpt lat="45.31282" lon="5.84122">
        <ele>1497.39</ele>
        <time>2015-03-07T05:25:02Z</time>
      </trkpt>
      <trkpt lat="45.31274" lon="5.8412">
        <ele>1499.31</ele>
        <time>2015-03-07T05:25:16Z</time>
      </trkpt>
      <trkpt lat="45.31267" lon="5.84124">
        <ele>1500.27</ele>
        <time>2015-03-07T05:25:29Z</time>
      </trkpt>
      <trkpt lat="45.31261" lon="5.84126">
        <ele>1502.2</ele>
        <time>2015-03-07T05:25:43Z</time>
      </trkpt>
      <trkpt lat="45.31253" lon="5.84123">
        <ele>1503.16</ele>
        <time>2015-03-07T05:25:54Z</time>
      </trkpt>
      <trkpt lat="45.31239" lon="5.84112">
        <ele>1505.08</ele>
        <time>2015-03-07T05:26:11Z</time>
      </trkpt>
      <trkpt lat="45.31223" lon="5.84106">
        <ele>1506.04</ele>
        <time>2015-03-07T05:26:26Z</time>
      </trkpt>
      <trkpt lat="45.31218" lon="5.84101">
        <ele>1507.48</ele>
        <time>2015-03-07T05:26:39Z</time>
      </trkpt>
      <trkpt lat="45.31213" lon="5.84098">
        <ele>1508.45</ele>
        <time>2015-03-07T05:26:49Z</time>
      </trkpt>
      <trkpt lat="45.31206" lon="5.84091">
        <ele>1509.89</ele>
        <time>2015-03-07T05:27:03Z</time>
      </trkpt>
      <trkpt lat="45.31195" lon="5.84089">
        <ele>1511.81</ele>
        <time>2015-03-07T05:27:17Z</time>
      </trkpt>
      <trkpt lat="45.31179" lon="5.84085">
        <ele>1514.69</ele>
        <time>2015-03-07T05:27:33Z</time>
      </trkpt>
      <trkpt lat="45.31163" lon="5.84092">
        <ele>1516.14</ele>
        <time>2015-03-07T05:27:48Z</time>
      </trkpt>
      <trkpt lat="45.31151" lon="5.84098">
        <ele>1517.58</ele>
        <time>2015-03-07T05:28:01Z</time>
      </trkpt>
      <trkpt lat="45.31134" lon="5.84102">
        <ele>1519.98</ele>
        <time>2015-03-07T05:28:17Z</time>
      </trkpt>
      <trkpt lat="45.31124" lon="5.84105">
        <ele>1522.87</ele>
        <time>2015-03-07T05:28:31Z</time>
      </trkpt>
      <trkpt lat="45.31113" lon="5.84119">
        <ele>1526.23</ele>
        <time>2015-03-07T05:28:47Z</time>
      </trkpt>
      <trkpt lat="45.31111" lon="5.84134">
        <ele>1527.67</ele>
        <time>2015-03-07T05:28:59Z</time>
      </trkpt>
      <trkpt lat="45.31102" lon="5.84145">
        <ele>1528.63</ele>
        <time>2015-03-07T05:29:14Z</time>
      </trkpt>
      <trkpt lat="45.31094" lon="5.84149">
        <ele>1530.08</ele>
        <time>2015-03-07T05:29:27Z</time>
      </trkpt>
      <trkpt lat="45.31088" lon="5.84157">
        <ele>1530.56</ele>
        <time>2015-03-07T05:29:39Z</time>
      </trkpt>
      <trkpt lat="45.31085" lon="5.84165">
        <ele>1531.04</ele>
        <time>2015-03-07T05:29:45Z</time>
      </trkpt>
      <trkpt lat="45.31075" lon="5.84178">
        <ele>1532</ele>
        <time>2015-03-07T05:29:59Z</time>
      </trkpt>
      <trkpt lat="45.31066" lon="5.84189">
        <ele>1534.88</ele>
        <time>2015-03-07T05:30:14Z</time>
      </trkpt>
      <trkpt lat="45.31057" lon="5.84192">
        <ele>1536.8</ele>
        <time>2015-03-07T05:30:26Z</time>
      </trkpt>
      <trkpt lat="45.31051" lon="5.84197">
        <ele>1536.8</ele>
        <time>2015-03-07T05:30:42Z</time>
      </trkpt>
      <trkpt lat="45.31049" lon="5.84197">
        <ele>1536.8</ele>
        <time>2015-03-07T05:30:57Z</time>
      </trkpt>
      <trkpt lat="45.31047" lon="5.84199">
        <ele>1536.8</ele>
        <time>2015-03-07T05:31:19Z</time>
      </trkpt>
      <trkpt lat="45.31036" lon="5.84211">
        <ele>1535.36</ele>
        <time>2015-03-07T05:31:33Z</time>
      </trkpt>
      <trkpt lat="45.31024" lon="5.84227">
        <ele>1533.92</ele>
        <time>2015-03-07T05:31:46Z</time>
      </trkpt>
      <trkpt lat="45.31022" lon="5.8423">
        <ele>1533.92</ele>
        <time>2015-03-07T05:32:01Z</time>
      </trkpt>
      <trkpt lat="45.31022" lon="5.8423">
        <ele>1533.44</ele>
        <time>2015-03-07T05:32:18Z</time>
      </trkpt>
      <trkpt lat="45.31018" lon="5.84238">
        <ele>1533.44</ele>
        <time>2015-03-07T05:32:37Z</time>
      </trkpt>
      <trkpt lat="45.31012" lon="5.8425">
        <ele>1533.92</ele>
        <time>2015-03-07T05:32:50Z</time>
      </trkpt>
      <trkpt lat="45.3101" lon="5.84257">
        <ele>1534.88</ele>
        <time>2015-03-07T05:32:57Z</time>
      </trkpt>
      <trkpt lat="45.31005" lon="5.84274">
        <ele>1536.32</ele>
        <time>2015-03-07T05:33:11Z</time>
      </trkpt>
      <trkpt lat="45.31011" lon="5.8429">
        <ele>1539.21</ele>
        <time>2015-03-07T05:33:28Z</time>
      </trkpt>
      <trkpt lat="45.31015" lon="5.8429">
        <ele>1540.17</ele>
        <time>2015-03-07T05:33:46Z</time>
      </trkpt>
      <trkpt lat="45.31014" lon="5.84288">
        <ele>1540.65</ele>
        <time>2015-03-07T05:34:03Z</time>
      </trkpt>
      <trkpt lat="45.31014" lon="5.84284">
        <ele>1539.21</ele>
        <time>2015-03-07T05:34:21Z</time>
      </trkpt>
      <trkpt lat="45.31014" lon="5.84283">
        <ele>1540.65</ele>
        <time>2015-03-07T05:34:24Z</time>
      </trkpt>
      <trkpt lat="45.31017" lon="5.843">
        <ele>1540.17</ele>
        <time>2015-03-07T05:34:55Z</time>
      </trkpt>
      <trkpt lat="45.31014" lon="5.8429">
        <ele>1540.65</ele>
        <time>2015-03-07T05:35:13Z</time>
      </trkpt>
      <trkpt lat="45.31014" lon="5.84293">
        <ele>1540.65</ele>
        <time>2015-03-07T05:35:34Z</time>
      </trkpt>
      <trkpt lat="45.31013" lon="5.84292">
        <ele>1541.61</ele>
        <time>2015-03-07T05:35:51Z</time>
      </trkpt>
      <trkpt lat="45.31013" lon="5.84291">
        <ele>1540.17</ele>
        <time>2015-03-07T05:35:53Z</time>
      </trkpt>
      <trkpt lat="45.31012" lon="5.84291">
        <ele>1541.61</ele>
        <time>2015-03-07T05:35:55Z</time>
      </trkpt>
      <trkpt lat="45.31013" lon="5.84292">
        <ele>1541.61</ele>
        <time>2015-03-07T05:36:20Z</time>
      </trkpt>
      <trkpt lat="45.31013" lon="5.84292">
        <ele>1541.61</ele>
        <time>2015-03-07T05:36:41Z</time>
      </trkpt>
      <trkpt lat="45.31014" lon="5.84292">
        <ele>1541.61</ele>
        <time>2015-03-07T05:37:05Z</time>
      </trkpt>
      <trkpt lat="45.31013" lon="5.84292">
        <ele>1541.61</ele>
        <time>2015-03-07T05:37:30Z</time>
      </trkpt>
      <trkpt lat="45.31013" lon="5.8429">
        <ele>1541.61</ele>
        <time>2015-03-07T05:37:50Z</time>
      </trkpt>
      <trkpt lat="45.31012" lon="5.84292">
        <ele>1541.61</ele>
        <time>2015-03-07T05:38:08Z</time>
      </trkpt>
      <trkpt lat="45.31012" lon="5.84292">
        <ele>1541.61</ele>
        <time>2015-03-07T05:38:33Z</time>
      </trkpt>
      <trkpt lat="45.31012" lon="5.84292">
        <ele>1541.61</ele>
        <time>2015-03-07T05:38:59Z</time>
      </trkpt>
      <trkpt lat="45.3101" lon="5.84296">
        <ele>1541.61</ele>
        <time>2015-03-07T05:39:24Z</time>
      </trkpt>
      <trkpt lat="45.31009" lon="5.84305">
        <ele>1543.53</ele>
        <time>2015-03-07T05:39:40Z</time>
      </trkpt>
      <trkpt lat="45.31006" lon="5.84311">
        <ele>1544.5</ele>
        <time>2015-03-07T05:39:49Z</time>
      </trkpt>
      <trkpt lat="45.31004" lon="5.84323">
        <ele>1547.38</ele>
        <time>2015-03-07T05:40:04Z</time>
      </trkpt>
      <trkpt lat="45.30999" lon="5.84334">
        <ele>1549.3</ele>
        <time>2015-03-07T05:40:19Z</time>
      </trkpt>
      <trkpt lat="45.30999" lon="5.84342">
        <ele>1551.71</ele>
        <time>2015-03-07T05:40:34Z</time>
      </trkpt>
      <trkpt lat="45.31005" lon="5.84349">
        <ele>1555.07</ele>
        <time>2015-03-07T05:40:52Z</time>
      </trkpt>
      <trkpt lat="45.30998" lon="5.84358">
        <ele>1556.99</ele>
        <time>2015-03-07T05:41:06Z</time>
      </trkpt>
      <trkpt lat="45.30989" lon="5.84368">
        <ele>1558.43</ele>
        <time>2015-03-07T05:41:21Z</time>
      </trkpt>
      <trkpt lat="45.30984" lon="5.84377">
        <ele>1561.32</ele>
        <time>2015-03-07T05:41:37Z</time>
      </trkpt>
      <trkpt lat="45.30981" lon="5.84389">
        <ele>1563.72</ele>
        <time>2015-03-07T05:41:53Z</time>
      </trkpt>
      <trkpt lat="45.30977" lon="5.84401">
        <ele>1566.61</ele>
        <time>2015-03-07T05:42:10Z</time>
      </trkpt>
      <trkpt lat="45.30982" lon="5.84406">
        <ele>1568.05</ele>
        <time>2015-03-07T05:42:26Z</time>
      </trkpt>
      <trkpt lat="45.30991" lon="5.8441">
        <ele>1570.93</ele>
        <time>2015-03-07T05:42:43Z</time>
      </trkpt>
      <trkpt lat="45.31" lon="5.84415">
        <ele>1574.3</ele>
        <time>2015-03-07T05:43:02Z</time>
      </trkpt>
      <trkpt lat="45.31003" lon="5.84422">
        <ele>1577.66</ele>
        <time>2015-03-07T05:43:22Z</time>
      </trkpt>
      <trkpt lat="45.30996" lon="5.84434">
        <ele>1580.06</ele>
        <time>2015-03-07T05:43:40Z</time>
      </trkpt>
      <trkpt lat="45.30992" lon="5.84444">
        <ele>1582.95</ele>
        <time>2015-03-07T05:43:57Z</time>
      </trkpt>
      <trkpt lat="45.30987" lon="5.84455">
        <ele>1585.35</ele>
        <time>2015-03-07T05:44:17Z</time>
      </trkpt>
      <trkpt lat="45.30993" lon="5.84459">
        <ele>1587.75</ele>
        <time>2015-03-07T05:44:32Z</time>
      </trkpt>
      <trkpt lat="45.30993" lon="5.84459">
        <ele>1588.24</ele>
        <time>2015-03-07T05:45:04Z</time>
      </trkpt>
      <trkpt lat="45.30994" lon="5.84457">
        <ele>1588.24</ele>
        <time>2015-03-07T05:45:30Z</time>
      </trkpt>
      <trkpt lat="45.30993" lon="5.84463">
        <ele>1590.16</ele>
        <time>2015-03-07T05:45:53Z</time>
      </trkpt>
      <trkpt lat="45.30987" lon="5.84474">
        <ele>1592.08</ele>
        <time>2015-03-07T05:46:09Z</time>
      </trkpt>
      <trkpt lat="45.3098" lon="5.84482">
        <ele>1594.48</ele>
        <time>2015-03-07T05:46:27Z</time>
      </trkpt>
      <trkpt lat="45.30985" lon="5.84486">
        <ele>1596.41</ele>
        <time>2015-03-07T05:46:41Z</time>
      </trkpt>
      <trkpt lat="45.30981" lon="5.84494">
        <ele>1598.81</ele>
        <time>2015-03-07T05:47:00Z</time>
      </trkpt>
      <trkpt lat="45.30984" lon="5.84497">
        <ele>1601.21</ele>
        <time>2015-03-07T05:47:16Z</time>
      </trkpt>
      <trkpt lat="45.30981" lon="5.84507">
        <ele>1603.14</ele>
        <time>2015-03-07T05:47:33Z</time>
      </trkpt>
      <trkpt lat="45.30987" lon="5.84508">
        <ele>1605.06</ele>
        <time>2015-03-07T05:47:48Z</time>
      </trkpt>
      <trkpt lat="45.3098" lon="5.84518">
        <ele>1607.46</ele>
        <time>2015-03-07T05:48:06Z</time>
      </trkpt>
      <trkpt lat="45.30976" lon="5.84527">
        <ele>1609.86</ele>
        <time>2015-03-07T05:48:27Z</time>
      </trkpt>
      <trkpt lat="45.30983" lon="5.84529">
        <ele>1613.23</ele>
        <time>2015-03-07T05:48:48Z</time>
      </trkpt>
      <trkpt lat="45.30976" lon="5.84539">
        <ele>1615.63</ele>
        <time>2015-03-07T05:49:07Z</time>
      </trkpt>
      <trkpt lat="45.3098" lon="5.84542">
        <ele>1617.56</ele>
        <time>2015-03-07T05:49:23Z</time>
      </trkpt>
      <trkpt lat="45.30977" lon="5.84548">
        <ele>1619.96</ele>
        <time>2015-03-07T05:49:36Z</time>
      </trkpt>
      <trkpt lat="45.30979" lon="5.84553">
        <ele>1621.88</ele>
        <time>2015-03-07T05:49:53Z</time>
      </trkpt>
      <trkpt lat="45.30977" lon="5.84559">
        <ele>1623.8</ele>
        <time>2015-03-07T05:50:08Z</time>
      </trkpt>
      <trkpt lat="45.30981" lon="5.84562">
        <ele>1627.17</ele>
        <time>2015-03-07T05:50:26Z</time>
      </trkpt>
      <trkpt lat="45.30974" lon="5.84571">
        <ele>1629.09</ele>
        <time>2015-03-07T05:50:45Z</time>
      </trkpt>
      <trkpt lat="45.30972" lon="5.84577">
        <ele>1631.01</ele>
        <time>2015-03-07T05:51:02Z</time>
      </trkpt>
      <trkpt lat="45.30981" lon="5.84579">
        <ele>1633.42</ele>
        <time>2015-03-07T05:51:19Z</time>
      </trkpt>
      <trkpt lat="45.30975" lon="5.84586">
        <ele>1636.3</ele>
        <time>2015-03-07T05:51:34Z</time>
      </trkpt>
      <trkpt lat="45.30971" lon="5.84592">
        <ele>1638.22</ele>
        <time>2015-03-07T05:51:49Z</time>
      </trkpt>
      <trkpt lat="45.30965" lon="5.84601">
        <ele>1641.11</ele>
        <time>2015-03-07T05:52:09Z</time>
      </trkpt>
      <trkpt lat="45.30972" lon="5.84602">
        <ele>1643.51</ele>
        <time>2015-03-07T05:52:28Z</time>
      </trkpt>
      <trkpt lat="45.3098" lon="5.84602">
        <ele>1646.4</ele>
        <time>2015-03-07T05:52:49Z</time>
      </trkpt>
      <trkpt lat="45.30979" lon="5.84612">
        <ele>1649.28</ele>
        <time>2015-03-07T05:53:08Z</time>
      </trkpt>
      <trkpt lat="45.30973" lon="5.84621">
        <ele>1651.68</ele>
        <time>2015-03-07T05:53:26Z</time>
      </trkpt>
      <trkpt lat="45.30975" lon="5.84624">
        <ele>1652.64</ele>
        <time>2015-03-07T05:53:44Z</time>
      </trkpt>
      <trkpt lat="45.3098" lon="5.84624">
        <ele>1656.01</ele>
        <time>2015-03-07T05:54:00Z</time>
      </trkpt>
      <trkpt lat="45.30984" lon="5.84629">
        <ele>1658.89</ele>
        <time>2015-03-07T05:54:19Z</time>
      </trkpt>
      <trkpt lat="45.30978" lon="5.84639">
        <ele>1661.3</ele>
        <time>2015-03-07T05:54:37Z</time>
      </trkpt>
      <trkpt lat="45.30973" lon="5.84646">
        <ele>1663.22</ele>
        <time>2015-03-07T05:54:56Z</time>
      </trkpt>
      <trkpt lat="45.3098" lon="5.84649">
        <ele>1665.62</ele>
        <time>2015-03-07T05:55:15Z</time>
      </trkpt>
      <trkpt lat="45.30986" lon="5.84649">
        <ele>1668.99</ele>
        <time>2015-03-07T05:55:32Z</time>
      </trkpt>
      <trkpt lat="45.30982" lon="5.84657">
        <ele>1670.43</ele>
        <time>2015-03-07T05:55:48Z</time>
      </trkpt>
      <trkpt lat="45.30975" lon="5.84664">
        <ele>1672.83</ele>
        <time>2015-03-07T05:56:06Z</time>
      </trkpt>
      <trkpt lat="45.30967" lon="5.84672">
        <ele>1675.23</ele>
        <time>2015-03-07T05:56:26Z</time>
      </trkpt>
      <trkpt lat="45.30973" lon="5.84673">
        <ele>1677.16</ele>
        <time>2015-03-07T05:56:41Z</time>
      </trkpt>
      <trkpt lat="45.30969" lon="5.84681">
        <ele>1679.56</ele>
        <time>2015-03-07T05:56:59Z</time>
      </trkpt>
      <trkpt lat="45.30967" lon="5.84685">
        <ele>1681</ele>
        <time>2015-03-07T05:57:15Z</time>
      </trkpt>
      <trkpt lat="45.30972" lon="5.84687">
        <ele>1683.89</ele>
        <time>2015-03-07T05:57:28Z</time>
      </trkpt>
      <trkpt lat="45.30972" lon="5.84688">
        <ele>1683.89</ele>
        <time>2015-03-07T05:57:29Z</time>
      </trkpt>
      <trkpt lat="45.30967" lon="5.84695">
        <ele>1685.33</ele>
        <time>2015-03-07T05:57:47Z</time>
      </trkpt>
      <trkpt lat="45.30972" lon="5.84697">
        <ele>1687.25</ele>
        <time>2015-03-07T05:58:04Z</time>
      </trkpt>
      <trkpt lat="45.30976" lon="5.847">
        <ele>1689.65</ele>
        <time>2015-03-07T05:58:21Z</time>
      </trkpt>
      <trkpt lat="45.30974" lon="5.84706">
        <ele>1692.06</ele>
        <time>2015-03-07T05:58:40Z</time>
      </trkpt>
      <trkpt lat="45.3097" lon="5.84713">
        <ele>1694.46</ele>
        <time>2015-03-07T05:58:57Z</time>
      </trkpt>
      <trkpt lat="45.30972" lon="5.84717">
        <ele>1696.86</ele>
        <time>2015-03-07T05:59:12Z</time>
      </trkpt>
      <trkpt lat="45.30965" lon="5.84724">
        <ele>1698.79</ele>
        <time>2015-03-07T05:59:32Z</time>
      </trkpt>
      <trkpt lat="45.30967" lon="5.84727">
        <ele>1700.71</ele>
        <time>2015-03-07T05:59:47Z</time>
      </trkpt>
      <trkpt lat="45.3097" lon="5.84731">
        <ele>1703.59</ele>
        <time>2015-03-07T06:00:05Z</time>
      </trkpt>
      <trkpt lat="45.30965" lon="5.84739">
        <ele>1705.52</ele>
        <time>2015-03-07T06:00:25Z</time>
      </trkpt>
      <trkpt lat="45.30969" lon="5.84743">
        <ele>1708.88</ele>
        <time>2015-03-07T06:00:41Z</time>
      </trkpt>
      <trkpt lat="45.30963" lon="5.84748">
        <ele>1709.36</ele>
        <time>2015-03-07T06:00:58Z</time>
      </trkpt>
      <trkpt lat="45.30968" lon="5.84752">
        <ele>1712.25</ele>
        <time>2015-03-07T06:01:16Z</time>
      </trkpt>
      <trkpt lat="45.30975" lon="5.84752">
        <ele>1713.69</ele>
        <time>2015-03-07T06:01:33Z</time>
      </trkpt>
      <trkpt lat="45.30976" lon="5.84753">
        <ele>1715.13</ele>
        <time>2015-03-07T06:01:37Z</time>
      </trkpt>
      <trkpt lat="45.30973" lon="5.84758">
        <ele>1717.05</ele>
        <time>2015-03-07T06:01:54Z</time>
      </trkpt>
      <trkpt lat="45.30968" lon="5.84766">
        <ele>1719.94</ele>
        <time>2015-03-07T06:02:11Z</time>
      </trkpt>
      <trkpt lat="45.30963" lon="5.84773">
        <ele>1720.9</ele>
        <time>2015-03-07T06:02:27Z</time>
      </trkpt>
      <trkpt lat="45.30965" lon="5.84779">
        <ele>1723.78</ele>
        <time>2015-03-07T06:02:46Z</time>
      </trkpt>
      <trkpt lat="45.30963" lon="5.84787">
        <ele>1725.7</ele>
        <time>2015-03-07T06:03:04Z</time>
      </trkpt>
      <trkpt lat="45.30959" lon="5.84795">
        <ele>1729.07</ele>
        <time>2015-03-07T06:03:22Z</time>
      </trkpt>
      <trkpt lat="45.30953" lon="5.84805">
        <ele>1731.47</ele>
        <time>2015-03-07T06:03:43Z</time>
      </trkpt>
      <trkpt lat="45.30951" lon="5.84812">
        <ele>1733.39</ele>
        <time>2015-03-07T06:04:00Z</time>
      </trkpt>
      <trkpt lat="45.30955" lon="5.84813">
        <ele>1735.32</ele>
        <time>2015-03-07T06:04:17Z</time>
      </trkpt>
      <trkpt lat="45.30949" lon="5.84821">
        <ele>1738.2</ele>
        <time>2015-03-07T06:04:37Z</time>
      </trkpt>
      <trkpt lat="45.30948" lon="5.8483">
        <ele>1741.08</ele>
        <time>2015-03-07T06:04:57Z</time>
      </trkpt>
      <trkpt lat="45.30954" lon="5.84831">
        <ele>1743.49</ele>
        <time>2015-03-07T06:05:17Z</time>
      </trkpt>
      <trkpt lat="45.30951" lon="5.8484">
        <ele>1746.37</ele>
        <time>2015-03-07T06:05:36Z</time>
      </trkpt>
      <trkpt lat="45.30957" lon="5.8484">
        <ele>1748.78</ele>
        <time>2015-03-07T06:05:54Z</time>
      </trkpt>
      <trkpt lat="45.30956" lon="5.84848">
        <ele>1750.7</ele>
        <time>2015-03-07T06:06:13Z</time>
      </trkpt>
      <trkpt lat="45.3096" lon="5.84849">
        <ele>1752.14</ele>
        <time>2015-03-07T06:06:28Z</time>
      </trkpt>
      <trkpt lat="45.30962" lon="5.84852">
        <ele>1754.54</ele>
        <time>2015-03-07T06:06:42Z</time>
      </trkpt>
      <trkpt lat="45.30961" lon="5.84858">
        <ele>1756.47</ele>
        <time>2015-03-07T06:07:04Z</time>
      </trkpt>
      <trkpt lat="45.30954" lon="5.84867">
        <ele>1758.87</ele>
        <time>2015-03-07T06:07:23Z</time>
      </trkpt>
      <trkpt lat="45.30962" lon="5.84865">
        <ele>1760.31</ele>
        <time>2015-03-07T06:07:40Z</time>
      </trkpt>
      <trkpt lat="45.30959" lon="5.84872">
        <ele>1762.71</ele>
        <time>2015-03-07T06:07:57Z</time>
      </trkpt>
      <trkpt lat="45.30956" lon="5.84881">
        <ele>1765.6</ele>
        <time>2015-03-07T06:08:12Z</time>
      </trkpt>
      <trkpt lat="45.30952" lon="5.84891">
        <ele>1767.52</ele>
        <time>2015-03-07T06:08:29Z</time>
      </trkpt>
      <trkpt lat="45.30953" lon="5.84893">
        <ele>1769.44</ele>
        <time>2015-03-07T06:08:44Z</time>
      </trkpt>
      <trkpt lat="45.30953" lon="5.84892">
        <ele>1769.92</ele>
        <time>2015-03-07T06:09:09Z</time>
      </trkpt>
      <trkpt lat="45.30954" lon="5.84897">
        <ele>1771.85</ele>
        <time>2015-03-07T06:09:28Z</time>
      </trkpt>
      <trkpt lat="45.3095" lon="5.84907">
        <ele>1774.73</ele>
        <time>2015-03-07T06:09:48Z</time>
      </trkpt>
      <trkpt lat="45.30944" lon="5.84917">
        <ele>1777.61</ele>
        <time>2015-03-07T06:10:09Z</time>
      </trkpt>
      <trkpt lat="45.30945" lon="5.84923">
        <ele>1780.02</ele>
        <time>2015-03-07T06:10:27Z</time>
      </trkpt>
      <trkpt lat="45.30953" lon="5.84922">
        <ele>1782.9</ele>
        <time>2015-03-07T06:10:47Z</time>
      </trkpt>
      <trkpt lat="45.30956" lon="5.84926">
        <ele>1784.82</ele>
        <time>2015-03-07T06:11:06Z</time>
      </trkpt>
      <trkpt lat="45.30952" lon="5.84932">
        <ele>1786.27</ele>
        <time>2015-03-07T06:11:31Z</time>
      </trkpt>
      <trkpt lat="45.30952" lon="5.84937">
        <ele>1789.15</ele>
        <time>2015-03-07T06:11:48Z</time>
      </trkpt>
      <trkpt lat="45.30958" lon="5.84937">
        <ele>1791.55</ele>
        <time>2015-03-07T06:12:07Z</time>
      </trkpt>
      <trkpt lat="45.30957" lon="5.84942">
        <ele>1793.48</ele>
        <time>2015-03-07T06:12:24Z</time>
      </trkpt>
      <trkpt lat="45.30951" lon="5.84952">
        <ele>1795.88</ele>
        <time>2015-03-07T06:12:43Z</time>
      </trkpt>
      <trkpt lat="45.30946" lon="5.84961">
        <ele>1797.8</ele>
        <time>2015-03-07T06:13:02Z</time>
      </trkpt>
      <trkpt lat="45.30948" lon="5.84963">
        <ele>1800.21</ele>
        <time>2015-03-07T06:13:21Z</time>
      </trkpt>
      <trkpt lat="45.30947" lon="5.84968">
        <ele>1802.13</ele>
        <time>2015-03-07T06:13:42Z</time>
      </trkpt>
      <trkpt lat="45.30948" lon="5.84972">
        <ele>1804.53</ele>
        <time>2015-03-07T06:14:00Z</time>
      </trkpt>
      <trkpt lat="45.30949" lon="5.84972">
        <ele>1805.97</ele>
        <time>2015-03-07T06:14:27Z</time>
      </trkpt>
      <trkpt lat="45.30947" lon="5.8498">
        <ele>1808.86</ele>
        <time>2015-03-07T06:14:46Z</time>
      </trkpt>
      <trkpt lat="45.30945" lon="5.84986">
        <ele>1810.78</ele>
        <time>2015-03-07T06:15:04Z</time>
      </trkpt>
      <trkpt lat="45.30941" lon="5.84993">
        <ele>1814.15</ele>
        <time>2015-03-07T06:15:23Z</time>
      </trkpt>
      <trkpt lat="45.3094" lon="5.84998">
        <ele>1816.55</ele>
        <time>2015-03-07T06:15:43Z</time>
      </trkpt>
      <trkpt lat="45.30943" lon="5.85001">
        <ele>1818.95</ele>
        <time>2015-03-07T06:16:00Z</time>
      </trkpt>
      <trkpt lat="45.30943" lon="5.85005">
        <ele>1820.39</ele>
        <time>2015-03-07T06:16:17Z</time>
      </trkpt>
      <trkpt lat="45.30943" lon="5.85007">
        <ele>1822.8</ele>
        <time>2015-03-07T06:16:37Z</time>
      </trkpt>
      <trkpt lat="45.30945" lon="5.85009">
        <ele>1823.76</ele>
        <time>2015-03-07T06:17:00Z</time>
      </trkpt>
      <trkpt lat="45.30945" lon="5.85012">
        <ele>1825.2</ele>
        <time>2015-03-07T06:17:25Z</time>
      </trkpt>
      <trkpt lat="45.30946" lon="5.85016">
        <ele>1827.6</ele>
        <time>2015-03-07T06:17:42Z</time>
      </trkpt>
      <trkpt lat="45.30943" lon="5.85023">
        <ele>1830.01</ele>
        <time>2015-03-07T06:18:01Z</time>
      </trkpt>
      <trkpt lat="45.30942" lon="5.85029">
        <ele>1832.41</ele>
        <time>2015-03-07T06:18:22Z</time>
      </trkpt>
      <trkpt lat="45.30938" lon="5.85036">
        <ele>1834.81</ele>
        <time>2015-03-07T06:18:38Z</time>
      </trkpt>
      <trkpt lat="45.30934" lon="5.85045">
        <ele>1836.74</ele>
        <time>2015-03-07T06:18:57Z</time>
      </trkpt>
      <trkpt lat="45.30938" lon="5.85049">
        <ele>1839.14</ele>
        <time>2015-03-07T06:19:12Z</time>
      </trkpt>
      <trkpt lat="45.30936" lon="5.85056">
        <ele>1841.54</ele>
        <time>2015-03-07T06:19:28Z</time>
      </trkpt>
      <trkpt lat="45.30932" lon="5.85065">
        <ele>1844.43</ele>
        <time>2015-03-07T06:19:48Z</time>
      </trkpt>
      <trkpt lat="45.30931" lon="5.85072">
        <ele>1846.35</ele>
        <time>2015-03-07T06:20:07Z</time>
      </trkpt>
      <trkpt lat="45.30927" lon="5.8508">
        <ele>1847.79</ele>
        <time>2015-03-07T06:20:29Z</time>
      </trkpt>
      <trkpt lat="45.30923" lon="5.85089">
        <ele>1850.68</ele>
        <time>2015-03-07T06:20:49Z</time>
      </trkpt>
      <trkpt lat="45.30919" lon="5.85098">
        <ele>1853.08</ele>
        <time>2015-03-07T06:21:07Z</time>
      </trkpt>
      <trkpt lat="45.30915" lon="5.85108">
        <ele>1855.96</ele>
        <time>2015-03-07T06:21:25Z</time>
      </trkpt>
      <trkpt lat="45.30911" lon="5.85119">
        <ele>1859.33</ele>
        <time>2015-03-07T06:21:44Z</time>
      </trkpt>
      <trkpt lat="45.30906" lon="5.85132">
        <ele>1862.21</ele>
        <time>2015-03-07T06:22:05Z</time>
      </trkpt>
      <trkpt lat="45.30902" lon="5.85144">
        <ele>1865.09</ele>
        <time>2015-03-07T06:22:24Z</time>
      </trkpt>
      <trkpt lat="45.30899" lon="5.85153">
        <ele>1867.5</ele>
        <time>2015-03-07T06:22:42Z</time>
      </trkpt>
      <trkpt lat="45.30894" lon="5.85164">
        <ele>1870.38</ele>
        <time>2015-03-07T06:23:03Z</time>
      </trkpt>
      <trkpt lat="45.30893" lon="5.85172">
        <ele>1873.75</ele>
        <time>2015-03-07T06:23:22Z</time>
      </trkpt>
      <trkpt lat="45.3089" lon="5.8518">
        <ele>1876.15</ele>
        <time>2015-03-07T06:23:42Z</time>
      </trkpt>
      <trkpt lat="45.30887" lon="5.85188">
        <ele>1879.03</ele>
        <time>2015-03-07T06:24:02Z</time>
      </trkpt>
      <trkpt lat="45.30889" lon="5.85191">
        <ele>1881.92</ele>
        <time>2015-03-07T06:24:23Z</time>
      </trkpt>
      <trkpt lat="45.30888" lon="5.85197">
        <ele>1884.8</ele>
        <time>2015-03-07T06:24:42Z</time>
      </trkpt>
      <trkpt lat="45.30888" lon="5.852">
        <ele>1887.21</ele>
        <time>2015-03-07T06:24:56Z</time>
      </trkpt>
      <trkpt lat="45.30887" lon="5.85205">
        <ele>1889.13</ele>
        <time>2015-03-07T06:25:12Z</time>
      </trkpt>
      <trkpt lat="45.30886" lon="5.85209">
        <ele>1892.01</ele>
        <time>2015-03-07T06:25:31Z</time>
      </trkpt>
      <trkpt lat="45.30885" lon="5.85215">
        <ele>1894.9</ele>
        <time>2015-03-07T06:25:47Z</time>
      </trkpt>
      <trkpt lat="45.30883" lon="5.85219">
        <ele>1897.78</ele>
        <time>2015-03-07T06:26:03Z</time>
      </trkpt>
      <trkpt lat="45.30883" lon="5.85224">
        <ele>1901.14</ele>
        <time>2015-03-07T06:26:19Z</time>
      </trkpt>
      <trkpt lat="45.30883" lon="5.85229">
        <ele>1903.07</ele>
        <time>2015-03-07T06:26:35Z</time>
      </trkpt>
      <trkpt lat="45.30883" lon="5.85236">
        <ele>1906.91</ele>
        <time>2015-03-07T06:26:52Z</time>
      </trkpt>
      <trkpt lat="45.30886" lon="5.85243">
        <ele>1909.32</ele>
        <time>2015-03-07T06:27:10Z</time>
      </trkpt>
      <trkpt lat="45.30889" lon="5.85245">
        <ele>1911.72</ele>
        <time>2015-03-07T06:27:27Z</time>
      </trkpt>
      <trkpt lat="45.30893" lon="5.8525">
        <ele>1915.08</ele>
        <time>2015-03-07T06:27:44Z</time>
      </trkpt>
      <trkpt lat="45.30893" lon="5.85256">
        <ele>1916.04</ele>
        <time>2015-03-07T06:28:01Z</time>
      </trkpt>
      <trkpt lat="45.30889" lon="5.85262">
        <ele>1916.04</ele>
        <time>2015-03-07T06:28:18Z</time>
      </trkpt>
      <trkpt lat="45.30885" lon="5.85264">
        <ele>1915.08</ele>
        <time>2015-03-07T06:28:33Z</time>
      </trkpt>
      <trkpt lat="45.30881" lon="5.8527">
        <ele>1914.12</ele>
        <time>2015-03-07T06:28:50Z</time>
      </trkpt>
      <trkpt lat="45.30882" lon="5.85276">
        <ele>1917.49</ele>
        <time>2015-03-07T06:29:04Z</time>
      </trkpt>
      <trkpt lat="45.30879" lon="5.85282">
        <ele>1919.41</ele>
        <time>2015-03-07T06:29:19Z</time>
      </trkpt>
      <trkpt lat="45.30881" lon="5.85287">
        <ele>1922.29</ele>
        <time>2015-03-07T06:29:34Z</time>
      </trkpt>
      <trkpt lat="45.30881" lon="5.8529">
        <ele>1924.22</ele>
        <time>2015-03-07T06:29:48Z</time>
      </trkpt>
      <trkpt lat="45.30876" lon="5.85295">
        <ele>1926.14</ele>
        <time>2015-03-07T06:30:04Z</time>
      </trkpt>
      <trkpt lat="45.30872" lon="5.85301">
        <ele>1928.06</ele>
        <time>2015-03-07T06:30:21Z</time>
      </trkpt>
      <trkpt lat="45.30866" lon="5.85308">
        <ele>1929.5</ele>
        <time>2015-03-07T06:30:38Z</time>
      </trkpt>
      <trkpt lat="45.30863" lon="5.85312">
        <ele>1930.46</ele>
        <time>2015-03-07T06:30:53Z</time>
      </trkpt>
      <trkpt lat="45.30859" lon="5.85316">
        <ele>1931.91</ele>
        <time>2015-03-07T06:31:10Z</time>
      </trkpt>
      <trkpt lat="45.30855" lon="5.8532">
        <ele>1934.31</ele>
        <time>2015-03-07T06:31:26Z</time>
      </trkpt>
      <trkpt lat="45.30851" lon="5.85319">
        <ele>1934.79</ele>
        <time>2015-03-07T06:31:44Z</time>
      </trkpt>
      <trkpt lat="45.3085" lon="5.85322">
        <ele>1936.71</ele>
        <time>2015-03-07T06:32:09Z</time>
      </trkpt>
      <trkpt lat="45.30851" lon="5.85328">
        <ele>1940.08</ele>
        <time>2015-03-07T06:32:25Z</time>
      </trkpt>
      <trkpt lat="45.30857" lon="5.85329">
        <ele>1942.96</ele>
        <time>2015-03-07T06:32:40Z</time>
      </trkpt>
      <trkpt lat="45.3086" lon="5.85328">
        <ele>1945.85</ele>
        <time>2015-03-07T06:32:56Z</time>
      </trkpt>
      <trkpt lat="45.30863" lon="5.85331">
        <ele>1948.73</ele>
        <time>2015-03-07T06:33:12Z</time>
      </trkpt>
      <trkpt lat="45.3086" lon="5.85335">
        <ele>1951.61</ele>
        <time>2015-03-07T06:33:27Z</time>
      </trkpt>
      <trkpt lat="45.3086" lon="5.8534">
        <ele>1954.98</ele>
        <time>2015-03-07T06:33:40Z</time>
      </trkpt>
      <trkpt lat="45.30861" lon="5.85345">
        <ele>1958.34</ele>
        <time>2015-03-07T06:33:52Z</time>
      </trkpt>
      <trkpt lat="45.30862" lon="5.85352">
        <ele>1961.23</ele>
        <time>2015-03-07T06:34:08Z</time>
      </trkpt>
      <trkpt lat="45.30863" lon="5.85357">
        <ele>1964.11</ele>
        <time>2015-03-07T06:34:24Z</time>
      </trkpt>
      <trkpt lat="45.30863" lon="5.85363">
        <ele>1966.99</ele>
        <time>2015-03-07T06:34:40Z</time>
      </trkpt>
      <trkpt lat="45.30862" lon="5.85368">
        <ele>1969.88</ele>
        <time>2015-03-07T06:34:59Z</time>
      </trkpt>
      <trkpt lat="45.30861" lon="5.85374">
        <ele>1972.28</ele>
        <time>2015-03-07T06:35:15Z</time>
      </trkpt>
      <trkpt lat="45.3086" lon="5.85377">
        <ele>1974.69</ele>
        <time>2015-03-07T06:35:31Z</time>
      </trkpt>
      <trkpt lat="45.30862" lon="5.85381">
        <ele>1978.53</ele>
        <time>2015-03-07T06:35:49Z</time>
      </trkpt>
      <trkpt lat="45.30863" lon="5.85385">
        <ele>1980.93</ele>
        <time>2015-03-07T06:36:07Z</time>
      </trkpt>
      <trkpt lat="45.30864" lon="5.85389">
        <ele>1983.82</ele>
        <time>2015-03-07T06:36:23Z</time>
      </trkpt>
      <trkpt lat="45.30866" lon="5.85395">
        <ele>1986.7</ele>
        <time>2015-03-07T06:36:43Z</time>
      </trkpt>
      <trkpt lat="45.30868" lon="5.85395">
        <ele>1989.1</ele>
        <time>2015-03-07T06:37:05Z</time>
      </trkpt>
      <trkpt lat="45.30874" lon="5.85401">
        <ele>1992.47</ele>
        <time>2015-03-07T06:37:18Z</time>
      </trkpt>
      <trkpt lat="45.30881" lon="5.85408">
        <ele>1994.87</ele>
        <time>2015-03-07T06:37:37Z</time>
      </trkpt>
      <trkpt lat="45.30884" lon="5.8541">
        <ele>1998.24</ele>
        <time>2015-03-07T06:37:50Z</time>
      </trkpt>
      <trkpt lat="45.30886" lon="5.85412">
        <ele>2000.64</ele>
        <time>2015-03-07T06:38:06Z</time>
      </trkpt>
      <trkpt lat="45.3089" lon="5.85415">
        <ele>2003.52</ele>
        <time>2015-03-07T06:38:22Z</time>
      </trkpt>
      <trkpt lat="45.30895" lon="5.85415">
        <ele>2006.89</ele>
        <time>2015-03-07T06:38:37Z</time>
      </trkpt>
      <trkpt lat="45.30895" lon="5.85415">
        <ele>2006.89</ele>
        <time>2015-03-07T06:38:38Z</time>
      </trkpt>
      <trkpt lat="45.309" lon="5.85414">
        <ele>2010.73</ele>
        <time>2015-03-07T06:38:56Z</time>
      </trkpt>
      <trkpt lat="45.309" lon="5.85414">
        <ele>2010.73</ele>
        <time>2015-03-07T06:38:57Z</time>
      </trkpt>
      <trkpt lat="45.30908" lon="5.85411">
        <ele>2012.18</ele>
        <time>2015-03-07T06:39:13Z</time>
      </trkpt>
      <trkpt lat="45.30916" lon="5.85409">
        <ele>2015.54</ele>
        <time>2015-03-07T06:39:30Z</time>
      </trkpt>
      <trkpt lat="45.30918" lon="5.85414">
        <ele>2018.43</ele>
        <time>2015-03-07T06:39:44Z</time>
      </trkpt>
      <trkpt lat="45.30918" lon="5.85416">
        <ele>2020.83</ele>
        <time>2015-03-07T06:39:49Z</time>
      </trkpt>
      <trkpt lat="45.30918" lon="5.85416">
        <ele>2017.46</ele>
        <time>2015-03-07T06:39:50Z</time>
      </trkpt>
      <trkpt lat="45.30919" lon="5.85416">
        <ele>2021.31</ele>
        <time>2015-03-07T06:39:53Z</time>
      </trkpt>
      <trkpt lat="45.30918" lon="5.85417">
        <ele>2024.19</ele>
        <time>2015-03-07T06:39:55Z</time>
      </trkpt>
      <trkpt lat="45.30918" lon="5.85418">
        <ele>2019.87</ele>
        <time>2015-03-07T06:39:57Z</time>
      </trkpt>
      <trkpt lat="45.30918" lon="5.85418">
        <ele>2016.98</ele>
        <time>2015-03-07T06:39:58Z</time>
      </trkpt>
      <trkpt lat="45.30918" lon="5.85418">
        <ele>2016.5</ele>
        <time>2015-03-07T06:39:59Z</time>
      </trkpt>
      <trkpt lat="45.30919" lon="5.85418">
        <ele>2019.87</ele>
        <time>2015-03-07T06:40:01Z</time>
      </trkpt>
      <trkpt lat="45.30919" lon="5.85419">
        <ele>2018.43</ele>
        <time>2015-03-07T06:40:02Z</time>
      </trkpt>
      <trkpt lat="45.30919" lon="5.85419">
        <ele>2025.64</ele>
        <time>2015-03-07T06:40:03Z</time>
      </trkpt>
      <trkpt lat="45.30919" lon="5.8542">
        <ele>2021.31</ele>
        <time>2015-03-07T06:40:04Z</time>
      </trkpt>
      <trkpt lat="45.30919" lon="5.8542">
        <ele>2025.15</ele>
        <time>2015-03-07T06:40:05Z</time>
      </trkpt>
      <trkpt lat="45.30914" lon="5.85429">
        <ele>2027.08</ele>
        <time>2015-03-07T06:40:21Z</time>
      </trkpt>
      <trkpt lat="45.30912" lon="5.85432">
        <ele>2026.12</ele>
        <time>2015-03-07T06:40:26Z</time>
      </trkpt>
      <trkpt lat="45.30904" lon="5.85444">
        <ele>2026.6</ele>
        <time>2015-03-07T06:40:43Z</time>
      </trkpt>
      <trkpt lat="45.309" lon="5.8545">
        <ele>2029</ele>
        <time>2015-03-07T06:40:51Z</time>
      </trkpt>
      <trkpt lat="45.30892" lon="5.85461">
        <ele>2030.44</ele>
        <time>2015-03-07T06:41:06Z</time>
      </trkpt>
      <trkpt lat="45.30891" lon="5.85468">
        <ele>2025.64</ele>
        <time>2015-03-07T06:41:19Z</time>
      </trkpt>
      <trkpt lat="45.30891" lon="5.85468">
        <ele>2025.64</ele>
        <time>2015-03-07T06:41:20Z</time>
      </trkpt>
      <trkpt lat="45.30891" lon="5.85469">
        <ele>2029.96</ele>
        <time>2015-03-07T06:41:22Z</time>
      </trkpt>
      <trkpt lat="45.30891" lon="5.85469">
        <ele>2029.96</ele>
        <time>2015-03-07T06:41:23Z</time>
      </trkpt>
      <trkpt lat="45.30891" lon="5.85472">
        <ele>2033.81</ele>
        <time>2015-03-07T06:41:27Z</time>
      </trkpt>
      <trkpt lat="45.30891" lon="5.85472">
        <ele>2030.92</ele>
        <time>2015-03-07T06:41:28Z</time>
      </trkpt>
      <trkpt lat="45.30891" lon="5.85474">
        <ele>2033.33</ele>
        <time>2015-03-07T06:41:31Z</time>
      </trkpt>
      <trkpt lat="45.30891" lon="5.85475">
        <ele>2030.44</ele>
        <time>2015-03-07T06:41:33Z</time>
      </trkpt>
      <trkpt lat="45.30891" lon="5.85476">
        <ele>2033.33</ele>
        <time>2015-03-07T06:41:36Z</time>
      </trkpt>
      <trkpt lat="45.3089" lon="5.8548">
        <ele>2036.69</ele>
        <time>2015-03-07T06:41:43Z</time>
      </trkpt>
      <trkpt lat="45.30884" lon="5.85482">
        <ele>2037.65</ele>
        <time>2015-03-07T06:41:52Z</time>
      </trkpt>
      <trkpt lat="45.30876" lon="5.85488">
        <ele>2039.09</ele>
        <time>2015-03-07T06:42:05Z</time>
      </trkpt>
      <trkpt lat="45.30875" lon="5.85491">
        <ele>2041.98</ele>
        <time>2015-03-07T06:42:12Z</time>
      </trkpt>
      <trkpt lat="45.30874" lon="5.85491">
        <ele>2041.98</ele>
        <time>2015-03-07T06:42:13Z</time>
      </trkpt>
      <trkpt lat="45.3087" lon="5.85495">
        <ele>2040.05</ele>
        <time>2015-03-07T06:42:21Z</time>
      </trkpt>
      <trkpt lat="45.30867" lon="5.85497">
        <ele>2041.5</ele>
        <time>2015-03-07T06:42:25Z</time>
      </trkpt>
      <trkpt lat="45.30859" lon="5.85506">
        <ele>2042.46</ele>
        <time>2015-03-07T06:42:40Z</time>
      </trkpt>
      <trkpt lat="45.30854" lon="5.8551">
        <ele>2045.82</ele>
        <time>2015-03-07T06:42:52Z</time>
      </trkpt>
      <trkpt lat="45.30848" lon="5.85514">
        <ele>2049.67</ele>
        <time>2015-03-07T06:43:05Z</time>
      </trkpt>
      <trkpt lat="45.30843" lon="5.85517">
        <ele>2049.19</ele>
        <time>2015-03-07T06:43:13Z</time>
      </trkpt>
      <trkpt lat="45.30841" lon="5.85519">
        <ele>2049.67</ele>
        <time>2015-03-07T06:43:18Z</time>
      </trkpt>
      <trkpt lat="45.30839" lon="5.85521">
        <ele>2048.71</ele>
        <time>2015-03-07T06:43:24Z</time>
      </trkpt>
      <trkpt lat="45.30836" lon="5.85522">
        <ele>2050.63</ele>
        <time>2015-03-07T06:43:28Z</time>
      </trkpt>
      <trkpt lat="45.30828" lon="5.85528">
        <ele>2053.03</ele>
        <time>2015-03-07T06:43:45Z</time>
      </trkpt>
      <trkpt lat="45.30829" lon="5.85533">
        <ele>2050.63</ele>
        <time>2015-03-07T06:43:57Z</time>
      </trkpt>
      <trkpt lat="45.30829" lon="5.85534">
        <ele>2052.07</ele>
        <time>2015-03-07T06:43:59Z</time>
      </trkpt>
      <trkpt lat="45.30828" lon="5.85537">
        <ele>2055.44</ele>
        <time>2015-03-07T06:44:03Z</time>
      </trkpt>
      <trkpt lat="45.30827" lon="5.85548">
        <ele>2057.84</ele>
        <time>2015-03-07T06:44:19Z</time>
      </trkpt>
      <trkpt lat="45.30825" lon="5.85551">
        <ele>2054.47</ele>
        <time>2015-03-07T06:44:26Z</time>
      </trkpt>
      <trkpt lat="45.30825" lon="5.85552">
        <ele>2055.44</ele>
        <time>2015-03-07T06:44:45Z</time>
      </trkpt>
      <trkpt lat="45.30826" lon="5.85553">
        <ele>2053.99</ele>
        <time>2015-03-07T06:44:47Z</time>
      </trkpt>
      <trkpt lat="45.30826" lon="5.85553">
        <ele>2050.15</ele>
        <time>2015-03-07T06:44:48Z</time>
      </trkpt>
      <trkpt lat="45.30826" lon="5.85553">
        <ele>2050.15</ele>
        <time>2015-03-07T06:44:49Z</time>
      </trkpt>
      <trkpt lat="45.30826" lon="5.85553">
        <ele>2053.03</ele>
        <time>2015-03-07T06:44:53Z</time>
      </trkpt>
      <trkpt lat="45.30826" lon="5.85553">
        <ele>2052.07</ele>
        <time>2015-03-07T06:45:01Z</time>
      </trkpt>
      <trkpt lat="45.30826" lon="5.85553">
        <ele>2054.47</ele>
        <time>2015-03-07T06:45:08Z</time>
      </trkpt>
      <trkpt lat="45.30825" lon="5.85553">
        <ele>2050.63</ele>
        <time>2015-03-07T06:45:15Z</time>
      </trkpt>
      <trkpt lat="45.30825" lon="5.85553">
        <ele>2052.07</ele>
        <time>2015-03-07T06:45:16Z</time>
      </trkpt>
      <trkpt lat="45.30825" lon="5.85553">
        <ele>2053.99</ele>
        <time>2015-03-07T06:45:22Z</time>
      </trkpt>
      <trkpt lat="45.30825" lon="5.85553">
        <ele>2055.92</ele>
        <time>2015-03-07T06:45:28Z</time>
      </trkpt>
      <trkpt lat="45.30825" lon="5.85553">
        <ele>2053.51</ele>
        <time>2015-03-07T06:45:38Z</time>
      </trkpt>
      <trkpt lat="45.30825" lon="5.85553">
        <ele>2057.36</ele>
        <time>2015-03-07T06:45:41Z</time>
      </trkpt>
      <trkpt lat="45.30824" lon="5.85552">
        <ele>2056.88</ele>
        <time>2015-03-07T06:45:50Z</time>
      </trkpt>
      <trkpt lat="45.30824" lon="5.85553">
        <ele>2055.92</ele>
        <time>2015-03-07T06:45:56Z</time>
      </trkpt>
      <trkpt lat="45.30824" lon="5.85553">
        <ele>2055.92</ele>
        <time>2015-03-07T06:46:13Z</time>
      </trkpt>
      <trkpt lat="45.30823" lon="5.85552">
        <ele>2055.92</ele>
        <time>2015-03-07T06:46:18Z</time>
      </trkpt>
      <trkpt lat="45.30823" lon="5.85553">
        <ele>2055.92</ele>
        <time>2015-03-07T06:46:29Z</time>
      </trkpt>
      <trkpt lat="45.30824" lon="5.85553">
        <ele>2056.88</ele>
        <time>2015-03-07T06:46:55Z</time>
      </trkpt>
      <trkpt lat="45.30824" lon="5.85554">
        <ele>2053.99</ele>
        <time>2015-03-07T06:47:04Z</time>
      </trkpt>
      <trkpt lat="45.30824" lon="5.85556">
        <ele>2056.88</ele>
        <time>2015-03-07T06:47:18Z</time>
      </trkpt>
      <trkpt lat="45.30826" lon="5.85556">
        <ele>2056.4</ele>
        <time>2015-03-07T06:47:48Z</time>
      </trkpt>
      <trkpt lat="45.30825" lon="5.85556">
        <ele>2056.88</ele>
        <time>2015-03-07T06:47:55Z</time>
      </trkpt>
      <trkpt lat="45.30824" lon="5.85556">
        <ele>2053.99</ele>
        <time>2015-03-07T06:48:00Z</time>
      </trkpt>
      <trkpt lat="45.30824" lon="5.85555">
        <ele>2053.99</ele>
        <time>2015-03-07T06:48:01Z</time>
      </trkpt>
      <trkpt lat="45.30824" lon="5.85555">
        <ele>2056.88</ele>
        <time>2015-03-07T06:48:06Z</time>
      </trkpt>
      <trkpt lat="45.30824" lon="5.85555">
        <ele>2056.88</ele>
        <time>2015-03-07T06:48:07Z</time>
      </trkpt>
      <trkpt lat="45.30824" lon="5.85556">
        <ele>2053.51</ele>
        <time>2015-03-07T06:48:12Z</time>
      </trkpt>
      <trkpt lat="45.30824" lon="5.85557">
        <ele>2054.47</ele>
        <time>2015-03-07T06:48:13Z</time>
      </trkpt>
      <trkpt lat="45.30822" lon="5.85557">
        <ele>2055.92</ele>
        <time>2015-03-07T06:48:25Z</time>
      </trkpt>
      <trkpt lat="45.30822" lon="5.85554">
        <ele>2057.84</ele>
        <time>2015-03-07T06:48:31Z</time>
      </trkpt>
      <trkpt lat="45.30823" lon="5.85554">
        <ele>2053.51</ele>
        <time>2015-03-07T06:48:46Z</time>
      </trkpt>
      <trkpt lat="45.30822" lon="5.85554">
        <ele>2053.51</ele>
        <time>2015-03-07T06:48:47Z</time>
      </trkpt>
      <trkpt lat="45.30822" lon="5.85553">
        <ele>2054.96</ele>
        <time>2015-03-07T06:48:49Z</time>
      </trkpt>
      <trkpt lat="45.30821" lon="5.85553">
        <ele>2055.92</ele>
        <time>2015-03-07T06:49:04Z</time>
      </trkpt>
      <trkpt lat="45.30822" lon="5.85553">
        <ele>2054.47</ele>
        <time>2015-03-07T06:49:08Z</time>
      </trkpt>
      <trkpt lat="45.30822" lon="5.85553">
        <ele>2056.4</ele>
        <time>2015-03-07T06:49:10Z</time>
      </trkpt>
      <trkpt lat="45.30822" lon="5.85553">
        <ele>2054.96</ele>
        <time>2015-03-07T06:49:12Z</time>
      </trkpt>
      <trkpt lat="45.30821" lon="5.85554">
        <ele>2055.92</ele>
        <time>2015-03-07T06:49:22Z</time>
      </trkpt>
      <trkpt lat="45.3082" lon="5.85555">
        <ele>2056.4</ele>
        <time>2015-03-07T06:49:44Z</time>
      </trkpt>
      <trkpt lat="45.30821" lon="5.85555">
        <ele>2054.96</ele>
        <time>2015-03-07T06:49:46Z</time>
      </trkpt>
      <trkpt lat="45.30822" lon="5.85555">
        <ele>2054.96</ele>
        <time>2015-03-07T06:50:00Z</time>
      </trkpt>
      <trkpt lat="45.30823" lon="5.85555">
        <ele>2053.99</ele>
        <time>2015-03-07T06:50:02Z</time>
      </trkpt>
      <trkpt lat="45.30824" lon="5.85554">
        <ele>2054.96</ele>
        <time>2015-03-07T06:50:25Z</time>
      </trkpt>
      <trkpt lat="45.30824" lon="5.85554">
        <ele>2053.51</ele>
        <time>2015-03-07T06:50:32Z</time>
      </trkpt>
      <trkpt lat="45.30823" lon="5.85554">
        <ele>2055.92</ele>
        <time>2015-03-07T06:50:38Z</time>
      </trkpt>
      <trkpt lat="45.30824" lon="5.85554">
        <ele>2054.47</ele>
        <time>2015-03-07T06:50:40Z</time>
      </trkpt>
      <trkpt lat="45.30823" lon="5.85554">
        <ele>2056.88</ele>
        <time>2015-03-07T06:50:55Z</time>
      </trkpt>
      <trkpt lat="45.30823" lon="5.85554">
        <ele>2054.47</ele>
        <time>2015-03-07T06:51:07Z</time>
      </trkpt>
      <trkpt lat="45.30823" lon="5.85553">
        <ele>2056.4</ele>
        <time>2015-03-07T06:51:10Z</time>
      </trkpt>
      <trkpt lat="45.30822" lon="5.85551">
        <ele>2056.4</ele>
        <time>2015-03-07T06:51:50Z</time>
      </trkpt>
      <trkpt lat="45.30822" lon="5.85551">
        <ele>2054.96</ele>
        <time>2015-03-07T06:52:37Z</time>
      </trkpt>
      <trkpt lat="45.30822" lon="5.85551">
        <ele>2054.96</ele>
        <time>2015-03-07T06:52:47Z</time>
      </trkpt>
      <trkpt lat="45.30822" lon="5.85551">
        <ele>2056.4</ele>
        <time>2015-03-07T06:53:17Z</time>
      </trkpt>
      <trkpt lat="45.30822" lon="5.85551">
        <ele>2055.92</ele>
        <time>2015-03-07T06:53:51Z</time>
      </trkpt>
      <trkpt lat="45.30824" lon="5.85553">
        <ele>2053.51</ele>
        <time>2015-03-07T06:53:59Z</time>
      </trkpt>
      <trkpt lat="45.30824" lon="5.85554">
        <ele>2055.92</ele>
        <time>2015-03-07T06:54:07Z</time>
      </trkpt>
      <trkpt lat="45.30823" lon="5.85553">
        <ele>2054.47</ele>
        <time>2015-03-07T06:54:13Z</time>
      </trkpt>
      <trkpt lat="45.30823" lon="5.85554">
        <ele>2056.4</ele>
        <time>2015-03-07T06:54:23Z</time>
      </trkpt>
      <trkpt lat="45.30824" lon="5.85554">
        <ele>2056.4</ele>
        <time>2015-03-07T06:54:34Z</time>
      </trkpt>
      <trkpt lat="45.30824" lon="5.85554">
        <ele>2055.44</ele>
        <time>2015-03-07T06:54:48Z</time>
      </trkpt>
      <trkpt lat="45.30824" lon="5.85554">
        <ele>2053.03</ele>
        <time>2015-03-07T06:54:50Z</time>
      </trkpt>
      <trkpt lat="45.30824" lon="5.85554">
        <ele>2055.92</ele>
        <time>2015-03-07T06:54:51Z</time>
      </trkpt>
      <trkpt lat="45.30824" lon="5.85554">
        <ele>2055.92</ele>
        <time>2015-03-07T06:54:52Z</time>
      </trkpt>
      <trkpt lat="45.30821" lon="5.85555">
        <ele>2052.55</ele>
        <time>2015-03-07T06:55:05Z</time>
      </trkpt>
      <trkpt lat="45.3082" lon="5.85554">
        <ele>2052.55</ele>
        <time>2015-03-07T06:55:06Z</time>
      </trkpt>
      <trkpt lat="45.30823" lon="5.85553">
        <ele>2051.59</ele>
        <time>2015-03-07T06:55:24Z</time>
      </trkpt>
      <trkpt lat="45.30825" lon="5.85552">
        <ele>2056.4</ele>
        <time>2015-03-07T06:55:30Z</time>
      </trkpt>
      <trkpt lat="45.30825" lon="5.85552">
        <ele>2056.4</ele>
        <time>2015-03-07T06:55:31Z</time>
      </trkpt>
      <trkpt lat="45.30827" lon="5.85552">
        <ele>2053.99</ele>
        <time>2015-03-07T06:55:53Z</time>
      </trkpt>
      <trkpt lat="45.30828" lon="5.8555">
        <ele>2056.4</ele>
        <time>2015-03-07T06:55:56Z</time>
      </trkpt>
      <trkpt lat="45.3083" lon="5.85549">
        <ele>2048.23</ele>
        <time>2015-03-07T06:55:58Z</time>
      </trkpt>
      <trkpt lat="45.30839" lon="5.85553">
        <ele>2044.38</ele>
        <time>2015-03-07T06:56:02Z</time>
      </trkpt>
      <trkpt lat="45.30855" lon="5.85561">
        <ele>2039.09</ele>
        <time>2015-03-07T06:56:05Z</time>
      </trkpt>
      <trkpt lat="45.30862" lon="5.85566">
        <ele>2034.77</ele>
        <time>2015-03-07T06:56:06Z</time>
      </trkpt>
      <trkpt lat="45.30871" lon="5.8557">
        <ele>2029.96</ele>
        <time>2015-03-07T06:56:07Z</time>
      </trkpt>
      <trkpt lat="45.30888" lon="5.85581">
        <ele>2025.15</ele>
        <time>2015-03-07T06:56:09Z</time>
      </trkpt>
      <trkpt lat="45.30907" lon="5.85593">
        <ele>2020.35</ele>
        <time>2015-03-07T06:56:11Z</time>
      </trkpt>
      <trkpt lat="45.30916" lon="5.85599">
        <ele>2018.91</ele>
        <time>2015-03-07T06:56:12Z</time>
      </trkpt>
      <trkpt lat="45.30934" lon="5.85615">
        <ele>2014.58</ele>
        <time>2015-03-07T06:56:14Z</time>
      </trkpt>
      <trkpt lat="45.30943" lon="5.85622">
        <ele>2010.73</ele>
        <time>2015-03-07T06:56:15Z</time>
      </trkpt>
      <trkpt lat="45.30961" lon="5.85638">
        <ele>2005.45</ele>
        <time>2015-03-07T06:56:17Z</time>
      </trkpt>
      <trkpt lat="45.30981" lon="5.85652">
        <ele>2002.08</ele>
        <time>2015-03-07T06:56:19Z</time>
      </trkpt>
      <trkpt lat="45.31001" lon="5.85661">
        <ele>1997.28</ele>
        <time>2015-03-07T06:56:21Z</time>
      </trkpt>
      <trkpt lat="45.31022" lon="5.85667">
        <ele>1992.47</ele>
        <time>2015-03-07T06:56:23Z</time>
      </trkpt>
      <trkpt lat="45.31033" lon="5.85669">
        <ele>1988.62</ele>
        <time>2015-03-07T06:56:24Z</time>
      </trkpt>
      <trkpt lat="45.31056" lon="5.85674">
        <ele>1983.82</ele>
        <time>2015-03-07T06:56:26Z</time>
      </trkpt>
      <trkpt lat="45.31067" lon="5.85677">
        <ele>1981.9</ele>
        <time>2015-03-07T06:56:27Z</time>
      </trkpt>
      <trkpt lat="45.31088" lon="5.85688">
        <ele>1975.17</ele>
        <time>2015-03-07T06:56:29Z</time>
      </trkpt>
      <trkpt lat="45.31099" lon="5.85695">
        <ele>1971.32</ele>
        <time>2015-03-07T06:56:30Z</time>
      </trkpt>
      <trkpt lat="45.31136" lon="5.85716">
        <ele>1966.99</ele>
        <time>2015-03-07T06:56:34Z</time>
      </trkpt>
      <trkpt lat="45.31144" lon="5.85721">
        <ele>1966.51</ele>
        <time>2015-03-07T06:56:35Z</time>
      </trkpt>
      <trkpt lat="45.31169" lon="5.85741">
        <ele>1963.15</ele>
        <time>2015-03-07T06:56:39Z</time>
      </trkpt>
      <trkpt lat="45.31191" lon="5.85768">
        <ele>1961.71</ele>
        <time>2015-03-07T06:56:44Z</time>
      </trkpt>
      <trkpt lat="45.31202" lon="5.85782">
        <ele>1957.86</ele>
        <time>2015-03-07T06:56:46Z</time>
      </trkpt>
      <trkpt lat="45.31224" lon="5.85804">
        <ele>1951.61</ele>
        <time>2015-03-07T06:56:49Z</time>
      </trkpt>
      <trkpt lat="45.31231" lon="5.85812">
        <ele>1947.77</ele>
        <time>2015-03-07T06:56:50Z</time>
      </trkpt>
      <trkpt lat="45.31256" lon="5.85836">
        <ele>1948.73</ele>
        <time>2015-03-07T06:56:54Z</time>
      </trkpt>
      <trkpt lat="45.31275" lon="5.8585">
        <ele>1944.88</ele>
        <time>2015-03-07T06:56:57Z</time>
      </trkpt>
      <trkpt lat="45.31285" lon="5.85859">
        <ele>1943.92</ele>
        <time>2015-03-07T06:56:59Z</time>
      </trkpt>
      <trkpt lat="45.31328" lon="5.85891">
        <ele>1940.56</ele>
        <time>2015-03-07T06:57:09Z</time>
      </trkpt>
      <trkpt lat="45.31347" lon="5.85908">
        <ele>1938.16</ele>
        <time>2015-03-07T06:57:13Z</time>
      </trkpt>
      <trkpt lat="45.31356" lon="5.85916">
        <ele>1936.71</ele>
        <time>2015-03-07T06:57:15Z</time>
      </trkpt>
      <trkpt lat="45.31382" lon="5.85941">
        <ele>1933.35</ele>
        <time>2015-03-07T06:57:21Z</time>
      </trkpt>
      <trkpt lat="45.31407" lon="5.85959">
        <ele>1931.43</ele>
        <time>2015-03-07T06:57:27Z</time>
      </trkpt>
      <trkpt lat="45.31414" lon="5.85965">
        <ele>1929.98</ele>
        <time>2015-03-07T06:57:29Z</time>
      </trkpt>
      <trkpt lat="45.31421" lon="5.8597">
        <ele>1931.91</ele>
        <time>2015-03-07T06:57:31Z</time>
      </trkpt>
      <trkpt lat="45.31435" lon="5.8598">
        <ele>1930.46</ele>
        <time>2015-03-07T06:57:35Z</time>
      </trkpt>
      <trkpt lat="45.31449" lon="5.85993">
        <ele>1926.14</ele>
        <time>2015-03-07T06:57:38Z</time>
      </trkpt>
      <trkpt lat="45.3146" lon="5.85999">
        <ele>1924.22</ele>
        <time>2015-03-07T06:57:40Z</time>
      </trkpt>
      <trkpt lat="45.31496" lon="5.86015">
        <ele>1920.85</ele>
        <time>2015-03-07T06:57:47Z</time>
      </trkpt>
      <trkpt lat="45.31518" lon="5.86023">
        <ele>1920.85</ele>
        <time>2015-03-07T06:57:53Z</time>
      </trkpt>
      <trkpt lat="45.31537" lon="5.86033">
        <ele>1919.89</ele>
        <time>2015-03-07T06:58:01Z</time>
      </trkpt>
      <trkpt lat="45.31547" lon="5.86038">
        <ele>1917.97</ele>
        <time>2015-03-07T06:58:06Z</time>
      </trkpt>
      <trkpt lat="45.31557" lon="5.86044">
        <ele>1916.53</ele>
        <time>2015-03-07T06:58:10Z</time>
      </trkpt>
      <trkpt lat="45.31599" lon="5.86068">
        <ele>1913.16</ele>
        <time>2015-03-07T06:58:23Z</time>
      </trkpt>
      <trkpt lat="45.31606" lon="5.86072">
        <ele>1912.68</ele>
        <time>2015-03-07T06:58:25Z</time>
      </trkpt>
      <trkpt lat="45.31626" lon="5.86079">
        <ele>1910.28</ele>
        <time>2015-03-07T06:58:31Z</time>
      </trkpt>
      <trkpt lat="45.31635" lon="5.86082">
        <ele>1909.32</ele>
        <time>2015-03-07T06:58:33Z</time>
      </trkpt>
      <trkpt lat="45.31665" lon="5.86094">
        <ele>1907.87</ele>
        <time>2015-03-07T06:58:45Z</time>
      </trkpt>
      <trkpt lat="45.31674" lon="5.86099">
        <ele>1905.47</ele>
        <time>2015-03-07T06:58:50Z</time>
      </trkpt>
      <trkpt lat="45.31689" lon="5.86106">
        <ele>1901.63</ele>
        <time>2015-03-07T06:58:54Z</time>
      </trkpt>
      <trkpt lat="45.31704" lon="5.86115">
        <ele>1898.26</ele>
        <time>2015-03-07T06:58:57Z</time>
      </trkpt>
      <trkpt lat="45.31708" lon="5.86118">
        <ele>1898.26</ele>
        <time>2015-03-07T06:58:58Z</time>
      </trkpt>
      <trkpt lat="45.31716" lon="5.86123">
        <ele>1899.7</ele>
        <time>2015-03-07T06:59:00Z</time>
      </trkpt>
      <trkpt lat="45.31723" lon="5.86128">
        <ele>1901.63</ele>
        <time>2015-03-07T06:59:07Z</time>
      </trkpt>
      <trkpt lat="45.31724" lon="5.86129">
        <ele>1901.63</ele>
        <time>2015-03-07T06:59:13Z</time>
      </trkpt>
      <trkpt lat="45.3174" lon="5.86141">
        <ele>1897.3</ele>
        <time>2015-03-07T06:59:20Z</time>
      </trkpt>
      <trkpt lat="45.31747" lon="5.8615">
        <ele>1896.82</ele>
        <time>2015-03-07T06:59:23Z</time>
      </trkpt>
      <trkpt lat="45.31759" lon="5.86159">
        <ele>1891.05</ele>
        <time>2015-03-07T06:59:26Z</time>
      </trkpt>
      <trkpt lat="45.31775" lon="5.86168">
        <ele>1888.65</ele>
        <time>2015-03-07T06:59:29Z</time>
      </trkpt>
      <trkpt lat="45.31793" lon="5.86165">
        <ele>1883.84</ele>
        <time>2015-03-07T06:59:32Z</time>
      </trkpt>
      <trkpt lat="45.31802" lon="5.86168">
        <ele>1881.92</ele>
        <time>2015-03-07T06:59:34Z</time>
      </trkpt>
      <trkpt lat="45.31806" lon="5.8617">
        <ele>1881.92</ele>
        <time>2015-03-07T06:59:37Z</time>
      </trkpt>
      <trkpt lat="45.31816" lon="5.86165">
        <ele>1875.67</ele>
        <time>2015-03-07T06:59:40Z</time>
      </trkpt>
      <trkpt lat="45.3182" lon="5.86164">
        <ele>1875.67</ele>
        <time>2015-03-07T06:59:41Z</time>
      </trkpt>
      <trkpt lat="45.31823" lon="5.86167">
        <ele>1875.19</ele>
        <time>2015-03-07T06:59:48Z</time>
      </trkpt>
      <trkpt lat="45.31822" lon="5.86167">
        <ele>1879.03</ele>
        <time>2015-03-07T06:59:58Z</time>
      </trkpt>
      <trkpt lat="45.31824" lon="5.86167">
        <ele>1875.19</ele>
        <time>2015-03-07T07:00:00Z</time>
      </trkpt>
      <trkpt lat="45.31825" lon="5.86167">
        <ele>1875.19</ele>
        <time>2015-03-07T07:00:01Z</time>
      </trkpt>
      <trkpt lat="45.31837" lon="5.86167">
        <ele>1872.3</ele>
        <time>2015-03-07T07:00:08Z</time>
      </trkpt>
      <trkpt lat="45.31846" lon="5.86168">
        <ele>1870.86</ele>
        <time>2015-03-07T07:00:15Z</time>
      </trkpt>
      <trkpt lat="45.31858" lon="5.86166">
        <ele>1867.5</ele>
        <time>2015-03-07T07:00:21Z</time>
      </trkpt>
      <trkpt lat="45.3186" lon="5.86166">
        <ele>1867.98</ele>
        <time>2015-03-07T07:00:26Z</time>
      </trkpt>
      <trkpt lat="45.31852" lon="5.86156">
        <ele>1864.61</ele>
        <time>2015-03-07T07:00:31Z</time>
      </trkpt>
      <trkpt lat="45.31853" lon="5.86145">
        <ele>1860.77</ele>
        <time>2015-03-07T07:00:34Z</time>
      </trkpt>
      <trkpt lat="45.31864" lon="5.86143">
        <ele>1858.37</ele>
        <time>2015-03-07T07:00:37Z</time>
      </trkpt>
      <trkpt lat="45.31888" lon="5.86142">
        <ele>1850.68</ele>
        <time>2015-03-07T07:00:41Z</time>
      </trkpt>
      <trkpt lat="45.31892" lon="5.86145">
        <ele>1850.68</ele>
        <time>2015-03-07T07:00:42Z</time>
      </trkpt>
      <trkpt lat="45.31897" lon="5.86149">
        <ele>1852.12</ele>
        <time>2015-03-07T07:00:45Z</time>
      </trkpt>
      <trkpt lat="45.31907" lon="5.86155">
        <ele>1848.75</ele>
        <time>2015-03-07T07:00:50Z</time>
      </trkpt>
      <trkpt lat="45.31914" lon="5.86159">
        <ele>1847.79</ele>
        <time>2015-03-07T07:00:52Z</time>
      </trkpt>
      <trkpt lat="45.31933" lon="5.8618">
        <ele>1845.87</ele>
        <time>2015-03-07T07:01:02Z</time>
      </trkpt>
      <trkpt lat="45.31945" lon="5.86192">
        <ele>1845.39</ele>
        <time>2015-03-07T07:01:13Z</time>
      </trkpt>
      <trkpt lat="45.31955" lon="5.86203">
        <ele>1847.79</ele>
        <time>2015-03-07T07:01:30Z</time>
      </trkpt>
      <trkpt lat="45.31959" lon="5.86206">
        <ele>1847.79</ele>
        <time>2015-03-07T07:01:41Z</time>
      </trkpt>
      <trkpt lat="45.31961" lon="5.86207">
        <ele>1846.83</ele>
        <time>2015-03-07T07:01:43Z</time>
      </trkpt>
      <trkpt lat="45.31964" lon="5.86209">
        <ele>1846.83</ele>
        <time>2015-03-07T07:01:49Z</time>
      </trkpt>
      <trkpt lat="45.31968" lon="5.86218">
        <ele>1843.95</ele>
        <time>2015-03-07T07:01:53Z</time>
      </trkpt>
      <trkpt lat="45.31971" lon="5.86228">
        <ele>1843.95</ele>
        <time>2015-03-07T07:02:00Z</time>
      </trkpt>
      <trkpt lat="45.31973" lon="5.86216">
        <ele>1842.02</ele>
        <time>2015-03-07T07:02:04Z</time>
      </trkpt>
      <trkpt lat="45.31974" lon="5.86214">
        <ele>1842.02</ele>
        <time>2015-03-07T07:02:08Z</time>
      </trkpt>
      <trkpt lat="45.31976" lon="5.86216">
        <ele>1840.58</ele>
        <time>2015-03-07T07:02:11Z</time>
      </trkpt>
      <trkpt lat="45.31978" lon="5.86216">
        <ele>1840.1</ele>
        <time>2015-03-07T07:02:15Z</time>
      </trkpt>
      <trkpt lat="45.31981" lon="5.86226">
        <ele>1837.22</ele>
        <time>2015-03-07T07:02:20Z</time>
      </trkpt>
      <trkpt lat="45.31982" lon="5.86227">
        <ele>1837.22</ele>
        <time>2015-03-07T07:02:21Z</time>
      </trkpt>
      <trkpt lat="45.31985" lon="5.86231">
        <ele>1835.77</ele>
        <time>2015-03-07T07:02:23Z</time>
      </trkpt>
      <trkpt lat="45.3199" lon="5.86243">
        <ele>1830.97</ele>
        <time>2015-03-07T07:02:26Z</time>
      </trkpt>
      <trkpt lat="45.3199" lon="5.86244">
        <ele>1832.89</ele>
        <time>2015-03-07T07:02:27Z</time>
      </trkpt>
      <trkpt lat="45.31995" lon="5.86251">
        <ele>1827.6</ele>
        <time>2015-03-07T07:02:30Z</time>
      </trkpt>
      <trkpt lat="45.31996" lon="5.86253">
        <ele>1829.05</ele>
        <time>2015-03-07T07:02:32Z</time>
      </trkpt>
      <trkpt lat="45.31999" lon="5.86257">
        <ele>1826.64</ele>
        <time>2015-03-07T07:02:35Z</time>
      </trkpt>
      <trkpt lat="45.32001" lon="5.86262">
        <ele>1827.12</ele>
        <time>2015-03-07T07:02:53Z</time>
      </trkpt>
      <trkpt lat="45.32003" lon="5.86268">
        <ele>1824.72</ele>
        <time>2015-03-07T07:02:59Z</time>
      </trkpt>
      <trkpt lat="45.32003" lon="5.86272">
        <ele>1822.8</ele>
        <time>2015-03-07T07:03:17Z</time>
      </trkpt>
      <trkpt lat="45.32009" lon="5.86283">
        <ele>1821.35</ele>
        <time>2015-03-07T07:03:28Z</time>
      </trkpt>
      <trkpt lat="45.32015" lon="5.8629">
        <ele>1820.87</ele>
        <time>2015-03-07T07:03:37Z</time>
      </trkpt>
      <trkpt lat="45.32022" lon="5.86302">
        <ele>1817.03</ele>
        <time>2015-03-07T07:03:41Z</time>
      </trkpt>
      <trkpt lat="45.32041" lon="5.86328">
        <ele>1816.55</ele>
        <time>2015-03-07T07:03:52Z</time>
      </trkpt>
      <trkpt lat="45.32047" lon="5.86341">
        <ele>1813.66</ele>
        <time>2015-03-07T07:04:00Z</time>
      </trkpt>
      <trkpt lat="45.32048" lon="5.86343">
        <ele>1813.66</ele>
        <time>2015-03-07T07:04:01Z</time>
      </trkpt>
      <trkpt lat="45.32059" lon="5.86366">
        <ele>1809.82</ele>
        <time>2015-03-07T07:04:07Z</time>
      </trkpt>
      <trkpt lat="45.32061" lon="5.86369">
        <ele>1809.82</ele>
        <time>2015-03-07T07:04:08Z</time>
      </trkpt>
      <trkpt lat="45.32083" lon="5.86385">
        <ele>1806.45</ele>
        <time>2015-03-07T07:04:19Z</time>
      </trkpt>
      <trkpt lat="45.32084" lon="5.86388">
        <ele>1806.45</ele>
        <time>2015-03-07T07:04:20Z</time>
      </trkpt>
      <trkpt lat="45.32086" lon="5.86399">
        <ele>1808.38</ele>
        <time>2015-03-07T07:04:24Z</time>
      </trkpt>
      <trkpt lat="45.3209" lon="5.86421">
        <ele>1805.01</ele>
        <time>2015-03-07T07:04:30Z</time>
      </trkpt>
      <trkpt lat="45.32096" lon="5.86437">
        <ele>1805.97</ele>
        <time>2015-03-07T07:04:36Z</time>
      </trkpt>
      <trkpt lat="45.32097" lon="5.86439">
        <ele>1805.97</ele>
        <time>2015-03-07T07:04:39Z</time>
      </trkpt>
      <trkpt lat="45.321" lon="5.86441">
        <ele>1804.53</ele>
        <time>2015-03-07T07:04:42Z</time>
      </trkpt>
      <trkpt lat="45.32101" lon="5.86443">
        <ele>1804.53</ele>
        <time>2015-03-07T07:04:55Z</time>
      </trkpt>
      <trkpt lat="45.32102" lon="5.86442">
        <ele>1808.86</ele>
        <time>2015-03-07T07:05:08Z</time>
      </trkpt>
      <trkpt lat="45.32103" lon="5.86441">
        <ele>1805.01</ele>
        <time>2015-03-07T07:05:09Z</time>
      </trkpt>
      <trkpt lat="45.32099" lon="5.86443">
        <ele>1805.49</ele>
        <time>2015-03-07T07:05:30Z</time>
      </trkpt>
      <trkpt lat="45.32097" lon="5.86445">
        <ele>1804.05</ele>
        <time>2015-03-07T07:05:45Z</time>
      </trkpt>
      <trkpt lat="45.32097" lon="5.86445">
        <ele>1807.42</ele>
        <time>2015-03-07T07:05:51Z</time>
      </trkpt>
      <trkpt lat="45.32101" lon="5.86444">
        <ele>1804.53</ele>
        <time>2015-03-07T07:06:10Z</time>
      </trkpt>
      <trkpt lat="45.321" lon="5.86443">
        <ele>1807.9</ele>
        <time>2015-03-07T07:06:27Z</time>
      </trkpt>
      <trkpt lat="45.32102" lon="5.86444">
        <ele>1805.49</ele>
        <time>2015-03-07T07:06:49Z</time>
      </trkpt>
      <trkpt lat="45.32101" lon="5.86446">
        <ele>1804.53</ele>
        <time>2015-03-07T07:07:22Z</time>
      </trkpt>
      <trkpt lat="45.32098" lon="5.86445">
        <ele>1804.53</ele>
        <time>2015-03-07T07:07:47Z</time>
      </trkpt>
      <trkpt lat="45.32099" lon="5.86445">
        <ele>1805.97</ele>
        <time>2015-03-07T07:08:18Z</time>
      </trkpt>
      <trkpt lat="45.32099" lon="5.86449">
        <ele>1805.97</ele>
        <time>2015-03-07T07:08:48Z</time>
      </trkpt>
      <trkpt lat="45.32098" lon="5.8645">
        <ele>1805.97</ele>
        <time>2015-03-07T07:09:28Z</time>
      </trkpt>
      <trkpt lat="45.32098" lon="5.86453">
        <ele>1805.97</ele>
        <time>2015-03-07T07:09:52Z</time>
      </trkpt>
      <trkpt lat="45.32091" lon="5.86451">
        <ele>1809.34</ele>
        <time>2015-03-07T07:10:08Z</time>
      </trkpt>
      <trkpt lat="45.32091" lon="5.86464">
        <ele>1811.26</ele>
        <time>2015-03-07T07:10:23Z</time>
      </trkpt>
      <trkpt lat="45.32092" lon="5.8648">
        <ele>1813.18</ele>
        <time>2015-03-07T07:10:39Z</time>
      </trkpt>
      <trkpt lat="45.32089" lon="5.86493">
        <ele>1816.55</ele>
        <time>2015-03-07T07:10:53Z</time>
      </trkpt>
      <trkpt lat="45.32083" lon="5.86501">
        <ele>1819.43</ele>
        <time>2015-03-07T07:11:09Z</time>
      </trkpt>
      <trkpt lat="45.32081" lon="5.8651">
        <ele>1822.32</ele>
        <time>2015-03-07T07:11:23Z</time>
      </trkpt>
      <trkpt lat="45.32078" lon="5.8652">
        <ele>1825.68</ele>
        <time>2015-03-07T07:11:37Z</time>
      </trkpt>
      <trkpt lat="45.32072" lon="5.86524">
        <ele>1827.6</ele>
        <time>2015-03-07T07:11:53Z</time>
      </trkpt>
      <trkpt lat="45.32061" lon="5.86522">
        <ele>1830.49</ele>
        <time>2015-03-07T07:12:11Z</time>
      </trkpt>
      <trkpt lat="45.32058" lon="5.86525">
        <ele>1833.37</ele>
        <time>2015-03-07T07:12:22Z</time>
      </trkpt>
      <trkpt lat="45.32065" lon="5.86539">
        <ele>1835.29</ele>
        <time>2015-03-07T07:12:39Z</time>
      </trkpt>
      <trkpt lat="45.32062" lon="5.86543">
        <ele>1836.26</ele>
        <time>2015-03-07T07:12:55Z</time>
      </trkpt>
      <trkpt lat="45.32058" lon="5.86545">
        <ele>1837.7</ele>
        <time>2015-03-07T07:13:10Z</time>
      </trkpt>
      <trkpt lat="45.32066" lon="5.86559">
        <ele>1840.1</ele>
        <time>2015-03-07T07:13:30Z</time>
      </trkpt>
      <trkpt lat="45.3207" lon="5.86568">
        <ele>1842.02</ele>
        <time>2015-03-07T07:13:51Z</time>
      </trkpt>
      <trkpt lat="45.32077" lon="5.86572">
        <ele>1842.02</ele>
        <time>2015-03-07T07:14:09Z</time>
      </trkpt>
      <trkpt lat="45.32084" lon="5.8658">
        <ele>1842.98</ele>
        <time>2015-03-07T07:14:23Z</time>
      </trkpt>
      <trkpt lat="45.32092" lon="5.86589">
        <ele>1844.91</ele>
        <time>2015-03-07T07:14:40Z</time>
      </trkpt>
      <trkpt lat="45.32095" lon="5.86595">
        <ele>1847.31</ele>
        <time>2015-03-07T07:14:59Z</time>
      </trkpt>
      <trkpt lat="45.3209" lon="5.86598">
        <ele>1848.75</ele>
        <time>2015-03-07T07:15:18Z</time>
      </trkpt>
      <trkpt lat="45.32096" lon="5.86606">
        <ele>1849.71</ele>
        <time>2015-03-07T07:15:33Z</time>
      </trkpt>
      <trkpt lat="45.32099" lon="5.86608">
        <ele>1852.12</ele>
        <time>2015-03-07T07:15:50Z</time>
      </trkpt>
      <trkpt lat="45.32094" lon="5.86607">
        <ele>1853.08</ele>
        <time>2015-03-07T07:16:06Z</time>
      </trkpt>
      <trkpt lat="45.32095" lon="5.86609">
        <ele>1852.6</ele>
        <time>2015-03-07T07:16:11Z</time>
      </trkpt>
      <trkpt lat="45.32089" lon="5.86608">
        <ele>1854.04</ele>
        <time>2015-03-07T07:16:27Z</time>
      </trkpt>
      <trkpt lat="45.3209" lon="5.86611">
        <ele>1856.92</ele>
        <time>2015-03-07T07:16:45Z</time>
      </trkpt>
      <trkpt lat="45.32093" lon="5.86609">
        <ele>1858.85</ele>
        <time>2015-03-07T07:17:13Z</time>
      </trkpt>
      <trkpt lat="45.32092" lon="5.86612">
        <ele>1860.77</ele>
        <time>2015-03-07T07:17:31Z</time>
      </trkpt>
      <trkpt lat="45.3209" lon="5.86614">
        <ele>1862.69</ele>
        <time>2015-03-07T07:17:56Z</time>
      </trkpt>
      <trkpt lat="45.32093" lon="5.86609">
        <ele>1866.54</ele>
        <time>2015-03-07T07:18:11Z</time>
      </trkpt>
      <trkpt lat="45.32093" lon="5.86609">
        <ele>1863.17</ele>
        <time>2015-03-07T07:18:12Z</time>
      </trkpt>
      <trkpt lat="45.32089" lon="5.86606">
        <ele>1863.65</ele>
        <time>2015-03-07T07:18:30Z</time>
      </trkpt>
      <trkpt lat="45.32089" lon="5.86613">
        <ele>1864.61</ele>
        <time>2015-03-07T07:18:50Z</time>
      </trkpt>
      <trkpt lat="45.32089" lon="5.86611">
        <ele>1866.06</ele>
        <time>2015-03-07T07:18:57Z</time>
      </trkpt>
      <trkpt lat="45.32095" lon="5.86603">
        <ele>1867.98</ele>
        <time>2015-03-07T07:19:21Z</time>
      </trkpt>
      <trkpt lat="45.32102" lon="5.8661">
        <ele>1870.86</ele>
        <time>2015-03-07T07:19:39Z</time>
      </trkpt>
      <trkpt lat="45.32104" lon="5.86615">
        <ele>1871.34</ele>
        <time>2015-03-07T07:19:59Z</time>
      </trkpt>
      <trkpt lat="45.32104" lon="5.86614">
        <ele>1872.79</ele>
        <time>2015-03-07T07:20:21Z</time>
      </trkpt>
      <trkpt lat="45.32106" lon="5.86617">
        <ele>1872.79</ele>
        <time>2015-03-07T07:20:37Z</time>
      </trkpt>
      <trkpt lat="45.32103" lon="5.8662">
        <ele>1873.75</ele>
        <time>2015-03-07T07:20:54Z</time>
      </trkpt>
      <trkpt lat="45.32103" lon="5.86624">
        <ele>1876.15</ele>
        <time>2015-03-07T07:21:13Z</time>
      </trkpt>
      <trkpt lat="45.32102" lon="5.8663">
        <ele>1879.03</ele>
        <time>2015-03-07T07:21:31Z</time>
      </trkpt>
      <trkpt lat="45.32101" lon="5.86631">
        <ele>1880.96</ele>
        <time>2015-03-07T07:21:49Z</time>
      </trkpt>
      <trkpt lat="45.32098" lon="5.86633">
        <ele>1883.84</ele>
        <time>2015-03-07T07:22:07Z</time>
      </trkpt>
      <trkpt lat="45.32098" lon="5.86635">
        <ele>1884.32</ele>
        <time>2015-03-07T07:22:26Z</time>
      </trkpt>
      <trkpt lat="45.32101" lon="5.86636">
        <ele>1886.24</ele>
        <time>2015-03-07T07:22:47Z</time>
      </trkpt>
      <trkpt lat="45.32099" lon="5.8664">
        <ele>1887.21</ele>
        <time>2015-03-07T07:23:06Z</time>
      </trkpt>
      <trkpt lat="45.32093" lon="5.86638">
        <ele>1888.17</ele>
        <time>2015-03-07T07:23:22Z</time>
      </trkpt>
      <trkpt lat="45.32086" lon="5.86642">
        <ele>1891.53</ele>
        <time>2015-03-07T07:23:39Z</time>
      </trkpt>
      <trkpt lat="45.32094" lon="5.86645">
        <ele>1893.93</ele>
        <time>2015-03-07T07:23:58Z</time>
      </trkpt>
      <trkpt lat="45.32102" lon="5.86647">
        <ele>1892.49</ele>
        <time>2015-03-07T07:24:09Z</time>
      </trkpt>
      <trkpt lat="45.3212" lon="5.86649">
        <ele>1891.53</ele>
        <time>2015-03-07T07:24:23Z</time>
      </trkpt>
      <trkpt lat="45.3213" lon="5.86649">
        <ele>1891.05</ele>
        <time>2015-03-07T07:24:41Z</time>
      </trkpt>
      <trkpt lat="45.32142" lon="5.8665">
        <ele>1891.53</ele>
        <time>2015-03-07T07:24:58Z</time>
      </trkpt>
      <trkpt lat="45.32137" lon="5.86649">
        <ele>1892.01</ele>
        <time>2015-03-07T07:25:11Z</time>
      </trkpt>
      <trkpt lat="45.32137" lon="5.86648">
        <ele>1891.05</ele>
        <time>2015-03-07T07:25:22Z</time>
      </trkpt>
      <trkpt lat="45.32141" lon="5.86645">
        <ele>1890.09</ele>
        <time>2015-03-07T07:25:38Z</time>
      </trkpt>
      <trkpt lat="45.32143" lon="5.86642">
        <ele>1889.13</ele>
        <time>2015-03-07T07:25:56Z</time>
      </trkpt>
      <trkpt lat="45.32144" lon="5.86642">
        <ele>1886.24</ele>
        <time>2015-03-07T07:26:16Z</time>
      </trkpt>
      <trkpt lat="45.32148" lon="5.8664">
        <ele>1885.28</ele>
        <time>2015-03-07T07:26:39Z</time>
      </trkpt>
      <trkpt lat="45.32161" lon="5.86642">
        <ele>1884.32</ele>
        <time>2015-03-07T07:26:54Z</time>
      </trkpt>
      <trkpt lat="45.32164" lon="5.86643">
        <ele>1885.28</ele>
        <time>2015-03-07T07:26:57Z</time>
      </trkpt>
      <trkpt lat="45.32177" lon="5.86648">
        <ele>1885.76</ele>
        <time>2015-03-07T07:27:17Z</time>
      </trkpt>
      <trkpt lat="45.3218" lon="5.86648">
        <ele>1885.76</ele>
        <time>2015-03-07T07:27:22Z</time>
      </trkpt>
      <trkpt lat="45.32197" lon="5.86649">
        <ele>1882.88</ele>
        <time>2015-03-07T07:27:32Z</time>
      </trkpt>
      <trkpt lat="45.32208" lon="5.86648">
        <ele>1881.44</ele>
        <time>2015-03-07T07:27:40Z</time>
      </trkpt>
      <trkpt lat="45.32223" lon="5.86652">
        <ele>1880</ele>
        <time>2015-03-07T07:27:55Z</time>
      </trkpt>
      <trkpt lat="45.32238" lon="5.86657">
        <ele>1880.96</ele>
        <time>2015-03-07T07:28:12Z</time>
      </trkpt>
      <trkpt lat="45.32249" lon="5.86661">
        <ele>1881.92</ele>
        <time>2015-03-07T07:28:29Z</time>
      </trkpt>
      <trkpt lat="45.32262" lon="5.86667">
        <ele>1882.88</ele>
        <time>2015-03-07T07:28:45Z</time>
      </trkpt>
      <trkpt lat="45.32273" lon="5.86672">
        <ele>1881.44</ele>
        <time>2015-03-07T07:28:55Z</time>
      </trkpt>
      <trkpt lat="45.32292" lon="5.86677">
        <ele>1880.96</ele>
        <time>2015-03-07T07:29:12Z</time>
      </trkpt>
      <trkpt lat="45.32307" lon="5.86679">
        <ele>1880.96</ele>
        <time>2015-03-07T07:29:26Z</time>
      </trkpt>
      <trkpt lat="45.32311" lon="5.8668">
        <ele>1882.4</ele>
        <time>2015-03-07T07:29:31Z</time>
      </trkpt>
      <trkpt lat="45.3232" lon="5.86685">
        <ele>1883.36</ele>
        <time>2015-03-07T07:29:45Z</time>
      </trkpt>
      <trkpt lat="45.32333" lon="5.86694">
        <ele>1885.28</ele>
        <time>2015-03-07T07:30:01Z</time>
      </trkpt>
      <trkpt lat="45.32341" lon="5.867">
        <ele>1886.72</ele>
        <time>2015-03-07T07:30:17Z</time>
      </trkpt>
      <trkpt lat="45.3235" lon="5.867">
        <ele>1889.13</ele>
        <time>2015-03-07T07:30:30Z</time>
      </trkpt>
      <trkpt lat="45.32357" lon="5.86698">
        <ele>1887.69</ele>
        <time>2015-03-07T07:30:35Z</time>
      </trkpt>
      <trkpt lat="45.3237" lon="5.86704">
        <ele>1887.69</ele>
        <time>2015-03-07T07:30:50Z</time>
      </trkpt>
      <trkpt lat="45.32377" lon="5.86706">
        <ele>1889.13</ele>
        <time>2015-03-07T07:30:57Z</time>
      </trkpt>
      <trkpt lat="45.32385" lon="5.86708">
        <ele>1890.09</ele>
        <time>2015-03-07T07:31:05Z</time>
      </trkpt>
      <trkpt lat="45.32403" lon="5.86718">
        <ele>1890.57</ele>
        <time>2015-03-07T07:31:24Z</time>
      </trkpt>
      <trkpt lat="45.32419" lon="5.86729">
        <ele>1891.53</ele>
        <time>2015-03-07T07:31:41Z</time>
      </trkpt>
      <trkpt lat="45.3242" lon="5.86731">
        <ele>1890.57</ele>
        <time>2015-03-07T07:31:43Z</time>
      </trkpt>
      <trkpt lat="45.32434" lon="5.86743">
        <ele>1890.57</ele>
        <time>2015-03-07T07:31:57Z</time>
      </trkpt>
      <trkpt lat="45.32453" lon="5.86753">
        <ele>1890.57</ele>
        <time>2015-03-07T07:32:14Z</time>
      </trkpt>
      <trkpt lat="45.3247" lon="5.86762">
        <ele>1889.61</ele>
        <time>2015-03-07T07:32:29Z</time>
      </trkpt>
      <trkpt lat="45.32487" lon="5.86772">
        <ele>1889.61</ele>
        <time>2015-03-07T07:32:43Z</time>
      </trkpt>
      <trkpt lat="45.32501" lon="5.86784">
        <ele>1885.76</ele>
        <time>2015-03-07T07:32:53Z</time>
      </trkpt>
      <trkpt lat="45.32504" lon="5.86785">
        <ele>1885.76</ele>
        <time>2015-03-07T07:32:54Z</time>
      </trkpt>
      <trkpt lat="45.32506" lon="5.86788">
        <ele>1887.21</ele>
        <time>2015-03-07T07:32:57Z</time>
      </trkpt>
      <trkpt lat="45.32515" lon="5.86799">
        <ele>1887.21</ele>
        <time>2015-03-07T07:33:10Z</time>
      </trkpt>
      <trkpt lat="45.32516" lon="5.868">
        <ele>1886.24</ele>
        <time>2015-03-07T07:33:13Z</time>
      </trkpt>
      <trkpt lat="45.32518" lon="5.86802">
        <ele>1887.69</ele>
        <time>2015-03-07T07:33:34Z</time>
      </trkpt>
      <trkpt lat="45.32531" lon="5.86806">
        <ele>1881.92</ele>
        <time>2015-03-07T07:33:39Z</time>
      </trkpt>
      <trkpt lat="45.32547" lon="5.86812">
        <ele>1879.51</ele>
        <time>2015-03-07T07:33:43Z</time>
      </trkpt>
      <trkpt lat="45.32561" lon="5.86823">
        <ele>1875.67</ele>
        <time>2015-03-07T07:33:48Z</time>
      </trkpt>
      <trkpt lat="45.32564" lon="5.86826">
        <ele>1876.15</ele>
        <time>2015-03-07T07:33:49Z</time>
      </trkpt>
      <trkpt lat="45.32572" lon="5.86832">
        <ele>1877.11</ele>
        <time>2015-03-07T07:33:57Z</time>
      </trkpt>
      <trkpt lat="45.3258" lon="5.86842">
        <ele>1875.67</ele>
        <time>2015-03-07T07:34:05Z</time>
      </trkpt>
      <trkpt lat="45.32583" lon="5.86847">
        <ele>1875.67</ele>
        <time>2015-03-07T07:34:12Z</time>
      </trkpt>
      <trkpt lat="45.3259" lon="5.86846">
        <ele>1873.75</ele>
        <time>2015-03-07T07:34:16Z</time>
      </trkpt>
      <trkpt lat="45.32592" lon="5.86846">
        <ele>1873.75</ele>
        <time>2015-03-07T07:34:18Z</time>
      </trkpt>
      <trkpt lat="45.32606" lon="5.86853">
        <ele>1873.75</ele>
        <time>2015-03-07T07:34:30Z</time>
      </trkpt>
      <trkpt lat="45.32623" lon="5.8686">
        <ele>1871.82</ele>
        <time>2015-03-07T07:34:45Z</time>
      </trkpt>
      <trkpt lat="45.32631" lon="5.86862">
        <ele>1870.38</ele>
        <time>2015-03-07T07:34:49Z</time>
      </trkpt>
      <trkpt lat="45.32635" lon="5.86865">
        <ele>1869.9</ele>
        <time>2015-03-07T07:35:02Z</time>
      </trkpt>
      <trkpt lat="45.32648" lon="5.86863">
        <ele>1865.58</ele>
        <time>2015-03-07T07:35:07Z</time>
      </trkpt>
      <trkpt lat="45.32666" lon="5.86868">
        <ele>1862.21</ele>
        <time>2015-03-07T07:35:12Z</time>
      </trkpt>
      <trkpt lat="45.32679" lon="5.8687">
        <ele>1859.81</ele>
        <time>2015-03-07T07:35:16Z</time>
      </trkpt>
      <trkpt lat="45.32678" lon="5.86868">
        <ele>1858.85</ele>
        <time>2015-03-07T07:35:27Z</time>
      </trkpt>
      <trkpt lat="45.3268" lon="5.86868">
        <ele>1859.33</ele>
        <time>2015-03-07T07:35:40Z</time>
      </trkpt>
      <trkpt lat="45.32695" lon="5.86872">
        <ele>1856.44</ele>
        <time>2015-03-07T07:35:50Z</time>
      </trkpt>
      <trkpt lat="45.32717" lon="5.86879">
        <ele>1854.04</ele>
        <time>2015-03-07T07:36:02Z</time>
      </trkpt>
      <trkpt lat="45.32735" lon="5.86883">
        <ele>1852.6</ele>
        <time>2015-03-07T07:36:17Z</time>
      </trkpt>
      <trkpt lat="45.32751" lon="5.8688">
        <ele>1850.68</ele>
        <time>2015-03-07T07:36:28Z</time>
      </trkpt>
      <trkpt lat="45.32766" lon="5.86875">
        <ele>1849.23</ele>
        <time>2015-03-07T07:36:41Z</time>
      </trkpt>
      <trkpt lat="45.32777" lon="5.86868">
        <ele>1845.87</ele>
        <time>2015-03-07T07:36:48Z</time>
      </trkpt>
      <trkpt lat="45.32778" lon="5.86867">
        <ele>1845.87</ele>
        <time>2015-03-07T07:36:49Z</time>
      </trkpt>
      <trkpt lat="45.32777" lon="5.86862">
        <ele>1845.87</ele>
        <time>2015-03-07T07:37:05Z</time>
      </trkpt>
      <trkpt lat="45.32773" lon="5.86862">
        <ele>1845.87</ele>
        <time>2015-03-07T07:37:10Z</time>
      </trkpt>
      <trkpt lat="45.32757" lon="5.86854">
        <ele>1842.02</ele>
        <time>2015-03-07T07:37:22Z</time>
      </trkpt>
      <trkpt lat="45.32745" lon="5.86846">
        <ele>1838.18</ele>
        <time>2015-03-07T07:37:26Z</time>
      </trkpt>
      <trkpt lat="45.32733" lon="5.86834">
        <ele>1835.77</ele>
        <time>2015-03-07T07:37:36Z</time>
      </trkpt>
      <trkpt lat="45.32733" lon="5.86833">
        <ele>1835.29</ele>
        <time>2015-03-07T07:37:37Z</time>
      </trkpt>
      <trkpt lat="45.32743" lon="5.86833">
        <ele>1832.89</ele>
        <time>2015-03-07T07:37:43Z</time>
      </trkpt>
      <trkpt lat="45.32752" lon="5.86831">
        <ele>1831.45</ele>
        <time>2015-03-07T07:37:46Z</time>
      </trkpt>
      <trkpt lat="45.32771" lon="5.86828">
        <ele>1828.08</ele>
        <time>2015-03-07T07:37:57Z</time>
      </trkpt>
      <trkpt lat="45.32782" lon="5.86826">
        <ele>1825.68</ele>
        <time>2015-03-07T07:38:05Z</time>
      </trkpt>
      <trkpt lat="45.32794" lon="5.86828">
        <ele>1825.2</ele>
        <time>2015-03-07T07:38:17Z</time>
      </trkpt>
      <trkpt lat="45.32806" lon="5.86831">
        <ele>1822.8</ele>
        <time>2015-03-07T07:38:32Z</time>
      </trkpt>
      <trkpt lat="45.32818" lon="5.86836">
        <ele>1822.8</ele>
        <time>2015-03-07T07:38:48Z</time>
      </trkpt>
      <trkpt lat="45.32819" lon="5.86836">
        <ele>1822.8</ele>
        <time>2015-03-07T07:38:50Z</time>
      </trkpt>
      <trkpt lat="45.32835" lon="5.86842">
        <ele>1822.32</ele>
        <time>2015-03-07T07:39:08Z</time>
      </trkpt>
      <trkpt lat="45.32837" lon="5.86844">
        <ele>1820.39</ele>
        <time>2015-03-07T07:39:13Z</time>
      </trkpt>
      <trkpt lat="45.32841" lon="5.86845">
        <ele>1818.47</ele>
        <time>2015-03-07T07:39:16Z</time>
      </trkpt>
      <trkpt lat="45.32848" lon="5.86851">
        <ele>1818.47</ele>
        <time>2015-03-07T07:39:25Z</time>
      </trkpt>
      <trkpt lat="45.32852" lon="5.86854">
        <ele>1815.59</ele>
        <time>2015-03-07T07:39:28Z</time>
      </trkpt>
      <trkpt lat="45.32853" lon="5.86854">
        <ele>1817.51</ele>
        <time>2015-03-07T07:39:31Z</time>
      </trkpt>
      <trkpt lat="45.32857" lon="5.86858">
        <ele>1813.66</ele>
        <time>2015-03-07T07:39:34Z</time>
      </trkpt>
      <trkpt lat="45.3286" lon="5.86863">
        <ele>1814.15</ele>
        <time>2015-03-07T07:39:45Z</time>
      </trkpt>
      <trkpt lat="45.32865" lon="5.86865">
        <ele>1815.59</ele>
        <time>2015-03-07T07:39:55Z</time>
      </trkpt>
      <trkpt lat="45.32868" lon="5.86868">
        <ele>1814.15</ele>
        <time>2015-03-07T07:39:57Z</time>
      </trkpt>
      <trkpt lat="45.32875" lon="5.86873">
        <ele>1810.78</ele>
        <time>2015-03-07T07:40:00Z</time>
      </trkpt>
      <trkpt lat="45.32884" lon="5.8688">
        <ele>1811.74</ele>
        <time>2015-03-07T07:40:04Z</time>
      </trkpt>
      <trkpt lat="45.32889" lon="5.86883">
        <ele>1808.38</ele>
        <time>2015-03-07T07:40:07Z</time>
      </trkpt>
      <trkpt lat="45.3289" lon="5.86884">
        <ele>1808.38</ele>
        <time>2015-03-07T07:40:08Z</time>
      </trkpt>
      <trkpt lat="45.32901" lon="5.86889">
        <ele>1805.97</ele>
        <time>2015-03-07T07:40:16Z</time>
      </trkpt>
      <trkpt lat="45.3291" lon="5.86891">
        <ele>1804.53</ele>
        <time>2015-03-07T07:40:21Z</time>
      </trkpt>
      <trkpt lat="45.32925" lon="5.86898">
        <ele>1801.17</ele>
        <time>2015-03-07T07:40:28Z</time>
      </trkpt>
      <trkpt lat="45.32932" lon="5.86902">
        <ele>1799.24</ele>
        <time>2015-03-07T07:40:31Z</time>
      </trkpt>
      <trkpt lat="45.32935" lon="5.86904">
        <ele>1799.24</ele>
        <time>2015-03-07T07:40:40Z</time>
      </trkpt>
      <trkpt lat="45.32934" lon="5.86904">
        <ele>1798.76</ele>
        <time>2015-03-07T07:41:07Z</time>
      </trkpt>
      <trkpt lat="45.32936" lon="5.86904">
        <ele>1800.69</ele>
        <time>2015-03-07T07:41:38Z</time>
      </trkpt>
      <trkpt lat="45.32935" lon="5.86902">
        <ele>1800.69</ele>
        <time>2015-03-07T07:41:57Z</time>
      </trkpt>
      <trkpt lat="45.32927" lon="5.86884">
        <ele>1796.84</ele>
        <time>2015-03-07T07:42:03Z</time>
      </trkpt>
      <trkpt lat="45.32921" lon="5.86876">
        <ele>1794.44</ele>
        <time>2015-03-07T07:42:06Z</time>
      </trkpt>
      <trkpt lat="45.32921" lon="5.86875">
        <ele>1794.92</ele>
        <time>2015-03-07T07:42:14Z</time>
      </trkpt>
      <trkpt lat="45.32933" lon="5.86878">
        <ele>1791.07</ele>
        <time>2015-03-07T07:42:19Z</time>
      </trkpt>
      <trkpt lat="45.32946" lon="5.86884">
        <ele>1787.71</ele>
        <time>2015-03-07T07:42:23Z</time>
      </trkpt>
      <trkpt lat="45.32954" lon="5.8689">
        <ele>1785.79</ele>
        <time>2015-03-07T07:42:26Z</time>
      </trkpt>
      <trkpt lat="45.32959" lon="5.86895">
        <ele>1786.27</ele>
        <time>2015-03-07T07:42:36Z</time>
      </trkpt>
      <trkpt lat="45.32958" lon="5.86894">
        <ele>1786.27</ele>
        <time>2015-03-07T07:42:38Z</time>
      </trkpt>
      <trkpt lat="45.32951" lon="5.86873">
        <ele>1782.42</ele>
        <time>2015-03-07T07:42:46Z</time>
      </trkpt>
      <trkpt lat="45.32948" lon="5.86865">
        <ele>1781.46</ele>
        <time>2015-03-07T07:42:48Z</time>
      </trkpt>
      <trkpt lat="45.32946" lon="5.86863">
        <ele>1780.98</ele>
        <time>2015-03-07T07:42:54Z</time>
      </trkpt>
      <trkpt lat="45.32953" lon="5.86864">
        <ele>1777.61</ele>
        <time>2015-03-07T07:42:58Z</time>
      </trkpt>
      <trkpt lat="45.32954" lon="5.86865">
        <ele>1777.61</ele>
        <time>2015-03-07T07:42:59Z</time>
      </trkpt>
      <trkpt lat="45.32961" lon="5.86868">
        <ele>1778.1</ele>
        <time>2015-03-07T07:43:09Z</time>
      </trkpt>
      <trkpt lat="45.3296" lon="5.86867">
        <ele>1778.1</ele>
        <time>2015-03-07T07:43:10Z</time>
      </trkpt>
      <trkpt lat="45.32958" lon="5.86862">
        <ele>1776.65</ele>
        <time>2015-03-07T07:43:14Z</time>
      </trkpt>
      <trkpt lat="45.32952" lon="5.86843">
        <ele>1772.33</ele>
        <time>2015-03-07T07:43:20Z</time>
      </trkpt>
      <trkpt lat="45.3295" lon="5.86839">
        <ele>1771.85</ele>
        <time>2015-03-07T07:43:22Z</time>
      </trkpt>
      <trkpt lat="45.3295" lon="5.8684">
        <ele>1771.37</ele>
        <time>2015-03-07T07:43:25Z</time>
      </trkpt>
      <trkpt lat="45.32957" lon="5.86841">
        <ele>1767.04</ele>
        <time>2015-03-07T07:43:28Z</time>
      </trkpt>
      <trkpt lat="45.3296" lon="5.86841">
        <ele>1767.04</ele>
        <time>2015-03-07T07:43:29Z</time>
      </trkpt>
      <trkpt lat="45.32964" lon="5.86841">
        <ele>1766.08</ele>
        <time>2015-03-07T07:43:30Z</time>
      </trkpt>
      <trkpt lat="45.32975" lon="5.86844">
        <ele>1763.68</ele>
        <time>2015-03-07T07:43:33Z</time>
      </trkpt>
      <trkpt lat="45.32979" lon="5.86845">
        <ele>1763.68</ele>
        <time>2015-03-07T07:43:36Z</time>
      </trkpt>
      <trkpt lat="45.32984" lon="5.86846">
        <ele>1760.79</ele>
        <time>2015-03-07T07:43:39Z</time>
      </trkpt>
      <trkpt lat="45.32985" lon="5.86849">
        <ele>1760.79</ele>
        <time>2015-03-07T07:43:40Z</time>
      </trkpt>
      <trkpt lat="45.32987" lon="5.86859">
        <ele>1760.79</ele>
        <time>2015-03-07T07:43:49Z</time>
      </trkpt>
      <trkpt lat="45.32989" lon="5.86876">
        <ele>1760.79</ele>
        <time>2015-03-07T07:44:03Z</time>
      </trkpt>
      <trkpt lat="45.32992" lon="5.86884">
        <ele>1760.79</ele>
        <time>2015-03-07T07:44:16Z</time>
      </trkpt>
      <trkpt lat="45.32993" lon="5.86885">
        <ele>1760.31</ele>
        <time>2015-03-07T07:44:18Z</time>
      </trkpt>
      <trkpt lat="45.33008" lon="5.86897">
        <ele>1757.91</ele>
        <time>2015-03-07T07:44:29Z</time>
      </trkpt>
      <trkpt lat="45.33021" lon="5.86909">
        <ele>1758.39</ele>
        <time>2015-03-07T07:44:42Z</time>
      </trkpt>
      <trkpt lat="45.33029" lon="5.86918">
        <ele>1758.39</ele>
        <time>2015-03-07T07:44:53Z</time>
      </trkpt>
      <trkpt lat="45.33035" lon="5.86929">
        <ele>1759.35</ele>
        <time>2015-03-07T07:45:07Z</time>
      </trkpt>
      <trkpt lat="45.33038" lon="5.86936">
        <ele>1759.35</ele>
        <time>2015-03-07T07:45:21Z</time>
      </trkpt>
      <trkpt lat="45.33044" lon="5.86946">
        <ele>1757.43</ele>
        <time>2015-03-07T07:45:32Z</time>
      </trkpt>
      <trkpt lat="45.33047" lon="5.8695">
        <ele>1758.39</ele>
        <time>2015-03-07T07:45:35Z</time>
      </trkpt>
      <trkpt lat="45.33055" lon="5.86964">
        <ele>1758.87</ele>
        <time>2015-03-07T07:45:46Z</time>
      </trkpt>
      <trkpt lat="45.33063" lon="5.86974">
        <ele>1755.99</ele>
        <time>2015-03-07T07:45:52Z</time>
      </trkpt>
      <trkpt lat="45.33076" lon="5.86986">
        <ele>1755.5</ele>
        <time>2015-03-07T07:46:06Z</time>
      </trkpt>
      <trkpt lat="45.33083" lon="5.86994">
        <ele>1755.5</ele>
        <time>2015-03-07T07:46:14Z</time>
      </trkpt>
      <trkpt lat="45.33079" lon="5.86999">
        <ele>1756.95</ele>
        <time>2015-03-07T07:46:29Z</time>
      </trkpt>
      <trkpt lat="45.33072" lon="5.87004">
        <ele>1758.39</ele>
        <time>2015-03-07T07:46:40Z</time>
      </trkpt>
      <trkpt lat="45.33072" lon="5.87013">
        <ele>1758.87</ele>
        <time>2015-03-07T07:46:54Z</time>
      </trkpt>
      <trkpt lat="45.33072" lon="5.87014">
        <ele>1758.87</ele>
        <time>2015-03-07T07:46:55Z</time>
      </trkpt>
      <trkpt lat="45.33071" lon="5.8702">
        <ele>1757.43</ele>
        <time>2015-03-07T07:46:58Z</time>
      </trkpt>
      <trkpt lat="45.33075" lon="5.87028">
        <ele>1758.87</ele>
        <time>2015-03-07T07:47:12Z</time>
      </trkpt>
      <trkpt lat="45.3309" lon="5.87041">
        <ele>1760.31</ele>
        <time>2015-03-07T07:47:29Z</time>
      </trkpt>
      <trkpt lat="45.33095" lon="5.87049">
        <ele>1760.79</ele>
        <time>2015-03-07T07:47:45Z</time>
      </trkpt>
      <trkpt lat="45.33096" lon="5.8705">
        <ele>1760.79</ele>
        <time>2015-03-07T07:48:02Z</time>
      </trkpt>
      <trkpt lat="45.33096" lon="5.87049">
        <ele>1760.79</ele>
        <time>2015-03-07T07:48:05Z</time>
      </trkpt>
      <trkpt lat="45.33086" lon="5.8703">
        <ele>1757.43</ele>
        <time>2015-03-07T07:48:12Z</time>
      </trkpt>
      <trkpt lat="45.33077" lon="5.87018">
        <ele>1755.02</ele>
        <time>2015-03-07T07:48:17Z</time>
      </trkpt>
      <trkpt lat="45.33077" lon="5.87018">
        <ele>1755.02</ele>
        <time>2015-03-07T07:48:20Z</time>
      </trkpt>
      <trkpt lat="45.3309" lon="5.87019">
        <ele>1750.7</ele>
        <time>2015-03-07T07:48:25Z</time>
      </trkpt>
      <trkpt lat="45.33102" lon="5.87016">
        <ele>1746.85</ele>
        <time>2015-03-07T07:48:28Z</time>
      </trkpt>
      <trkpt lat="45.33114" lon="5.87016">
        <ele>1743.97</ele>
        <time>2015-03-07T07:48:31Z</time>
      </trkpt>
      <trkpt lat="45.33113" lon="5.87015">
        <ele>1743.97</ele>
        <time>2015-03-07T07:48:34Z</time>
      </trkpt>
      <trkpt lat="45.33121" lon="5.87019">
        <ele>1742.53</ele>
        <time>2015-03-07T07:48:45Z</time>
      </trkpt>
      <trkpt lat="45.33124" lon="5.87019">
        <ele>1741.57</ele>
        <time>2015-03-07T07:48:51Z</time>
      </trkpt>
      <trkpt lat="45.33137" lon="5.87028">
        <ele>1736.28</ele>
        <time>2015-03-07T07:48:58Z</time>
      </trkpt>
      <trkpt lat="45.33139" lon="5.87032">
        <ele>1736.76</ele>
        <time>2015-03-07T07:49:10Z</time>
      </trkpt>
      <trkpt lat="45.33139" lon="5.87032">
        <ele>1736.76</ele>
        <time>2015-03-07T07:49:12Z</time>
      </trkpt>
      <trkpt lat="45.3314" lon="5.87027">
        <ele>1736.28</ele>
        <time>2015-03-07T07:49:16Z</time>
      </trkpt>
      <trkpt lat="45.3314" lon="5.87022">
        <ele>1734.36</ele>
        <time>2015-03-07T07:49:19Z</time>
      </trkpt>
      <trkpt lat="45.33141" lon="5.8702">
        <ele>1733.39</ele>
        <time>2015-03-07T07:49:26Z</time>
      </trkpt>
      <trkpt lat="45.33148" lon="5.87025">
        <ele>1729.55</ele>
        <time>2015-03-07T07:49:32Z</time>
      </trkpt>
      <trkpt lat="45.33148" lon="5.87027">
        <ele>1729.55</ele>
        <time>2015-03-07T07:49:33Z</time>
      </trkpt>
      <trkpt lat="45.33147" lon="5.87035">
        <ele>1727.63</ele>
        <time>2015-03-07T07:49:43Z</time>
      </trkpt>
      <trkpt lat="45.33155" lon="5.87044">
        <ele>1727.15</ele>
        <time>2015-03-07T07:49:58Z</time>
      </trkpt>
      <trkpt lat="45.33162" lon="5.87057">
        <ele>1728.59</ele>
        <time>2015-03-07T07:50:15Z</time>
      </trkpt>
      <trkpt lat="45.33167" lon="5.87067">
        <ele>1729.55</ele>
        <time>2015-03-07T07:50:29Z</time>
      </trkpt>
      <trkpt lat="45.33173" lon="5.87076">
        <ele>1730.99</ele>
        <time>2015-03-07T07:50:44Z</time>
      </trkpt>
      <trkpt lat="45.3317" lon="5.87082">
        <ele>1732.43</ele>
        <time>2015-03-07T07:50:59Z</time>
      </trkpt>
      <trkpt lat="45.33175" lon="5.87094">
        <ele>1735.32</ele>
        <time>2015-03-07T07:51:16Z</time>
      </trkpt>
      <trkpt lat="45.33171" lon="5.87099">
        <ele>1737.72</ele>
        <time>2015-03-07T07:51:31Z</time>
      </trkpt>
      <trkpt lat="45.33177" lon="5.87104">
        <ele>1739.16</ele>
        <time>2015-03-07T07:51:47Z</time>
      </trkpt>
      <trkpt lat="45.33187" lon="5.87105">
        <ele>1738.68</ele>
        <time>2015-03-07T07:52:03Z</time>
      </trkpt>
      <trkpt lat="45.33193" lon="5.87104">
        <ele>1740.6</ele>
        <time>2015-03-07T07:52:26Z</time>
      </trkpt>
      <trkpt lat="45.33194" lon="5.87107">
        <ele>1741.57</ele>
        <time>2015-03-07T07:52:45Z</time>
      </trkpt>
      <trkpt lat="45.33194" lon="5.87108">
        <ele>1742.05</ele>
        <time>2015-03-07T07:53:00Z</time>
      </trkpt>
      <trkpt lat="45.33199" lon="5.87105">
        <ele>1742.05</ele>
        <time>2015-03-07T07:53:15Z</time>
      </trkpt>
      <trkpt lat="45.33206" lon="5.87108">
        <ele>1742.05</ele>
        <time>2015-03-07T07:53:30Z</time>
      </trkpt>
      <trkpt lat="45.33211" lon="5.87114">
        <ele>1742.05</ele>
        <time>2015-03-07T07:53:39Z</time>
      </trkpt>
      <trkpt lat="45.33205" lon="5.87126">
        <ele>1741.08</ele>
        <time>2015-03-07T07:53:51Z</time>
      </trkpt>
      <trkpt lat="45.33206" lon="5.87127">
        <ele>1741.08</ele>
        <time>2015-03-07T07:53:56Z</time>
      </trkpt>
      <trkpt lat="45.33214" lon="5.87132">
        <ele>1739.64</ele>
        <time>2015-03-07T07:54:00Z</time>
      </trkpt>
      <trkpt lat="45.33218" lon="5.87137">
        <ele>1738.68</ele>
        <time>2015-03-07T07:54:03Z</time>
      </trkpt>
      <trkpt lat="45.33226" lon="5.87141">
        <ele>1737.72</ele>
        <time>2015-03-07T07:54:14Z</time>
      </trkpt>
      <trkpt lat="45.33234" lon="5.87147">
        <ele>1736.28</ele>
        <time>2015-03-07T07:54:28Z</time>
      </trkpt>
      <trkpt lat="45.33234" lon="5.87148">
        <ele>1736.28</ele>
        <time>2015-03-07T07:54:30Z</time>
      </trkpt>
      <trkpt lat="45.33238" lon="5.87163">
        <ele>1737.24</ele>
        <time>2015-03-07T07:54:43Z</time>
      </trkpt>
      <trkpt lat="45.33245" lon="5.87174">
        <ele>1738.68</ele>
        <time>2015-03-07T07:55:01Z</time>
      </trkpt>
      <trkpt lat="45.33246" lon="5.87175">
        <ele>1738.68</ele>
        <time>2015-03-07T07:55:03Z</time>
      </trkpt>
      <trkpt lat="45.33259" lon="5.87184">
        <ele>1736.76</ele>
        <time>2015-03-07T07:55:17Z</time>
      </trkpt>
      <trkpt lat="45.33279" lon="5.87194">
        <ele>1734.36</ele>
        <time>2015-03-07T07:55:34Z</time>
      </trkpt>
      <trkpt lat="45.33287" lon="5.87198">
        <ele>1732.43</ele>
        <time>2015-03-07T07:55:39Z</time>
      </trkpt>
      <trkpt lat="45.333" lon="5.87206">
        <ele>1733.39</ele>
        <time>2015-03-07T07:55:55Z</time>
      </trkpt>
      <trkpt lat="45.3331" lon="5.8721">
        <ele>1732.43</ele>
        <time>2015-03-07T07:56:01Z</time>
      </trkpt>
      <trkpt lat="45.33327" lon="5.87216">
        <ele>1729.07</ele>
        <time>2015-03-07T07:56:07Z</time>
      </trkpt>
      <trkpt lat="45.33346" lon="5.8722">
        <ele>1726.18</ele>
        <time>2015-03-07T07:56:17Z</time>
      </trkpt>
      <trkpt lat="45.33353" lon="5.87222">
        <ele>1725.22</ele>
        <time>2015-03-07T07:56:19Z</time>
      </trkpt>
      <trkpt lat="45.33368" lon="5.87223">
        <ele>1724.74</ele>
        <time>2015-03-07T07:56:30Z</time>
      </trkpt>
      <trkpt lat="45.33385" lon="5.87224">
        <ele>1726.18</ele>
        <time>2015-03-07T07:56:45Z</time>
      </trkpt>
      <trkpt lat="45.33391" lon="5.8723">
        <ele>1728.11</ele>
        <time>2015-03-07T07:56:59Z</time>
      </trkpt>
      <trkpt lat="45.33401" lon="5.87233">
        <ele>1730.03</ele>
        <time>2015-03-07T07:57:13Z</time>
      </trkpt>
      <trkpt lat="45.33408" lon="5.87235">
        <ele>1733.39</ele>
        <time>2015-03-07T07:57:27Z</time>
      </trkpt>
      <trkpt lat="45.33412" lon="5.8724">
        <ele>1735.32</ele>
        <time>2015-03-07T07:57:38Z</time>
      </trkpt>
      <trkpt lat="45.33412" lon="5.87255">
        <ele>1737.72</ele>
        <time>2015-03-07T07:57:56Z</time>
      </trkpt>
      <trkpt lat="45.33407" lon="5.87264">
        <ele>1740.12</ele>
        <time>2015-03-07T07:58:11Z</time>
      </trkpt>
      <trkpt lat="45.33403" lon="5.87264">
        <ele>1741.57</ele>
        <time>2015-03-07T07:58:26Z</time>
      </trkpt>
      <trkpt lat="45.33405" lon="5.87269">
        <ele>1743.49</ele>
        <time>2015-03-07T07:58:43Z</time>
      </trkpt>
      <trkpt lat="45.33404" lon="5.87277">
        <ele>1746.85</ele>
        <time>2015-03-07T07:58:56Z</time>
      </trkpt>
      <trkpt lat="45.33413" lon="5.87278">
        <ele>1749.26</ele>
        <time>2015-03-07T07:59:11Z</time>
      </trkpt>
      <trkpt lat="45.33411" lon="5.87283">
        <ele>1750.7</ele>
        <time>2015-03-07T07:59:24Z</time>
      </trkpt>
      <trkpt lat="45.33412" lon="5.87293">
        <ele>1753.1</ele>
        <time>2015-03-07T07:59:40Z</time>
      </trkpt>
      <trkpt lat="45.33415" lon="5.873">
        <ele>1755.02</ele>
        <time>2015-03-07T07:59:54Z</time>
      </trkpt>
      <trkpt lat="45.33417" lon="5.87306">
        <ele>1757.43</ele>
        <time>2015-03-07T08:00:09Z</time>
      </trkpt>
      <trkpt lat="45.33422" lon="5.87311">
        <ele>1760.31</ele>
        <time>2015-03-07T08:00:23Z</time>
      </trkpt>
      <trkpt lat="45.33433" lon="5.87318">
        <ele>1762.23</ele>
        <time>2015-03-07T08:00:40Z</time>
      </trkpt>
      <trkpt lat="45.33441" lon="5.87323">
        <ele>1764.64</ele>
        <time>2015-03-07T08:00:55Z</time>
      </trkpt>
      <trkpt lat="45.33443" lon="5.87323">
        <ele>1764.64</ele>
        <time>2015-03-07T08:00:57Z</time>
      </trkpt>
      <trkpt lat="45.3346" lon="5.87324">
        <ele>1761.27</ele>
        <time>2015-03-07T08:01:10Z</time>
      </trkpt>
      <trkpt lat="45.33472" lon="5.87328">
        <ele>1760.79</ele>
        <time>2015-03-07T08:01:23Z</time>
      </trkpt>
      <trkpt lat="45.33479" lon="5.87333">
        <ele>1762.23</ele>
        <time>2015-03-07T08:01:34Z</time>
      </trkpt>
      <trkpt lat="45.33492" lon="5.87341">
        <ele>1764.64</ele>
        <time>2015-03-07T08:01:51Z</time>
      </trkpt>
      <trkpt lat="45.33502" lon="5.8735">
        <ele>1766.56</ele>
        <time>2015-03-07T08:02:06Z</time>
      </trkpt>
      <trkpt lat="45.33516" lon="5.87363">
        <ele>1766.56</ele>
        <time>2015-03-07T08:02:24Z</time>
      </trkpt>
      <trkpt lat="45.33526" lon="5.87378">
        <ele>1767.52</ele>
        <time>2015-03-07T08:02:41Z</time>
      </trkpt>
      <trkpt lat="45.33534" lon="5.87386">
        <ele>1768.48</ele>
        <time>2015-03-07T08:02:54Z</time>
      </trkpt>
      <trkpt lat="45.33526" lon="5.87391">
        <ele>1770.41</ele>
        <time>2015-03-07T08:03:10Z</time>
      </trkpt>
      <trkpt lat="45.33528" lon="5.87391">
        <ele>1771.37</ele>
        <time>2015-03-07T08:03:25Z</time>
      </trkpt>
      <trkpt lat="45.33531" lon="5.87396">
        <ele>1771.85</ele>
        <time>2015-03-07T08:03:37Z</time>
      </trkpt>
      <trkpt lat="45.33529" lon="5.87403">
        <ele>1773.29</ele>
        <time>2015-03-07T08:03:52Z</time>
      </trkpt>
      <trkpt lat="45.33539" lon="5.87406">
        <ele>1775.69</ele>
        <time>2015-03-07T08:04:06Z</time>
      </trkpt>
      <trkpt lat="45.33548" lon="5.87401">
        <ele>1777.61</ele>
        <time>2015-03-07T08:04:23Z</time>
      </trkpt>
      <trkpt lat="45.33549" lon="5.87403">
        <ele>1779.54</ele>
        <time>2015-03-07T08:04:38Z</time>
      </trkpt>
      <trkpt lat="45.33554" lon="5.874">
        <ele>1780.02</ele>
        <time>2015-03-07T08:04:44Z</time>
      </trkpt>
      <trkpt lat="45.33568" lon="5.87408">
        <ele>1780.02</ele>
        <time>2015-03-07T08:04:59Z</time>
      </trkpt>
      <trkpt lat="45.3358" lon="5.87415">
        <ele>1780.5</ele>
        <time>2015-03-07T08:05:14Z</time>
      </trkpt>
      <trkpt lat="45.33592" lon="5.87426">
        <ele>1781.46</ele>
        <time>2015-03-07T08:05:31Z</time>
      </trkpt>
      <trkpt lat="45.33598" lon="5.87436">
        <ele>1783.38</ele>
        <time>2015-03-07T08:05:48Z</time>
      </trkpt>
      <trkpt lat="45.33607" lon="5.87443">
        <ele>1784.82</ele>
        <time>2015-03-07T08:06:02Z</time>
      </trkpt>
      <trkpt lat="45.33615" lon="5.87447">
        <ele>1785.31</ele>
        <time>2015-03-07T08:06:11Z</time>
      </trkpt>
      <trkpt lat="45.3362" lon="5.87449">
        <ele>1785.31</ele>
        <time>2015-03-07T08:06:17Z</time>
      </trkpt>
      <trkpt lat="45.33635" lon="5.87456">
        <ele>1786.75</ele>
        <time>2015-03-07T08:06:33Z</time>
      </trkpt>
      <trkpt lat="45.33653" lon="5.87463">
        <ele>1788.19</ele>
        <time>2015-03-07T08:06:54Z</time>
      </trkpt>
      <trkpt lat="45.33667" lon="5.87464">
        <ele>1790.11</ele>
        <time>2015-03-07T08:07:11Z</time>
      </trkpt>
      <trkpt lat="45.33679" lon="5.87471">
        <ele>1793</ele>
        <time>2015-03-07T08:07:30Z</time>
      </trkpt>
      <trkpt lat="45.33691" lon="5.87477">
        <ele>1794.92</ele>
        <time>2015-03-07T08:07:47Z</time>
      </trkpt>
      <trkpt lat="45.33699" lon="5.87482">
        <ele>1795.4</ele>
        <time>2015-03-07T08:08:01Z</time>
      </trkpt>
      <trkpt lat="45.33706" lon="5.87486">
        <ele>1795.88</ele>
        <time>2015-03-07T08:08:15Z</time>
      </trkpt>
      <trkpt lat="45.33717" lon="5.87492">
        <ele>1795.88</ele>
        <time>2015-03-07T08:08:32Z</time>
      </trkpt>
      <trkpt lat="45.33732" lon="5.87499">
        <ele>1796.84</ele>
        <time>2015-03-07T08:08:49Z</time>
      </trkpt>
      <trkpt lat="45.33745" lon="5.87508">
        <ele>1799.24</ele>
        <time>2015-03-07T08:09:07Z</time>
      </trkpt>
      <trkpt lat="45.33752" lon="5.87516">
        <ele>1801.65</ele>
        <time>2015-03-07T08:09:22Z</time>
      </trkpt>
      <trkpt lat="45.33761" lon="5.87524">
        <ele>1802.61</ele>
        <time>2015-03-07T08:09:37Z</time>
      </trkpt>
      <trkpt lat="45.33772" lon="5.87533">
        <ele>1804.53</ele>
        <time>2015-03-07T08:09:52Z</time>
      </trkpt>
      <trkpt lat="45.33782" lon="5.87539">
        <ele>1806.45</ele>
        <time>2015-03-07T08:10:08Z</time>
      </trkpt>
      <trkpt lat="45.33794" lon="5.87551">
        <ele>1807.42</ele>
        <time>2015-03-07T08:10:24Z</time>
      </trkpt>
      <trkpt lat="45.33804" lon="5.8756">
        <ele>1808.86</ele>
        <time>2015-03-07T08:10:39Z</time>
      </trkpt>
      <trkpt lat="45.33814" lon="5.87567">
        <ele>1810.3</ele>
        <time>2015-03-07T08:10:54Z</time>
      </trkpt>
      <trkpt lat="45.33822" lon="5.87576">
        <ele>1810.78</ele>
        <time>2015-03-07T08:11:07Z</time>
      </trkpt>
      <trkpt lat="45.33833" lon="5.87583">
        <ele>1812.22</ele>
        <time>2015-03-07T08:11:23Z</time>
      </trkpt>
      <trkpt lat="45.33842" lon="5.87588">
        <ele>1812.7</ele>
        <time>2015-03-07T08:11:37Z</time>
      </trkpt>
      <trkpt lat="45.33849" lon="5.87596">
        <ele>1812.7</ele>
        <time>2015-03-07T08:11:52Z</time>
      </trkpt>
      <trkpt lat="45.33855" lon="5.87604">
        <ele>1812.7</ele>
        <time>2015-03-07T08:12:01Z</time>
      </trkpt>
      <trkpt lat="45.33856" lon="5.87606">
        <ele>1811.74</ele>
        <time>2015-03-07T08:12:03Z</time>
      </trkpt>
      <trkpt lat="45.33867" lon="5.87619">
        <ele>1807.9</ele>
        <time>2015-03-07T08:12:09Z</time>
      </trkpt>
      <trkpt lat="45.3387" lon="5.87621">
        <ele>1807.9</ele>
        <time>2015-03-07T08:12:10Z</time>
      </trkpt>
      <trkpt lat="45.33884" lon="5.87636">
        <ele>1805.49</ele>
        <time>2015-03-07T08:12:21Z</time>
      </trkpt>
      <trkpt lat="45.33894" lon="5.87652">
        <ele>1803.57</ele>
        <time>2015-03-07T08:12:33Z</time>
      </trkpt>
      <trkpt lat="45.33905" lon="5.87661">
        <ele>1803.57</ele>
        <time>2015-03-07T08:12:45Z</time>
      </trkpt>
      <trkpt lat="45.33909" lon="5.87663">
        <ele>1803.09</ele>
        <time>2015-03-07T08:12:49Z</time>
      </trkpt>
      <trkpt lat="45.33928" lon="5.87671">
        <ele>1802.13</ele>
        <time>2015-03-07T08:13:07Z</time>
      </trkpt>
      <trkpt lat="45.33944" lon="5.8767">
        <ele>1801.17</ele>
        <time>2015-03-07T08:13:22Z</time>
      </trkpt>
      <trkpt lat="45.33948" lon="5.87673">
        <ele>1800.69</ele>
        <time>2015-03-07T08:13:40Z</time>
      </trkpt>
      <trkpt lat="45.33952" lon="5.87676">
        <ele>1800.69</ele>
        <time>2015-03-07T08:14:03Z</time>
      </trkpt>
      <trkpt lat="45.33952" lon="5.87678">
        <ele>1800.69</ele>
        <time>2015-03-07T08:14:24Z</time>
      </trkpt>
      <trkpt lat="45.33952" lon="5.87677">
        <ele>1801.65</ele>
        <time>2015-03-07T08:14:27Z</time>
      </trkpt>
      <trkpt lat="45.33952" lon="5.87677">
        <ele>1800.69</ele>
        <time>2015-03-07T08:14:29Z</time>
      </trkpt>
      <trkpt lat="45.33955" lon="5.87683">
        <ele>1800.69</ele>
        <time>2015-03-07T08:14:45Z</time>
      </trkpt>
      <trkpt lat="45.33958" lon="5.87683">
        <ele>1802.13</ele>
        <time>2015-03-07T08:15:01Z</time>
      </trkpt>
      <trkpt lat="45.33963" lon="5.87688">
        <ele>1805.49</ele>
        <time>2015-03-07T08:15:17Z</time>
      </trkpt>
      <trkpt lat="45.33963" lon="5.87691">
        <ele>1806.45</ele>
        <time>2015-03-07T08:15:35Z</time>
      </trkpt>
      <trkpt lat="45.33964" lon="5.87697">
        <ele>1808.38</ele>
        <time>2015-03-07T08:15:58Z</time>
      </trkpt>
      <trkpt lat="45.33967" lon="5.877">
        <ele>1809.82</ele>
        <time>2015-03-07T08:16:12Z</time>
      </trkpt>
      <trkpt lat="45.33969" lon="5.87705">
        <ele>1812.22</ele>
        <time>2015-03-07T08:16:26Z</time>
      </trkpt>
      <trkpt lat="45.33968" lon="5.8771">
        <ele>1815.59</ele>
        <time>2015-03-07T08:16:42Z</time>
      </trkpt>
      <trkpt lat="45.33965" lon="5.87716">
        <ele>1817.51</ele>
        <time>2015-03-07T08:17:00Z</time>
      </trkpt>
      <trkpt lat="45.3397" lon="5.87715">
        <ele>1819.43</ele>
        <time>2015-03-07T08:17:17Z</time>
      </trkpt>
      <trkpt lat="45.33976" lon="5.87713">
        <ele>1821.84</ele>
        <time>2015-03-07T08:17:34Z</time>
      </trkpt>
      <trkpt lat="45.33982" lon="5.87715">
        <ele>1823.76</ele>
        <time>2015-03-07T08:17:52Z</time>
      </trkpt>
      <trkpt lat="45.33986" lon="5.8772">
        <ele>1825.68</ele>
        <time>2015-03-07T08:18:10Z</time>
      </trkpt>
      <trkpt lat="45.3399" lon="5.87723">
        <ele>1829.05</ele>
        <time>2015-03-07T08:18:26Z</time>
      </trkpt>
      <trkpt lat="45.33995" lon="5.87724">
        <ele>1831.93</ele>
        <time>2015-03-07T08:18:42Z</time>
      </trkpt>
      <trkpt lat="45.33994" lon="5.87724">
        <ele>1832.89</ele>
        <time>2015-03-07T08:18:59Z</time>
      </trkpt>
      <trkpt lat="45.33997" lon="5.87729">
        <ele>1834.81</ele>
        <time>2015-03-07T08:19:13Z</time>
      </trkpt>
      <trkpt lat="45.34001" lon="5.87734">
        <ele>1836.26</ele>
        <time>2015-03-07T08:19:29Z</time>
      </trkpt>
      <trkpt lat="45.34009" lon="5.87739">
        <ele>1838.66</ele>
        <time>2015-03-07T08:19:46Z</time>
      </trkpt>
      <trkpt lat="45.34019" lon="5.87744">
        <ele>1840.58</ele>
        <time>2015-03-07T08:20:06Z</time>
      </trkpt>
      <trkpt lat="45.34022" lon="5.87742">
        <ele>1841.06</ele>
        <time>2015-03-07T08:20:25Z</time>
      </trkpt>
      <trkpt lat="45.34024" lon="5.87739">
        <ele>1839.62</ele>
        <time>2015-03-07T08:20:43Z</time>
      </trkpt>
      <trkpt lat="45.34025" lon="5.87738">
        <ele>1842.98</ele>
        <time>2015-03-07T08:20:54Z</time>
      </trkpt>
      <trkpt lat="45.34027" lon="5.87745">
        <ele>1842.02</ele>
        <time>2015-03-07T08:21:13Z</time>
      </trkpt>
      <trkpt lat="45.34036" lon="5.87747">
        <ele>1842.02</ele>
        <time>2015-03-07T08:21:29Z</time>
      </trkpt>
      <trkpt lat="45.34044" lon="5.8775">
        <ele>1843.47</ele>
        <time>2015-03-07T08:21:49Z</time>
      </trkpt>
      <trkpt lat="45.3406" lon="5.87757">
        <ele>1843.47</ele>
        <time>2015-03-07T08:22:07Z</time>
      </trkpt>
      <trkpt lat="45.34069" lon="5.87758">
        <ele>1842.5</ele>
        <time>2015-03-07T08:22:21Z</time>
      </trkpt>
      <trkpt lat="45.3407" lon="5.87758">
        <ele>1842.5</ele>
        <time>2015-03-07T08:22:26Z</time>
      </trkpt>
      <trkpt lat="45.34069" lon="5.87754">
        <ele>1842.98</ele>
        <time>2015-03-07T08:22:28Z</time>
      </trkpt>
      <trkpt lat="45.34069" lon="5.87752">
        <ele>1846.35</ele>
        <time>2015-03-07T08:22:29Z</time>
      </trkpt>
      <trkpt lat="45.3407" lon="5.87754">
        <ele>1842.5</ele>
        <time>2015-03-07T08:22:30Z</time>
      </trkpt>
      <trkpt lat="45.3407" lon="5.87757">
        <ele>1842.5</ele>
        <time>2015-03-07T08:22:51Z</time>
      </trkpt>
      <trkpt lat="45.34074" lon="5.87763">
        <ele>1845.87</ele>
        <time>2015-03-07T08:23:05Z</time>
      </trkpt>
      <trkpt lat="45.34077" lon="5.87769">
        <ele>1848.27</ele>
        <time>2015-03-07T08:23:22Z</time>
      </trkpt>
      <trkpt lat="45.3408" lon="5.8777">
        <ele>1851.16</ele>
        <time>2015-03-07T08:23:39Z</time>
      </trkpt>
      <trkpt lat="45.34086" lon="5.87772">
        <ele>1854.04</ele>
        <time>2015-03-07T08:23:59Z</time>
      </trkpt>
      <trkpt lat="45.3409" lon="5.87774">
        <ele>1856.92</ele>
        <time>2015-03-07T08:24:17Z</time>
      </trkpt>
      <trkpt lat="45.34095" lon="5.87776">
        <ele>1859.33</ele>
        <time>2015-03-07T08:24:36Z</time>
      </trkpt>
      <trkpt lat="45.34101" lon="5.87778">
        <ele>1863.17</ele>
        <time>2015-03-07T08:24:53Z</time>
      </trkpt>
      <trkpt lat="45.34104" lon="5.87782">
        <ele>1864.61</ele>
        <time>2015-03-07T08:25:09Z</time>
      </trkpt>
      <trkpt lat="45.34106" lon="5.87785">
        <ele>1867.5</ele>
        <time>2015-03-07T08:25:24Z</time>
      </trkpt>
      <trkpt lat="45.34111" lon="5.87787">
        <ele>1869.9</ele>
        <time>2015-03-07T08:25:42Z</time>
      </trkpt>
      <trkpt lat="45.34117" lon="5.87788">
        <ele>1872.79</ele>
        <time>2015-03-07T08:26:00Z</time>
      </trkpt>
      <trkpt lat="45.34121" lon="5.8779">
        <ele>1874.71</ele>
        <time>2015-03-07T08:26:15Z</time>
      </trkpt>
      <trkpt lat="45.34125" lon="5.87791">
        <ele>1877.59</ele>
        <time>2015-03-07T08:26:31Z</time>
      </trkpt>
      <trkpt lat="45.34132" lon="5.87792">
        <ele>1880</ele>
        <time>2015-03-07T08:26:46Z</time>
      </trkpt>
      <trkpt lat="45.34138" lon="5.87791">
        <ele>1883.36</ele>
        <time>2015-03-07T08:27:03Z</time>
      </trkpt>
      <trkpt lat="45.34149" lon="5.8779">
        <ele>1886.72</ele>
        <time>2015-03-07T08:27:25Z</time>
      </trkpt>
      <trkpt lat="45.3416" lon="5.87787">
        <ele>1889.13</ele>
        <time>2015-03-07T08:27:43Z</time>
      </trkpt>
      <trkpt lat="45.34174" lon="5.87781">
        <ele>1891.53</ele>
        <time>2015-03-07T08:28:01Z</time>
      </trkpt>
      <trkpt lat="45.34185" lon="5.87777">
        <ele>1892.97</ele>
        <time>2015-03-07T08:28:19Z</time>
      </trkpt>
      <trkpt lat="45.34193" lon="5.87773">
        <ele>1893.93</ele>
        <time>2015-03-07T08:28:36Z</time>
      </trkpt>
      <trkpt lat="45.34192" lon="5.87772">
        <ele>1900.18</ele>
        <time>2015-03-07T08:28:53Z</time>
      </trkpt>
      <trkpt lat="45.34193" lon="5.87772">
        <ele>1894.42</ele>
        <time>2015-03-07T08:28:54Z</time>
      </trkpt>
      <trkpt lat="45.34193" lon="5.87772">
        <ele>1893.93</ele>
        <time>2015-03-07T08:28:56Z</time>
      </trkpt>
      <trkpt lat="45.34193" lon="5.87772">
        <ele>1894.9</ele>
        <time>2015-03-07T08:28:58Z</time>
      </trkpt>
      <trkpt lat="45.34196" lon="5.87764">
        <ele>1892.97</ele>
        <time>2015-03-07T08:29:08Z</time>
      </trkpt>
      <trkpt lat="45.34196" lon="5.87763">
        <ele>1896.34</ele>
        <time>2015-03-07T08:29:09Z</time>
      </trkpt>
      <trkpt lat="45.34197" lon="5.87761">
        <ele>1893.93</ele>
        <time>2015-03-07T08:29:10Z</time>
      </trkpt>
      <trkpt lat="45.34199" lon="5.87757">
        <ele>1895.38</ele>
        <time>2015-03-07T08:29:13Z</time>
      </trkpt>
      <trkpt lat="45.342" lon="5.87756">
        <ele>1893.93</ele>
        <time>2015-03-07T08:29:15Z</time>
      </trkpt>
      <trkpt lat="45.34202" lon="5.87753">
        <ele>1896.82</ele>
        <time>2015-03-07T08:29:19Z</time>
      </trkpt>
      <trkpt lat="45.34202" lon="5.87765">
        <ele>1894.9</ele>
        <time>2015-03-07T08:29:32Z</time>
      </trkpt>
      <trkpt lat="45.34211" lon="5.87752">
        <ele>1895.86</ele>
        <time>2015-03-07T08:29:49Z</time>
      </trkpt>
      <trkpt lat="45.34218" lon="5.87743">
        <ele>1897.78</ele>
        <time>2015-03-07T08:30:03Z</time>
      </trkpt>
      <trkpt lat="45.34222" lon="5.87737">
        <ele>1897.78</ele>
        <time>2015-03-07T08:30:16Z</time>
      </trkpt>
      <trkpt lat="45.34225" lon="5.87734">
        <ele>1898.26</ele>
        <time>2015-03-07T08:30:32Z</time>
      </trkpt>
      <trkpt lat="45.3423" lon="5.87728">
        <ele>1899.22</ele>
        <time>2015-03-07T08:30:48Z</time>
      </trkpt>
      <trkpt lat="45.34234" lon="5.8772">
        <ele>1899.7</ele>
        <time>2015-03-07T08:30:57Z</time>
      </trkpt>
      <trkpt lat="45.3424" lon="5.87708">
        <ele>1900.18</ele>
        <time>2015-03-07T08:31:12Z</time>
      </trkpt>
      <trkpt lat="45.34247" lon="5.87696">
        <ele>1900.18</ele>
        <time>2015-03-07T08:31:26Z</time>
      </trkpt>
      <trkpt lat="45.34252" lon="5.87685">
        <ele>1898.74</ele>
        <time>2015-03-07T08:31:42Z</time>
      </trkpt>
      <trkpt lat="45.34261" lon="5.87672">
        <ele>1897.78</ele>
        <time>2015-03-07T08:31:54Z</time>
      </trkpt>
      <trkpt lat="45.34274" lon="5.87659">
        <ele>1897.78</ele>
        <time>2015-03-07T08:32:11Z</time>
      </trkpt>
      <trkpt lat="45.34277" lon="5.87664">
        <ele>1898.74</ele>
        <time>2015-03-07T08:32:29Z</time>
      </trkpt>
      <trkpt lat="45.34276" lon="5.87662">
        <ele>1898.74</ele>
        <time>2015-03-07T08:32:49Z</time>
      </trkpt>
      <trkpt lat="45.34271" lon="5.87662">
        <ele>1898.74</ele>
        <time>2015-03-07T08:33:13Z</time>
      </trkpt>
      <trkpt lat="45.34271" lon="5.87662">
        <ele>1899.22</ele>
        <time>2015-03-07T08:33:46Z</time>
      </trkpt>
      <trkpt lat="45.34272" lon="5.87663">
        <ele>1899.22</ele>
        <time>2015-03-07T08:34:18Z</time>
      </trkpt>
      <trkpt lat="45.34272" lon="5.87664">
        <ele>1899.22</ele>
        <time>2015-03-07T08:34:39Z</time>
      </trkpt>
      <trkpt lat="45.34272" lon="5.87664">
        <ele>1900.18</ele>
        <time>2015-03-07T08:34:56Z</time>
      </trkpt>
      <trkpt lat="45.34272" lon="5.87664">
        <ele>1899.22</ele>
        <time>2015-03-07T08:34:59Z</time>
      </trkpt>
      <trkpt lat="45.34274" lon="5.87662">
        <ele>1899.22</ele>
        <time>2015-03-07T08:35:21Z</time>
      </trkpt>
      <trkpt lat="45.34272" lon="5.8766">
        <ele>1899.22</ele>
        <time>2015-03-07T08:35:45Z</time>
      </trkpt>
      <trkpt lat="45.34272" lon="5.87661">
        <ele>1899.22</ele>
        <time>2015-03-07T08:36:08Z</time>
      </trkpt>
      <trkpt lat="45.34271" lon="5.87658">
        <ele>1901.14</ele>
        <time>2015-03-07T08:36:23Z</time>
      </trkpt>
      <trkpt lat="45.34272" lon="5.8766">
        <ele>1897.78</ele>
        <time>2015-03-07T08:36:40Z</time>
      </trkpt>
      <trkpt lat="45.34271" lon="5.8766">
        <ele>1901.14</ele>
        <time>2015-03-07T08:37:01Z</time>
      </trkpt>
      <trkpt lat="45.34271" lon="5.87658">
        <ele>1900.18</ele>
        <time>2015-03-07T08:37:23Z</time>
      </trkpt>
      <trkpt lat="45.34273" lon="5.87658">
        <ele>1900.66</ele>
        <time>2015-03-07T08:37:37Z</time>
      </trkpt>
      <trkpt lat="45.34274" lon="5.8766">
        <ele>1901.14</ele>
        <time>2015-03-07T08:37:58Z</time>
      </trkpt>
      <trkpt lat="45.34274" lon="5.87659">
        <ele>1901.14</ele>
        <time>2015-03-07T08:38:19Z</time>
      </trkpt>
      <trkpt lat="45.34276" lon="5.87657">
        <ele>1901.14</ele>
        <time>2015-03-07T08:38:41Z</time>
      </trkpt>
      <trkpt lat="45.3428" lon="5.87652">
        <ele>1901.14</ele>
        <time>2015-03-07T08:38:54Z</time>
      </trkpt>
      <trkpt lat="45.3429" lon="5.87644">
        <ele>1903.55</ele>
        <time>2015-03-07T08:39:11Z</time>
      </trkpt>
      <trkpt lat="45.34297" lon="5.87634">
        <ele>1904.51</ele>
        <time>2015-03-07T08:39:25Z</time>
      </trkpt>
      <trkpt lat="45.34301" lon="5.87627">
        <ele>1904.51</ele>
        <time>2015-03-07T08:39:33Z</time>
      </trkpt>
      <trkpt lat="45.34309" lon="5.87615">
        <ele>1904.51</ele>
        <time>2015-03-07T08:39:48Z</time>
      </trkpt>
      <trkpt lat="45.34314" lon="5.87607">
        <ele>1903.55</ele>
        <time>2015-03-07T08:39:56Z</time>
      </trkpt>
      <trkpt lat="45.34321" lon="5.87596">
        <ele>1899.7</ele>
        <time>2015-03-07T08:40:07Z</time>
      </trkpt>
      <trkpt lat="45.34321" lon="5.87593">
        <ele>1906.43</ele>
        <time>2015-03-07T08:40:10Z</time>
      </trkpt>
      <trkpt lat="45.34322" lon="5.87592">
        <ele>1902.59</ele>
        <time>2015-03-07T08:40:11Z</time>
      </trkpt>
      <trkpt lat="45.34323" lon="5.87589">
        <ele>1902.11</ele>
        <time>2015-03-07T08:40:13Z</time>
      </trkpt>
      <trkpt lat="45.34334" lon="5.87576">
        <ele>1902.11</ele>
        <time>2015-03-07T08:40:27Z</time>
      </trkpt>
      <trkpt lat="45.34346" lon="5.87564">
        <ele>1901.63</ele>
        <time>2015-03-07T08:40:42Z</time>
      </trkpt>
      <trkpt lat="45.34354" lon="5.87554">
        <ele>1903.07</ele>
        <time>2015-03-07T08:40:57Z</time>
      </trkpt>
      <trkpt lat="45.34361" lon="5.87546">
        <ele>1905.47</ele>
        <time>2015-03-07T08:41:10Z</time>
      </trkpt>
      <trkpt lat="45.34368" lon="5.8754">
        <ele>1907.87</ele>
        <time>2015-03-07T08:41:26Z</time>
      </trkpt>
      <trkpt lat="45.34375" lon="5.87535">
        <ele>1910.76</ele>
        <time>2015-03-07T08:41:41Z</time>
      </trkpt>
      <trkpt lat="45.34382" lon="5.87526">
        <ele>1913.16</ele>
        <time>2015-03-07T08:41:56Z</time>
      </trkpt>
      <trkpt lat="45.3439" lon="5.87511">
        <ele>1914.12</ele>
        <time>2015-03-07T08:42:12Z</time>
      </trkpt>
      <trkpt lat="45.34398" lon="5.87499">
        <ele>1914.6</ele>
        <time>2015-03-07T08:42:26Z</time>
      </trkpt>
      <trkpt lat="45.34403" lon="5.87487">
        <ele>1915.56</ele>
        <time>2015-03-07T08:42:38Z</time>
      </trkpt>
      <trkpt lat="45.34408" lon="5.87481">
        <ele>1917.49</ele>
        <time>2015-03-07T08:42:57Z</time>
      </trkpt>
      <trkpt lat="45.34412" lon="5.87476">
        <ele>1919.89</ele>
        <time>2015-03-07T08:43:16Z</time>
      </trkpt>
      <trkpt lat="45.34415" lon="5.87475">
        <ele>1922.77</ele>
        <time>2015-03-07T08:43:33Z</time>
      </trkpt>
      <trkpt lat="45.34414" lon="5.87467">
        <ele>1924.22</ele>
        <time>2015-03-07T08:43:48Z</time>
      </trkpt>
      <trkpt lat="45.34415" lon="5.87459">
        <ele>1928.06</ele>
        <time>2015-03-07T08:44:05Z</time>
      </trkpt>
      <trkpt lat="45.34417" lon="5.87454">
        <ele>1930.95</ele>
        <time>2015-03-07T08:44:20Z</time>
      </trkpt>
      <trkpt lat="45.3442" lon="5.87452">
        <ele>1932.87</ele>
        <time>2015-03-07T08:44:28Z</time>
      </trkpt>
      <trkpt lat="45.34423" lon="5.8745">
        <ele>1936.23</ele>
        <time>2015-03-07T08:44:45Z</time>
      </trkpt>
      <trkpt lat="45.34428" lon="5.87449">
        <ele>1939.6</ele>
        <time>2015-03-07T08:44:58Z</time>
      </trkpt>
      <trkpt lat="45.34431" lon="5.87446">
        <ele>1942.96</ele>
        <time>2015-03-07T08:45:19Z</time>
      </trkpt>
      <trkpt lat="45.34433" lon="5.87443">
        <ele>1945.36</ele>
        <time>2015-03-07T08:45:37Z</time>
      </trkpt>
      <trkpt lat="45.34434" lon="5.87439">
        <ele>1948.25</ele>
        <time>2015-03-07T08:45:51Z</time>
      </trkpt>
      <trkpt lat="45.34435" lon="5.87435">
        <ele>1951.61</ele>
        <time>2015-03-07T08:46:07Z</time>
      </trkpt>
      <trkpt lat="45.34436" lon="5.87432">
        <ele>1954.98</ele>
        <time>2015-03-07T08:46:24Z</time>
      </trkpt>
      <trkpt lat="45.34439" lon="5.87427">
        <ele>1958.34</ele>
        <time>2015-03-07T08:46:40Z</time>
      </trkpt>
      <trkpt lat="45.34442" lon="5.87428">
        <ele>1959.78</ele>
        <time>2015-03-07T08:46:55Z</time>
      </trkpt>
      <trkpt lat="45.34444" lon="5.87425">
        <ele>1962.67</ele>
        <time>2015-03-07T08:47:15Z</time>
      </trkpt>
      <trkpt lat="45.34445" lon="5.8742">
        <ele>1964.59</ele>
        <time>2015-03-07T08:47:28Z</time>
      </trkpt>
      <trkpt lat="45.34445" lon="5.87418">
        <ele>1965.55</ele>
        <time>2015-03-07T08:47:31Z</time>
      </trkpt>
      <trkpt lat="45.34447" lon="5.87416">
        <ele>1968.44</ele>
        <time>2015-03-07T08:47:47Z</time>
      </trkpt>
      <trkpt lat="45.3445" lon="5.87415">
        <ele>1970.84</ele>
        <time>2015-03-07T08:48:04Z</time>
      </trkpt>
      <trkpt lat="45.34453" lon="5.87413">
        <ele>1973.72</ele>
        <time>2015-03-07T08:48:19Z</time>
      </trkpt>
      <trkpt lat="45.34456" lon="5.87413">
        <ele>1977.09</ele>
        <time>2015-03-07T08:48:34Z</time>
      </trkpt>
      <trkpt lat="45.34457" lon="5.87409">
        <ele>1979.01</ele>
        <time>2015-03-07T08:48:51Z</time>
      </trkpt>
      <trkpt lat="45.34457" lon="5.87407">
        <ele>1982.38</ele>
        <time>2015-03-07T08:49:08Z</time>
      </trkpt>
      <trkpt lat="45.34458" lon="5.87406">
        <ele>1985.74</ele>
        <time>2015-03-07T08:49:23Z</time>
      </trkpt>
      <trkpt lat="45.3446" lon="5.87405">
        <ele>1988.14</ele>
        <time>2015-03-07T08:49:38Z</time>
      </trkpt>
      <trkpt lat="45.3446" lon="5.87399">
        <ele>1989.1</ele>
        <time>2015-03-07T08:49:54Z</time>
      </trkpt>
      <trkpt lat="45.3446" lon="5.87402">
        <ele>1989.59</ele>
        <time>2015-03-07T08:50:13Z</time>
      </trkpt>
      <trkpt lat="45.34465" lon="5.87402">
        <ele>1993.43</ele>
        <time>2015-03-07T08:50:29Z</time>
      </trkpt>
      <trkpt lat="45.34469" lon="5.874">
        <ele>1996.8</ele>
        <time>2015-03-07T08:50:41Z</time>
      </trkpt>
      <trkpt lat="45.34469" lon="5.874">
        <ele>1996.8</ele>
        <time>2015-03-07T08:50:42Z</time>
      </trkpt>
      <trkpt lat="45.34475" lon="5.87401">
        <ele>2000.16</ele>
        <time>2015-03-07T08:51:00Z</time>
      </trkpt>
      <trkpt lat="45.34477" lon="5.874">
        <ele>2001.6</ele>
        <time>2015-03-07T08:51:06Z</time>
      </trkpt>
      <trkpt lat="45.34481" lon="5.87399">
        <ele>2004.97</ele>
        <time>2015-03-07T08:51:15Z</time>
      </trkpt>
      <trkpt lat="45.34483" lon="5.87398">
        <ele>2004.49</ele>
        <time>2015-03-07T08:51:21Z</time>
      </trkpt>
      <trkpt lat="45.3449" lon="5.87396">
        <ele>2007.85</ele>
        <time>2015-03-07T08:51:39Z</time>
      </trkpt>
      <trkpt lat="45.34492" lon="5.87395">
        <ele>2004.49</ele>
        <time>2015-03-07T08:51:42Z</time>
      </trkpt>
      <trkpt lat="45.34493" lon="5.87394">
        <ele>2007.85</ele>
        <time>2015-03-07T08:51:44Z</time>
      </trkpt>
      <trkpt lat="45.34493" lon="5.87394">
        <ele>2007.85</ele>
        <time>2015-03-07T08:51:45Z</time>
      </trkpt>
      <trkpt lat="45.34501" lon="5.87388">
        <ele>2007.85</ele>
        <time>2015-03-07T08:52:01Z</time>
      </trkpt>
      <trkpt lat="45.34502" lon="5.87388">
        <ele>2006.41</ele>
        <time>2015-03-07T08:52:03Z</time>
      </trkpt>
      <trkpt lat="45.34503" lon="5.8739">
        <ele>2004.97</ele>
        <time>2015-03-07T08:52:05Z</time>
      </trkpt>
      <trkpt lat="45.34506" lon="5.87391">
        <ele>2006.89</ele>
        <time>2015-03-07T08:52:12Z</time>
      </trkpt>
      <trkpt lat="45.34516" lon="5.87391">
        <ele>2009.77</ele>
        <time>2015-03-07T08:52:29Z</time>
      </trkpt>
      <trkpt lat="45.3452" lon="5.87391">
        <ele>2011.22</ele>
        <time>2015-03-07T08:52:39Z</time>
      </trkpt>
      <trkpt lat="45.34528" lon="5.87394">
        <ele>2014.1</ele>
        <time>2015-03-07T08:52:57Z</time>
      </trkpt>
      <trkpt lat="45.34536" lon="5.87395">
        <ele>2016.98</ele>
        <time>2015-03-07T08:53:11Z</time>
      </trkpt>
      <trkpt lat="45.34537" lon="5.87392">
        <ele>2018.43</ele>
        <time>2015-03-07T08:53:29Z</time>
      </trkpt>
      <trkpt lat="45.34537" lon="5.87391">
        <ele>2018.91</ele>
        <time>2015-03-07T08:53:44Z</time>
      </trkpt>
      <trkpt lat="45.34537" lon="5.87391">
        <ele>2016.02</ele>
        <time>2015-03-07T08:53:49Z</time>
      </trkpt>
      <trkpt lat="45.34538" lon="5.87391">
        <ele>2016.02</ele>
        <time>2015-03-07T08:53:50Z</time>
      </trkpt>
      <trkpt lat="45.3454" lon="5.87389">
        <ele>2017.46</ele>
        <time>2015-03-07T08:53:55Z</time>
      </trkpt>
      <trkpt lat="45.34541" lon="5.87386">
        <ele>2016.5</ele>
        <time>2015-03-07T08:53:58Z</time>
      </trkpt>
      <trkpt lat="45.34543" lon="5.87383">
        <ele>2015.54</ele>
        <time>2015-03-07T08:54:03Z</time>
      </trkpt>
      <trkpt lat="45.34544" lon="5.87377">
        <ele>2015.06</ele>
        <time>2015-03-07T08:54:08Z</time>
      </trkpt>
      <trkpt lat="45.34546" lon="5.87373">
        <ele>2015.06</ele>
        <time>2015-03-07T08:54:12Z</time>
      </trkpt>
      <trkpt lat="45.3455" lon="5.87371">
        <ele>2013.14</ele>
        <time>2015-03-07T08:54:18Z</time>
      </trkpt>
      <trkpt lat="45.34552" lon="5.87371">
        <ele>2011.22</ele>
        <time>2015-03-07T08:54:20Z</time>
      </trkpt>
      <trkpt lat="45.34558" lon="5.87374">
        <ele>2007.85</ele>
        <time>2015-03-07T08:54:29Z</time>
      </trkpt>
      <trkpt lat="45.3456" lon="5.87376">
        <ele>2010.73</ele>
        <time>2015-03-07T08:54:33Z</time>
      </trkpt>
      <trkpt lat="45.34569" lon="5.87374">
        <ele>2010.25</ele>
        <time>2015-03-07T08:54:47Z</time>
      </trkpt>
      <trkpt lat="45.34572" lon="5.87372">
        <ele>2011.7</ele>
        <time>2015-03-07T08:54:51Z</time>
      </trkpt>
      <trkpt lat="45.34575" lon="5.8737">
        <ele>2010.25</ele>
        <time>2015-03-07T08:54:55Z</time>
      </trkpt>
      <trkpt lat="45.34579" lon="5.87369">
        <ele>2010.73</ele>
        <time>2015-03-07T08:55:02Z</time>
      </trkpt>
      <trkpt lat="45.34592" lon="5.87365">
        <ele>2011.7</ele>
        <time>2015-03-07T08:55:18Z</time>
      </trkpt>
      <trkpt lat="45.34602" lon="5.87363">
        <ele>2016.5</ele>
        <time>2015-03-07T08:55:35Z</time>
      </trkpt>
      <trkpt lat="45.34603" lon="5.87362">
        <ele>2014.1</ele>
        <time>2015-03-07T08:55:38Z</time>
      </trkpt>
      <trkpt lat="45.34604" lon="5.87361">
        <ele>2015.06</ele>
        <time>2015-03-07T08:55:40Z</time>
      </trkpt>
      <trkpt lat="45.34605" lon="5.87356">
        <ele>2013.62</ele>
        <time>2015-03-07T08:55:45Z</time>
      </trkpt>
      <trkpt lat="45.34606" lon="5.87352">
        <ele>2013.14</ele>
        <time>2015-03-07T08:55:50Z</time>
      </trkpt>
      <trkpt lat="45.34607" lon="5.87346">
        <ele>2016.02</ele>
        <time>2015-03-07T08:55:56Z</time>
      </trkpt>
      <trkpt lat="45.34608" lon="5.87344">
        <ele>2016.02</ele>
        <time>2015-03-07T08:56:00Z</time>
      </trkpt>
      <trkpt lat="45.34611" lon="5.87341">
        <ele>2020.35</ele>
        <time>2015-03-07T08:56:09Z</time>
      </trkpt>
      <trkpt lat="45.34614" lon="5.87338">
        <ele>2022.75</ele>
        <time>2015-03-07T08:56:17Z</time>
      </trkpt>
      <trkpt lat="45.34615" lon="5.87338">
        <ele>2020.83</ele>
        <time>2015-03-07T08:56:19Z</time>
      </trkpt>
      <trkpt lat="45.34618" lon="5.87334">
        <ele>2024.19</ele>
        <time>2015-03-07T08:56:32Z</time>
      </trkpt>
      <trkpt lat="45.34618" lon="5.87334">
        <ele>2024.19</ele>
        <time>2015-03-07T08:56:33Z</time>
      </trkpt>
      <trkpt lat="45.34622" lon="5.87328">
        <ele>2027.08</ele>
        <time>2015-03-07T08:56:49Z</time>
      </trkpt>
      <trkpt lat="45.34623" lon="5.87326">
        <ele>2027.56</ele>
        <time>2015-03-07T08:56:55Z</time>
      </trkpt>
      <trkpt lat="45.34625" lon="5.8732">
        <ele>2030.92</ele>
        <time>2015-03-07T08:57:11Z</time>
      </trkpt>
      <trkpt lat="45.34628" lon="5.87315">
        <ele>2033.81</ele>
        <time>2015-03-07T08:57:24Z</time>
      </trkpt>
      <trkpt lat="45.34632" lon="5.87312">
        <ele>2037.17</ele>
        <time>2015-03-07T08:57:39Z</time>
      </trkpt>
      <trkpt lat="45.34632" lon="5.87312">
        <ele>2039.09</ele>
        <time>2015-03-07T08:57:43Z</time>
      </trkpt>
      <trkpt lat="45.34637" lon="5.87309">
        <ele>2042.46</ele>
        <time>2015-03-07T08:57:57Z</time>
      </trkpt>
      <trkpt lat="45.34644" lon="5.87305">
        <ele>2043.9</ele>
        <time>2015-03-07T08:58:13Z</time>
      </trkpt>
      <trkpt lat="45.34646" lon="5.87306">
        <ele>2043.42</ele>
        <time>2015-03-07T08:58:21Z</time>
      </trkpt>
      <trkpt lat="45.34647" lon="5.87306">
        <ele>2044.86</ele>
        <time>2015-03-07T08:58:24Z</time>
      </trkpt>
      <trkpt lat="45.34651" lon="5.87307">
        <ele>2042.46</ele>
        <time>2015-03-07T08:58:37Z</time>
      </trkpt>
      <trkpt lat="45.34651" lon="5.87307">
        <ele>2046.3</ele>
        <time>2015-03-07T08:58:39Z</time>
      </trkpt>
      <trkpt lat="45.34651" lon="5.87307">
        <ele>2046.3</ele>
        <time>2015-03-07T08:58:40Z</time>
      </trkpt>
      <trkpt lat="45.34652" lon="5.87307">
        <ele>2043.9</ele>
        <time>2015-03-07T08:59:02Z</time>
      </trkpt>
      <trkpt lat="45.34652" lon="5.87307">
        <ele>2047.75</ele>
        <time>2015-03-07T08:59:03Z</time>
      </trkpt>
      <trkpt lat="45.34652" lon="5.87307">
        <ele>2047.75</ele>
        <time>2015-03-07T08:59:04Z</time>
      </trkpt>
      <trkpt lat="45.34651" lon="5.87303">
        <ele>2048.23</ele>
        <time>2015-03-07T08:59:24Z</time>
      </trkpt>
      <trkpt lat="45.34651" lon="5.87303">
        <ele>2046.3</ele>
        <time>2015-03-07T08:59:29Z</time>
      </trkpt>
      <trkpt lat="45.34651" lon="5.87303">
        <ele>2047.26</ele>
        <time>2015-03-07T08:59:56Z</time>
      </trkpt>
      <trkpt lat="45.34651" lon="5.87302">
        <ele>2047.26</ele>
        <time>2015-03-07T09:00:33Z</time>
      </trkpt>
      <trkpt lat="45.34651" lon="5.87302">
        <ele>2048.71</ele>
        <time>2015-03-07T09:00:36Z</time>
      </trkpt>
      <trkpt lat="45.34651" lon="5.87302">
        <ele>2047.26</ele>
        <time>2015-03-07T09:00:47Z</time>
      </trkpt>
      <trkpt lat="45.34651" lon="5.87302">
        <ele>2046.78</ele>
        <time>2015-03-07T09:01:24Z</time>
      </trkpt>
      <trkpt lat="45.34648" lon="5.87302">
        <ele>2048.71</ele>
        <time>2015-03-07T09:01:30Z</time>
      </trkpt>
      <trkpt lat="45.34647" lon="5.87302">
        <ele>2046.78</ele>
        <time>2015-03-07T09:01:31Z</time>
      </trkpt>
      <trkpt lat="45.3464" lon="5.87306">
        <ele>2043.42</ele>
        <time>2015-03-07T09:01:43Z</time>
      </trkpt>
      <trkpt lat="45.34636" lon="5.87309">
        <ele>2040.05</ele>
        <time>2015-03-07T09:01:52Z</time>
      </trkpt>
      <trkpt lat="45.34633" lon="5.87311">
        <ele>2036.21</ele>
        <time>2015-03-07T09:02:05Z</time>
      </trkpt>
      <trkpt lat="45.34633" lon="5.87312">
        <ele>2036.21</ele>
        <time>2015-03-07T09:02:06Z</time>
      </trkpt>
      <trkpt lat="45.3463" lon="5.87319">
        <ele>2032.36</ele>
        <time>2015-03-07T09:02:20Z</time>
      </trkpt>
      <trkpt lat="45.34629" lon="5.87323">
        <ele>2030.44</ele>
        <time>2015-03-07T09:02:26Z</time>
      </trkpt>
      <trkpt lat="45.34624" lon="5.8733">
        <ele>2027.08</ele>
        <time>2015-03-07T09:02:37Z</time>
      </trkpt>
      <trkpt lat="45.34622" lon="5.87334">
        <ele>2024.19</ele>
        <time>2015-03-07T09:02:42Z</time>
      </trkpt>
      <trkpt lat="45.3462" lon="5.87336">
        <ele>2023.23</ele>
        <time>2015-03-07T09:02:46Z</time>
      </trkpt>
      <trkpt lat="45.34618" lon="5.87338">
        <ele>2019.39</ele>
        <time>2015-03-07T09:02:51Z</time>
      </trkpt>
      <trkpt lat="45.34618" lon="5.87338">
        <ele>2019.39</ele>
        <time>2015-03-07T09:02:52Z</time>
      </trkpt>
      <trkpt lat="45.34614" lon="5.87341">
        <ele>2016.5</ele>
        <time>2015-03-07T09:02:58Z</time>
      </trkpt>
      <trkpt lat="45.34612" lon="5.87345">
        <ele>2015.06</ele>
        <time>2015-03-07T09:03:03Z</time>
      </trkpt>
      <trkpt lat="45.34602" lon="5.8736">
        <ele>2011.7</ele>
        <time>2015-03-07T09:03:19Z</time>
      </trkpt>
      <trkpt lat="45.34592" lon="5.87367">
        <ele>2010.25</ele>
        <time>2015-03-07T09:03:33Z</time>
      </trkpt>
      <trkpt lat="45.34591" lon="5.87367">
        <ele>2010.25</ele>
        <time>2015-03-07T09:03:34Z</time>
      </trkpt>
      <trkpt lat="45.34579" lon="5.8737">
        <ele>2010.25</ele>
        <time>2015-03-07T09:03:52Z</time>
      </trkpt>
      <trkpt lat="45.34578" lon="5.8737">
        <ele>2010.25</ele>
        <time>2015-03-07T09:03:53Z</time>
      </trkpt>
      <trkpt lat="45.34573" lon="5.87374">
        <ele>2011.22</ele>
        <time>2015-03-07T09:04:00Z</time>
      </trkpt>
      <trkpt lat="45.34569" lon="5.87375">
        <ele>2009.77</ele>
        <time>2015-03-07T09:04:08Z</time>
      </trkpt>
      <trkpt lat="45.34567" lon="5.87375">
        <ele>2011.22</ele>
        <time>2015-03-07T09:04:11Z</time>
      </trkpt>
      <trkpt lat="45.34561" lon="5.87375">
        <ele>2012.18</ele>
        <time>2015-03-07T09:04:21Z</time>
      </trkpt>
      <trkpt lat="45.34555" lon="5.87373">
        <ele>2012.18</ele>
        <time>2015-03-07T09:04:31Z</time>
      </trkpt>
      <trkpt lat="45.34548" lon="5.87376">
        <ele>2015.54</ele>
        <time>2015-03-07T09:04:46Z</time>
      </trkpt>
      <trkpt lat="45.34546" lon="5.87385">
        <ele>2015.54</ele>
        <time>2015-03-07T09:04:56Z</time>
      </trkpt>
      <trkpt lat="45.3454" lon="5.87394">
        <ele>2018.43</ele>
        <time>2015-03-07T09:05:15Z</time>
      </trkpt>
      <trkpt lat="45.34536" lon="5.87394">
        <ele>2017.46</ele>
        <time>2015-03-07T09:05:27Z</time>
      </trkpt>
      <trkpt lat="45.34527" lon="5.87392">
        <ele>2015.54</ele>
        <time>2015-03-07T09:05:42Z</time>
      </trkpt>
      <trkpt lat="45.34525" lon="5.87391">
        <ele>2014.58</ele>
        <time>2015-03-07T09:05:45Z</time>
      </trkpt>
      <trkpt lat="45.34517" lon="5.87389">
        <ele>2013.14</ele>
        <time>2015-03-07T09:05:59Z</time>
      </trkpt>
      <trkpt lat="45.34512" lon="5.8739">
        <ele>2011.22</ele>
        <time>2015-03-07T09:06:07Z</time>
      </trkpt>
      <trkpt lat="45.34505" lon="5.87389">
        <ele>2009.29</ele>
        <time>2015-03-07T09:06:21Z</time>
      </trkpt>
      <trkpt lat="45.34499" lon="5.87391">
        <ele>2008.81</ele>
        <time>2015-03-07T09:06:36Z</time>
      </trkpt>
      <trkpt lat="45.34495" lon="5.87393">
        <ele>2010.25</ele>
        <time>2015-03-07T09:06:51Z</time>
      </trkpt>
      <trkpt lat="45.34495" lon="5.87395">
        <ele>2008.81</ele>
        <time>2015-03-07T09:06:55Z</time>
      </trkpt>
      <trkpt lat="45.34489" lon="5.87396">
        <ele>2007.37</ele>
        <time>2015-03-07T09:07:11Z</time>
      </trkpt>
      <trkpt lat="45.34481" lon="5.87397">
        <ele>2004.01</ele>
        <time>2015-03-07T09:07:27Z</time>
      </trkpt>
      <trkpt lat="45.34474" lon="5.87398">
        <ele>2000.64</ele>
        <time>2015-03-07T09:07:43Z</time>
      </trkpt>
      <trkpt lat="45.34469" lon="5.87399">
        <ele>1997.28</ele>
        <time>2015-03-07T09:07:56Z</time>
      </trkpt>
      <trkpt lat="45.34465" lon="5.87402">
        <ele>1993.91</ele>
        <time>2015-03-07T09:08:09Z</time>
      </trkpt>
      <trkpt lat="45.3446" lon="5.874">
        <ele>1990.55</ele>
        <time>2015-03-07T09:08:23Z</time>
      </trkpt>
      <trkpt lat="45.34456" lon="5.87397">
        <ele>1988.62</ele>
        <time>2015-03-07T09:08:38Z</time>
      </trkpt>
      <trkpt lat="45.34457" lon="5.87393">
        <ele>1987.66</ele>
        <time>2015-03-07T09:08:53Z</time>
      </trkpt>
      <trkpt lat="45.34456" lon="5.87391">
        <ele>1986.22</ele>
        <time>2015-03-07T09:09:09Z</time>
      </trkpt>
      <trkpt lat="45.34452" lon="5.87387">
        <ele>1983.82</ele>
        <time>2015-03-07T09:09:26Z</time>
      </trkpt>
      <trkpt lat="45.34451" lon="5.87387">
        <ele>1981.9</ele>
        <time>2015-03-07T09:09:39Z</time>
      </trkpt>
      <trkpt lat="45.34447" lon="5.87382">
        <ele>1978.53</ele>
        <time>2015-03-07T09:09:54Z</time>
      </trkpt>
      <trkpt lat="45.34445" lon="5.87377">
        <ele>1975.65</ele>
        <time>2015-03-07T09:10:07Z</time>
      </trkpt>
      <trkpt lat="45.34443" lon="5.8737">
        <ele>1972.28</ele>
        <time>2015-03-07T09:10:23Z</time>
      </trkpt>
      <trkpt lat="45.3444" lon="5.87369">
        <ele>1968.92</ele>
        <time>2015-03-07T09:10:38Z</time>
      </trkpt>
      <trkpt lat="45.34441" lon="5.87368">
        <ele>1967.48</ele>
        <time>2015-03-07T09:10:54Z</time>
      </trkpt>
      <trkpt lat="45.34442" lon="5.87367">
        <ele>1966.51</ele>
        <time>2015-03-07T09:11:05Z</time>
      </trkpt>
      <trkpt lat="45.34444" lon="5.87362">
        <ele>1964.59</ele>
        <time>2015-03-07T09:11:18Z</time>
      </trkpt>
      <trkpt lat="45.34443" lon="5.87358">
        <ele>1961.23</ele>
        <time>2015-03-07T09:11:27Z</time>
      </trkpt>
      <trkpt lat="45.34442" lon="5.87353">
        <ele>1957.86</ele>
        <time>2015-03-07T09:11:41Z</time>
      </trkpt>
      <trkpt lat="45.34442" lon="5.87349">
        <ele>1954.5</ele>
        <time>2015-03-07T09:11:52Z</time>
      </trkpt>
      <trkpt lat="45.34441" lon="5.87343">
        <ele>1951.13</ele>
        <time>2015-03-07T09:12:04Z</time>
      </trkpt>
      <trkpt lat="45.34439" lon="5.8734">
        <ele>1948.25</ele>
        <time>2015-03-07T09:12:17Z</time>
      </trkpt>
      <trkpt lat="45.34436" lon="5.87336">
        <ele>1944.88</ele>
        <time>2015-03-07T09:12:31Z</time>
      </trkpt>
      <trkpt lat="45.34436" lon="5.87335">
        <ele>1943.44</ele>
        <time>2015-03-07T09:12:35Z</time>
      </trkpt>
      <trkpt lat="45.34434" lon="5.8733">
        <ele>1941.52</ele>
        <time>2015-03-07T09:12:51Z</time>
      </trkpt>
      <trkpt lat="45.3443" lon="5.8733">
        <ele>1940.56</ele>
        <time>2015-03-07T09:13:13Z</time>
      </trkpt>
      <trkpt lat="45.34431" lon="5.87326">
        <ele>1937.19</ele>
        <time>2015-03-07T09:13:25Z</time>
      </trkpt>
      <trkpt lat="45.34433" lon="5.87321">
        <ele>1933.35</ele>
        <time>2015-03-07T09:13:40Z</time>
      </trkpt>
      <trkpt lat="45.34433" lon="5.87321">
        <ele>1933.35</ele>
        <time>2015-03-07T09:13:41Z</time>
      </trkpt>
      <trkpt lat="45.34432" lon="5.87318">
        <ele>1931.43</ele>
        <time>2015-03-07T09:14:00Z</time>
      </trkpt>
      <trkpt lat="45.34433" lon="5.8732">
        <ele>1930.95</ele>
        <time>2015-03-07T09:14:32Z</time>
      </trkpt>
      <trkpt lat="45.34433" lon="5.87319">
        <ele>1930.46</ele>
        <time>2015-03-07T09:14:53Z</time>
      </trkpt>
      <trkpt lat="45.34434" lon="5.87314">
        <ele>1927.58</ele>
        <time>2015-03-07T09:15:09Z</time>
      </trkpt>
      <trkpt lat="45.34433" lon="5.87311">
        <ele>1924.7</ele>
        <time>2015-03-07T09:15:25Z</time>
      </trkpt>
      <trkpt lat="45.34432" lon="5.87309">
        <ele>1921.33</ele>
        <time>2015-03-07T09:15:41Z</time>
      </trkpt>
      <trkpt lat="45.34431" lon="5.87306">
        <ele>1918.45</ele>
        <time>2015-03-07T09:15:52Z</time>
      </trkpt>
      <trkpt lat="45.3443" lon="5.873">
        <ele>1915.08</ele>
        <time>2015-03-07T09:16:01Z</time>
      </trkpt>
      <trkpt lat="45.34434" lon="5.87295">
        <ele>1912.68</ele>
        <time>2015-03-07T09:16:14Z</time>
      </trkpt>
      <trkpt lat="45.34442" lon="5.87287">
        <ele>1910.76</ele>
        <time>2015-03-07T09:16:29Z</time>
      </trkpt>
      <trkpt lat="45.34447" lon="5.87279">
        <ele>1907.87</ele>
        <time>2015-03-07T09:16:40Z</time>
      </trkpt>
      <trkpt lat="45.34449" lon="5.87272">
        <ele>1904.51</ele>
        <time>2015-03-07T09:16:51Z</time>
      </trkpt>
      <trkpt lat="45.34447" lon="5.87264">
        <ele>1901.63</ele>
        <time>2015-03-07T09:16:58Z</time>
      </trkpt>
      <trkpt lat="45.34447" lon="5.87258">
        <ele>1897.78</ele>
        <time>2015-03-07T09:17:05Z</time>
      </trkpt>
      <trkpt lat="45.34448" lon="5.87258">
        <ele>1897.78</ele>
        <time>2015-03-07T09:17:06Z</time>
      </trkpt>
      <trkpt lat="45.34448" lon="5.8725">
        <ele>1896.34</ele>
        <time>2015-03-07T09:17:18Z</time>
      </trkpt>
      <trkpt lat="45.34448" lon="5.8725">
        <ele>1895.38</ele>
        <time>2015-03-07T09:17:19Z</time>
      </trkpt>
      <trkpt lat="45.3445" lon="5.87246">
        <ele>1891.53</ele>
        <time>2015-03-07T09:17:30Z</time>
      </trkpt>
      <trkpt lat="45.34452" lon="5.87252">
        <ele>1893.45</ele>
        <time>2015-03-07T09:17:47Z</time>
      </trkpt>
      <trkpt lat="45.34453" lon="5.8725">
        <ele>1891.05</ele>
        <time>2015-03-07T09:18:08Z</time>
      </trkpt>
      <trkpt lat="45.34453" lon="5.8725">
        <ele>1892.49</ele>
        <time>2015-03-07T09:18:11Z</time>
      </trkpt>
      <trkpt lat="45.34453" lon="5.87251">
        <ele>1892.49</ele>
        <time>2015-03-07T09:18:34Z</time>
      </trkpt>
      <trkpt lat="45.34453" lon="5.87253">
        <ele>1892.49</ele>
        <time>2015-03-07T09:18:54Z</time>
      </trkpt>
      <trkpt lat="45.34451" lon="5.87253">
        <ele>1891.05</ele>
        <time>2015-03-07T09:19:25Z</time>
      </trkpt>
      <trkpt lat="45.34453" lon="5.87252">
        <ele>1892.49</ele>
        <time>2015-03-07T09:19:33Z</time>
      </trkpt>
      <trkpt lat="45.34456" lon="5.87259">
        <ele>1891.53</ele>
        <time>2015-03-07T09:19:58Z</time>
      </trkpt>
      <trkpt lat="45.34454" lon="5.87258">
        <ele>1893.93</ele>
        <time>2015-03-07T09:20:06Z</time>
      </trkpt>
      <trkpt lat="45.34454" lon="5.87257">
        <ele>1892.49</ele>
        <time>2015-03-07T09:20:09Z</time>
      </trkpt>
      <trkpt lat="45.3445" lon="5.87252">
        <ele>1892.49</ele>
        <time>2015-03-07T09:20:16Z</time>
      </trkpt>
      <trkpt lat="45.34448" lon="5.87245">
        <ele>1892.01</ele>
        <time>2015-03-07T09:20:45Z</time>
      </trkpt>
      <trkpt lat="45.3445" lon="5.87244">
        <ele>1891.53</ele>
        <time>2015-03-07T09:21:13Z</time>
      </trkpt>
      <trkpt lat="45.34448" lon="5.87246">
        <ele>1892.01</ele>
        <time>2015-03-07T09:21:38Z</time>
      </trkpt>
      <trkpt lat="45.34449" lon="5.87242">
        <ele>1892.01</ele>
        <time>2015-03-07T09:22:02Z</time>
      </trkpt>
      <trkpt lat="45.34448" lon="5.87246">
        <ele>1889.61</ele>
        <time>2015-03-07T09:22:13Z</time>
      </trkpt>
      <trkpt lat="45.34448" lon="5.87245">
        <ele>1893.93</ele>
        <time>2015-03-07T09:22:15Z</time>
      </trkpt>
      <trkpt lat="45.34448" lon="5.87246">
        <ele>1892.01</ele>
        <time>2015-03-07T09:22:18Z</time>
      </trkpt>
      <trkpt lat="45.34447" lon="5.87242">
        <ele>1891.05</ele>
        <time>2015-03-07T09:22:24Z</time>
      </trkpt>
      <trkpt lat="45.34454" lon="5.87239">
        <ele>1892.01</ele>
        <time>2015-03-07T09:22:34Z</time>
      </trkpt>
      <trkpt lat="45.34452" lon="5.87248">
        <ele>1892.01</ele>
        <time>2015-03-07T09:22:50Z</time>
      </trkpt>
      <trkpt lat="45.34454" lon="5.87249">
        <ele>1892.01</ele>
        <time>2015-03-07T09:23:10Z</time>
      </trkpt>
      <trkpt lat="45.34451" lon="5.87245">
        <ele>1892.01</ele>
        <time>2015-03-07T09:23:33Z</time>
      </trkpt>
      <trkpt lat="45.3445" lon="5.87244">
        <ele>1887.21</ele>
        <time>2015-03-07T09:23:42Z</time>
      </trkpt>
      <trkpt lat="45.3445" lon="5.87244">
        <ele>1892.01</ele>
        <time>2015-03-07T09:23:43Z</time>
      </trkpt>
      <trkpt lat="45.34451" lon="5.87245">
        <ele>1887.21</ele>
        <time>2015-03-07T09:24:01Z</time>
      </trkpt>
      <trkpt lat="45.34451" lon="5.87245">
        <ele>1892.01</ele>
        <time>2015-03-07T09:24:02Z</time>
      </trkpt>
      <trkpt lat="45.34452" lon="5.87246">
        <ele>1893.93</ele>
        <time>2015-03-07T09:24:06Z</time>
      </trkpt>
      <trkpt lat="45.34451" lon="5.87248">
        <ele>1890.57</ele>
        <time>2015-03-07T09:24:09Z</time>
      </trkpt>
      <trkpt lat="45.34452" lon="5.87247">
        <ele>1890.57</ele>
        <time>2015-03-07T09:24:10Z</time>
      </trkpt>
      <trkpt lat="45.34452" lon="5.87241">
        <ele>1891.53</ele>
        <time>2015-03-07T09:24:30Z</time>
      </trkpt>
      <trkpt lat="45.34453" lon="5.8724">
        <ele>1890.09</ele>
        <time>2015-03-07T09:24:39Z</time>
      </trkpt>
      <trkpt lat="45.3446" lon="5.87233">
        <ele>1886.24</ele>
        <time>2015-03-07T09:24:43Z</time>
      </trkpt>
      <trkpt lat="45.34452" lon="5.87229">
        <ele>1885.28</ele>
        <time>2015-03-07T09:24:48Z</time>
      </trkpt>
      <trkpt lat="45.34452" lon="5.8723">
        <ele>1884.8</ele>
        <time>2015-03-07T09:24:52Z</time>
      </trkpt>
      <trkpt lat="45.34454" lon="5.87229">
        <ele>1881.92</ele>
        <time>2015-03-07T09:24:54Z</time>
      </trkpt>
      <trkpt lat="45.34455" lon="5.87229">
        <ele>1881.44</ele>
        <time>2015-03-07T09:24:55Z</time>
      </trkpt>
      <trkpt lat="45.34457" lon="5.87227">
        <ele>1880.96</ele>
        <time>2015-03-07T09:24:57Z</time>
      </trkpt>
      <trkpt lat="45.3446" lon="5.87225">
        <ele>1879.03</ele>
        <time>2015-03-07T09:25:00Z</time>
      </trkpt>
      <trkpt lat="45.34453" lon="5.87217">
        <ele>1876.15</ele>
        <time>2015-03-07T09:25:04Z</time>
      </trkpt>
      <trkpt lat="45.34451" lon="5.87212">
        <ele>1873.27</ele>
        <time>2015-03-07T09:25:08Z</time>
      </trkpt>
      <trkpt lat="45.34452" lon="5.87212">
        <ele>1870.38</ele>
        <time>2015-03-07T09:25:10Z</time>
      </trkpt>
      <trkpt lat="45.34454" lon="5.8721">
        <ele>1869.42</ele>
        <time>2015-03-07T09:25:12Z</time>
      </trkpt>
      <trkpt lat="45.34456" lon="5.87205">
        <ele>1865.58</ele>
        <time>2015-03-07T09:25:15Z</time>
      </trkpt>
      <trkpt lat="45.3447" lon="5.87193">
        <ele>1861.73</ele>
        <time>2015-03-07T09:25:21Z</time>
      </trkpt>
      <trkpt lat="45.34472" lon="5.8719">
        <ele>1861.73</ele>
        <time>2015-03-07T09:25:22Z</time>
      </trkpt>
      <trkpt lat="45.34474" lon="5.87186">
        <ele>1860.77</ele>
        <time>2015-03-07T09:25:24Z</time>
      </trkpt>
      <trkpt lat="45.34476" lon="5.87181">
        <ele>1859.33</ele>
        <time>2015-03-07T09:25:29Z</time>
      </trkpt>
      <trkpt lat="45.34468" lon="5.87177">
        <ele>1855</ele>
        <time>2015-03-07T09:25:32Z</time>
      </trkpt>
      <trkpt lat="45.34461" lon="5.87174">
        <ele>1852.12</ele>
        <time>2015-03-07T09:25:35Z</time>
      </trkpt>
      <trkpt lat="45.34458" lon="5.87173">
        <ele>1851.16</ele>
        <time>2015-03-07T09:25:37Z</time>
      </trkpt>
      <trkpt lat="45.34458" lon="5.87171">
        <ele>1850.68</ele>
        <time>2015-03-07T09:25:45Z</time>
      </trkpt>
      <trkpt lat="45.34454" lon="5.8717">
        <ele>1850.19</ele>
        <time>2015-03-07T09:25:49Z</time>
      </trkpt>
      <trkpt lat="45.3446" lon="5.87167">
        <ele>1846.83</ele>
        <time>2015-03-07T09:25:53Z</time>
      </trkpt>
      <trkpt lat="45.34473" lon="5.8715">
        <ele>1843.95</ele>
        <time>2015-03-07T09:26:01Z</time>
      </trkpt>
      <trkpt lat="45.3448" lon="5.87138">
        <ele>1842.5</ele>
        <time>2015-03-07T09:26:04Z</time>
      </trkpt>
      <trkpt lat="45.34489" lon="5.87124">
        <ele>1837.7</ele>
        <time>2015-03-07T09:26:08Z</time>
      </trkpt>
      <trkpt lat="45.34483" lon="5.87112">
        <ele>1833.85</ele>
        <time>2015-03-07T09:26:11Z</time>
      </trkpt>
      <trkpt lat="45.34481" lon="5.87102">
        <ele>1828.56</ele>
        <time>2015-03-07T09:26:13Z</time>
      </trkpt>
      <trkpt lat="45.34482" lon="5.87092">
        <ele>1824.72</ele>
        <time>2015-03-07T09:26:15Z</time>
      </trkpt>
      <trkpt lat="45.34476" lon="5.8709">
        <ele>1821.35</ele>
        <time>2015-03-07T09:26:17Z</time>
      </trkpt>
      <trkpt lat="45.34464" lon="5.87085">
        <ele>1816.55</ele>
        <time>2015-03-07T09:26:21Z</time>
      </trkpt>
      <trkpt lat="45.34463" lon="5.8708">
        <ele>1813.18</ele>
        <time>2015-03-07T09:26:22Z</time>
      </trkpt>
      <trkpt lat="45.34467" lon="5.87069">
        <ele>1808.38</ele>
        <time>2015-03-07T09:26:24Z</time>
      </trkpt>
      <trkpt lat="45.34469" lon="5.87066">
        <ele>1807.42</ele>
        <time>2015-03-07T09:26:25Z</time>
      </trkpt>
      <trkpt lat="45.34474" lon="5.8706">
        <ele>1806.94</ele>
        <time>2015-03-07T09:26:27Z</time>
      </trkpt>
      <trkpt lat="45.34465" lon="5.87052">
        <ele>1801.17</ele>
        <time>2015-03-07T09:26:30Z</time>
      </trkpt>
      <trkpt lat="45.34457" lon="5.87052">
        <ele>1799.24</ele>
        <time>2015-03-07T09:26:32Z</time>
      </trkpt>
      <trkpt lat="45.3445" lon="5.87046">
        <ele>1794.44</ele>
        <time>2015-03-07T09:26:34Z</time>
      </trkpt>
      <trkpt lat="45.34455" lon="5.87034">
        <ele>1790.59</ele>
        <time>2015-03-07T09:26:36Z</time>
      </trkpt>
      <trkpt lat="45.34459" lon="5.8703">
        <ele>1788.67</ele>
        <time>2015-03-07T09:26:37Z</time>
      </trkpt>
      <trkpt lat="45.34467" lon="5.87022">
        <ele>1787.23</ele>
        <time>2015-03-07T09:26:39Z</time>
      </trkpt>
      <trkpt lat="45.34469" lon="5.87002">
        <ele>1781.46</ele>
        <time>2015-03-07T09:26:42Z</time>
      </trkpt>
      <trkpt lat="45.34464" lon="5.86994">
        <ele>1777.61</ele>
        <time>2015-03-07T09:26:43Z</time>
      </trkpt>
      <trkpt lat="45.34457" lon="5.86973">
        <ele>1767.52</ele>
        <time>2015-03-07T09:26:46Z</time>
      </trkpt>
      <trkpt lat="45.34461" lon="5.86963">
        <ele>1762.71</ele>
        <time>2015-03-07T09:26:47Z</time>
      </trkpt>
      <trkpt lat="45.34467" lon="5.86953">
        <ele>1757.43</ele>
        <time>2015-03-07T09:26:48Z</time>
      </trkpt>
      <trkpt lat="45.34471" lon="5.86941">
        <ele>1754.06</ele>
        <time>2015-03-07T09:26:49Z</time>
      </trkpt>
      <trkpt lat="45.3447" lon="5.86929">
        <ele>1750.7</ele>
        <time>2015-03-07T09:26:50Z</time>
      </trkpt>
      <trkpt lat="45.34466" lon="5.86919">
        <ele>1745.41</ele>
        <time>2015-03-07T09:26:51Z</time>
      </trkpt>
      <trkpt lat="45.34461" lon="5.86911">
        <ele>1740.6</ele>
        <time>2015-03-07T09:26:52Z</time>
      </trkpt>
      <trkpt lat="45.34455" lon="5.86903">
        <ele>1735.8</ele>
        <time>2015-03-07T09:26:53Z</time>
      </trkpt>
      <trkpt lat="45.34451" lon="5.86895">
        <ele>1730.99</ele>
        <time>2015-03-07T09:26:54Z</time>
      </trkpt>
      <trkpt lat="45.34453" lon="5.86887">
        <ele>1726.18</ele>
        <time>2015-03-07T09:26:55Z</time>
      </trkpt>
      <trkpt lat="45.34459" lon="5.86879">
        <ele>1722.82</ele>
        <time>2015-03-07T09:26:56Z</time>
      </trkpt>
      <trkpt lat="45.3447" lon="5.86867">
        <ele>1718.01</ele>
        <time>2015-03-07T09:26:58Z</time>
      </trkpt>
      <trkpt lat="45.34469" lon="5.86859">
        <ele>1715.13</ele>
        <time>2015-03-07T09:26:59Z</time>
      </trkpt>
      <trkpt lat="45.34464" lon="5.86855">
        <ele>1711.76</ele>
        <time>2015-03-07T09:27:00Z</time>
      </trkpt>
      <trkpt lat="45.34451" lon="5.8685">
        <ele>1707.44</ele>
        <time>2015-03-07T09:27:02Z</time>
      </trkpt>
      <trkpt lat="45.34445" lon="5.86849">
        <ele>1704.55</ele>
        <time>2015-03-07T09:27:03Z</time>
      </trkpt>
      <trkpt lat="45.34425" lon="5.86841">
        <ele>1700.71</ele>
        <time>2015-03-07T09:27:06Z</time>
      </trkpt>
      <trkpt lat="45.34417" lon="5.8683">
        <ele>1694.46</ele>
        <time>2015-03-07T09:27:08Z</time>
      </trkpt>
      <trkpt lat="45.34418" lon="5.86822">
        <ele>1690.62</ele>
        <time>2015-03-07T09:27:09Z</time>
      </trkpt>
      <trkpt lat="45.34423" lon="5.86814">
        <ele>1686.77</ele>
        <time>2015-03-07T09:27:10Z</time>
      </trkpt>
      <trkpt lat="45.34436" lon="5.86801">
        <ele>1682.44</ele>
        <time>2015-03-07T09:27:12Z</time>
      </trkpt>
      <trkpt lat="45.34433" lon="5.86787">
        <ele>1676.68</ele>
        <time>2015-03-07T09:27:14Z</time>
      </trkpt>
      <trkpt lat="45.34428" lon="5.86783">
        <ele>1673.31</ele>
        <time>2015-03-07T09:27:15Z</time>
      </trkpt>
      <trkpt lat="45.34417" lon="5.86782">
        <ele>1670.91</ele>
        <time>2015-03-07T09:27:17Z</time>
      </trkpt>
      <trkpt lat="45.34407" lon="5.86782">
        <ele>1668.99</ele>
        <time>2015-03-07T09:27:19Z</time>
      </trkpt>
      <trkpt lat="45.34394" lon="5.8678">
        <ele>1667.06</ele>
        <time>2015-03-07T09:27:21Z</time>
      </trkpt>
      <trkpt lat="45.34388" lon="5.8678">
        <ele>1665.62</ele>
        <time>2015-03-07T09:27:22Z</time>
      </trkpt>
      <trkpt lat="45.34373" lon="5.86775">
        <ele>1661.78</ele>
        <time>2015-03-07T09:27:25Z</time>
      </trkpt>
      <trkpt lat="45.34372" lon="5.86768">
        <ele>1657.45</ele>
        <time>2015-03-07T09:27:26Z</time>
      </trkpt>
      <trkpt lat="45.34376" lon="5.8676">
        <ele>1653.12</ele>
        <time>2015-03-07T09:27:27Z</time>
      </trkpt>
      <trkpt lat="45.34382" lon="5.86752">
        <ele>1650.72</ele>
        <time>2015-03-07T09:27:28Z</time>
      </trkpt>
      <trkpt lat="45.34394" lon="5.86739">
        <ele>1647.84</ele>
        <time>2015-03-07T09:27:30Z</time>
      </trkpt>
      <trkpt lat="45.3442" lon="5.86721">
        <ele>1642.55</ele>
        <time>2015-03-07T09:27:34Z</time>
      </trkpt>
      <trkpt lat="45.34416" lon="5.86705">
        <ele>1638.7</ele>
        <time>2015-03-07T09:27:37Z</time>
      </trkpt>
      <trkpt lat="45.34406" lon="5.86699">
        <ele>1633.9</ele>
        <time>2015-03-07T09:27:39Z</time>
      </trkpt>
      <trkpt lat="45.34404" lon="5.86691">
        <ele>1630.53</ele>
        <time>2015-03-07T09:27:40Z</time>
      </trkpt>
      <trkpt lat="45.34406" lon="5.86681">
        <ele>1625.73</ele>
        <time>2015-03-07T09:27:41Z</time>
      </trkpt>
      <trkpt lat="45.34407" lon="5.8667">
        <ele>1621.4</ele>
        <time>2015-03-07T09:27:42Z</time>
      </trkpt>
      <trkpt lat="45.34403" lon="5.86658">
        <ele>1617.56</ele>
        <time>2015-03-07T09:27:43Z</time>
      </trkpt>
      <trkpt lat="45.34395" lon="5.86651">
        <ele>1613.23</ele>
        <time>2015-03-07T09:27:44Z</time>
      </trkpt>
      <trkpt lat="45.34379" lon="5.86647">
        <ele>1609.86</ele>
        <time>2015-03-07T09:27:46Z</time>
      </trkpt>
      <trkpt lat="45.34375" lon="5.8664">
        <ele>1605.54</ele>
        <time>2015-03-07T09:27:48Z</time>
      </trkpt>
      <trkpt lat="45.34379" lon="5.86637">
        <ele>1604.1</ele>
        <time>2015-03-07T09:27:49Z</time>
      </trkpt>
      <trkpt lat="45.34394" lon="5.86623">
        <ele>1599.29</ele>
        <time>2015-03-07T09:27:52Z</time>
      </trkpt>
      <trkpt lat="45.34406" lon="5.8661">
        <ele>1598.33</ele>
        <time>2015-03-07T09:27:55Z</time>
      </trkpt>
      <trkpt lat="45.34419" lon="5.86593">
        <ele>1594</ele>
        <time>2015-03-07T09:27:58Z</time>
      </trkpt>
      <trkpt lat="45.34414" lon="5.86572">
        <ele>1588.72</ele>
        <time>2015-03-07T09:28:01Z</time>
      </trkpt>
      <trkpt lat="45.34401" lon="5.86572">
        <ele>1584.39</ele>
        <time>2015-03-07T09:28:03Z</time>
      </trkpt>
      <trkpt lat="45.34396" lon="5.86565">
        <ele>1581.03</ele>
        <time>2015-03-07T09:28:05Z</time>
      </trkpt>
      <trkpt lat="45.34399" lon="5.86559">
        <ele>1578.62</ele>
        <time>2015-03-07T09:28:06Z</time>
      </trkpt>
      <trkpt lat="45.3441" lon="5.86544">
        <ele>1575.74</ele>
        <time>2015-03-07T09:28:09Z</time>
      </trkpt>
      <trkpt lat="45.34412" lon="5.8653">
        <ele>1572.37</ele>
        <time>2015-03-07T09:28:12Z</time>
      </trkpt>
      <trkpt lat="45.34406" lon="5.86525">
        <ele>1569.01</ele>
        <time>2015-03-07T09:28:15Z</time>
      </trkpt>
      <trkpt lat="45.34409" lon="5.8653">
        <ele>1569.01</ele>
        <time>2015-03-07T09:28:29Z</time>
      </trkpt>
      <trkpt lat="45.34411" lon="5.86533">
        <ele>1569.01</ele>
        <time>2015-03-07T09:28:54Z</time>
      </trkpt>
      <trkpt lat="45.34411" lon="5.86534">
        <ele>1569.01</ele>
        <time>2015-03-07T09:29:19Z</time>
      </trkpt>
      <trkpt lat="45.34411" lon="5.86533">
        <ele>1569.01</ele>
        <time>2015-03-07T09:29:23Z</time>
      </trkpt>
      <trkpt lat="45.3441" lon="5.86521">
        <ele>1564.68</ele>
        <time>2015-03-07T09:29:27Z</time>
      </trkpt>
      <trkpt lat="45.34405" lon="5.86514">
        <ele>1560.84</ele>
        <time>2015-03-07T09:29:29Z</time>
      </trkpt>
      <trkpt lat="45.34412" lon="5.86504">
        <ele>1558.43</ele>
        <time>2015-03-07T09:29:32Z</time>
      </trkpt>
      <trkpt lat="45.34422" lon="5.86494">
        <ele>1555.07</ele>
        <time>2015-03-07T09:29:36Z</time>
      </trkpt>
      <trkpt lat="45.34423" lon="5.86488">
        <ele>1550.74</ele>
        <time>2015-03-07T09:29:40Z</time>
      </trkpt>
      <trkpt lat="45.34424" lon="5.86484">
        <ele>1549.3</ele>
        <time>2015-03-07T09:29:42Z</time>
      </trkpt>
      <trkpt lat="45.34428" lon="5.8648">
        <ele>1544.98</ele>
        <time>2015-03-07T09:29:44Z</time>
      </trkpt>
      <trkpt lat="45.34429" lon="5.86479">
        <ele>1549.3</ele>
        <time>2015-03-07T09:29:45Z</time>
      </trkpt>
      <trkpt lat="45.34433" lon="5.86476">
        <ele>1545.46</ele>
        <time>2015-03-07T09:29:48Z</time>
      </trkpt>
      <trkpt lat="45.34436" lon="5.86473">
        <ele>1543.53</ele>
        <time>2015-03-07T09:29:51Z</time>
      </trkpt>
      <trkpt lat="45.34437" lon="5.8647">
        <ele>1539.69</ele>
        <time>2015-03-07T09:29:53Z</time>
      </trkpt>
      <trkpt lat="45.34446" lon="5.86465">
        <ele>1536.32</ele>
        <time>2015-03-07T09:29:56Z</time>
      </trkpt>
      <trkpt lat="45.34457" lon="5.86464">
        <ele>1533.92</ele>
        <time>2015-03-07T09:29:59Z</time>
      </trkpt>
      <trkpt lat="45.34464" lon="5.8646">
        <ele>1533.44</ele>
        <time>2015-03-07T09:30:09Z</time>
      </trkpt>
      <trkpt lat="45.34467" lon="5.86458">
        <ele>1531.04</ele>
        <time>2015-03-07T09:30:11Z</time>
      </trkpt>
      <trkpt lat="45.34472" lon="5.86458">
        <ele>1527.67</ele>
        <time>2015-03-07T09:30:14Z</time>
      </trkpt>
      <trkpt lat="45.34486" lon="5.86454">
        <ele>1526.71</ele>
        <time>2015-03-07T09:30:30Z</time>
      </trkpt>
      <trkpt lat="45.34497" lon="5.86457">
        <ele>1525.75</ele>
        <time>2015-03-07T09:30:51Z</time>
      </trkpt>
      <trkpt lat="45.34497" lon="5.86462">
        <ele>1520.94</ele>
        <time>2015-03-07T09:30:54Z</time>
      </trkpt>
      <trkpt lat="45.34501" lon="5.86468">
        <ele>1517.58</ele>
        <time>2015-03-07T09:30:57Z</time>
      </trkpt>
      <trkpt lat="45.34507" lon="5.86474">
        <ele>1512.77</ele>
        <time>2015-03-07T09:31:00Z</time>
      </trkpt>
      <trkpt lat="45.34512" lon="5.86478">
        <ele>1509.89</ele>
        <time>2015-03-07T09:31:02Z</time>
      </trkpt>
      <trkpt lat="45.34526" lon="5.86491">
        <ele>1507.48</ele>
        <time>2015-03-07T09:31:07Z</time>
      </trkpt>
      <trkpt lat="45.34542" lon="5.86493">
        <ele>1505.56</ele>
        <time>2015-03-07T09:31:10Z</time>
      </trkpt>
      <trkpt lat="45.34554" lon="5.86495">
        <ele>1503.64</ele>
        <time>2015-03-07T09:31:12Z</time>
      </trkpt>
      <trkpt lat="45.34581" lon="5.865">
        <ele>1504.12</ele>
        <time>2015-03-07T09:31:19Z</time>
      </trkpt>
      <trkpt lat="45.34598" lon="5.86499">
        <ele>1504.12</ele>
        <time>2015-03-07T09:31:36Z</time>
      </trkpt>
      <trkpt lat="45.34599" lon="5.86499">
        <ele>1504.12</ele>
        <time>2015-03-07T09:31:38Z</time>
      </trkpt>
      <trkpt lat="45.34612" lon="5.86487">
        <ele>1497.39</ele>
        <time>2015-03-07T09:31:42Z</time>
      </trkpt>
      <trkpt lat="45.34624" lon="5.86482">
        <ele>1493.55</ele>
        <time>2015-03-07T09:31:44Z</time>
      </trkpt>
      <trkpt lat="45.34628" lon="5.86483">
        <ele>1493.55</ele>
        <time>2015-03-07T09:31:45Z</time>
      </trkpt>
      <trkpt lat="45.34632" lon="5.86481">
        <ele>1490.18</ele>
        <time>2015-03-07T09:31:50Z</time>
      </trkpt>
      <trkpt lat="45.34646" lon="5.86476">
        <ele>1483.93</ele>
        <time>2015-03-07T09:31:53Z</time>
      </trkpt>
      <trkpt lat="45.34649" lon="5.86475">
        <ele>1483.93</ele>
        <time>2015-03-07T09:31:54Z</time>
      </trkpt>
      <trkpt lat="45.34655" lon="5.86471">
        <ele>1484.41</ele>
        <time>2015-03-07T09:32:02Z</time>
      </trkpt>
      <trkpt lat="45.34672" lon="5.86458">
        <ele>1482.49</ele>
        <time>2015-03-07T09:32:11Z</time>
      </trkpt>
      <trkpt lat="45.34676" lon="5.86456">
        <ele>1482.49</ele>
        <time>2015-03-07T09:32:15Z</time>
      </trkpt>
      <trkpt lat="45.34671" lon="5.86441">
        <ele>1478.65</ele>
        <time>2015-03-07T09:32:20Z</time>
      </trkpt>
      <trkpt lat="45.34668" lon="5.86419">
        <ele>1475.28</ele>
        <time>2015-03-07T09:32:23Z</time>
      </trkpt>
      <trkpt lat="45.34666" lon="5.8639">
        <ele>1470.95</ele>
        <time>2015-03-07T09:32:26Z</time>
      </trkpt>
      <trkpt lat="45.34657" lon="5.86357">
        <ele>1465.67</ele>
        <time>2015-03-07T09:32:30Z</time>
      </trkpt>
      <trkpt lat="45.34656" lon="5.86352">
        <ele>1473.36</ele>
        <time>2015-03-07T09:32:31Z</time>
      </trkpt>
      <trkpt lat="45.34656" lon="5.86349">
        <ele>1470.95</ele>
        <time>2015-03-07T09:32:32Z</time>
      </trkpt>
      <trkpt lat="45.3465" lon="5.86331">
        <ele>1471.92</ele>
        <time>2015-03-07T09:32:44Z</time>
      </trkpt>
      <trkpt lat="45.34649" lon="5.86328">
        <ele>1473.36</ele>
        <time>2015-03-07T09:32:49Z</time>
      </trkpt>
      <trkpt lat="45.34648" lon="5.86325">
        <ele>1470.47</ele>
        <time>2015-03-07T09:33:05Z</time>
      </trkpt>
      <trkpt lat="45.34648" lon="5.86325">
        <ele>1473.84</ele>
        <time>2015-03-07T09:33:06Z</time>
      </trkpt>
      <trkpt lat="45.34648" lon="5.86326">
        <ele>1472.4</ele>
        <time>2015-03-07T09:33:07Z</time>
      </trkpt>
      <trkpt lat="45.34651" lon="5.86329">
        <ele>1471.92</ele>
        <time>2015-03-07T09:33:25Z</time>
      </trkpt>
      <trkpt lat="45.34652" lon="5.86332">
        <ele>1471.92</ele>
        <time>2015-03-07T09:33:42Z</time>
      </trkpt>
      <trkpt lat="45.34653" lon="5.8633">
        <ele>1471.92</ele>
        <time>2015-03-07T09:34:04Z</time>
      </trkpt>
      <trkpt lat="45.34655" lon="5.86331">
        <ele>1471.92</ele>
        <time>2015-03-07T09:34:32Z</time>
      </trkpt>
      <trkpt lat="45.34655" lon="5.86329">
        <ele>1471.92</ele>
        <time>2015-03-07T09:34:59Z</time>
      </trkpt>
      <trkpt lat="45.34652" lon="5.8633">
        <ele>1471.92</ele>
        <time>2015-03-07T09:35:25Z</time>
      </trkpt>
      <trkpt lat="45.34651" lon="5.86329">
        <ele>1471.92</ele>
        <time>2015-03-07T09:35:52Z</time>
      </trkpt>
      <trkpt lat="45.34653" lon="5.86327">
        <ele>1471.92</ele>
        <time>2015-03-07T09:36:17Z</time>
      </trkpt>
      <trkpt lat="45.34655" lon="5.86326">
        <ele>1472.88</ele>
        <time>2015-03-07T09:36:25Z</time>
      </trkpt>
      <trkpt lat="45.34652" lon="5.86327">
        <ele>1472.88</ele>
        <time>2015-03-07T09:36:44Z</time>
      </trkpt>
      <trkpt lat="45.34652" lon="5.86327">
        <ele>1471.44</ele>
        <time>2015-03-07T09:36:47Z</time>
      </trkpt>
      <trkpt lat="45.34648" lon="5.86329">
        <ele>1470.95</ele>
        <time>2015-03-07T09:37:03Z</time>
      </trkpt>
      <trkpt lat="45.3465" lon="5.86331">
        <ele>1472.4</ele>
        <time>2015-03-07T09:37:19Z</time>
      </trkpt>
      <trkpt lat="45.3465" lon="5.86333">
        <ele>1472.4</ele>
        <time>2015-03-07T09:37:38Z</time>
      </trkpt>
      <trkpt lat="45.34649" lon="5.86331">
        <ele>1472.4</ele>
        <time>2015-03-07T09:37:51Z</time>
      </trkpt>
      <trkpt lat="45.34649" lon="5.8633">
        <ele>1472.4</ele>
        <time>2015-03-07T09:38:05Z</time>
      </trkpt>
      <trkpt lat="45.34648" lon="5.86327">
        <ele>1472.4</ele>
        <time>2015-03-07T09:38:08Z</time>
      </trkpt>
      <trkpt lat="45.34647" lon="5.86322">
        <ele>1472.88</ele>
        <time>2015-03-07T09:38:12Z</time>
      </trkpt>
      <trkpt lat="45.34648" lon="5.863">
        <ele>1473.36</ele>
        <time>2015-03-07T09:38:29Z</time>
      </trkpt>
      <trkpt lat="45.34647" lon="5.86296">
        <ele>1473.84</ele>
        <time>2015-03-07T09:38:33Z</time>
      </trkpt>
      <trkpt lat="45.34646" lon="5.86285">
        <ele>1474.8</ele>
        <time>2015-03-07T09:38:40Z</time>
      </trkpt>
      <trkpt lat="45.34639" lon="5.86268">
        <ele>1474.8</ele>
        <time>2015-03-07T09:38:53Z</time>
      </trkpt>
      <trkpt lat="45.3463" lon="5.86248">
        <ele>1475.76</ele>
        <time>2015-03-07T09:39:07Z</time>
      </trkpt>
      <trkpt lat="45.34624" lon="5.86231">
        <ele>1477.68</ele>
        <time>2015-03-07T09:39:22Z</time>
      </trkpt>
      <trkpt lat="45.34624" lon="5.8622">
        <ele>1478.65</ele>
        <time>2015-03-07T09:39:29Z</time>
      </trkpt>
      <trkpt lat="45.34627" lon="5.86193">
        <ele>1477.2</ele>
        <time>2015-03-07T09:39:41Z</time>
      </trkpt>
      <trkpt lat="45.3463" lon="5.86178">
        <ele>1476.72</ele>
        <time>2015-03-07T09:39:50Z</time>
      </trkpt>
      <trkpt lat="45.34629" lon="5.86172">
        <ele>1476.72</ele>
        <time>2015-03-07T09:39:54Z</time>
      </trkpt>
      <trkpt lat="45.34632" lon="5.86149">
        <ele>1477.2</ele>
        <time>2015-03-07T09:40:07Z</time>
      </trkpt>
      <trkpt lat="45.34632" lon="5.86132">
        <ele>1477.68</ele>
        <time>2015-03-07T09:40:19Z</time>
      </trkpt>
      <trkpt lat="45.34628" lon="5.8611">
        <ele>1480.09</ele>
        <time>2015-03-07T09:40:35Z</time>
      </trkpt>
      <trkpt lat="45.34624" lon="5.86094">
        <ele>1482.01</ele>
        <time>2015-03-07T09:40:47Z</time>
      </trkpt>
      <trkpt lat="45.34626" lon="5.86074">
        <ele>1483.93</ele>
        <time>2015-03-07T09:41:01Z</time>
      </trkpt>
      <trkpt lat="45.34626" lon="5.86064">
        <ele>1484.41</ele>
        <time>2015-03-07T09:41:09Z</time>
      </trkpt>
      <trkpt lat="45.34628" lon="5.86038">
        <ele>1484.89</ele>
        <time>2015-03-07T09:41:20Z</time>
      </trkpt>
      <trkpt lat="45.34628" lon="5.86036">
        <ele>1485.37</ele>
        <time>2015-03-07T09:41:21Z</time>
      </trkpt>
      <trkpt lat="45.34636" lon="5.86013">
        <ele>1485.85</ele>
        <time>2015-03-07T09:41:36Z</time>
      </trkpt>
      <trkpt lat="45.34643" lon="5.86003">
        <ele>1486.34</ele>
        <time>2015-03-07T09:41:46Z</time>
      </trkpt>
      <trkpt lat="45.34647" lon="5.86">
        <ele>1486.34</ele>
        <time>2015-03-07T09:41:51Z</time>
      </trkpt>
      <trkpt lat="45.34654" lon="5.85992">
        <ele>1486.82</ele>
        <time>2015-03-07T09:42:06Z</time>
      </trkpt>
      <trkpt lat="45.34663" lon="5.85982">
        <ele>1486.82</ele>
        <time>2015-03-07T09:42:17Z</time>
      </trkpt>
      <trkpt lat="45.34672" lon="5.85971">
        <ele>1487.78</ele>
        <time>2015-03-07T09:42:30Z</time>
      </trkpt>
      <trkpt lat="45.34683" lon="5.85956">
        <ele>1487.78</ele>
        <time>2015-03-07T09:42:42Z</time>
      </trkpt>
      <trkpt lat="45.3469" lon="5.85939">
        <ele>1487.78</ele>
        <time>2015-03-07T09:42:54Z</time>
      </trkpt>
      <trkpt lat="45.34702" lon="5.85921">
        <ele>1488.26</ele>
        <time>2015-03-07T09:43:06Z</time>
      </trkpt>
      <trkpt lat="45.34714" lon="5.85896">
        <ele>1487.3</ele>
        <time>2015-03-07T09:43:21Z</time>
      </trkpt>
      <trkpt lat="45.34721" lon="5.85885">
        <ele>1487.3</ele>
        <time>2015-03-07T09:43:30Z</time>
      </trkpt>
      <trkpt lat="45.34723" lon="5.85884">
        <ele>1489.22</ele>
        <time>2015-03-07T09:43:32Z</time>
      </trkpt>
      <trkpt lat="45.34736" lon="5.85878">
        <ele>1490.18</ele>
        <time>2015-03-07T09:43:44Z</time>
      </trkpt>
      <trkpt lat="45.34738" lon="5.85876">
        <ele>1490.66</ele>
        <time>2015-03-07T09:43:47Z</time>
      </trkpt>
      <trkpt lat="45.34743" lon="5.85869">
        <ele>1490.66</ele>
        <time>2015-03-07T09:43:52Z</time>
      </trkpt>
      <trkpt lat="45.34755" lon="5.85857">
        <ele>1488.74</ele>
        <time>2015-03-07T09:44:04Z</time>
      </trkpt>
      <trkpt lat="45.34761" lon="5.85852">
        <ele>1488.26</ele>
        <time>2015-03-07T09:44:11Z</time>
      </trkpt>
      <trkpt lat="45.34781" lon="5.85831">
        <ele>1487.78</ele>
        <time>2015-03-07T09:44:28Z</time>
      </trkpt>
      <trkpt lat="45.3479" lon="5.85819">
        <ele>1487.78</ele>
        <time>2015-03-07T09:44:36Z</time>
      </trkpt>
      <trkpt lat="45.34792" lon="5.85814">
        <ele>1487.78</ele>
        <time>2015-03-07T09:44:39Z</time>
      </trkpt>
      <trkpt lat="45.34797" lon="5.8581">
        <ele>1489.22</ele>
        <time>2015-03-07T09:44:46Z</time>
      </trkpt>
      <trkpt lat="45.34808" lon="5.85808">
        <ele>1492.1</ele>
        <time>2015-03-07T09:45:00Z</time>
      </trkpt>
      <trkpt lat="45.3482" lon="5.85799">
        <ele>1495.47</ele>
        <time>2015-03-07T09:45:14Z</time>
      </trkpt>
      <trkpt lat="45.34829" lon="5.858">
        <ele>1497.87</ele>
        <time>2015-03-07T09:45:28Z</time>
      </trkpt>
      <trkpt lat="45.34837" lon="5.85808">
        <ele>1500.76</ele>
        <time>2015-03-07T09:45:41Z</time>
      </trkpt>
      <trkpt lat="45.34847" lon="5.858">
        <ele>1503.64</ele>
        <time>2015-03-07T09:45:55Z</time>
      </trkpt>
      <trkpt lat="45.34855" lon="5.85801">
        <ele>1506.52</ele>
        <time>2015-03-07T09:46:08Z</time>
      </trkpt>
      <trkpt lat="45.34866" lon="5.85799">
        <ele>1508.93</ele>
        <time>2015-03-07T09:46:21Z</time>
      </trkpt>
      <trkpt lat="45.34871" lon="5.85797">
        <ele>1510.37</ele>
        <time>2015-03-07T09:46:27Z</time>
      </trkpt>
      <trkpt lat="45.34883" lon="5.85791">
        <ele>1512.29</ele>
        <time>2015-03-07T09:46:41Z</time>
      </trkpt>
      <trkpt lat="45.34896" lon="5.85787">
        <ele>1515.18</ele>
        <time>2015-03-07T09:46:57Z</time>
      </trkpt>
      <trkpt lat="45.34908" lon="5.85782">
        <ele>1517.58</ele>
        <time>2015-03-07T09:47:11Z</time>
      </trkpt>
      <trkpt lat="45.34918" lon="5.85777">
        <ele>1519.98</ele>
        <time>2015-03-07T09:47:24Z</time>
      </trkpt>
      <trkpt lat="45.34928" lon="5.85774">
        <ele>1523.35</ele>
        <time>2015-03-07T09:47:38Z</time>
      </trkpt>
      <trkpt lat="45.3494" lon="5.85768">
        <ele>1525.27</ele>
        <time>2015-03-07T09:47:53Z</time>
      </trkpt>
      <trkpt lat="45.34949" lon="5.85759">
        <ele>1528.15</ele>
        <time>2015-03-07T09:48:07Z</time>
      </trkpt>
      <trkpt lat="45.34958" lon="5.85752">
        <ele>1530.08</ele>
        <time>2015-03-07T09:48:19Z</time>
      </trkpt>
      <trkpt lat="45.34968" lon="5.85747">
        <ele>1532.96</ele>
        <time>2015-03-07T09:48:33Z</time>
      </trkpt>
      <trkpt lat="45.34977" lon="5.8574">
        <ele>1534.88</ele>
        <time>2015-03-07T09:48:46Z</time>
      </trkpt>
      <trkpt lat="45.34977" lon="5.85739">
        <ele>1534.88</ele>
        <time>2015-03-07T09:48:47Z</time>
      </trkpt>
      <trkpt lat="45.34976" lon="5.85731">
        <ele>1536.32</ele>
        <time>2015-03-07T09:48:54Z</time>
      </trkpt>
      <trkpt lat="45.34972" lon="5.85717">
        <ele>1537.29</ele>
        <time>2015-03-07T09:49:06Z</time>
      </trkpt>
      <trkpt lat="45.34966" lon="5.85703">
        <ele>1539.21</ele>
        <time>2015-03-07T09:49:21Z</time>
      </trkpt>
      <trkpt lat="45.34961" lon="5.85692">
        <ele>1542.09</ele>
        <time>2015-03-07T09:49:34Z</time>
      </trkpt>
      <trkpt lat="45.34968" lon="5.8568">
        <ele>1544.5</ele>
        <time>2015-03-07T09:49:49Z</time>
      </trkpt>
      <trkpt lat="45.34976" lon="5.85673">
        <ele>1547.38</ele>
        <time>2015-03-07T09:50:02Z</time>
      </trkpt>
      <trkpt lat="45.34986" lon="5.85664">
        <ele>1549.78</ele>
        <time>2015-03-07T09:50:17Z</time>
      </trkpt>
      <trkpt lat="45.34999" lon="5.85665">
        <ele>1551.22</ele>
        <time>2015-03-07T09:50:31Z</time>
      </trkpt>
      <trkpt lat="45.35008" lon="5.85659">
        <ele>1553.15</ele>
        <time>2015-03-07T09:50:44Z</time>
      </trkpt>
      <trkpt lat="45.35018" lon="5.85653">
        <ele>1556.03</ele>
        <time>2015-03-07T09:50:58Z</time>
      </trkpt>
      <trkpt lat="45.35022" lon="5.8565">
        <ele>1557.95</ele>
        <time>2015-03-07T09:51:10Z</time>
      </trkpt>
      <trkpt lat="45.35017" lon="5.8564">
        <ele>1560.36</ele>
        <time>2015-03-07T09:51:24Z</time>
      </trkpt>
      <trkpt lat="45.35013" lon="5.85631">
        <ele>1563.24</ele>
        <time>2015-03-07T09:51:38Z</time>
      </trkpt>
      <trkpt lat="45.35002" lon="5.85624">
        <ele>1566.61</ele>
        <time>2015-03-07T09:51:55Z</time>
      </trkpt>
      <trkpt lat="45.34997" lon="5.85621">
        <ele>1568.05</ele>
        <time>2015-03-07T09:52:06Z</time>
      </trkpt>
      <trkpt lat="45.34988" lon="5.8562">
        <ele>1569.49</ele>
        <time>2015-03-07T09:52:19Z</time>
      </trkpt>
      <trkpt lat="45.3498" lon="5.8561">
        <ele>1571.89</ele>
        <time>2015-03-07T09:52:32Z</time>
      </trkpt>
      <trkpt lat="45.34976" lon="5.85597">
        <ele>1574.78</ele>
        <time>2015-03-07T09:52:46Z</time>
      </trkpt>
      <trkpt lat="45.34967" lon="5.85589">
        <ele>1577.18</ele>
        <time>2015-03-07T09:53:02Z</time>
      </trkpt>
      <trkpt lat="45.34966" lon="5.85585">
        <ele>1577.18</ele>
        <time>2015-03-07T09:53:18Z</time>
      </trkpt>
      <trkpt lat="45.34967" lon="5.8558">
        <ele>1577.18</ele>
        <time>2015-03-07T09:53:46Z</time>
      </trkpt>
      <trkpt lat="45.34961" lon="5.85577">
        <ele>1578.14</ele>
        <time>2015-03-07T09:54:05Z</time>
      </trkpt>
      <trkpt lat="45.34954" lon="5.85571">
        <ele>1580.54</ele>
        <time>2015-03-07T09:54:20Z</time>
      </trkpt>
      <trkpt lat="45.34948" lon="5.85563">
        <ele>1583.43</ele>
        <time>2015-03-07T09:54:33Z</time>
      </trkpt>
      <trkpt lat="45.34941" lon="5.85554">
        <ele>1586.31</ele>
        <time>2015-03-07T09:54:48Z</time>
      </trkpt>
      <trkpt lat="45.34936" lon="5.85539">
        <ele>1588.72</ele>
        <time>2015-03-07T09:55:03Z</time>
      </trkpt>
      <trkpt lat="45.34935" lon="5.85533">
        <ele>1591.6</ele>
        <time>2015-03-07T09:55:18Z</time>
      </trkpt>
      <trkpt lat="45.34942" lon="5.85529">
        <ele>1593.52</ele>
        <time>2015-03-07T09:55:31Z</time>
      </trkpt>
      <trkpt lat="45.3495" lon="5.85525">
        <ele>1596.89</ele>
        <time>2015-03-07T09:55:46Z</time>
      </trkpt>
      <trkpt lat="45.34955" lon="5.85519">
        <ele>1599.77</ele>
        <time>2015-03-07T09:55:59Z</time>
      </trkpt>
      <trkpt lat="45.34963" lon="5.85515">
        <ele>1602.17</ele>
        <time>2015-03-07T09:56:11Z</time>
      </trkpt>
      <trkpt lat="45.34972" lon="5.85511">
        <ele>1604.1</ele>
        <time>2015-03-07T09:56:27Z</time>
      </trkpt>
      <trkpt lat="45.34981" lon="5.8551">
        <ele>1606.5</ele>
        <time>2015-03-07T09:56:40Z</time>
      </trkpt>
      <trkpt lat="45.3499" lon="5.85505">
        <ele>1608.42</ele>
        <time>2015-03-07T09:56:54Z</time>
      </trkpt>
      <trkpt lat="45.34991" lon="5.85505">
        <ele>1608.9</ele>
        <time>2015-03-07T09:56:55Z</time>
      </trkpt>
      <trkpt lat="45.35002" lon="5.85504">
        <ele>1609.86</ele>
        <time>2015-03-07T09:57:08Z</time>
      </trkpt>
      <trkpt lat="45.35008" lon="5.85498">
        <ele>1612.75</ele>
        <time>2015-03-07T09:57:22Z</time>
      </trkpt>
      <trkpt lat="45.35003" lon="5.85487">
        <ele>1615.15</ele>
        <time>2015-03-07T09:57:38Z</time>
      </trkpt>
      <trkpt lat="45.34995" lon="5.85481">
        <ele>1617.07</ele>
        <time>2015-03-07T09:57:50Z</time>
      </trkpt>
      <trkpt lat="45.34982" lon="5.85471">
        <ele>1619.48</ele>
        <time>2015-03-07T09:58:08Z</time>
      </trkpt>
      <trkpt lat="45.34982" lon="5.85468">
        <ele>1620.44</ele>
        <time>2015-03-07T09:58:27Z</time>
      </trkpt>
      <trkpt lat="45.34979" lon="5.85469">
        <ele>1619.96</ele>
        <time>2015-03-07T09:58:51Z</time>
      </trkpt>
      <trkpt lat="45.34974" lon="5.85462">
        <ele>1622.84</ele>
        <time>2015-03-07T09:59:02Z</time>
      </trkpt>
      <trkpt lat="45.34965" lon="5.85456">
        <ele>1625.25</ele>
        <time>2015-03-07T09:59:17Z</time>
      </trkpt>
      <trkpt lat="45.34974" lon="5.85453">
        <ele>1627.17</ele>
        <time>2015-03-07T09:59:29Z</time>
      </trkpt>
      <trkpt lat="45.34984" lon="5.85449">
        <ele>1629.09</ele>
        <time>2015-03-07T09:59:42Z</time>
      </trkpt>
      <trkpt lat="45.34994" lon="5.85446">
        <ele>1630.53</ele>
        <time>2015-03-07T09:59:56Z</time>
      </trkpt>
      <trkpt lat="45.35005" lon="5.85443">
        <ele>1632.46</ele>
        <time>2015-03-07T10:00:09Z</time>
      </trkpt>
      <trkpt lat="45.35013" lon="5.85437">
        <ele>1634.86</ele>
        <time>2015-03-07T10:00:23Z</time>
      </trkpt>
      <trkpt lat="45.3502" lon="5.85436">
        <ele>1637.26</ele>
        <time>2015-03-07T10:00:37Z</time>
      </trkpt>
      <trkpt lat="45.35028" lon="5.85434">
        <ele>1639.67</ele>
        <time>2015-03-07T10:00:50Z</time>
      </trkpt>
      <trkpt lat="45.3503" lon="5.8543">
        <ele>1641.11</ele>
        <time>2015-03-07T10:01:02Z</time>
      </trkpt>
      <trkpt lat="45.35026" lon="5.85427">
        <ele>1643.03</ele>
        <time>2015-03-07T10:01:16Z</time>
      </trkpt>
      <trkpt lat="45.35036" lon="5.85423">
        <ele>1645.43</ele>
        <time>2015-03-07T10:01:31Z</time>
      </trkpt>
      <trkpt lat="45.35032" lon="5.85418">
        <ele>1646.4</ele>
        <time>2015-03-07T10:01:41Z</time>
      </trkpt>
      <trkpt lat="45.35025" lon="5.85417">
        <ele>1647.84</ele>
        <time>2015-03-07T10:01:54Z</time>
      </trkpt>
      <trkpt lat="45.35025" lon="5.8542">
        <ele>1648.8</ele>
        <time>2015-03-07T10:02:09Z</time>
      </trkpt>
      <trkpt lat="45.3503" lon="5.85417">
        <ele>1649.28</ele>
        <time>2015-03-07T10:02:34Z</time>
      </trkpt>
      <trkpt lat="45.35034" lon="5.85413">
        <ele>1650.72</ele>
        <time>2015-03-07T10:02:46Z</time>
      </trkpt>
      <trkpt lat="45.3503" lon="5.85411">
        <ele>1651.2</ele>
        <time>2015-03-07T10:02:56Z</time>
      </trkpt>
      <trkpt lat="45.35022" lon="5.85407">
        <ele>1653.12</ele>
        <time>2015-03-07T10:03:10Z</time>
      </trkpt>
      <trkpt lat="45.35014" lon="5.85402">
        <ele>1654.57</ele>
        <time>2015-03-07T10:03:26Z</time>
      </trkpt>
      <trkpt lat="45.35015" lon="5.85402">
        <ele>1656.01</ele>
        <time>2015-03-07T10:03:37Z</time>
      </trkpt>
      <trkpt lat="45.35022" lon="5.854">
        <ele>1657.93</ele>
        <time>2015-03-07T10:03:50Z</time>
      </trkpt>
      <trkpt lat="45.35022" lon="5.85398">
        <ele>1659.37</ele>
        <time>2015-03-07T10:04:03Z</time>
      </trkpt>
      <trkpt lat="45.35013" lon="5.85396">
        <ele>1659.85</ele>
        <time>2015-03-07T10:04:16Z</time>
      </trkpt>
      <trkpt lat="45.35008" lon="5.85389">
        <ele>1661.78</ele>
        <time>2015-03-07T10:04:29Z</time>
      </trkpt>
      <trkpt lat="45.35" lon="5.85384">
        <ele>1662.74</ele>
        <time>2015-03-07T10:04:42Z</time>
      </trkpt>
      <trkpt lat="45.34993" lon="5.8538">
        <ele>1663.7</ele>
        <time>2015-03-07T10:04:55Z</time>
      </trkpt>
      <trkpt lat="45.34985" lon="5.85375">
        <ele>1666.1</ele>
        <time>2015-03-07T10:05:12Z</time>
      </trkpt>
      <trkpt lat="45.34978" lon="5.85371">
        <ele>1668.02</ele>
        <time>2015-03-07T10:05:26Z</time>
      </trkpt>
      <trkpt lat="45.34968" lon="5.85364">
        <ele>1669.95</ele>
        <time>2015-03-07T10:05:42Z</time>
      </trkpt>
      <trkpt lat="45.34958" lon="5.85357">
        <ele>1671.87</ele>
        <time>2015-03-07T10:05:58Z</time>
      </trkpt>
      <trkpt lat="45.34947" lon="5.85351">
        <ele>1673.79</ele>
        <time>2015-03-07T10:06:14Z</time>
      </trkpt>
      <trkpt lat="45.34938" lon="5.85347">
        <ele>1674.75</ele>
        <time>2015-03-07T10:06:29Z</time>
      </trkpt>
      <trkpt lat="45.3493" lon="5.85343">
        <ele>1676.68</ele>
        <time>2015-03-07T10:06:42Z</time>
      </trkpt>
      <trkpt lat="45.34922" lon="5.85337">
        <ele>1678.6</ele>
        <time>2015-03-07T10:06:56Z</time>
      </trkpt>
      <trkpt lat="45.34919" lon="5.85336">
        <ele>1679.08</ele>
        <time>2015-03-07T10:07:13Z</time>
      </trkpt>
      <trkpt lat="45.34913" lon="5.85332">
        <ele>1680.52</ele>
        <time>2015-03-07T10:07:32Z</time>
      </trkpt>
      <trkpt lat="45.34905" lon="5.85323">
        <ele>1682.93</ele>
        <time>2015-03-07T10:07:47Z</time>
      </trkpt>
      <trkpt lat="45.34906" lon="5.85318">
        <ele>1684.85</ele>
        <time>2015-03-07T10:08:00Z</time>
      </trkpt>
      <trkpt lat="45.34915" lon="5.85314">
        <ele>1687.25</ele>
        <time>2015-03-07T10:08:15Z</time>
      </trkpt>
      <trkpt lat="45.34924" lon="5.85311">
        <ele>1689.17</ele>
        <time>2015-03-07T10:08:29Z</time>
      </trkpt>
      <trkpt lat="45.34933" lon="5.85307">
        <ele>1692.54</ele>
        <time>2015-03-07T10:08:44Z</time>
      </trkpt>
      <trkpt lat="45.34941" lon="5.85303">
        <ele>1694.94</ele>
        <time>2015-03-07T10:08:59Z</time>
      </trkpt>
      <trkpt lat="45.34949" lon="5.85299">
        <ele>1697.83</ele>
        <time>2015-03-07T10:09:14Z</time>
      </trkpt>
      <trkpt lat="45.34957" lon="5.85296">
        <ele>1699.75</ele>
        <time>2015-03-07T10:09:30Z</time>
      </trkpt>
      <trkpt lat="45.34967" lon="5.85294">
        <ele>1703.11</ele>
        <time>2015-03-07T10:09:46Z</time>
      </trkpt>
      <trkpt lat="45.34977" lon="5.85292">
        <ele>1705.52</ele>
        <time>2015-03-07T10:10:05Z</time>
      </trkpt>
      <trkpt lat="45.34981" lon="5.85289">
        <ele>1706.96</ele>
        <time>2015-03-07T10:10:19Z</time>
      </trkpt>
      <trkpt lat="45.34975" lon="5.85286">
        <ele>1707.92</ele>
        <time>2015-03-07T10:10:34Z</time>
      </trkpt>
      <trkpt lat="45.34967" lon="5.8528">
        <ele>1710.32</ele>
        <time>2015-03-07T10:10:49Z</time>
      </trkpt>
      <trkpt lat="45.34959" lon="5.85274">
        <ele>1711.76</ele>
        <time>2015-03-07T10:11:02Z</time>
      </trkpt>
      <trkpt lat="45.34953" lon="5.8527">
        <ele>1714.17</ele>
        <time>2015-03-07T10:11:18Z</time>
      </trkpt>
      <trkpt lat="45.34947" lon="5.85267">
        <ele>1716.57</ele>
        <time>2015-03-07T10:11:33Z</time>
      </trkpt>
      <trkpt lat="45.34941" lon="5.85263">
        <ele>1718.97</ele>
        <time>2015-03-07T10:11:49Z</time>
      </trkpt>
      <trkpt lat="45.34945" lon="5.85262">
        <ele>1719.46</ele>
        <time>2015-03-07T10:12:00Z</time>
      </trkpt>
      <trkpt lat="45.34954" lon="5.85256">
        <ele>1721.86</ele>
        <time>2015-03-07T10:12:13Z</time>
      </trkpt>
      <trkpt lat="45.34961" lon="5.85253">
        <ele>1724.26</ele>
        <time>2015-03-07T10:12:27Z</time>
      </trkpt>
      <trkpt lat="45.34955" lon="5.85254">
        <ele>1725.22</ele>
        <time>2015-03-07T10:12:38Z</time>
      </trkpt>
      <trkpt lat="45.34953" lon="5.85252">
        <ele>1726.18</ele>
        <time>2015-03-07T10:12:45Z</time>
      </trkpt>
      <trkpt lat="45.34961" lon="5.8525">
        <ele>1728.59</ele>
        <time>2015-03-07T10:13:00Z</time>
      </trkpt>
      <trkpt lat="45.34963" lon="5.85248">
        <ele>1730.03</ele>
        <time>2015-03-07T10:13:14Z</time>
      </trkpt>
      <trkpt lat="45.34965" lon="5.85246">
        <ele>1730.99</ele>
        <time>2015-03-07T10:13:27Z</time>
      </trkpt>
      <trkpt lat="45.34972" lon="5.85242">
        <ele>1734.36</ele>
        <time>2015-03-07T10:13:41Z</time>
      </trkpt>
      <trkpt lat="45.34978" lon="5.8524">
        <ele>1735.8</ele>
        <time>2015-03-07T10:13:54Z</time>
      </trkpt>
      <trkpt lat="45.34981" lon="5.85235">
        <ele>1738.2</ele>
        <time>2015-03-07T10:14:09Z</time>
      </trkpt>
      <trkpt lat="45.34982" lon="5.85232">
        <ele>1740.12</ele>
        <time>2015-03-07T10:14:21Z</time>
      </trkpt>
      <trkpt lat="45.34983" lon="5.85232">
        <ele>1740.6</ele>
        <time>2015-03-07T10:14:24Z</time>
      </trkpt>
      <trkpt lat="45.34977" lon="5.85227">
        <ele>1741.57</ele>
        <time>2015-03-07T10:14:37Z</time>
      </trkpt>
      <trkpt lat="45.3497" lon="5.85221">
        <ele>1744.45</ele>
        <time>2015-03-07T10:14:52Z</time>
      </trkpt>
      <trkpt lat="45.34963" lon="5.85213">
        <ele>1746.85</ele>
        <time>2015-03-07T10:15:06Z</time>
      </trkpt>
      <trkpt lat="45.34962" lon="5.85209">
        <ele>1749.26</ele>
        <time>2015-03-07T10:15:20Z</time>
      </trkpt>
      <trkpt lat="45.34971" lon="5.85205">
        <ele>1750.7</ele>
        <time>2015-03-07T10:15:36Z</time>
      </trkpt>
      <trkpt lat="45.34978" lon="5.85201">
        <ele>1753.1</ele>
        <time>2015-03-07T10:15:49Z</time>
      </trkpt>
      <trkpt lat="45.34987" lon="5.85197">
        <ele>1755.5</ele>
        <time>2015-03-07T10:16:06Z</time>
      </trkpt>
      <trkpt lat="45.34993" lon="5.85193">
        <ele>1758.39</ele>
        <time>2015-03-07T10:16:21Z</time>
      </trkpt>
      <trkpt lat="45.35" lon="5.85187">
        <ele>1760.79</ele>
        <time>2015-03-07T10:16:35Z</time>
      </trkpt>
      <trkpt lat="45.35009" lon="5.8518">
        <ele>1764.16</ele>
        <time>2015-03-07T10:16:52Z</time>
      </trkpt>
      <trkpt lat="45.35016" lon="5.85175">
        <ele>1766.56</ele>
        <time>2015-03-07T10:17:06Z</time>
      </trkpt>
      <trkpt lat="45.3502" lon="5.8517">
        <ele>1768.48</ele>
        <time>2015-03-07T10:17:20Z</time>
      </trkpt>
      <trkpt lat="45.35026" lon="5.85168">
        <ele>1771.37</ele>
        <time>2015-03-07T10:17:35Z</time>
      </trkpt>
      <trkpt lat="45.35024" lon="5.85157">
        <ele>1772.81</ele>
        <time>2015-03-07T10:17:47Z</time>
      </trkpt>
      <trkpt lat="45.35023" lon="5.85155">
        <ele>1774.73</ele>
        <time>2015-03-07T10:17:50Z</time>
      </trkpt>
      <trkpt lat="45.35016" lon="5.8515">
        <ele>1776.17</ele>
        <time>2015-03-07T10:18:05Z</time>
      </trkpt>
      <trkpt lat="45.35011" lon="5.85145">
        <ele>1778.58</ele>
        <time>2015-03-07T10:18:18Z</time>
      </trkpt>
      <trkpt lat="45.35006" lon="5.85141">
        <ele>1779.06</ele>
        <time>2015-03-07T10:18:44Z</time>
      </trkpt>
      <trkpt lat="45.34997" lon="5.85138">
        <ele>1780.5</ele>
        <time>2015-03-07T10:18:58Z</time>
      </trkpt>
      <trkpt lat="45.34996" lon="5.85138">
        <ele>1781.46</ele>
        <time>2015-03-07T10:18:59Z</time>
      </trkpt>
      <trkpt lat="45.34981" lon="5.85135">
        <ele>1782.42</ele>
        <time>2015-03-07T10:19:16Z</time>
      </trkpt>
      <trkpt lat="45.34972" lon="5.85128">
        <ele>1784.82</ele>
        <time>2015-03-07T10:19:30Z</time>
      </trkpt>
      <trkpt lat="45.34964" lon="5.85121">
        <ele>1788.19</ele>
        <time>2015-03-07T10:19:44Z</time>
      </trkpt>
      <trkpt lat="45.34961" lon="5.8511">
        <ele>1790.59</ele>
        <time>2015-03-07T10:19:57Z</time>
      </trkpt>
      <trkpt lat="45.3496" lon="5.85105">
        <ele>1791.07</ele>
        <time>2015-03-07T10:20:02Z</time>
      </trkpt>
      <trkpt lat="45.34949" lon="5.85095">
        <ele>1790.59</ele>
        <time>2015-03-07T10:20:15Z</time>
      </trkpt>
      <trkpt lat="45.34943" lon="5.85092">
        <ele>1792.03</ele>
        <time>2015-03-07T10:20:22Z</time>
      </trkpt>
      <trkpt lat="45.34926" lon="5.85085">
        <ele>1793</ele>
        <time>2015-03-07T10:20:38Z</time>
      </trkpt>
      <trkpt lat="45.34925" lon="5.85085">
        <ele>1793</ele>
        <time>2015-03-07T10:20:39Z</time>
      </trkpt>
      <trkpt lat="45.34908" lon="5.85076">
        <ele>1793.96</ele>
        <time>2015-03-07T10:20:54Z</time>
      </trkpt>
      <trkpt lat="45.34894" lon="5.85076">
        <ele>1795.88</ele>
        <time>2015-03-07T10:21:09Z</time>
      </trkpt>
      <trkpt lat="45.34892" lon="5.85075">
        <ele>1795.88</ele>
        <time>2015-03-07T10:21:12Z</time>
      </trkpt>
      <trkpt lat="45.34891" lon="5.85077">
        <ele>1797.32</ele>
        <time>2015-03-07T10:21:24Z</time>
      </trkpt>
      <trkpt lat="45.3489" lon="5.85076">
        <ele>1795.4</ele>
        <time>2015-03-07T10:21:40Z</time>
      </trkpt>
      <trkpt lat="45.34892" lon="5.8508">
        <ele>1796.36</ele>
        <time>2015-03-07T10:21:50Z</time>
      </trkpt>
      <trkpt lat="45.34892" lon="5.8508">
        <ele>1796.36</ele>
        <time>2015-03-07T10:21:51Z</time>
      </trkpt>
      <trkpt lat="45.34895" lon="5.85078">
        <ele>1794.44</ele>
        <time>2015-03-07T10:21:56Z</time>
      </trkpt>
      <trkpt lat="45.34895" lon="5.85077">
        <ele>1795.88</ele>
        <time>2015-03-07T10:21:58Z</time>
      </trkpt>
      <trkpt lat="45.34895" lon="5.85078">
        <ele>1794.44</ele>
        <time>2015-03-07T10:22:01Z</time>
      </trkpt>
      <trkpt lat="45.34895" lon="5.85075">
        <ele>1795.88</ele>
        <time>2015-03-07T10:22:04Z</time>
      </trkpt>
      <trkpt lat="45.34892" lon="5.85068">
        <ele>1793.96</ele>
        <time>2015-03-07T10:22:21Z</time>
      </trkpt>
      <trkpt lat="45.34892" lon="5.85067">
        <ele>1795.4</ele>
        <time>2015-03-07T10:22:29Z</time>
      </trkpt>
      <trkpt lat="45.34892" lon="5.85068">
        <ele>1795.4</ele>
        <time>2015-03-07T10:22:37Z</time>
      </trkpt>
      <trkpt lat="45.34902" lon="5.85049">
        <ele>1791.55</ele>
        <time>2015-03-07T10:22:47Z</time>
      </trkpt>
      <trkpt lat="45.34905" lon="5.85027">
        <ele>1788.67</ele>
        <time>2015-03-07T10:22:51Z</time>
      </trkpt>
      <trkpt lat="45.34908" lon="5.85022">
        <ele>1787.23</ele>
        <time>2015-03-07T10:22:59Z</time>
      </trkpt>
      <trkpt lat="45.34908" lon="5.85022">
        <ele>1786.75</ele>
        <time>2015-03-07T10:23:03Z</time>
      </trkpt>
      <trkpt lat="45.34901" lon="5.85024">
        <ele>1787.23</ele>
        <time>2015-03-07T10:23:09Z</time>
      </trkpt>
      <trkpt lat="45.34887" lon="5.85026">
        <ele>1785.79</ele>
        <time>2015-03-07T10:23:18Z</time>
      </trkpt>
      <trkpt lat="45.34882" lon="5.85024">
        <ele>1787.23</ele>
        <time>2015-03-07T10:23:24Z</time>
      </trkpt>
      <trkpt lat="45.34873" lon="5.85024">
        <ele>1785.79</ele>
        <time>2015-03-07T10:23:34Z</time>
      </trkpt>
      <trkpt lat="45.34865" lon="5.85024">
        <ele>1786.75</ele>
        <time>2015-03-07T10:23:42Z</time>
      </trkpt>
      <trkpt lat="45.34864" lon="5.85025">
        <ele>1786.75</ele>
        <time>2015-03-07T10:23:43Z</time>
      </trkpt>
      <trkpt lat="45.34862" lon="5.85027">
        <ele>1787.23</ele>
        <time>2015-03-07T10:23:46Z</time>
      </trkpt>
      <trkpt lat="45.34858" lon="5.85034">
        <ele>1786.75</ele>
        <time>2015-03-07T10:23:57Z</time>
      </trkpt>
      <trkpt lat="45.34854" lon="5.85038">
        <ele>1786.27</ele>
        <time>2015-03-07T10:24:07Z</time>
      </trkpt>
      <trkpt lat="45.34851" lon="5.85039">
        <ele>1786.27</ele>
        <time>2015-03-07T10:24:10Z</time>
      </trkpt>
      <trkpt lat="45.3484" lon="5.85045">
        <ele>1783.86</ele>
        <time>2015-03-07T10:24:15Z</time>
      </trkpt>
      <trkpt lat="45.34839" lon="5.85045">
        <ele>1782.9</ele>
        <time>2015-03-07T10:24:23Z</time>
      </trkpt>
      <trkpt lat="45.34838" lon="5.85045">
        <ele>1782.9</ele>
        <time>2015-03-07T10:24:29Z</time>
      </trkpt>
      <trkpt lat="45.3483" lon="5.85043">
        <ele>1781.46</ele>
        <time>2015-03-07T10:24:39Z</time>
      </trkpt>
      <trkpt lat="45.34832" lon="5.85033">
        <ele>1779.06</ele>
        <time>2015-03-07T10:24:49Z</time>
      </trkpt>
      <trkpt lat="45.34831" lon="5.85033">
        <ele>1779.06</ele>
        <time>2015-03-07T10:24:57Z</time>
      </trkpt>
      <trkpt lat="45.34827" lon="5.85035">
        <ele>1780.98</ele>
        <time>2015-03-07T10:25:02Z</time>
      </trkpt>
      <trkpt lat="45.34822" lon="5.85036">
        <ele>1780.98</ele>
        <time>2015-03-07T10:25:06Z</time>
      </trkpt>
      <trkpt lat="45.34812" lon="5.85045">
        <ele>1779.54</ele>
        <time>2015-03-07T10:25:18Z</time>
      </trkpt>
      <trkpt lat="45.34802" lon="5.85051">
        <ele>1781.46</ele>
        <time>2015-03-07T10:25:31Z</time>
      </trkpt>
      <trkpt lat="45.34792" lon="5.85049">
        <ele>1781.46</ele>
        <time>2015-03-07T10:25:43Z</time>
      </trkpt>
      <trkpt lat="45.34785" lon="5.85047">
        <ele>1782.42</ele>
        <time>2015-03-07T10:25:54Z</time>
      </trkpt>
      <trkpt lat="45.34781" lon="5.85047">
        <ele>1782.9</ele>
        <time>2015-03-07T10:26:04Z</time>
      </trkpt>
      <trkpt lat="45.34778" lon="5.85048">
        <ele>1783.38</ele>
        <time>2015-03-07T10:26:15Z</time>
      </trkpt>
      <trkpt lat="45.34777" lon="5.85049">
        <ele>1782.9</ele>
        <time>2015-03-07T10:26:19Z</time>
      </trkpt>
      <trkpt lat="45.34777" lon="5.85047">
        <ele>1782.9</ele>
        <time>2015-03-07T10:26:29Z</time>
      </trkpt>
      <trkpt lat="45.34773" lon="5.85042">
        <ele>1783.38</ele>
        <time>2015-03-07T10:26:59Z</time>
      </trkpt>
      <trkpt lat="45.34774" lon="5.85042">
        <ele>1781.46</ele>
        <time>2015-03-07T10:27:19Z</time>
      </trkpt>
      <trkpt lat="45.34774" lon="5.85045">
        <ele>1781.94</ele>
        <time>2015-03-07T10:27:31Z</time>
      </trkpt>
      <trkpt lat="45.34774" lon="5.85045">
        <ele>1782.9</ele>
        <time>2015-03-07T10:27:44Z</time>
      </trkpt>
      <trkpt lat="45.34776" lon="5.85045">
        <ele>1781.94</ele>
        <time>2015-03-07T10:28:01Z</time>
      </trkpt>
      <trkpt lat="45.34774" lon="5.85045">
        <ele>1782.9</ele>
        <time>2015-03-07T10:28:33Z</time>
      </trkpt>
      <trkpt lat="45.34774" lon="5.85043">
        <ele>1782.9</ele>
        <time>2015-03-07T10:28:55Z</time>
      </trkpt>
      <trkpt lat="45.34775" lon="5.85045">
        <ele>1781.94</ele>
        <time>2015-03-07T10:29:20Z</time>
      </trkpt>
      <trkpt lat="45.34775" lon="5.85043">
        <ele>1781.94</ele>
        <time>2015-03-07T10:29:44Z</time>
      </trkpt>
      <trkpt lat="45.34776" lon="5.85042">
        <ele>1781.46</ele>
        <time>2015-03-07T10:30:12Z</time>
      </trkpt>
      <trkpt lat="45.34776" lon="5.85042">
        <ele>1781.46</ele>
        <time>2015-03-07T10:30:34Z</time>
      </trkpt>
      <trkpt lat="45.34779" lon="5.85045">
        <ele>1781.46</ele>
        <time>2015-03-07T10:31:02Z</time>
      </trkpt>
      <trkpt lat="45.34777" lon="5.85045">
        <ele>1781.46</ele>
        <time>2015-03-07T10:31:32Z</time>
      </trkpt>
      <trkpt lat="45.34777" lon="5.85046">
        <ele>1781.46</ele>
        <time>2015-03-07T10:32:03Z</time>
      </trkpt>
      <trkpt lat="45.34776" lon="5.85043">
        <ele>1781.46</ele>
        <time>2015-03-07T10:32:42Z</time>
      </trkpt>
      <trkpt lat="45.34776" lon="5.85044">
        <ele>1781.46</ele>
        <time>2015-03-07T10:33:19Z</time>
      </trkpt>
      <trkpt lat="45.34773" lon="5.85042">
        <ele>1780.98</ele>
        <time>2015-03-07T10:33:55Z</time>
      </trkpt>
      <trkpt lat="45.34774" lon="5.85043">
        <ele>1780.98</ele>
        <time>2015-03-07T10:34:24Z</time>
      </trkpt>
      <trkpt lat="45.34774" lon="5.85044">
        <ele>1780.98</ele>
        <time>2015-03-07T10:34:54Z</time>
      </trkpt>
      <trkpt lat="45.34775" lon="5.85042">
        <ele>1780.5</ele>
        <time>2015-03-07T10:35:26Z</time>
      </trkpt>
      <trkpt lat="45.34774" lon="5.85044">
        <ele>1780.5</ele>
        <time>2015-03-07T10:36:04Z</time>
      </trkpt>
      <trkpt lat="45.34774" lon="5.85044">
        <ele>1780.5</ele>
        <time>2015-03-07T10:36:28Z</time>
      </trkpt>
      <trkpt lat="45.34774" lon="5.85045">
        <ele>1781.46</ele>
        <time>2015-03-07T10:36:52Z</time>
      </trkpt>
      <trkpt lat="45.34776" lon="5.85046">
        <ele>1781.46</ele>
        <time>2015-03-07T10:37:23Z</time>
      </trkpt>
      <trkpt lat="45.34776" lon="5.85048">
        <ele>1781.46</ele>
        <time>2015-03-07T10:37:53Z</time>
      </trkpt>
      <trkpt lat="45.34778" lon="5.85047">
        <ele>1781.46</ele>
        <time>2015-03-07T10:38:25Z</time>
      </trkpt>
      <trkpt lat="45.34777" lon="5.85048">
        <ele>1781.46</ele>
        <time>2015-03-07T10:38:58Z</time>
      </trkpt>
      <trkpt lat="45.34777" lon="5.85051">
        <ele>1780.98</ele>
        <time>2015-03-07T10:39:35Z</time>
      </trkpt>
      <trkpt lat="45.34777" lon="5.85052">
        <ele>1780.98</ele>
        <time>2015-03-07T10:40:12Z</time>
      </trkpt>
      <trkpt lat="45.34775" lon="5.85052">
        <ele>1780.5</ele>
        <time>2015-03-07T10:40:41Z</time>
      </trkpt>
      <trkpt lat="45.34776" lon="5.85051">
        <ele>1780.5</ele>
        <time>2015-03-07T10:41:06Z</time>
      </trkpt>
      <trkpt lat="45.34776" lon="5.85051">
        <ele>1782.42</ele>
        <time>2015-03-07T10:41:08Z</time>
      </trkpt>
      <trkpt lat="45.34776" lon="5.85052">
        <ele>1780.98</ele>
        <time>2015-03-07T10:41:11Z</time>
      </trkpt>
      <trkpt lat="45.34775" lon="5.85053">
        <ele>1780.5</ele>
        <time>2015-03-07T10:41:40Z</time>
      </trkpt>
      <trkpt lat="45.34773" lon="5.85054">
        <ele>1780.5</ele>
        <time>2015-03-07T10:41:58Z</time>
      </trkpt>
      <trkpt lat="45.34773" lon="5.85057">
        <ele>1780.02</ele>
        <time>2015-03-07T10:42:26Z</time>
      </trkpt>
      <trkpt lat="45.34775" lon="5.85056">
        <ele>1780.98</ele>
        <time>2015-03-07T10:42:55Z</time>
      </trkpt>
      <trkpt lat="45.34774" lon="5.85054">
        <ele>1780.98</ele>
        <time>2015-03-07T10:43:24Z</time>
      </trkpt>
      <trkpt lat="45.34772" lon="5.85053">
        <ele>1780.98</ele>
        <time>2015-03-07T10:43:48Z</time>
      </trkpt>
      <trkpt lat="45.34774" lon="5.8505">
        <ele>1780.98</ele>
        <time>2015-03-07T10:44:10Z</time>
      </trkpt>
      <trkpt lat="45.34771" lon="5.85047">
        <ele>1775.69</ele>
        <time>2015-03-07T10:44:33Z</time>
      </trkpt>
      <trkpt lat="45.34771" lon="5.85047">
        <ele>1783.38</ele>
        <time>2015-03-07T10:44:34Z</time>
      </trkpt>
      <trkpt lat="45.34771" lon="5.85046">
        <ele>1780.02</ele>
        <time>2015-03-07T10:44:35Z</time>
      </trkpt>
      <trkpt lat="45.34771" lon="5.85047">
        <ele>1779.54</ele>
        <time>2015-03-07T10:45:02Z</time>
      </trkpt>
      <trkpt lat="45.34775" lon="5.85049">
        <ele>1779.54</ele>
        <time>2015-03-07T10:45:25Z</time>
      </trkpt>
      <trkpt lat="45.34778" lon="5.85053">
        <ele>1779.06</ele>
        <time>2015-03-07T10:45:56Z</time>
      </trkpt>
      <trkpt lat="45.34779" lon="5.85053">
        <ele>1779.06</ele>
        <time>2015-03-07T10:46:31Z</time>
      </trkpt>
      <trkpt lat="45.34784" lon="5.85052">
        <ele>1778.58</ele>
        <time>2015-03-07T10:46:38Z</time>
      </trkpt>
      <trkpt lat="45.34792" lon="5.85054">
        <ele>1776.65</ele>
        <time>2015-03-07T10:46:49Z</time>
      </trkpt>
      <trkpt lat="45.34795" lon="5.85046">
        <ele>1772.81</ele>
        <time>2015-03-07T10:46:52Z</time>
      </trkpt>
      <trkpt lat="45.34795" lon="5.85045">
        <ele>1771.85</ele>
        <time>2015-03-07T10:47:06Z</time>
      </trkpt>
      <trkpt lat="45.34795" lon="5.85044">
        <ele>1771.37</ele>
        <time>2015-03-07T10:47:07Z</time>
      </trkpt>
      <trkpt lat="45.34797" lon="5.8504">
        <ele>1768.96</ele>
        <time>2015-03-07T10:47:13Z</time>
      </trkpt>
      <trkpt lat="45.34799" lon="5.85038">
        <ele>1764.16</ele>
        <time>2015-03-07T10:47:15Z</time>
      </trkpt>
      <trkpt lat="45.34799" lon="5.85038">
        <ele>1764.16</ele>
        <time>2015-03-07T10:47:16Z</time>
      </trkpt>
      <trkpt lat="45.34799" lon="5.85038">
        <ele>1764.16</ele>
        <time>2015-03-07T10:47:17Z</time>
      </trkpt>
      <trkpt lat="45.348" lon="5.85034">
        <ele>1760.79</ele>
        <time>2015-03-07T10:47:20Z</time>
      </trkpt>
      <trkpt lat="45.34798" lon="5.85034">
        <ele>1760.79</ele>
        <time>2015-03-07T10:47:21Z</time>
      </trkpt>
      <trkpt lat="45.34799" lon="5.85034">
        <ele>1760.79</ele>
        <time>2015-03-07T10:47:22Z</time>
      </trkpt>
      <trkpt lat="45.348" lon="5.85029">
        <ele>1756.95</ele>
        <time>2015-03-07T10:47:25Z</time>
      </trkpt>
      <trkpt lat="45.34801" lon="5.85027">
        <ele>1757.43</ele>
        <time>2015-03-07T10:47:27Z</time>
      </trkpt>
      <trkpt lat="45.34799" lon="5.85023">
        <ele>1753.1</ele>
        <time>2015-03-07T10:47:30Z</time>
      </trkpt>
      <trkpt lat="45.348" lon="5.85022">
        <ele>1750.22</ele>
        <time>2015-03-07T10:47:35Z</time>
      </trkpt>
      <trkpt lat="45.34802" lon="5.85021">
        <ele>1749.74</ele>
        <time>2015-03-07T10:47:36Z</time>
      </trkpt>
      <trkpt lat="45.34802" lon="5.85012">
        <ele>1748.29</ele>
        <time>2015-03-07T10:47:45Z</time>
      </trkpt>
      <trkpt lat="45.34803" lon="5.85012">
        <ele>1746.37</ele>
        <time>2015-03-07T10:47:48Z</time>
      </trkpt>
      <trkpt lat="45.34801" lon="5.85008">
        <ele>1740.6</ele>
        <time>2015-03-07T10:47:51Z</time>
      </trkpt>
      <trkpt lat="45.348" lon="5.85009">
        <ele>1741.08</ele>
        <time>2015-03-07T10:47:52Z</time>
      </trkpt>
      <trkpt lat="45.348" lon="5.85009">
        <ele>1736.76</ele>
        <time>2015-03-07T10:48:04Z</time>
      </trkpt>
      <trkpt lat="45.348" lon="5.85008">
        <ele>1736.76</ele>
        <time>2015-03-07T10:48:05Z</time>
      </trkpt>
      <trkpt lat="45.348" lon="5.85005">
        <ele>1733.39</ele>
        <time>2015-03-07T10:48:08Z</time>
      </trkpt>
      <trkpt lat="45.348" lon="5.85004">
        <ele>1730.51</ele>
        <time>2015-03-07T10:48:13Z</time>
      </trkpt>
      <trkpt lat="45.34801" lon="5.85003">
        <ele>1730.51</ele>
        <time>2015-03-07T10:48:14Z</time>
      </trkpt>
      <trkpt lat="45.34801" lon="5.85">
        <ele>1726.18</ele>
        <time>2015-03-07T10:48:17Z</time>
      </trkpt>
      <trkpt lat="45.34799" lon="5.84999">
        <ele>1724.74</ele>
        <time>2015-03-07T10:48:21Z</time>
      </trkpt>
      <trkpt lat="45.348" lon="5.84992">
        <ele>1721.86</ele>
        <time>2015-03-07T10:48:28Z</time>
      </trkpt>
      <trkpt lat="45.34803" lon="5.84984">
        <ele>1719.94</ele>
        <time>2015-03-07T10:48:36Z</time>
      </trkpt>
      <trkpt lat="45.34802" lon="5.84978">
        <ele>1715.61</ele>
        <time>2015-03-07T10:48:39Z</time>
      </trkpt>
      <trkpt lat="45.34801" lon="5.84978">
        <ele>1715.61</ele>
        <time>2015-03-07T10:48:40Z</time>
      </trkpt>
      <trkpt lat="45.348" lon="5.8497">
        <ele>1714.17</ele>
        <time>2015-03-07T10:48:46Z</time>
      </trkpt>
      <trkpt lat="45.34803" lon="5.84963">
        <ele>1710.32</ele>
        <time>2015-03-07T10:48:49Z</time>
      </trkpt>
      <trkpt lat="45.34808" lon="5.84961">
        <ele>1708.4</ele>
        <time>2015-03-07T10:48:51Z</time>
      </trkpt>
      <trkpt lat="45.3481" lon="5.8496">
        <ele>1708.4</ele>
        <time>2015-03-07T10:48:54Z</time>
      </trkpt>
      <trkpt lat="45.34815" lon="5.84956">
        <ele>1706.96</ele>
        <time>2015-03-07T10:48:57Z</time>
      </trkpt>
      <trkpt lat="45.34816" lon="5.84951">
        <ele>1706.96</ele>
        <time>2015-03-07T10:48:59Z</time>
      </trkpt>
      <trkpt lat="45.34815" lon="5.84948">
        <ele>1703.59</ele>
        <time>2015-03-07T10:49:02Z</time>
      </trkpt>
      <trkpt lat="45.34813" lon="5.84945">
        <ele>1700.71</ele>
        <time>2015-03-07T10:49:07Z</time>
      </trkpt>
      <trkpt lat="45.34812" lon="5.84941">
        <ele>1696.86</ele>
        <time>2015-03-07T10:49:10Z</time>
      </trkpt>
      <trkpt lat="45.34808" lon="5.84938">
        <ele>1692.54</ele>
        <time>2015-03-07T10:49:12Z</time>
      </trkpt>
      <trkpt lat="45.34802" lon="5.84937">
        <ele>1691.58</ele>
        <time>2015-03-07T10:49:14Z</time>
      </trkpt>
      <trkpt lat="45.34794" lon="5.84936">
        <ele>1689.65</ele>
        <time>2015-03-07T10:49:18Z</time>
      </trkpt>
      <trkpt lat="45.34786" lon="5.84933">
        <ele>1685.81</ele>
        <time>2015-03-07T10:49:20Z</time>
      </trkpt>
      <trkpt lat="45.34772" lon="5.84931">
        <ele>1681.96</ele>
        <time>2015-03-07T10:49:22Z</time>
      </trkpt>
      <trkpt lat="45.3476" lon="5.84929">
        <ele>1680.52</ele>
        <time>2015-03-07T10:49:24Z</time>
      </trkpt>
      <trkpt lat="45.34744" lon="5.84926">
        <ele>1678.6</ele>
        <time>2015-03-07T10:49:27Z</time>
      </trkpt>
      <trkpt lat="45.34735" lon="5.84922">
        <ele>1679.56</ele>
        <time>2015-03-07T10:49:35Z</time>
      </trkpt>
      <trkpt lat="45.34732" lon="5.84916">
        <ele>1679.56</ele>
        <time>2015-03-07T10:50:00Z</time>
      </trkpt>
      <trkpt lat="45.34731" lon="5.84914">
        <ele>1679.08</ele>
        <time>2015-03-07T10:50:03Z</time>
      </trkpt>
      <trkpt lat="45.34722" lon="5.84906">
        <ele>1676.2</ele>
        <time>2015-03-07T10:50:07Z</time>
      </trkpt>
      <trkpt lat="45.34712" lon="5.84899">
        <ele>1671.87</ele>
        <time>2015-03-07T10:50:09Z</time>
      </trkpt>
      <trkpt lat="45.34706" lon="5.84893">
        <ele>1670.91</ele>
        <time>2015-03-07T10:50:10Z</time>
      </trkpt>
      <trkpt lat="45.34694" lon="5.8488">
        <ele>1669.95</ele>
        <time>2015-03-07T10:50:12Z</time>
      </trkpt>
      <trkpt lat="45.34688" lon="5.84875">
        <ele>1666.1</ele>
        <time>2015-03-07T10:50:13Z</time>
      </trkpt>
      <trkpt lat="45.34664" lon="5.84858">
        <ele>1661.78</ele>
        <time>2015-03-07T10:50:17Z</time>
      </trkpt>
      <trkpt lat="45.34652" lon="5.84851">
        <ele>1660.33</ele>
        <time>2015-03-07T10:50:19Z</time>
      </trkpt>
      <trkpt lat="45.34639" lon="5.84843">
        <ele>1658.41</ele>
        <time>2015-03-07T10:50:22Z</time>
      </trkpt>
      <trkpt lat="45.34634" lon="5.84834">
        <ele>1659.85</ele>
        <time>2015-03-07T10:50:24Z</time>
      </trkpt>
      <trkpt lat="45.34635" lon="5.84833">
        <ele>1659.85</ele>
        <time>2015-03-07T10:50:25Z</time>
      </trkpt>
      <trkpt lat="45.34651" lon="5.84831">
        <ele>1655.53</ele>
        <time>2015-03-07T10:50:29Z</time>
      </trkpt>
      <trkpt lat="45.34658" lon="5.8483">
        <ele>1654.57</ele>
        <time>2015-03-07T10:50:30Z</time>
      </trkpt>
      <trkpt lat="45.34681" lon="5.84831">
        <ele>1649.76</ele>
        <time>2015-03-07T10:50:33Z</time>
      </trkpt>
      <trkpt lat="45.34698" lon="5.84826">
        <ele>1646.88</ele>
        <time>2015-03-07T10:50:35Z</time>
      </trkpt>
      <trkpt lat="45.34709" lon="5.84824">
        <ele>1646.88</ele>
        <time>2015-03-07T10:50:37Z</time>
      </trkpt>
      <trkpt lat="45.34708" lon="5.84832">
        <ele>1646.88</ele>
        <time>2015-03-07T10:50:49Z</time>
      </trkpt>
      <trkpt lat="45.34707" lon="5.8483">
        <ele>1646.88</ele>
        <time>2015-03-07T10:51:30Z</time>
      </trkpt>
      <trkpt lat="45.34705" lon="5.84826">
        <ele>1646.88</ele>
        <time>2015-03-07T10:51:55Z</time>
      </trkpt>
      <trkpt lat="45.34706" lon="5.84827">
        <ele>1646.88</ele>
        <time>2015-03-07T10:52:29Z</time>
      </trkpt>
      <trkpt lat="45.34708" lon="5.84823">
        <ele>1646.4</ele>
        <time>2015-03-07T10:52:50Z</time>
      </trkpt>
      <trkpt lat="45.34711" lon="5.84829">
        <ele>1645.91</ele>
        <time>2015-03-07T10:53:05Z</time>
      </trkpt>
      <trkpt lat="45.34723" lon="5.84824">
        <ele>1643.51</ele>
        <time>2015-03-07T10:53:10Z</time>
      </trkpt>
      <trkpt lat="45.34747" lon="5.84817">
        <ele>1638.7</ele>
        <time>2015-03-07T10:53:14Z</time>
      </trkpt>
      <trkpt lat="45.34762" lon="5.84813">
        <ele>1634.38</ele>
        <time>2015-03-07T10:53:16Z</time>
      </trkpt>
      <trkpt lat="45.34789" lon="5.84789">
        <ele>1630.05</ele>
        <time>2015-03-07T10:53:20Z</time>
      </trkpt>
      <trkpt lat="45.34811" lon="5.84773">
        <ele>1628.13</ele>
        <time>2015-03-07T10:53:23Z</time>
      </trkpt>
      <trkpt lat="45.34832" lon="5.84755">
        <ele>1624.77</ele>
        <time>2015-03-07T10:53:26Z</time>
      </trkpt>
      <trkpt lat="45.34847" lon="5.84745">
        <ele>1623.32</ele>
        <time>2015-03-07T10:53:28Z</time>
      </trkpt>
      <trkpt lat="45.34876" lon="5.84719">
        <ele>1619.48</ele>
        <time>2015-03-07T10:53:32Z</time>
      </trkpt>
      <trkpt lat="45.34904" lon="5.84689">
        <ele>1615.15</ele>
        <time>2015-03-07T10:53:36Z</time>
      </trkpt>
      <trkpt lat="45.3493" lon="5.84655">
        <ele>1611.79</ele>
        <time>2015-03-07T10:53:40Z</time>
      </trkpt>
      <trkpt lat="45.34943" lon="5.84638">
        <ele>1610.35</ele>
        <time>2015-03-07T10:53:42Z</time>
      </trkpt>
      <trkpt lat="45.3495" lon="5.8463">
        <ele>1609.38</ele>
        <time>2015-03-07T10:53:43Z</time>
      </trkpt>
      <trkpt lat="45.34966" lon="5.84598">
        <ele>1606.5</ele>
        <time>2015-03-07T10:53:46Z</time>
      </trkpt>
      <trkpt lat="45.34996" lon="5.84569">
        <ele>1602.17</ele>
        <time>2015-03-07T10:53:50Z</time>
      </trkpt>
      <trkpt lat="45.35014" lon="5.84556">
        <ele>1598.81</ele>
        <time>2015-03-07T10:53:52Z</time>
      </trkpt>
      <trkpt lat="45.35041" lon="5.84551">
        <ele>1596.41</ele>
        <time>2015-03-07T10:53:55Z</time>
      </trkpt>
      <trkpt lat="45.35059" lon="5.84542">
        <ele>1598.33</ele>
        <time>2015-03-07T10:53:58Z</time>
      </trkpt>
      <trkpt lat="45.35069" lon="5.84522">
        <ele>1597.85</ele>
        <time>2015-03-07T10:54:01Z</time>
      </trkpt>
      <trkpt lat="45.35075" lon="5.84498">
        <ele>1597.37</ele>
        <time>2015-03-07T10:54:08Z</time>
      </trkpt>
      <trkpt lat="45.35076" lon="5.84497">
        <ele>1597.37</ele>
        <time>2015-03-07T10:54:15Z</time>
      </trkpt>
      <trkpt lat="45.35083" lon="5.84481">
        <ele>1594.48</ele>
        <time>2015-03-07T10:54:19Z</time>
      </trkpt>
      <trkpt lat="45.35094" lon="5.84449">
        <ele>1586.31</ele>
        <time>2015-03-07T10:54:22Z</time>
      </trkpt>
      <trkpt lat="45.3511" lon="5.84434">
        <ele>1581.51</ele>
        <time>2015-03-07T10:54:24Z</time>
      </trkpt>
      <trkpt lat="45.35129" lon="5.8443">
        <ele>1576.7</ele>
        <time>2015-03-07T10:54:26Z</time>
      </trkpt>
      <trkpt lat="45.35169" lon="5.84422">
        <ele>1570.45</ele>
        <time>2015-03-07T10:54:30Z</time>
      </trkpt>
      <trkpt lat="45.35179" lon="5.84418">
        <ele>1568.53</ele>
        <time>2015-03-07T10:54:31Z</time>
      </trkpt>
      <trkpt lat="45.35218" lon="5.84416">
        <ele>1563.24</ele>
        <time>2015-03-07T10:54:35Z</time>
      </trkpt>
      <trkpt lat="45.35247" lon="5.84417">
        <ele>1558.92</ele>
        <time>2015-03-07T10:54:38Z</time>
      </trkpt>
      <trkpt lat="45.35289" lon="5.84409">
        <ele>1553.63</ele>
        <time>2015-03-07T10:54:42Z</time>
      </trkpt>
      <trkpt lat="45.35318" lon="5.84396">
        <ele>1550.26</ele>
        <time>2015-03-07T10:54:45Z</time>
      </trkpt>
      <trkpt lat="45.35337" lon="5.84383">
        <ele>1546.42</ele>
        <time>2015-03-07T10:54:47Z</time>
      </trkpt>
      <trkpt lat="45.35362" lon="5.8436">
        <ele>1542.57</ele>
        <time>2015-03-07T10:54:50Z</time>
      </trkpt>
      <trkpt lat="45.35398" lon="5.84354">
        <ele>1536.8</ele>
        <time>2015-03-07T10:54:54Z</time>
      </trkpt>
      <trkpt lat="45.35415" lon="5.84364">
        <ele>1536.32</ele>
        <time>2015-03-07T10:54:56Z</time>
      </trkpt>
      <trkpt lat="45.35447" lon="5.84372">
        <ele>1535.36</ele>
        <time>2015-03-07T10:55:00Z</time>
      </trkpt>
      <trkpt lat="45.35462" lon="5.84377">
        <ele>1538.25</ele>
        <time>2015-03-07T10:55:04Z</time>
      </trkpt>
      <trkpt lat="45.35453" lon="5.84374">
        <ele>1537.77</ele>
        <time>2015-03-07T10:55:09Z</time>
      </trkpt>
      <trkpt lat="45.35437" lon="5.84361">
        <ele>1537.77</ele>
        <time>2015-03-07T10:55:16Z</time>
      </trkpt>
      <trkpt lat="45.35424" lon="5.84348">
        <ele>1532.96</ele>
        <time>2015-03-07T10:55:19Z</time>
      </trkpt>
      <trkpt lat="45.35413" lon="5.84336">
        <ele>1529.59</ele>
        <time>2015-03-07T10:55:21Z</time>
      </trkpt>
      <trkpt lat="45.35393" lon="5.84314">
        <ele>1524.79</ele>
        <time>2015-03-07T10:55:24Z</time>
      </trkpt>
      <trkpt lat="45.35377" lon="5.84299">
        <ele>1522.39</ele>
        <time>2015-03-07T10:55:26Z</time>
      </trkpt>
      <trkpt lat="45.3535" lon="5.84291">
        <ele>1518.54</ele>
        <time>2015-03-07T10:55:29Z</time>
      </trkpt>
      <trkpt lat="45.3534" lon="5.8429">
        <ele>1515.18</ele>
        <time>2015-03-07T10:55:30Z</time>
      </trkpt>
      <trkpt lat="45.35314" lon="5.84269">
        <ele>1510.37</ele>
        <time>2015-03-07T10:55:33Z</time>
      </trkpt>
      <trkpt lat="45.353" lon="5.84244">
        <ele>1506.04</ele>
        <time>2015-03-07T10:55:35Z</time>
      </trkpt>
      <trkpt lat="45.35284" lon="5.84222">
        <ele>1502.68</ele>
        <time>2015-03-07T10:55:37Z</time>
      </trkpt>
      <trkpt lat="45.35254" lon="5.84199">
        <ele>1498.35</ele>
        <time>2015-03-07T10:55:40Z</time>
      </trkpt>
      <trkpt lat="45.35231" lon="5.84187">
        <ele>1494.51</ele>
        <time>2015-03-07T10:55:42Z</time>
      </trkpt>
      <trkpt lat="45.35209" lon="5.84178">
        <ele>1493.06</ele>
        <time>2015-03-07T10:55:44Z</time>
      </trkpt>
      <trkpt lat="45.35177" lon="5.8417">
        <ele>1491.14</ele>
        <time>2015-03-07T10:55:48Z</time>
      </trkpt>
      <trkpt lat="45.35181" lon="5.84169">
        <ele>1486.34</ele>
        <time>2015-03-07T10:55:50Z</time>
      </trkpt>
      <trkpt lat="45.35194" lon="5.84164">
        <ele>1482.01</ele>
        <time>2015-03-07T10:55:52Z</time>
      </trkpt>
      <trkpt lat="45.35202" lon="5.84163">
        <ele>1480.57</ele>
        <time>2015-03-07T10:55:53Z</time>
      </trkpt>
      <trkpt lat="45.35225" lon="5.84158">
        <ele>1478.16</ele>
        <time>2015-03-07T10:55:56Z</time>
      </trkpt>
      <trkpt lat="45.35232" lon="5.84157">
        <ele>1479.13</ele>
        <time>2015-03-07T10:55:57Z</time>
      </trkpt>
      <trkpt lat="45.35283" lon="5.84151">
        <ele>1472.88</ele>
        <time>2015-03-07T10:56:05Z</time>
      </trkpt>
      <trkpt lat="45.35297" lon="5.84152">
        <ele>1470.95</ele>
        <time>2015-03-07T10:56:07Z</time>
      </trkpt>
      <trkpt lat="45.35334" lon="5.84165">
        <ele>1468.07</ele>
        <time>2015-03-07T10:56:12Z</time>
      </trkpt>
      <trkpt lat="45.35358" lon="5.84168">
        <ele>1466.15</ele>
        <time>2015-03-07T10:56:15Z</time>
      </trkpt>
      <trkpt lat="45.35378" lon="5.84164">
        <ele>1464.23</ele>
        <time>2015-03-07T10:56:18Z</time>
      </trkpt>
      <trkpt lat="45.35401" lon="5.8416">
        <ele>1460.86</ele>
        <time>2015-03-07T10:56:21Z</time>
      </trkpt>
      <trkpt lat="45.35409" lon="5.84158">
        <ele>1459.42</ele>
        <time>2015-03-07T10:56:22Z</time>
      </trkpt>
      <trkpt lat="45.35438" lon="5.84152">
        <ele>1455.57</ele>
        <time>2015-03-07T10:56:26Z</time>
      </trkpt>
      <trkpt lat="45.35467" lon="5.84158">
        <ele>1452.21</ele>
        <time>2015-03-07T10:56:30Z</time>
      </trkpt>
      <trkpt lat="45.35491" lon="5.84166">
        <ele>1447.88</ele>
        <time>2015-03-07T10:56:33Z</time>
      </trkpt>
      <trkpt lat="45.35522" lon="5.84178">
        <ele>1443.56</ele>
        <time>2015-03-07T10:56:37Z</time>
      </trkpt>
      <trkpt lat="45.35539" lon="5.84184">
        <ele>1441.15</ele>
        <time>2015-03-07T10:56:39Z</time>
      </trkpt>
      <trkpt lat="45.35579" lon="5.84181">
        <ele>1430.1</ele>
        <time>2015-03-07T10:56:43Z</time>
      </trkpt>
      <trkpt lat="45.35591" lon="5.84178">
        <ele>1424.33</ele>
        <time>2015-03-07T10:56:44Z</time>
      </trkpt>
      <trkpt lat="45.35629" lon="5.8417">
        <ele>1417.12</ele>
        <time>2015-03-07T10:56:47Z</time>
      </trkpt>
      <trkpt lat="45.35643" lon="5.84169">
        <ele>1417.12</ele>
        <time>2015-03-07T10:56:48Z</time>
      </trkpt>
      <trkpt lat="45.35656" lon="5.84169">
        <ele>1411.83</ele>
        <time>2015-03-07T10:56:49Z</time>
      </trkpt>
      <trkpt lat="45.35683" lon="5.84168">
        <ele>1406.55</ele>
        <time>2015-03-07T10:56:51Z</time>
      </trkpt>
      <trkpt lat="45.35711" lon="5.84168">
        <ele>1401.74</ele>
        <time>2015-03-07T10:56:53Z</time>
      </trkpt>
      <trkpt lat="45.35738" lon="5.84166">
        <ele>1398.86</ele>
        <time>2015-03-07T10:56:55Z</time>
      </trkpt>
      <trkpt lat="45.35758" lon="5.84158">
        <ele>1398.37</ele>
        <time>2015-03-07T10:56:57Z</time>
      </trkpt>
      <trkpt lat="45.35785" lon="5.84143">
        <ele>1389.72</ele>
        <time>2015-03-07T10:57:00Z</time>
      </trkpt>
      <trkpt lat="45.35806" lon="5.84137">
        <ele>1382.99</ele>
        <time>2015-03-07T10:57:02Z</time>
      </trkpt>
      <trkpt lat="45.35818" lon="5.84135">
        <ele>1379.15</ele>
        <time>2015-03-07T10:57:03Z</time>
      </trkpt>
      <trkpt lat="45.35844" lon="5.84134">
        <ele>1374.82</ele>
        <time>2015-03-07T10:57:05Z</time>
      </trkpt>
      <trkpt lat="45.35866" lon="5.84137">
        <ele>1373.86</ele>
        <time>2015-03-07T10:57:07Z</time>
      </trkpt>
      <trkpt lat="45.35888" lon="5.84137">
        <ele>1370.5</ele>
        <time>2015-03-07T10:57:09Z</time>
      </trkpt>
      <trkpt lat="45.3591" lon="5.84137">
        <ele>1366.17</ele>
        <time>2015-03-07T10:57:11Z</time>
      </trkpt>
      <trkpt lat="45.35933" lon="5.84137">
        <ele>1360.88</ele>
        <time>2015-03-07T10:57:13Z</time>
      </trkpt>
      <trkpt lat="45.35997" lon="5.84156">
        <ele>1358</ele>
        <time>2015-03-07T10:57:20Z</time>
      </trkpt>
      <trkpt lat="45.36015" lon="5.84158">
        <ele>1355.6</ele>
        <time>2015-03-07T10:57:23Z</time>
      </trkpt>
      <trkpt lat="45.36037" lon="5.84173">
        <ele>1352.23</ele>
        <time>2015-03-07T10:57:27Z</time>
      </trkpt>
      <trkpt lat="45.36044" lon="5.8418">
        <ele>1355.6</ele>
        <time>2015-03-07T10:57:29Z</time>
      </trkpt>
      <trkpt lat="45.36052" lon="5.84185">
        <ele>1356.08</ele>
        <time>2015-03-07T10:57:39Z</time>
      </trkpt>
      <trkpt lat="45.36057" lon="5.84185">
        <ele>1356.08</ele>
        <time>2015-03-07T10:57:53Z</time>
      </trkpt>
      <trkpt lat="45.36061" lon="5.84184">
        <ele>1355.6</ele>
        <time>2015-03-07T10:57:56Z</time>
      </trkpt>
      <trkpt lat="45.36066" lon="5.84169">
        <ele>1349.35</ele>
        <time>2015-03-07T10:57:59Z</time>
      </trkpt>
      <trkpt lat="45.36067" lon="5.84159">
        <ele>1345.5</ele>
        <time>2015-03-07T10:58:00Z</time>
      </trkpt>
      <trkpt lat="45.36077" lon="5.8414">
        <ele>1337.33</ele>
        <time>2015-03-07T10:58:02Z</time>
      </trkpt>
      <trkpt lat="45.36093" lon="5.84118">
        <ele>1331.08</ele>
        <time>2015-03-07T10:58:04Z</time>
      </trkpt>
      <trkpt lat="45.36103" lon="5.84104">
        <ele>1325.31</ele>
        <time>2015-03-07T10:58:05Z</time>
      </trkpt>
      <trkpt lat="45.36112" lon="5.8409">
        <ele>1321.95</ele>
        <time>2015-03-07T10:58:06Z</time>
      </trkpt>
      <trkpt lat="45.36125" lon="5.84053">
        <ele>1319.07</ele>
        <time>2015-03-07T10:58:09Z</time>
      </trkpt>
      <trkpt lat="45.36136" lon="5.84034">
        <ele>1315.22</ele>
        <time>2015-03-07T10:58:11Z</time>
      </trkpt>
      <trkpt lat="45.36144" lon="5.84026">
        <ele>1310.41</ele>
        <time>2015-03-07T10:58:12Z</time>
      </trkpt>
      <trkpt lat="45.36157" lon="5.84013">
        <ele>1305.13</ele>
        <time>2015-03-07T10:58:14Z</time>
      </trkpt>
      <trkpt lat="45.36163" lon="5.84004">
        <ele>1299.84</ele>
        <time>2015-03-07T10:58:15Z</time>
      </trkpt>
      <trkpt lat="45.36169" lon="5.83994">
        <ele>1296.48</ele>
        <time>2015-03-07T10:58:16Z</time>
      </trkpt>
      <trkpt lat="45.36184" lon="5.83978">
        <ele>1291.67</ele>
        <time>2015-03-07T10:58:18Z</time>
      </trkpt>
      <trkpt lat="45.36192" lon="5.83961">
        <ele>1286.86</ele>
        <time>2015-03-07T10:58:20Z</time>
      </trkpt>
      <trkpt lat="45.36195" lon="5.83939">
        <ele>1283.02</ele>
        <time>2015-03-07T10:58:22Z</time>
      </trkpt>
      <trkpt lat="45.36198" lon="5.83929">
        <ele>1280.13</ele>
        <time>2015-03-07T10:58:23Z</time>
      </trkpt>
      <trkpt lat="45.36203" lon="5.83922">
        <ele>1277.73</ele>
        <time>2015-03-07T10:58:24Z</time>
      </trkpt>
      <trkpt lat="45.36208" lon="5.83898">
        <ele>1272.44</ele>
        <time>2015-03-07T10:58:29Z</time>
      </trkpt>
      <trkpt lat="45.36203" lon="5.839">
        <ele>1273.88</ele>
        <time>2015-03-07T10:58:35Z</time>
      </trkpt>
      <trkpt lat="45.36201" lon="5.83901">
        <ele>1273.88</ele>
        <time>2015-03-07T10:58:39Z</time>
      </trkpt>
      <trkpt lat="45.36207" lon="5.8389">
        <ele>1269.56</ele>
        <time>2015-03-07T10:58:42Z</time>
      </trkpt>
      <trkpt lat="45.36211" lon="5.83881">
        <ele>1265.71</ele>
        <time>2015-03-07T10:58:43Z</time>
      </trkpt>
      <trkpt lat="45.36223" lon="5.83849">
        <ele>1261.87</ele>
        <time>2015-03-07T10:58:46Z</time>
      </trkpt>
      <trkpt lat="45.36226" lon="5.83841">
        <ele>1265.23</ele>
        <time>2015-03-07T10:58:47Z</time>
      </trkpt>
      <trkpt lat="45.36229" lon="5.83828">
        <ele>1266.19</ele>
        <time>2015-03-07T10:58:49Z</time>
      </trkpt>
      <trkpt lat="45.3623" lon="5.83818">
        <ele>1267.64</ele>
        <time>2015-03-07T10:58:51Z</time>
      </trkpt>
      <trkpt lat="45.36242" lon="5.83764">
        <ele>1270.52</ele>
        <time>2015-03-07T10:59:05Z</time>
      </trkpt>
      <trkpt lat="45.36258" lon="5.83721">
        <ele>1271</ele>
        <time>2015-03-07T10:59:16Z</time>
      </trkpt>
      <trkpt lat="45.36262" lon="5.83706">
        <ele>1272.92</ele>
        <time>2015-03-07T10:59:21Z</time>
      </trkpt>
      <trkpt lat="45.36262" lon="5.83701">
        <ele>1273.4</ele>
        <time>2015-03-07T10:59:23Z</time>
      </trkpt>
      <trkpt lat="45.36257" lon="5.83672">
        <ele>1270.04</ele>
        <time>2015-03-07T10:59:30Z</time>
      </trkpt>
      <trkpt lat="45.36255" lon="5.83652">
        <ele>1267.16</ele>
        <time>2015-03-07T10:59:32Z</time>
      </trkpt>
      <trkpt lat="45.36253" lon="5.83617">
        <ele>1260.91</ele>
        <time>2015-03-07T10:59:35Z</time>
      </trkpt>
      <trkpt lat="45.36253" lon="5.83581">
        <ele>1257.54</ele>
        <time>2015-03-07T10:59:38Z</time>
      </trkpt>
      <trkpt lat="45.3625" lon="5.83557">
        <ele>1253.7</ele>
        <time>2015-03-07T10:59:40Z</time>
      </trkpt>
      <trkpt lat="45.36243" lon="5.83535">
        <ele>1247.45</ele>
        <time>2015-03-07T10:59:42Z</time>
      </trkpt>
      <trkpt lat="45.36242" lon="5.83525">
        <ele>1245.53</ele>
        <time>2015-03-07T10:59:43Z</time>
      </trkpt>
      <trkpt lat="45.36243" lon="5.83504">
        <ele>1237.35</ele>
        <time>2015-03-07T10:59:46Z</time>
      </trkpt>
      <trkpt lat="45.3625" lon="5.83509">
        <ele>1231.59</ele>
        <time>2015-03-07T10:59:49Z</time>
      </trkpt>
      <trkpt lat="45.36255" lon="5.83513">
        <ele>1230.14</ele>
        <time>2015-03-07T10:59:50Z</time>
      </trkpt>
      <trkpt lat="45.36284" lon="5.83533">
        <ele>1225.82</ele>
        <time>2015-03-07T10:59:54Z</time>
      </trkpt>
      <trkpt lat="45.36292" lon="5.83536">
        <ele>1221.97</ele>
        <time>2015-03-07T10:59:55Z</time>
      </trkpt>
      <trkpt lat="45.363" lon="5.83536">
        <ele>1218.13</ele>
        <time>2015-03-07T10:59:56Z</time>
      </trkpt>
      <trkpt lat="45.36328" lon="5.83529">
        <ele>1205.15</ele>
        <time>2015-03-07T10:59:59Z</time>
      </trkpt>
      <trkpt lat="45.36339" lon="5.83525">
        <ele>1199.86</ele>
        <time>2015-03-07T11:00:00Z</time>
      </trkpt>
      <trkpt lat="45.36352" lon="5.8352">
        <ele>1194.58</ele>
        <time>2015-03-07T11:00:01Z</time>
      </trkpt>
      <trkpt lat="45.36366" lon="5.83513">
        <ele>1187.85</ele>
        <time>2015-03-07T11:00:02Z</time>
      </trkpt>
      <trkpt lat="45.36396" lon="5.83497">
        <ele>1171.02</ele>
        <time>2015-03-07T11:00:04Z</time>
      </trkpt>
      <trkpt lat="45.36412" lon="5.8349">
        <ele>1161.41</ele>
        <time>2015-03-07T11:00:05Z</time>
      </trkpt>
      <trkpt lat="45.36427" lon="5.83485">
        <ele>1154.2</ele>
        <time>2015-03-07T11:00:06Z</time>
      </trkpt>
      <trkpt lat="45.36446" lon="5.8348">
        <ele>1148.43</ele>
        <time>2015-03-07T11:00:07Z</time>
      </trkpt>
      <trkpt lat="45.36529" lon="5.83491">
        <ele>1143.63</ele>
        <time>2015-03-07T11:00:12Z</time>
      </trkpt>
      <trkpt lat="45.36542" lon="5.83493">
        <ele>1148.91</ele>
        <time>2015-03-07T11:00:15Z</time>
      </trkpt>
      <trkpt lat="45.36533" lon="5.8347">
        <ele>1142.18</ele>
        <time>2015-03-07T11:00:28Z</time>
      </trkpt>
      <trkpt lat="45.36533" lon="5.83467">
        <ele>1141.7</ele>
        <time>2015-03-07T11:00:29Z</time>
      </trkpt>
      <trkpt lat="45.36532" lon="5.83461">
        <ele>1140.74</ele>
        <time>2015-03-07T11:00:31Z</time>
      </trkpt>
      <trkpt lat="45.36529" lon="5.83451">
        <ele>1139.78</ele>
        <time>2015-03-07T11:00:36Z</time>
      </trkpt>
      <trkpt lat="45.36529" lon="5.83446">
        <ele>1138.34</ele>
        <time>2015-03-07T11:00:39Z</time>
      </trkpt>
      <trkpt lat="45.36536" lon="5.83424">
        <ele>1136.9</ele>
        <time>2015-03-07T11:00:52Z</time>
      </trkpt>
      <trkpt lat="45.36535" lon="5.83408">
        <ele>1135.94</ele>
        <time>2015-03-07T11:01:11Z</time>
      </trkpt>
      <trkpt lat="45.36531" lon="5.83398">
        <ele>1135.94</ele>
        <time>2015-03-07T11:01:23Z</time>
      </trkpt>
      <trkpt lat="45.3653" lon="5.83396">
        <ele>1135.94</ele>
        <time>2015-03-07T11:01:25Z</time>
      </trkpt>
      <trkpt lat="45.36525" lon="5.83382">
        <ele>1134.49</ele>
        <time>2015-03-07T11:01:39Z</time>
      </trkpt>
      <trkpt lat="45.36527" lon="5.83379">
        <ele>1135.94</ele>
        <time>2015-03-07T11:01:47Z</time>
      </trkpt>
      <trkpt lat="45.36529" lon="5.83375">
        <ele>1135.45</ele>
        <time>2015-03-07T11:02:10Z</time>
      </trkpt>
      <trkpt lat="45.36528" lon="5.8338">
        <ele>1135.45</ele>
        <time>2015-03-07T11:02:36Z</time>
      </trkpt>
      <trkpt lat="45.36529" lon="5.8338">
        <ele>1135.45</ele>
        <time>2015-03-07T11:02:55Z</time>
      </trkpt>
      <trkpt lat="45.36527" lon="5.83382">
        <ele>1135.45</ele>
        <time>2015-03-07T11:03:30Z</time>
      </trkpt>
      <trkpt lat="45.36529" lon="5.83381">
        <ele>1135.45</ele>
        <time>2015-03-07T11:03:57Z</time>
      </trkpt>
      <trkpt lat="45.36529" lon="5.83379">
        <ele>1135.45</ele>
        <time>2015-03-07T11:04:21Z</time>
      </trkpt>
      <trkpt lat="45.36527" lon="5.83382">
        <ele>1135.45</ele>
        <time>2015-03-07T11:04:47Z</time>
      </trkpt>
      <trkpt lat="45.36527" lon="5.83379">
        <ele>1135.45</ele>
        <time>2015-03-07T11:05:13Z</time>
      </trkpt>
      <trkpt lat="45.36528" lon="5.83379">
        <ele>1135.45</ele>
        <time>2015-03-07T11:05:45Z</time>
      </trkpt>
      <trkpt lat="45.36527" lon="5.83377">
        <ele>1135.45</ele>
        <time>2015-03-07T11:06:15Z</time>
      </trkpt>
      <trkpt lat="45.36526" lon="5.83376">
        <ele>1135.94</ele>
        <time>2015-03-07T11:06:41Z</time>
      </trkpt>
      <trkpt lat="45.36527" lon="5.83374">
        <ele>1135.94</ele>
        <time>2015-03-07T11:07:15Z</time>
      </trkpt>
      <trkpt lat="45.36524" lon="5.83374">
        <ele>1136.42</ele>
        <time>2015-03-07T11:07:53Z</time>
      </trkpt>
      <trkpt lat="45.36526" lon="5.83375">
        <ele>1136.42</ele>
        <time>2015-03-07T11:08:22Z</time>
      </trkpt>
      <trkpt lat="45.36529" lon="5.83378">
        <ele>1136.9</ele>
        <time>2015-03-07T11:08:34Z</time>
      </trkpt>
      <trkpt lat="45.36527" lon="5.83378">
        <ele>1137.86</ele>
        <time>2015-03-07T11:09:01Z</time>
      </trkpt>
      <trkpt lat="45.36528" lon="5.83378">
        <ele>1137.86</ele>
        <time>2015-03-07T11:09:17Z</time>
      </trkpt>
      <trkpt lat="45.36531" lon="5.83378">
        <ele>1137.86</ele>
        <time>2015-03-07T11:09:38Z</time>
      </trkpt>
      <trkpt lat="45.36534" lon="5.83377">
        <ele>1137.38</ele>
        <time>2015-03-07T11:09:43Z</time>
      </trkpt>
      <trkpt lat="45.36538" lon="5.83372">
        <ele>1136.42</ele>
        <time>2015-03-07T11:09:47Z</time>
      </trkpt>
      <trkpt lat="45.36546" lon="5.83355">
        <ele>1134.01</ele>
        <time>2015-03-07T11:09:56Z</time>
      </trkpt>
      <trkpt lat="45.36552" lon="5.83341">
        <ele>1134.49</ele>
        <time>2015-03-07T11:10:08Z</time>
      </trkpt>
      <trkpt lat="45.36553" lon="5.83336">
        <ele>1135.45</ele>
        <time>2015-03-07T11:10:13Z</time>
      </trkpt>
      <trkpt lat="45.36552" lon="5.83332">
        <ele>1137.86</ele>
        <time>2015-03-07T11:10:25Z</time>
      </trkpt>
      <trkpt lat="45.36555" lon="5.83326">
        <ele>1140.74</ele>
        <time>2015-03-07T11:10:39Z</time>
      </trkpt>
      <trkpt lat="45.36553" lon="5.83316">
        <ele>1142.66</ele>
        <time>2015-03-07T11:10:54Z</time>
      </trkpt>
      <trkpt lat="45.36548" lon="5.83309">
        <ele>1143.63</ele>
        <time>2015-03-07T11:11:11Z</time>
      </trkpt>
      <trkpt lat="45.36533" lon="5.83308">
        <ele>1140.74</ele>
        <time>2015-03-07T11:11:18Z</time>
      </trkpt>
      <trkpt lat="45.36513" lon="5.83309">
        <ele>1136.42</ele>
        <time>2015-03-07T11:11:24Z</time>
      </trkpt>
      <trkpt lat="45.36504" lon="5.83305">
        <ele>1134.49</ele>
        <time>2015-03-07T11:11:27Z</time>
      </trkpt>
      <trkpt lat="45.36503" lon="5.83303">
        <ele>1134.49</ele>
        <time>2015-03-07T11:11:28Z</time>
      </trkpt>
      <trkpt lat="45.36487" lon="5.83281">
        <ele>1133.53</ele>
        <time>2015-03-07T11:11:43Z</time>
      </trkpt>
      <trkpt lat="45.36477" lon="5.83258">
        <ele>1133.05</ele>
        <time>2015-03-07T11:11:57Z</time>
      </trkpt>
      <trkpt lat="45.36475" lon="5.83253">
        <ele>1133.53</ele>
        <time>2015-03-07T11:12:10Z</time>
      </trkpt>
      <trkpt lat="45.36473" lon="5.83247">
        <ele>1134.49</ele>
        <time>2015-03-07T11:12:32Z</time>
      </trkpt>
      <trkpt lat="45.36464" lon="5.83229">
        <ele>1133.05</ele>
        <time>2015-03-07T11:12:41Z</time>
      </trkpt>
      <trkpt lat="45.36447" lon="5.83208">
        <ele>1130.65</ele>
        <time>2015-03-07T11:12:53Z</time>
      </trkpt>
      <trkpt lat="45.36437" lon="5.83199">
        <ele>1129.69</ele>
        <time>2015-03-07T11:13:01Z</time>
      </trkpt>
      <trkpt lat="45.36419" lon="5.83179">
        <ele>1127.76</ele>
        <time>2015-03-07T11:13:15Z</time>
      </trkpt>
      <trkpt lat="45.36398" lon="5.83157">
        <ele>1124.4</ele>
        <time>2015-03-07T11:13:28Z</time>
      </trkpt>
      <trkpt lat="45.36379" lon="5.83141">
        <ele>1122</ele>
        <time>2015-03-07T11:13:41Z</time>
      </trkpt>
      <trkpt lat="45.3637" lon="5.83132">
        <ele>1122.48</ele>
        <time>2015-03-07T11:13:54Z</time>
      </trkpt>
      <trkpt lat="45.36366" lon="5.83128">
        <ele>1123.44</ele>
        <time>2015-03-07T11:13:58Z</time>
      </trkpt>
      <trkpt lat="45.36355" lon="5.83113">
        <ele>1124.88</ele>
        <time>2015-03-07T11:14:13Z</time>
      </trkpt>
      <trkpt lat="45.36343" lon="5.83097">
        <ele>1125.84</ele>
        <time>2015-03-07T11:14:28Z</time>
      </trkpt>
      <trkpt lat="45.36336" lon="5.8308">
        <ele>1126.32</ele>
        <time>2015-03-07T11:14:43Z</time>
      </trkpt>
      <trkpt lat="45.36333" lon="5.83066">
        <ele>1126.8</ele>
        <time>2015-03-07T11:14:56Z</time>
      </trkpt>
      <trkpt lat="45.36323" lon="5.83049">
        <ele>1127.76</ele>
        <time>2015-03-07T11:15:12Z</time>
      </trkpt>
      <trkpt lat="45.36321" lon="5.83038">
        <ele>1129.21</ele>
        <time>2015-03-07T11:15:25Z</time>
      </trkpt>
      <trkpt lat="45.36315" lon="5.83022">
        <ele>1131.61</ele>
        <time>2015-03-07T11:15:39Z</time>
      </trkpt>
      <trkpt lat="45.36309" lon="5.83005">
        <ele>1133.05</ele>
        <time>2015-03-07T11:15:52Z</time>
      </trkpt>
      <trkpt lat="45.36307" lon="5.82995">
        <ele>1131.61</ele>
        <time>2015-03-07T11:15:56Z</time>
      </trkpt>
      <trkpt lat="45.36302" lon="5.82983">
        <ele>1131.13</ele>
        <time>2015-03-07T11:16:07Z</time>
      </trkpt>
      <trkpt lat="45.36299" lon="5.82972">
        <ele>1133.05</ele>
        <time>2015-03-07T11:16:15Z</time>
      </trkpt>
      <trkpt lat="45.36295" lon="5.82962">
        <ele>1136.42</ele>
        <time>2015-03-07T11:16:28Z</time>
      </trkpt>
      <trkpt lat="45.36295" lon="5.82945">
        <ele>1138.34</ele>
        <time>2015-03-07T11:16:43Z</time>
      </trkpt>
      <trkpt lat="45.36293" lon="5.82938">
        <ele>1141.22</ele>
        <time>2015-03-07T11:16:54Z</time>
      </trkpt>
      <trkpt lat="45.36297" lon="5.82927">
        <ele>1144.11</ele>
        <time>2015-03-07T11:17:07Z</time>
      </trkpt>
      <trkpt lat="45.36297" lon="5.82921">
        <ele>1145.07</ele>
        <time>2015-03-07T11:17:14Z</time>
      </trkpt>
      <trkpt lat="45.36296" lon="5.82899">
        <ele>1146.03</ele>
        <time>2015-03-07T11:17:30Z</time>
      </trkpt>
      <trkpt lat="45.36296" lon="5.82889">
        <ele>1147.47</ele>
        <time>2015-03-07T11:17:43Z</time>
      </trkpt>
      <trkpt lat="45.36298" lon="5.82879">
        <ele>1148.43</ele>
        <time>2015-03-07T11:17:57Z</time>
      </trkpt>
      <trkpt lat="45.36303" lon="5.82865">
        <ele>1151.32</ele>
        <time>2015-03-07T11:18:12Z</time>
      </trkpt>
      <trkpt lat="45.36306" lon="5.82854">
        <ele>1153.72</ele>
        <time>2015-03-07T11:18:29Z</time>
      </trkpt>
      <trkpt lat="45.3631" lon="5.82842">
        <ele>1155.64</ele>
        <time>2015-03-07T11:18:42Z</time>
      </trkpt>
      <trkpt lat="45.36311" lon="5.82835">
        <ele>1159.01</ele>
        <time>2015-03-07T11:18:57Z</time>
      </trkpt>
      <trkpt lat="45.36315" lon="5.82832">
        <ele>1160.45</ele>
        <time>2015-03-07T11:19:10Z</time>
      </trkpt>
      <trkpt lat="45.36322" lon="5.82825">
        <ele>1162.85</ele>
        <time>2015-03-07T11:19:24Z</time>
      </trkpt>
      <trkpt lat="45.36322" lon="5.82816">
        <ele>1160.93</ele>
        <time>2015-03-07T11:19:40Z</time>
      </trkpt>
      <trkpt lat="45.36319" lon="5.82812">
        <ele>1159.97</ele>
        <time>2015-03-07T11:19:53Z</time>
      </trkpt>
      <trkpt lat="45.36316" lon="5.82802">
        <ele>1157.56</ele>
        <time>2015-03-07T11:19:57Z</time>
      </trkpt>
      <trkpt lat="45.36318" lon="5.82788">
        <ele>1155.64</ele>
        <time>2015-03-07T11:20:09Z</time>
      </trkpt>
      <trkpt lat="45.36319" lon="5.8277">
        <ele>1156.12</ele>
        <time>2015-03-07T11:20:25Z</time>
      </trkpt>
      <trkpt lat="45.36318" lon="5.82768">
        <ele>1156.12</ele>
        <time>2015-03-07T11:20:46Z</time>
      </trkpt>
      <trkpt lat="45.36318" lon="5.82765">
        <ele>1156.12</ele>
        <time>2015-03-07T11:20:49Z</time>
      </trkpt>
      <trkpt lat="45.36319" lon="5.82762">
        <ele>1157.56</ele>
        <time>2015-03-07T11:20:53Z</time>
      </trkpt>
      <trkpt lat="45.36324" lon="5.82746">
        <ele>1159.97</ele>
        <time>2015-03-07T11:21:07Z</time>
      </trkpt>
      <trkpt lat="45.3633" lon="5.82733">
        <ele>1162.85</ele>
        <time>2015-03-07T11:21:21Z</time>
      </trkpt>
      <trkpt lat="45.36337" lon="5.8272">
        <ele>1164.77</ele>
        <time>2015-03-07T11:21:37Z</time>
      </trkpt>
      <trkpt lat="45.36345" lon="5.82713">
        <ele>1167.66</ele>
        <time>2015-03-07T11:21:51Z</time>
      </trkpt>
      <trkpt lat="45.36344" lon="5.82714">
        <ele>1168.14</ele>
        <time>2015-03-07T11:22:13Z</time>
      </trkpt>
      <trkpt lat="45.36345" lon="5.82715">
        <ele>1168.14</ele>
        <time>2015-03-07T11:22:37Z</time>
      </trkpt>
      <trkpt lat="45.36347" lon="5.82711">
        <ele>1168.62</ele>
        <time>2015-03-07T11:22:55Z</time>
      </trkpt>
      <trkpt lat="45.36354" lon="5.82704">
        <ele>1171.02</ele>
        <time>2015-03-07T11:23:07Z</time>
      </trkpt>
      <trkpt lat="45.36362" lon="5.827">
        <ele>1173.43</ele>
        <time>2015-03-07T11:23:20Z</time>
      </trkpt>
      <trkpt lat="45.3637" lon="5.82696">
        <ele>1176.79</ele>
        <time>2015-03-07T11:23:33Z</time>
      </trkpt>
      <trkpt lat="45.36378" lon="5.82691">
        <ele>1179.67</ele>
        <time>2015-03-07T11:23:46Z</time>
      </trkpt>
      <trkpt lat="45.36383" lon="5.82683">
        <ele>1182.56</ele>
        <time>2015-03-07T11:24:00Z</time>
      </trkpt>
      <trkpt lat="45.3639" lon="5.82679">
        <ele>1185.92</ele>
        <time>2015-03-07T11:24:13Z</time>
      </trkpt>
      <trkpt lat="45.36399" lon="5.82667">
        <ele>1189.29</ele>
        <time>2015-03-07T11:24:29Z</time>
      </trkpt>
      <trkpt lat="45.36405" lon="5.82661">
        <ele>1191.69</ele>
        <time>2015-03-07T11:24:43Z</time>
      </trkpt>
      <trkpt lat="45.36411" lon="5.82655">
        <ele>1195.06</ele>
        <time>2015-03-07T11:24:56Z</time>
      </trkpt>
      <trkpt lat="45.36416" lon="5.8265">
        <ele>1197.94</ele>
        <time>2015-03-07T11:25:09Z</time>
      </trkpt>
      <trkpt lat="45.3642" lon="5.8264">
        <ele>1200.34</ele>
        <time>2015-03-07T11:25:22Z</time>
      </trkpt>
      <trkpt lat="45.36425" lon="5.8263">
        <ele>1203.23</ele>
        <time>2015-03-07T11:25:35Z</time>
      </trkpt>
      <trkpt lat="45.36426" lon="5.82625">
        <ele>1205.15</ele>
        <time>2015-03-07T11:25:42Z</time>
      </trkpt>
      <trkpt lat="45.36431" lon="5.82617">
        <ele>1207.07</ele>
        <time>2015-03-07T11:25:54Z</time>
      </trkpt>
      <trkpt lat="45.36436" lon="5.82619">
        <ele>1209.96</ele>
        <time>2015-03-07T11:26:04Z</time>
      </trkpt>
      <trkpt lat="45.36442" lon="5.82622">
        <ele>1212.36</ele>
        <time>2015-03-07T11:26:16Z</time>
      </trkpt>
      <trkpt lat="45.36444" lon="5.82622">
        <ele>1213.32</ele>
        <time>2015-03-07T11:26:20Z</time>
      </trkpt>
      <trkpt lat="45.36448" lon="5.82618">
        <ele>1215.24</ele>
        <time>2015-03-07T11:26:32Z</time>
      </trkpt>
      <trkpt lat="45.36453" lon="5.82608">
        <ele>1218.13</ele>
        <time>2015-03-07T11:26:46Z</time>
      </trkpt>
      <trkpt lat="45.36459" lon="5.82598">
        <ele>1220.53</ele>
        <time>2015-03-07T11:27:01Z</time>
      </trkpt>
      <trkpt lat="45.36466" lon="5.82584">
        <ele>1222.93</ele>
        <time>2015-03-07T11:27:15Z</time>
      </trkpt>
      <trkpt lat="45.36474" lon="5.82571">
        <ele>1224.38</ele>
        <time>2015-03-07T11:27:29Z</time>
      </trkpt>
      <trkpt lat="45.36479" lon="5.82561">
        <ele>1225.34</ele>
        <time>2015-03-07T11:27:42Z</time>
      </trkpt>
      <trkpt lat="45.36484" lon="5.82554">
        <ele>1227.74</ele>
        <time>2015-03-07T11:27:55Z</time>
      </trkpt>
      <trkpt lat="45.36486" lon="5.82542">
        <ele>1230.14</ele>
        <time>2015-03-07T11:28:10Z</time>
      </trkpt>
      <trkpt lat="45.36488" lon="5.82532">
        <ele>1233.03</ele>
        <time>2015-03-07T11:28:23Z</time>
      </trkpt>
      <trkpt lat="45.36491" lon="5.82525">
        <ele>1235.91</ele>
        <time>2015-03-07T11:28:36Z</time>
      </trkpt>
      <trkpt lat="45.36493" lon="5.82517">
        <ele>1238.8</ele>
        <time>2015-03-07T11:28:49Z</time>
      </trkpt>
      <trkpt lat="45.36496" lon="5.82507">
        <ele>1241.68</ele>
        <time>2015-03-07T11:29:01Z</time>
      </trkpt>
      <trkpt lat="45.36501" lon="5.82498">
        <ele>1244.08</ele>
        <time>2015-03-07T11:29:15Z</time>
      </trkpt>
      <trkpt lat="45.36502" lon="5.82491">
        <ele>1246.49</ele>
        <time>2015-03-07T11:29:26Z</time>
      </trkpt>
      <trkpt lat="45.36505" lon="5.82483">
        <ele>1248.41</ele>
        <time>2015-03-07T11:29:39Z</time>
      </trkpt>
      <trkpt lat="45.36507" lon="5.82474">
        <ele>1250.81</ele>
        <time>2015-03-07T11:29:51Z</time>
      </trkpt>
      <trkpt lat="45.36509" lon="5.82468">
        <ele>1253.7</ele>
        <time>2015-03-07T11:30:04Z</time>
      </trkpt>
      <trkpt lat="45.36512" lon="5.82462">
        <ele>1255.62</ele>
        <time>2015-03-07T11:30:17Z</time>
      </trkpt>
      <trkpt lat="45.36514" lon="5.82451">
        <ele>1258.5</ele>
        <time>2015-03-07T11:30:31Z</time>
      </trkpt>
      <trkpt lat="45.36515" lon="5.82442">
        <ele>1260.91</ele>
        <time>2015-03-07T11:30:43Z</time>
      </trkpt>
      <trkpt lat="45.36517" lon="5.82433">
        <ele>1263.79</ele>
        <time>2015-03-07T11:30:57Z</time>
      </trkpt>
      <trkpt lat="45.3652" lon="5.82425">
        <ele>1267.16</ele>
        <time>2015-03-07T11:31:10Z</time>
      </trkpt>
      <trkpt lat="45.36524" lon="5.82418">
        <ele>1270.04</ele>
        <time>2015-03-07T11:31:24Z</time>
      </trkpt>
      <trkpt lat="45.36527" lon="5.82412">
        <ele>1271.96</ele>
        <time>2015-03-07T11:31:37Z</time>
      </trkpt>
      <trkpt lat="45.36535" lon="5.82408">
        <ele>1275.33</ele>
        <time>2015-03-07T11:31:50Z</time>
      </trkpt>
      <trkpt lat="45.36542" lon="5.82403">
        <ele>1277.25</ele>
        <time>2015-03-07T11:32:02Z</time>
      </trkpt>
      <trkpt lat="45.36546" lon="5.82397">
        <ele>1279.17</ele>
        <time>2015-03-07T11:32:13Z</time>
      </trkpt>
      <trkpt lat="45.3655" lon="5.8239">
        <ele>1282.54</ele>
        <time>2015-03-07T11:32:28Z</time>
      </trkpt>
      <trkpt lat="45.36555" lon="5.82383">
        <ele>1284.46</ele>
        <time>2015-03-07T11:32:42Z</time>
      </trkpt>
      <trkpt lat="45.36559" lon="5.82374">
        <ele>1287.34</ele>
        <time>2015-03-07T11:32:56Z</time>
      </trkpt>
      <trkpt lat="45.36562" lon="5.82367">
        <ele>1290.23</ele>
        <time>2015-03-07T11:33:10Z</time>
      </trkpt>
      <trkpt lat="45.36564" lon="5.82359">
        <ele>1292.63</ele>
        <time>2015-03-07T11:33:23Z</time>
      </trkpt>
      <trkpt lat="45.36563" lon="5.82347">
        <ele>1294.07</ele>
        <time>2015-03-07T11:33:35Z</time>
      </trkpt>
      <trkpt lat="45.36567" lon="5.82339">
        <ele>1296.96</ele>
        <time>2015-03-07T11:33:49Z</time>
      </trkpt>
      <trkpt lat="45.3657" lon="5.8233">
        <ele>1298.88</ele>
        <time>2015-03-07T11:34:00Z</time>
      </trkpt>
      <trkpt lat="45.36575" lon="5.8232">
        <ele>1301.76</ele>
        <time>2015-03-07T11:34:15Z</time>
      </trkpt>
      <trkpt lat="45.36579" lon="5.82312">
        <ele>1304.65</ele>
        <time>2015-03-07T11:34:27Z</time>
      </trkpt>
      <trkpt lat="45.36581" lon="5.82303">
        <ele>1307.05</ele>
        <time>2015-03-07T11:34:38Z</time>
      </trkpt>
      <trkpt lat="45.36583" lon="5.82292">
        <ele>1309.93</ele>
        <time>2015-03-07T11:34:52Z</time>
      </trkpt>
      <trkpt lat="45.36587" lon="5.82284">
        <ele>1312.34</ele>
        <time>2015-03-07T11:35:05Z</time>
      </trkpt>
      <trkpt lat="45.36589" lon="5.82276">
        <ele>1314.74</ele>
        <time>2015-03-07T11:35:17Z</time>
      </trkpt>
      <trkpt lat="45.36594" lon="5.8227">
        <ele>1317.14</ele>
        <time>2015-03-07T11:35:29Z</time>
      </trkpt>
      <trkpt lat="45.366" lon="5.82262">
        <ele>1319.07</ele>
        <time>2015-03-07T11:35:43Z</time>
      </trkpt>
      <trkpt lat="45.366" lon="5.82262">
        <ele>1319.55</ele>
        <time>2015-03-07T11:35:44Z</time>
      </trkpt>
      <trkpt lat="45.36605" lon="5.82252">
        <ele>1321.47</ele>
        <time>2015-03-07T11:35:57Z</time>
      </trkpt>
      <trkpt lat="45.36608" lon="5.8224">
        <ele>1324.83</ele>
        <time>2015-03-07T11:36:11Z</time>
      </trkpt>
      <trkpt lat="45.36612" lon="5.8223">
        <ele>1327.24</ele>
        <time>2015-03-07T11:36:24Z</time>
      </trkpt>
      <trkpt lat="45.36614" lon="5.82223">
        <ele>1330.12</ele>
        <time>2015-03-07T11:36:39Z</time>
      </trkpt>
      <trkpt lat="45.36618" lon="5.82224">
        <ele>1332.52</ele>
        <time>2015-03-07T11:36:52Z</time>
      </trkpt>
      <trkpt lat="45.36619" lon="5.82214">
        <ele>1334.93</ele>
        <time>2015-03-07T11:37:06Z</time>
      </trkpt>
      <trkpt lat="45.3662" lon="5.82204">
        <ele>1338.29</ele>
        <time>2015-03-07T11:37:20Z</time>
      </trkpt>
      <trkpt lat="45.36623" lon="5.82197">
        <ele>1340.7</ele>
        <time>2015-03-07T11:37:34Z</time>
      </trkpt>
      <trkpt lat="45.36626" lon="5.8219">
        <ele>1343.1</ele>
        <time>2015-03-07T11:37:48Z</time>
      </trkpt>
      <trkpt lat="45.36628" lon="5.82182">
        <ele>1345.98</ele>
        <time>2015-03-07T11:38:00Z</time>
      </trkpt>
      <trkpt lat="45.36626" lon="5.82171">
        <ele>1347.91</ele>
        <time>2015-03-07T11:38:13Z</time>
      </trkpt>
      <trkpt lat="45.36627" lon="5.82159">
        <ele>1351.27</ele>
        <time>2015-03-07T11:38:27Z</time>
      </trkpt>
      <trkpt lat="45.36629" lon="5.82156">
        <ele>1353.19</ele>
        <time>2015-03-07T11:38:40Z</time>
      </trkpt>
      <trkpt lat="45.3663" lon="5.82149">
        <ele>1356.08</ele>
        <time>2015-03-07T11:38:54Z</time>
      </trkpt>
      <trkpt lat="45.36625" lon="5.8214">
        <ele>1358.48</ele>
        <time>2015-03-07T11:39:08Z</time>
      </trkpt>
      <trkpt lat="45.36626" lon="5.82135">
        <ele>1359.92</ele>
        <time>2015-03-07T11:39:17Z</time>
      </trkpt>
      <trkpt lat="45.36631" lon="5.82129">
        <ele>1361.84</ele>
        <time>2015-03-07T11:39:31Z</time>
      </trkpt>
      <trkpt lat="45.36635" lon="5.82124">
        <ele>1364.73</ele>
        <time>2015-03-07T11:39:47Z</time>
      </trkpt>
      <trkpt lat="45.36633" lon="5.82113">
        <ele>1366.65</ele>
        <time>2015-03-07T11:39:59Z</time>
      </trkpt>
      <trkpt lat="45.36636" lon="5.82108">
        <ele>1369.54</ele>
        <time>2015-03-07T11:40:13Z</time>
      </trkpt>
      <trkpt lat="45.3664" lon="5.82107">
        <ele>1371.94</ele>
        <time>2015-03-07T11:40:28Z</time>
      </trkpt>
      <trkpt lat="45.36639" lon="5.82095">
        <ele>1374.34</ele>
        <time>2015-03-07T11:40:42Z</time>
      </trkpt>
      <trkpt lat="45.36641" lon="5.8209">
        <ele>1376.75</ele>
        <time>2015-03-07T11:40:56Z</time>
      </trkpt>
      <trkpt lat="45.36647" lon="5.82089">
        <ele>1379.15</ele>
        <time>2015-03-07T11:41:09Z</time>
      </trkpt>
      <trkpt lat="45.36648" lon="5.82079">
        <ele>1381.07</ele>
        <time>2015-03-07T11:41:23Z</time>
      </trkpt>
      <trkpt lat="45.36644" lon="5.8207">
        <ele>1383.47</ele>
        <time>2015-03-07T11:41:37Z</time>
      </trkpt>
      <trkpt lat="45.36642" lon="5.82066">
        <ele>1385.4</ele>
        <time>2015-03-07T11:41:48Z</time>
      </trkpt>
      <trkpt lat="45.36642" lon="5.82064">
        <ele>1385.88</ele>
        <time>2015-03-07T11:41:51Z</time>
      </trkpt>
      <trkpt lat="45.36647" lon="5.82062">
        <ele>1388.76</ele>
        <time>2015-03-07T11:42:03Z</time>
      </trkpt>
      <trkpt lat="45.3665" lon="5.82058">
        <ele>1390.68</ele>
        <time>2015-03-07T11:42:15Z</time>
      </trkpt>
      <trkpt lat="45.36647" lon="5.82046">
        <ele>1393.09</ele>
        <time>2015-03-07T11:42:30Z</time>
      </trkpt>
      <trkpt lat="45.3665" lon="5.82043">
        <ele>1395.49</ele>
        <time>2015-03-07T11:42:42Z</time>
      </trkpt>
      <trkpt lat="45.36654" lon="5.82041">
        <ele>1396.93</ele>
        <time>2015-03-07T11:42:55Z</time>
      </trkpt>
      <trkpt lat="45.3665" lon="5.82028">
        <ele>1399.34</ele>
        <time>2015-03-07T11:43:09Z</time>
      </trkpt>
      <trkpt lat="45.36647" lon="5.82024">
        <ele>1402.22</ele>
        <time>2015-03-07T11:43:24Z</time>
      </trkpt>
      <trkpt lat="45.36654" lon="5.82019">
        <ele>1404.62</ele>
        <time>2015-03-07T11:43:40Z</time>
      </trkpt>
      <trkpt lat="45.36659" lon="5.82009">
        <ele>1406.55</ele>
        <time>2015-03-07T11:43:55Z</time>
      </trkpt>
      <trkpt lat="45.36656" lon="5.82003">
        <ele>1408.95</ele>
        <time>2015-03-07T11:44:08Z</time>
      </trkpt>
      <trkpt lat="45.36652" lon="5.82001">
        <ele>1410.39</ele>
        <time>2015-03-07T11:44:19Z</time>
      </trkpt>
      <trkpt lat="45.36649" lon="5.82">
        <ele>1410.87</ele>
        <time>2015-03-07T11:44:32Z</time>
      </trkpt>
      <trkpt lat="45.3665" lon="5.82002">
        <ele>1412.31</ele>
        <time>2015-03-07T11:44:50Z</time>
      </trkpt>
      <trkpt lat="45.36651" lon="5.82001">
        <ele>1412.31</ele>
        <time>2015-03-07T11:45:06Z</time>
      </trkpt>
      <trkpt lat="45.36651" lon="5.82001">
        <ele>1412.31</ele>
        <time>2015-03-07T11:45:11Z</time>
      </trkpt>
      <trkpt lat="45.3665" lon="5.82001">
        <ele>1410.87</ele>
        <time>2015-03-07T11:45:15Z</time>
      </trkpt>
      <trkpt lat="45.36646" lon="5.82002">
        <ele>1410.87</ele>
        <time>2015-03-07T11:45:58Z</time>
      </trkpt>
      <trkpt lat="45.36652" lon="5.81998">
        <ele>1410.87</ele>
        <time>2015-03-07T11:46:17Z</time>
      </trkpt>
      <trkpt lat="45.36653" lon="5.81995">
        <ele>1410.87</ele>
        <time>2015-03-07T11:46:28Z</time>
      </trkpt>
      <trkpt lat="45.36652" lon="5.82">
        <ele>1411.83</ele>
        <time>2015-03-07T11:46:48Z</time>
      </trkpt>
      <trkpt lat="45.36649" lon="5.81999">
        <ele>1412.31</ele>
        <time>2015-03-07T11:47:06Z</time>
      </trkpt>
      <trkpt lat="45.36652" lon="5.81991">
        <ele>1414.24</ele>
        <time>2015-03-07T11:47:18Z</time>
      </trkpt>
      <trkpt lat="45.36647" lon="5.81993">
        <ele>1415.68</ele>
        <time>2015-03-07T11:47:30Z</time>
      </trkpt>
      <trkpt lat="45.36639" lon="5.81993">
        <ele>1419.04</ele>
        <time>2015-03-07T11:47:48Z</time>
      </trkpt>
      <trkpt lat="45.36632" lon="5.81988">
        <ele>1420</ele>
        <time>2015-03-07T11:48:00Z</time>
      </trkpt>
      <trkpt lat="45.36626" lon="5.81982">
        <ele>1422.89</ele>
        <time>2015-03-07T11:48:15Z</time>
      </trkpt>
      <trkpt lat="45.36631" lon="5.81972">
        <ele>1424.33</ele>
        <time>2015-03-07T11:48:28Z</time>
      </trkpt>
      <trkpt lat="45.36636" lon="5.81969">
        <ele>1426.25</ele>
        <time>2015-03-07T11:48:44Z</time>
      </trkpt>
      <trkpt lat="45.36629" lon="5.81963">
        <ele>1428.66</ele>
        <time>2015-03-07T11:48:59Z</time>
      </trkpt>
      <trkpt lat="45.36624" lon="5.81956">
        <ele>1430.1</ele>
        <time>2015-03-07T11:49:12Z</time>
      </trkpt>
      <trkpt lat="45.36623" lon="5.81948">
        <ele>1432.02</ele>
        <time>2015-03-07T11:49:27Z</time>
      </trkpt>
      <trkpt lat="45.3663" lon="5.81942">
        <ele>1434.42</ele>
        <time>2015-03-07T11:49:45Z</time>
      </trkpt>
      <trkpt lat="45.36638" lon="5.81937">
        <ele>1437.31</ele>
        <time>2015-03-07T11:50:03Z</time>
      </trkpt>
      <trkpt lat="45.36645" lon="5.81933">
        <ele>1439.71</ele>
        <time>2015-03-07T11:50:21Z</time>
      </trkpt>
      <trkpt lat="45.36649" lon="5.81936">
        <ele>1442.6</ele>
        <time>2015-03-07T11:50:35Z</time>
      </trkpt>
      <trkpt lat="45.36644" lon="5.81934">
        <ele>1444.04</ele>
        <time>2015-03-07T11:50:49Z</time>
      </trkpt>
      <trkpt lat="45.36646" lon="5.81927">
        <ele>1445.48</ele>
        <time>2015-03-07T11:51:01Z</time>
      </trkpt>
      <trkpt lat="45.36647" lon="5.81924">
        <ele>1447.88</ele>
        <time>2015-03-07T11:51:15Z</time>
      </trkpt>
      <trkpt lat="45.36644" lon="5.81924">
        <ele>1450.77</ele>
        <time>2015-03-07T11:51:32Z</time>
      </trkpt>
      <trkpt lat="45.36647" lon="5.81918">
        <ele>1453.17</ele>
        <time>2015-03-07T11:51:47Z</time>
      </trkpt>
      <trkpt lat="45.36653" lon="5.81908">
        <ele>1454.61</ele>
        <time>2015-03-07T11:52:01Z</time>
      </trkpt>
      <trkpt lat="45.36655" lon="5.81909">
        <ele>1456.53</ele>
        <time>2015-03-07T11:52:14Z</time>
      </trkpt>
      <trkpt lat="45.36656" lon="5.81904">
        <ele>1458.46</ele>
        <time>2015-03-07T11:52:28Z</time>
      </trkpt>
      <trkpt lat="45.36655" lon="5.81904">
        <ele>1459.9</ele>
        <time>2015-03-07T11:52:40Z</time>
      </trkpt>
      <trkpt lat="45.36652" lon="5.81905">
        <ele>1460.38</ele>
        <time>2015-03-07T11:52:52Z</time>
      </trkpt>
      <trkpt lat="45.36644" lon="5.81901">
        <ele>1461.82</ele>
        <time>2015-03-07T11:53:08Z</time>
      </trkpt>
      <trkpt lat="45.36639" lon="5.81896">
        <ele>1463.26</ele>
        <time>2015-03-07T11:53:20Z</time>
      </trkpt>
      <trkpt lat="45.3664" lon="5.81896">
        <ele>1463.26</ele>
        <time>2015-03-07T11:53:21Z</time>
      </trkpt>
      <trkpt lat="45.36649" lon="5.81892">
        <ele>1465.67</ele>
        <time>2015-03-07T11:53:35Z</time>
      </trkpt>
      <trkpt lat="45.36643" lon="5.81888">
        <ele>1467.59</ele>
        <time>2015-03-07T11:53:46Z</time>
      </trkpt>
      <trkpt lat="45.36638" lon="5.81883">
        <ele>1469.03</ele>
        <time>2015-03-07T11:53:59Z</time>
      </trkpt>
      <trkpt lat="45.36644" lon="5.81877">
        <ele>1470.95</ele>
        <time>2015-03-07T11:54:15Z</time>
      </trkpt>
      <trkpt lat="45.36646" lon="5.81876">
        <ele>1472.4</ele>
        <time>2015-03-07T11:54:28Z</time>
      </trkpt>
      <trkpt lat="45.36642" lon="5.81876">
        <ele>1473.84</ele>
        <time>2015-03-07T11:54:39Z</time>
      </trkpt>
      <trkpt lat="45.36641" lon="5.81872">
        <ele>1475.76</ele>
        <time>2015-03-07T11:54:50Z</time>
      </trkpt>
      <trkpt lat="45.36646" lon="5.81865">
        <ele>1477.68</ele>
        <time>2015-03-07T11:55:04Z</time>
      </trkpt>
      <trkpt lat="45.36645" lon="5.81867">
        <ele>1478.65</ele>
        <time>2015-03-07T11:55:13Z</time>
      </trkpt>
      <trkpt lat="45.36641" lon="5.81864">
        <ele>1480.09</ele>
        <time>2015-03-07T11:55:28Z</time>
      </trkpt>
      <trkpt lat="45.36647" lon="5.81859">
        <ele>1482.49</ele>
        <time>2015-03-07T11:55:42Z</time>
      </trkpt>
      <trkpt lat="45.36646" lon="5.8186">
        <ele>1483.45</ele>
        <time>2015-03-07T11:55:50Z</time>
      </trkpt>
      <trkpt lat="45.36641" lon="5.81856">
        <ele>1485.85</ele>
        <time>2015-03-07T11:56:05Z</time>
      </trkpt>
      <trkpt lat="45.36643" lon="5.81852">
        <ele>1487.3</ele>
        <time>2015-03-07T11:56:16Z</time>
      </trkpt>
      <trkpt lat="45.36641" lon="5.81851">
        <ele>1489.22</ele>
        <time>2015-03-07T11:56:26Z</time>
      </trkpt>
      <trkpt lat="45.36641" lon="5.81849">
        <ele>1490.66</ele>
        <time>2015-03-07T11:56:40Z</time>
      </trkpt>
      <trkpt lat="45.36641" lon="5.81849">
        <ele>1491.62</ele>
        <time>2015-03-07T11:56:53Z</time>
      </trkpt>
      <trkpt lat="45.36638" lon="5.81848">
        <ele>1493.55</ele>
        <time>2015-03-07T11:57:09Z</time>
      </trkpt>
      <trkpt lat="45.3664" lon="5.81843">
        <ele>1495.47</ele>
        <time>2015-03-07T11:57:23Z</time>
      </trkpt>
      <trkpt lat="45.36639" lon="5.81842">
        <ele>1497.39</ele>
        <time>2015-03-07T11:57:35Z</time>
      </trkpt>
      <trkpt lat="45.36639" lon="5.81835">
        <ele>1498.83</ele>
        <time>2015-03-07T11:57:47Z</time>
      </trkpt>
      <trkpt lat="45.36638" lon="5.81838">
        <ele>1499.79</ele>
        <time>2015-03-07T11:57:56Z</time>
      </trkpt>
      <trkpt lat="45.36639" lon="5.8183">
        <ele>1502.2</ele>
        <time>2015-03-07T11:58:09Z</time>
      </trkpt>
      <trkpt lat="45.36636" lon="5.81833">
        <ele>1503.64</ele>
        <time>2015-03-07T11:58:20Z</time>
      </trkpt>
      <trkpt lat="45.36636" lon="5.81831">
        <ele>1505.08</ele>
        <time>2015-03-07T11:58:31Z</time>
      </trkpt>
      <trkpt lat="45.36634" lon="5.81831">
        <ele>1506.52</ele>
        <time>2015-03-07T11:58:41Z</time>
      </trkpt>
      <trkpt lat="45.36637" lon="5.8182">
        <ele>1507.48</ele>
        <time>2015-03-07T11:58:54Z</time>
      </trkpt>
      <trkpt lat="45.36636" lon="5.81824">
        <ele>1508.93</ele>
        <time>2015-03-07T11:59:06Z</time>
      </trkpt>
      <trkpt lat="45.36638" lon="5.81818">
        <ele>1510.85</ele>
        <time>2015-03-07T11:59:19Z</time>
      </trkpt>
      <trkpt lat="45.36635" lon="5.81823">
        <ele>1512.77</ele>
        <time>2015-03-07T11:59:32Z</time>
      </trkpt>
      <trkpt lat="45.36632" lon="5.81827">
        <ele>1514.21</ele>
        <time>2015-03-07T11:59:44Z</time>
      </trkpt>
      <trkpt lat="45.36636" lon="5.8181">
        <ele>1516.62</ele>
        <time>2015-03-07T12:00:00Z</time>
      </trkpt>
      <trkpt lat="45.36636" lon="5.81814">
        <ele>1518.06</ele>
        <time>2015-03-07T12:00:09Z</time>
      </trkpt>
      <trkpt lat="45.36635" lon="5.81818">
        <ele>1519.98</ele>
        <time>2015-03-07T12:00:23Z</time>
      </trkpt>
      <trkpt lat="45.36633" lon="5.81823">
        <ele>1521.42</ele>
        <time>2015-03-07T12:00:34Z</time>
      </trkpt>
      <trkpt lat="45.36639" lon="5.81804">
        <ele>1523.35</ele>
        <time>2015-03-07T12:00:48Z</time>
      </trkpt>
      <trkpt lat="45.36638" lon="5.81799">
        <ele>1525.75</ele>
        <time>2015-03-07T12:01:03Z</time>
      </trkpt>
      <trkpt lat="45.36639" lon="5.81798">
        <ele>1527.67</ele>
        <time>2015-03-07T12:01:17Z</time>
      </trkpt>
      <trkpt lat="45.36641" lon="5.81788">
        <ele>1529.59</ele>
        <time>2015-03-07T12:01:32Z</time>
      </trkpt>
      <trkpt lat="45.36641" lon="5.81786">
        <ele>1530.56</ele>
        <time>2015-03-07T12:01:41Z</time>
      </trkpt>
      <trkpt lat="45.36642" lon="5.8178">
        <ele>1531.04</ele>
        <time>2015-03-07T12:01:54Z</time>
      </trkpt>
      <trkpt lat="45.36642" lon="5.8178">
        <ele>1532</ele>
        <time>2015-03-07T12:02:02Z</time>
      </trkpt>
      <trkpt lat="45.36642" lon="5.81775">
        <ele>1532.96</ele>
        <time>2015-03-07T12:02:17Z</time>
      </trkpt>
      <trkpt lat="45.36641" lon="5.81777">
        <ele>1534.88</ele>
        <time>2015-03-07T12:02:31Z</time>
      </trkpt>
      <trkpt lat="45.36641" lon="5.81771">
        <ele>1535.84</ele>
        <time>2015-03-07T12:02:43Z</time>
      </trkpt>
      <trkpt lat="45.36642" lon="5.8177">
        <ele>1537.77</ele>
        <time>2015-03-07T12:02:55Z</time>
      </trkpt>
      <trkpt lat="45.36639" lon="5.8177">
        <ele>1538.73</ele>
        <time>2015-03-07T12:03:08Z</time>
      </trkpt>
      <trkpt lat="45.36643" lon="5.81764">
        <ele>1540.65</ele>
        <time>2015-03-07T12:03:24Z</time>
      </trkpt>
      <trkpt lat="45.36642" lon="5.81765">
        <ele>1543.05</ele>
        <time>2015-03-07T12:03:36Z</time>
      </trkpt>
      <trkpt lat="45.36639" lon="5.81765">
        <ele>1543.53</ele>
        <time>2015-03-07T12:03:50Z</time>
      </trkpt>
      <trkpt lat="45.36634" lon="5.8177">
        <ele>1545.46</ele>
        <time>2015-03-07T12:04:08Z</time>
      </trkpt>
      <trkpt lat="45.36626" lon="5.8177">
        <ele>1548.34</ele>
        <time>2015-03-07T12:04:22Z</time>
      </trkpt>
      <trkpt lat="45.36619" lon="5.81766">
        <ele>1550.26</ele>
        <time>2015-03-07T12:04:40Z</time>
      </trkpt>
      <trkpt lat="45.36621" lon="5.81758">
        <ele>1552.67</ele>
        <time>2015-03-07T12:04:54Z</time>
      </trkpt>
      <trkpt lat="45.36623" lon="5.81751">
        <ele>1554.59</ele>
        <time>2015-03-07T12:05:10Z</time>
      </trkpt>
      <trkpt lat="45.36625" lon="5.81752">
        <ele>1555.55</ele>
        <time>2015-03-07T12:05:18Z</time>
      </trkpt>
      <trkpt lat="45.3662" lon="5.81753">
        <ele>1556.51</ele>
        <time>2015-03-07T12:05:30Z</time>
      </trkpt>
      <trkpt lat="45.36613" lon="5.81754">
        <ele>1559.4</ele>
        <time>2015-03-07T12:05:45Z</time>
      </trkpt>
      <trkpt lat="45.36606" lon="5.81752">
        <ele>1560.84</ele>
        <time>2015-03-07T12:05:56Z</time>
      </trkpt>
      <trkpt lat="45.36602" lon="5.81752">
        <ele>1562.76</ele>
        <time>2015-03-07T12:06:08Z</time>
      </trkpt>
      <trkpt lat="45.36604" lon="5.81742">
        <ele>1564.68</ele>
        <time>2015-03-07T12:06:23Z</time>
      </trkpt>
      <trkpt lat="45.36604" lon="5.81742">
        <ele>1566.12</ele>
        <time>2015-03-07T12:06:34Z</time>
      </trkpt>
      <trkpt lat="45.366" lon="5.81744">
        <ele>1566.61</ele>
        <time>2015-03-07T12:06:48Z</time>
      </trkpt>
      <trkpt lat="45.36596" lon="5.81744">
        <ele>1567.57</ele>
        <time>2015-03-07T12:07:00Z</time>
      </trkpt>
      <trkpt lat="45.36597" lon="5.81739">
        <ele>1568.53</ele>
        <time>2015-03-07T12:07:13Z</time>
      </trkpt>
      <trkpt lat="45.36598" lon="5.81731">
        <ele>1570.93</ele>
        <time>2015-03-07T12:07:30Z</time>
      </trkpt>
      <trkpt lat="45.36598" lon="5.81733">
        <ele>1571.89</ele>
        <time>2015-03-07T12:07:44Z</time>
      </trkpt>
      <trkpt lat="45.36601" lon="5.81726">
        <ele>1574.3</ele>
        <time>2015-03-07T12:07:58Z</time>
      </trkpt>
      <trkpt lat="45.36602" lon="5.81729">
        <ele>1575.26</ele>
        <time>2015-03-07T12:08:10Z</time>
      </trkpt>
      <trkpt lat="45.366" lon="5.81728">
        <ele>1576.22</ele>
        <time>2015-03-07T12:08:25Z</time>
      </trkpt>
      <trkpt lat="45.366" lon="5.81727">
        <ele>1577.18</ele>
        <time>2015-03-07T12:08:38Z</time>
      </trkpt>
      <trkpt lat="45.36602" lon="5.81726">
        <ele>1577.66</ele>
        <time>2015-03-07T12:08:52Z</time>
      </trkpt>
      <trkpt lat="45.36603" lon="5.81724">
        <ele>1578.14</ele>
        <time>2015-03-07T12:09:06Z</time>
      </trkpt>
      <trkpt lat="45.36603" lon="5.81722">
        <ele>1578.62</ele>
        <time>2015-03-07T12:09:21Z</time>
      </trkpt>
      <trkpt lat="45.36604" lon="5.8172">
        <ele>1580.54</ele>
        <time>2015-03-07T12:09:34Z</time>
      </trkpt>
      <trkpt lat="45.36605" lon="5.8172">
        <ele>1582.47</ele>
        <time>2015-03-07T12:09:49Z</time>
      </trkpt>
      <trkpt lat="45.36608" lon="5.81717">
        <ele>1584.87</ele>
        <time>2015-03-07T12:10:06Z</time>
      </trkpt>
      <trkpt lat="45.36607" lon="5.81715">
        <ele>1585.83</ele>
        <time>2015-03-07T12:10:17Z</time>
      </trkpt>
      <trkpt lat="45.36606" lon="5.81711">
        <ele>1587.75</ele>
        <time>2015-03-07T12:10:32Z</time>
      </trkpt>
      <trkpt lat="45.36609" lon="5.81708">
        <ele>1590.16</ele>
        <time>2015-03-07T12:10:48Z</time>
      </trkpt>
      <trkpt lat="45.36609" lon="5.81706">
        <ele>1592.08</ele>
        <time>2015-03-07T12:10:57Z</time>
      </trkpt>
      <trkpt lat="45.36607" lon="5.81701">
        <ele>1592.56</ele>
        <time>2015-03-07T12:11:12Z</time>
      </trkpt>
      <trkpt lat="45.36606" lon="5.81697">
        <ele>1594</ele>
        <time>2015-03-07T12:11:25Z</time>
      </trkpt>
      <trkpt lat="45.36606" lon="5.81694">
        <ele>1596.89</ele>
        <time>2015-03-07T12:11:42Z</time>
      </trkpt>
      <trkpt lat="45.36605" lon="5.81693">
        <ele>1598.33</ele>
        <time>2015-03-07T12:11:57Z</time>
      </trkpt>
      <trkpt lat="45.36606" lon="5.81692">
        <ele>1598.81</ele>
        <time>2015-03-07T12:12:13Z</time>
      </trkpt>
      <trkpt lat="45.36605" lon="5.81692">
        <ele>1599.29</ele>
        <time>2015-03-07T12:12:26Z</time>
      </trkpt>
      <trkpt lat="45.36605" lon="5.81693">
        <ele>1600.25</ele>
        <time>2015-03-07T12:12:41Z</time>
      </trkpt>
      <trkpt lat="45.36604" lon="5.81692">
        <ele>1600.73</ele>
        <time>2015-03-07T12:13:00Z</time>
      </trkpt>
      <trkpt lat="45.36602" lon="5.81689">
        <ele>1601.21</ele>
        <time>2015-03-07T12:13:19Z</time>
      </trkpt>
      <trkpt lat="45.36603" lon="5.81685">
        <ele>1601.69</ele>
        <time>2015-03-07T12:13:33Z</time>
      </trkpt>
      <trkpt lat="45.36603" lon="5.81688">
        <ele>1602.66</ele>
        <time>2015-03-07T12:13:52Z</time>
      </trkpt>
      <trkpt lat="45.36603" lon="5.81688">
        <ele>1604.1</ele>
        <time>2015-03-07T12:14:03Z</time>
      </trkpt>
      <trkpt lat="45.36604" lon="5.81688">
        <ele>1604.58</ele>
        <time>2015-03-07T12:14:18Z</time>
      </trkpt>
      <trkpt lat="45.36603" lon="5.81686">
        <ele>1606.5</ele>
        <time>2015-03-07T12:14:31Z</time>
      </trkpt>
      <trkpt lat="45.36604" lon="5.81681">
        <ele>1607.46</ele>
        <time>2015-03-07T12:14:45Z</time>
      </trkpt>
      <trkpt lat="45.36601" lon="5.81678">
        <ele>1609.38</ele>
        <time>2015-03-07T12:14:59Z</time>
      </trkpt>
      <trkpt lat="45.36601" lon="5.81676">
        <ele>1609.86</ele>
        <time>2015-03-07T12:15:15Z</time>
      </trkpt>
      <trkpt lat="45.36602" lon="5.81675">
        <ele>1610.83</ele>
        <time>2015-03-07T12:15:35Z</time>
      </trkpt>
      <trkpt lat="45.36601" lon="5.81674">
        <ele>1611.79</ele>
        <time>2015-03-07T12:15:49Z</time>
      </trkpt>
      <trkpt lat="45.36599" lon="5.81676">
        <ele>1612.75</ele>
        <time>2015-03-07T12:16:07Z</time>
      </trkpt>
      <trkpt lat="45.36599" lon="5.81675">
        <ele>1614.19</ele>
        <time>2015-03-07T12:16:26Z</time>
      </trkpt>
      <trkpt lat="45.36599" lon="5.81674">
        <ele>1614.19</ele>
        <time>2015-03-07T12:16:46Z</time>
      </trkpt>
      <trkpt lat="45.36598" lon="5.81672">
        <ele>1615.63</ele>
        <time>2015-03-07T12:17:02Z</time>
      </trkpt>
      <trkpt lat="45.36595" lon="5.81671">
        <ele>1617.07</ele>
        <time>2015-03-07T12:17:17Z</time>
      </trkpt>
      <trkpt lat="45.36595" lon="5.81668">
        <ele>1619</ele>
        <time>2015-03-07T12:17:29Z</time>
      </trkpt>
      <trkpt lat="45.36593" lon="5.81666">
        <ele>1621.88</ele>
        <time>2015-03-07T12:17:44Z</time>
      </trkpt>
      <trkpt lat="45.36593" lon="5.81664">
        <ele>1623.32</ele>
        <time>2015-03-07T12:18:00Z</time>
      </trkpt>
      <trkpt lat="45.36596" lon="5.81662">
        <ele>1624.77</ele>
        <time>2015-03-07T12:18:16Z</time>
      </trkpt>
      <trkpt lat="45.36595" lon="5.8166">
        <ele>1626.69</ele>
        <time>2015-03-07T12:18:29Z</time>
      </trkpt>
      <trkpt lat="45.36591" lon="5.81656">
        <ele>1629.57</ele>
        <time>2015-03-07T12:18:47Z</time>
      </trkpt>
      <trkpt lat="45.36594" lon="5.81653">
        <ele>1631.49</ele>
        <time>2015-03-07T12:19:02Z</time>
      </trkpt>
      <trkpt lat="45.36599" lon="5.81652">
        <ele>1633.9</ele>
        <time>2015-03-07T12:19:18Z</time>
      </trkpt>
      <trkpt lat="45.36603" lon="5.81646">
        <ele>1634.38</ele>
        <time>2015-03-07T12:19:35Z</time>
      </trkpt>
      <trkpt lat="45.36601" lon="5.8164">
        <ele>1635.34</ele>
        <time>2015-03-07T12:19:49Z</time>
      </trkpt>
      <trkpt lat="45.36603" lon="5.81639">
        <ele>1636.78</ele>
        <time>2015-03-07T12:20:02Z</time>
      </trkpt>
      <trkpt lat="45.36609" lon="5.81639">
        <ele>1639.67</ele>
        <time>2015-03-07T12:20:20Z</time>
      </trkpt>
      <trkpt lat="45.36608" lon="5.81636">
        <ele>1641.59</ele>
        <time>2015-03-07T12:20:35Z</time>
      </trkpt>
      <trkpt lat="45.36603" lon="5.8163">
        <ele>1643.99</ele>
        <time>2015-03-07T12:20:53Z</time>
      </trkpt>
      <trkpt lat="45.36603" lon="5.8163">
        <ele>1644.47</ele>
        <time>2015-03-07T12:21:05Z</time>
      </trkpt>
      <trkpt lat="45.36607" lon="5.81628">
        <ele>1647.36</ele>
        <time>2015-03-07T12:21:23Z</time>
      </trkpt>
      <trkpt lat="45.36609" lon="5.81623">
        <ele>1648.32</ele>
        <time>2015-03-07T12:21:37Z</time>
      </trkpt>
      <trkpt lat="45.36606" lon="5.81617">
        <ele>1650.72</ele>
        <time>2015-03-07T12:21:54Z</time>
      </trkpt>
      <trkpt lat="45.36601" lon="5.81614">
        <ele>1652.16</ele>
        <time>2015-03-07T12:22:11Z</time>
      </trkpt>
      <trkpt lat="45.36604" lon="5.81611">
        <ele>1654.57</ele>
        <time>2015-03-07T12:22:26Z</time>
      </trkpt>
      <trkpt lat="45.3661" lon="5.81606">
        <ele>1657.45</ele>
        <time>2015-03-07T12:22:45Z</time>
      </trkpt>
      <trkpt lat="45.36615" lon="5.81603">
        <ele>1660.33</ele>
        <time>2015-03-07T12:23:04Z</time>
      </trkpt>
      <trkpt lat="45.36619" lon="5.81597">
        <ele>1662.74</ele>
        <time>2015-03-07T12:23:22Z</time>
      </trkpt>
      <trkpt lat="45.36614" lon="5.81589">
        <ele>1664.18</ele>
        <time>2015-03-07T12:23:35Z</time>
      </trkpt>
      <trkpt lat="45.36608" lon="5.81584">
        <ele>1667.54</ele>
        <time>2015-03-07T12:23:52Z</time>
      </trkpt>
      <trkpt lat="45.36601" lon="5.81578">
        <ele>1669.47</ele>
        <time>2015-03-07T12:24:10Z</time>
      </trkpt>
      <trkpt lat="45.36601" lon="5.81575">
        <ele>1671.39</ele>
        <time>2015-03-07T12:24:26Z</time>
      </trkpt>
      <trkpt lat="45.36608" lon="5.81573">
        <ele>1674.27</ele>
        <time>2015-03-07T12:24:46Z</time>
      </trkpt>
      <trkpt lat="45.36609" lon="5.81567">
        <ele>1674.75</ele>
        <time>2015-03-07T12:25:05Z</time>
      </trkpt>
      <trkpt lat="45.36608" lon="5.81567">
        <ele>1675.23</ele>
        <time>2015-03-07T12:25:22Z</time>
      </trkpt>
      <trkpt lat="45.36608" lon="5.81568">
        <ele>1675.23</ele>
        <time>2015-03-07T12:25:50Z</time>
      </trkpt>
      <trkpt lat="45.36605" lon="5.81563">
        <ele>1676.2</ele>
        <time>2015-03-07T12:26:03Z</time>
      </trkpt>
      <trkpt lat="45.366" lon="5.81558">
        <ele>1679.08</ele>
        <time>2015-03-07T12:26:20Z</time>
      </trkpt>
      <trkpt lat="45.36609" lon="5.81555">
        <ele>1681.96</ele>
        <time>2015-03-07T12:26:40Z</time>
      </trkpt>
      <trkpt lat="45.3661" lon="5.8155">
        <ele>1683.89</ele>
        <time>2015-03-07T12:26:55Z</time>
      </trkpt>
      <trkpt lat="45.36606" lon="5.81544">
        <ele>1686.77</ele>
        <time>2015-03-07T12:27:12Z</time>
      </trkpt>
      <trkpt lat="45.36608" lon="5.81543">
        <ele>1689.65</ele>
        <time>2015-03-07T12:27:25Z</time>
      </trkpt>
      <trkpt lat="45.36614" lon="5.81541">
        <ele>1690.62</ele>
        <time>2015-03-07T12:27:41Z</time>
      </trkpt>
      <trkpt lat="45.36609" lon="5.81533">
        <ele>1693.02</ele>
        <time>2015-03-07T12:27:58Z</time>
      </trkpt>
      <trkpt lat="45.36609" lon="5.81533">
        <ele>1695.42</ele>
        <time>2015-03-07T12:28:14Z</time>
      </trkpt>
      <trkpt lat="45.36615" lon="5.81531">
        <ele>1698.79</ele>
        <time>2015-03-07T12:28:33Z</time>
      </trkpt>
      <trkpt lat="45.3662" lon="5.81529">
        <ele>1702.15</ele>
        <time>2015-03-07T12:28:48Z</time>
      </trkpt>
      <trkpt lat="45.36618" lon="5.81525">
        <ele>1704.07</ele>
        <time>2015-03-07T12:29:03Z</time>
      </trkpt>
      <trkpt lat="45.36622" lon="5.81521">
        <ele>1706</ele>
        <time>2015-03-07T12:29:17Z</time>
      </trkpt>
      <trkpt lat="45.36627" lon="5.81518">
        <ele>1707.92</ele>
        <time>2015-03-07T12:29:35Z</time>
      </trkpt>
      <trkpt lat="45.36623" lon="5.81511">
        <ele>1710.8</ele>
        <time>2015-03-07T12:29:48Z</time>
      </trkpt>
      <trkpt lat="45.36618" lon="5.81505">
        <ele>1714.17</ele>
        <time>2015-03-07T12:30:06Z</time>
      </trkpt>
      <trkpt lat="45.36612" lon="5.81502">
        <ele>1716.09</ele>
        <time>2015-03-07T12:30:19Z</time>
      </trkpt>
      <trkpt lat="45.36607" lon="5.81488">
        <ele>1718.97</ele>
        <time>2015-03-07T12:30:38Z</time>
      </trkpt>
      <trkpt lat="45.36604" lon="5.81479">
        <ele>1719.94</ele>
        <time>2015-03-07T12:30:53Z</time>
      </trkpt>
      <trkpt lat="45.36606" lon="5.81476">
        <ele>1722.82</ele>
        <time>2015-03-07T12:31:08Z</time>
      </trkpt>
      <trkpt lat="45.36606" lon="5.81471">
        <ele>1725.22</ele>
        <time>2015-03-07T12:31:22Z</time>
      </trkpt>
      <trkpt lat="45.36608" lon="5.81468">
        <ele>1726.67</ele>
        <time>2015-03-07T12:31:34Z</time>
      </trkpt>
      <trkpt lat="45.36608" lon="5.81465">
        <ele>1728.59</ele>
        <time>2015-03-07T12:31:49Z</time>
      </trkpt>
      <trkpt lat="45.36602" lon="5.81457">
        <ele>1731.47</ele>
        <time>2015-03-07T12:32:07Z</time>
      </trkpt>
      <trkpt lat="45.36603" lon="5.81454">
        <ele>1732.43</ele>
        <time>2015-03-07T12:32:18Z</time>
      </trkpt>
      <trkpt lat="45.36608" lon="5.81451">
        <ele>1735.32</ele>
        <time>2015-03-07T12:32:34Z</time>
      </trkpt>
      <trkpt lat="45.36601" lon="5.81445">
        <ele>1737.72</ele>
        <time>2015-03-07T12:32:47Z</time>
      </trkpt>
      <trkpt lat="45.36596" lon="5.8144">
        <ele>1740.6</ele>
        <time>2015-03-07T12:33:02Z</time>
      </trkpt>
      <trkpt lat="45.36596" lon="5.81437">
        <ele>1743.01</ele>
        <time>2015-03-07T12:33:16Z</time>
      </trkpt>
      <trkpt lat="45.36601" lon="5.81434">
        <ele>1744.45</ele>
        <time>2015-03-07T12:33:35Z</time>
      </trkpt>
      <trkpt lat="45.36596" lon="5.81427">
        <ele>1746.85</ele>
        <time>2015-03-07T12:33:51Z</time>
      </trkpt>
      <trkpt lat="45.36593" lon="5.81424">
        <ele>1750.22</ele>
        <time>2015-03-07T12:34:01Z</time>
      </trkpt>
      <trkpt lat="45.36587" lon="5.81418">
        <ele>1752.62</ele>
        <time>2015-03-07T12:34:16Z</time>
      </trkpt>
      <trkpt lat="45.36587" lon="5.81414">
        <ele>1753.1</ele>
        <time>2015-03-07T12:34:32Z</time>
      </trkpt>
      <trkpt lat="45.36593" lon="5.81409">
        <ele>1756.47</ele>
        <time>2015-03-07T12:34:50Z</time>
      </trkpt>
      <trkpt lat="45.36601" lon="5.81406">
        <ele>1759.35</ele>
        <time>2015-03-07T12:35:09Z</time>
      </trkpt>
      <trkpt lat="45.36601" lon="5.81404">
        <ele>1761.75</ele>
        <time>2015-03-07T12:35:19Z</time>
      </trkpt>
      <trkpt lat="45.36596" lon="5.81397">
        <ele>1765.12</ele>
        <time>2015-03-07T12:35:35Z</time>
      </trkpt>
      <trkpt lat="45.36596" lon="5.81397">
        <ele>1765.12</ele>
        <time>2015-03-07T12:35:36Z</time>
      </trkpt>
      <trkpt lat="45.36595" lon="5.81396">
        <ele>1761.27</ele>
        <time>2015-03-07T12:35:39Z</time>
      </trkpt>
      <trkpt lat="45.36594" lon="5.81396">
        <ele>1761.27</ele>
        <time>2015-03-07T12:35:40Z</time>
      </trkpt>
      <trkpt lat="45.36593" lon="5.81395">
        <ele>1762.71</ele>
        <time>2015-03-07T12:35:42Z</time>
      </trkpt>
      <trkpt lat="45.36593" lon="5.81393">
        <ele>1765.6</ele>
        <time>2015-03-07T12:35:54Z</time>
      </trkpt>
      <trkpt lat="45.366" lon="5.81388">
        <ele>1767.52</ele>
        <time>2015-03-07T12:36:12Z</time>
      </trkpt>
      <trkpt lat="45.36603" lon="5.81386">
        <ele>1770.89</ele>
        <time>2015-03-07T12:36:21Z</time>
      </trkpt>
      <trkpt lat="45.36603" lon="5.81383">
        <ele>1771.37</ele>
        <time>2015-03-07T12:36:33Z</time>
      </trkpt>
      <trkpt lat="45.36601" lon="5.81383">
        <ele>1773.77</ele>
        <time>2015-03-07T12:36:38Z</time>
      </trkpt>
      <trkpt lat="45.366" lon="5.81379">
        <ele>1773.77</ele>
        <time>2015-03-07T12:36:49Z</time>
      </trkpt>
      <trkpt lat="45.36606" lon="5.81376">
        <ele>1776.65</ele>
        <time>2015-03-07T12:37:09Z</time>
      </trkpt>
      <trkpt lat="45.36606" lon="5.81372">
        <ele>1778.1</ele>
        <time>2015-03-07T12:37:20Z</time>
      </trkpt>
      <trkpt lat="45.36606" lon="5.8137">
        <ele>1780.02</ele>
        <time>2015-03-07T12:37:35Z</time>
      </trkpt>
      <trkpt lat="45.36608" lon="5.81367">
        <ele>1780.98</ele>
        <time>2015-03-07T12:37:51Z</time>
      </trkpt>
      <trkpt lat="45.36607" lon="5.81362">
        <ele>1783.38</ele>
        <time>2015-03-07T12:38:07Z</time>
      </trkpt>
      <trkpt lat="45.3661" lon="5.81361">
        <ele>1786.27</ele>
        <time>2015-03-07T12:38:23Z</time>
      </trkpt>
      <trkpt lat="45.36609" lon="5.81356">
        <ele>1787.71</ele>
        <time>2015-03-07T12:38:41Z</time>
      </trkpt>
      <trkpt lat="45.36609" lon="5.81356">
        <ele>1787.71</ele>
        <time>2015-03-07T12:38:42Z</time>
      </trkpt>
      <trkpt lat="45.36611" lon="5.81354">
        <ele>1789.63</ele>
        <time>2015-03-07T12:38:56Z</time>
      </trkpt>
      <trkpt lat="45.3661" lon="5.81353">
        <ele>1792.52</ele>
        <time>2015-03-07T12:39:05Z</time>
      </trkpt>
      <trkpt lat="45.3661" lon="5.81353">
        <ele>1792.52</ele>
        <time>2015-03-07T12:39:06Z</time>
      </trkpt>
      <trkpt lat="45.36608" lon="5.81346">
        <ele>1794.92</ele>
        <time>2015-03-07T12:39:21Z</time>
      </trkpt>
      <trkpt lat="45.3661" lon="5.81345">
        <ele>1793.48</ele>
        <time>2015-03-07T12:39:37Z</time>
      </trkpt>
      <trkpt lat="45.36608" lon="5.81342">
        <ele>1794.92</ele>
        <time>2015-03-07T12:39:47Z</time>
      </trkpt>
      <trkpt lat="45.36604" lon="5.81338">
        <ele>1798.28</ele>
        <time>2015-03-07T12:40:01Z</time>
      </trkpt>
      <trkpt lat="45.36607" lon="5.81336">
        <ele>1797.8</ele>
        <time>2015-03-07T12:40:10Z</time>
      </trkpt>
      <trkpt lat="45.36608" lon="5.81336">
        <ele>1800.69</ele>
        <time>2015-03-07T12:40:13Z</time>
      </trkpt>
      <trkpt lat="45.36612" lon="5.81333">
        <ele>1801.17</ele>
        <time>2015-03-07T12:40:28Z</time>
      </trkpt>
      <trkpt lat="45.36608" lon="5.81328">
        <ele>1803.57</ele>
        <time>2015-03-07T12:40:44Z</time>
      </trkpt>
      <trkpt lat="45.36605" lon="5.81324">
        <ele>1804.53</ele>
        <time>2015-03-07T12:40:59Z</time>
      </trkpt>
      <trkpt lat="45.36609" lon="5.81321">
        <ele>1806.45</ele>
        <time>2015-03-07T12:41:13Z</time>
      </trkpt>
      <trkpt lat="45.36612" lon="5.81319">
        <ele>1809.82</ele>
        <time>2015-03-07T12:41:21Z</time>
      </trkpt>
      <trkpt lat="45.36613" lon="5.81319">
        <ele>1809.82</ele>
        <time>2015-03-07T12:41:22Z</time>
      </trkpt>
      <trkpt lat="45.36613" lon="5.81319">
        <ele>1807.42</ele>
        <time>2015-03-07T12:41:24Z</time>
      </trkpt>
      <trkpt lat="45.36615" lon="5.81319">
        <ele>1808.86</ele>
        <time>2015-03-07T12:41:29Z</time>
      </trkpt>
      <trkpt lat="45.36618" lon="5.81319">
        <ele>1810.78</ele>
        <time>2015-03-07T12:41:44Z</time>
      </trkpt>
      <trkpt lat="45.36615" lon="5.81314">
        <ele>1814.63</ele>
        <time>2015-03-07T12:41:56Z</time>
      </trkpt>
      <trkpt lat="45.36615" lon="5.81314">
        <ele>1814.63</ele>
        <time>2015-03-07T12:41:57Z</time>
      </trkpt>
      <trkpt lat="45.36618" lon="5.8131">
        <ele>1816.55</ele>
        <time>2015-03-07T12:42:15Z</time>
      </trkpt>
      <trkpt lat="45.36621" lon="5.81309">
        <ele>1819.91</ele>
        <time>2015-03-07T12:42:25Z</time>
      </trkpt>
      <trkpt lat="45.36622" lon="5.81309">
        <ele>1818.95</ele>
        <time>2015-03-07T12:42:43Z</time>
      </trkpt>
      <trkpt lat="45.36622" lon="5.81308">
        <ele>1822.8</ele>
        <time>2015-03-07T12:43:03Z</time>
      </trkpt>
      <trkpt lat="45.36622" lon="5.81308">
        <ele>1822.8</ele>
        <time>2015-03-07T12:43:04Z</time>
      </trkpt>
      <trkpt lat="45.36622" lon="5.81308">
        <ele>1824.24</ele>
        <time>2015-03-07T12:43:06Z</time>
      </trkpt>
      <trkpt lat="45.36622" lon="5.81308">
        <ele>1820.87</ele>
        <time>2015-03-07T12:43:18Z</time>
      </trkpt>
      <trkpt lat="45.36622" lon="5.81308">
        <ele>1826.16</ele>
        <time>2015-03-07T12:43:24Z</time>
      </trkpt>
      <trkpt lat="45.36622" lon="5.81308">
        <ele>1833.85</ele>
        <time>2015-03-07T12:43:25Z</time>
      </trkpt>
      <trkpt lat="45.36623" lon="5.81308">
        <ele>1826.64</ele>
        <time>2015-03-07T12:43:26Z</time>
      </trkpt>
      <trkpt lat="45.36623" lon="5.81308">
        <ele>1821.35</ele>
        <time>2015-03-07T12:43:28Z</time>
      </trkpt>
      <trkpt lat="45.36623" lon="5.81308">
        <ele>1819.91</ele>
        <time>2015-03-07T12:43:30Z</time>
      </trkpt>
      <trkpt lat="45.36623" lon="5.81307">
        <ele>1819.91</ele>
        <time>2015-03-07T12:43:34Z</time>
      </trkpt>
      <trkpt lat="45.36623" lon="5.81305">
        <ele>1817.03</ele>
        <time>2015-03-07T12:43:43Z</time>
      </trkpt>
      <trkpt lat="45.36624" lon="5.81305">
        <ele>1818.95</ele>
        <time>2015-03-07T12:43:55Z</time>
      </trkpt>
      <trkpt lat="45.36624" lon="5.81305">
        <ele>1820.39</ele>
        <time>2015-03-07T12:43:58Z</time>
      </trkpt>
      <trkpt lat="45.36625" lon="5.81305">
        <ele>1819.91</ele>
        <time>2015-03-07T12:44:11Z</time>
      </trkpt>
      <trkpt lat="45.36627" lon="5.81307">
        <ele>1819.43</ele>
        <time>2015-03-07T12:44:34Z</time>
      </trkpt>
      <trkpt lat="45.3663" lon="5.81309">
        <ele>1820.87</ele>
        <time>2015-03-07T12:44:56Z</time>
      </trkpt>
      <trkpt lat="45.3663" lon="5.81309">
        <ele>1820.87</ele>
        <time>2015-03-07T12:45:10Z</time>
      </trkpt>
      <trkpt lat="45.3663" lon="5.81309">
        <ele>1821.84</ele>
        <time>2015-03-07T12:45:14Z</time>
      </trkpt>
      <trkpt lat="45.36629" lon="5.81311">
        <ele>1823.28</ele>
        <time>2015-03-07T12:45:32Z</time>
      </trkpt>
      <trkpt lat="45.36628" lon="5.81312">
        <ele>1821.84</ele>
        <time>2015-03-07T12:45:35Z</time>
      </trkpt>
      <trkpt lat="45.3663" lon="5.81313">
        <ele>1820.39</ele>
        <time>2015-03-07T12:45:51Z</time>
      </trkpt>
      <trkpt lat="45.36631" lon="5.81311">
        <ele>1824.72</ele>
        <time>2015-03-07T12:46:02Z</time>
      </trkpt>
      <trkpt lat="45.36631" lon="5.81311">
        <ele>1820.87</ele>
        <time>2015-03-07T12:46:03Z</time>
      </trkpt>
      <trkpt lat="45.36632" lon="5.81309">
        <ele>1823.76</ele>
        <time>2015-03-07T12:46:20Z</time>
      </trkpt>
      <trkpt lat="45.36632" lon="5.81309">
        <ele>1823.76</ele>
        <time>2015-03-07T12:46:21Z</time>
      </trkpt>
      <trkpt lat="45.36633" lon="5.81305">
        <ele>1826.64</ele>
        <time>2015-03-07T12:46:43Z</time>
      </trkpt>
      <trkpt lat="45.36635" lon="5.81306">
        <ele>1827.6</ele>
        <time>2015-03-07T12:47:02Z</time>
      </trkpt>
      <trkpt lat="45.36634" lon="5.81307">
        <ele>1827.6</ele>
        <time>2015-03-07T12:47:14Z</time>
      </trkpt>
      <trkpt lat="45.36635" lon="5.81308">
        <ele>1828.08</ele>
        <time>2015-03-07T12:47:20Z</time>
      </trkpt>
      <trkpt lat="45.36635" lon="5.81308">
        <ele>1827.12</ele>
        <time>2015-03-07T12:47:22Z</time>
      </trkpt>
      <trkpt lat="45.36636" lon="5.81308">
        <ele>1828.56</ele>
        <time>2015-03-07T12:47:26Z</time>
      </trkpt>
      <trkpt lat="45.36639" lon="5.81308">
        <ele>1831.93</ele>
        <time>2015-03-07T12:47:41Z</time>
      </trkpt>
      <trkpt lat="45.36642" lon="5.81308">
        <ele>1835.77</ele>
        <time>2015-03-07T12:47:57Z</time>
      </trkpt>
      <trkpt lat="45.36646" lon="5.81309">
        <ele>1832.89</ele>
        <time>2015-03-07T12:48:14Z</time>
      </trkpt>
      <trkpt lat="45.36646" lon="5.81309">
        <ele>1836.26</ele>
        <time>2015-03-07T12:48:17Z</time>
      </trkpt>
      <trkpt lat="45.36646" lon="5.8131">
        <ele>1836.26</ele>
        <time>2015-03-07T12:48:18Z</time>
      </trkpt>
      <trkpt lat="45.36647" lon="5.8131">
        <ele>1837.22</ele>
        <time>2015-03-07T12:48:24Z</time>
      </trkpt>
      <trkpt lat="45.36647" lon="5.8131">
        <ele>1836.74</ele>
        <time>2015-03-07T12:48:29Z</time>
      </trkpt>
      <trkpt lat="45.36647" lon="5.8131">
        <ele>1832.89</ele>
        <time>2015-03-07T12:48:31Z</time>
      </trkpt>
      <trkpt lat="45.36648" lon="5.81311">
        <ele>1834.81</ele>
        <time>2015-03-07T12:48:36Z</time>
      </trkpt>
      <trkpt lat="45.36651" lon="5.81314">
        <ele>1836.74</ele>
        <time>2015-03-07T12:48:52Z</time>
      </trkpt>
      <trkpt lat="45.3665" lon="5.81316">
        <ele>1836.74</ele>
        <time>2015-03-07T12:49:06Z</time>
      </trkpt>
      <trkpt lat="45.36651" lon="5.81314">
        <ele>1835.77</ele>
        <time>2015-03-07T12:49:27Z</time>
      </trkpt>
      <trkpt lat="45.36653" lon="5.81315">
        <ele>1838.66</ele>
        <time>2015-03-07T12:49:40Z</time>
      </trkpt>
      <trkpt lat="45.36653" lon="5.81315">
        <ele>1838.66</ele>
        <time>2015-03-07T12:49:41Z</time>
      </trkpt>
      <trkpt lat="45.36656" lon="5.81312">
        <ele>1838.18</ele>
        <time>2015-03-07T12:50:02Z</time>
      </trkpt>
      <trkpt lat="45.3666" lon="5.81315">
        <ele>1837.22</ele>
        <time>2015-03-07T12:50:21Z</time>
      </trkpt>
      <trkpt lat="45.36662" lon="5.81316">
        <ele>1840.58</ele>
        <time>2015-03-07T12:50:24Z</time>
      </trkpt>
      <trkpt lat="45.36664" lon="5.81318">
        <ele>1838.18</ele>
        <time>2015-03-07T12:50:29Z</time>
      </trkpt>
      <trkpt lat="45.36665" lon="5.81319">
        <ele>1839.62</ele>
        <time>2015-03-07T12:50:31Z</time>
      </trkpt>
      <trkpt lat="45.36671" lon="5.81323">
        <ele>1842.02</ele>
        <time>2015-03-07T12:50:48Z</time>
      </trkpt>
      <trkpt lat="45.36671" lon="5.81323">
        <ele>1842.02</ele>
        <time>2015-03-07T12:51:08Z</time>
      </trkpt>
      <trkpt lat="45.36672" lon="5.81323">
        <ele>1843.47</ele>
        <time>2015-03-07T12:51:10Z</time>
      </trkpt>
      <trkpt lat="45.36672" lon="5.81324">
        <ele>1842.98</ele>
        <time>2015-03-07T12:51:17Z</time>
      </trkpt>
      <trkpt lat="45.36672" lon="5.81324">
        <ele>1843.95</ele>
        <time>2015-03-07T12:51:23Z</time>
      </trkpt>
      <trkpt lat="45.36673" lon="5.81324">
        <ele>1845.87</ele>
        <time>2015-03-07T12:51:42Z</time>
      </trkpt>
      <trkpt lat="45.36676" lon="5.81321">
        <ele>1849.71</ele>
        <time>2015-03-07T12:51:56Z</time>
      </trkpt>
      <trkpt lat="45.36677" lon="5.8132">
        <ele>1847.79</ele>
        <time>2015-03-07T12:52:03Z</time>
      </trkpt>
      <trkpt lat="45.36683" lon="5.81318">
        <ele>1849.23</ele>
        <time>2015-03-07T12:52:23Z</time>
      </trkpt>
      <trkpt lat="45.36686" lon="5.81318">
        <ele>1849.71</ele>
        <time>2015-03-07T12:52:34Z</time>
      </trkpt>
      <trkpt lat="45.36688" lon="5.81317">
        <ele>1851.16</ele>
        <time>2015-03-07T12:52:41Z</time>
      </trkpt>
      <trkpt lat="45.36692" lon="5.81313">
        <ele>1854.04</ele>
        <time>2015-03-07T12:53:03Z</time>
      </trkpt>
      <trkpt lat="45.36693" lon="5.81313">
        <ele>1856.44</ele>
        <time>2015-03-07T12:53:08Z</time>
      </trkpt>
      <trkpt lat="45.36697" lon="5.81311">
        <ele>1855</ele>
        <time>2015-03-07T12:53:16Z</time>
      </trkpt>
      <trkpt lat="45.36697" lon="5.81312">
        <ele>1856.44</ele>
        <time>2015-03-07T12:53:18Z</time>
      </trkpt>
      <trkpt lat="45.36699" lon="5.81311">
        <ele>1856.44</ele>
        <time>2015-03-07T12:53:28Z</time>
      </trkpt>
      <trkpt lat="45.367" lon="5.8131">
        <ele>1856.92</ele>
        <time>2015-03-07T12:53:47Z</time>
      </trkpt>
      <trkpt lat="45.36704" lon="5.81308">
        <ele>1858.85</ele>
        <time>2015-03-07T12:54:04Z</time>
      </trkpt>
      <trkpt lat="45.36708" lon="5.81305">
        <ele>1861.25</ele>
        <time>2015-03-07T12:54:17Z</time>
      </trkpt>
      <trkpt lat="45.36708" lon="5.81304">
        <ele>1863.17</ele>
        <time>2015-03-07T12:54:25Z</time>
      </trkpt>
      <trkpt lat="45.36708" lon="5.81304">
        <ele>1861.73</ele>
        <time>2015-03-07T12:54:31Z</time>
      </trkpt>
      <trkpt lat="45.36709" lon="5.81303">
        <ele>1862.69</ele>
        <time>2015-03-07T12:54:49Z</time>
      </trkpt>
      <trkpt lat="45.3671" lon="5.81301">
        <ele>1865.58</ele>
        <time>2015-03-07T12:55:03Z</time>
      </trkpt>
      <trkpt lat="45.3671" lon="5.813">
        <ele>1866.54</ele>
        <time>2015-03-07T12:55:06Z</time>
      </trkpt>
      <trkpt lat="45.3671" lon="5.813">
        <ele>1865.09</ele>
        <time>2015-03-07T12:55:08Z</time>
      </trkpt>
      <trkpt lat="45.36711" lon="5.81298">
        <ele>1866.54</ele>
        <time>2015-03-07T12:55:13Z</time>
      </trkpt>
      <trkpt lat="45.36714" lon="5.81295">
        <ele>1867.98</ele>
        <time>2015-03-07T12:55:31Z</time>
      </trkpt>
      <trkpt lat="45.36716" lon="5.81293">
        <ele>1869.9</ele>
        <time>2015-03-07T12:55:44Z</time>
      </trkpt>
      <trkpt lat="45.36719" lon="5.8129">
        <ele>1868.94</ele>
        <time>2015-03-07T12:55:59Z</time>
      </trkpt>
      <trkpt lat="45.36719" lon="5.81289">
        <ele>1870.86</ele>
        <time>2015-03-07T12:56:01Z</time>
      </trkpt>
      <trkpt lat="45.36723" lon="5.81288">
        <ele>1873.27</ele>
        <time>2015-03-07T12:56:30Z</time>
      </trkpt>
      <trkpt lat="45.36726" lon="5.8129">
        <ele>1875.67</ele>
        <time>2015-03-07T12:56:49Z</time>
      </trkpt>
      <trkpt lat="45.36729" lon="5.8129">
        <ele>1879.03</ele>
        <time>2015-03-07T12:57:04Z</time>
      </trkpt>
      <trkpt lat="45.3673" lon="5.8129">
        <ele>1879.51</ele>
        <time>2015-03-07T12:57:09Z</time>
      </trkpt>
      <trkpt lat="45.3673" lon="5.8129">
        <ele>1876.63</ele>
        <time>2015-03-07T12:57:12Z</time>
      </trkpt>
      <trkpt lat="45.36731" lon="5.8129">
        <ele>1876.63</ele>
        <time>2015-03-07T12:57:13Z</time>
      </trkpt>
      <trkpt lat="45.36733" lon="5.81289">
        <ele>1877.59</ele>
        <time>2015-03-07T12:57:24Z</time>
      </trkpt>
      <trkpt lat="45.36735" lon="5.81285">
        <ele>1880.48</ele>
        <time>2015-03-07T12:57:40Z</time>
      </trkpt>
      <trkpt lat="45.36736" lon="5.81283">
        <ele>1882.88</ele>
        <time>2015-03-07T12:57:49Z</time>
      </trkpt>
      <trkpt lat="45.36737" lon="5.8128">
        <ele>1883.84</ele>
        <time>2015-03-07T12:57:55Z</time>
      </trkpt>
      <trkpt lat="45.36738" lon="5.81276">
        <ele>1885.76</ele>
        <time>2015-03-07T12:58:16Z</time>
      </trkpt>
      <trkpt lat="45.36734" lon="5.81274">
        <ele>1888.65</ele>
        <time>2015-03-07T12:58:27Z</time>
      </trkpt>
      <trkpt lat="45.36734" lon="5.81273">
        <ele>1884.8</ele>
        <time>2015-03-07T12:58:29Z</time>
      </trkpt>
      <trkpt lat="45.36735" lon="5.81273">
        <ele>1888.17</ele>
        <time>2015-03-07T12:58:35Z</time>
      </trkpt>
      <trkpt lat="45.36737" lon="5.81272">
        <ele>1886.72</ele>
        <time>2015-03-07T12:58:40Z</time>
      </trkpt>
      <trkpt lat="45.36738" lon="5.81272">
        <ele>1883.84</ele>
        <time>2015-03-07T12:58:46Z</time>
      </trkpt>
      <trkpt lat="45.36738" lon="5.81273">
        <ele>1885.76</ele>
        <time>2015-03-07T12:58:48Z</time>
      </trkpt>
      <trkpt lat="45.36738" lon="5.81274">
        <ele>1888.65</ele>
        <time>2015-03-07T12:58:52Z</time>
      </trkpt>
      <trkpt lat="45.36739" lon="5.81274">
        <ele>1884.32</ele>
        <time>2015-03-07T12:59:05Z</time>
      </trkpt>
      <trkpt lat="45.3674" lon="5.81275">
        <ele>1883.84</ele>
        <time>2015-03-07T12:59:13Z</time>
      </trkpt>
      <trkpt lat="45.36739" lon="5.81273">
        <ele>1887.21</ele>
        <time>2015-03-07T12:59:30Z</time>
      </trkpt>
      <trkpt lat="45.36739" lon="5.81272">
        <ele>1883.36</ele>
        <time>2015-03-07T12:59:34Z</time>
      </trkpt>
      <trkpt lat="45.36739" lon="5.81272">
        <ele>1884.8</ele>
        <time>2015-03-07T12:59:35Z</time>
      </trkpt>
      <trkpt lat="45.36739" lon="5.81273">
        <ele>1886.72</ele>
        <time>2015-03-07T12:59:37Z</time>
      </trkpt>
      <trkpt lat="45.36739" lon="5.81272">
        <ele>1886.72</ele>
        <time>2015-03-07T12:59:44Z</time>
      </trkpt>
      <trkpt lat="45.36738" lon="5.81272">
        <ele>1886.24</ele>
        <time>2015-03-07T12:59:48Z</time>
      </trkpt>
      <trkpt lat="45.36738" lon="5.81273">
        <ele>1884.8</ele>
        <time>2015-03-07T12:59:51Z</time>
      </trkpt>
      <trkpt lat="45.3674" lon="5.81275">
        <ele>1885.76</ele>
        <time>2015-03-07T13:00:04Z</time>
      </trkpt>
      <trkpt lat="45.36743" lon="5.81273">
        <ele>1881.92</ele>
        <time>2015-03-07T13:00:09Z</time>
      </trkpt>
      <trkpt lat="45.36744" lon="5.81272">
        <ele>1881.92</ele>
        <time>2015-03-07T13:00:10Z</time>
      </trkpt>
      <trkpt lat="45.36745" lon="5.81272">
        <ele>1884.8</ele>
        <time>2015-03-07T13:00:13Z</time>
      </trkpt>
      <trkpt lat="45.36746" lon="5.81273">
        <ele>1887.69</ele>
        <time>2015-03-07T13:00:17Z</time>
      </trkpt>
      <trkpt lat="45.36747" lon="5.81273">
        <ele>1888.65</ele>
        <time>2015-03-07T13:00:19Z</time>
      </trkpt>
      <trkpt lat="45.36748" lon="5.81272">
        <ele>1886.72</ele>
        <time>2015-03-07T13:00:22Z</time>
      </trkpt>
      <trkpt lat="45.3675" lon="5.81273">
        <ele>1889.61</ele>
        <time>2015-03-07T13:00:37Z</time>
      </trkpt>
      <trkpt lat="45.36753" lon="5.81273">
        <ele>1893.93</ele>
        <time>2015-03-07T13:00:50Z</time>
      </trkpt>
      <trkpt lat="45.36753" lon="5.81273">
        <ele>1890.57</ele>
        <time>2015-03-07T13:00:51Z</time>
      </trkpt>
      <trkpt lat="45.36754" lon="5.81273">
        <ele>1890.57</ele>
        <time>2015-03-07T13:00:52Z</time>
      </trkpt>
      <trkpt lat="45.36754" lon="5.81272">
        <ele>1892.97</ele>
        <time>2015-03-07T13:00:58Z</time>
      </trkpt>
      <trkpt lat="45.36755" lon="5.81272">
        <ele>1891.05</ele>
        <time>2015-03-07T13:01:00Z</time>
      </trkpt>
      <trkpt lat="45.36755" lon="5.8127">
        <ele>1892.01</ele>
        <time>2015-03-07T13:01:07Z</time>
      </trkpt>
      <trkpt lat="45.36756" lon="5.81271">
        <ele>1889.13</ele>
        <time>2015-03-07T13:01:11Z</time>
      </trkpt>
      <trkpt lat="45.36757" lon="5.81272">
        <ele>1890.57</ele>
        <time>2015-03-07T13:01:14Z</time>
      </trkpt>
      <trkpt lat="45.3676" lon="5.8127">
        <ele>1891.05</ele>
        <time>2015-03-07T13:01:24Z</time>
      </trkpt>
      <trkpt lat="45.36762" lon="5.8127">
        <ele>1887.21</ele>
        <time>2015-03-07T13:01:28Z</time>
      </trkpt>
      <trkpt lat="45.36762" lon="5.81271">
        <ele>1887.21</ele>
        <time>2015-03-07T13:01:29Z</time>
      </trkpt>
      <trkpt lat="45.36765" lon="5.81271">
        <ele>1889.61</ele>
        <time>2015-03-07T13:01:36Z</time>
      </trkpt>
      <trkpt lat="45.36772" lon="5.81267">
        <ele>1889.61</ele>
        <time>2015-03-07T13:01:56Z</time>
      </trkpt>
      <trkpt lat="45.36776" lon="5.81266">
        <ele>1890.09</ele>
        <time>2015-03-07T13:02:13Z</time>
      </trkpt>
      <trkpt lat="45.36776" lon="5.81267">
        <ele>1891.53</ele>
        <time>2015-03-07T13:02:22Z</time>
      </trkpt>
      <trkpt lat="45.36778" lon="5.81266">
        <ele>1891.05</ele>
        <time>2015-03-07T13:02:38Z</time>
      </trkpt>
      <trkpt lat="45.36779" lon="5.81265">
        <ele>1890.09</ele>
        <time>2015-03-07T13:02:47Z</time>
      </trkpt>
      <trkpt lat="45.36779" lon="5.81265">
        <ele>1891.05</ele>
        <time>2015-03-07T13:02:49Z</time>
      </trkpt>
      <trkpt lat="45.36782" lon="5.81264">
        <ele>1894.9</ele>
        <time>2015-03-07T13:03:05Z</time>
      </trkpt>
      <trkpt lat="45.36783" lon="5.81267">
        <ele>1891.53</ele>
        <time>2015-03-07T13:03:12Z</time>
      </trkpt>
      <trkpt lat="45.36782" lon="5.81267">
        <ele>1894.9</ele>
        <time>2015-03-07T13:03:14Z</time>
      </trkpt>
      <trkpt lat="45.36782" lon="5.81266">
        <ele>1894.9</ele>
        <time>2015-03-07T13:03:15Z</time>
      </trkpt>
      <trkpt lat="45.36782" lon="5.81266">
        <ele>1895.86</ele>
        <time>2015-03-07T13:03:19Z</time>
      </trkpt>
      <trkpt lat="45.36783" lon="5.81261">
        <ele>1898.26</ele>
        <time>2015-03-07T13:03:36Z</time>
      </trkpt>
      <trkpt lat="45.36783" lon="5.8126">
        <ele>1900.18</ele>
        <time>2015-03-07T13:03:53Z</time>
      </trkpt>
      <trkpt lat="45.36783" lon="5.8126">
        <ele>1901.63</ele>
        <time>2015-03-07T13:03:56Z</time>
      </trkpt>
      <trkpt lat="45.36783" lon="5.8126">
        <ele>1900.18</ele>
        <time>2015-03-07T13:03:58Z</time>
      </trkpt>
      <trkpt lat="45.36782" lon="5.81262">
        <ele>1899.22</ele>
        <time>2015-03-07T13:04:21Z</time>
      </trkpt>
      <trkpt lat="45.36782" lon="5.81262">
        <ele>1898.74</ele>
        <time>2015-03-07T13:04:26Z</time>
      </trkpt>
      <trkpt lat="45.36785" lon="5.81262">
        <ele>1900.18</ele>
        <time>2015-03-07T13:04:35Z</time>
      </trkpt>
      <trkpt lat="45.3679" lon="5.81262">
        <ele>1902.11</ele>
        <time>2015-03-07T13:04:43Z</time>
      </trkpt>
      <trkpt lat="45.36791" lon="5.81262">
        <ele>1900.18</ele>
        <time>2015-03-07T13:04:49Z</time>
      </trkpt>
      <trkpt lat="45.36791" lon="5.81263">
        <ele>1901.63</ele>
        <time>2015-03-07T13:04:51Z</time>
      </trkpt>
      <trkpt lat="45.36793" lon="5.81262">
        <ele>1902.11</ele>
        <time>2015-03-07T13:04:59Z</time>
      </trkpt>
      <trkpt lat="45.36793" lon="5.81262">
        <ele>1900.18</ele>
        <time>2015-03-07T13:05:02Z</time>
      </trkpt>
      <trkpt lat="45.36796" lon="5.8126">
        <ele>1901.14</ele>
        <time>2015-03-07T13:05:14Z</time>
      </trkpt>
      <trkpt lat="45.36796" lon="5.8126">
        <ele>1899.7</ele>
        <time>2015-03-07T13:05:17Z</time>
      </trkpt>
      <trkpt lat="45.36797" lon="5.8126">
        <ele>1896.82</ele>
        <time>2015-03-07T13:05:25Z</time>
      </trkpt>
      <trkpt lat="45.36798" lon="5.81261">
        <ele>1898.26</ele>
        <time>2015-03-07T13:05:39Z</time>
      </trkpt>
      <trkpt lat="45.36799" lon="5.81262">
        <ele>1899.7</ele>
        <time>2015-03-07T13:05:46Z</time>
      </trkpt>
      <trkpt lat="45.368" lon="5.81262">
        <ele>1901.63</ele>
        <time>2015-03-07T13:05:56Z</time>
      </trkpt>
      <trkpt lat="45.368" lon="5.81261">
        <ele>1903.55</ele>
        <time>2015-03-07T13:05:59Z</time>
      </trkpt>
      <trkpt lat="45.36801" lon="5.81261">
        <ele>1902.59</ele>
        <time>2015-03-07T13:06:03Z</time>
      </trkpt>
      <trkpt lat="45.368" lon="5.81261">
        <ele>1901.63</ele>
        <time>2015-03-07T13:06:10Z</time>
      </trkpt>
      <trkpt lat="45.36801" lon="5.8126">
        <ele>1904.03</ele>
        <time>2015-03-07T13:06:13Z</time>
      </trkpt>
      <trkpt lat="45.36802" lon="5.8126">
        <ele>1901.63</ele>
        <time>2015-03-07T13:06:15Z</time>
      </trkpt>
      <trkpt lat="45.36803" lon="5.8126">
        <ele>1901.63</ele>
        <time>2015-03-07T13:06:48Z</time>
      </trkpt>
      <trkpt lat="45.36803" lon="5.81261">
        <ele>1899.22</ele>
        <time>2015-03-07T13:07:01Z</time>
      </trkpt>
      <trkpt lat="45.36807" lon="5.8126">
        <ele>1900.66</ele>
        <time>2015-03-07T13:07:20Z</time>
      </trkpt>
      <trkpt lat="45.36809" lon="5.81258">
        <ele>1904.03</ele>
        <time>2015-03-07T13:07:39Z</time>
      </trkpt>
      <trkpt lat="45.36815" lon="5.81257">
        <ele>1904.03</ele>
        <time>2015-03-07T13:07:56Z</time>
      </trkpt>
      <trkpt lat="45.36818" lon="5.81258">
        <ele>1904.99</ele>
        <time>2015-03-07T13:08:04Z</time>
      </trkpt>
      <trkpt lat="45.36819" lon="5.81258">
        <ele>1909.32</ele>
        <time>2015-03-07T13:08:09Z</time>
      </trkpt>
      <trkpt lat="45.36819" lon="5.81257">
        <ele>1912.2</ele>
        <time>2015-03-07T13:08:12Z</time>
      </trkpt>
      <trkpt lat="45.36819" lon="5.81254">
        <ele>1914.12</ele>
        <time>2015-03-07T13:08:17Z</time>
      </trkpt>
      <trkpt lat="45.3682" lon="5.81253">
        <ele>1911.72</ele>
        <time>2015-03-07T13:08:23Z</time>
      </trkpt>
      <trkpt lat="45.3682" lon="5.81254">
        <ele>1907.87</ele>
        <time>2015-03-07T13:08:25Z</time>
      </trkpt>
      <trkpt lat="45.3682" lon="5.81254">
        <ele>1907.87</ele>
        <time>2015-03-07T13:08:26Z</time>
      </trkpt>
      <trkpt lat="45.36821" lon="5.81254">
        <ele>1906.91</ele>
        <time>2015-03-07T13:08:31Z</time>
      </trkpt>
      <trkpt lat="45.36823" lon="5.81254">
        <ele>1906.43</ele>
        <time>2015-03-07T13:08:40Z</time>
      </trkpt>
      <trkpt lat="45.36826" lon="5.81255">
        <ele>1908.35</ele>
        <time>2015-03-07T13:08:51Z</time>
      </trkpt>
      <trkpt lat="45.36829" lon="5.81255">
        <ele>1909.32</ele>
        <time>2015-03-07T13:09:03Z</time>
      </trkpt>
      <trkpt lat="45.36836" lon="5.81255">
        <ele>1913.16</ele>
        <time>2015-03-07T13:09:20Z</time>
      </trkpt>
      <trkpt lat="45.3684" lon="5.81257">
        <ele>1915.08</ele>
        <time>2015-03-07T13:09:33Z</time>
      </trkpt>
      <trkpt lat="45.36843" lon="5.81258">
        <ele>1911.72</ele>
        <time>2015-03-07T13:09:41Z</time>
      </trkpt>
      <trkpt lat="45.36843" lon="5.81259">
        <ele>1913.64</ele>
        <time>2015-03-07T13:09:43Z</time>
      </trkpt>
      <trkpt lat="45.36845" lon="5.81261">
        <ele>1911.24</ele>
        <time>2015-03-07T13:09:49Z</time>
      </trkpt>
      <trkpt lat="45.36847" lon="5.81262">
        <ele>1912.68</ele>
        <time>2015-03-07T13:09:59Z</time>
      </trkpt>
      <trkpt lat="45.36849" lon="5.81261">
        <ele>1910.76</ele>
        <time>2015-03-07T13:10:02Z</time>
      </trkpt>
      <trkpt lat="45.36851" lon="5.81258">
        <ele>1915.08</ele>
        <time>2015-03-07T13:10:12Z</time>
      </trkpt>
      <trkpt lat="45.36851" lon="5.81256">
        <ele>1915.08</ele>
        <time>2015-03-07T13:10:16Z</time>
      </trkpt>
      <trkpt lat="45.36852" lon="5.81255">
        <ele>1912.68</ele>
        <time>2015-03-07T13:10:19Z</time>
      </trkpt>
      <trkpt lat="45.36852" lon="5.81256">
        <ele>1911.72</ele>
        <time>2015-03-07T13:10:25Z</time>
      </trkpt>
      <trkpt lat="45.36854" lon="5.81255">
        <ele>1913.16</ele>
        <time>2015-03-07T13:10:34Z</time>
      </trkpt>
      <trkpt lat="45.36852" lon="5.81255">
        <ele>1917.01</ele>
        <time>2015-03-07T13:10:52Z</time>
      </trkpt>
      <trkpt lat="45.36852" lon="5.81255">
        <ele>1921.81</ele>
        <time>2015-03-07T13:10:54Z</time>
      </trkpt>
      <trkpt lat="45.36851" lon="5.81255">
        <ele>1927.1</ele>
        <time>2015-03-07T13:10:57Z</time>
      </trkpt>
      <trkpt lat="45.3685" lon="5.81255">
        <ele>1927.1</ele>
        <time>2015-03-07T13:10:58Z</time>
      </trkpt>
      <trkpt lat="45.36849" lon="5.81252">
        <ele>1923.25</ele>
        <time>2015-03-07T13:11:06Z</time>
      </trkpt>
      <trkpt lat="45.36849" lon="5.81252">
        <ele>1923.25</ele>
        <time>2015-03-07T13:11:07Z</time>
      </trkpt>
      <trkpt lat="45.36849" lon="5.81251">
        <ele>1921.33</ele>
        <time>2015-03-07T13:11:09Z</time>
      </trkpt>
      <trkpt lat="45.3685" lon="5.81251">
        <ele>1917.97</ele>
        <time>2015-03-07T13:11:13Z</time>
      </trkpt>
      <trkpt lat="45.3685" lon="5.81251">
        <ele>1917.97</ele>
        <time>2015-03-07T13:11:14Z</time>
      </trkpt>
      <trkpt lat="45.36852" lon="5.81252">
        <ele>1914.6</ele>
        <time>2015-03-07T13:11:32Z</time>
      </trkpt>
      <trkpt lat="45.36852" lon="5.81252">
        <ele>1912.68</ele>
        <time>2015-03-07T13:11:34Z</time>
      </trkpt>
      <trkpt lat="45.36852" lon="5.81252">
        <ele>1916.53</ele>
        <time>2015-03-07T13:11:35Z</time>
      </trkpt>
      <trkpt lat="45.36852" lon="5.81252">
        <ele>1916.53</ele>
        <time>2015-03-07T13:11:36Z</time>
      </trkpt>
      <trkpt lat="45.36853" lon="5.81251">
        <ele>1913.16</ele>
        <time>2015-03-07T13:11:40Z</time>
      </trkpt>
      <trkpt lat="45.36853" lon="5.8125">
        <ele>1917.01</ele>
        <time>2015-03-07T13:11:42Z</time>
      </trkpt>
      <trkpt lat="45.36854" lon="5.8125">
        <ele>1917.01</ele>
        <time>2015-03-07T13:11:43Z</time>
      </trkpt>
      <trkpt lat="45.36854" lon="5.81249">
        <ele>1913.16</ele>
        <time>2015-03-07T13:11:45Z</time>
      </trkpt>
      <trkpt lat="45.36855" lon="5.81249">
        <ele>1913.16</ele>
        <time>2015-03-07T13:11:46Z</time>
      </trkpt>
      <trkpt lat="45.36856" lon="5.81248">
        <ele>1914.12</ele>
        <time>2015-03-07T13:11:55Z</time>
      </trkpt>
      <trkpt lat="45.36856" lon="5.81248">
        <ele>1915.56</ele>
        <time>2015-03-07T13:11:57Z</time>
      </trkpt>
      <trkpt lat="45.36857" lon="5.8125">
        <ele>1916.04</ele>
        <time>2015-03-07T13:12:04Z</time>
      </trkpt>
      <trkpt lat="45.36858" lon="5.8125">
        <ele>1920.37</ele>
        <time>2015-03-07T13:12:10Z</time>
      </trkpt>
      <trkpt lat="45.36859" lon="5.8125">
        <ele>1920.37</ele>
        <time>2015-03-07T13:12:11Z</time>
      </trkpt>
      <trkpt lat="45.36859" lon="5.8125">
        <ele>1923.25</ele>
        <time>2015-03-07T13:12:16Z</time>
      </trkpt>
      <trkpt lat="45.36859" lon="5.8125">
        <ele>1919.41</ele>
        <time>2015-03-07T13:12:18Z</time>
      </trkpt>
      <trkpt lat="45.36859" lon="5.8125">
        <ele>1922.77</ele>
        <time>2015-03-07T13:12:20Z</time>
      </trkpt>
      <trkpt lat="45.36859" lon="5.8125">
        <ele>1922.77</ele>
        <time>2015-03-07T13:12:21Z</time>
      </trkpt>
      <trkpt lat="45.36859" lon="5.8125">
        <ele>1921.33</ele>
        <time>2015-03-07T13:12:23Z</time>
      </trkpt>
      <trkpt lat="45.3686" lon="5.81249">
        <ele>1917.97</ele>
        <time>2015-03-07T13:12:25Z</time>
      </trkpt>
      <trkpt lat="45.3686" lon="5.81249">
        <ele>1921.33</ele>
        <time>2015-03-07T13:12:28Z</time>
      </trkpt>
      <trkpt lat="45.3686" lon="5.81249">
        <ele>1917.97</ele>
        <time>2015-03-07T13:12:30Z</time>
      </trkpt>
      <trkpt lat="45.36861" lon="5.81249">
        <ele>1919.41</ele>
        <time>2015-03-07T13:12:33Z</time>
      </trkpt>
      <trkpt lat="45.36861" lon="5.81249">
        <ele>1916.53</ele>
        <time>2015-03-07T13:12:35Z</time>
      </trkpt>
      <trkpt lat="45.36862" lon="5.81249">
        <ele>1918.93</ele>
        <time>2015-03-07T13:12:37Z</time>
      </trkpt>
      <trkpt lat="45.36862" lon="5.81248">
        <ele>1917.01</ele>
        <time>2015-03-07T13:12:39Z</time>
      </trkpt>
      <trkpt lat="45.36862" lon="5.81248">
        <ele>1919.41</ele>
        <time>2015-03-07T13:12:41Z</time>
      </trkpt>
      <trkpt lat="45.36863" lon="5.81248">
        <ele>1919.41</ele>
        <time>2015-03-07T13:12:47Z</time>
      </trkpt>
      <trkpt lat="45.36867" lon="5.81246">
        <ele>1922.77</ele>
        <time>2015-03-07T13:12:59Z</time>
      </trkpt>
      <trkpt lat="45.36867" lon="5.81246">
        <ele>1922.77</ele>
        <time>2015-03-07T13:13:00Z</time>
      </trkpt>
      <trkpt lat="45.36867" lon="5.81246">
        <ele>1921.81</ele>
        <time>2015-03-07T13:13:03Z</time>
      </trkpt>
      <trkpt lat="45.36868" lon="5.81245">
        <ele>1922.77</ele>
        <time>2015-03-07T13:13:10Z</time>
      </trkpt>
      <trkpt lat="45.36868" lon="5.81246">
        <ele>1920.85</ele>
        <time>2015-03-07T13:13:16Z</time>
      </trkpt>
      <trkpt lat="45.36868" lon="5.81246">
        <ele>1922.29</ele>
        <time>2015-03-07T13:13:18Z</time>
      </trkpt>
      <trkpt lat="45.36872" lon="5.81245">
        <ele>1923.74</ele>
        <time>2015-03-07T13:13:28Z</time>
      </trkpt>
      <trkpt lat="45.36873" lon="5.81244">
        <ele>1926.62</ele>
        <time>2015-03-07T13:13:32Z</time>
      </trkpt>
      <trkpt lat="45.36876" lon="5.81242">
        <ele>1926.14</ele>
        <time>2015-03-07T13:13:48Z</time>
      </trkpt>
      <trkpt lat="45.36877" lon="5.81242">
        <ele>1924.7</ele>
        <time>2015-03-07T13:13:56Z</time>
      </trkpt>
      <trkpt lat="45.3688" lon="5.81242">
        <ele>1927.1</ele>
        <time>2015-03-07T13:14:09Z</time>
      </trkpt>
      <trkpt lat="45.3688" lon="5.81242">
        <ele>1923.74</ele>
        <time>2015-03-07T13:14:11Z</time>
      </trkpt>
      <trkpt lat="45.36881" lon="5.81242">
        <ele>1925.18</ele>
        <time>2015-03-07T13:14:14Z</time>
      </trkpt>
      <trkpt lat="45.36881" lon="5.81242">
        <ele>1923.25</ele>
        <time>2015-03-07T13:14:16Z</time>
      </trkpt>
      <trkpt lat="45.36882" lon="5.81242">
        <ele>1925.18</ele>
        <time>2015-03-07T13:14:24Z</time>
      </trkpt>
      <trkpt lat="45.3688" lon="5.81244">
        <ele>1924.7</ele>
        <time>2015-03-07T13:14:36Z</time>
      </trkpt>
      <trkpt lat="45.3688" lon="5.81244">
        <ele>1926.14</ele>
        <time>2015-03-07T13:14:39Z</time>
      </trkpt>
      <trkpt lat="45.3688" lon="5.81244">
        <ele>1925.18</ele>
        <time>2015-03-07T13:14:44Z</time>
      </trkpt>
      <trkpt lat="45.3688" lon="5.81245">
        <ele>1927.1</ele>
        <time>2015-03-07T13:14:46Z</time>
      </trkpt>
      <trkpt lat="45.36881" lon="5.81245">
        <ele>1924.7</ele>
        <time>2015-03-07T13:14:48Z</time>
      </trkpt>
      <trkpt lat="45.36881" lon="5.81245">
        <ele>1926.62</ele>
        <time>2015-03-07T13:14:51Z</time>
      </trkpt>
      <trkpt lat="45.36881" lon="5.81246">
        <ele>1924.7</ele>
        <time>2015-03-07T13:14:53Z</time>
      </trkpt>
      <trkpt lat="45.36882" lon="5.81244">
        <ele>1926.14</ele>
        <time>2015-03-07T13:14:59Z</time>
      </trkpt>
      <trkpt lat="45.36883" lon="5.81243">
        <ele>1927.58</ele>
        <time>2015-03-07T13:15:20Z</time>
      </trkpt>
      <trkpt lat="45.36883" lon="5.81243">
        <ele>1929.02</ele>
        <time>2015-03-07T13:15:42Z</time>
      </trkpt>
      <trkpt lat="45.36885" lon="5.81243">
        <ele>1928.06</ele>
        <time>2015-03-07T13:15:52Z</time>
      </trkpt>
      <trkpt lat="45.36885" lon="5.81244">
        <ele>1931.43</ele>
        <time>2015-03-07T13:15:59Z</time>
      </trkpt>
      <trkpt lat="45.36886" lon="5.81246">
        <ele>1932.87</ele>
        <time>2015-03-07T13:16:03Z</time>
      </trkpt>
      <trkpt lat="45.36889" lon="5.81247">
        <ele>1933.83</ele>
        <time>2015-03-07T13:16:23Z</time>
      </trkpt>
      <trkpt lat="45.36889" lon="5.81247">
        <ele>1937.19</ele>
        <time>2015-03-07T13:16:24Z</time>
      </trkpt>
      <trkpt lat="45.36889" lon="5.81247">
        <ele>1937.19</ele>
        <time>2015-03-07T13:16:25Z</time>
      </trkpt>
      <trkpt lat="45.3689" lon="5.81247">
        <ele>1933.35</ele>
        <time>2015-03-07T13:16:28Z</time>
      </trkpt>
      <trkpt lat="45.3689" lon="5.81247">
        <ele>1933.35</ele>
        <time>2015-03-07T13:16:29Z</time>
      </trkpt>
      <trkpt lat="45.3689" lon="5.81247">
        <ele>1935.75</ele>
        <time>2015-03-07T13:16:32Z</time>
      </trkpt>
      <trkpt lat="45.36891" lon="5.81246">
        <ele>1934.31</ele>
        <time>2015-03-07T13:16:37Z</time>
      </trkpt>
      <trkpt lat="45.36891" lon="5.81246">
        <ele>1935.75</ele>
        <time>2015-03-07T13:16:42Z</time>
      </trkpt>
      <trkpt lat="45.36891" lon="5.81246">
        <ele>1935.27</ele>
        <time>2015-03-07T13:16:52Z</time>
      </trkpt>
      <trkpt lat="45.36895" lon="5.81246">
        <ele>1938.64</ele>
        <time>2015-03-07T13:17:12Z</time>
      </trkpt>
      <trkpt lat="45.36896" lon="5.81245">
        <ele>1943.44</ele>
        <time>2015-03-07T13:17:17Z</time>
      </trkpt>
      <trkpt lat="45.36896" lon="5.81245">
        <ele>1943.44</ele>
        <time>2015-03-07T13:17:18Z</time>
      </trkpt>
      <trkpt lat="45.36896" lon="5.81246">
        <ele>1946.33</ele>
        <time>2015-03-07T13:17:21Z</time>
      </trkpt>
      <trkpt lat="45.36897" lon="5.81246">
        <ele>1943.92</ele>
        <time>2015-03-07T13:17:23Z</time>
      </trkpt>
      <trkpt lat="45.36898" lon="5.81246">
        <ele>1944.88</ele>
        <time>2015-03-07T13:17:26Z</time>
      </trkpt>
      <trkpt lat="45.36898" lon="5.81246">
        <ele>1942</ele>
        <time>2015-03-07T13:17:28Z</time>
      </trkpt>
      <trkpt lat="45.369" lon="5.81247">
        <ele>1940.08</ele>
        <time>2015-03-07T13:17:35Z</time>
      </trkpt>
      <trkpt lat="45.369" lon="5.81247">
        <ele>1942</ele>
        <time>2015-03-07T13:17:37Z</time>
      </trkpt>
      <trkpt lat="45.36901" lon="5.81247">
        <ele>1941.52</ele>
        <time>2015-03-07T13:17:48Z</time>
      </trkpt>
      <trkpt lat="45.36903" lon="5.81247">
        <ele>1942</ele>
        <time>2015-03-07T13:17:57Z</time>
      </trkpt>
      <trkpt lat="45.36903" lon="5.81246">
        <ele>1944.4</ele>
        <time>2015-03-07T13:18:03Z</time>
      </trkpt>
      <trkpt lat="45.36905" lon="5.81246">
        <ele>1946.33</ele>
        <time>2015-03-07T13:18:19Z</time>
      </trkpt>
      <trkpt lat="45.36905" lon="5.81246">
        <ele>1944.88</ele>
        <time>2015-03-07T13:18:21Z</time>
      </trkpt>
      <trkpt lat="45.36905" lon="5.81246">
        <ele>1948.25</ele>
        <time>2015-03-07T13:18:25Z</time>
      </trkpt>
      <trkpt lat="45.36905" lon="5.81246">
        <ele>1952.09</ele>
        <time>2015-03-07T13:18:27Z</time>
      </trkpt>
      <trkpt lat="45.36906" lon="5.81246">
        <ele>1950.17</ele>
        <time>2015-03-07T13:18:30Z</time>
      </trkpt>
      <trkpt lat="45.36906" lon="5.81246">
        <ele>1951.61</ele>
        <time>2015-03-07T13:18:32Z</time>
      </trkpt>
      <trkpt lat="45.36906" lon="5.81246">
        <ele>1948.73</ele>
        <time>2015-03-07T13:18:37Z</time>
      </trkpt>
      <trkpt lat="45.36907" lon="5.81247">
        <ele>1951.13</ele>
        <time>2015-03-07T13:18:49Z</time>
      </trkpt>
      <trkpt lat="45.36908" lon="5.81247">
        <ele>1948.73</ele>
        <time>2015-03-07T13:18:51Z</time>
      </trkpt>
      <trkpt lat="45.3691" lon="5.81247">
        <ele>1947.77</ele>
        <time>2015-03-07T13:18:58Z</time>
      </trkpt>
      <trkpt lat="45.3691" lon="5.81247">
        <ele>1951.13</ele>
        <time>2015-03-07T13:19:05Z</time>
      </trkpt>
      <trkpt lat="45.3691" lon="5.81247">
        <ele>1952.09</ele>
        <time>2015-03-07T13:19:07Z</time>
      </trkpt>
      <trkpt lat="45.3691" lon="5.81247">
        <ele>1949.69</ele>
        <time>2015-03-07T13:19:09Z</time>
      </trkpt>
      <trkpt lat="45.36914" lon="5.81246">
        <ele>1948.25</ele>
        <time>2015-03-07T13:19:29Z</time>
      </trkpt>
      <trkpt lat="45.36917" lon="5.81245">
        <ele>1951.61</ele>
        <time>2015-03-07T13:19:41Z</time>
      </trkpt>
      <trkpt lat="45.36917" lon="5.81245">
        <ele>1951.61</ele>
        <time>2015-03-07T13:19:42Z</time>
      </trkpt>
      <trkpt lat="45.36918" lon="5.81246">
        <ele>1951.13</ele>
        <time>2015-03-07T13:19:50Z</time>
      </trkpt>
      <trkpt lat="45.36919" lon="5.81246">
        <ele>1954.5</ele>
        <time>2015-03-07T13:19:52Z</time>
      </trkpt>
      <trkpt lat="45.36919" lon="5.81246">
        <ele>1954.5</ele>
        <time>2015-03-07T13:19:53Z</time>
      </trkpt>
      <trkpt lat="45.3692" lon="5.81246">
        <ele>1957.38</ele>
        <time>2015-03-07T13:19:57Z</time>
      </trkpt>
      <trkpt lat="45.3692" lon="5.81246">
        <ele>1957.38</ele>
        <time>2015-03-07T13:19:58Z</time>
      </trkpt>
      <trkpt lat="45.36922" lon="5.81246">
        <ele>1959.3</ele>
        <time>2015-03-07T13:20:06Z</time>
      </trkpt>
      <trkpt lat="45.36923" lon="5.81245">
        <ele>1955.94</ele>
        <time>2015-03-07T13:20:11Z</time>
      </trkpt>
      <trkpt lat="45.36924" lon="5.81243">
        <ele>1956.42</ele>
        <time>2015-03-07T13:20:19Z</time>
      </trkpt>
      <trkpt lat="45.36925" lon="5.81242">
        <ele>1958.82</ele>
        <time>2015-03-07T13:20:21Z</time>
      </trkpt>
      <trkpt lat="45.36928" lon="5.81245">
        <ele>1960.27</ele>
        <time>2015-03-07T13:20:36Z</time>
      </trkpt>
      <trkpt lat="45.3693" lon="5.81244">
        <ele>1959.78</ele>
        <time>2015-03-07T13:20:49Z</time>
      </trkpt>
      <trkpt lat="45.36934" lon="5.81241">
        <ele>1963.15</ele>
        <time>2015-03-07T13:21:05Z</time>
      </trkpt>
      <trkpt lat="45.36934" lon="5.81241">
        <ele>1963.15</ele>
        <time>2015-03-07T13:21:06Z</time>
      </trkpt>
      <trkpt lat="45.36935" lon="5.8124">
        <ele>1966.03</ele>
        <time>2015-03-07T13:21:15Z</time>
      </trkpt>
      <trkpt lat="45.36937" lon="5.81241">
        <ele>1968.92</ele>
        <time>2015-03-07T13:21:24Z</time>
      </trkpt>
      <trkpt lat="45.36937" lon="5.81241">
        <ele>1970.36</ele>
        <time>2015-03-07T13:21:26Z</time>
      </trkpt>
      <trkpt lat="45.36937" lon="5.81239">
        <ele>1969.88</ele>
        <time>2015-03-07T13:21:46Z</time>
      </trkpt>
      <trkpt lat="45.36937" lon="5.8124">
        <ele>1967.96</ele>
        <time>2015-03-07T13:21:51Z</time>
      </trkpt>
      <trkpt lat="45.36936" lon="5.8124">
        <ele>1968.44</ele>
        <time>2015-03-07T13:22:10Z</time>
      </trkpt>
      <trkpt lat="45.36938" lon="5.81241">
        <ele>1969.4</ele>
        <time>2015-03-07T13:22:25Z</time>
      </trkpt>
      <trkpt lat="45.36939" lon="5.81237">
        <ele>1970.84</ele>
        <time>2015-03-07T13:22:43Z</time>
      </trkpt>
      <trkpt lat="45.36939" lon="5.81236">
        <ele>1973.72</ele>
        <time>2015-03-07T13:22:48Z</time>
      </trkpt>
      <trkpt lat="45.36939" lon="5.81235">
        <ele>1973.72</ele>
        <time>2015-03-07T13:22:49Z</time>
      </trkpt>
      <trkpt lat="45.3694" lon="5.81234">
        <ele>1973.72</ele>
        <time>2015-03-07T13:22:55Z</time>
      </trkpt>
      <trkpt lat="45.3694" lon="5.81233">
        <ele>1975.65</ele>
        <time>2015-03-07T13:23:01Z</time>
      </trkpt>
      <trkpt lat="45.36941" lon="5.81233">
        <ele>1973.24</ele>
        <time>2015-03-07T13:23:05Z</time>
      </trkpt>
      <trkpt lat="45.36941" lon="5.81233">
        <ele>1974.69</ele>
        <time>2015-03-07T13:23:07Z</time>
      </trkpt>
      <trkpt lat="45.36941" lon="5.81232">
        <ele>1978.05</ele>
        <time>2015-03-07T13:23:16Z</time>
      </trkpt>
      <trkpt lat="45.36941" lon="5.81234">
        <ele>1975.17</ele>
        <time>2015-03-07T13:23:22Z</time>
      </trkpt>
      <trkpt lat="45.36942" lon="5.81234">
        <ele>1980.93</ele>
        <time>2015-03-07T13:23:27Z</time>
      </trkpt>
      <trkpt lat="45.36943" lon="5.81235">
        <ele>1976.13</ele>
        <time>2015-03-07T13:23:28Z</time>
      </trkpt>
      <trkpt lat="45.36943" lon="5.81235">
        <ele>1976.13</ele>
        <time>2015-03-07T13:23:29Z</time>
      </trkpt>
      <trkpt lat="45.36943" lon="5.81235">
        <ele>1977.09</ele>
        <time>2015-03-07T13:23:34Z</time>
      </trkpt>
      <trkpt lat="45.36945" lon="5.81235">
        <ele>1979.01</ele>
        <time>2015-03-07T13:23:52Z</time>
      </trkpt>
      <trkpt lat="45.36945" lon="5.81235">
        <ele>1982.38</ele>
        <time>2015-03-07T13:23:56Z</time>
      </trkpt>
      <trkpt lat="45.36946" lon="5.81235">
        <ele>1982.38</ele>
        <time>2015-03-07T13:23:57Z</time>
      </trkpt>
      <trkpt lat="45.36947" lon="5.81234">
        <ele>1983.82</ele>
        <time>2015-03-07T13:24:04Z</time>
      </trkpt>
      <trkpt lat="45.36949" lon="5.81234">
        <ele>1981.9</ele>
        <time>2015-03-07T13:24:09Z</time>
      </trkpt>
      <trkpt lat="45.36951" lon="5.81234">
        <ele>1982.38</ele>
        <time>2015-03-07T13:24:23Z</time>
      </trkpt>
      <trkpt lat="45.36952" lon="5.81235">
        <ele>1983.82</ele>
        <time>2015-03-07T13:24:36Z</time>
      </trkpt>
      <trkpt lat="45.36952" lon="5.81234">
        <ele>1985.26</ele>
        <time>2015-03-07T13:24:39Z</time>
      </trkpt>
      <trkpt lat="45.36954" lon="5.81234">
        <ele>1984.78</ele>
        <time>2015-03-07T13:24:47Z</time>
      </trkpt>
      <trkpt lat="45.36954" lon="5.81234">
        <ele>1981.41</ele>
        <time>2015-03-07T13:24:49Z</time>
      </trkpt>
      <trkpt lat="45.36954" lon="5.81234">
        <ele>1984.78</ele>
        <time>2015-03-07T13:24:50Z</time>
      </trkpt>
      <trkpt lat="45.36956" lon="5.81233">
        <ele>1987.18</ele>
        <time>2015-03-07T13:24:56Z</time>
      </trkpt>
      <trkpt lat="45.36957" lon="5.81233">
        <ele>1985.74</ele>
        <time>2015-03-07T13:24:59Z</time>
      </trkpt>
      <trkpt lat="45.36959" lon="5.81232">
        <ele>1987.18</ele>
        <time>2015-03-07T13:25:07Z</time>
      </trkpt>
      <trkpt lat="45.3696" lon="5.81231">
        <ele>1988.14</ele>
        <time>2015-03-07T13:25:12Z</time>
      </trkpt>
      <trkpt lat="45.36961" lon="5.81231">
        <ele>1986.22</ele>
        <time>2015-03-07T13:25:14Z</time>
      </trkpt>
      <trkpt lat="45.36961" lon="5.8123">
        <ele>1989.59</ele>
        <time>2015-03-07T13:25:19Z</time>
      </trkpt>
      <trkpt lat="45.36961" lon="5.8123">
        <ele>1985.26</ele>
        <time>2015-03-07T13:25:20Z</time>
      </trkpt>
      <trkpt lat="45.36963" lon="5.81229">
        <ele>1988.62</ele>
        <time>2015-03-07T13:25:24Z</time>
      </trkpt>
      <trkpt lat="45.36963" lon="5.81229">
        <ele>1988.62</ele>
        <time>2015-03-07T13:25:25Z</time>
      </trkpt>
      <trkpt lat="45.36964" lon="5.81228">
        <ele>1986.7</ele>
        <time>2015-03-07T13:25:31Z</time>
      </trkpt>
      <trkpt lat="45.36965" lon="5.81228">
        <ele>1989.1</ele>
        <time>2015-03-07T13:25:34Z</time>
      </trkpt>
      <trkpt lat="45.36966" lon="5.81227">
        <ele>1988.62</ele>
        <time>2015-03-07T13:25:40Z</time>
      </trkpt>
      <trkpt lat="45.36967" lon="5.81226">
        <ele>1989.1</ele>
        <time>2015-03-07T13:25:45Z</time>
      </trkpt>
      <trkpt lat="45.36967" lon="5.81225">
        <ele>1990.55</ele>
        <time>2015-03-07T13:25:49Z</time>
      </trkpt>
      <trkpt lat="45.36971" lon="5.81224">
        <ele>1991.03</ele>
        <time>2015-03-07T13:26:00Z</time>
      </trkpt>
      <trkpt lat="45.36972" lon="5.81224">
        <ele>1993.43</ele>
        <time>2015-03-07T13:26:02Z</time>
      </trkpt>
      <trkpt lat="45.36975" lon="5.81223">
        <ele>1995.35</ele>
        <time>2015-03-07T13:26:11Z</time>
      </trkpt>
      <trkpt lat="45.36973" lon="5.81224">
        <ele>1994.39</ele>
        <time>2015-03-07T13:26:23Z</time>
      </trkpt>
      <trkpt lat="45.36973" lon="5.81224">
        <ele>1994.39</ele>
        <time>2015-03-07T13:26:32Z</time>
      </trkpt>
      <trkpt lat="45.36974" lon="5.81224">
        <ele>1994.39</ele>
        <time>2015-03-07T13:26:38Z</time>
      </trkpt>
      <trkpt lat="45.36975" lon="5.81224">
        <ele>1992.47</ele>
        <time>2015-03-07T13:26:48Z</time>
      </trkpt>
      <trkpt lat="45.36975" lon="5.81224">
        <ele>1993.43</ele>
        <time>2015-03-07T13:26:57Z</time>
      </trkpt>
      <trkpt lat="45.36976" lon="5.81224">
        <ele>1992.47</ele>
        <time>2015-03-07T13:27:02Z</time>
      </trkpt>
      <trkpt lat="45.36976" lon="5.81223">
        <ele>1992.95</ele>
        <time>2015-03-07T13:27:25Z</time>
      </trkpt>
      <trkpt lat="45.36975" lon="5.81224">
        <ele>1995.83</ele>
        <time>2015-03-07T13:27:39Z</time>
      </trkpt>
      <trkpt lat="45.36975" lon="5.81224">
        <ele>1995.83</ele>
        <time>2015-03-07T13:27:40Z</time>
      </trkpt>
      <trkpt lat="45.36974" lon="5.81224">
        <ele>1993.43</ele>
        <time>2015-03-07T13:27:43Z</time>
      </trkpt>
      <trkpt lat="45.36978" lon="5.81223">
        <ele>1996.8</ele>
        <time>2015-03-07T13:28:00Z</time>
      </trkpt>
      <trkpt lat="45.36979" lon="5.81223">
        <ele>1997.76</ele>
        <time>2015-03-07T13:28:02Z</time>
      </trkpt>
      <trkpt lat="45.36981" lon="5.81223">
        <ele>1994.39</ele>
        <time>2015-03-07T13:28:06Z</time>
      </trkpt>
      <trkpt lat="45.36981" lon="5.81223">
        <ele>1994.39</ele>
        <time>2015-03-07T13:28:07Z</time>
      </trkpt>
      <trkpt lat="45.36984" lon="5.81222">
        <ele>1993.43</ele>
        <time>2015-03-07T13:28:14Z</time>
      </trkpt>
      <trkpt lat="45.36985" lon="5.81223">
        <ele>1995.35</ele>
        <time>2015-03-07T13:28:16Z</time>
      </trkpt>
      <trkpt lat="45.36987" lon="5.81222">
        <ele>1997.76</ele>
        <time>2015-03-07T13:28:23Z</time>
      </trkpt>
      <trkpt lat="45.3699" lon="5.81221">
        <ele>1999.68</ele>
        <time>2015-03-07T13:28:30Z</time>
      </trkpt>
      <trkpt lat="45.36992" lon="5.81219">
        <ele>1999.68</ele>
        <time>2015-03-07T13:28:40Z</time>
      </trkpt>
      <trkpt lat="45.36995" lon="5.81218">
        <ele>2003.52</ele>
        <time>2015-03-07T13:28:54Z</time>
      </trkpt>
      <trkpt lat="45.36995" lon="5.81218">
        <ele>2003.52</ele>
        <time>2015-03-07T13:28:55Z</time>
      </trkpt>
      <trkpt lat="45.36996" lon="5.81217">
        <ele>2005.45</ele>
        <time>2015-03-07T13:28:57Z</time>
      </trkpt>
      <trkpt lat="45.36997" lon="5.81218">
        <ele>2002.08</ele>
        <time>2015-03-07T13:29:02Z</time>
      </trkpt>
      <trkpt lat="45.36997" lon="5.81218">
        <ele>2001.6</ele>
        <time>2015-03-07T13:29:04Z</time>
      </trkpt>
      <trkpt lat="45.36998" lon="5.81219">
        <ele>2004.97</ele>
        <time>2015-03-07T13:29:06Z</time>
      </trkpt>
      <trkpt lat="45.36998" lon="5.81218">
        <ele>2005.45</ele>
        <time>2015-03-07T13:29:08Z</time>
      </trkpt>
      <trkpt lat="45.36999" lon="5.81218">
        <ele>2009.29</ele>
        <time>2015-03-07T13:29:13Z</time>
      </trkpt>
      <trkpt lat="45.36999" lon="5.81218">
        <ele>2009.29</ele>
        <time>2015-03-07T13:29:14Z</time>
      </trkpt>
      <trkpt lat="45.36999" lon="5.81217">
        <ele>2006.41</ele>
        <time>2015-03-07T13:29:16Z</time>
      </trkpt>
      <trkpt lat="45.37003" lon="5.81216">
        <ele>2005.45</ele>
        <time>2015-03-07T13:29:28Z</time>
      </trkpt>
      <trkpt lat="45.37006" lon="5.81216">
        <ele>2008.33</ele>
        <time>2015-03-07T13:29:39Z</time>
      </trkpt>
      <trkpt lat="45.37008" lon="5.81217">
        <ele>2009.77</ele>
        <time>2015-03-07T13:29:57Z</time>
      </trkpt>
      <trkpt lat="45.3701" lon="5.81218">
        <ele>2013.14</ele>
        <time>2015-03-07T13:30:03Z</time>
      </trkpt>
      <trkpt lat="45.37014" lon="5.81219">
        <ele>2012.18</ele>
        <time>2015-03-07T13:30:14Z</time>
      </trkpt>
      <trkpt lat="45.37016" lon="5.81219">
        <ele>2008.33</ele>
        <time>2015-03-07T13:30:23Z</time>
      </trkpt>
      <trkpt lat="45.37018" lon="5.81219">
        <ele>2011.7</ele>
        <time>2015-03-07T13:30:28Z</time>
      </trkpt>
      <trkpt lat="45.37018" lon="5.81218">
        <ele>2010.25</ele>
        <time>2015-03-07T13:30:31Z</time>
      </trkpt>
      <trkpt lat="45.37018" lon="5.81218">
        <ele>2012.18</ele>
        <time>2015-03-07T13:30:35Z</time>
      </trkpt>
      <trkpt lat="45.37019" lon="5.81218">
        <ele>2013.14</ele>
        <time>2015-03-07T13:30:39Z</time>
      </trkpt>
      <trkpt lat="45.37019" lon="5.81218">
        <ele>2011.7</ele>
        <time>2015-03-07T13:30:41Z</time>
      </trkpt>
      <trkpt lat="45.37021" lon="5.81218">
        <ele>2015.54</ele>
        <time>2015-03-07T13:30:49Z</time>
      </trkpt>
      <trkpt lat="45.37021" lon="5.81218">
        <ele>2015.54</ele>
        <time>2015-03-07T13:30:50Z</time>
      </trkpt>
      <trkpt lat="45.37021" lon="5.81217">
        <ele>2014.1</ele>
        <time>2015-03-07T13:30:52Z</time>
      </trkpt>
      <trkpt lat="45.37021" lon="5.81217">
        <ele>2016.5</ele>
        <time>2015-03-07T13:30:56Z</time>
      </trkpt>
      <trkpt lat="45.37021" lon="5.81217">
        <ele>2013.14</ele>
        <time>2015-03-07T13:30:59Z</time>
      </trkpt>
      <trkpt lat="45.37021" lon="5.81217">
        <ele>2013.14</ele>
        <time>2015-03-07T13:31:00Z</time>
      </trkpt>
      <trkpt lat="45.37022" lon="5.81215">
        <ele>2015.06</ele>
        <time>2015-03-07T13:31:04Z</time>
      </trkpt>
      <trkpt lat="45.37025" lon="5.81215">
        <ele>2016.5</ele>
        <time>2015-03-07T13:31:18Z</time>
      </trkpt>
      <trkpt lat="45.37028" lon="5.81214">
        <ele>2018.43</ele>
        <time>2015-03-07T13:31:34Z</time>
      </trkpt>
      <trkpt lat="45.37032" lon="5.81212">
        <ele>2021.79</ele>
        <time>2015-03-07T13:31:51Z</time>
      </trkpt>
      <trkpt lat="45.37032" lon="5.81212">
        <ele>2018.91</ele>
        <time>2015-03-07T13:31:53Z</time>
      </trkpt>
      <trkpt lat="45.37033" lon="5.81212">
        <ele>2020.83</ele>
        <time>2015-03-07T13:31:55Z</time>
      </trkpt>
      <trkpt lat="45.37033" lon="5.81212">
        <ele>2019.39</ele>
        <time>2015-03-07T13:31:59Z</time>
      </trkpt>
      <trkpt lat="45.37034" lon="5.81212">
        <ele>2020.35</ele>
        <time>2015-03-07T13:32:04Z</time>
      </trkpt>
      <trkpt lat="45.37036" lon="5.81211">
        <ele>2022.27</ele>
        <time>2015-03-07T13:32:12Z</time>
      </trkpt>
      <trkpt lat="45.37038" lon="5.81209">
        <ele>2026.6</ele>
        <time>2015-03-07T13:32:23Z</time>
      </trkpt>
      <trkpt lat="45.37038" lon="5.81209">
        <ele>2023.23</ele>
        <time>2015-03-07T13:32:25Z</time>
      </trkpt>
      <trkpt lat="45.3704" lon="5.81208">
        <ele>2025.64</ele>
        <time>2015-03-07T13:32:29Z</time>
      </trkpt>
      <trkpt lat="45.37042" lon="5.81208">
        <ele>2025.64</ele>
        <time>2015-03-07T13:32:35Z</time>
      </trkpt>
      <trkpt lat="45.37042" lon="5.81207">
        <ele>2028.52</ele>
        <time>2015-03-07T13:32:36Z</time>
      </trkpt>
      <trkpt lat="45.37043" lon="5.81207">
        <ele>2028.52</ele>
        <time>2015-03-07T13:32:37Z</time>
      </trkpt>
      <trkpt lat="45.37045" lon="5.81205">
        <ele>2027.56</ele>
        <time>2015-03-07T13:32:48Z</time>
      </trkpt>
      <trkpt lat="45.37045" lon="5.81205">
        <ele>2029</ele>
        <time>2015-03-07T13:32:50Z</time>
      </trkpt>
      <trkpt lat="45.37045" lon="5.81207">
        <ele>2028.52</ele>
        <time>2015-03-07T13:32:59Z</time>
      </trkpt>
      <trkpt lat="45.37045" lon="5.81207">
        <ele>2023.71</ele>
        <time>2015-03-07T13:33:01Z</time>
      </trkpt>
      <trkpt lat="45.37045" lon="5.81208">
        <ele>2021.79</ele>
        <time>2015-03-07T13:33:04Z</time>
      </trkpt>
      <trkpt lat="45.37048" lon="5.81207">
        <ele>2026.6</ele>
        <time>2015-03-07T13:33:08Z</time>
      </trkpt>
      <trkpt lat="45.37048" lon="5.81206">
        <ele>2028.52</ele>
        <time>2015-03-07T13:33:11Z</time>
      </trkpt>
      <trkpt lat="45.37049" lon="5.81206">
        <ele>2030.44</ele>
        <time>2015-03-07T13:33:16Z</time>
      </trkpt>
      <trkpt lat="45.37048" lon="5.81205">
        <ele>2028.52</ele>
        <time>2015-03-07T13:33:33Z</time>
      </trkpt>
      <trkpt lat="45.37047" lon="5.81205">
        <ele>2028.52</ele>
        <time>2015-03-07T13:33:34Z</time>
      </trkpt>
      <trkpt lat="45.37047" lon="5.81205">
        <ele>2027.08</ele>
        <time>2015-03-07T13:33:41Z</time>
      </trkpt>
      <trkpt lat="45.37047" lon="5.81205">
        <ele>2029</ele>
        <time>2015-03-07T13:33:46Z</time>
      </trkpt>
      <trkpt lat="45.37047" lon="5.81202">
        <ele>2027.56</ele>
        <time>2015-03-07T13:33:57Z</time>
      </trkpt>
      <trkpt lat="45.37047" lon="5.81207">
        <ele>2025.64</ele>
        <time>2015-03-07T13:34:16Z</time>
      </trkpt>
      <trkpt lat="45.37047" lon="5.81207">
        <ele>2022.75</ele>
        <time>2015-03-07T13:34:17Z</time>
      </trkpt>
      <trkpt lat="45.37048" lon="5.81206">
        <ele>2025.64</ele>
        <time>2015-03-07T13:34:22Z</time>
      </trkpt>
      <trkpt lat="45.37048" lon="5.81206">
        <ele>2025.64</ele>
        <time>2015-03-07T13:34:23Z</time>
      </trkpt>
      <trkpt lat="45.37048" lon="5.81206">
        <ele>2025.15</ele>
        <time>2015-03-07T13:34:32Z</time>
      </trkpt>
      <trkpt lat="45.37049" lon="5.81205">
        <ele>2026.6</ele>
        <time>2015-03-07T13:34:37Z</time>
      </trkpt>
      <trkpt lat="45.37049" lon="5.81205">
        <ele>2022.75</ele>
        <time>2015-03-07T13:34:43Z</time>
      </trkpt>
      <trkpt lat="45.37048" lon="5.81205">
        <ele>2023.71</ele>
        <time>2015-03-07T13:34:48Z</time>
      </trkpt>
      <trkpt lat="45.37048" lon="5.81204">
        <ele>2027.08</ele>
        <time>2015-03-07T13:34:50Z</time>
      </trkpt>
      <trkpt lat="45.37047" lon="5.81203">
        <ele>2029</ele>
        <time>2015-03-07T13:35:06Z</time>
      </trkpt>
      <trkpt lat="45.37048" lon="5.81204">
        <ele>2026.6</ele>
        <time>2015-03-07T13:35:30Z</time>
      </trkpt>
      <trkpt lat="45.37047" lon="5.81205">
        <ele>2027.56</ele>
        <time>2015-03-07T13:35:44Z</time>
      </trkpt>
      <trkpt lat="45.37046" lon="5.81206">
        <ele>2026.6</ele>
        <time>2015-03-07T13:36:20Z</time>
      </trkpt>
      <trkpt lat="45.37046" lon="5.81206">
        <ele>2028.04</ele>
        <time>2015-03-07T13:36:22Z</time>
      </trkpt>
      <trkpt lat="45.37046" lon="5.81206">
        <ele>2028.04</ele>
        <time>2015-03-07T13:36:51Z</time>
      </trkpt>
      <trkpt lat="45.37045" lon="5.81206">
        <ele>2028.52</ele>
        <time>2015-03-07T13:37:04Z</time>
      </trkpt>
      <trkpt lat="45.37045" lon="5.81206">
        <ele>2029</ele>
        <time>2015-03-07T13:37:15Z</time>
      </trkpt>
      <trkpt lat="45.37046" lon="5.81206">
        <ele>2028.04</ele>
        <time>2015-03-07T13:37:19Z</time>
      </trkpt>
      <trkpt lat="45.37047" lon="5.81206">
        <ele>2029.48</ele>
        <time>2015-03-07T13:37:35Z</time>
      </trkpt>
      <trkpt lat="45.37046" lon="5.81205">
        <ele>2027.56</ele>
        <time>2015-03-07T13:37:47Z</time>
      </trkpt>
      <trkpt lat="45.37047" lon="5.81204">
        <ele>2025.15</ele>
        <time>2015-03-07T13:37:59Z</time>
      </trkpt>
      <trkpt lat="45.37047" lon="5.81204">
        <ele>2025.15</ele>
        <time>2015-03-07T13:38:23Z</time>
      </trkpt>
      <trkpt lat="45.37047" lon="5.81203">
        <ele>2027.08</ele>
        <time>2015-03-07T13:38:31Z</time>
      </trkpt>
      <trkpt lat="45.37047" lon="5.81205">
        <ele>2025.64</ele>
        <time>2015-03-07T13:38:35Z</time>
      </trkpt>
      <trkpt lat="45.37048" lon="5.81206">
        <ele>2027.56</ele>
        <time>2015-03-07T13:38:42Z</time>
      </trkpt>
      <trkpt lat="45.37047" lon="5.81206">
        <ele>2025.64</ele>
        <time>2015-03-07T13:38:56Z</time>
      </trkpt>
      <trkpt lat="45.37047" lon="5.81206">
        <ele>2029</ele>
        <time>2015-03-07T13:39:05Z</time>
      </trkpt>
      <trkpt lat="45.37047" lon="5.81207">
        <ele>2029</ele>
        <time>2015-03-07T13:39:06Z</time>
      </trkpt>
      <trkpt lat="45.37047" lon="5.81207">
        <ele>2028.52</ele>
        <time>2015-03-07T13:39:13Z</time>
      </trkpt>
      <trkpt lat="45.37047" lon="5.81207">
        <ele>2027.08</ele>
        <time>2015-03-07T13:39:15Z</time>
      </trkpt>
      <trkpt lat="45.37047" lon="5.81207">
        <ele>2025.15</ele>
        <time>2015-03-07T13:39:17Z</time>
      </trkpt>
      <trkpt lat="45.37046" lon="5.81207">
        <ele>2025.15</ele>
        <time>2015-03-07T13:39:26Z</time>
      </trkpt>
      <trkpt lat="45.37046" lon="5.81207">
        <ele>2028.04</ele>
        <time>2015-03-07T13:39:31Z</time>
      </trkpt>
      <trkpt lat="45.37046" lon="5.81206">
        <ele>2026.12</ele>
        <time>2015-03-07T13:39:35Z</time>
      </trkpt>
      <trkpt lat="45.37046" lon="5.81206">
        <ele>2025.15</ele>
        <time>2015-03-07T13:39:37Z</time>
      </trkpt>
      <trkpt lat="45.37046" lon="5.81206">
        <ele>2026.12</ele>
        <time>2015-03-07T13:39:40Z</time>
      </trkpt>
      <trkpt lat="45.37045" lon="5.81206">
        <ele>2029</ele>
        <time>2015-03-07T13:39:45Z</time>
      </trkpt>
      <trkpt lat="45.37045" lon="5.81206">
        <ele>2031.4</ele>
        <time>2015-03-07T13:39:51Z</time>
      </trkpt>
      <trkpt lat="45.37045" lon="5.81206">
        <ele>2028.04</ele>
        <time>2015-03-07T13:39:56Z</time>
      </trkpt>
      <trkpt lat="45.37045" lon="5.81207">
        <ele>2028.04</ele>
        <time>2015-03-07T13:39:57Z</time>
      </trkpt>
      <trkpt lat="45.37046" lon="5.81206">
        <ele>2029.48</ele>
        <time>2015-03-07T13:40:11Z</time>
      </trkpt>
      <trkpt lat="45.37046" lon="5.81206">
        <ele>2028.04</ele>
        <time>2015-03-07T13:40:21Z</time>
      </trkpt>
      <trkpt lat="45.37046" lon="5.81207">
        <ele>2028.04</ele>
        <time>2015-03-07T13:40:32Z</time>
      </trkpt>
      <trkpt lat="45.37046" lon="5.81207">
        <ele>2026.12</ele>
        <time>2015-03-07T13:40:36Z</time>
      </trkpt>
      <trkpt lat="45.37045" lon="5.81207">
        <ele>2027.08</ele>
        <time>2015-03-07T13:40:42Z</time>
      </trkpt>
      <trkpt lat="45.37045" lon="5.81207">
        <ele>2023.71</ele>
        <time>2015-03-07T13:40:54Z</time>
      </trkpt>
      <trkpt lat="45.37045" lon="5.81207">
        <ele>2028.04</ele>
        <time>2015-03-07T13:40:55Z</time>
      </trkpt>
      <trkpt lat="45.37045" lon="5.81206">
        <ele>2025.15</ele>
        <time>2015-03-07T13:41:07Z</time>
      </trkpt>
      <trkpt lat="45.37045" lon="5.81206">
        <ele>2027.08</ele>
        <time>2015-03-07T13:41:09Z</time>
      </trkpt>
      <trkpt lat="45.37045" lon="5.81205">
        <ele>2029</ele>
        <time>2015-03-07T13:41:14Z</time>
      </trkpt>
      <trkpt lat="45.37046" lon="5.81205">
        <ele>2027.56</ele>
        <time>2015-03-07T13:41:22Z</time>
      </trkpt>
      <trkpt lat="45.37046" lon="5.81206">
        <ele>2028.04</ele>
        <time>2015-03-07T13:41:43Z</time>
      </trkpt>
      <trkpt lat="45.37046" lon="5.81206">
        <ele>2025.64</ele>
        <time>2015-03-07T13:41:47Z</time>
      </trkpt>
      <trkpt lat="45.37046" lon="5.81206">
        <ele>2027.08</ele>
        <time>2015-03-07T13:41:51Z</time>
      </trkpt>
      <trkpt lat="45.37046" lon="5.81207">
        <ele>2024.19</ele>
        <time>2015-03-07T13:42:07Z</time>
      </trkpt>
      <trkpt lat="45.37046" lon="5.81207">
        <ele>2027.56</ele>
        <time>2015-03-07T13:42:12Z</time>
      </trkpt>
      <trkpt lat="45.37046" lon="5.81207">
        <ele>2026.12</ele>
        <time>2015-03-07T13:42:21Z</time>
      </trkpt>
      <trkpt lat="45.37044" lon="5.81206">
        <ele>2026.6</ele>
        <time>2015-03-07T13:42:42Z</time>
      </trkpt>
      <trkpt lat="45.37043" lon="5.81205">
        <ele>2025.64</ele>
        <time>2015-03-07T13:42:53Z</time>
      </trkpt>
      <trkpt lat="45.37043" lon="5.81205">
        <ele>2026.6</ele>
        <time>2015-03-07T13:43:03Z</time>
      </trkpt>
      <trkpt lat="45.37044" lon="5.81205">
        <ele>2025.15</ele>
        <time>2015-03-07T13:43:31Z</time>
      </trkpt>
      <trkpt lat="45.37044" lon="5.81205">
        <ele>2027.08</ele>
        <time>2015-03-07T13:43:34Z</time>
      </trkpt>
      <trkpt lat="45.37044" lon="5.81204">
        <ele>2025.64</ele>
        <time>2015-03-07T13:43:36Z</time>
      </trkpt>
      <trkpt lat="45.37044" lon="5.81204">
        <ele>2026.6</ele>
        <time>2015-03-07T13:43:56Z</time>
      </trkpt>
      <trkpt lat="45.37044" lon="5.81203">
        <ele>2026.12</ele>
        <time>2015-03-07T13:44:20Z</time>
      </trkpt>
      <trkpt lat="45.37045" lon="5.81203">
        <ele>2024.19</ele>
        <time>2015-03-07T13:44:47Z</time>
      </trkpt>
      <trkpt lat="45.37045" lon="5.81203">
        <ele>2027.56</ele>
        <time>2015-03-07T13:44:58Z</time>
      </trkpt>
      <trkpt lat="45.37045" lon="5.81203">
        <ele>2025.15</ele>
        <time>2015-03-07T13:45:03Z</time>
      </trkpt>
      <trkpt lat="45.37045" lon="5.81202">
        <ele>2026.6</ele>
        <time>2015-03-07T13:45:34Z</time>
      </trkpt>
      <trkpt lat="45.37045" lon="5.81202">
        <ele>2025.15</ele>
        <time>2015-03-07T13:45:39Z</time>
      </trkpt>
      <trkpt lat="45.37045" lon="5.81202">
        <ele>2024.19</ele>
        <time>2015-03-07T13:45:46Z</time>
      </trkpt>
      <trkpt lat="45.37045" lon="5.81202">
        <ele>2026.12</ele>
        <time>2015-03-07T13:45:48Z</time>
      </trkpt>
      <trkpt lat="45.37046" lon="5.81202">
        <ele>2021.79</ele>
        <time>2015-03-07T13:45:58Z</time>
      </trkpt>
      <trkpt lat="45.37047" lon="5.81203">
        <ele>2020.35</ele>
        <time>2015-03-07T13:46:00Z</time>
      </trkpt>
      <trkpt lat="45.37047" lon="5.81204">
        <ele>2023.23</ele>
        <time>2015-03-07T13:46:02Z</time>
      </trkpt>
      <trkpt lat="45.37047" lon="5.81205">
        <ele>2029</ele>
        <time>2015-03-07T13:46:04Z</time>
      </trkpt>
      <trkpt lat="45.37047" lon="5.81206">
        <ele>2028.04</ele>
        <time>2015-03-07T13:46:05Z</time>
      </trkpt>
      <trkpt lat="45.37047" lon="5.81206">
        <ele>2027.08</ele>
        <time>2015-03-07T13:46:07Z</time>
      </trkpt>
      <trkpt lat="45.37047" lon="5.81206">
        <ele>2022.75</ele>
        <time>2015-03-07T13:46:09Z</time>
      </trkpt>
      <trkpt lat="45.37047" lon="5.81206">
        <ele>2026.12</ele>
        <time>2015-03-07T13:46:10Z</time>
      </trkpt>
      <trkpt lat="45.37047" lon="5.81208">
        <ele>2025.15</ele>
        <time>2015-03-07T13:46:27Z</time>
      </trkpt>
      <trkpt lat="45.37047" lon="5.81208">
        <ele>2029</ele>
        <time>2015-03-07T13:46:32Z</time>
      </trkpt>
      <trkpt lat="45.37047" lon="5.81209">
        <ele>2026.6</ele>
        <time>2015-03-07T13:46:33Z</time>
      </trkpt>
      <trkpt lat="45.37047" lon="5.81209">
        <ele>2023.23</ele>
        <time>2015-03-07T13:46:36Z</time>
      </trkpt>
      <trkpt lat="45.37048" lon="5.81209">
        <ele>2033.33</ele>
        <time>2015-03-07T13:46:37Z</time>
      </trkpt>
      <trkpt lat="45.37047" lon="5.81209">
        <ele>2027.56</ele>
        <time>2015-03-07T13:46:38Z</time>
      </trkpt>
      <trkpt lat="45.37048" lon="5.81209">
        <ele>2022.75</ele>
        <time>2015-03-07T13:46:43Z</time>
      </trkpt>
      <trkpt lat="45.37049" lon="5.81207">
        <ele>2027.56</ele>
        <time>2015-03-07T13:46:49Z</time>
      </trkpt>
      <trkpt lat="45.37049" lon="5.81206">
        <ele>2022.75</ele>
        <time>2015-03-07T13:46:50Z</time>
      </trkpt>
      <trkpt lat="45.37052" lon="5.81203">
        <ele>2021.79</ele>
        <time>2015-03-07T13:46:59Z</time>
      </trkpt>
      <trkpt lat="45.37052" lon="5.81202">
        <ele>2023.71</ele>
        <time>2015-03-07T13:47:01Z</time>
      </trkpt>
      <trkpt lat="45.37055" lon="5.81202">
        <ele>2024.19</ele>
        <time>2015-03-07T13:47:09Z</time>
      </trkpt>
      <trkpt lat="45.37056" lon="5.81202">
        <ele>2021.79</ele>
        <time>2015-03-07T13:47:13Z</time>
      </trkpt>
      <trkpt lat="45.37056" lon="5.81203">
        <ele>2025.64</ele>
        <time>2015-03-07T13:47:14Z</time>
      </trkpt>
      <trkpt lat="45.37051" lon="5.81207">
        <ele>2024.67</ele>
        <time>2015-03-07T13:47:22Z</time>
      </trkpt>
      <trkpt lat="45.37048" lon="5.81208">
        <ele>2024.67</ele>
        <time>2015-03-07T13:47:33Z</time>
      </trkpt>
      <trkpt lat="45.37048" lon="5.81208">
        <ele>2023.23</ele>
        <time>2015-03-07T13:47:42Z</time>
      </trkpt>
      <trkpt lat="45.37048" lon="5.81208">
        <ele>2025.64</ele>
        <time>2015-03-07T13:47:47Z</time>
      </trkpt>
      <trkpt lat="45.37048" lon="5.81209">
        <ele>2025.64</ele>
        <time>2015-03-07T13:47:52Z</time>
      </trkpt>
      <trkpt lat="45.37047" lon="5.81208">
        <ele>2027.56</ele>
        <time>2015-03-07T13:48:02Z</time>
      </trkpt>
      <trkpt lat="45.37047" lon="5.81209">
        <ele>2027.08</ele>
        <time>2015-03-07T13:48:18Z</time>
      </trkpt>
      <trkpt lat="45.37047" lon="5.81209">
        <ele>2028.52</ele>
        <time>2015-03-07T13:48:26Z</time>
      </trkpt>
      <trkpt lat="45.37047" lon="5.81209">
        <ele>2020.83</ele>
        <time>2015-03-07T13:48:31Z</time>
      </trkpt>
      <trkpt lat="45.37047" lon="5.81209">
        <ele>2032.84</ele>
        <time>2015-03-07T13:48:32Z</time>
      </trkpt>
      <trkpt lat="45.37047" lon="5.81209">
        <ele>2028.52</ele>
        <time>2015-03-07T13:48:33Z</time>
      </trkpt>
      <trkpt lat="45.37046" lon="5.81208">
        <ele>2027.56</ele>
        <time>2015-03-07T13:48:35Z</time>
      </trkpt>
      <trkpt lat="45.37047" lon="5.81207">
        <ele>2029</ele>
        <time>2015-03-07T13:48:45Z</time>
      </trkpt>
      <trkpt lat="45.37049" lon="5.81208">
        <ele>2023.23</ele>
        <time>2015-03-07T13:48:51Z</time>
      </trkpt>
      <trkpt lat="45.3705" lon="5.81208">
        <ele>2018.91</ele>
        <time>2015-03-07T13:48:52Z</time>
      </trkpt>
      <trkpt lat="45.3706" lon="5.81211">
        <ele>2015.54</ele>
        <time>2015-03-07T13:48:55Z</time>
      </trkpt>
      <trkpt lat="45.37066" lon="5.81212">
        <ele>2011.7</ele>
        <time>2015-03-07T13:48:56Z</time>
      </trkpt>
      <trkpt lat="45.37071" lon="5.81211">
        <ele>2013.62</ele>
        <time>2015-03-07T13:48:57Z</time>
      </trkpt>
      <trkpt lat="45.37079" lon="5.8121">
        <ele>2014.1</ele>
        <time>2015-03-07T13:48:59Z</time>
      </trkpt>
      <trkpt lat="45.37084" lon="5.81207">
        <ele>2016.5</ele>
        <time>2015-03-07T13:49:01Z</time>
      </trkpt>
      <trkpt lat="45.37102" lon="5.81204">
        <ele>2012.66</ele>
        <time>2015-03-07T13:49:07Z</time>
      </trkpt>
      <trkpt lat="45.37106" lon="5.81204">
        <ele>2012.66</ele>
        <time>2015-03-07T13:49:08Z</time>
      </trkpt>
      <trkpt lat="45.37133" lon="5.81216">
        <ele>2009.29</ele>
        <time>2015-03-07T13:49:16Z</time>
      </trkpt>
      <trkpt lat="45.37144" lon="5.81221">
        <ele>2002.08</ele>
        <time>2015-03-07T13:49:20Z</time>
      </trkpt>
      <trkpt lat="45.37147" lon="5.81222">
        <ele>2004.49</ele>
        <time>2015-03-07T13:49:21Z</time>
      </trkpt>
      <trkpt lat="45.37153" lon="5.81224">
        <ele>2000.64</ele>
        <time>2015-03-07T13:49:23Z</time>
      </trkpt>
      <trkpt lat="45.37156" lon="5.81225">
        <ele>2003.04</ele>
        <time>2015-03-07T13:49:24Z</time>
      </trkpt>
      <trkpt lat="45.37167" lon="5.81228">
        <ele>2003.04</ele>
        <time>2015-03-07T13:49:27Z</time>
      </trkpt>
      <trkpt lat="45.37177" lon="5.81229">
        <ele>2000.16</ele>
        <time>2015-03-07T13:49:29Z</time>
      </trkpt>
      <trkpt lat="45.37193" lon="5.81236">
        <ele>1991.03</ele>
        <time>2015-03-07T13:49:32Z</time>
      </trkpt>
      <trkpt lat="45.37199" lon="5.8124">
        <ele>1991.99</ele>
        <time>2015-03-07T13:49:33Z</time>
      </trkpt>
      <trkpt lat="45.37219" lon="5.81247">
        <ele>1986.22</ele>
        <time>2015-03-07T13:49:36Z</time>
      </trkpt>
      <trkpt lat="45.37247" lon="5.81285">
        <ele>1981.41</ele>
        <time>2015-03-07T13:49:43Z</time>
      </trkpt>
      <trkpt lat="45.3725" lon="5.81298">
        <ele>1978.05</ele>
        <time>2015-03-07T13:49:45Z</time>
      </trkpt>
      <trkpt lat="45.37258" lon="5.81306">
        <ele>1974.69</ele>
        <time>2015-03-07T13:49:47Z</time>
      </trkpt>
      <trkpt lat="45.37266" lon="5.81317">
        <ele>1969.4</ele>
        <time>2015-03-07T13:49:49Z</time>
      </trkpt>
      <trkpt lat="45.37273" lon="5.81321">
        <ele>1964.59</ele>
        <time>2015-03-07T13:49:50Z</time>
      </trkpt>
      <trkpt lat="45.37281" lon="5.81324">
        <ele>1964.59</ele>
        <time>2015-03-07T13:49:51Z</time>
      </trkpt>
      <trkpt lat="45.37311" lon="5.81329">
        <ele>1957.38</ele>
        <time>2015-03-07T13:49:54Z</time>
      </trkpt>
      <trkpt lat="45.3732" lon="5.81331">
        <ele>1957.38</ele>
        <time>2015-03-07T13:49:55Z</time>
      </trkpt>
      <trkpt lat="45.37336" lon="5.81332">
        <ele>1954.98</ele>
        <time>2015-03-07T13:49:57Z</time>
      </trkpt>
      <trkpt lat="45.37348" lon="5.81332">
        <ele>1958.82</ele>
        <time>2015-03-07T13:49:59Z</time>
      </trkpt>
      <trkpt lat="45.37353" lon="5.81332">
        <ele>1957.38</ele>
        <time>2015-03-07T13:50:00Z</time>
      </trkpt>
      <trkpt lat="45.3738" lon="5.81329">
        <ele>1956.9</ele>
        <time>2015-03-07T13:50:07Z</time>
      </trkpt>
      <trkpt lat="45.374" lon="5.81326">
        <ele>1954.02</ele>
        <time>2015-03-07T13:50:12Z</time>
      </trkpt>
      <trkpt lat="45.37412" lon="5.81324">
        <ele>1955.46</ele>
        <time>2015-03-07T13:50:15Z</time>
      </trkpt>
      <trkpt lat="45.37423" lon="5.81322">
        <ele>1954.02</ele>
        <time>2015-03-07T13:50:18Z</time>
      </trkpt>
      <trkpt lat="45.37431" lon="5.8132">
        <ele>1954.98</ele>
        <time>2015-03-07T13:50:20Z</time>
      </trkpt>
      <trkpt lat="45.37442" lon="5.81318">
        <ele>1952.57</ele>
        <time>2015-03-07T13:50:23Z</time>
      </trkpt>
      <trkpt lat="45.37473" lon="5.81317">
        <ele>1951.13</ele>
        <time>2015-03-07T13:50:34Z</time>
      </trkpt>
      <trkpt lat="45.37481" lon="5.81318">
        <ele>1949.69</ele>
        <time>2015-03-07T13:50:37Z</time>
      </trkpt>
      <trkpt lat="45.37495" lon="5.81321">
        <ele>1946.33</ele>
        <time>2015-03-07T13:50:42Z</time>
      </trkpt>
      <trkpt lat="45.37508" lon="5.81326">
        <ele>1947.77</ele>
        <time>2015-03-07T13:50:46Z</time>
      </trkpt>
      <trkpt lat="45.37517" lon="5.8133">
        <ele>1943.44</ele>
        <time>2015-03-07T13:50:48Z</time>
      </trkpt>
      <trkpt lat="45.37531" lon="5.81335">
        <ele>1945.85</ele>
        <time>2015-03-07T13:50:51Z</time>
      </trkpt>
      <trkpt lat="45.37554" lon="5.81339">
        <ele>1942</ele>
        <time>2015-03-07T13:50:58Z</time>
      </trkpt>
      <trkpt lat="45.37572" lon="5.81346">
        <ele>1934.31</ele>
        <time>2015-03-07T13:51:02Z</time>
      </trkpt>
      <trkpt lat="45.37585" lon="5.81351">
        <ele>1931.43</ele>
        <time>2015-03-07T13:51:04Z</time>
      </trkpt>
      <trkpt lat="45.37598" lon="5.81357">
        <ele>1928.54</ele>
        <time>2015-03-07T13:51:06Z</time>
      </trkpt>
      <trkpt lat="45.37611" lon="5.81363">
        <ele>1925.18</ele>
        <time>2015-03-07T13:51:08Z</time>
      </trkpt>
      <trkpt lat="45.37617" lon="5.81365">
        <ele>1925.18</ele>
        <time>2015-03-07T13:51:09Z</time>
      </trkpt>
      <trkpt lat="45.37633" lon="5.81374">
        <ele>1921.33</ele>
        <time>2015-03-07T13:51:12Z</time>
      </trkpt>
      <trkpt lat="45.37636" lon="5.81376">
        <ele>1921.81</ele>
        <time>2015-03-07T13:51:13Z</time>
      </trkpt>
      <trkpt lat="45.37639" lon="5.81387">
        <ele>1916.04</ele>
        <time>2015-03-07T13:51:17Z</time>
      </trkpt>
      <trkpt lat="45.37643" lon="5.81392">
        <ele>1912.68</ele>
        <time>2015-03-07T13:51:19Z</time>
      </trkpt>
      <trkpt lat="45.37645" lon="5.81393">
        <ele>1912.68</ele>
        <time>2015-03-07T13:51:20Z</time>
      </trkpt>
      <trkpt lat="45.37646" lon="5.81394">
        <ele>1912.68</ele>
        <time>2015-03-07T13:51:21Z</time>
      </trkpt>
      <trkpt lat="45.37651" lon="5.81399">
        <ele>1908.83</ele>
        <time>2015-03-07T13:51:23Z</time>
      </trkpt>
      <trkpt lat="45.37667" lon="5.81411">
        <ele>1902.59</ele>
        <time>2015-03-07T13:51:26Z</time>
      </trkpt>
      <trkpt lat="45.37687" lon="5.81425">
        <ele>1897.78</ele>
        <time>2015-03-07T13:51:29Z</time>
      </trkpt>
      <trkpt lat="45.37698" lon="5.81436">
        <ele>1897.78</ele>
        <time>2015-03-07T13:51:31Z</time>
      </trkpt>
      <trkpt lat="45.37718" lon="5.81452">
        <ele>1892.49</ele>
        <time>2015-03-07T13:51:35Z</time>
      </trkpt>
      <trkpt lat="45.37723" lon="5.81454">
        <ele>1891.53</ele>
        <time>2015-03-07T13:51:36Z</time>
      </trkpt>
      <trkpt lat="45.37741" lon="5.81459">
        <ele>1885.76</ele>
        <time>2015-03-07T13:51:40Z</time>
      </trkpt>
      <trkpt lat="45.37745" lon="5.8146">
        <ele>1885.76</ele>
        <time>2015-03-07T13:51:41Z</time>
      </trkpt>
      <trkpt lat="45.37749" lon="5.8146">
        <ele>1885.76</ele>
        <time>2015-03-07T13:51:42Z</time>
      </trkpt>
      <trkpt lat="45.37753" lon="5.81457">
        <ele>1887.21</ele>
        <time>2015-03-07T13:51:48Z</time>
      </trkpt>
      <trkpt lat="45.37748" lon="5.81455">
        <ele>1887.21</ele>
        <time>2015-03-07T13:52:00Z</time>
      </trkpt>
      <trkpt lat="45.37756" lon="5.81455">
        <ele>1881.44</ele>
        <time>2015-03-07T13:52:03Z</time>
      </trkpt>
      <trkpt lat="45.37761" lon="5.81455">
        <ele>1881.44</ele>
        <time>2015-03-07T13:52:04Z</time>
      </trkpt>
      <trkpt lat="45.37766" lon="5.81454">
        <ele>1879.51</ele>
        <time>2015-03-07T13:52:05Z</time>
      </trkpt>
      <trkpt lat="45.3778" lon="5.81453">
        <ele>1880.96</ele>
        <time>2015-03-07T13:52:08Z</time>
      </trkpt>
      <trkpt lat="45.37784" lon="5.81453">
        <ele>1880.96</ele>
        <time>2015-03-07T13:52:09Z</time>
      </trkpt>
      <trkpt lat="45.37809" lon="5.81456">
        <ele>1873.27</ele>
        <time>2015-03-07T13:52:14Z</time>
      </trkpt>
      <trkpt lat="45.37822" lon="5.81458">
        <ele>1870.38</ele>
        <time>2015-03-07T13:52:16Z</time>
      </trkpt>
      <trkpt lat="45.37829" lon="5.81458">
        <ele>1867.02</ele>
        <time>2015-03-07T13:52:17Z</time>
      </trkpt>
      <trkpt lat="45.37844" lon="5.81461">
        <ele>1863.65</ele>
        <time>2015-03-07T13:52:19Z</time>
      </trkpt>
      <trkpt lat="45.3787" lon="5.81466">
        <ele>1859.81</ele>
        <time>2015-03-07T13:52:22Z</time>
      </trkpt>
      <trkpt lat="45.37878" lon="5.81467">
        <ele>1859.81</ele>
        <time>2015-03-07T13:52:23Z</time>
      </trkpt>
      <trkpt lat="45.37902" lon="5.81473">
        <ele>1861.25</ele>
        <time>2015-03-07T13:52:27Z</time>
      </trkpt>
      <trkpt lat="45.37915" lon="5.81481">
        <ele>1862.21</ele>
        <time>2015-03-07T13:52:31Z</time>
      </trkpt>
      <trkpt lat="45.37929" lon="5.81488">
        <ele>1863.17</ele>
        <time>2015-03-07T13:52:43Z</time>
      </trkpt>
      <trkpt lat="45.37944" lon="5.81494">
        <ele>1864.13</ele>
        <time>2015-03-07T13:52:52Z</time>
      </trkpt>
      <trkpt lat="45.37944" lon="5.81494">
        <ele>1864.13</ele>
        <time>2015-03-07T13:52:56Z</time>
      </trkpt>
      <trkpt lat="45.37948" lon="5.81498">
        <ele>1861.25</ele>
        <time>2015-03-07T13:53:00Z</time>
      </trkpt>
      <trkpt lat="45.37949" lon="5.81498">
        <ele>1864.13</ele>
        <time>2015-03-07T13:53:01Z</time>
      </trkpt>
      <trkpt lat="45.37949" lon="5.81499">
        <ele>1864.13</ele>
        <time>2015-03-07T13:53:02Z</time>
      </trkpt>
      <trkpt lat="45.3795" lon="5.81499">
        <ele>1862.21</ele>
        <time>2015-03-07T13:53:04Z</time>
      </trkpt>
      <trkpt lat="45.37949" lon="5.81499">
        <ele>1864.13</ele>
        <time>2015-03-07T13:53:11Z</time>
      </trkpt>
      <trkpt lat="45.37949" lon="5.81499">
        <ele>1863.17</ele>
        <time>2015-03-07T13:53:22Z</time>
      </trkpt>
      <trkpt lat="45.37949" lon="5.81498">
        <ele>1860.77</ele>
        <time>2015-03-07T13:53:45Z</time>
      </trkpt>
      <trkpt lat="45.37949" lon="5.81498">
        <ele>1863.65</ele>
        <time>2015-03-07T13:54:09Z</time>
      </trkpt>
      <trkpt lat="45.37954" lon="5.81503">
        <ele>1859.81</ele>
        <time>2015-03-07T13:54:37Z</time>
      </trkpt>
      <trkpt lat="45.37961" lon="5.81508">
        <ele>1857.89</ele>
        <time>2015-03-07T13:54:39Z</time>
      </trkpt>
      <trkpt lat="45.37975" lon="5.81514">
        <ele>1855</ele>
        <time>2015-03-07T13:54:42Z</time>
      </trkpt>
      <trkpt lat="45.37984" lon="5.81515">
        <ele>1858.37</ele>
        <time>2015-03-07T13:54:44Z</time>
      </trkpt>
      <trkpt lat="45.37988" lon="5.81516">
        <ele>1859.33</ele>
        <time>2015-03-07T13:54:46Z</time>
      </trkpt>
      <trkpt lat="45.37995" lon="5.8152">
        <ele>1858.37</ele>
        <time>2015-03-07T13:54:51Z</time>
      </trkpt>
      <trkpt lat="45.37999" lon="5.81521">
        <ele>1858.37</ele>
        <time>2015-03-07T13:55:01Z</time>
      </trkpt>
      <trkpt lat="45.38021" lon="5.81533">
        <ele>1856.92</ele>
        <time>2015-03-07T13:55:12Z</time>
      </trkpt>
      <trkpt lat="45.38031" lon="5.8154">
        <ele>1854.04</ele>
        <time>2015-03-07T13:55:15Z</time>
      </trkpt>
      <trkpt lat="45.38045" lon="5.81546">
        <ele>1852.6</ele>
        <time>2015-03-07T13:55:18Z</time>
      </trkpt>
      <trkpt lat="45.38063" lon="5.81553">
        <ele>1845.39</ele>
        <time>2015-03-07T13:55:21Z</time>
      </trkpt>
      <trkpt lat="45.38075" lon="5.81557">
        <ele>1843.47</ele>
        <time>2015-03-07T13:55:23Z</time>
      </trkpt>
      <trkpt lat="45.3808" lon="5.81559">
        <ele>1842.02</ele>
        <time>2015-03-07T13:55:24Z</time>
      </trkpt>
      <trkpt lat="45.38095" lon="5.8156">
        <ele>1845.87</ele>
        <time>2015-03-07T13:55:27Z</time>
      </trkpt>
      <trkpt lat="45.381" lon="5.81563">
        <ele>1840.1</ele>
        <time>2015-03-07T13:55:28Z</time>
      </trkpt>
      <trkpt lat="45.38116" lon="5.8157">
        <ele>1835.77</ele>
        <time>2015-03-07T13:55:31Z</time>
      </trkpt>
      <trkpt lat="45.38125" lon="5.81569">
        <ele>1840.1</ele>
        <time>2015-03-07T13:55:33Z</time>
      </trkpt>
      <trkpt lat="45.38126" lon="5.81567">
        <ele>1840.1</ele>
        <time>2015-03-07T13:55:34Z</time>
      </trkpt>
      <trkpt lat="45.38128" lon="5.81557">
        <ele>1834.33</ele>
        <time>2015-03-07T13:55:37Z</time>
      </trkpt>
      <trkpt lat="45.38135" lon="5.81554">
        <ele>1829.53</ele>
        <time>2015-03-07T13:55:39Z</time>
      </trkpt>
      <trkpt lat="45.38137" lon="5.81552">
        <ele>1830.49</ele>
        <time>2015-03-07T13:55:43Z</time>
      </trkpt>
      <trkpt lat="45.38146" lon="5.81555">
        <ele>1829.05</ele>
        <time>2015-03-07T13:55:50Z</time>
      </trkpt>
      <trkpt lat="45.38152" lon="5.81557">
        <ele>1825.68</ele>
        <time>2015-03-07T13:55:53Z</time>
      </trkpt>
      <trkpt lat="45.38156" lon="5.81559">
        <ele>1823.76</ele>
        <time>2015-03-07T13:55:54Z</time>
      </trkpt>
      <trkpt lat="45.38171" lon="5.8157">
        <ele>1818.95</ele>
        <time>2015-03-07T13:55:57Z</time>
      </trkpt>
      <trkpt lat="45.38189" lon="5.81579">
        <ele>1816.07</ele>
        <time>2015-03-07T13:56:00Z</time>
      </trkpt>
      <trkpt lat="45.38202" lon="5.81585">
        <ele>1812.22</ele>
        <time>2015-03-07T13:56:02Z</time>
      </trkpt>
      <trkpt lat="45.38214" lon="5.81589">
        <ele>1806.94</ele>
        <time>2015-03-07T13:56:04Z</time>
      </trkpt>
      <trkpt lat="45.3822" lon="5.8159">
        <ele>1805.49</ele>
        <time>2015-03-07T13:56:05Z</time>
      </trkpt>
      <trkpt lat="45.38236" lon="5.81588">
        <ele>1798.28</ele>
        <time>2015-03-07T13:56:09Z</time>
      </trkpt>
      <trkpt lat="45.38234" lon="5.8157">
        <ele>1793.48</ele>
        <time>2015-03-07T13:56:12Z</time>
      </trkpt>
      <trkpt lat="45.38235" lon="5.81569">
        <ele>1793.48</ele>
        <time>2015-03-07T13:56:13Z</time>
      </trkpt>
      <trkpt lat="45.38239" lon="5.81573">
        <ele>1791.07</ele>
        <time>2015-03-07T13:56:15Z</time>
      </trkpt>
      <trkpt lat="45.38247" lon="5.81585">
        <ele>1788.67</ele>
        <time>2015-03-07T13:56:18Z</time>
      </trkpt>
      <trkpt lat="45.38261" lon="5.816">
        <ele>1785.79</ele>
        <time>2015-03-07T13:56:22Z</time>
      </trkpt>
      <trkpt lat="45.38266" lon="5.81595">
        <ele>1781.46</ele>
        <time>2015-03-07T13:56:24Z</time>
      </trkpt>
      <trkpt lat="45.38267" lon="5.81582">
        <ele>1777.61</ele>
        <time>2015-03-07T13:56:27Z</time>
      </trkpt>
      <trkpt lat="45.38269" lon="5.81584">
        <ele>1774.25</ele>
        <time>2015-03-07T13:56:29Z</time>
      </trkpt>
      <trkpt lat="45.38275" lon="5.81596">
        <ele>1772.33</ele>
        <time>2015-03-07T13:56:32Z</time>
      </trkpt>
      <trkpt lat="45.38284" lon="5.81614">
        <ele>1769.44</ele>
        <time>2015-03-07T13:56:37Z</time>
      </trkpt>
      <trkpt lat="45.38293" lon="5.81617">
        <ele>1765.6</ele>
        <time>2015-03-07T13:56:40Z</time>
      </trkpt>
      <trkpt lat="45.38297" lon="5.81608">
        <ele>1762.23</ele>
        <time>2015-03-07T13:56:42Z</time>
      </trkpt>
      <trkpt lat="45.38297" lon="5.81603">
        <ele>1761.27</ele>
        <time>2015-03-07T13:56:43Z</time>
      </trkpt>
      <trkpt lat="45.38298" lon="5.81594">
        <ele>1760.31</ele>
        <time>2015-03-07T13:56:45Z</time>
      </trkpt>
      <trkpt lat="45.38299" lon="5.81592">
        <ele>1757.91</ele>
        <time>2015-03-07T13:56:47Z</time>
      </trkpt>
      <trkpt lat="45.38302" lon="5.81598">
        <ele>1755.02</ele>
        <time>2015-03-07T13:56:50Z</time>
      </trkpt>
      <trkpt lat="45.38308" lon="5.81607">
        <ele>1751.66</ele>
        <time>2015-03-07T13:56:54Z</time>
      </trkpt>
      <trkpt lat="45.38309" lon="5.81606">
        <ele>1750.22</ele>
        <time>2015-03-07T13:56:56Z</time>
      </trkpt>
      <trkpt lat="45.38314" lon="5.81611">
        <ele>1744.93</ele>
        <time>2015-03-07T13:56:59Z</time>
      </trkpt>
      <trkpt lat="45.38327" lon="5.81625">
        <ele>1740.12</ele>
        <time>2015-03-07T13:57:04Z</time>
      </trkpt>
      <trkpt lat="45.38336" lon="5.81637">
        <ele>1738.68</ele>
        <time>2015-03-07T13:57:07Z</time>
      </trkpt>
      <trkpt lat="45.38349" lon="5.81643">
        <ele>1733.39</ele>
        <time>2015-03-07T13:57:10Z</time>
      </trkpt>
      <trkpt lat="45.38356" lon="5.81642">
        <ele>1730.51</ele>
        <time>2015-03-07T13:57:12Z</time>
      </trkpt>
      <trkpt lat="45.3836" lon="5.81637">
        <ele>1726.67</ele>
        <time>2015-03-07T13:57:15Z</time>
      </trkpt>
      <trkpt lat="45.38364" lon="5.81628">
        <ele>1720.42</ele>
        <time>2015-03-07T13:57:20Z</time>
      </trkpt>
      <trkpt lat="45.38374" lon="5.8163">
        <ele>1721.38</ele>
        <time>2015-03-07T13:57:35Z</time>
      </trkpt>
      <trkpt lat="45.38374" lon="5.8163">
        <ele>1722.82</ele>
        <time>2015-03-07T13:57:38Z</time>
      </trkpt>
      <trkpt lat="45.38375" lon="5.81629">
        <ele>1722.82</ele>
        <time>2015-03-07T13:57:57Z</time>
      </trkpt>
      <trkpt lat="45.38378" lon="5.81623">
        <ele>1718.97</ele>
        <time>2015-03-07T13:58:00Z</time>
      </trkpt>
      <trkpt lat="45.38383" lon="5.81617">
        <ele>1716.09</ele>
        <time>2015-03-07T13:58:02Z</time>
      </trkpt>
      <trkpt lat="45.38385" lon="5.81606">
        <ele>1712.73</ele>
        <time>2015-03-07T13:58:04Z</time>
      </trkpt>
      <trkpt lat="45.38384" lon="5.81602">
        <ele>1711.76</ele>
        <time>2015-03-07T13:58:05Z</time>
      </trkpt>
      <trkpt lat="45.38385" lon="5.8159">
        <ele>1706.48</ele>
        <time>2015-03-07T13:58:09Z</time>
      </trkpt>
      <trkpt lat="45.38385" lon="5.81585">
        <ele>1703.11</ele>
        <time>2015-03-07T13:58:10Z</time>
      </trkpt>
      <trkpt lat="45.38383" lon="5.81579">
        <ele>1698.31</ele>
        <time>2015-03-07T13:58:13Z</time>
      </trkpt>
      <trkpt lat="45.38384" lon="5.81574">
        <ele>1694.46</ele>
        <time>2015-03-07T13:58:15Z</time>
      </trkpt>
      <trkpt lat="45.38379" lon="5.81564">
        <ele>1691.1</ele>
        <time>2015-03-07T13:58:17Z</time>
      </trkpt>
      <trkpt lat="45.38365" lon="5.81546">
        <ele>1685.33</ele>
        <time>2015-03-07T13:58:20Z</time>
      </trkpt>
      <trkpt lat="45.38347" lon="5.815">
        <ele>1681</ele>
        <time>2015-03-07T13:58:25Z</time>
      </trkpt>
      <trkpt lat="45.38345" lon="5.81471">
        <ele>1679.56</ele>
        <time>2015-03-07T13:58:28Z</time>
      </trkpt>
      <trkpt lat="45.3834" lon="5.81457">
        <ele>1678.6</ele>
        <time>2015-03-07T13:58:30Z</time>
      </trkpt>
      <trkpt lat="45.38339" lon="5.81445">
        <ele>1678.12</ele>
        <time>2015-03-07T13:58:32Z</time>
      </trkpt>
      <trkpt lat="45.38342" lon="5.81439">
        <ele>1678.12</ele>
        <time>2015-03-07T13:58:34Z</time>
      </trkpt>
      <trkpt lat="45.38338" lon="5.81432">
        <ele>1674.75</ele>
        <time>2015-03-07T13:58:38Z</time>
      </trkpt>
      <trkpt lat="45.38327" lon="5.81424">
        <ele>1671.39</ele>
        <time>2015-03-07T13:58:43Z</time>
      </trkpt>
      <trkpt lat="45.38326" lon="5.8142">
        <ele>1669.95</ele>
        <time>2015-03-07T13:58:45Z</time>
      </trkpt>
      <trkpt lat="45.38327" lon="5.81416">
        <ele>1669.95</ele>
        <time>2015-03-07T13:58:47Z</time>
      </trkpt>
      <trkpt lat="45.38325" lon="5.8141">
        <ele>1664.18</ele>
        <time>2015-03-07T13:58:50Z</time>
      </trkpt>
      <trkpt lat="45.3832" lon="5.81401">
        <ele>1659.85</ele>
        <time>2015-03-07T13:58:52Z</time>
      </trkpt>
      <trkpt lat="45.38313" lon="5.81393">
        <ele>1656.97</ele>
        <time>2015-03-07T13:58:55Z</time>
      </trkpt>
      <trkpt lat="45.38316" lon="5.81393">
        <ele>1650.72</ele>
        <time>2015-03-07T13:58:57Z</time>
      </trkpt>
      <trkpt lat="45.38325" lon="5.81394">
        <ele>1646.88</ele>
        <time>2015-03-07T13:58:59Z</time>
      </trkpt>
      <trkpt lat="45.38329" lon="5.81395">
        <ele>1646.88</ele>
        <time>2015-03-07T13:59:00Z</time>
      </trkpt>
      <trkpt lat="45.38337" lon="5.81392">
        <ele>1643.51</ele>
        <time>2015-03-07T13:59:03Z</time>
      </trkpt>
      <trkpt lat="45.38305" lon="5.8136">
        <ele>1637.26</ele>
        <time>2015-03-07T13:59:10Z</time>
      </trkpt>
      <trkpt lat="45.38299" lon="5.81353">
        <ele>1637.26</ele>
        <time>2015-03-07T13:59:11Z</time>
      </trkpt>
      <trkpt lat="45.38293" lon="5.81347">
        <ele>1636.3</ele>
        <time>2015-03-07T13:59:12Z</time>
      </trkpt>
      <trkpt lat="45.38241" lon="5.81294">
        <ele>1635.34</ele>
        <time>2015-03-07T13:59:24Z</time>
      </trkpt>
      <trkpt lat="45.38228" lon="5.81289">
        <ele>1633.42</ele>
        <time>2015-03-07T13:59:28Z</time>
      </trkpt>
      <trkpt lat="45.3822" lon="5.81271">
        <ele>1628.13</ele>
        <time>2015-03-07T13:59:33Z</time>
      </trkpt>
      <trkpt lat="45.38212" lon="5.81234">
        <ele>1621.88</ele>
        <time>2015-03-07T13:59:37Z</time>
      </trkpt>
      <trkpt lat="45.38198" lon="5.81203">
        <ele>1617.56</ele>
        <time>2015-03-07T13:59:40Z</time>
      </trkpt>
      <trkpt lat="45.38195" lon="5.81182">
        <ele>1616.11</ele>
        <time>2015-03-07T13:59:43Z</time>
      </trkpt>
      <trkpt lat="45.38195" lon="5.81178">
        <ele>1616.11</ele>
        <time>2015-03-07T13:59:54Z</time>
      </trkpt>
      <trkpt lat="45.38194" lon="5.8118">
        <ele>1616.11</ele>
        <time>2015-03-07T14:00:19Z</time>
      </trkpt>
      <trkpt lat="45.38191" lon="5.81178">
        <ele>1616.11</ele>
        <time>2015-03-07T14:00:32Z</time>
      </trkpt>
      <trkpt lat="45.38189" lon="5.81167">
        <ele>1611.31</ele>
        <time>2015-03-07T14:00:36Z</time>
      </trkpt>
      <trkpt lat="45.38192" lon="5.81152">
        <ele>1606.02</ele>
        <time>2015-03-07T14:00:39Z</time>
      </trkpt>
      <trkpt lat="45.38197" lon="5.81133">
        <ele>1596.41</ele>
        <time>2015-03-07T14:00:42Z</time>
      </trkpt>
      <trkpt lat="45.38201" lon="5.81128">
        <ele>1595.93</ele>
        <time>2015-03-07T14:00:43Z</time>
      </trkpt>
      <trkpt lat="45.38211" lon="5.81107">
        <ele>1589.68</ele>
        <time>2015-03-07T14:00:47Z</time>
      </trkpt>
      <trkpt lat="45.38207" lon="5.811">
        <ele>1587.75</ele>
        <time>2015-03-07T14:00:49Z</time>
      </trkpt>
      <trkpt lat="45.38201" lon="5.81097">
        <ele>1583.43</ele>
        <time>2015-03-07T14:00:51Z</time>
      </trkpt>
      <trkpt lat="45.38199" lon="5.81095">
        <ele>1583.43</ele>
        <time>2015-03-07T14:00:52Z</time>
      </trkpt>
      <trkpt lat="45.38191" lon="5.81095">
        <ele>1581.03</ele>
        <time>2015-03-07T14:00:55Z</time>
      </trkpt>
      <trkpt lat="45.38175" lon="5.81097">
        <ele>1575.74</ele>
        <time>2015-03-07T14:00:58Z</time>
      </trkpt>
      <trkpt lat="45.38155" lon="5.81092">
        <ele>1567.09</ele>
        <time>2015-03-07T14:01:01Z</time>
      </trkpt>
      <trkpt lat="45.38148" lon="5.81089">
        <ele>1567.09</ele>
        <time>2015-03-07T14:01:02Z</time>
      </trkpt>
      <trkpt lat="45.38138" lon="5.81083">
        <ele>1568.53</ele>
        <time>2015-03-07T14:01:04Z</time>
      </trkpt>
      <trkpt lat="45.38132" lon="5.8107">
        <ele>1563.72</ele>
        <time>2015-03-07T14:01:08Z</time>
      </trkpt>
      <trkpt lat="45.38132" lon="5.81068">
        <ele>1564.2</ele>
        <time>2015-03-07T14:01:09Z</time>
      </trkpt>
      <trkpt lat="45.38134" lon="5.81076">
        <ele>1560.84</ele>
        <time>2015-03-07T14:01:16Z</time>
      </trkpt>
      <trkpt lat="45.3813" lon="5.81073">
        <ele>1558.92</ele>
        <time>2015-03-07T14:01:22Z</time>
      </trkpt>
      <trkpt lat="45.38127" lon="5.81064">
        <ele>1553.15</ele>
        <time>2015-03-07T14:01:26Z</time>
      </trkpt>
      <trkpt lat="45.38125" lon="5.81057">
        <ele>1549.3</ele>
        <time>2015-03-07T14:01:28Z</time>
      </trkpt>
      <trkpt lat="45.38124" lon="5.81049">
        <ele>1545.46</ele>
        <time>2015-03-07T14:01:31Z</time>
      </trkpt>
      <trkpt lat="45.38123" lon="5.81046">
        <ele>1543.53</ele>
        <time>2015-03-07T14:01:33Z</time>
      </trkpt>
      <trkpt lat="45.38122" lon="5.81044">
        <ele>1542.57</ele>
        <time>2015-03-07T14:01:35Z</time>
      </trkpt>
      <trkpt lat="45.38119" lon="5.81038">
        <ele>1540.65</ele>
        <time>2015-03-07T14:01:38Z</time>
      </trkpt>
      <trkpt lat="45.38118" lon="5.81035">
        <ele>1540.65</ele>
        <time>2015-03-07T14:01:40Z</time>
      </trkpt>
      <trkpt lat="45.38115" lon="5.81022">
        <ele>1535.84</ele>
        <time>2015-03-07T14:01:42Z</time>
      </trkpt>
      <trkpt lat="45.38111" lon="5.81009">
        <ele>1534.88</ele>
        <time>2015-03-07T14:01:44Z</time>
      </trkpt>
      <trkpt lat="45.38106" lon="5.80994">
        <ele>1534.88</ele>
        <time>2015-03-07T14:01:52Z</time>
      </trkpt>
      <trkpt lat="45.38106" lon="5.80984">
        <ele>1531.52</ele>
        <time>2015-03-07T14:02:00Z</time>
      </trkpt>
      <trkpt lat="45.38106" lon="5.80979">
        <ele>1529.59</ele>
        <time>2015-03-07T14:02:20Z</time>
      </trkpt>
      <trkpt lat="45.38107" lon="5.80978">
        <ele>1529.11</ele>
        <time>2015-03-07T14:02:21Z</time>
      </trkpt>
      <trkpt lat="45.38115" lon="5.80974">
        <ele>1524.79</ele>
        <time>2015-03-07T14:02:25Z</time>
      </trkpt>
      <trkpt lat="45.38116" lon="5.80972">
        <ele>1521.9</ele>
        <time>2015-03-07T14:02:27Z</time>
      </trkpt>
      <trkpt lat="45.38124" lon="5.80967">
        <ele>1519.02</ele>
        <time>2015-03-07T14:02:32Z</time>
      </trkpt>
      <trkpt lat="45.38125" lon="5.80963">
        <ele>1517.58</ele>
        <time>2015-03-07T14:02:34Z</time>
      </trkpt>
      <trkpt lat="45.38126" lon="5.8096">
        <ele>1516.14</ele>
        <time>2015-03-07T14:02:36Z</time>
      </trkpt>
      <trkpt lat="45.38128" lon="5.80955">
        <ele>1513.25</ele>
        <time>2015-03-07T14:02:40Z</time>
      </trkpt>
      <trkpt lat="45.38138" lon="5.80951">
        <ele>1507.97</ele>
        <time>2015-03-07T14:02:43Z</time>
      </trkpt>
      <trkpt lat="45.38145" lon="5.80947">
        <ele>1506.52</ele>
        <time>2015-03-07T14:02:45Z</time>
      </trkpt>
      <trkpt lat="45.38149" lon="5.80943">
        <ele>1503.64</ele>
        <time>2015-03-07T14:02:47Z</time>
      </trkpt>
      <trkpt lat="45.3815" lon="5.80942">
        <ele>1501.72</ele>
        <time>2015-03-07T14:02:48Z</time>
      </trkpt>
      <trkpt lat="45.38153" lon="5.80932">
        <ele>1497.39</ele>
        <time>2015-03-07T14:02:51Z</time>
      </trkpt>
      <trkpt lat="45.38155" lon="5.8093">
        <ele>1497.39</ele>
        <time>2015-03-07T14:02:52Z</time>
      </trkpt>
      <trkpt lat="45.38165" lon="5.8092">
        <ele>1492.58</ele>
        <time>2015-03-07T14:02:56Z</time>
      </trkpt>
      <trkpt lat="45.38167" lon="5.80917">
        <ele>1491.62</ele>
        <time>2015-03-07T14:02:57Z</time>
      </trkpt>
      <trkpt lat="45.38169" lon="5.80911">
        <ele>1490.66</ele>
        <time>2015-03-07T14:02:59Z</time>
      </trkpt>
      <trkpt lat="45.38169" lon="5.80903">
        <ele>1489.22</ele>
        <time>2015-03-07T14:03:00Z</time>
      </trkpt>
      <trkpt lat="45.38172" lon="5.80886">
        <ele>1484.41</ele>
        <time>2015-03-07T14:03:03Z</time>
      </trkpt>
      <trkpt lat="45.38173" lon="5.80879">
        <ele>1484.41</ele>
        <time>2015-03-07T14:03:04Z</time>
      </trkpt>
      <trkpt lat="45.38171" lon="5.8086">
        <ele>1482.49</ele>
        <time>2015-03-07T14:03:07Z</time>
      </trkpt>
      <trkpt lat="45.38175" lon="5.80829">
        <ele>1479.13</ele>
        <time>2015-03-07T14:03:11Z</time>
      </trkpt>
      <trkpt lat="45.38183" lon="5.8082">
        <ele>1474.32</ele>
        <time>2015-03-07T14:03:14Z</time>
      </trkpt>
      <trkpt lat="45.38184" lon="5.80815">
        <ele>1473.36</ele>
        <time>2015-03-07T14:03:15Z</time>
      </trkpt>
      <trkpt lat="45.38182" lon="5.80771">
        <ele>1470.47</ele>
        <time>2015-03-07T14:03:23Z</time>
      </trkpt>
      <trkpt lat="45.38181" lon="5.80765">
        <ele>1469.03</ele>
        <time>2015-03-07T14:03:24Z</time>
      </trkpt>
      <trkpt lat="45.38169" lon="5.80743">
        <ele>1464.23</ele>
        <time>2015-03-07T14:03:28Z</time>
      </trkpt>
      <trkpt lat="45.38161" lon="5.80729">
        <ele>1459.9</ele>
        <time>2015-03-07T14:03:31Z</time>
      </trkpt>
      <trkpt lat="45.38154" lon="5.80712">
        <ele>1455.57</ele>
        <time>2015-03-07T14:03:34Z</time>
      </trkpt>
      <trkpt lat="45.38141" lon="5.80689">
        <ele>1451.25</ele>
        <time>2015-03-07T14:03:38Z</time>
      </trkpt>
      <trkpt lat="45.38139" lon="5.80682">
        <ele>1449.81</ele>
        <time>2015-03-07T14:03:39Z</time>
      </trkpt>
      <trkpt lat="45.38133" lon="5.80667">
        <ele>1447.4</ele>
        <time>2015-03-07T14:03:41Z</time>
      </trkpt>
      <trkpt lat="45.38132" lon="5.80644">
        <ele>1443.08</ele>
        <time>2015-03-07T14:03:44Z</time>
      </trkpt>
      <trkpt lat="45.38131" lon="5.80619">
        <ele>1438.27</ele>
        <time>2015-03-07T14:03:47Z</time>
      </trkpt>
      <trkpt lat="45.38132" lon="5.80592">
        <ele>1433.46</ele>
        <time>2015-03-07T14:03:50Z</time>
      </trkpt>
      <trkpt lat="45.38135" lon="5.80571">
        <ele>1434.42</ele>
        <time>2015-03-07T14:03:58Z</time>
      </trkpt>
      <trkpt lat="45.3813" lon="5.80593">
        <ele>1432.98</ele>
        <time>2015-03-07T14:04:21Z</time>
      </trkpt>
      <trkpt lat="45.38124" lon="5.80598">
        <ele>1426.73</ele>
        <time>2015-03-07T14:04:25Z</time>
      </trkpt>
      <trkpt lat="45.38113" lon="5.80605">
        <ele>1421.93</ele>
        <time>2015-03-07T14:04:29Z</time>
      </trkpt>
      <trkpt lat="45.3811" lon="5.80606">
        <ele>1420.49</ele>
        <time>2015-03-07T14:04:30Z</time>
      </trkpt>
      <trkpt lat="45.38101" lon="5.80604">
        <ele>1415.2</ele>
        <time>2015-03-07T14:04:33Z</time>
      </trkpt>
      <trkpt lat="45.38095" lon="5.806">
        <ele>1411.35</ele>
        <time>2015-03-07T14:04:35Z</time>
      </trkpt>
      <trkpt lat="45.38089" lon="5.80595">
        <ele>1411.35</ele>
        <time>2015-03-07T14:04:38Z</time>
      </trkpt>
      <trkpt lat="45.38085" lon="5.80592">
        <ele>1408.95</ele>
        <time>2015-03-07T14:04:40Z</time>
      </trkpt>
      <trkpt lat="45.38077" lon="5.80584">
        <ele>1403.66</ele>
        <time>2015-03-07T14:04:43Z</time>
      </trkpt>
      <trkpt lat="45.38077" lon="5.8058">
        <ele>1402.22</ele>
        <time>2015-03-07T14:04:44Z</time>
      </trkpt>
      <trkpt lat="45.38084" lon="5.80565">
        <ele>1397.89</ele>
        <time>2015-03-07T14:04:48Z</time>
      </trkpt>
      <trkpt lat="45.38093" lon="5.80545">
        <ele>1393.09</ele>
        <time>2015-03-07T14:04:51Z</time>
      </trkpt>
      <trkpt lat="45.38107" lon="5.80509">
        <ele>1390.68</ele>
        <time>2015-03-07T14:04:56Z</time>
      </trkpt>
      <trkpt lat="45.38124" lon="5.80485">
        <ele>1386.36</ele>
        <time>2015-03-07T14:05:00Z</time>
      </trkpt>
      <trkpt lat="45.38134" lon="5.80462">
        <ele>1382.99</ele>
        <time>2015-03-07T14:05:06Z</time>
      </trkpt>
      <trkpt lat="45.38137" lon="5.80455">
        <ele>1380.11</ele>
        <time>2015-03-07T14:05:09Z</time>
      </trkpt>
      <trkpt lat="45.38137" lon="5.80444">
        <ele>1376.75</ele>
        <time>2015-03-07T14:05:13Z</time>
      </trkpt>
      <trkpt lat="45.38137" lon="5.80439">
        <ele>1373.38</ele>
        <time>2015-03-07T14:05:15Z</time>
      </trkpt>
      <trkpt lat="45.38122" lon="5.80428">
        <ele>1369.54</ele>
        <time>2015-03-07T14:05:19Z</time>
      </trkpt>
      <trkpt lat="45.38117" lon="5.80415">
        <ele>1366.17</ele>
        <time>2015-03-07T14:05:22Z</time>
      </trkpt>
      <trkpt lat="45.38113" lon="5.80408">
        <ele>1362.33</ele>
        <time>2015-03-07T14:05:24Z</time>
      </trkpt>
      <trkpt lat="45.3811" lon="5.80407">
        <ele>1362.33</ele>
        <time>2015-03-07T14:05:25Z</time>
      </trkpt>
      <trkpt lat="45.38095" lon="5.80416">
        <ele>1358.48</ele>
        <time>2015-03-07T14:05:29Z</time>
      </trkpt>
      <trkpt lat="45.38078" lon="5.80406">
        <ele>1354.63</ele>
        <time>2015-03-07T14:05:34Z</time>
      </trkpt>
      <trkpt lat="45.38073" lon="5.80396">
        <ele>1351.75</ele>
        <time>2015-03-07T14:05:36Z</time>
      </trkpt>
      <trkpt lat="45.38068" lon="5.80385">
        <ele>1347.91</ele>
        <time>2015-03-07T14:05:38Z</time>
      </trkpt>
      <trkpt lat="45.3806" lon="5.80371">
        <ele>1343.58</ele>
        <time>2015-03-07T14:05:41Z</time>
      </trkpt>
      <trkpt lat="45.38042" lon="5.80363">
        <ele>1339.25</ele>
        <time>2015-03-07T14:05:44Z</time>
      </trkpt>
      <trkpt lat="45.38027" lon="5.80354">
        <ele>1340.22</ele>
        <time>2015-03-07T14:05:48Z</time>
      </trkpt>
      <trkpt lat="45.37981" lon="5.80351">
        <ele>1341.18</ele>
        <time>2015-03-07T14:06:08Z</time>
      </trkpt>
      <trkpt lat="45.37975" lon="5.80358">
        <ele>1341.18</ele>
        <time>2015-03-07T14:06:27Z</time>
      </trkpt>
      <trkpt lat="45.37974" lon="5.80347">
        <ele>1333.49</ele>
        <time>2015-03-07T14:06:31Z</time>
      </trkpt>
      <trkpt lat="45.37975" lon="5.80333">
        <ele>1330.12</ele>
        <time>2015-03-07T14:06:34Z</time>
      </trkpt>
      <trkpt lat="45.37972" lon="5.80317">
        <ele>1324.83</ele>
        <time>2015-03-07T14:06:37Z</time>
      </trkpt>
      <trkpt lat="45.37966" lon="5.80303">
        <ele>1323.39</ele>
        <time>2015-03-07T14:06:39Z</time>
      </trkpt>
      <trkpt lat="45.37962" lon="5.80292">
        <ele>1320.03</ele>
        <time>2015-03-07T14:06:41Z</time>
      </trkpt>
      <trkpt lat="45.37961" lon="5.80287">
        <ele>1320.03</ele>
        <time>2015-03-07T14:06:42Z</time>
      </trkpt>
      <trkpt lat="45.37957" lon="5.80277">
        <ele>1315.7</ele>
        <time>2015-03-07T14:06:44Z</time>
      </trkpt>
      <trkpt lat="45.37956" lon="5.80273">
        <ele>1312.34</ele>
        <time>2015-03-07T14:06:45Z</time>
      </trkpt>
      <trkpt lat="45.37955" lon="5.80263">
        <ele>1308.49</ele>
        <time>2015-03-07T14:06:47Z</time>
      </trkpt>
      <trkpt lat="45.37955" lon="5.80256">
        <ele>1304.65</ele>
        <time>2015-03-07T14:06:48Z</time>
      </trkpt>
      <trkpt lat="45.37955" lon="5.80241">
        <ele>1301.28</ele>
        <time>2015-03-07T14:06:50Z</time>
      </trkpt>
      <trkpt lat="45.37956" lon="5.80233">
        <ele>1298.4</ele>
        <time>2015-03-07T14:06:51Z</time>
      </trkpt>
      <trkpt lat="45.37944" lon="5.802">
        <ele>1294.55</ele>
        <time>2015-03-07T14:06:57Z</time>
      </trkpt>
      <trkpt lat="45.37939" lon="5.80177">
        <ele>1290.71</ele>
        <time>2015-03-07T14:07:01Z</time>
      </trkpt>
      <trkpt lat="45.37933" lon="5.80157">
        <ele>1284.46</ele>
        <time>2015-03-07T14:07:04Z</time>
      </trkpt>
      <trkpt lat="45.37933" lon="5.80145">
        <ele>1278.21</ele>
        <time>2015-03-07T14:07:06Z</time>
      </trkpt>
      <trkpt lat="45.37932" lon="5.80134">
        <ele>1274.36</ele>
        <time>2015-03-07T14:07:08Z</time>
      </trkpt>
      <trkpt lat="45.37932" lon="5.80123">
        <ele>1269.08</ele>
        <time>2015-03-07T14:07:10Z</time>
      </trkpt>
      <trkpt lat="45.3793" lon="5.80109">
        <ele>1265.23</ele>
        <time>2015-03-07T14:07:12Z</time>
      </trkpt>
      <trkpt lat="45.37929" lon="5.80099">
        <ele>1261.87</ele>
        <time>2015-03-07T14:07:13Z</time>
      </trkpt>
      <trkpt lat="45.37927" lon="5.80086">
        <ele>1259.94</ele>
        <time>2015-03-07T14:07:14Z</time>
      </trkpt>
      <trkpt lat="45.37926" lon="5.80078">
        <ele>1258.98</ele>
        <time>2015-03-07T14:07:15Z</time>
      </trkpt>
      <trkpt lat="45.37912" lon="5.80057">
        <ele>1256.58</ele>
        <time>2015-03-07T14:07:18Z</time>
      </trkpt>
      <trkpt lat="45.37896" lon="5.80042">
        <ele>1258.02</ele>
        <time>2015-03-07T14:07:21Z</time>
      </trkpt>
      <trkpt lat="45.37862" lon="5.80018">
        <ele>1257.06</ele>
        <time>2015-03-07T14:07:30Z</time>
      </trkpt>
      <trkpt lat="45.37824" lon="5.80007">
        <ele>1253.7</ele>
        <time>2015-03-07T14:07:40Z</time>
      </trkpt>
      <trkpt lat="45.378" lon="5.80004">
        <ele>1249.85</ele>
        <time>2015-03-07T14:07:47Z</time>
      </trkpt>
      <trkpt lat="45.37769" lon="5.79997">
        <ele>1246.49</ele>
        <time>2015-03-07T14:07:55Z</time>
      </trkpt>
      <trkpt lat="45.37747" lon="5.79992">
        <ele>1243.6</ele>
        <time>2015-03-07T14:08:01Z</time>
      </trkpt>
      <trkpt lat="45.3774" lon="5.79989">
        <ele>1242.64</ele>
        <time>2015-03-07T14:08:03Z</time>
      </trkpt>
      <trkpt lat="45.37712" lon="5.79975">
        <ele>1239.76</ele>
        <time>2015-03-07T14:08:11Z</time>
      </trkpt>
      <trkpt lat="45.37686" lon="5.79957">
        <ele>1235.91</ele>
        <time>2015-03-07T14:08:20Z</time>
      </trkpt>
      <trkpt lat="45.37653" lon="5.79938">
        <ele>1232.55</ele>
        <time>2015-03-07T14:08:29Z</time>
      </trkpt>
      <trkpt lat="45.3765" lon="5.79935">
        <ele>1232.55</ele>
        <time>2015-03-07T14:08:30Z</time>
      </trkpt>
      <trkpt lat="45.37638" lon="5.79926">
        <ele>1231.11</ele>
        <time>2015-03-07T14:08:33Z</time>
      </trkpt>
      <trkpt lat="45.37611" lon="5.79906">
        <ele>1227.26</ele>
        <time>2015-03-07T14:08:41Z</time>
      </trkpt>
      <trkpt lat="45.37598" lon="5.79894">
        <ele>1224.38</ele>
        <time>2015-03-07T14:08:45Z</time>
      </trkpt>
      <trkpt lat="45.37591" lon="5.79888">
        <ele>1223.42</ele>
        <time>2015-03-07T14:08:47Z</time>
      </trkpt>
      <trkpt lat="45.37568" lon="5.79874">
        <ele>1220.05</ele>
        <time>2015-03-07T14:08:53Z</time>
      </trkpt>
      <trkpt lat="45.37559" lon="5.79868">
        <ele>1218.61</ele>
        <time>2015-03-07T14:08:55Z</time>
      </trkpt>
      <trkpt lat="45.37537" lon="5.79858">
        <ele>1215.24</ele>
        <time>2015-03-07T14:09:00Z</time>
      </trkpt>
      <trkpt lat="45.37509" lon="5.79851">
        <ele>1211.88</ele>
        <time>2015-03-07T14:09:08Z</time>
      </trkpt>
      <trkpt lat="45.37505" lon="5.79851">
        <ele>1211.88</ele>
        <time>2015-03-07T14:09:09Z</time>
      </trkpt>
      <trkpt lat="45.37498" lon="5.79851">
        <ele>1210.44</ele>
        <time>2015-03-07T14:09:11Z</time>
      </trkpt>
      <trkpt lat="45.37473" lon="5.79845">
        <ele>1206.59</ele>
        <time>2015-03-07T14:09:17Z</time>
      </trkpt>
      <trkpt lat="45.37463" lon="5.79842">
        <ele>1205.15</ele>
        <time>2015-03-07T14:09:20Z</time>
      </trkpt>
      <trkpt lat="45.37433" lon="5.79825">
        <ele>1202.27</ele>
        <time>2015-03-07T14:09:28Z</time>
      </trkpt>
      <trkpt lat="45.37411" lon="5.79809">
        <ele>1198.42</ele>
        <time>2015-03-07T14:09:35Z</time>
      </trkpt>
      <trkpt lat="45.37396" lon="5.79798">
        <ele>1195.54</ele>
        <time>2015-03-07T14:09:39Z</time>
      </trkpt>
      <trkpt lat="45.37375" lon="5.79781">
        <ele>1191.69</ele>
        <time>2015-03-07T14:09:44Z</time>
      </trkpt>
      <trkpt lat="45.37367" lon="5.79773">
        <ele>1190.73</ele>
        <time>2015-03-07T14:09:46Z</time>
      </trkpt>
      <trkpt lat="45.37359" lon="5.79763">
        <ele>1188.33</ele>
        <time>2015-03-07T14:09:48Z</time>
      </trkpt>
      <trkpt lat="45.37346" lon="5.79746">
        <ele>1186.88</ele>
        <time>2015-03-07T14:09:51Z</time>
      </trkpt>
      <trkpt lat="45.37323" lon="5.79739">
        <ele>1183.04</ele>
        <time>2015-03-07T14:09:56Z</time>
      </trkpt>
      <trkpt lat="45.37314" lon="5.79741">
        <ele>1181.6</ele>
        <time>2015-03-07T14:09:58Z</time>
      </trkpt>
      <trkpt lat="45.37291" lon="5.79746">
        <ele>1178.71</ele>
        <time>2015-03-07T14:10:03Z</time>
      </trkpt>
      <trkpt lat="45.37248" lon="5.79763">
        <ele>1176.79</ele>
        <time>2015-03-07T14:10:18Z</time>
      </trkpt>
      <trkpt lat="45.37242" lon="5.79766">
        <ele>1175.35</ele>
        <time>2015-03-07T14:10:22Z</time>
      </trkpt>
      <trkpt lat="45.37231" lon="5.79769">
        <ele>1172.95</ele>
        <time>2015-03-07T14:10:27Z</time>
      </trkpt>
      <trkpt lat="45.37211" lon="5.7978">
        <ele>1169.1</ele>
        <time>2015-03-07T14:10:34Z</time>
      </trkpt>
      <trkpt lat="45.37196" lon="5.7979">
        <ele>1165.74</ele>
        <time>2015-03-07T14:10:39Z</time>
      </trkpt>
      <trkpt lat="45.37188" lon="5.79795">
        <ele>1165.26</ele>
        <time>2015-03-07T14:10:41Z</time>
      </trkpt>
      <trkpt lat="45.37176" lon="5.79803">
        <ele>1163.33</ele>
        <time>2015-03-07T14:10:44Z</time>
      </trkpt>
      <trkpt lat="45.37149" lon="5.79805">
        <ele>1159.49</ele>
        <time>2015-03-07T14:10:49Z</time>
      </trkpt>
      <trkpt lat="45.37147" lon="5.79789">
        <ele>1156.12</ele>
        <time>2015-03-07T14:10:53Z</time>
      </trkpt>
      <trkpt lat="45.37154" lon="5.79773">
        <ele>1146.51</ele>
        <time>2015-03-07T14:10:56Z</time>
      </trkpt>
      <trkpt lat="45.37153" lon="5.79765">
        <ele>1142.18</ele>
        <time>2015-03-07T14:10:57Z</time>
      </trkpt>
      <trkpt lat="45.37151" lon="5.79754">
        <ele>1137.86</ele>
        <time>2015-03-07T14:10:58Z</time>
      </trkpt>
      <trkpt lat="45.37149" lon="5.79741">
        <ele>1131.61</ele>
        <time>2015-03-07T14:10:59Z</time>
      </trkpt>
      <trkpt lat="45.37142" lon="5.79691">
        <ele>1118.15</ele>
        <time>2015-03-07T14:11:02Z</time>
      </trkpt>
      <trkpt lat="45.37135" lon="5.79676">
        <ele>1114.31</ele>
        <time>2015-03-07T14:11:03Z</time>
      </trkpt>
      <trkpt lat="45.37126" lon="5.79667">
        <ele>1111.9</ele>
        <time>2015-03-07T14:11:04Z</time>
      </trkpt>
      <trkpt lat="45.37091" lon="5.7963">
        <ele>1102.29</ele>
        <time>2015-03-07T14:11:08Z</time>
      </trkpt>
      <trkpt lat="45.37081" lon="5.79605">
        <ele>1098.92</ele>
        <time>2015-03-07T14:11:10Z</time>
      </trkpt>
      <trkpt lat="45.3707" lon="5.79585">
        <ele>1097.96</ele>
        <time>2015-03-07T14:11:12Z</time>
      </trkpt>
      <trkpt lat="45.37057" lon="5.79574">
        <ele>1094.6</ele>
        <time>2015-03-07T14:11:14Z</time>
      </trkpt>
      <trkpt lat="45.37042" lon="5.79564">
        <ele>1093.64</ele>
        <time>2015-03-07T14:11:16Z</time>
      </trkpt>
      <trkpt lat="45.37021" lon="5.79552">
        <ele>1090.75</ele>
        <time>2015-03-07T14:11:19Z</time>
      </trkpt>
      <trkpt lat="45.36999" lon="5.79543">
        <ele>1086.43</ele>
        <time>2015-03-07T14:11:22Z</time>
      </trkpt>
      <trkpt lat="45.36985" lon="5.79537">
        <ele>1080.66</ele>
        <time>2015-03-07T14:11:24Z</time>
      </trkpt>
      <trkpt lat="45.36977" lon="5.79528">
        <ele>1073.45</ele>
        <time>2015-03-07T14:11:26Z</time>
      </trkpt>
      <trkpt lat="45.36986" lon="5.79508">
        <ele>1072.49</ele>
        <time>2015-03-07T14:11:29Z</time>
      </trkpt>
      <trkpt lat="45.36998" lon="5.79485">
        <ele>1066.72</ele>
        <time>2015-03-07T14:11:32Z</time>
      </trkpt>
      <trkpt lat="45.37002" lon="5.79479">
        <ele>1064.8</ele>
        <time>2015-03-07T14:11:33Z</time>
      </trkpt>
      <trkpt lat="45.37" lon="5.79466">
        <ele>1063.84</ele>
        <time>2015-03-07T14:11:35Z</time>
      </trkpt>
      <trkpt lat="45.36996" lon="5.79455">
        <ele>1062.87</ele>
        <time>2015-03-07T14:11:40Z</time>
      </trkpt>
      <trkpt lat="45.36996" lon="5.79452">
        <ele>1061.91</ele>
        <time>2015-03-07T14:11:42Z</time>
      </trkpt>
      <trkpt lat="45.3701" lon="5.79428">
        <ele>1058.55</ele>
        <time>2015-03-07T14:11:55Z</time>
      </trkpt>
      <trkpt lat="45.3701" lon="5.79425">
        <ele>1055.67</ele>
        <time>2015-03-07T14:11:59Z</time>
      </trkpt>
      <trkpt lat="45.37016" lon="5.79424">
        <ele>1052.78</ele>
        <time>2015-03-07T14:12:10Z</time>
      </trkpt>
      <trkpt lat="45.37017" lon="5.79422">
        <ele>1048.45</ele>
        <time>2015-03-07T14:12:12Z</time>
      </trkpt>
      <trkpt lat="45.37018" lon="5.7942">
        <ele>1046.05</ele>
        <time>2015-03-07T14:12:13Z</time>
      </trkpt>
      <trkpt lat="45.3702" lon="5.79413">
        <ele>1045.09</ele>
        <time>2015-03-07T14:12:15Z</time>
      </trkpt>
      <trkpt lat="45.37021" lon="5.79393">
        <ele>1041.25</ele>
        <time>2015-03-07T14:12:22Z</time>
      </trkpt>
      <trkpt lat="45.3702" lon="5.79389">
        <ele>1038.36</ele>
        <time>2015-03-07T14:12:25Z</time>
      </trkpt>
      <trkpt lat="45.37013" lon="5.79384">
        <ele>1032.59</ele>
        <time>2015-03-07T14:12:30Z</time>
      </trkpt>
      <trkpt lat="45.37007" lon="5.79379">
        <ele>1028.75</ele>
        <time>2015-03-07T14:12:33Z</time>
      </trkpt>
      <trkpt lat="45.36999" lon="5.79381">
        <ele>1025.38</ele>
        <time>2015-03-07T14:12:36Z</time>
      </trkpt>
      <trkpt lat="45.36985" lon="5.79389">
        <ele>1021.54</ele>
        <time>2015-03-07T14:12:39Z</time>
      </trkpt>
      <trkpt lat="45.36966" lon="5.79401">
        <ele>1020.1</ele>
        <time>2015-03-07T14:12:42Z</time>
      </trkpt>
      <trkpt lat="45.3692" lon="5.79395">
        <ele>1019.62</ele>
        <time>2015-03-07T14:12:58Z</time>
      </trkpt>
      <trkpt lat="45.36916" lon="5.79413">
        <ele>1017.69</ele>
        <time>2015-03-07T14:13:25Z</time>
      </trkpt>
      <trkpt lat="45.36914" lon="5.79406">
        <ele>1015.29</ele>
        <time>2015-03-07T14:14:01Z</time>
      </trkpt>
      <trkpt lat="45.36895" lon="5.79395">
        <ele>1013.85</ele>
        <time>2015-03-07T14:14:33Z</time>
      </trkpt>
      <trkpt lat="45.3688" lon="5.79401">
        <ele>1012.89</ele>
        <time>2015-03-07T14:14:56Z</time>
      </trkpt>
      <trkpt lat="45.36881" lon="5.794">
        <ele>1012.41</ele>
        <time>2015-03-07T14:15:35Z</time>
      </trkpt>
      <trkpt lat="45.36885" lon="5.7938">
        <ele>1013.85</ele>
        <time>2015-03-07T14:16:07Z</time>
      </trkpt>
      <trkpt lat="45.36878" lon="5.79385">
        <ele>1012.41</ele>
        <time>2015-03-07T14:16:26Z</time>
      </trkpt>
      <trkpt lat="45.36872" lon="5.79395">
        <ele>1013.85</ele>
        <time>2015-03-07T14:16:53Z</time>
      </trkpt>
      <trkpt lat="45.36876" lon="5.79393">
        <ele>1013.85</ele>
        <time>2015-03-07T14:17:29Z</time>
      </trkpt>
      <trkpt lat="45.3687" lon="5.79404">
        <ele>1013.85</ele>
        <time>2015-03-07T14:17:59Z</time>
      </trkpt>
      <trkpt lat="45.36868" lon="5.79404">
        <ele>1012.89</ele>
        <time>2015-03-07T14:18:10Z</time>
      </trkpt>
      <trkpt lat="45.36855" lon="5.79404">
        <ele>1008.56</ele>
        <time>2015-03-07T14:18:17Z</time>
      </trkpt>
      <trkpt lat="45.36841" lon="5.794">
        <ele>1005.2</ele>
        <time>2015-03-07T14:18:21Z</time>
      </trkpt>
      <trkpt lat="45.36825" lon="5.79388">
        <ele>1001.35</ele>
        <time>2015-03-07T14:18:24Z</time>
      </trkpt>
      <trkpt lat="45.36804" lon="5.79375">
        <ele>996.54</ele>
        <time>2015-03-07T14:18:27Z</time>
      </trkpt>
      <trkpt lat="45.36791" lon="5.79365">
        <ele>991.74</ele>
        <time>2015-03-07T14:18:29Z</time>
      </trkpt>
      <trkpt lat="45.36774" lon="5.79355">
        <ele>986.93</ele>
        <time>2015-03-07T14:18:31Z</time>
      </trkpt>
      <trkpt lat="45.36756" lon="5.79346">
        <ele>983.09</ele>
        <time>2015-03-07T14:18:33Z</time>
      </trkpt>
      <trkpt lat="45.36736" lon="5.79338">
        <ele>978.76</ele>
        <time>2015-03-07T14:18:35Z</time>
      </trkpt>
      <trkpt lat="45.36716" lon="5.7933">
        <ele>974.43</ele>
        <time>2015-03-07T14:18:37Z</time>
      </trkpt>
      <trkpt lat="45.36687" lon="5.79322">
        <ele>972.03</ele>
        <time>2015-03-07T14:18:40Z</time>
      </trkpt>
      <trkpt lat="45.3666" lon="5.7932">
        <ele>968.67</ele>
        <time>2015-03-07T14:18:43Z</time>
      </trkpt>
      <trkpt lat="45.36648" lon="5.79323">
        <ele>968.67</ele>
        <time>2015-03-07T14:18:45Z</time>
      </trkpt>
      <trkpt lat="45.36641" lon="5.79324">
        <ele>970.59</ele>
        <time>2015-03-07T14:18:47Z</time>
      </trkpt>
      <trkpt lat="45.36639" lon="5.79321">
        <ele>972.03</ele>
        <time>2015-03-07T14:18:57Z</time>
      </trkpt>
      <trkpt lat="45.36627" lon="5.79318">
        <ele>968.67</ele>
        <time>2015-03-07T14:19:02Z</time>
      </trkpt>
      <trkpt lat="45.36619" lon="5.79315">
        <ele>967.7</ele>
        <time>2015-03-07T14:19:04Z</time>
      </trkpt>
      <trkpt lat="45.36588" lon="5.79305">
        <ele>966.26</ele>
        <time>2015-03-07T14:19:14Z</time>
      </trkpt>
      <trkpt lat="45.3657" lon="5.79306">
        <ele>963.86</ele>
        <time>2015-03-07T14:19:26Z</time>
      </trkpt>
      <trkpt lat="45.36563" lon="5.79306">
        <ele>962.9</ele>
        <time>2015-03-07T14:19:28Z</time>
      </trkpt>
      <trkpt lat="45.3655" lon="5.79302">
        <ele>959.05</ele>
        <time>2015-03-07T14:19:32Z</time>
      </trkpt>
      <trkpt lat="45.3653" lon="5.79296">
        <ele>955.21</ele>
        <time>2015-03-07T14:19:37Z</time>
      </trkpt>
      <trkpt lat="45.36527" lon="5.79294">
        <ele>955.21</ele>
        <time>2015-03-07T14:19:38Z</time>
      </trkpt>
      <trkpt lat="45.36509" lon="5.79305">
        <ele>955.69</ele>
        <time>2015-03-07T14:19:48Z</time>
      </trkpt>
      <trkpt lat="45.36507" lon="5.79297">
        <ele>955.69</ele>
        <time>2015-03-07T14:19:57Z</time>
      </trkpt>
      <trkpt lat="45.36495" lon="5.79285">
        <ele>952.8</ele>
        <time>2015-03-07T14:20:03Z</time>
      </trkpt>
      <trkpt lat="45.36493" lon="5.79283">
        <ele>951.36</ele>
        <time>2015-03-07T14:20:04Z</time>
      </trkpt>
      <trkpt lat="45.36481" lon="5.79265">
        <ele>947.52</ele>
        <time>2015-03-07T14:20:09Z</time>
      </trkpt>
      <trkpt lat="45.36463" lon="5.79238">
        <ele>945.59</ele>
        <time>2015-03-07T14:20:15Z</time>
      </trkpt>
      <trkpt lat="45.3645" lon="5.79221">
        <ele>942.23</ele>
        <time>2015-03-07T14:20:20Z</time>
      </trkpt>
      <trkpt lat="45.36447" lon="5.79219">
        <ele>940.79</ele>
        <time>2015-03-07T14:20:21Z</time>
      </trkpt>
      <trkpt lat="45.36443" lon="5.79212">
        <ele>936.94</ele>
        <time>2015-03-07T14:20:24Z</time>
      </trkpt>
      <trkpt lat="45.36425" lon="5.79199">
        <ele>935.98</ele>
        <time>2015-03-07T14:20:37Z</time>
      </trkpt>
      <trkpt lat="45.36421" lon="5.79202">
        <ele>935.5</ele>
        <time>2015-03-07T14:20:56Z</time>
      </trkpt>
      <trkpt lat="45.3642" lon="5.79202">
        <ele>935.5</ele>
        <time>2015-03-07T14:20:57Z</time>
      </trkpt>
      <trkpt lat="45.36409" lon="5.79207">
        <ele>935.02</ele>
        <time>2015-03-07T14:21:04Z</time>
      </trkpt>
      <trkpt lat="45.36395" lon="5.79204">
        <ele>933.58</ele>
        <time>2015-03-07T14:21:10Z</time>
      </trkpt>
      <trkpt lat="45.36384" lon="5.79198">
        <ele>931.65</ele>
        <time>2015-03-07T14:21:13Z</time>
      </trkpt>
      <trkpt lat="45.36365" lon="5.79176">
        <ele>927.33</ele>
        <time>2015-03-07T14:21:18Z</time>
      </trkpt>
      <trkpt lat="45.36355" lon="5.79163">
        <ele>923.96</ele>
        <time>2015-03-07T14:21:21Z</time>
      </trkpt>
      <trkpt lat="45.36343" lon="5.79153">
        <ele>922.04</ele>
        <time>2015-03-07T14:21:25Z</time>
      </trkpt>
      <trkpt lat="45.3633" lon="5.79146">
        <ele>920.6</ele>
        <time>2015-03-07T14:21:33Z</time>
      </trkpt>
      <trkpt lat="45.36314" lon="5.79146">
        <ele>918.68</ele>
        <time>2015-03-07T14:21:51Z</time>
      </trkpt>
      <trkpt lat="45.36304" lon="5.79153">
        <ele>917.72</ele>
        <time>2015-03-07T14:22:10Z</time>
      </trkpt>
      <trkpt lat="45.36303" lon="5.79154">
        <ele>917.24</ele>
        <time>2015-03-07T14:22:11Z</time>
      </trkpt>
      <trkpt lat="45.36292" lon="5.79153">
        <ele>915.31</ele>
        <time>2015-03-07T14:22:20Z</time>
      </trkpt>
      <trkpt lat="45.36278" lon="5.79145">
        <ele>910.51</ele>
        <time>2015-03-07T14:22:25Z</time>
      </trkpt>
      <trkpt lat="45.36257" lon="5.7913">
        <ele>904.26</ele>
        <time>2015-03-07T14:22:29Z</time>
      </trkpt>
      <trkpt lat="45.36237" lon="5.79108">
        <ele>900.41</ele>
        <time>2015-03-07T14:22:32Z</time>
      </trkpt>
      <trkpt lat="45.36216" lon="5.79089">
        <ele>897.05</ele>
        <time>2015-03-07T14:22:35Z</time>
      </trkpt>
      <trkpt lat="45.36194" lon="5.79078">
        <ele>894.16</ele>
        <time>2015-03-07T14:22:38Z</time>
      </trkpt>
      <trkpt lat="45.36175" lon="5.79072">
        <ele>891.76</ele>
        <time>2015-03-07T14:22:41Z</time>
      </trkpt>
      <trkpt lat="45.36165" lon="5.79068">
        <ele>890.8</ele>
        <time>2015-03-07T14:22:43Z</time>
      </trkpt>
      <trkpt lat="45.36154" lon="5.79063">
        <ele>889.36</ele>
        <time>2015-03-07T14:22:45Z</time>
      </trkpt>
      <trkpt lat="45.36126" lon="5.79056">
        <ele>885.51</ele>
        <time>2015-03-07T14:22:50Z</time>
      </trkpt>
      <trkpt lat="45.3612" lon="5.79054">
        <ele>884.55</ele>
        <time>2015-03-07T14:22:51Z</time>
      </trkpt>
      <trkpt lat="45.36096" lon="5.79041">
        <ele>879.74</ele>
        <time>2015-03-07T14:22:55Z</time>
      </trkpt>
      <trkpt lat="45.36075" lon="5.7903">
        <ele>875.42</ele>
        <time>2015-03-07T14:22:58Z</time>
      </trkpt>
      <trkpt lat="45.36061" lon="5.79021">
        <ele>871.09</ele>
        <time>2015-03-07T14:23:00Z</time>
      </trkpt>
      <trkpt lat="45.36045" lon="5.7901">
        <ele>867.25</ele>
        <time>2015-03-07T14:23:02Z</time>
      </trkpt>
      <trkpt lat="45.36036" lon="5.79004">
        <ele>865.32</ele>
        <time>2015-03-07T14:23:03Z</time>
      </trkpt>
      <trkpt lat="45.36002" lon="5.78977">
        <ele>859.56</ele>
        <time>2015-03-07T14:23:07Z</time>
      </trkpt>
      <trkpt lat="45.35987" lon="5.78964">
        <ele>856.67</ele>
        <time>2015-03-07T14:23:09Z</time>
      </trkpt>
      <trkpt lat="45.3596" lon="5.78942">
        <ele>852.83</ele>
        <time>2015-03-07T14:23:11Z</time>
      </trkpt>
      <trkpt lat="45.35928" lon="5.78915">
        <ele>848.5</ele>
        <time>2015-03-07T14:23:14Z</time>
      </trkpt>
      <trkpt lat="45.35918" lon="5.78907">
        <ele>846.58</ele>
        <time>2015-03-07T14:23:15Z</time>
      </trkpt>
      <trkpt lat="45.35887" lon="5.78893">
        <ele>841.77</ele>
        <time>2015-03-07T14:23:18Z</time>
      </trkpt>
      <trkpt lat="45.35847" lon="5.78884">
        <ele>837.93</ele>
        <time>2015-03-07T14:23:22Z</time>
      </trkpt>
      <trkpt lat="45.3582" lon="5.78875">
        <ele>836</ele>
        <time>2015-03-07T14:23:25Z</time>
      </trkpt>
      <trkpt lat="45.35786" lon="5.78857">
        <ele>831.68</ele>
        <time>2015-03-07T14:23:29Z</time>
      </trkpt>
      <trkpt lat="45.35761" lon="5.78845">
        <ele>827.83</ele>
        <time>2015-03-07T14:23:32Z</time>
      </trkpt>
      <trkpt lat="45.35727" lon="5.78828">
        <ele>824.47</ele>
        <time>2015-03-07T14:23:36Z</time>
      </trkpt>
      <trkpt lat="45.35685" lon="5.78802">
        <ele>821.1</ele>
        <time>2015-03-07T14:23:42Z</time>
      </trkpt>
      <trkpt lat="45.35671" lon="5.78795">
        <ele>820.14</ele>
        <time>2015-03-07T14:23:44Z</time>
      </trkpt>
      <trkpt lat="45.3564" lon="5.78784">
        <ele>817.26</ele>
        <time>2015-03-07T14:23:49Z</time>
      </trkpt>
      <trkpt lat="45.35625" lon="5.78777">
        <ele>816.3</ele>
        <time>2015-03-07T14:23:52Z</time>
      </trkpt>
      <trkpt lat="45.35569" lon="5.7876">
        <ele>812.45</ele>
        <time>2015-03-07T14:24:04Z</time>
      </trkpt>
      <trkpt lat="45.35559" lon="5.78756">
        <ele>811.49</ele>
        <time>2015-03-07T14:24:06Z</time>
      </trkpt>
      <trkpt lat="45.35525" lon="5.78748">
        <ele>807.64</ele>
        <time>2015-03-07T14:24:12Z</time>
      </trkpt>
      <trkpt lat="45.3552" lon="5.78746">
        <ele>807.64</ele>
        <time>2015-03-07T14:24:13Z</time>
      </trkpt>
      <trkpt lat="45.35487" lon="5.7874">
        <ele>806.68</ele>
        <time>2015-03-07T14:24:23Z</time>
      </trkpt>
      <trkpt lat="45.35458" lon="5.78753">
        <ele>804.28</ele>
        <time>2015-03-07T14:24:39Z</time>
      </trkpt>
      <trkpt lat="45.35447" lon="5.78766">
        <ele>804.28</ele>
        <time>2015-03-07T14:24:55Z</time>
      </trkpt>
      <trkpt lat="45.35432" lon="5.78762">
        <ele>802.36</ele>
        <time>2015-03-07T14:25:09Z</time>
      </trkpt>
      <trkpt lat="45.35419" lon="5.78755">
        <ele>800.44</ele>
        <time>2015-03-07T14:25:20Z</time>
      </trkpt>
      <trkpt lat="45.354" lon="5.78747">
        <ele>797.07</ele>
        <time>2015-03-07T14:25:32Z</time>
      </trkpt>
      <trkpt lat="45.35379" lon="5.78733">
        <ele>794.19</ele>
        <time>2015-03-07T14:25:44Z</time>
      </trkpt>
      <trkpt lat="45.35373" lon="5.78731">
        <ele>793.71</ele>
        <time>2015-03-07T14:25:47Z</time>
      </trkpt>
      <trkpt lat="45.3534" lon="5.78726">
        <ele>790.34</ele>
        <time>2015-03-07T14:26:01Z</time>
      </trkpt>
      <trkpt lat="45.35309" lon="5.787">
        <ele>787.94</ele>
        <time>2015-03-07T14:26:14Z</time>
      </trkpt>
      <trkpt lat="45.35283" lon="5.78691">
        <ele>784.57</ele>
        <time>2015-03-07T14:26:23Z</time>
      </trkpt>
      <trkpt lat="45.35257" lon="5.78693">
        <ele>782.65</ele>
        <time>2015-03-07T14:26:35Z</time>
      </trkpt>
      <trkpt lat="45.35255" lon="5.78694">
        <ele>782.17</ele>
        <time>2015-03-07T14:26:37Z</time>
      </trkpt>
      <trkpt lat="45.35233" lon="5.78687">
        <ele>778.81</ele>
        <time>2015-03-07T14:26:52Z</time>
      </trkpt>
      <trkpt lat="45.35221" lon="5.7869">
        <ele>776.88</ele>
        <time>2015-03-07T14:27:09Z</time>
      </trkpt>
      <trkpt lat="45.35212" lon="5.78673">
        <ele>775.92</ele>
        <time>2015-03-07T14:27:24Z</time>
      </trkpt>
      <trkpt lat="45.35202" lon="5.78656">
        <ele>773.52</ele>
        <time>2015-03-07T14:27:42Z</time>
      </trkpt>
      <trkpt lat="45.352" lon="5.78644">
        <ele>772.56</ele>
        <time>2015-03-07T14:27:58Z</time>
      </trkpt>
      <trkpt lat="45.35195" lon="5.78637">
        <ele>771.6</ele>
        <time>2015-03-07T14:28:11Z</time>
      </trkpt>
      <trkpt lat="45.35183" lon="5.7862">
        <ele>770.63</ele>
        <time>2015-03-07T14:28:19Z</time>
      </trkpt>
      <trkpt lat="45.35171" lon="5.78614">
        <ele>768.23</ele>
        <time>2015-03-07T14:28:28Z</time>
      </trkpt>
      <trkpt lat="45.35162" lon="5.786">
        <ele>767.27</ele>
        <time>2015-03-07T14:28:42Z</time>
      </trkpt>
      <trkpt lat="45.35153" lon="5.78572">
        <ele>766.31</ele>
        <time>2015-03-07T14:29:09Z</time>
      </trkpt>
      <trkpt lat="45.35148" lon="5.78572">
        <ele>766.31</ele>
        <time>2015-03-07T14:29:18Z</time>
      </trkpt>
      <trkpt lat="45.35133" lon="5.78576">
        <ele>763.9</ele>
        <time>2015-03-07T14:29:32Z</time>
      </trkpt>
      <trkpt lat="45.35129" lon="5.78577">
        <ele>762.46</ele>
        <time>2015-03-07T14:29:50Z</time>
      </trkpt>
      <trkpt lat="45.35117" lon="5.78554">
        <ele>761.98</ele>
        <time>2015-03-07T14:30:08Z</time>
      </trkpt>
      <trkpt lat="45.35102" lon="5.78545">
        <ele>761.02</ele>
        <time>2015-03-07T14:30:23Z</time>
      </trkpt>
      <trkpt lat="45.35096" lon="5.7853">
        <ele>758.62</ele>
        <time>2015-03-07T14:30:37Z</time>
      </trkpt>
      <trkpt lat="45.35094" lon="5.78514">
        <ele>757.18</ele>
        <time>2015-03-07T14:30:58Z</time>
      </trkpt>
      <trkpt lat="45.35085" lon="5.78499">
        <ele>755.25</ele>
        <time>2015-03-07T14:31:14Z</time>
      </trkpt>
      <trkpt lat="45.35081" lon="5.78497">
        <ele>754.77</ele>
        <time>2015-03-07T14:31:31Z</time>
      </trkpt>
      <trkpt lat="45.35085" lon="5.78493">
        <ele>754.29</ele>
        <time>2015-03-07T14:31:39Z</time>
      </trkpt>
      <trkpt lat="45.35086" lon="5.78496">
        <ele>754.77</ele>
        <time>2015-03-07T14:31:58Z</time>
      </trkpt>
      <trkpt lat="45.35088" lon="5.78494">
        <ele>756.21</ele>
        <time>2015-03-07T14:32:11Z</time>
      </trkpt>
      <trkpt lat="45.3508" lon="5.78485">
        <ele>754.29</ele>
        <time>2015-03-07T14:32:35Z</time>
      </trkpt>
      <trkpt lat="45.3508" lon="5.78488">
        <ele>754.77</ele>
        <time>2015-03-07T14:33:01Z</time>
      </trkpt>
      <trkpt lat="45.35079" lon="5.78488">
        <ele>754.77</ele>
        <time>2015-03-07T14:33:32Z</time>
      </trkpt>
      <trkpt lat="45.35078" lon="5.78484">
        <ele>755.25</ele>
        <time>2015-03-07T14:33:58Z</time>
      </trkpt>
      <trkpt lat="45.35079" lon="5.78486">
        <ele>755.25</ele>
        <time>2015-03-07T14:34:22Z</time>
      </trkpt>
      <trkpt lat="45.35078" lon="5.78486">
        <ele>755.73</ele>
        <time>2015-03-07T14:34:48Z</time>
      </trkpt>
      <trkpt lat="45.35076" lon="5.78493">
        <ele>757.18</ele>
        <time>2015-03-07T14:35:14Z</time>
      </trkpt>
      <trkpt lat="45.35076" lon="5.78483">
        <ele>757.66</ele>
        <time>2015-03-07T14:35:44Z</time>
      </trkpt>
      <trkpt lat="45.35075" lon="5.78489">
        <ele>758.14</ele>
        <time>2015-03-07T14:36:10Z</time>
      </trkpt>
      <trkpt lat="45.35073" lon="5.78489">
        <ele>758.62</ele>
        <time>2015-03-07T14:36:41Z</time>
      </trkpt>
      <trkpt lat="45.35075" lon="5.78487">
        <ele>758.62</ele>
        <time>2015-03-07T14:37:03Z</time>
      </trkpt>
      <trkpt lat="45.35073" lon="5.78478">
        <ele>759.1</ele>
        <time>2015-03-07T14:37:25Z</time>
      </trkpt>
      <trkpt lat="45.35069" lon="5.78474">
        <ele>760.06</ele>
        <time>2015-03-07T14:37:51Z</time>
      </trkpt>
      <trkpt lat="45.35074" lon="5.78481">
        <ele>760.54</ele>
        <time>2015-03-07T14:38:15Z</time>
      </trkpt>
      <trkpt lat="45.35073" lon="5.78484">
        <ele>761.02</ele>
        <time>2015-03-07T14:38:47Z</time>
      </trkpt>
      <trkpt lat="45.35073" lon="5.78474">
        <ele>761.5</ele>
        <time>2015-03-07T14:39:23Z</time>
      </trkpt>
      <trkpt lat="45.3507" lon="5.78473">
        <ele>762.46</ele>
        <time>2015-03-07T14:39:59Z</time>
      </trkpt>
      <trkpt lat="45.35072" lon="5.78477">
        <ele>762.94</ele>
        <time>2015-03-07T14:40:31Z</time>
      </trkpt>
      <trkpt lat="45.35074" lon="5.78479">
        <ele>763.9</ele>
        <time>2015-03-07T14:40:57Z</time>
      </trkpt>
      <trkpt lat="45.35077" lon="5.78483">
        <ele>764.87</ele>
        <time>2015-03-07T14:41:27Z</time>
      </trkpt>
      <trkpt lat="45.35077" lon="5.78484">
        <ele>765.35</ele>
        <time>2015-03-07T14:41:55Z</time>
      </trkpt>
      <trkpt lat="45.35078" lon="5.78477">
        <ele>765.83</ele>
        <time>2015-03-07T14:42:17Z</time>
      </trkpt>
      <trkpt lat="45.35077" lon="5.7847">
        <ele>766.79</ele>
        <time>2015-03-07T14:42:40Z</time>
      </trkpt>
      <trkpt lat="45.35072" lon="5.7847">
        <ele>767.75</ele>
        <time>2015-03-07T14:43:12Z</time>
      </trkpt>
      <trkpt lat="45.35073" lon="5.78462">
        <ele>768.71</ele>
        <time>2015-03-07T14:43:46Z</time>
      </trkpt>
      <trkpt lat="45.3508" lon="5.78482">
        <ele>769.19</ele>
        <time>2015-03-07T14:44:19Z</time>
      </trkpt>
      <trkpt lat="45.35078" lon="5.78494">
        <ele>770.15</ele>
        <time>2015-03-07T14:44:52Z</time>
      </trkpt>
      <trkpt lat="45.35078" lon="5.78489">
        <ele>770.63</ele>
        <time>2015-03-07T14:45:25Z</time>
      </trkpt>
      <trkpt lat="45.35082" lon="5.7849">
        <ele>771.11</ele>
        <time>2015-03-07T14:46:00Z</time>
      </trkpt>
      <trkpt lat="45.35084" lon="5.78489">
        <ele>771.11</ele>
        <time>2015-03-07T14:46:23Z</time>
      </trkpt>
      <trkpt lat="45.35079" lon="5.78486">
        <ele>771.11</ele>
        <time>2015-03-07T14:46:52Z</time>
      </trkpt>
      <trkpt lat="45.35081" lon="5.78491">
        <ele>771.6</ele>
        <time>2015-03-07T14:47:17Z</time>
      </trkpt>
      <trkpt lat="45.3508" lon="5.78489">
        <ele>771.11</ele>
        <time>2015-03-07T14:47:45Z</time>
      </trkpt>
      <trkpt lat="45.35084" lon="5.78483">
        <ele>771.6</ele>
        <time>2015-03-07T14:48:14Z</time>
      </trkpt>
      <trkpt lat="45.35087" lon="5.78482">
        <ele>773.04</ele>
        <time>2015-03-07T14:48:31Z</time>
      </trkpt>
      <trkpt lat="45.35087" lon="5.78482">
        <ele>770.15</ele>
        <time>2015-03-07T14:48:33Z</time>
      </trkpt>
      <trkpt lat="45.35088" lon="5.78483">
        <ele>774.48</ele>
        <time>2015-03-07T14:48:34Z</time>
      </trkpt>
      <trkpt lat="45.35083" lon="5.78484">
        <ele>771.6</ele>
        <time>2015-03-07T14:48:47Z</time>
      </trkpt>
      <trkpt lat="45.35084" lon="5.78487">
        <ele>772.56</ele>
        <time>2015-03-07T14:48:50Z</time>
      </trkpt>
      <trkpt lat="45.35084" lon="5.78491">
        <ele>771.6</ele>
        <time>2015-03-07T14:49:01Z</time>
      </trkpt>
      <trkpt lat="45.35085" lon="5.785">
        <ele>773.04</ele>
        <time>2015-03-07T14:49:26Z</time>
      </trkpt>
      <trkpt lat="45.35085" lon="5.78501">
        <ele>773.04</ele>
        <time>2015-03-07T14:49:55Z</time>
      </trkpt>
      <trkpt lat="45.35086" lon="5.78502">
        <ele>773.52</ele>
        <time>2015-03-07T14:50:05Z</time>
      </trkpt>
      <trkpt lat="45.35086" lon="5.78501">
        <ele>763.9</ele>
        <time>2015-03-07T14:50:06Z</time>
      </trkpt>
      <trkpt lat="45.35086" lon="5.785">
        <ele>780.25</ele>
        <time>2015-03-07T14:50:07Z</time>
      </trkpt>
      <trkpt lat="45.35084" lon="5.78499">
        <ele>774.96</ele>
        <time>2015-03-07T14:50:08Z</time>
      </trkpt>
      <trkpt lat="45.35085" lon="5.785">
        <ele>773.52</ele>
        <time>2015-03-07T14:50:10Z</time>
      </trkpt>
      <trkpt lat="45.35084" lon="5.78503">
        <ele>773.52</ele>
        <time>2015-03-07T14:50:18Z</time>
      </trkpt>
      <trkpt lat="45.35082" lon="5.78503">
        <ele>773.52</ele>
        <time>2015-03-07T14:50:32Z</time>
      </trkpt>
      <trkpt lat="45.35097" lon="5.78497">
        <ele>774.96</ele>
        <time>2015-03-07T14:50:47Z</time>
      </trkpt>
      <trkpt lat="45.35093" lon="5.78495">
        <ele>775.44</ele>
        <time>2015-03-07T14:51:03Z</time>
      </trkpt>
      <trkpt lat="45.35076" lon="5.78491">
        <ele>774</ele>
        <time>2015-03-07T14:51:18Z</time>
      </trkpt>
      <trkpt lat="45.35071" lon="5.78499">
        <ele>774.96</ele>
        <time>2015-03-07T14:51:37Z</time>
      </trkpt>
      <trkpt lat="45.35063" lon="5.78503">
        <ele>774</ele>
        <time>2015-03-07T14:51:52Z</time>
      </trkpt>
      <trkpt lat="45.35055" lon="5.78517">
        <ele>774</ele>
        <time>2015-03-07T14:52:09Z</time>
      </trkpt>
      <trkpt lat="45.35034" lon="5.78519">
        <ele>773.52</ele>
        <time>2015-03-07T14:52:25Z</time>
      </trkpt>
      <trkpt lat="45.35012" lon="5.78504">
        <ele>773.04</ele>
        <time>2015-03-07T14:52:44Z</time>
      </trkpt>
      <trkpt lat="45.34999" lon="5.78492">
        <ele>773.04</ele>
        <time>2015-03-07T14:53:03Z</time>
      </trkpt>
      <trkpt lat="45.3498" lon="5.78472">
        <ele>772.56</ele>
        <time>2015-03-07T14:53:23Z</time>
      </trkpt>
      <trkpt lat="45.34958" lon="5.78445">
        <ele>772.56</ele>
        <time>2015-03-07T14:53:41Z</time>
      </trkpt>
      <trkpt lat="45.3495" lon="5.78437">
        <ele>772.56</ele>
        <time>2015-03-07T14:53:48Z</time>
      </trkpt>
      <trkpt lat="45.34935" lon="5.78406">
        <ele>772.08</ele>
        <time>2015-03-07T14:54:08Z</time>
      </trkpt>
      <trkpt lat="45.34921" lon="5.7839">
        <ele>771.6</ele>
        <time>2015-03-07T14:54:22Z</time>
      </trkpt>
      <trkpt lat="45.34902" lon="5.78385">
        <ele>771.6</ele>
        <time>2015-03-07T14:54:37Z</time>
      </trkpt>
      <trkpt lat="45.3489" lon="5.7839">
        <ele>771.6</ele>
        <time>2015-03-07T14:54:49Z</time>
      </trkpt>
      <trkpt lat="45.34873" lon="5.78416">
        <ele>771.6</ele>
        <time>2015-03-07T14:55:06Z</time>
      </trkpt>
      <trkpt lat="45.34862" lon="5.78431">
        <ele>771.6</ele>
        <time>2015-03-07T14:55:23Z</time>
      </trkpt>
      <trkpt lat="45.34852" lon="5.78436">
        <ele>771.6</ele>
        <time>2015-03-07T14:55:38Z</time>
      </trkpt>
      <trkpt lat="45.34849" lon="5.7844">
        <ele>771.6</ele>
        <time>2015-03-07T14:55:46Z</time>
      </trkpt>
      <trkpt lat="45.3484" lon="5.78458">
        <ele>771.11</ele>
        <time>2015-03-07T14:56:02Z</time>
      </trkpt>
      <trkpt lat="45.34841" lon="5.7846">
        <ele>772.56</ele>
        <time>2015-03-07T14:56:12Z</time>
      </trkpt>
      <trkpt lat="45.34841" lon="5.78459">
        <ele>771.11</ele>
        <time>2015-03-07T14:56:14Z</time>
      </trkpt>
      <trkpt lat="45.3484" lon="5.78458">
        <ele>772.56</ele>
        <time>2015-03-07T14:56:17Z</time>
      </trkpt>
      <trkpt lat="45.3484" lon="5.78462">
        <ele>772.08</ele>
        <time>2015-03-07T14:56:31Z</time>
      </trkpt>
      <trkpt lat="45.34836" lon="5.78457">
        <ele>768.71</ele>
        <time>2015-03-07T14:56:48Z</time>
      </trkpt>
      <trkpt lat="45.34834" lon="5.78458">
        <ele>764.87</ele>
        <time>2015-03-07T14:56:50Z</time>
      </trkpt>
      <trkpt lat="45.3483" lon="5.78455">
        <ele>758.62</ele>
        <time>2015-03-07T14:56:54Z</time>
      </trkpt>
      <trkpt lat="45.3483" lon="5.78458">
        <ele>757.18</ele>
        <time>2015-03-07T14:56:55Z</time>
      </trkpt>
      <trkpt lat="45.34824" lon="5.78474">
        <ele>756.69</ele>
        <time>2015-03-07T14:57:03Z</time>
      </trkpt>
      <trkpt lat="45.3481" lon="5.78475">
        <ele>753.33</ele>
        <time>2015-03-07T14:57:10Z</time>
      </trkpt>
      <trkpt lat="45.34805" lon="5.78472">
        <ele>753.33</ele>
        <time>2015-03-07T14:57:11Z</time>
      </trkpt>
      <trkpt lat="45.34777" lon="5.78475">
        <ele>751.41</ele>
        <time>2015-03-07T14:57:21Z</time>
      </trkpt>
      <trkpt lat="45.34767" lon="5.78484">
        <ele>745.64</ele>
        <time>2015-03-07T14:57:30Z</time>
      </trkpt>
      <trkpt lat="45.34758" lon="5.78494">
        <ele>742.76</ele>
        <time>2015-03-07T14:57:48Z</time>
      </trkpt>
      <trkpt lat="45.34753" lon="5.78502">
        <ele>739.39</ele>
        <time>2015-03-07T14:57:52Z</time>
      </trkpt>
      <trkpt lat="45.34744" lon="5.78518">
        <ele>734.58</ele>
        <time>2015-03-07T14:58:01Z</time>
      </trkpt>
      <trkpt lat="45.34744" lon="5.7852">
        <ele>738.43</ele>
        <time>2015-03-07T14:58:02Z</time>
      </trkpt>
      <trkpt lat="45.34733" lon="5.78519">
        <ele>735.07</ele>
        <time>2015-03-07T14:58:12Z</time>
      </trkpt>
      <trkpt lat="45.34728" lon="5.78501">
        <ele>731.7</ele>
        <time>2015-03-07T14:58:21Z</time>
      </trkpt>
      <trkpt lat="45.34727" lon="5.78502">
        <ele>731.7</ele>
        <time>2015-03-07T14:58:22Z</time>
      </trkpt>
      <trkpt lat="45.34721" lon="5.78505">
        <ele>729.3</ele>
        <time>2015-03-07T14:58:28Z</time>
      </trkpt>
      <trkpt lat="45.34711" lon="5.78522">
        <ele>726.41</ele>
        <time>2015-03-07T14:58:37Z</time>
      </trkpt>
      <trkpt lat="45.34708" lon="5.78512">
        <ele>723.05</ele>
        <time>2015-03-07T14:58:54Z</time>
      </trkpt>
      <trkpt lat="45.34707" lon="5.78507">
        <ele>722.09</ele>
        <time>2015-03-07T14:58:56Z</time>
      </trkpt>
      <trkpt lat="45.34699" lon="5.78485">
        <ele>721.13</ele>
        <time>2015-03-07T14:59:12Z</time>
      </trkpt>
      <trkpt lat="45.34696" lon="5.78467">
        <ele>717.76</ele>
        <time>2015-03-07T14:59:27Z</time>
      </trkpt>
      <trkpt lat="45.347" lon="5.7846">
        <ele>714.88</ele>
        <time>2015-03-07T14:59:31Z</time>
      </trkpt>
      <trkpt lat="45.34706" lon="5.78449">
        <ele>711.99</ele>
        <time>2015-03-07T14:59:35Z</time>
      </trkpt>
      <trkpt lat="45.34707" lon="5.78435">
        <ele>711.03</ele>
        <time>2015-03-07T14:59:51Z</time>
      </trkpt>
      <trkpt lat="45.34708" lon="5.78418">
        <ele>711.03</ele>
        <time>2015-03-07T15:00:21Z</time>
      </trkpt>
      <trkpt lat="45.34715" lon="5.78415">
        <ele>710.07</ele>
        <time>2015-03-07T15:00:42Z</time>
      </trkpt>
      <trkpt lat="45.34728" lon="5.78425">
        <ele>710.07</ele>
        <time>2015-03-07T15:01:05Z</time>
      </trkpt>
      <trkpt lat="45.34726" lon="5.78396">
        <ele>706.23</ele>
        <time>2015-03-07T15:01:22Z</time>
      </trkpt>
      <trkpt lat="45.3474" lon="5.78375">
        <ele>705.26</ele>
        <time>2015-03-07T15:01:37Z</time>
      </trkpt>
      <trkpt lat="45.3474" lon="5.78369">
        <ele>705.75</ele>
        <time>2015-03-07T15:01:58Z</time>
      </trkpt>
      <trkpt lat="45.3473" lon="5.78357">
        <ele>705.75</ele>
        <time>2015-03-07T15:02:25Z</time>
      </trkpt>
      <trkpt lat="45.34731" lon="5.78342">
        <ele>706.23</ele>
        <time>2015-03-07T15:02:57Z</time>
      </trkpt>
      <trkpt lat="45.34731" lon="5.78343">
        <ele>701.9</ele>
        <time>2015-03-07T15:02:58Z</time>
      </trkpt>
      <trkpt lat="45.34732" lon="5.78343">
        <ele>709.59</ele>
        <time>2015-03-07T15:02:59Z</time>
      </trkpt>
      <trkpt lat="45.34733" lon="5.78343">
        <ele>705.75</ele>
        <time>2015-03-07T15:03:00Z</time>
      </trkpt>
      <trkpt lat="45.34734" lon="5.78343">
        <ele>705.75</ele>
        <time>2015-03-07T15:03:01Z</time>
      </trkpt>
      <trkpt lat="45.34732" lon="5.78342">
        <ele>705.75</ele>
        <time>2015-03-07T15:03:24Z</time>
      </trkpt>
      <trkpt lat="45.34728" lon="5.7834">
        <ele>705.75</ele>
        <time>2015-03-07T15:03:45Z</time>
      </trkpt>
      <trkpt lat="45.34729" lon="5.78348">
        <ele>706.23</ele>
        <time>2015-03-07T15:04:07Z</time>
      </trkpt>
      <trkpt lat="45.34727" lon="5.78344">
        <ele>706.23</ele>
        <time>2015-03-07T15:04:13Z</time>
      </trkpt>
      <trkpt lat="45.34728" lon="5.78346">
        <ele>706.23</ele>
        <time>2015-03-07T15:04:25Z</time>
      </trkpt>
      <trkpt lat="45.34731" lon="5.7835">
        <ele>706.23</ele>
        <time>2015-03-07T15:04:44Z</time>
      </trkpt>
      <trkpt lat="45.3473" lon="5.78353">
        <ele>707.67</ele>
        <time>2015-03-07T15:04:55Z</time>
      </trkpt>
      <trkpt lat="45.34731" lon="5.78359">
        <ele>706.23</ele>
        <time>2015-03-07T15:05:05Z</time>
      </trkpt>
      <trkpt lat="45.34725" lon="5.78349">
        <ele>708.15</ele>
        <time>2015-03-07T15:05:32Z</time>
      </trkpt>
      <trkpt lat="45.34726" lon="5.78344">
        <ele>708.63</ele>
        <time>2015-03-07T15:05:55Z</time>
      </trkpt>
      <trkpt lat="45.34728" lon="5.7834">
        <ele>709.59</ele>
        <time>2015-03-07T15:06:13Z</time>
      </trkpt>
      <trkpt lat="45.34728" lon="5.78339">
        <ele>710.07</ele>
        <time>2015-03-07T15:06:27Z</time>
      </trkpt>
      <trkpt lat="45.34732" lon="5.78349">
        <ele>713.44</ele>
        <time>2015-03-07T15:06:43Z</time>
      </trkpt>
      <trkpt lat="45.3473" lon="5.78355">
        <ele>715.36</ele>
        <time>2015-03-07T15:06:57Z</time>
      </trkpt>
      <trkpt lat="45.34729" lon="5.78345">
        <ele>718.24</ele>
        <time>2015-03-07T15:07:09Z</time>
      </trkpt>
      <trkpt lat="45.34726" lon="5.78335">
        <ele>721.13</ele>
        <time>2015-03-07T15:07:24Z</time>
      </trkpt>
      <trkpt lat="45.34724" lon="5.78324">
        <ele>724.49</ele>
        <time>2015-03-07T15:07:37Z</time>
      </trkpt>
      <trkpt lat="45.34727" lon="5.78311">
        <ele>726.89</ele>
        <time>2015-03-07T15:07:51Z</time>
      </trkpt>
      <trkpt lat="45.34731" lon="5.78296">
        <ele>730.26</ele>
        <time>2015-03-07T15:08:05Z</time>
      </trkpt>
      <trkpt lat="45.34736" lon="5.78282">
        <ele>733.14</ele>
        <time>2015-03-07T15:08:21Z</time>
      </trkpt>
      <trkpt lat="45.34736" lon="5.78269">
        <ele>736.51</ele>
        <time>2015-03-07T15:08:35Z</time>
      </trkpt>
      <trkpt lat="45.34732" lon="5.78262">
        <ele>738.91</ele>
        <time>2015-03-07T15:08:52Z</time>
      </trkpt>
      <trkpt lat="45.34727" lon="5.78255">
        <ele>741.31</ele>
        <time>2015-03-07T15:09:07Z</time>
      </trkpt>
      <trkpt lat="45.34728" lon="5.78241">
        <ele>744.68</ele>
        <time>2015-03-07T15:09:23Z</time>
      </trkpt>
      <trkpt lat="45.34725" lon="5.78242">
        <ele>746.6</ele>
        <time>2015-03-07T15:09:39Z</time>
      </trkpt>
      <trkpt lat="45.34715" lon="5.78242">
        <ele>749.97</ele>
        <time>2015-03-07T15:09:57Z</time>
      </trkpt>
      <trkpt lat="45.34698" lon="5.78244">
        <ele>753.33</ele>
        <time>2015-03-07T15:10:13Z</time>
      </trkpt>
      <trkpt lat="45.34691" lon="5.78241">
        <ele>755.73</ele>
        <time>2015-03-07T15:10:29Z</time>
      </trkpt>
      <trkpt lat="45.34693" lon="5.78233">
        <ele>759.1</ele>
        <time>2015-03-07T15:10:45Z</time>
      </trkpt>
      <trkpt lat="45.34687" lon="5.78229">
        <ele>761.02</ele>
        <time>2015-03-07T15:11:00Z</time>
      </trkpt>
      <trkpt lat="45.34675" lon="5.78225">
        <ele>763.42</ele>
        <time>2015-03-07T15:11:15Z</time>
      </trkpt>
      <trkpt lat="45.34666" lon="5.78217">
        <ele>765.83</ele>
        <time>2015-03-07T15:11:29Z</time>
      </trkpt>
      <trkpt lat="45.34663" lon="5.7821">
        <ele>767.75</ele>
        <time>2015-03-07T15:11:43Z</time>
      </trkpt>
      <trkpt lat="45.34666" lon="5.78194">
        <ele>769.67</ele>
        <time>2015-03-07T15:11:56Z</time>
      </trkpt>
      <trkpt lat="45.34664" lon="5.78194">
        <ele>770.63</ele>
        <time>2015-03-07T15:12:09Z</time>
      </trkpt>
      <trkpt lat="45.34662" lon="5.78188">
        <ele>773.04</ele>
        <time>2015-03-07T15:12:24Z</time>
      </trkpt>
      <trkpt lat="45.3466" lon="5.78183">
        <ele>775.92</ele>
        <time>2015-03-07T15:12:41Z</time>
      </trkpt>
      <trkpt lat="45.34656" lon="5.78187">
        <ele>778.32</ele>
        <time>2015-03-07T15:12:55Z</time>
      </trkpt>
      <trkpt lat="45.34648" lon="5.78186">
        <ele>781.21</ele>
        <time>2015-03-07T15:13:09Z</time>
      </trkpt>
      <trkpt lat="45.34642" lon="5.78183">
        <ele>783.61</ele>
        <time>2015-03-07T15:13:23Z</time>
      </trkpt>
      <trkpt lat="45.34635" lon="5.78174">
        <ele>786.5</ele>
        <time>2015-03-07T15:13:38Z</time>
      </trkpt>
      <trkpt lat="45.3464" lon="5.78165">
        <ele>787.94</ele>
        <time>2015-03-07T15:13:52Z</time>
      </trkpt>
      <trkpt lat="45.34636" lon="5.78167">
        <ele>790.34</ele>
        <time>2015-03-07T15:14:08Z</time>
      </trkpt>
      <trkpt lat="45.34637" lon="5.78171">
        <ele>792.74</ele>
        <time>2015-03-07T15:14:22Z</time>
      </trkpt>
      <trkpt lat="45.34624" lon="5.78168">
        <ele>794.67</ele>
        <time>2015-03-07T15:14:40Z</time>
      </trkpt>
      <trkpt lat="45.34616" lon="5.78165">
        <ele>796.59</ele>
        <time>2015-03-07T15:14:56Z</time>
      </trkpt>
      <trkpt lat="45.34612" lon="5.78158">
        <ele>799.47</ele>
        <time>2015-03-07T15:15:12Z</time>
      </trkpt>
      <trkpt lat="45.34609" lon="5.78154">
        <ele>801.88</ele>
        <time>2015-03-07T15:15:28Z</time>
      </trkpt>
      <trkpt lat="45.34607" lon="5.78147">
        <ele>803.8</ele>
        <time>2015-03-07T15:15:41Z</time>
      </trkpt>
      <trkpt lat="45.34601" lon="5.78131">
        <ele>806.2</ele>
        <time>2015-03-07T15:15:57Z</time>
      </trkpt>
      <trkpt lat="45.34596" lon="5.78123">
        <ele>809.09</ele>
        <time>2015-03-07T15:16:11Z</time>
      </trkpt>
      <trkpt lat="45.34592" lon="5.78113">
        <ele>811.49</ele>
        <time>2015-03-07T15:16:27Z</time>
      </trkpt>
      <trkpt lat="45.3459" lon="5.78111">
        <ele>815.34</ele>
        <time>2015-03-07T15:16:43Z</time>
      </trkpt>
      <trkpt lat="45.34583" lon="5.78104">
        <ele>818.22</ele>
        <time>2015-03-07T15:16:58Z</time>
      </trkpt>
      <trkpt lat="45.34573" lon="5.78096">
        <ele>821.1</ele>
        <time>2015-03-07T15:17:14Z</time>
      </trkpt>
      <trkpt lat="45.34562" lon="5.78088">
        <ele>823.51</ele>
        <time>2015-03-07T15:17:30Z</time>
      </trkpt>
      <trkpt lat="45.34557" lon="5.78082">
        <ele>825.91</ele>
        <time>2015-03-07T15:17:47Z</time>
      </trkpt>
      <trkpt lat="45.3455" lon="5.78074">
        <ele>827.35</ele>
        <time>2015-03-07T15:18:02Z</time>
      </trkpt>
      <trkpt lat="45.34542" lon="5.78066">
        <ele>830.24</ele>
        <time>2015-03-07T15:18:17Z</time>
      </trkpt>
      <trkpt lat="45.34534" lon="5.78058">
        <ele>832.64</ele>
        <time>2015-03-07T15:18:33Z</time>
      </trkpt>
      <trkpt lat="45.34526" lon="5.78051">
        <ele>835.04</ele>
        <time>2015-03-07T15:18:49Z</time>
      </trkpt>
      <trkpt lat="45.34518" lon="5.78045">
        <ele>836</ele>
        <time>2015-03-07T15:19:04Z</time>
      </trkpt>
      <trkpt lat="45.34514" lon="5.78037">
        <ele>838.41</ele>
        <time>2015-03-07T15:19:20Z</time>
      </trkpt>
      <trkpt lat="45.34514" lon="5.78026">
        <ele>840.81</ele>
        <time>2015-03-07T15:19:36Z</time>
      </trkpt>
      <trkpt lat="45.34511" lon="5.7802">
        <ele>842.73</ele>
        <time>2015-03-07T15:19:51Z</time>
      </trkpt>
      <trkpt lat="45.34509" lon="5.78012">
        <ele>845.14</ele>
        <time>2015-03-07T15:20:07Z</time>
      </trkpt>
      <trkpt lat="45.34504" lon="5.78003">
        <ele>846.1</ele>
        <time>2015-03-07T15:20:20Z</time>
      </trkpt>
      <trkpt lat="45.34497" lon="5.77994">
        <ele>847.06</ele>
        <time>2015-03-07T15:20:33Z</time>
      </trkpt>
      <trkpt lat="45.34492" lon="5.77982">
        <ele>848.02</ele>
        <time>2015-03-07T15:20:45Z</time>
      </trkpt>
      <trkpt lat="45.34487" lon="5.77969">
        <ele>848.98</ele>
        <time>2015-03-07T15:20:55Z</time>
      </trkpt>
      <trkpt lat="45.34484" lon="5.77954">
        <ele>850.9</ele>
        <time>2015-03-07T15:21:10Z</time>
      </trkpt>
      <trkpt lat="45.34486" lon="5.77942">
        <ele>853.79</ele>
        <time>2015-03-07T15:21:24Z</time>
      </trkpt>
      <trkpt lat="45.34488" lon="5.7793">
        <ele>855.71</ele>
        <time>2015-03-07T15:21:37Z</time>
      </trkpt>
      <trkpt lat="45.34489" lon="5.77907">
        <ele>858.11</ele>
        <time>2015-03-07T15:21:54Z</time>
      </trkpt>
      <trkpt lat="45.34488" lon="5.779">
        <ele>860.52</ele>
        <time>2015-03-07T15:22:08Z</time>
      </trkpt>
      <trkpt lat="45.34482" lon="5.77902">
        <ele>862.92</ele>
        <time>2015-03-07T15:22:22Z</time>
      </trkpt>
      <trkpt lat="45.34473" lon="5.77901">
        <ele>865.32</ele>
        <time>2015-03-07T15:22:37Z</time>
      </trkpt>
      <trkpt lat="45.34464" lon="5.77897">
        <ele>866.77</ele>
        <time>2015-03-07T15:22:51Z</time>
      </trkpt>
      <trkpt lat="45.34455" lon="5.77893">
        <ele>868.21</ele>
        <time>2015-03-07T15:23:04Z</time>
      </trkpt>
      <trkpt lat="45.34448" lon="5.77884">
        <ele>870.61</ele>
        <time>2015-03-07T15:23:19Z</time>
      </trkpt>
      <trkpt lat="45.34448" lon="5.77866">
        <ele>873.01</ele>
        <time>2015-03-07T15:23:33Z</time>
      </trkpt>
      <trkpt lat="45.3445" lon="5.77851">
        <ele>874.94</ele>
        <time>2015-03-07T15:23:47Z</time>
      </trkpt>
      <trkpt lat="45.34452" lon="5.77836">
        <ele>876.38</ele>
        <time>2015-03-07T15:24:03Z</time>
      </trkpt>
      <trkpt lat="45.34458" lon="5.77823">
        <ele>879.26</ele>
        <time>2015-03-07T15:24:20Z</time>
      </trkpt>
      <trkpt lat="45.34462" lon="5.77814">
        <ele>882.15</ele>
        <time>2015-03-07T15:24:35Z</time>
      </trkpt>
      <trkpt lat="45.34468" lon="5.77801">
        <ele>884.55</ele>
        <time>2015-03-07T15:24:51Z</time>
      </trkpt>
      <trkpt lat="45.34471" lon="5.77796">
        <ele>886.47</ele>
        <time>2015-03-07T15:25:04Z</time>
      </trkpt>
      <trkpt lat="45.34466" lon="5.77793">
        <ele>888.4</ele>
        <time>2015-03-07T15:25:18Z</time>
      </trkpt>
      <trkpt lat="45.34457" lon="5.77789">
        <ele>890.32</ele>
        <time>2015-03-07T15:25:34Z</time>
      </trkpt>
      <trkpt lat="45.34447" lon="5.77788">
        <ele>892.72</ele>
        <time>2015-03-07T15:25:52Z</time>
      </trkpt>
      <trkpt lat="45.34436" lon="5.77785">
        <ele>895.61</ele>
        <time>2015-03-07T15:26:10Z</time>
      </trkpt>
      <trkpt lat="45.34434" lon="5.77785">
        <ele>896.09</ele>
        <time>2015-03-07T15:26:26Z</time>
      </trkpt>
      <trkpt lat="45.34428" lon="5.77782">
        <ele>898.01</ele>
        <time>2015-03-07T15:26:40Z</time>
      </trkpt>
      <trkpt lat="45.34429" lon="5.7777">
        <ele>899.93</ele>
        <time>2015-03-07T15:26:53Z</time>
      </trkpt>
      <trkpt lat="45.34428" lon="5.77759">
        <ele>902.82</ele>
        <time>2015-03-07T15:27:08Z</time>
      </trkpt>
      <trkpt lat="45.34433" lon="5.77749">
        <ele>904.74</ele>
        <time>2015-03-07T15:27:23Z</time>
      </trkpt>
      <trkpt lat="45.34437" lon="5.77743">
        <ele>906.18</ele>
        <time>2015-03-07T15:27:36Z</time>
      </trkpt>
      <trkpt lat="45.34444" lon="5.77732">
        <ele>908.1</ele>
        <time>2015-03-07T15:27:52Z</time>
      </trkpt>
      <trkpt lat="45.34451" lon="5.77722">
        <ele>910.51</ele>
        <time>2015-03-07T15:28:11Z</time>
      </trkpt>
      <trkpt lat="45.34453" lon="5.77716">
        <ele>912.91</ele>
        <time>2015-03-07T15:28:24Z</time>
      </trkpt>
      <trkpt lat="45.3445" lon="5.77717">
        <ele>913.39</ele>
        <time>2015-03-07T15:28:31Z</time>
      </trkpt>
      <trkpt lat="45.34448" lon="5.77719">
        <ele>913.39</ele>
        <time>2015-03-07T15:28:34Z</time>
      </trkpt>
      <trkpt lat="45.34442" lon="5.77714">
        <ele>910.99</ele>
        <time>2015-03-07T15:28:38Z</time>
      </trkpt>
      <trkpt lat="45.34442" lon="5.77713">
        <ele>910.99</ele>
        <time>2015-03-07T15:28:39Z</time>
      </trkpt>
      <trkpt lat="45.34439" lon="5.77698">
        <ele>910.99</ele>
        <time>2015-03-07T15:28:54Z</time>
      </trkpt>
      <trkpt lat="45.34437" lon="5.77696">
        <ele>910.99</ele>
        <time>2015-03-07T15:28:56Z</time>
      </trkpt>
      <trkpt lat="45.3443" lon="5.77689">
        <ele>910.99</ele>
        <time>2015-03-07T15:29:05Z</time>
      </trkpt>
      <trkpt lat="45.34418" lon="5.77684">
        <ele>911.95</ele>
        <time>2015-03-07T15:29:21Z</time>
      </trkpt>
      <trkpt lat="45.34406" lon="5.77686">
        <ele>912.43</ele>
        <time>2015-03-07T15:29:37Z</time>
      </trkpt>
      <trkpt lat="45.34401" lon="5.77688">
        <ele>912.91</ele>
        <time>2015-03-07T15:29:42Z</time>
      </trkpt>
      <trkpt lat="45.34391" lon="5.77691">
        <ele>913.39</ele>
        <time>2015-03-07T15:29:54Z</time>
      </trkpt>
      <trkpt lat="45.34382" lon="5.77693">
        <ele>913.87</ele>
        <time>2015-03-07T15:30:04Z</time>
      </trkpt>
      <trkpt lat="45.34376" lon="5.77693">
        <ele>914.35</ele>
        <time>2015-03-07T15:30:10Z</time>
      </trkpt>
      <trkpt lat="45.34362" lon="5.77691">
        <ele>914.83</ele>
        <time>2015-03-07T15:30:23Z</time>
      </trkpt>
      <trkpt lat="45.34355" lon="5.77689">
        <ele>914.83</ele>
        <time>2015-03-07T15:30:28Z</time>
      </trkpt>
      <trkpt lat="45.34346" lon="5.7769">
        <ele>915.31</ele>
        <time>2015-03-07T15:30:37Z</time>
      </trkpt>
      <trkpt lat="45.34342" lon="5.77691">
        <ele>915.31</ele>
        <time>2015-03-07T15:30:41Z</time>
      </trkpt>
      <trkpt lat="45.34339" lon="5.77693">
        <ele>915.79</ele>
        <time>2015-03-07T15:30:44Z</time>
      </trkpt>
      <trkpt lat="45.34327" lon="5.77685">
        <ele>916.27</ele>
        <time>2015-03-07T15:30:56Z</time>
      </trkpt>
      <trkpt lat="45.34315" lon="5.77689">
        <ele>916.75</ele>
        <time>2015-03-07T15:31:10Z</time>
      </trkpt>
      <trkpt lat="45.3431" lon="5.7769">
        <ele>917.24</ele>
        <time>2015-03-07T15:31:16Z</time>
      </trkpt>
      <trkpt lat="45.34298" lon="5.7769">
        <ele>918.2</ele>
        <time>2015-03-07T15:31:30Z</time>
      </trkpt>
      <trkpt lat="45.34285" lon="5.77689">
        <ele>919.64</ele>
        <time>2015-03-07T15:31:44Z</time>
      </trkpt>
      <trkpt lat="45.34271" lon="5.77685">
        <ele>920.6</ele>
        <time>2015-03-07T15:31:58Z</time>
      </trkpt>
      <trkpt lat="45.34262" lon="5.7768">
        <ele>921.08</ele>
        <time>2015-03-07T15:32:07Z</time>
      </trkpt>
      <trkpt lat="45.34249" lon="5.77671">
        <ele>922.52</ele>
        <time>2015-03-07T15:32:22Z</time>
      </trkpt>
      <trkpt lat="45.34236" lon="5.77662">
        <ele>923.48</ele>
        <time>2015-03-07T15:32:35Z</time>
      </trkpt>
      <trkpt lat="45.34228" lon="5.77649">
        <ele>924.45</ele>
        <time>2015-03-07T15:32:47Z</time>
      </trkpt>
      <trkpt lat="45.34226" lon="5.77648">
        <ele>924.93</ele>
        <time>2015-03-07T15:32:49Z</time>
      </trkpt>
      <trkpt lat="45.34224" lon="5.77646">
        <ele>924.93</ele>
        <time>2015-03-07T15:32:52Z</time>
      </trkpt>
      <trkpt lat="45.3422" lon="5.77645">
        <ele>925.41</ele>
        <time>2015-03-07T15:32:56Z</time>
      </trkpt>
      <trkpt lat="45.34214" lon="5.77641">
        <ele>925.89</ele>
        <time>2015-03-07T15:33:04Z</time>
      </trkpt>
      <trkpt lat="45.34208" lon="5.77632">
        <ele>925.89</ele>
        <time>2015-03-07T15:33:10Z</time>
      </trkpt>
      <trkpt lat="45.34195" lon="5.77614">
        <ele>927.33</ele>
        <time>2015-03-07T15:33:24Z</time>
      </trkpt>
      <trkpt lat="45.34188" lon="5.77609">
        <ele>927.81</ele>
        <time>2015-03-07T15:33:37Z</time>
      </trkpt>
      <trkpt lat="45.34177" lon="5.77598">
        <ele>928.77</ele>
        <time>2015-03-07T15:33:51Z</time>
      </trkpt>
      <trkpt lat="45.34167" lon="5.77588">
        <ele>929.73</ele>
        <time>2015-03-07T15:34:04Z</time>
      </trkpt>
      <trkpt lat="45.34159" lon="5.77582">
        <ele>930.21</ele>
        <time>2015-03-07T15:34:13Z</time>
      </trkpt>
      <trkpt lat="45.34154" lon="5.77579">
        <ele>930.21</ele>
        <time>2015-03-07T15:34:19Z</time>
      </trkpt>
      <trkpt lat="45.34153" lon="5.77578">
        <ele>930.69</ele>
        <time>2015-03-07T15:34:21Z</time>
      </trkpt>
      <trkpt lat="45.3415" lon="5.77577">
        <ele>930.69</ele>
        <time>2015-03-07T15:34:25Z</time>
      </trkpt>
      <trkpt lat="45.34141" lon="5.77574">
        <ele>932.14</ele>
        <time>2015-03-07T15:34:37Z</time>
      </trkpt>
      <trkpt lat="45.34131" lon="5.77566">
        <ele>933.58</ele>
        <time>2015-03-07T15:34:51Z</time>
      </trkpt>
      <trkpt lat="45.34119" lon="5.7756">
        <ele>935.5</ele>
        <time>2015-03-07T15:35:06Z</time>
      </trkpt>
      <trkpt lat="45.34111" lon="5.77554">
        <ele>936.94</ele>
        <time>2015-03-07T15:35:16Z</time>
      </trkpt>
      <trkpt lat="45.34102" lon="5.7755">
        <ele>938.38</ele>
        <time>2015-03-07T15:35:30Z</time>
      </trkpt>
      <trkpt lat="45.34095" lon="5.77549">
        <ele>939.35</ele>
        <time>2015-03-07T15:35:42Z</time>
      </trkpt>
      <trkpt lat="45.34084" lon="5.77543">
        <ele>941.75</ele>
        <time>2015-03-07T15:35:56Z</time>
      </trkpt>
      <trkpt lat="45.34078" lon="5.7754">
        <ele>942.23</ele>
        <time>2015-03-07T15:36:04Z</time>
      </trkpt>
      <trkpt lat="45.34068" lon="5.77534">
        <ele>943.67</ele>
        <time>2015-03-07T15:36:19Z</time>
      </trkpt>
      <trkpt lat="45.34059" lon="5.77529">
        <ele>945.11</ele>
        <time>2015-03-07T15:36:33Z</time>
      </trkpt>
      <trkpt lat="45.34051" lon="5.77524">
        <ele>946.56</ele>
        <time>2015-03-07T15:36:47Z</time>
      </trkpt>
      <trkpt lat="45.34039" lon="5.77518">
        <ele>948.96</ele>
        <time>2015-03-07T15:37:03Z</time>
      </trkpt>
      <trkpt lat="45.3403" lon="5.77516">
        <ele>951.36</ele>
        <time>2015-03-07T15:37:17Z</time>
      </trkpt>
      <trkpt lat="45.34019" lon="5.7751">
        <ele>952.8</ele>
        <time>2015-03-07T15:37:31Z</time>
      </trkpt>
      <trkpt lat="45.34013" lon="5.775">
        <ele>955.21</ele>
        <time>2015-03-07T15:37:44Z</time>
      </trkpt>
      <trkpt lat="45.33996" lon="5.77486">
        <ele>957.61</ele>
        <time>2015-03-07T15:38:01Z</time>
      </trkpt>
      <trkpt lat="45.3399" lon="5.77488">
        <ele>959.05</ele>
        <time>2015-03-07T15:38:15Z</time>
      </trkpt>
      <trkpt lat="45.33984" lon="5.77486">
        <ele>961.46</ele>
        <time>2015-03-07T15:38:29Z</time>
      </trkpt>
      <trkpt lat="45.33979" lon="5.77485">
        <ele>963.38</ele>
        <time>2015-03-07T15:38:44Z</time>
      </trkpt>
      <trkpt lat="45.33971" lon="5.77483">
        <ele>965.3</ele>
        <time>2015-03-07T15:38:58Z</time>
      </trkpt>
      <trkpt lat="45.33961" lon="5.77484">
        <ele>967.7</ele>
        <time>2015-03-07T15:39:13Z</time>
      </trkpt>
      <trkpt lat="45.33948" lon="5.77483">
        <ele>969.15</ele>
        <time>2015-03-07T15:39:28Z</time>
      </trkpt>
      <trkpt lat="45.33929" lon="5.77488">
        <ele>971.55</ele>
        <time>2015-03-07T15:39:46Z</time>
      </trkpt>
      <trkpt lat="45.33922" lon="5.77486">
        <ele>972.51</ele>
        <time>2015-03-07T15:39:55Z</time>
      </trkpt>
      <trkpt lat="45.33904" lon="5.77489">
        <ele>974.43</ele>
        <time>2015-03-07T15:40:10Z</time>
      </trkpt>
      <trkpt lat="45.33898" lon="5.77485">
        <ele>976.84</ele>
        <time>2015-03-07T15:40:26Z</time>
      </trkpt>
      <trkpt lat="45.33885" lon="5.7748">
        <ele>978.76</ele>
        <time>2015-03-07T15:40:40Z</time>
      </trkpt>
      <trkpt lat="45.33875" lon="5.77471">
        <ele>979.72</ele>
        <time>2015-03-07T15:40:53Z</time>
      </trkpt>
      <trkpt lat="45.33866" lon="5.77463">
        <ele>981.16</ele>
        <time>2015-03-07T15:41:06Z</time>
      </trkpt>
      <trkpt lat="45.3386" lon="5.77455">
        <ele>983.57</ele>
        <time>2015-03-07T15:41:23Z</time>
      </trkpt>
      <trkpt lat="45.33854" lon="5.77445">
        <ele>985.49</ele>
        <time>2015-03-07T15:41:37Z</time>
      </trkpt>
      <trkpt lat="45.33846" lon="5.77432">
        <ele>987.41</ele>
        <time>2015-03-07T15:41:51Z</time>
      </trkpt>
      <trkpt lat="45.33838" lon="5.77425">
        <ele>989.33</ele>
        <time>2015-03-07T15:42:04Z</time>
      </trkpt>
      <trkpt lat="45.33823" lon="5.77414">
        <ele>991.26</ele>
        <time>2015-03-07T15:42:18Z</time>
      </trkpt>
      <trkpt lat="45.33821" lon="5.77414">
        <ele>991.26</ele>
        <time>2015-03-07T15:42:19Z</time>
      </trkpt>
      <trkpt lat="45.33813" lon="5.7741">
        <ele>992.22</ele>
        <time>2015-03-07T15:42:31Z</time>
      </trkpt>
      <trkpt lat="45.33806" lon="5.77402">
        <ele>993.18</ele>
        <time>2015-03-07T15:42:44Z</time>
      </trkpt>
      <trkpt lat="45.33797" lon="5.77399">
        <ele>995.1</ele>
        <time>2015-03-07T15:42:57Z</time>
      </trkpt>
      <trkpt lat="45.33787" lon="5.77391">
        <ele>997.02</ele>
        <time>2015-03-07T15:43:12Z</time>
      </trkpt>
      <trkpt lat="45.3378" lon="5.7738">
        <ele>998.95</ele>
        <time>2015-03-07T15:43:26Z</time>
      </trkpt>
      <trkpt lat="45.33774" lon="5.77368">
        <ele>1000.39</ele>
        <time>2015-03-07T15:43:40Z</time>
      </trkpt>
      <trkpt lat="45.33768" lon="5.77355">
        <ele>1001.83</ele>
        <time>2015-03-07T15:43:53Z</time>
      </trkpt>
      <trkpt lat="45.33762" lon="5.77348">
        <ele>1003.27</ele>
        <time>2015-03-07T15:44:04Z</time>
      </trkpt>
      <trkpt lat="45.33761" lon="5.7735">
        <ele>1005.2</ele>
        <time>2015-03-07T15:44:16Z</time>
      </trkpt>
      <trkpt lat="45.33755" lon="5.77351">
        <ele>1008.08</ele>
        <time>2015-03-07T15:44:30Z</time>
      </trkpt>
      <trkpt lat="45.33749" lon="5.77353">
        <ele>1010.48</ele>
        <time>2015-03-07T15:44:46Z</time>
      </trkpt>
      <trkpt lat="45.33741" lon="5.77353">
        <ele>1011.93</ele>
        <time>2015-03-07T15:44:57Z</time>
      </trkpt>
      <trkpt lat="45.33734" lon="5.77346">
        <ele>1014.81</ele>
        <time>2015-03-07T15:45:13Z</time>
      </trkpt>
      <trkpt lat="45.33729" lon="5.77341">
        <ele>1016.73</ele>
        <time>2015-03-07T15:45:26Z</time>
      </trkpt>
      <trkpt lat="45.33726" lon="5.7734">
        <ele>1018.65</ele>
        <time>2015-03-07T15:45:39Z</time>
      </trkpt>
      <trkpt lat="45.33721" lon="5.77337">
        <ele>1020.58</ele>
        <time>2015-03-07T15:45:52Z</time>
      </trkpt>
      <trkpt lat="45.33716" lon="5.77331">
        <ele>1022.02</ele>
        <time>2015-03-07T15:46:05Z</time>
      </trkpt>
      <trkpt lat="45.33715" lon="5.77331">
        <ele>1024.9</ele>
        <time>2015-03-07T15:46:19Z</time>
      </trkpt>
      <trkpt lat="45.33709" lon="5.77325">
        <ele>1027.31</ele>
        <time>2015-03-07T15:46:33Z</time>
      </trkpt>
      <trkpt lat="45.33708" lon="5.77321">
        <ele>1028.27</ele>
        <time>2015-03-07T15:46:45Z</time>
      </trkpt>
      <trkpt lat="45.33703" lon="5.77311">
        <ele>1029.71</ele>
        <time>2015-03-07T15:46:59Z</time>
      </trkpt>
      <trkpt lat="45.33702" lon="5.77303">
        <ele>1031.63</ele>
        <time>2015-03-07T15:47:08Z</time>
      </trkpt>
      <trkpt lat="45.33701" lon="5.77302">
        <ele>1033.07</ele>
        <time>2015-03-07T15:47:18Z</time>
      </trkpt>
      <trkpt lat="45.33698" lon="5.77298">
        <ele>1034.52</ele>
        <time>2015-03-07T15:47:31Z</time>
      </trkpt>
      <trkpt lat="45.33695" lon="5.77294">
        <ele>1036.44</ele>
        <time>2015-03-07T15:47:44Z</time>
      </trkpt>
      <trkpt lat="45.33693" lon="5.77294">
        <ele>1038.84</ele>
        <time>2015-03-07T15:47:55Z</time>
      </trkpt>
      <trkpt lat="45.33692" lon="5.77298">
        <ele>1041.25</ele>
        <time>2015-03-07T15:48:07Z</time>
      </trkpt>
      <trkpt lat="45.33688" lon="5.77304">
        <ele>1042.69</ele>
        <time>2015-03-07T15:48:18Z</time>
      </trkpt>
      <trkpt lat="45.33685" lon="5.77311">
        <ele>1043.65</ele>
        <time>2015-03-07T15:48:31Z</time>
      </trkpt>
      <trkpt lat="45.33683" lon="5.77317">
        <ele>1044.61</ele>
        <time>2015-03-07T15:48:43Z</time>
      </trkpt>
      <trkpt lat="45.33682" lon="5.77322">
        <ele>1045.09</ele>
        <time>2015-03-07T15:48:56Z</time>
      </trkpt>
      <trkpt lat="45.33676" lon="5.77324">
        <ele>1046.53</ele>
        <time>2015-03-07T15:49:10Z</time>
      </trkpt>
      <trkpt lat="45.33673" lon="5.77326">
        <ele>1048.94</ele>
        <time>2015-03-07T15:49:23Z</time>
      </trkpt>
      <trkpt lat="45.33658" lon="5.77326">
        <ele>1050.86</ele>
        <time>2015-03-07T15:49:39Z</time>
      </trkpt>
      <trkpt lat="45.33655" lon="5.77317">
        <ele>1053.26</ele>
        <time>2015-03-07T15:49:54Z</time>
      </trkpt>
      <trkpt lat="45.33653" lon="5.77318">
        <ele>1055.67</ele>
        <time>2015-03-07T15:50:09Z</time>
      </trkpt>
      <trkpt lat="45.33649" lon="5.77321">
        <ele>1056.63</ele>
        <time>2015-03-07T15:50:19Z</time>
      </trkpt>
      <trkpt lat="45.33643" lon="5.77314">
        <ele>1059.99</ele>
        <time>2015-03-07T15:50:35Z</time>
      </trkpt>
      <trkpt lat="45.33642" lon="5.77311">
        <ele>1061.91</ele>
        <time>2015-03-07T15:50:52Z</time>
      </trkpt>
      <trkpt lat="45.33642" lon="5.77308">
        <ele>1064.32</ele>
        <time>2015-03-07T15:51:07Z</time>
      </trkpt>
      <trkpt lat="45.33634" lon="5.77316">
        <ele>1067.2</ele>
        <time>2015-03-07T15:51:23Z</time>
      </trkpt>
      <trkpt lat="45.33628" lon="5.77312">
        <ele>1068.64</ele>
        <time>2015-03-07T15:51:35Z</time>
      </trkpt>
      <trkpt lat="45.33623" lon="5.77311">
        <ele>1071.53</ele>
        <time>2015-03-07T15:51:50Z</time>
      </trkpt>
      <trkpt lat="45.33621" lon="5.7731">
        <ele>1073.93</ele>
        <time>2015-03-07T15:52:09Z</time>
      </trkpt>
      <trkpt lat="45.33617" lon="5.7731">
        <ele>1077.29</ele>
        <time>2015-03-07T15:52:24Z</time>
      </trkpt>
      <trkpt lat="45.33609" lon="5.7731">
        <ele>1078.26</ele>
        <time>2015-03-07T15:52:37Z</time>
      </trkpt>
      <trkpt lat="45.33608" lon="5.77309">
        <ele>1080.66</ele>
        <time>2015-03-07T15:52:53Z</time>
      </trkpt>
      <trkpt lat="45.33608" lon="5.77317">
        <ele>1083.54</ele>
        <time>2015-03-07T15:53:08Z</time>
      </trkpt>
      <trkpt lat="45.33595" lon="5.77327">
        <ele>1086.43</ele>
        <time>2015-03-07T15:53:23Z</time>
      </trkpt>
      <trkpt lat="45.33592" lon="5.77329">
        <ele>1088.35</ele>
        <time>2015-03-07T15:53:38Z</time>
      </trkpt>
      <trkpt lat="45.33585" lon="5.77329">
        <ele>1089.79</ele>
        <time>2015-03-07T15:53:51Z</time>
      </trkpt>
      <trkpt lat="45.33584" lon="5.77333">
        <ele>1091.71</ele>
        <time>2015-03-07T15:54:08Z</time>
      </trkpt>
      <trkpt lat="45.33581" lon="5.7734">
        <ele>1094.6</ele>
        <time>2015-03-07T15:54:21Z</time>
      </trkpt>
      <trkpt lat="45.3357" lon="5.77339">
        <ele>1096.04</ele>
        <time>2015-03-07T15:54:39Z</time>
      </trkpt>
      <trkpt lat="45.33555" lon="5.77333">
        <ele>1097.48</ele>
        <time>2015-03-07T15:54:55Z</time>
      </trkpt>
      <trkpt lat="45.33546" lon="5.77333">
        <ele>1099.89</ele>
        <time>2015-03-07T15:55:09Z</time>
      </trkpt>
      <trkpt lat="45.33543" lon="5.77331">
        <ele>1101.33</ele>
        <time>2015-03-07T15:55:21Z</time>
      </trkpt>
      <trkpt lat="45.33538" lon="5.77329">
        <ele>1103.25</ele>
        <time>2015-03-07T15:55:33Z</time>
      </trkpt>
      <trkpt lat="45.33531" lon="5.77327">
        <ele>1104.69</ele>
        <time>2015-03-07T15:55:46Z</time>
      </trkpt>
      <trkpt lat="45.33522" lon="5.77322">
        <ele>1107.58</ele>
        <time>2015-03-07T15:56:01Z</time>
      </trkpt>
      <trkpt lat="45.33519" lon="5.77322">
        <ele>1109.5</ele>
        <time>2015-03-07T15:56:13Z</time>
      </trkpt>
      <trkpt lat="45.33512" lon="5.77324">
        <ele>1111.9</ele>
        <time>2015-03-07T15:56:28Z</time>
      </trkpt>
      <trkpt lat="45.33501" lon="5.77323">
        <ele>1114.31</ele>
        <time>2015-03-07T15:56:42Z</time>
      </trkpt>
      <trkpt lat="45.33492" lon="5.77321">
        <ele>1116.71</ele>
        <time>2015-03-07T15:56:57Z</time>
      </trkpt>
      <trkpt lat="45.33484" lon="5.77316">
        <ele>1117.67</ele>
        <time>2015-03-07T15:57:10Z</time>
      </trkpt>
      <trkpt lat="45.33477" lon="5.77313">
        <ele>1118.15</ele>
        <time>2015-03-07T15:57:22Z</time>
      </trkpt>
      <trkpt lat="45.33467" lon="5.77307">
        <ele>1119.59</ele>
        <time>2015-03-07T15:57:36Z</time>
      </trkpt>
      <trkpt lat="45.33459" lon="5.77301">
        <ele>1121.03</ele>
        <time>2015-03-07T15:57:47Z</time>
      </trkpt>
      <trkpt lat="45.33449" lon="5.77296">
        <ele>1122.48</ele>
        <time>2015-03-07T15:58:01Z</time>
      </trkpt>
      <trkpt lat="45.33445" lon="5.77291">
        <ele>1123.44</ele>
        <time>2015-03-07T15:58:15Z</time>
      </trkpt>
      <trkpt lat="45.33444" lon="5.7729">
        <ele>1123.44</ele>
        <time>2015-03-07T15:58:16Z</time>
      </trkpt>
      <trkpt lat="45.33432" lon="5.77292">
        <ele>1123.92</ele>
        <time>2015-03-07T15:58:29Z</time>
      </trkpt>
      <trkpt lat="45.33422" lon="5.77291">
        <ele>1125.84</ele>
        <time>2015-03-07T15:58:40Z</time>
      </trkpt>
      <trkpt lat="45.33414" lon="5.7729">
        <ele>1127.76</ele>
        <time>2015-03-07T15:58:54Z</time>
      </trkpt>
      <trkpt lat="45.33406" lon="5.77283">
        <ele>1130.65</ele>
        <time>2015-03-07T15:59:07Z</time>
      </trkpt>
      <trkpt lat="45.33402" lon="5.77274">
        <ele>1131.61</ele>
        <time>2015-03-07T15:59:20Z</time>
      </trkpt>
      <trkpt lat="45.33395" lon="5.77269">
        <ele>1134.97</ele>
        <time>2015-03-07T15:59:36Z</time>
      </trkpt>
      <trkpt lat="45.33391" lon="5.77263">
        <ele>1135.45</ele>
        <time>2015-03-07T15:59:44Z</time>
      </trkpt>
      <trkpt lat="45.33391" lon="5.77249">
        <ele>1135.94</ele>
        <time>2015-03-07T15:59:56Z</time>
      </trkpt>
      <trkpt lat="45.33393" lon="5.77246">
        <ele>1135.94</ele>
        <time>2015-03-07T15:59:58Z</time>
      </trkpt>
      <trkpt lat="45.33393" lon="5.7724">
        <ele>1134.49</ele>
        <time>2015-03-07T16:00:01Z</time>
      </trkpt>
      <trkpt lat="45.33391" lon="5.77229">
        <ele>1134.49</ele>
        <time>2015-03-07T16:00:12Z</time>
      </trkpt>
      <trkpt lat="45.33391" lon="5.77224">
        <ele>1136.42</ele>
        <time>2015-03-07T16:00:17Z</time>
      </trkpt>
      <trkpt lat="45.33388" lon="5.77202">
        <ele>1138.82</ele>
        <time>2015-03-07T16:00:33Z</time>
      </trkpt>
      <trkpt lat="45.33375" lon="5.77198">
        <ele>1140.74</ele>
        <time>2015-03-07T16:00:46Z</time>
      </trkpt>
      <trkpt lat="45.33367" lon="5.77188">
        <ele>1143.63</ele>
        <time>2015-03-07T16:00:59Z</time>
      </trkpt>
      <trkpt lat="45.3336" lon="5.77178">
        <ele>1146.03</ele>
        <time>2015-03-07T16:01:11Z</time>
      </trkpt>
      <trkpt lat="45.33359" lon="5.77164">
        <ele>1148.91</ele>
        <time>2015-03-07T16:01:23Z</time>
      </trkpt>
      <trkpt lat="45.3336" lon="5.77148">
        <ele>1150.84</ele>
        <time>2015-03-07T16:01:36Z</time>
      </trkpt>
      <trkpt lat="45.33356" lon="5.77133">
        <ele>1151.8</ele>
        <time>2015-03-07T16:01:48Z</time>
      </trkpt>
      <trkpt lat="45.33356" lon="5.77117">
        <ele>1154.2</ele>
        <time>2015-03-07T16:02:01Z</time>
      </trkpt>
      <trkpt lat="45.33366" lon="5.77097">
        <ele>1157.08</ele>
        <time>2015-03-07T16:02:16Z</time>
      </trkpt>
      <trkpt lat="45.33363" lon="5.77084">
        <ele>1159.97</ele>
        <time>2015-03-07T16:02:31Z</time>
      </trkpt>
      <trkpt lat="45.33357" lon="5.77077">
        <ele>1162.37</ele>
        <time>2015-03-07T16:02:44Z</time>
      </trkpt>
      <trkpt lat="45.33358" lon="5.77078">
        <ele>1165.26</ele>
        <time>2015-03-07T16:02:58Z</time>
      </trkpt>
      <trkpt lat="45.33358" lon="5.77079">
        <ele>1165.74</ele>
        <time>2015-03-07T16:03:05Z</time>
      </trkpt>
      <trkpt lat="45.33354" lon="5.77084">
        <ele>1168.14</ele>
        <time>2015-03-07T16:03:17Z</time>
      </trkpt>
      <trkpt lat="45.33353" lon="5.77091">
        <ele>1169.58</ele>
        <time>2015-03-07T16:03:29Z</time>
      </trkpt>
      <trkpt lat="45.3335" lon="5.77093">
        <ele>1171.98</ele>
        <time>2015-03-07T16:03:41Z</time>
      </trkpt>
      <trkpt lat="45.33342" lon="5.77097">
        <ele>1174.39</ele>
        <time>2015-03-07T16:03:54Z</time>
      </trkpt>
      <trkpt lat="45.33328" lon="5.77089">
        <ele>1176.79</ele>
        <time>2015-03-07T16:04:06Z</time>
      </trkpt>
      <trkpt lat="45.33323" lon="5.77082">
        <ele>1178.71</ele>
        <time>2015-03-07T16:04:18Z</time>
      </trkpt>
      <trkpt lat="45.33321" lon="5.77079">
        <ele>1179.19</ele>
        <time>2015-03-07T16:04:23Z</time>
      </trkpt>
      <trkpt lat="45.33316" lon="5.7707">
        <ele>1182.08</ele>
        <time>2015-03-07T16:04:37Z</time>
      </trkpt>
      <trkpt lat="45.33306" lon="5.77061">
        <ele>1184.48</ele>
        <time>2015-03-07T16:04:52Z</time>
      </trkpt>
      <trkpt lat="45.33302" lon="5.77053">
        <ele>1186.88</ele>
        <time>2015-03-07T16:05:06Z</time>
      </trkpt>
      <trkpt lat="45.33303" lon="5.77041">
        <ele>1186.88</ele>
        <time>2015-03-07T16:05:27Z</time>
      </trkpt>
      <trkpt lat="45.33307" lon="5.7704">
        <ele>1187.37</ele>
        <time>2015-03-07T16:05:48Z</time>
      </trkpt>
      <trkpt lat="45.33306" lon="5.7704">
        <ele>1188.33</ele>
        <time>2015-03-07T16:05:58Z</time>
      </trkpt>
      <trkpt lat="45.33305" lon="5.77047">
        <ele>1191.21</ele>
        <time>2015-03-07T16:06:13Z</time>
      </trkpt>
      <trkpt lat="45.33304" lon="5.77052">
        <ele>1193.61</ele>
        <time>2015-03-07T16:06:25Z</time>
      </trkpt>
      <trkpt lat="45.33303" lon="5.77055">
        <ele>1194.09</ele>
        <time>2015-03-07T16:06:30Z</time>
      </trkpt>
      <trkpt lat="45.33299" lon="5.77061">
        <ele>1196.98</ele>
        <time>2015-03-07T16:06:44Z</time>
      </trkpt>
      <trkpt lat="45.33297" lon="5.77071">
        <ele>1199.38</ele>
        <time>2015-03-07T16:06:57Z</time>
      </trkpt>
      <trkpt lat="45.33297" lon="5.77078">
        <ele>1201.79</ele>
        <time>2015-03-07T16:07:11Z</time>
      </trkpt>
      <trkpt lat="45.33296" lon="5.77079">
        <ele>1202.27</ele>
        <time>2015-03-07T16:07:14Z</time>
      </trkpt>
      <trkpt lat="45.33292" lon="5.77085">
        <ele>1203.71</ele>
        <time>2015-03-07T16:07:26Z</time>
      </trkpt>
      <trkpt lat="45.33293" lon="5.77086">
        <ele>1203.71</ele>
        <time>2015-03-07T16:07:27Z</time>
      </trkpt>
      <trkpt lat="45.33273" lon="5.7708">
        <ele>1205.63</ele>
        <time>2015-03-07T16:07:40Z</time>
      </trkpt>
      <trkpt lat="45.33271" lon="5.7708">
        <ele>1207.07</ele>
        <time>2015-03-07T16:07:51Z</time>
      </trkpt>
      <trkpt lat="45.33272" lon="5.77084">
        <ele>1208.03</ele>
        <time>2015-03-07T16:08:03Z</time>
      </trkpt>
      <trkpt lat="45.33256" lon="5.77079">
        <ele>1210.44</ele>
        <time>2015-03-07T16:08:17Z</time>
      </trkpt>
      <trkpt lat="45.33252" lon="5.77077">
        <ele>1211.88</ele>
        <time>2015-03-07T16:08:31Z</time>
      </trkpt>
      <trkpt lat="45.33258" lon="5.77076">
        <ele>1213.32</ele>
        <time>2015-03-07T16:08:49Z</time>
      </trkpt>
      <trkpt lat="45.33258" lon="5.77077">
        <ele>1215.72</ele>
        <time>2015-03-07T16:09:05Z</time>
      </trkpt>
      <trkpt lat="45.33243" lon="5.77078">
        <ele>1217.65</ele>
        <time>2015-03-07T16:09:18Z</time>
      </trkpt>
      <trkpt lat="45.33246" lon="5.77079">
        <ele>1219.09</ele>
        <time>2015-03-07T16:09:30Z</time>
      </trkpt>
      <trkpt lat="45.33238" lon="5.77078">
        <ele>1221.49</ele>
        <time>2015-03-07T16:09:44Z</time>
      </trkpt>
      <trkpt lat="45.3323" lon="5.77072">
        <ele>1223.9</ele>
        <time>2015-03-07T16:09:58Z</time>
      </trkpt>
      <trkpt lat="45.33237" lon="5.77068">
        <ele>1225.82</ele>
        <time>2015-03-07T16:10:10Z</time>
      </trkpt>
      <trkpt lat="45.33235" lon="5.77069">
        <ele>1227.74</ele>
        <time>2015-03-07T16:10:26Z</time>
      </trkpt>
      <trkpt lat="45.33225" lon="5.7707">
        <ele>1230.14</ele>
        <time>2015-03-07T16:10:43Z</time>
      </trkpt>
      <trkpt lat="45.33228" lon="5.77065">
        <ele>1231.11</ele>
        <time>2015-03-07T16:10:59Z</time>
      </trkpt>
      <trkpt lat="45.33225" lon="5.77067">
        <ele>1232.07</ele>
        <time>2015-03-07T16:11:18Z</time>
      </trkpt>
      <trkpt lat="45.33228" lon="5.77066">
        <ele>1232.07</ele>
        <time>2015-03-07T16:11:38Z</time>
      </trkpt>
      <trkpt lat="45.33231" lon="5.77062">
        <ele>1233.51</ele>
        <time>2015-03-07T16:11:52Z</time>
      </trkpt>
      <trkpt lat="45.33226" lon="5.77062">
        <ele>1234.95</ele>
        <time>2015-03-07T16:12:05Z</time>
      </trkpt>
      <trkpt lat="45.33225" lon="5.77067">
        <ele>1236.87</ele>
        <time>2015-03-07T16:12:16Z</time>
      </trkpt>
      <trkpt lat="45.33225" lon="5.77069">
        <ele>1237.35</ele>
        <time>2015-03-07T16:12:19Z</time>
      </trkpt>
      <trkpt lat="45.3323" lon="5.77073">
        <ele>1239.28</ele>
        <time>2015-03-07T16:12:30Z</time>
      </trkpt>
      <trkpt lat="45.33225" lon="5.77072">
        <ele>1240.72</ele>
        <time>2015-03-07T16:12:42Z</time>
      </trkpt>
      <trkpt lat="45.3322" lon="5.77067">
        <ele>1242.64</ele>
        <time>2015-03-07T16:12:57Z</time>
      </trkpt>
      <trkpt lat="45.33223" lon="5.77063">
        <ele>1243.12</ele>
        <time>2015-03-07T16:13:16Z</time>
      </trkpt>
      <trkpt lat="45.33219" lon="5.77059">
        <ele>1243.6</ele>
        <time>2015-03-07T16:13:28Z</time>
      </trkpt>
      <trkpt lat="45.33222" lon="5.77061">
        <ele>1245.53</ele>
        <time>2015-03-07T16:13:42Z</time>
      </trkpt>
      <trkpt lat="45.33213" lon="5.77058">
        <ele>1246.97</ele>
        <time>2015-03-07T16:13:55Z</time>
      </trkpt>
      <trkpt lat="45.33206" lon="5.77057">
        <ele>1248.41</ele>
        <time>2015-03-07T16:14:08Z</time>
      </trkpt>
      <trkpt lat="45.33207" lon="5.77054">
        <ele>1249.85</ele>
        <time>2015-03-07T16:14:18Z</time>
      </trkpt>
      <trkpt lat="45.33208" lon="5.77056">
        <ele>1249.37</ele>
        <time>2015-03-07T16:14:35Z</time>
      </trkpt>
      <trkpt lat="45.33214" lon="5.77056">
        <ele>1249.37</ele>
        <time>2015-03-07T16:14:50Z</time>
      </trkpt>
      <trkpt lat="45.33217" lon="5.77051">
        <ele>1249.85</ele>
        <time>2015-03-07T16:15:14Z</time>
      </trkpt>
      <trkpt lat="45.33214" lon="5.77053">
        <ele>1251.77</ele>
        <time>2015-03-07T16:15:29Z</time>
      </trkpt>
      <trkpt lat="45.33214" lon="5.77053">
        <ele>1254.18</ele>
        <time>2015-03-07T16:15:45Z</time>
      </trkpt>
      <trkpt lat="45.33215" lon="5.77053">
        <ele>1256.1</ele>
        <time>2015-03-07T16:15:59Z</time>
      </trkpt>
      <trkpt lat="45.33212" lon="5.7705">
        <ele>1258.5</ele>
        <time>2015-03-07T16:16:15Z</time>
      </trkpt>
      <trkpt lat="45.3321" lon="5.77047">
        <ele>1259.94</ele>
        <time>2015-03-07T16:16:30Z</time>
      </trkpt>
      <trkpt lat="45.33208" lon="5.77047">
        <ele>1261.39</ele>
        <time>2015-03-07T16:16:46Z</time>
      </trkpt>
      <trkpt lat="45.33204" lon="5.77048">
        <ele>1262.83</ele>
        <time>2015-03-07T16:17:00Z</time>
      </trkpt>
      <trkpt lat="45.33196" lon="5.77047">
        <ele>1263.79</ele>
        <time>2015-03-07T16:17:22Z</time>
      </trkpt>
      <trkpt lat="45.33189" lon="5.7705">
        <ele>1262.83</ele>
        <time>2015-03-07T16:17:47Z</time>
      </trkpt>
      <trkpt lat="45.3319" lon="5.77048">
        <ele>1264.27</ele>
        <time>2015-03-07T16:17:57Z</time>
      </trkpt>
      <trkpt lat="45.33189" lon="5.77047">
        <ele>1266.67</ele>
        <time>2015-03-07T16:18:15Z</time>
      </trkpt>
      <trkpt lat="45.33188" lon="5.77054">
        <ele>1266.67</ele>
        <time>2015-03-07T16:18:39Z</time>
      </trkpt>
      <trkpt lat="45.33188" lon="5.77049">
        <ele>1266.19</ele>
        <time>2015-03-07T16:18:59Z</time>
      </trkpt>
      <trkpt lat="45.33192" lon="5.77054">
        <ele>1266.67</ele>
        <time>2015-03-07T16:19:14Z</time>
      </trkpt>
      <trkpt lat="45.3319" lon="5.77056">
        <ele>1267.16</ele>
        <time>2015-03-07T16:19:29Z</time>
      </trkpt>
      <trkpt lat="45.3319" lon="5.77057">
        <ele>1266.67</ele>
        <time>2015-03-07T16:19:44Z</time>
      </trkpt>
      <trkpt lat="45.33192" lon="5.77061">
        <ele>1268.12</ele>
        <time>2015-03-07T16:19:59Z</time>
      </trkpt>
      <trkpt lat="45.33194" lon="5.77068">
        <ele>1268.12</ele>
        <time>2015-03-07T16:20:13Z</time>
      </trkpt>
      <trkpt lat="45.33195" lon="5.77074">
        <ele>1268.12</ele>
        <time>2015-03-07T16:20:27Z</time>
      </trkpt>
      <trkpt lat="45.33198" lon="5.77081">
        <ele>1268.6</ele>
        <time>2015-03-07T16:20:36Z</time>
      </trkpt>
      <trkpt lat="45.332" lon="5.77085">
        <ele>1268.6</ele>
        <time>2015-03-07T16:20:40Z</time>
      </trkpt>
      <trkpt lat="45.33202" lon="5.7709">
        <ele>1267.16</ele>
        <time>2015-03-07T16:20:45Z</time>
      </trkpt>
      <trkpt lat="45.33202" lon="5.77091">
        <ele>1267.16</ele>
        <time>2015-03-07T16:20:56Z</time>
      </trkpt>
      <trkpt lat="45.33205" lon="5.77093">
        <ele>1267.16</ele>
        <time>2015-03-07T16:21:08Z</time>
      </trkpt>
      <trkpt lat="45.33208" lon="5.77091">
        <ele>1266.19</ele>
        <time>2015-03-07T16:21:18Z</time>
      </trkpt>
      <trkpt lat="45.33206" lon="5.77091">
        <ele>1265.23</ele>
        <time>2015-03-07T16:21:29Z</time>
      </trkpt>
      <trkpt lat="45.33208" lon="5.77091">
        <ele>1264.75</ele>
        <time>2015-03-07T16:21:45Z</time>
      </trkpt>
      <trkpt lat="45.3321" lon="5.77093">
        <ele>1264.75</ele>
        <time>2015-03-07T16:21:53Z</time>
      </trkpt>
      <trkpt lat="45.33213" lon="5.77095">
        <ele>1264.27</ele>
        <time>2015-03-07T16:22:04Z</time>
      </trkpt>
      <trkpt lat="45.33216" lon="5.77099">
        <ele>1264.27</ele>
        <time>2015-03-07T16:22:18Z</time>
      </trkpt>
      <trkpt lat="45.33216" lon="5.77098">
        <ele>1263.79</ele>
        <time>2015-03-07T16:22:37Z</time>
      </trkpt>
      <trkpt lat="45.33218" lon="5.77105">
        <ele>1263.79</ele>
        <time>2015-03-07T16:22:53Z</time>
      </trkpt>
      <trkpt lat="45.33223" lon="5.7711">
        <ele>1262.83</ele>
        <time>2015-03-07T16:23:10Z</time>
      </trkpt>
      <trkpt lat="45.33225" lon="5.77112">
        <ele>1262.35</ele>
        <time>2015-03-07T16:23:20Z</time>
      </trkpt>
      <trkpt lat="45.33227" lon="5.77122">
        <ele>1262.35</ele>
        <time>2015-03-07T16:23:33Z</time>
      </trkpt>
      <trkpt lat="45.33231" lon="5.77133">
        <ele>1263.31</ele>
        <time>2015-03-07T16:23:44Z</time>
      </trkpt>
      <trkpt lat="45.3323" lon="5.77142">
        <ele>1265.23</ele>
        <time>2015-03-07T16:23:58Z</time>
      </trkpt>
      <trkpt lat="45.33226" lon="5.7714">
        <ele>1266.67</ele>
        <time>2015-03-07T16:24:11Z</time>
      </trkpt>
      <trkpt lat="45.33224" lon="5.77141">
        <ele>1267.64</ele>
        <time>2015-03-07T16:24:23Z</time>
      </trkpt>
      <trkpt lat="45.33225" lon="5.77147">
        <ele>1268.6</ele>
        <time>2015-03-07T16:24:36Z</time>
      </trkpt>
      <trkpt lat="45.33219" lon="5.77148">
        <ele>1270.04</ele>
        <time>2015-03-07T16:24:48Z</time>
      </trkpt>
      <trkpt lat="45.33206" lon="5.77138">
        <ele>1272.92</ele>
        <time>2015-03-07T16:25:07Z</time>
      </trkpt>
      <trkpt lat="45.33208" lon="5.77139">
        <ele>1274.85</ele>
        <time>2015-03-07T16:25:22Z</time>
      </trkpt>
      <trkpt lat="45.332" lon="5.77129">
        <ele>1277.25</ele>
        <time>2015-03-07T16:25:36Z</time>
      </trkpt>
      <trkpt lat="45.33197" lon="5.7713">
        <ele>1279.17</ele>
        <time>2015-03-07T16:25:52Z</time>
      </trkpt>
      <trkpt lat="45.33193" lon="5.77137">
        <ele>1281.09</ele>
        <time>2015-03-07T16:26:05Z</time>
      </trkpt>
      <trkpt lat="45.33192" lon="5.77147">
        <ele>1283.02</ele>
        <time>2015-03-07T16:26:20Z</time>
      </trkpt>
      <trkpt lat="45.33185" lon="5.77152">
        <ele>1284.46</ele>
        <time>2015-03-07T16:26:31Z</time>
      </trkpt>
      <trkpt lat="45.33179" lon="5.77158">
        <ele>1286.86</ele>
        <time>2015-03-07T16:26:46Z</time>
      </trkpt>
      <trkpt lat="45.33174" lon="5.77164">
        <ele>1288.3</ele>
        <time>2015-03-07T16:26:59Z</time>
      </trkpt>
      <trkpt lat="45.33166" lon="5.77145">
        <ele>1289.75</ele>
        <time>2015-03-07T16:27:13Z</time>
      </trkpt>
      <trkpt lat="45.33163" lon="5.77131">
        <ele>1291.67</ele>
        <time>2015-03-07T16:27:26Z</time>
      </trkpt>
      <trkpt lat="45.33166" lon="5.77136">
        <ele>1293.11</ele>
        <time>2015-03-07T16:27:37Z</time>
      </trkpt>
      <trkpt lat="45.33167" lon="5.77141">
        <ele>1295.51</ele>
        <time>2015-03-07T16:27:50Z</time>
      </trkpt>
      <trkpt lat="45.33165" lon="5.77141">
        <ele>1296.96</ele>
        <time>2015-03-07T16:28:02Z</time>
      </trkpt>
      <trkpt lat="45.33161" lon="5.77138">
        <ele>1298.88</ele>
        <time>2015-03-07T16:28:16Z</time>
      </trkpt>
      <trkpt lat="45.33161" lon="5.77135">
        <ele>1300.8</ele>
        <time>2015-03-07T16:28:28Z</time>
      </trkpt>
      <trkpt lat="45.33164" lon="5.77134">
        <ele>1302.24</ele>
        <time>2015-03-07T16:28:40Z</time>
      </trkpt>
      <trkpt lat="45.33163" lon="5.77133">
        <ele>1304.17</ele>
        <time>2015-03-07T16:28:55Z</time>
      </trkpt>
      <trkpt lat="45.3316" lon="5.77134">
        <ele>1306.09</ele>
        <time>2015-03-07T16:29:08Z</time>
      </trkpt>
      <trkpt lat="45.33154" lon="5.77142">
        <ele>1307.53</ele>
        <time>2015-03-07T16:29:21Z</time>
      </trkpt>
      <trkpt lat="45.3315" lon="5.77147">
        <ele>1309.45</ele>
        <time>2015-03-07T16:29:33Z</time>
      </trkpt>
      <trkpt lat="45.3314" lon="5.77148">
        <ele>1311.38</ele>
        <time>2015-03-07T16:29:45Z</time>
      </trkpt>
      <trkpt lat="45.33136" lon="5.77145">
        <ele>1312.34</ele>
        <time>2015-03-07T16:29:54Z</time>
      </trkpt>
      <trkpt lat="45.33128" lon="5.77139">
        <ele>1314.26</ele>
        <time>2015-03-07T16:30:06Z</time>
      </trkpt>
      <trkpt lat="45.33128" lon="5.7712">
        <ele>1315.7</ele>
        <time>2015-03-07T16:30:22Z</time>
      </trkpt>
      <trkpt lat="45.33128" lon="5.77109">
        <ele>1316.66</ele>
        <time>2015-03-07T16:30:39Z</time>
      </trkpt>
      <trkpt lat="45.3313" lon="5.77106">
        <ele>1317.62</ele>
        <time>2015-03-07T16:30:51Z</time>
      </trkpt>
      <trkpt lat="45.33134" lon="5.77093">
        <ele>1320.03</ele>
        <time>2015-03-07T16:31:06Z</time>
      </trkpt>
      <trkpt lat="45.33136" lon="5.77093">
        <ele>1321.47</ele>
        <time>2015-03-07T16:31:16Z</time>
      </trkpt>
      <trkpt lat="45.33137" lon="5.77099">
        <ele>1322.43</ele>
        <time>2015-03-07T16:31:29Z</time>
      </trkpt>
      <trkpt lat="45.33132" lon="5.77097">
        <ele>1324.35</ele>
        <time>2015-03-07T16:31:42Z</time>
      </trkpt>
      <trkpt lat="45.33127" lon="5.77096">
        <ele>1326.28</ele>
        <time>2015-03-07T16:31:56Z</time>
      </trkpt>
      <trkpt lat="45.3313" lon="5.77096">
        <ele>1328.2</ele>
        <time>2015-03-07T16:32:11Z</time>
      </trkpt>
      <trkpt lat="45.33131" lon="5.77099">
        <ele>1330.12</ele>
        <time>2015-03-07T16:32:23Z</time>
      </trkpt>
      <trkpt lat="45.33124" lon="5.77102">
        <ele>1332.52</ele>
        <time>2015-03-07T16:32:37Z</time>
      </trkpt>
      <trkpt lat="45.33112" lon="5.77101">
        <ele>1334.93</ele>
        <time>2015-03-07T16:32:52Z</time>
      </trkpt>
      <trkpt lat="45.33101" lon="5.77095">
        <ele>1336.85</ele>
        <time>2015-03-07T16:33:06Z</time>
      </trkpt>
      <trkpt lat="45.331" lon="5.77092">
        <ele>1338.77</ele>
        <time>2015-03-07T16:33:20Z</time>
      </trkpt>
      <trkpt lat="45.331" lon="5.77092">
        <ele>1339.73</ele>
        <time>2015-03-07T16:33:26Z</time>
      </trkpt>
      <trkpt lat="45.331" lon="5.77092">
        <ele>1341.18</ele>
        <time>2015-03-07T16:33:36Z</time>
      </trkpt>
      <trkpt lat="45.33098" lon="5.77089">
        <ele>1343.1</ele>
        <time>2015-03-07T16:33:51Z</time>
      </trkpt>
      <trkpt lat="45.33093" lon="5.77086">
        <ele>1345.5</ele>
        <time>2015-03-07T16:34:09Z</time>
      </trkpt>
      <trkpt lat="45.33084" lon="5.77081">
        <ele>1348.39</ele>
        <time>2015-03-07T16:34:23Z</time>
      </trkpt>
      <trkpt lat="45.33082" lon="5.77073">
        <ele>1349.83</ele>
        <time>2015-03-07T16:34:37Z</time>
      </trkpt>
      <trkpt lat="45.33083" lon="5.77065">
        <ele>1350.79</ele>
        <time>2015-03-07T16:34:51Z</time>
      </trkpt>
      <trkpt lat="45.33082" lon="5.77061">
        <ele>1352.23</ele>
        <time>2015-03-07T16:35:02Z</time>
      </trkpt>
      <trkpt lat="45.33082" lon="5.77053">
        <ele>1354.63</ele>
        <time>2015-03-07T16:35:18Z</time>
      </trkpt>
      <trkpt lat="45.33084" lon="5.77053">
        <ele>1355.6</ele>
        <time>2015-03-07T16:35:29Z</time>
      </trkpt>
      <trkpt lat="45.33082" lon="5.77054">
        <ele>1357.52</ele>
        <time>2015-03-07T16:35:42Z</time>
      </trkpt>
      <trkpt lat="45.33075" lon="5.77052">
        <ele>1359.44</ele>
        <time>2015-03-07T16:35:57Z</time>
      </trkpt>
      <trkpt lat="45.33079" lon="5.7705">
        <ele>1359.92</ele>
        <time>2015-03-07T16:36:09Z</time>
      </trkpt>
      <trkpt lat="45.33082" lon="5.77042">
        <ele>1359.92</ele>
        <time>2015-03-07T16:36:31Z</time>
      </trkpt>
      <trkpt lat="45.33082" lon="5.77036">
        <ele>1359.92</ele>
        <time>2015-03-07T16:37:10Z</time>
      </trkpt>
      <trkpt lat="45.33078" lon="5.77039">
        <ele>1359.92</ele>
        <time>2015-03-07T16:37:39Z</time>
      </trkpt>
      <trkpt lat="45.33078" lon="5.77041">
        <ele>1360.4</ele>
        <time>2015-03-07T16:37:49Z</time>
      </trkpt>
      <trkpt lat="45.3308" lon="5.77043">
        <ele>1360.4</ele>
        <time>2015-03-07T16:38:11Z</time>
      </trkpt>
      <trkpt lat="45.33079" lon="5.77046">
        <ele>1361.36</ele>
        <time>2015-03-07T16:38:25Z</time>
      </trkpt>
      <trkpt lat="45.33076" lon="5.77044">
        <ele>1362.33</ele>
        <time>2015-03-07T16:38:40Z</time>
      </trkpt>
      <trkpt lat="45.33074" lon="5.77046">
        <ele>1364.25</ele>
        <time>2015-03-07T16:38:53Z</time>
      </trkpt>
      <trkpt lat="45.33066" lon="5.77045">
        <ele>1366.17</ele>
        <time>2015-03-07T16:39:05Z</time>
      </trkpt>
      <trkpt lat="45.33067" lon="5.77044">
        <ele>1368.09</ele>
        <time>2015-03-07T16:39:20Z</time>
      </trkpt>
      <trkpt lat="45.33068" lon="5.77046">
        <ele>1370.02</ele>
        <time>2015-03-07T16:39:34Z</time>
      </trkpt>
      <trkpt lat="45.33065" lon="5.77039">
        <ele>1370.98</ele>
        <time>2015-03-07T16:39:47Z</time>
      </trkpt>
      <trkpt lat="45.33065" lon="5.77031">
        <ele>1372.9</ele>
        <time>2015-03-07T16:40:07Z</time>
      </trkpt>
      <trkpt lat="45.33065" lon="5.77026">
        <ele>1374.34</ele>
        <time>2015-03-07T16:40:22Z</time>
      </trkpt>
      <trkpt lat="45.33067" lon="5.77025">
        <ele>1375.78</ele>
        <time>2015-03-07T16:40:35Z</time>
      </trkpt>
      <trkpt lat="45.33069" lon="5.77028">
        <ele>1377.23</ele>
        <time>2015-03-07T16:40:48Z</time>
      </trkpt>
      <trkpt lat="45.33069" lon="5.77027">
        <ele>1378.67</ele>
        <time>2015-03-07T16:41:01Z</time>
      </trkpt>
      <trkpt lat="45.33065" lon="5.77022">
        <ele>1380.59</ele>
        <time>2015-03-07T16:41:15Z</time>
      </trkpt>
      <trkpt lat="45.33064" lon="5.77017">
        <ele>1382.51</ele>
        <time>2015-03-07T16:41:30Z</time>
      </trkpt>
      <trkpt lat="45.33067" lon="5.77015">
        <ele>1383.47</ele>
        <time>2015-03-07T16:41:44Z</time>
      </trkpt>
      <trkpt lat="45.33067" lon="5.77002">
        <ele>1386.36</ele>
        <time>2015-03-07T16:42:02Z</time>
      </trkpt>
      <trkpt lat="45.33068" lon="5.77">
        <ele>1389.24</ele>
        <time>2015-03-07T16:42:16Z</time>
      </trkpt>
      <trkpt lat="45.33068" lon="5.77001">
        <ele>1391.65</ele>
        <time>2015-03-07T16:42:32Z</time>
      </trkpt>
      <trkpt lat="45.33064" lon="5.76998">
        <ele>1393.09</ele>
        <time>2015-03-07T16:42:44Z</time>
      </trkpt>
      <trkpt lat="45.33057" lon="5.76994">
        <ele>1395.01</ele>
        <time>2015-03-07T16:42:58Z</time>
      </trkpt>
      <trkpt lat="45.33049" lon="5.76989">
        <ele>1397.41</ele>
        <time>2015-03-07T16:43:15Z</time>
      </trkpt>
      <trkpt lat="45.33042" lon="5.76984">
        <ele>1399.82</ele>
        <time>2015-03-07T16:43:28Z</time>
      </trkpt>
      <trkpt lat="45.33046" lon="5.76984">
        <ele>1401.26</ele>
        <time>2015-03-07T16:43:42Z</time>
      </trkpt>
      <trkpt lat="45.33049" lon="5.76984">
        <ele>1403.18</ele>
        <time>2015-03-07T16:43:54Z</time>
      </trkpt>
      <trkpt lat="45.33049" lon="5.76983">
        <ele>1403.66</ele>
        <time>2015-03-07T16:44:13Z</time>
      </trkpt>
      <trkpt lat="45.33048" lon="5.76983">
        <ele>1403.66</ele>
        <time>2015-03-07T16:44:15Z</time>
      </trkpt>
      <trkpt lat="45.33048" lon="5.76985">
        <ele>1402.22</ele>
        <time>2015-03-07T16:44:17Z</time>
      </trkpt>
      <trkpt lat="45.33041" lon="5.76993">
        <ele>1403.66</ele>
        <time>2015-03-07T16:44:31Z</time>
      </trkpt>
      <trkpt lat="45.33031" lon="5.76991">
        <ele>1406.07</ele>
        <time>2015-03-07T16:44:46Z</time>
      </trkpt>
      <trkpt lat="45.33028" lon="5.76992">
        <ele>1407.51</ele>
        <time>2015-03-07T16:44:58Z</time>
      </trkpt>
      <trkpt lat="45.33026" lon="5.76989">
        <ele>1408.95</ele>
        <time>2015-03-07T16:45:12Z</time>
      </trkpt>
      <trkpt lat="45.33026" lon="5.76982">
        <ele>1411.35</ele>
        <time>2015-03-07T16:45:27Z</time>
      </trkpt>
      <trkpt lat="45.33028" lon="5.76983">
        <ele>1412.31</ele>
        <time>2015-03-07T16:45:42Z</time>
      </trkpt>
      <trkpt lat="45.33032" lon="5.76981">
        <ele>1413.76</ele>
        <time>2015-03-07T16:45:56Z</time>
      </trkpt>
      <trkpt lat="45.33029" lon="5.76978">
        <ele>1415.2</ele>
        <time>2015-03-07T16:46:10Z</time>
      </trkpt>
      <trkpt lat="45.33021" lon="5.76974">
        <ele>1417.12</ele>
        <time>2015-03-07T16:46:24Z</time>
      </trkpt>
      <trkpt lat="45.3302" lon="5.76975">
        <ele>1419.04</ele>
        <time>2015-03-07T16:46:38Z</time>
      </trkpt>
      <trkpt lat="45.33017" lon="5.76973">
        <ele>1420.49</ele>
        <time>2015-03-07T16:46:51Z</time>
      </trkpt>
      <trkpt lat="45.33014" lon="5.76972">
        <ele>1422.41</ele>
        <time>2015-03-07T16:47:04Z</time>
      </trkpt>
      <trkpt lat="45.33011" lon="5.76971">
        <ele>1424.81</ele>
        <time>2015-03-07T16:47:20Z</time>
      </trkpt>
      <trkpt lat="45.33005" lon="5.76967">
        <ele>1425.29</ele>
        <time>2015-03-07T16:47:35Z</time>
      </trkpt>
      <trkpt lat="45.33005" lon="5.76958">
        <ele>1426.73</ele>
        <time>2015-03-07T16:47:47Z</time>
      </trkpt>
      <trkpt lat="45.33004" lon="5.76956">
        <ele>1429.14</ele>
        <time>2015-03-07T16:48:02Z</time>
      </trkpt>
      <trkpt lat="45.33005" lon="5.76953">
        <ele>1430.1</ele>
        <time>2015-03-07T16:48:11Z</time>
      </trkpt>
      <trkpt lat="45.33004" lon="5.76953">
        <ele>1432.5</ele>
        <time>2015-03-07T16:48:26Z</time>
      </trkpt>
      <trkpt lat="45.33002" lon="5.76951">
        <ele>1432.5</ele>
        <time>2015-03-07T16:48:51Z</time>
      </trkpt>
      <trkpt lat="45.33001" lon="5.76951">
        <ele>1432.02</ele>
        <time>2015-03-07T16:49:09Z</time>
      </trkpt>
      <trkpt lat="45.33" lon="5.76949">
        <ele>1432.02</ele>
        <time>2015-03-07T16:49:19Z</time>
      </trkpt>
      <trkpt lat="45.32999" lon="5.76953">
        <ele>1431.54</ele>
        <time>2015-03-07T16:49:39Z</time>
      </trkpt>
      <trkpt lat="45.32997" lon="5.7696">
        <ele>1431.06</ele>
        <time>2015-03-07T16:49:53Z</time>
      </trkpt>
      <trkpt lat="45.33003" lon="5.76953">
        <ele>1431.06</ele>
        <time>2015-03-07T16:50:17Z</time>
      </trkpt>
      <trkpt lat="45.32998" lon="5.76955">
        <ele>1431.06</ele>
        <time>2015-03-07T16:50:35Z</time>
      </trkpt>
      <trkpt lat="45.32989" lon="5.76959">
        <ele>1431.06</ele>
        <time>2015-03-07T16:50:54Z</time>
      </trkpt>
      <trkpt lat="45.32988" lon="5.76961">
        <ele>1430.58</ele>
        <time>2015-03-07T16:51:08Z</time>
      </trkpt>
      <trkpt lat="45.32987" lon="5.76963">
        <ele>1429.62</ele>
        <time>2015-03-07T16:51:11Z</time>
      </trkpt>
      <trkpt lat="45.32984" lon="5.76973">
        <ele>1429.14</ele>
        <time>2015-03-07T16:51:23Z</time>
      </trkpt>
      <trkpt lat="45.3298" lon="5.76976">
        <ele>1429.14</ele>
        <time>2015-03-07T16:51:33Z</time>
      </trkpt>
      <trkpt lat="45.32978" lon="5.76977">
        <ele>1429.14</ele>
        <time>2015-03-07T16:51:43Z</time>
      </trkpt>
      <trkpt lat="45.32974" lon="5.76981">
        <ele>1430.1</ele>
        <time>2015-03-07T16:51:57Z</time>
      </trkpt>
      <trkpt lat="45.32972" lon="5.76985">
        <ele>1430.1</ele>
        <time>2015-03-07T16:52:08Z</time>
      </trkpt>
      <trkpt lat="45.3297" lon="5.76987">
        <ele>1430.1</ele>
        <time>2015-03-07T16:52:18Z</time>
      </trkpt>
      <trkpt lat="45.32967" lon="5.76987">
        <ele>1430.1</ele>
        <time>2015-03-07T16:52:36Z</time>
      </trkpt>
      <trkpt lat="45.32965" lon="5.76993">
        <ele>1430.1</ele>
        <time>2015-03-07T16:52:50Z</time>
      </trkpt>
      <trkpt lat="45.32966" lon="5.76994">
        <ele>1430.1</ele>
        <time>2015-03-07T16:53:04Z</time>
      </trkpt>
      <trkpt lat="45.32965" lon="5.76996">
        <ele>1430.1</ele>
        <time>2015-03-07T16:53:22Z</time>
      </trkpt>
      <trkpt lat="45.32965" lon="5.76993">
        <ele>1430.1</ele>
        <time>2015-03-07T16:53:44Z</time>
      </trkpt>
      <trkpt lat="45.32967" lon="5.76992">
        <ele>1428.66</ele>
        <time>2015-03-07T16:53:59Z</time>
      </trkpt>
      <trkpt lat="45.32968" lon="5.76993">
        <ele>1427.21</ele>
        <time>2015-03-07T16:54:14Z</time>
      </trkpt>
      <trkpt lat="45.32968" lon="5.76993">
        <ele>1426.25</ele>
        <time>2015-03-07T16:54:30Z</time>
      </trkpt>
      <trkpt lat="45.3297" lon="5.76995">
        <ele>1425.77</ele>
        <time>2015-03-07T16:54:41Z</time>
      </trkpt>
      <trkpt lat="45.32971" lon="5.76998">
        <ele>1424.33</ele>
        <time>2015-03-07T16:54:53Z</time>
      </trkpt>
      <trkpt lat="45.32971" lon="5.77001">
        <ele>1423.85</ele>
        <time>2015-03-07T16:55:05Z</time>
      </trkpt>
      <trkpt lat="45.3297" lon="5.77003">
        <ele>1423.37</ele>
        <time>2015-03-07T16:55:25Z</time>
      </trkpt>
      <trkpt lat="45.32968" lon="5.77002">
        <ele>1422.89</ele>
        <time>2015-03-07T16:55:42Z</time>
      </trkpt>
      <trkpt lat="45.32966" lon="5.77003">
        <ele>1422.89</ele>
        <time>2015-03-07T16:56:13Z</time>
      </trkpt>
      <trkpt lat="45.32964" lon="5.77001">
        <ele>1422.41</ele>
        <time>2015-03-07T16:56:38Z</time>
      </trkpt>
      <trkpt lat="45.32965" lon="5.77001">
        <ele>1422.41</ele>
        <time>2015-03-07T16:57:04Z</time>
      </trkpt>
      <trkpt lat="45.32967" lon="5.76998">
        <ele>1421.93</ele>
        <time>2015-03-07T16:57:31Z</time>
      </trkpt>
      <trkpt lat="45.32963" lon="5.77003">
        <ele>1421.93</ele>
        <time>2015-03-07T16:58:14Z</time>
      </trkpt>
      <trkpt lat="45.32967" lon="5.77002">
        <ele>1422.89</ele>
        <time>2015-03-07T16:58:26Z</time>
      </trkpt>
      <trkpt lat="45.32968" lon="5.77004">
        <ele>1422.89</ele>
        <time>2015-03-07T16:58:41Z</time>
      </trkpt>
      <trkpt lat="45.32969" lon="5.77007">
        <ele>1421.93</ele>
        <time>2015-03-07T16:58:48Z</time>
      </trkpt>
      <trkpt lat="45.3297" lon="5.77007">
        <ele>1421.93</ele>
        <time>2015-03-07T16:58:54Z</time>
      </trkpt>
      <trkpt lat="45.32972" lon="5.77008">
        <ele>1421.45</ele>
        <time>2015-03-07T16:58:59Z</time>
      </trkpt>
      <trkpt lat="45.32976" lon="5.77011">
        <ele>1421.45</ele>
        <time>2015-03-07T16:59:12Z</time>
      </trkpt>
      <trkpt lat="45.32975" lon="5.77012">
        <ele>1421.45</ele>
        <time>2015-03-07T16:59:13Z</time>
      </trkpt>
      <trkpt lat="45.32975" lon="5.7702">
        <ele>1423.85</ele>
        <time>2015-03-07T16:59:27Z</time>
      </trkpt>
      <trkpt lat="45.32971" lon="5.77025">
        <ele>1425.77</ele>
        <time>2015-03-07T16:59:44Z</time>
      </trkpt>
      <trkpt lat="45.3297" lon="5.77027">
        <ele>1427.21</ele>
        <time>2015-03-07T16:59:56Z</time>
      </trkpt>
      <trkpt lat="45.3297" lon="5.77024">
        <ele>1430.1</ele>
        <time>2015-03-07T17:00:12Z</time>
      </trkpt>
      <trkpt lat="45.32971" lon="5.77025">
        <ele>1430.58</ele>
        <time>2015-03-07T17:00:22Z</time>
      </trkpt>
      <trkpt lat="45.32963" lon="5.77029">
        <ele>1433.94</ele>
        <time>2015-03-07T17:00:35Z</time>
      </trkpt>
      <trkpt lat="45.3296" lon="5.77034">
        <ele>1434.91</ele>
        <time>2015-03-07T17:00:46Z</time>
      </trkpt>
      <trkpt lat="45.32952" lon="5.77038">
        <ele>1438.27</ele>
        <time>2015-03-07T17:01:01Z</time>
      </trkpt>
      <trkpt lat="45.3294" lon="5.77035">
        <ele>1440.67</ele>
        <time>2015-03-07T17:01:14Z</time>
      </trkpt>
      <trkpt lat="45.32933" lon="5.77025">
        <ele>1444.04</ele>
        <time>2015-03-07T17:01:30Z</time>
      </trkpt>
      <trkpt lat="45.32935" lon="5.7702">
        <ele>1445</ele>
        <time>2015-03-07T17:01:40Z</time>
      </trkpt>
      <trkpt lat="45.32937" lon="5.77022">
        <ele>1446.92</ele>
        <time>2015-03-07T17:01:50Z</time>
      </trkpt>
      <trkpt lat="45.32933" lon="5.77023">
        <ele>1448.84</ele>
        <time>2015-03-07T17:02:02Z</time>
      </trkpt>
      <trkpt lat="45.32929" lon="5.77023">
        <ele>1449.81</ele>
        <time>2015-03-07T17:02:14Z</time>
      </trkpt>
      <trkpt lat="45.32923" lon="5.77023">
        <ele>1451.25</ele>
        <time>2015-03-07T17:02:30Z</time>
      </trkpt>
      <trkpt lat="45.3292" lon="5.77023">
        <ele>1451.73</ele>
        <time>2015-03-07T17:02:55Z</time>
      </trkpt>
      <trkpt lat="45.32918" lon="5.77024">
        <ele>1453.17</ele>
        <time>2015-03-07T17:03:10Z</time>
      </trkpt>
      <trkpt lat="45.3291" lon="5.77021">
        <ele>1454.13</ele>
        <time>2015-03-07T17:03:25Z</time>
      </trkpt>
      <trkpt lat="45.32906" lon="5.77026">
        <ele>1455.09</ele>
        <time>2015-03-07T17:03:41Z</time>
      </trkpt>
      <trkpt lat="45.32901" lon="5.77028">
        <ele>1455.09</ele>
        <time>2015-03-07T17:03:53Z</time>
      </trkpt>
      <trkpt lat="45.32899" lon="5.77028">
        <ele>1453.65</ele>
        <time>2015-03-07T17:04:03Z</time>
      </trkpt>
      <trkpt lat="45.32894" lon="5.77034">
        <ele>1452.21</ele>
        <time>2015-03-07T17:04:07Z</time>
      </trkpt>
      <trkpt lat="45.32884" lon="5.7704">
        <ele>1451.25</ele>
        <time>2015-03-07T17:04:19Z</time>
      </trkpt>
      <trkpt lat="45.32877" lon="5.77041">
        <ele>1450.77</ele>
        <time>2015-03-07T17:04:28Z</time>
      </trkpt>
      <trkpt lat="45.32861" lon="5.77044">
        <ele>1450.29</ele>
        <time>2015-03-07T17:04:44Z</time>
      </trkpt>
      <trkpt lat="45.32859" lon="5.77044">
        <ele>1451.73</ele>
        <time>2015-03-07T17:04:48Z</time>
      </trkpt>
      <trkpt lat="45.32851" lon="5.77037">
        <ele>1454.13</ele>
        <time>2015-03-07T17:05:02Z</time>
      </trkpt>
      <trkpt lat="45.32844" lon="5.77033">
        <ele>1456.53</ele>
        <time>2015-03-07T17:05:15Z</time>
      </trkpt>
      <trkpt lat="45.32829" lon="5.77023">
        <ele>1459.42</ele>
        <time>2015-03-07T17:05:28Z</time>
      </trkpt>
      <trkpt lat="45.32819" lon="5.77011">
        <ele>1462.78</ele>
        <time>2015-03-07T17:05:45Z</time>
      </trkpt>
      <trkpt lat="45.32816" lon="5.77002">
        <ele>1465.19</ele>
        <time>2015-03-07T17:06:00Z</time>
      </trkpt>
      <trkpt lat="45.32814" lon="5.76992">
        <ele>1468.07</ele>
        <time>2015-03-07T17:06:15Z</time>
      </trkpt>
      <trkpt lat="45.32811" lon="5.76984">
        <ele>1470.47</ele>
        <time>2015-03-07T17:06:30Z</time>
      </trkpt>
      <trkpt lat="45.32809" lon="5.76978">
        <ele>1471.92</ele>
        <time>2015-03-07T17:06:45Z</time>
      </trkpt>
      <trkpt lat="45.32808" lon="5.76971">
        <ele>1474.8</ele>
        <time>2015-03-07T17:06:58Z</time>
      </trkpt>
      <trkpt lat="45.32805" lon="5.76959">
        <ele>1477.68</ele>
        <time>2015-03-07T17:07:14Z</time>
      </trkpt>
      <trkpt lat="45.32801" lon="5.76953">
        <ele>1480.57</ele>
        <time>2015-03-07T17:07:27Z</time>
      </trkpt>
      <trkpt lat="45.32797" lon="5.76945">
        <ele>1482.97</ele>
        <time>2015-03-07T17:07:41Z</time>
      </trkpt>
      <trkpt lat="45.32791" lon="5.76937">
        <ele>1485.37</ele>
        <time>2015-03-07T17:07:55Z</time>
      </trkpt>
      <trkpt lat="45.32782" lon="5.76932">
        <ele>1487.3</ele>
        <time>2015-03-07T17:08:09Z</time>
      </trkpt>
      <trkpt lat="45.32775" lon="5.76931">
        <ele>1489.22</ele>
        <time>2015-03-07T17:08:23Z</time>
      </trkpt>
      <trkpt lat="45.32769" lon="5.76931">
        <ele>1491.14</ele>
        <time>2015-03-07T17:08:35Z</time>
      </trkpt>
      <trkpt lat="45.32758" lon="5.76927">
        <ele>1492.58</ele>
        <time>2015-03-07T17:08:47Z</time>
      </trkpt>
      <trkpt lat="45.32756" lon="5.76923">
        <ele>1494.03</ele>
        <time>2015-03-07T17:09:00Z</time>
      </trkpt>
      <trkpt lat="45.3275" lon="5.76921">
        <ele>1494.51</ele>
        <time>2015-03-07T17:09:15Z</time>
      </trkpt>
      <trkpt lat="45.32742" lon="5.7692">
        <ele>1494.99</ele>
        <time>2015-03-07T17:09:29Z</time>
      </trkpt>
      <trkpt lat="45.3274" lon="5.76922">
        <ele>1494.99</ele>
        <time>2015-03-07T17:09:42Z</time>
      </trkpt>
      <trkpt lat="45.32738" lon="5.76925">
        <ele>1494.99</ele>
        <time>2015-03-07T17:09:46Z</time>
      </trkpt>
      <trkpt lat="45.32737" lon="5.7693">
        <ele>1494.99</ele>
        <time>2015-03-07T17:09:50Z</time>
      </trkpt>
      <trkpt lat="45.32725" lon="5.76942">
        <ele>1494.99</ele>
        <time>2015-03-07T17:10:03Z</time>
      </trkpt>
      <trkpt lat="45.32711" lon="5.76952">
        <ele>1493.06</ele>
        <time>2015-03-07T17:10:15Z</time>
      </trkpt>
      <trkpt lat="45.32709" lon="5.76954">
        <ele>1492.58</ele>
        <time>2015-03-07T17:10:18Z</time>
      </trkpt>
      <trkpt lat="45.32697" lon="5.76968">
        <ele>1489.7</ele>
        <time>2015-03-07T17:10:25Z</time>
      </trkpt>
      <trkpt lat="45.32696" lon="5.76972">
        <ele>1489.7</ele>
        <time>2015-03-07T17:10:28Z</time>
      </trkpt>
      <trkpt lat="45.32697" lon="5.76981">
        <ele>1489.22</ele>
        <time>2015-03-07T17:10:36Z</time>
      </trkpt>
      <trkpt lat="45.32708" lon="5.76993">
        <ele>1484.41</ele>
        <time>2015-03-07T17:10:41Z</time>
      </trkpt>
      <trkpt lat="45.3271" lon="5.76996">
        <ele>1484.41</ele>
        <time>2015-03-07T17:10:42Z</time>
      </trkpt>
      <trkpt lat="45.32711" lon="5.77002">
        <ele>1484.41</ele>
        <time>2015-03-07T17:10:44Z</time>
      </trkpt>
      <trkpt lat="45.32716" lon="5.7701">
        <ele>1482.97</ele>
        <time>2015-03-07T17:10:48Z</time>
      </trkpt>
      <trkpt lat="45.32719" lon="5.77019">
        <ele>1481.05</ele>
        <time>2015-03-07T17:10:51Z</time>
      </trkpt>
      <trkpt lat="45.32725" lon="5.77028">
        <ele>1481.53</ele>
        <time>2015-03-07T17:10:59Z</time>
      </trkpt>
      <trkpt lat="45.32728" lon="5.77043">
        <ele>1481.05</ele>
        <time>2015-03-07T17:11:06Z</time>
      </trkpt>
      <trkpt lat="45.32727" lon="5.77048">
        <ele>1482.01</ele>
        <time>2015-03-07T17:11:12Z</time>
      </trkpt>
      <trkpt lat="45.32729" lon="5.7706">
        <ele>1482.97</ele>
        <time>2015-03-07T17:11:24Z</time>
      </trkpt>
      <trkpt lat="45.32733" lon="5.7707">
        <ele>1484.89</ele>
        <time>2015-03-07T17:11:38Z</time>
      </trkpt>
      <trkpt lat="45.32738" lon="5.77082">
        <ele>1487.3</ele>
        <time>2015-03-07T17:11:55Z</time>
      </trkpt>
      <trkpt lat="45.32741" lon="5.7709">
        <ele>1488.74</ele>
        <time>2015-03-07T17:12:08Z</time>
      </trkpt>
      <trkpt lat="45.32748" lon="5.77103">
        <ele>1490.66</ele>
        <time>2015-03-07T17:12:22Z</time>
      </trkpt>
      <trkpt lat="45.32753" lon="5.7711">
        <ele>1491.62</ele>
        <time>2015-03-07T17:12:35Z</time>
      </trkpt>
      <trkpt lat="45.32755" lon="5.77119">
        <ele>1492.1</ele>
        <time>2015-03-07T17:12:48Z</time>
      </trkpt>
      <trkpt lat="45.32755" lon="5.77127">
        <ele>1494.03</ele>
        <time>2015-03-07T17:12:59Z</time>
      </trkpt>
      <trkpt lat="45.32753" lon="5.77128">
        <ele>1495.47</ele>
        <time>2015-03-07T17:13:11Z</time>
      </trkpt>
      <trkpt lat="45.32752" lon="5.7713">
        <ele>1495.47</ele>
        <time>2015-03-07T17:13:25Z</time>
      </trkpt>
      <trkpt lat="45.32753" lon="5.77133">
        <ele>1495.95</ele>
        <time>2015-03-07T17:13:30Z</time>
      </trkpt>
      <trkpt lat="45.32754" lon="5.77139">
        <ele>1496.91</ele>
        <time>2015-03-07T17:13:43Z</time>
      </trkpt>
      <trkpt lat="45.32755" lon="5.77143">
        <ele>1496.91</ele>
        <time>2015-03-07T17:13:55Z</time>
      </trkpt>
      <trkpt lat="45.32756" lon="5.77144">
        <ele>1498.35</ele>
        <time>2015-03-07T17:14:07Z</time>
      </trkpt>
      <trkpt lat="45.32755" lon="5.77144">
        <ele>1498.35</ele>
        <time>2015-03-07T17:14:21Z</time>
      </trkpt>
      <trkpt lat="45.32753" lon="5.77146">
        <ele>1500.27</ele>
        <time>2015-03-07T17:14:32Z</time>
      </trkpt>
      <trkpt lat="45.32753" lon="5.77149">
        <ele>1500.27</ele>
        <time>2015-03-07T17:14:35Z</time>
      </trkpt>
      <trkpt lat="45.32755" lon="5.77158">
        <ele>1501.72</ele>
        <time>2015-03-07T17:14:47Z</time>
      </trkpt>
      <trkpt lat="45.32755" lon="5.77162">
        <ele>1502.68</ele>
        <time>2015-03-07T17:14:59Z</time>
      </trkpt>
      <trkpt lat="45.32755" lon="5.77162">
        <ele>1503.64</ele>
        <time>2015-03-07T17:15:06Z</time>
      </trkpt>
      <trkpt lat="45.32753" lon="5.77156">
        <ele>1504.12</ele>
        <time>2015-03-07T17:15:22Z</time>
      </trkpt>
      <trkpt lat="45.32751" lon="5.77153">
        <ele>1506.04</ele>
        <time>2015-03-07T17:15:36Z</time>
      </trkpt>
      <trkpt lat="45.32747" lon="5.77149">
        <ele>1507</ele>
        <time>2015-03-07T17:15:49Z</time>
      </trkpt>
      <trkpt lat="45.32747" lon="5.77153">
        <ele>1507.97</ele>
        <time>2015-03-07T17:15:59Z</time>
      </trkpt>
      <trkpt lat="45.32745" lon="5.77159">
        <ele>1509.41</ele>
        <time>2015-03-07T17:16:11Z</time>
      </trkpt>
      <trkpt lat="45.32746" lon="5.77163">
        <ele>1510.85</ele>
        <time>2015-03-07T17:16:22Z</time>
      </trkpt>
      <trkpt lat="45.32745" lon="5.77163">
        <ele>1511.33</ele>
        <time>2015-03-07T17:16:33Z</time>
      </trkpt>
      <trkpt lat="45.32745" lon="5.77167">
        <ele>1512.77</ele>
        <time>2015-03-07T17:16:41Z</time>
      </trkpt>
      <trkpt lat="45.32745" lon="5.77172">
        <ele>1514.21</ele>
        <time>2015-03-07T17:16:54Z</time>
      </trkpt>
      <trkpt lat="45.32743" lon="5.77176">
        <ele>1516.62</ele>
        <time>2015-03-07T17:17:05Z</time>
      </trkpt>
      <trkpt lat="45.32745" lon="5.77179">
        <ele>1517.58</ele>
        <time>2015-03-07T17:17:15Z</time>
      </trkpt>
      <trkpt lat="45.32743" lon="5.77179">
        <ele>1519.5</ele>
        <time>2015-03-07T17:17:29Z</time>
      </trkpt>
      <trkpt lat="45.32741" lon="5.77181">
        <ele>1520.94</ele>
        <time>2015-03-07T17:17:39Z</time>
      </trkpt>
      <trkpt lat="45.32738" lon="5.77186">
        <ele>1523.83</ele>
        <time>2015-03-07T17:17:50Z</time>
      </trkpt>
      <trkpt lat="45.32738" lon="5.77191">
        <ele>1526.23</ele>
        <time>2015-03-07T17:18:04Z</time>
      </trkpt>
      <trkpt lat="45.32734" lon="5.77193">
        <ele>1527.19</ele>
        <time>2015-03-07T17:18:19Z</time>
      </trkpt>
      <trkpt lat="45.32725" lon="5.7719">
        <ele>1529.11</ele>
        <time>2015-03-07T17:18:33Z</time>
      </trkpt>
      <trkpt lat="45.32714" lon="5.77187">
        <ele>1532</ele>
        <time>2015-03-07T17:18:50Z</time>
      </trkpt>
      <trkpt lat="45.32706" lon="5.77182">
        <ele>1534.4</ele>
        <time>2015-03-07T17:19:05Z</time>
      </trkpt>
      <trkpt lat="45.32702" lon="5.77178">
        <ele>1536.8</ele>
        <time>2015-03-07T17:19:18Z</time>
      </trkpt>
      <trkpt lat="45.327" lon="5.77173">
        <ele>1538.73</ele>
        <time>2015-03-07T17:19:30Z</time>
      </trkpt>
      <trkpt lat="45.32696" lon="5.77172">
        <ele>1540.17</ele>
        <time>2015-03-07T17:19:45Z</time>
      </trkpt>
      <trkpt lat="45.3269" lon="5.77165">
        <ele>1542.57</ele>
        <time>2015-03-07T17:19:57Z</time>
      </trkpt>
      <trkpt lat="45.32687" lon="5.77161">
        <ele>1543.05</ele>
        <time>2015-03-07T17:20:12Z</time>
      </trkpt>
      <trkpt lat="45.32685" lon="5.77161">
        <ele>1543.53</ele>
        <time>2015-03-07T17:20:24Z</time>
      </trkpt>
      <trkpt lat="45.32683" lon="5.7716">
        <ele>1543.53</ele>
        <time>2015-03-07T17:20:39Z</time>
      </trkpt>
      <trkpt lat="45.32685" lon="5.77158">
        <ele>1544.01</ele>
        <time>2015-03-07T17:20:53Z</time>
      </trkpt>
      <trkpt lat="45.32689" lon="5.77153">
        <ele>1546.42</ele>
        <time>2015-03-07T17:21:09Z</time>
      </trkpt>
      <trkpt lat="45.32692" lon="5.77151">
        <ele>1547.86</ele>
        <time>2015-03-07T17:21:24Z</time>
      </trkpt>
      <trkpt lat="45.32693" lon="5.77146">
        <ele>1550.74</ele>
        <time>2015-03-07T17:21:38Z</time>
      </trkpt>
      <trkpt lat="45.32694" lon="5.77142">
        <ele>1553.15</ele>
        <time>2015-03-07T17:21:52Z</time>
      </trkpt>
      <trkpt lat="45.32691" lon="5.77139">
        <ele>1555.07</ele>
        <time>2015-03-07T17:22:08Z</time>
      </trkpt>
      <trkpt lat="45.3269" lon="5.7713">
        <ele>1558.43</ele>
        <time>2015-03-07T17:22:22Z</time>
      </trkpt>
      <trkpt lat="45.32688" lon="5.77121">
        <ele>1560.36</ele>
        <time>2015-03-07T17:22:37Z</time>
      </trkpt>
      <trkpt lat="45.32687" lon="5.77117">
        <ele>1560.36</ele>
        <time>2015-03-07T17:22:41Z</time>
      </trkpt>
      <trkpt lat="45.32682" lon="5.77109">
        <ele>1560.36</ele>
        <time>2015-03-07T17:22:54Z</time>
      </trkpt>
      <trkpt lat="45.32681" lon="5.77107">
        <ele>1558.92</ele>
        <time>2015-03-07T17:23:11Z</time>
      </trkpt>
      <trkpt lat="45.32681" lon="5.77104">
        <ele>1558.43</ele>
        <time>2015-03-07T17:23:21Z</time>
      </trkpt>
      <trkpt lat="45.3268" lon="5.77103">
        <ele>1557.47</ele>
        <time>2015-03-07T17:23:33Z</time>
      </trkpt>
      <trkpt lat="45.32671" lon="5.771">
        <ele>1554.59</ele>
        <time>2015-03-07T17:23:37Z</time>
      </trkpt>
      <trkpt lat="45.32667" lon="5.77097">
        <ele>1552.67</ele>
        <time>2015-03-07T17:23:40Z</time>
      </trkpt>
      <trkpt lat="45.32663" lon="5.77098">
        <ele>1550.74</ele>
        <time>2015-03-07T17:23:53Z</time>
      </trkpt>
      <trkpt lat="45.32657" lon="5.77091">
        <ele>1550.74</ele>
        <time>2015-03-07T17:24:04Z</time>
      </trkpt>
      <trkpt lat="45.32656" lon="5.7709">
        <ele>1550.74</ele>
        <time>2015-03-07T17:24:05Z</time>
      </trkpt>
      <trkpt lat="45.3265" lon="5.77076">
        <ele>1551.71</ele>
        <time>2015-03-07T17:24:18Z</time>
      </trkpt>
      <trkpt lat="45.32645" lon="5.77067">
        <ele>1554.11</ele>
        <time>2015-03-07T17:24:31Z</time>
      </trkpt>
      <trkpt lat="45.32639" lon="5.77055">
        <ele>1555.55</ele>
        <time>2015-03-07T17:24:46Z</time>
      </trkpt>
      <trkpt lat="45.32635" lon="5.77049">
        <ele>1556.51</ele>
        <time>2015-03-07T17:24:55Z</time>
      </trkpt>
      <trkpt lat="45.32623" lon="5.77038">
        <ele>1555.07</ele>
        <time>2015-03-07T17:25:09Z</time>
      </trkpt>
      <trkpt lat="45.32622" lon="5.77035">
        <ele>1555.07</ele>
        <time>2015-03-07T17:25:12Z</time>
      </trkpt>
      <trkpt lat="45.32612" lon="5.77032">
        <ele>1554.59</ele>
        <time>2015-03-07T17:25:26Z</time>
      </trkpt>
      <trkpt lat="45.32599" lon="5.77024">
        <ele>1556.99</ele>
        <time>2015-03-07T17:25:39Z</time>
      </trkpt>
      <trkpt lat="45.32598" lon="5.77023">
        <ele>1557.47</ele>
        <time>2015-03-07T17:25:41Z</time>
      </trkpt>
      <trkpt lat="45.32592" lon="5.77022">
        <ele>1557.95</ele>
        <time>2015-03-07T17:25:47Z</time>
      </trkpt>
      <trkpt lat="45.32582" lon="5.77014">
        <ele>1558.92</ele>
        <time>2015-03-07T17:26:01Z</time>
      </trkpt>
      <trkpt lat="45.3258" lon="5.77013">
        <ele>1558.92</ele>
        <time>2015-03-07T17:26:06Z</time>
      </trkpt>
      <trkpt lat="45.32573" lon="5.77015">
        <ele>1559.88</ele>
        <time>2015-03-07T17:26:18Z</time>
      </trkpt>
      <trkpt lat="45.32565" lon="5.77014">
        <ele>1560.84</ele>
        <time>2015-03-07T17:26:31Z</time>
      </trkpt>
      <trkpt lat="45.32565" lon="5.77013">
        <ele>1561.8</ele>
        <time>2015-03-07T17:26:43Z</time>
      </trkpt>
      <trkpt lat="45.32564" lon="5.77011">
        <ele>1562.76</ele>
        <time>2015-03-07T17:26:54Z</time>
      </trkpt>
      <trkpt lat="45.32562" lon="5.77009">
        <ele>1563.72</ele>
        <time>2015-03-07T17:27:05Z</time>
      </trkpt>
      <trkpt lat="45.3256" lon="5.77006">
        <ele>1564.68</ele>
        <time>2015-03-07T17:27:16Z</time>
      </trkpt>
      <trkpt lat="45.3256" lon="5.77002">
        <ele>1566.12</ele>
        <time>2015-03-07T17:27:30Z</time>
      </trkpt>
      <trkpt lat="45.32559" lon="5.77005">
        <ele>1567.57</ele>
        <time>2015-03-07T17:27:40Z</time>
      </trkpt>
      <trkpt lat="45.32551" lon="5.77007">
        <ele>1569.97</ele>
        <time>2015-03-07T17:27:55Z</time>
      </trkpt>
      <trkpt lat="45.32548" lon="5.77009">
        <ele>1569.97</ele>
        <time>2015-03-07T17:28:08Z</time>
      </trkpt>
      <trkpt lat="45.32544" lon="5.77007">
        <ele>1570.45</ele>
        <time>2015-03-07T17:28:20Z</time>
      </trkpt>
      <trkpt lat="45.32535" lon="5.77005">
        <ele>1572.37</ele>
        <time>2015-03-07T17:28:33Z</time>
      </trkpt>
      <trkpt lat="45.32529" lon="5.77001">
        <ele>1574.3</ele>
        <time>2015-03-07T17:28:45Z</time>
      </trkpt>
      <trkpt lat="45.32523" lon="5.76997">
        <ele>1575.74</ele>
        <time>2015-03-07T17:28:57Z</time>
      </trkpt>
      <trkpt lat="45.32531" lon="5.76993">
        <ele>1577.18</ele>
        <time>2015-03-07T17:29:11Z</time>
      </trkpt>
      <trkpt lat="45.32536" lon="5.76989">
        <ele>1578.62</ele>
        <time>2015-03-07T17:29:23Z</time>
      </trkpt>
      <trkpt lat="45.32537" lon="5.76988">
        <ele>1579.1</ele>
        <time>2015-03-07T17:29:28Z</time>
      </trkpt>
      <trkpt lat="45.32535" lon="5.76989">
        <ele>1580.54</ele>
        <time>2015-03-07T17:29:38Z</time>
      </trkpt>
      <trkpt lat="45.32532" lon="5.76987">
        <ele>1582.47</ele>
        <time>2015-03-07T17:29:51Z</time>
      </trkpt>
      <trkpt lat="45.32526" lon="5.76984">
        <ele>1583.43</ele>
        <time>2015-03-07T17:30:04Z</time>
      </trkpt>
      <trkpt lat="45.32525" lon="5.76979">
        <ele>1584.39</ele>
        <time>2015-03-07T17:30:17Z</time>
      </trkpt>
      <trkpt lat="45.32532" lon="5.76979">
        <ele>1586.31</ele>
        <time>2015-03-07T17:30:32Z</time>
      </trkpt>
      <trkpt lat="45.32536" lon="5.76974">
        <ele>1587.75</ele>
        <time>2015-03-07T17:30:48Z</time>
      </trkpt>
      <trkpt lat="45.32536" lon="5.76975">
        <ele>1587.27</ele>
        <time>2015-03-07T17:31:08Z</time>
      </trkpt>
      <trkpt lat="45.32536" lon="5.76973">
        <ele>1586.79</ele>
        <time>2015-03-07T17:31:38Z</time>
      </trkpt>
      <trkpt lat="45.32538" lon="5.76973">
        <ele>1586.31</ele>
        <time>2015-03-07T17:32:01Z</time>
      </trkpt>
      <trkpt lat="45.32539" lon="5.76972">
        <ele>1586.31</ele>
        <time>2015-03-07T17:32:23Z</time>
      </trkpt>
      <trkpt lat="45.3254" lon="5.7697">
        <ele>1586.31</ele>
        <time>2015-03-07T17:32:50Z</time>
      </trkpt>
      <trkpt lat="45.3254" lon="5.7697">
        <ele>1587.27</ele>
        <time>2015-03-07T17:32:58Z</time>
      </trkpt>
      <trkpt lat="45.3254" lon="5.76972">
        <ele>1587.27</ele>
        <time>2015-03-07T17:33:14Z</time>
      </trkpt>
      <trkpt lat="45.32548" lon="5.76962">
        <ele>1588.72</ele>
        <time>2015-03-07T17:33:46Z</time>
      </trkpt>
      <trkpt lat="45.32543" lon="5.76961">
        <ele>1590.16</ele>
        <time>2015-03-07T17:34:01Z</time>
      </trkpt>
      <trkpt lat="45.32533" lon="5.76964">
        <ele>1591.12</ele>
        <time>2015-03-07T17:34:22Z</time>
      </trkpt>
      <trkpt lat="45.32535" lon="5.76957">
        <ele>1593.52</ele>
        <time>2015-03-07T17:34:43Z</time>
      </trkpt>
      <trkpt lat="45.32535" lon="5.76957">
        <ele>1594.48</ele>
        <time>2015-03-07T17:35:01Z</time>
      </trkpt>
      <trkpt lat="45.32536" lon="5.76953">
        <ele>1594.96</ele>
        <time>2015-03-07T17:35:21Z</time>
      </trkpt>
      <trkpt lat="45.32534" lon="5.76951">
        <ele>1596.89</ele>
        <time>2015-03-07T17:35:40Z</time>
      </trkpt>
      <trkpt lat="45.32532" lon="5.76951">
        <ele>1593.52</ele>
        <time>2015-03-07T17:35:54Z</time>
      </trkpt>
      <trkpt lat="45.32532" lon="5.76952">
        <ele>1598.33</ele>
        <time>2015-03-07T17:35:56Z</time>
      </trkpt>
      <trkpt lat="45.32532" lon="5.76952">
        <ele>1596.89</ele>
        <time>2015-03-07T17:35:57Z</time>
      </trkpt>
      <trkpt lat="45.32532" lon="5.76952">
        <ele>1592.08</ele>
        <time>2015-03-07T17:36:04Z</time>
      </trkpt>
      <trkpt lat="45.32531" lon="5.76952">
        <ele>1596.41</ele>
        <time>2015-03-07T17:36:05Z</time>
      </trkpt>
      <trkpt lat="45.32531" lon="5.76953">
        <ele>1595.93</ele>
        <time>2015-03-07T17:36:22Z</time>
      </trkpt>
      <trkpt lat="45.32531" lon="5.76954">
        <ele>1595.93</ele>
        <time>2015-03-07T17:36:50Z</time>
      </trkpt>
      <trkpt lat="45.3253" lon="5.76953">
        <ele>1597.37</ele>
        <time>2015-03-07T17:37:04Z</time>
      </trkpt>
      <trkpt lat="45.32529" lon="5.76948">
        <ele>1598.81</ele>
        <time>2015-03-07T17:37:23Z</time>
      </trkpt>
      <trkpt lat="45.32528" lon="5.76945">
        <ele>1601.69</ele>
        <time>2015-03-07T17:37:41Z</time>
      </trkpt>
      <trkpt lat="45.3253" lon="5.76942">
        <ele>1604.58</ele>
        <time>2015-03-07T17:37:53Z</time>
      </trkpt>
      <trkpt lat="45.32533" lon="5.76937">
        <ele>1606.02</ele>
        <time>2015-03-07T17:38:12Z</time>
      </trkpt>
      <trkpt lat="45.3254" lon="5.76936">
        <ele>1608.9</ele>
        <time>2015-03-07T17:38:33Z</time>
      </trkpt>
      <trkpt lat="45.32543" lon="5.7693">
        <ele>1610.35</ele>
        <time>2015-03-07T17:38:50Z</time>
      </trkpt>
      <trkpt lat="45.32543" lon="5.76924">
        <ele>1613.23</ele>
        <time>2015-03-07T17:39:02Z</time>
      </trkpt>
      <trkpt lat="45.32543" lon="5.76924">
        <ele>1613.23</ele>
        <time>2015-03-07T17:39:03Z</time>
      </trkpt>
      <trkpt lat="45.3254" lon="5.76916">
        <ele>1616.11</ele>
        <time>2015-03-07T17:39:28Z</time>
      </trkpt>
      <trkpt lat="45.32537" lon="5.76911">
        <ele>1619</ele>
        <time>2015-03-07T17:39:45Z</time>
      </trkpt>
      <trkpt lat="45.32536" lon="5.76905">
        <ele>1622.36</ele>
        <time>2015-03-07T17:40:05Z</time>
      </trkpt>
      <trkpt lat="45.32535" lon="5.76898">
        <ele>1625.73</ele>
        <time>2015-03-07T17:40:23Z</time>
      </trkpt>
      <trkpt lat="45.32535" lon="5.76894">
        <ele>1628.61</ele>
        <time>2015-03-07T17:40:36Z</time>
      </trkpt>
      <trkpt lat="45.32535" lon="5.76892">
        <ele>1631.98</ele>
        <time>2015-03-07T17:40:49Z</time>
      </trkpt>
      <trkpt lat="45.32534" lon="5.76889">
        <ele>1635.34</ele>
        <time>2015-03-07T17:41:02Z</time>
      </trkpt>
      <trkpt lat="45.32534" lon="5.76889">
        <ele>1635.34</ele>
        <time>2015-03-07T17:41:03Z</time>
      </trkpt>
      <trkpt lat="45.32533" lon="5.76884">
        <ele>1638.22</ele>
        <time>2015-03-07T17:41:19Z</time>
      </trkpt>
      <trkpt lat="45.32534" lon="5.76881">
        <ele>1639.67</ele>
        <time>2015-03-07T17:41:26Z</time>
      </trkpt>
      <trkpt lat="45.32534" lon="5.76877">
        <ele>1641.59</ele>
        <time>2015-03-07T17:41:37Z</time>
      </trkpt>
      <trkpt lat="45.32533" lon="5.76869">
        <ele>1644.95</ele>
        <time>2015-03-07T17:41:54Z</time>
      </trkpt>
      <trkpt lat="45.32534" lon="5.76861">
        <ele>1647.84</ele>
        <time>2015-03-07T17:42:15Z</time>
      </trkpt>
      <trkpt lat="45.32534" lon="5.76861">
        <ele>1648.8</ele>
        <time>2015-03-07T17:42:31Z</time>
      </trkpt>
      <trkpt lat="45.32532" lon="5.76862">
        <ele>1648.32</ele>
        <time>2015-03-07T17:43:09Z</time>
      </trkpt>
      <trkpt lat="45.32533" lon="5.76852">
        <ele>1651.68</ele>
        <time>2015-03-07T17:43:33Z</time>
      </trkpt>
      <trkpt lat="45.32532" lon="5.76847">
        <ele>1655.05</ele>
        <time>2015-03-07T17:43:48Z</time>
      </trkpt>
      <trkpt lat="45.32531" lon="5.76842">
        <ele>1658.41</ele>
        <time>2015-03-07T17:44:01Z</time>
      </trkpt>
      <trkpt lat="45.32529" lon="5.76838">
        <ele>1661.78</ele>
        <time>2015-03-07T17:44:18Z</time>
      </trkpt>
      <trkpt lat="45.32528" lon="5.76836">
        <ele>1665.14</ele>
        <time>2015-03-07T17:44:33Z</time>
      </trkpt>
      <trkpt lat="45.32527" lon="5.76834">
        <ele>1667.06</ele>
        <time>2015-03-07T17:44:38Z</time>
      </trkpt>
      <trkpt lat="45.32525" lon="5.76829">
        <ele>1668.51</ele>
        <time>2015-03-07T17:44:57Z</time>
      </trkpt>
      <trkpt lat="45.32525" lon="5.76826">
        <ele>1671.39</ele>
        <time>2015-03-07T17:45:08Z</time>
      </trkpt>
      <trkpt lat="45.32523" lon="5.76822">
        <ele>1673.79</ele>
        <time>2015-03-07T17:45:28Z</time>
      </trkpt>
      <trkpt lat="45.32523" lon="5.76819">
        <ele>1676.68</ele>
        <time>2015-03-07T17:45:48Z</time>
      </trkpt>
      <trkpt lat="45.32525" lon="5.76811">
        <ele>1679.08</ele>
        <time>2015-03-07T17:46:09Z</time>
      </trkpt>
      <trkpt lat="45.32524" lon="5.7681">
        <ele>1680.52</ele>
        <time>2015-03-07T17:46:29Z</time>
      </trkpt>
      <trkpt lat="45.32525" lon="5.76805">
        <ele>1683.89</ele>
        <time>2015-03-07T17:46:47Z</time>
      </trkpt>
      <trkpt lat="45.32525" lon="5.76801">
        <ele>1686.29</ele>
        <time>2015-03-07T17:47:05Z</time>
      </trkpt>
      <trkpt lat="45.32527" lon="5.76797">
        <ele>1689.65</ele>
        <time>2015-03-07T17:47:21Z</time>
      </trkpt>
      <trkpt lat="45.32528" lon="5.76796">
        <ele>1689.17</ele>
        <time>2015-03-07T17:47:33Z</time>
      </trkpt>
      <trkpt lat="45.32528" lon="5.76796">
        <ele>1690.14</ele>
        <time>2015-03-07T17:47:36Z</time>
      </trkpt>
      <trkpt lat="45.32529" lon="5.76794">
        <ele>1693.02</ele>
        <time>2015-03-07T17:47:43Z</time>
      </trkpt>
      <trkpt lat="45.32531" lon="5.7679">
        <ele>1696.86</ele>
        <time>2015-03-07T17:47:57Z</time>
      </trkpt>
      <trkpt lat="45.32531" lon="5.76788">
        <ele>1695.9</ele>
        <time>2015-03-07T17:48:11Z</time>
      </trkpt>
      <trkpt lat="45.32531" lon="5.76787">
        <ele>1697.34</ele>
        <time>2015-03-07T17:48:13Z</time>
      </trkpt>
      <trkpt lat="45.32531" lon="5.76785">
        <ele>1700.71</ele>
        <time>2015-03-07T17:48:35Z</time>
      </trkpt>
      <trkpt lat="45.32532" lon="5.76783">
        <ele>1701.67</ele>
        <time>2015-03-07T17:48:39Z</time>
      </trkpt>
      <trkpt lat="45.32532" lon="5.76781">
        <ele>1703.11</ele>
        <time>2015-03-07T17:48:45Z</time>
      </trkpt>
      <trkpt lat="45.32531" lon="5.76778">
        <ele>1705.04</ele>
        <time>2015-03-07T17:49:03Z</time>
      </trkpt>
      <trkpt lat="45.32529" lon="5.76773">
        <ele>1707.92</ele>
        <time>2015-03-07T17:49:22Z</time>
      </trkpt>
      <trkpt lat="45.32527" lon="5.76771">
        <ele>1710.8</ele>
        <time>2015-03-07T17:49:33Z</time>
      </trkpt>
      <trkpt lat="45.32527" lon="5.76771">
        <ele>1712.25</ele>
        <time>2015-03-07T17:49:37Z</time>
      </trkpt>
      <trkpt lat="45.32527" lon="5.76767">
        <ele>1715.13</ele>
        <time>2015-03-07T17:49:52Z</time>
      </trkpt>
      <trkpt lat="45.32525" lon="5.76765">
        <ele>1717.53</ele>
        <time>2015-03-07T17:50:03Z</time>
      </trkpt>
      <trkpt lat="45.32525" lon="5.76763">
        <ele>1717.05</ele>
        <time>2015-03-07T17:50:11Z</time>
      </trkpt>
      <trkpt lat="45.32526" lon="5.76759">
        <ele>1718.49</ele>
        <time>2015-03-07T17:50:21Z</time>
      </trkpt>
      <trkpt lat="45.32525" lon="5.76757">
        <ele>1717.05</ele>
        <time>2015-03-07T17:50:32Z</time>
      </trkpt>
      <trkpt lat="45.32525" lon="5.76758">
        <ele>1718.49</ele>
        <time>2015-03-07T17:50:42Z</time>
      </trkpt>
      <trkpt lat="45.32526" lon="5.76757">
        <ele>1717.05</ele>
        <time>2015-03-07T17:50:57Z</time>
      </trkpt>
      <trkpt lat="45.32527" lon="5.76758">
        <ele>1716.57</ele>
        <time>2015-03-07T17:51:27Z</time>
      </trkpt>
      <trkpt lat="45.32527" lon="5.76757">
        <ele>1716.57</ele>
        <time>2015-03-07T17:51:28Z</time>
      </trkpt>
      <trkpt lat="45.32525" lon="5.76758">
        <ele>1717.05</ele>
        <time>2015-03-07T17:51:53Z</time>
      </trkpt>
      <trkpt lat="45.32526" lon="5.76757">
        <ele>1718.49</ele>
        <time>2015-03-07T17:52:00Z</time>
      </trkpt>
      <trkpt lat="45.32525" lon="5.76757">
        <ele>1722.34</ele>
        <time>2015-03-07T17:52:07Z</time>
      </trkpt>
      <trkpt lat="45.32524" lon="5.76755">
        <ele>1724.26</ele>
        <time>2015-03-07T17:52:19Z</time>
      </trkpt>
      <trkpt lat="45.32524" lon="5.76753">
        <ele>1727.63</ele>
        <time>2015-03-07T17:52:37Z</time>
      </trkpt>
      <trkpt lat="45.32524" lon="5.76753">
        <ele>1727.63</ele>
        <time>2015-03-07T17:52:38Z</time>
      </trkpt>
      <trkpt lat="45.32524" lon="5.76753">
        <ele>1726.67</ele>
        <time>2015-03-07T17:52:51Z</time>
      </trkpt>
      <trkpt lat="45.32524" lon="5.76753">
        <ele>1722.34</ele>
        <time>2015-03-07T17:53:11Z</time>
      </trkpt>
      <trkpt lat="45.32524" lon="5.76753">
        <ele>1725.7</ele>
        <time>2015-03-07T17:53:16Z</time>
      </trkpt>
      <trkpt lat="45.32524" lon="5.76753">
        <ele>1725.7</ele>
        <time>2015-03-07T17:53:17Z</time>
      </trkpt>
      <trkpt lat="45.32524" lon="5.76753">
        <ele>1723.3</ele>
        <time>2015-03-07T17:53:21Z</time>
      </trkpt>
      <trkpt lat="45.32523" lon="5.76753">
        <ele>1726.18</ele>
        <time>2015-03-07T17:53:29Z</time>
      </trkpt>
      <trkpt lat="45.32523" lon="5.76751">
        <ele>1724.26</ele>
        <time>2015-03-07T17:53:34Z</time>
      </trkpt>
      <trkpt lat="45.32523" lon="5.76751">
        <ele>1727.15</ele>
        <time>2015-03-07T17:53:35Z</time>
      </trkpt>
      <trkpt lat="45.32523" lon="5.7675">
        <ele>1727.15</ele>
        <time>2015-03-07T17:53:36Z</time>
      </trkpt>
      <trkpt lat="45.32523" lon="5.76742">
        <ele>1729.07</ele>
        <time>2015-03-07T17:53:53Z</time>
      </trkpt>
      <trkpt lat="45.32523" lon="5.76742">
        <ele>1727.63</ele>
        <time>2015-03-07T17:53:57Z</time>
      </trkpt>
      <trkpt lat="45.32523" lon="5.76742">
        <ele>1728.11</ele>
        <time>2015-03-07T17:54:01Z</time>
      </trkpt>
      <trkpt lat="45.32523" lon="5.76739">
        <ele>1729.07</ele>
        <time>2015-03-07T17:54:14Z</time>
      </trkpt>
      <trkpt lat="45.32522" lon="5.76736">
        <ele>1732.91</ele>
        <time>2015-03-07T17:54:21Z</time>
      </trkpt>
      <trkpt lat="45.32522" lon="5.76735">
        <ele>1732.91</ele>
        <time>2015-03-07T17:54:22Z</time>
      </trkpt>
      <trkpt lat="45.32523" lon="5.76728">
        <ele>1735.8</ele>
        <time>2015-03-07T17:54:38Z</time>
      </trkpt>
      <trkpt lat="45.32523" lon="5.76723">
        <ele>1734.36</ele>
        <time>2015-03-07T17:54:56Z</time>
      </trkpt>
      <trkpt lat="45.32523" lon="5.76722">
        <ele>1739.64</ele>
        <time>2015-03-07T17:54:58Z</time>
      </trkpt>
      <trkpt lat="45.32523" lon="5.76722">
        <ele>1737.24</ele>
        <time>2015-03-07T17:54:59Z</time>
      </trkpt>
      <trkpt lat="45.32523" lon="5.76721">
        <ele>1741.57</ele>
        <time>2015-03-07T17:55:02Z</time>
      </trkpt>
      <trkpt lat="45.32522" lon="5.7672">
        <ele>1744.45</ele>
        <time>2015-03-07T17:55:04Z</time>
      </trkpt>
      <trkpt lat="45.32522" lon="5.7672">
        <ele>1742.05</ele>
        <time>2015-03-07T17:55:06Z</time>
      </trkpt>
      <trkpt lat="45.32521" lon="5.76716">
        <ele>1743.49</ele>
        <time>2015-03-07T17:55:21Z</time>
      </trkpt>
      <trkpt lat="45.32521" lon="5.76713">
        <ele>1739.16</ele>
        <time>2015-03-07T17:55:30Z</time>
      </trkpt>
      <trkpt lat="45.32521" lon="5.76712">
        <ele>1743.97</ele>
        <time>2015-03-07T17:55:33Z</time>
      </trkpt>
      <trkpt lat="45.32522" lon="5.7671">
        <ele>1740.6</ele>
        <time>2015-03-07T17:55:38Z</time>
      </trkpt>
      <trkpt lat="45.32522" lon="5.7671">
        <ele>1744.93</ele>
        <time>2015-03-07T17:55:39Z</time>
      </trkpt>
      <trkpt lat="45.32523" lon="5.76709">
        <ele>1744.93</ele>
        <time>2015-03-07T17:55:40Z</time>
      </trkpt>
      <trkpt lat="45.32522" lon="5.76705">
        <ele>1746.37</ele>
        <time>2015-03-07T17:55:49Z</time>
      </trkpt>
      <trkpt lat="45.32522" lon="5.76705">
        <ele>1744.93</ele>
        <time>2015-03-07T17:55:54Z</time>
      </trkpt>
      <trkpt lat="45.32522" lon="5.76706">
        <ele>1747.81</ele>
        <time>2015-03-07T17:56:08Z</time>
      </trkpt>
      <trkpt lat="45.32522" lon="5.76706">
        <ele>1747.33</ele>
        <time>2015-03-07T17:56:20Z</time>
      </trkpt>
      <trkpt lat="45.32523" lon="5.76706">
        <ele>1746.85</ele>
        <time>2015-03-07T17:56:27Z</time>
      </trkpt>
      <trkpt lat="45.32522" lon="5.76705">
        <ele>1750.22</ele>
        <time>2015-03-07T17:56:30Z</time>
      </trkpt>
      <trkpt lat="45.32522" lon="5.76704">
        <ele>1747.33</ele>
        <time>2015-03-07T17:56:33Z</time>
      </trkpt>
      <trkpt lat="45.32522" lon="5.76704">
        <ele>1747.33</ele>
        <time>2015-03-07T17:56:34Z</time>
      </trkpt>
      <trkpt lat="45.32522" lon="5.76704">
        <ele>1748.78</ele>
        <time>2015-03-07T17:56:38Z</time>
      </trkpt>
      <trkpt lat="45.32522" lon="5.76704">
        <ele>1746.37</ele>
        <time>2015-03-07T17:56:42Z</time>
      </trkpt>
      <trkpt lat="45.32522" lon="5.76704">
        <ele>1747.33</ele>
        <time>2015-03-07T17:56:46Z</time>
      </trkpt>
      <trkpt lat="45.32522" lon="5.76704">
        <ele>1744.93</ele>
        <time>2015-03-07T17:56:52Z</time>
      </trkpt>
      <trkpt lat="45.32523" lon="5.76701">
        <ele>1746.37</ele>
        <time>2015-03-07T17:56:59Z</time>
      </trkpt>
      <trkpt lat="45.32523" lon="5.76694">
        <ele>1747.81</ele>
        <time>2015-03-07T17:57:12Z</time>
      </trkpt>
      <trkpt lat="45.3252" lon="5.76689">
        <ele>1748.78</ele>
        <time>2015-03-07T17:57:22Z</time>
      </trkpt>
      <trkpt lat="45.32518" lon="5.76688">
        <ele>1751.18</ele>
        <time>2015-03-07T17:57:27Z</time>
      </trkpt>
      <trkpt lat="45.32517" lon="5.76687">
        <ele>1749.74</ele>
        <time>2015-03-07T17:57:30Z</time>
      </trkpt>
      <trkpt lat="45.32516" lon="5.76686">
        <ele>1751.18</ele>
        <time>2015-03-07T17:57:35Z</time>
      </trkpt>
      <trkpt lat="45.32516" lon="5.76684">
        <ele>1752.14</ele>
        <time>2015-03-07T17:57:42Z</time>
      </trkpt>
      <trkpt lat="45.32517" lon="5.76684">
        <ele>1749.74</ele>
        <time>2015-03-07T17:57:46Z</time>
      </trkpt>
      <trkpt lat="45.32517" lon="5.76684">
        <ele>1751.66</ele>
        <time>2015-03-07T17:57:48Z</time>
      </trkpt>
      <trkpt lat="45.32517" lon="5.76684">
        <ele>1755.02</ele>
        <time>2015-03-07T17:57:53Z</time>
      </trkpt>
      <trkpt lat="45.32517" lon="5.76684">
        <ele>1753.58</ele>
        <time>2015-03-07T17:57:54Z</time>
      </trkpt>
      <trkpt lat="45.32519" lon="5.76683">
        <ele>1756.47</ele>
        <time>2015-03-07T17:57:58Z</time>
      </trkpt>
      <trkpt lat="45.32519" lon="5.76682">
        <ele>1763.2</ele>
        <time>2015-03-07T17:58:01Z</time>
      </trkpt>
      <trkpt lat="45.32519" lon="5.76681">
        <ele>1763.2</ele>
        <time>2015-03-07T17:58:02Z</time>
      </trkpt>
      <trkpt lat="45.32519" lon="5.7668">
        <ele>1759.83</ele>
        <time>2015-03-07T17:58:03Z</time>
      </trkpt>
      <trkpt lat="45.32519" lon="5.76679">
        <ele>1758.87</ele>
        <time>2015-03-07T17:58:05Z</time>
      </trkpt>
      <trkpt lat="45.32518" lon="5.76676">
        <ele>1759.35</ele>
        <time>2015-03-07T17:58:18Z</time>
      </trkpt>
      <trkpt lat="45.32518" lon="5.76676">
        <ele>1758.39</ele>
        <time>2015-03-07T17:58:23Z</time>
      </trkpt>
      <trkpt lat="45.32519" lon="5.76672">
        <ele>1761.75</ele>
        <time>2015-03-07T17:58:34Z</time>
      </trkpt>
      <trkpt lat="45.3252" lon="5.76667">
        <ele>1765.12</ele>
        <time>2015-03-07T17:58:46Z</time>
      </trkpt>
      <trkpt lat="45.3252" lon="5.76667">
        <ele>1766.08</ele>
        <time>2015-03-07T17:58:48Z</time>
      </trkpt>
      <trkpt lat="45.32521" lon="5.76666">
        <ele>1769.44</ele>
        <time>2015-03-07T17:58:51Z</time>
      </trkpt>
      <trkpt lat="45.32521" lon="5.76665">
        <ele>1765.12</ele>
        <time>2015-03-07T17:58:52Z</time>
      </trkpt>
      <trkpt lat="45.3252" lon="5.76665">
        <ele>1765.12</ele>
        <time>2015-03-07T17:58:53Z</time>
      </trkpt>
      <trkpt lat="45.3252" lon="5.76663">
        <ele>1765.6</ele>
        <time>2015-03-07T17:58:58Z</time>
      </trkpt>
      <trkpt lat="45.32521" lon="5.76659">
        <ele>1768.48</ele>
        <time>2015-03-07T17:59:05Z</time>
      </trkpt>
      <trkpt lat="45.32521" lon="5.76657">
        <ele>1768.48</ele>
        <time>2015-03-07T17:59:09Z</time>
      </trkpt>
      <trkpt lat="45.32521" lon="5.76654">
        <ele>1771.37</ele>
        <time>2015-03-07T17:59:19Z</time>
      </trkpt>
      <trkpt lat="45.32521" lon="5.76652">
        <ele>1769.92</ele>
        <time>2015-03-07T17:59:25Z</time>
      </trkpt>
      <trkpt lat="45.32522" lon="5.76652">
        <ele>1773.77</ele>
        <time>2015-03-07T17:59:27Z</time>
      </trkpt>
      <trkpt lat="45.32522" lon="5.7665">
        <ele>1778.1</ele>
        <time>2015-03-07T17:59:29Z</time>
      </trkpt>
      <trkpt lat="45.32523" lon="5.7665">
        <ele>1772.33</ele>
        <time>2015-03-07T17:59:31Z</time>
      </trkpt>
      <trkpt lat="45.32523" lon="5.7665">
        <ele>1773.77</ele>
        <time>2015-03-07T17:59:32Z</time>
      </trkpt>
      <trkpt lat="45.32523" lon="5.76648">
        <ele>1778.1</ele>
        <time>2015-03-07T17:59:35Z</time>
      </trkpt>
      <trkpt lat="45.32523" lon="5.76645">
        <ele>1774.73</ele>
        <time>2015-03-07T17:59:42Z</time>
      </trkpt>
      <trkpt lat="45.32524" lon="5.76644">
        <ele>1772.81</ele>
        <time>2015-03-07T17:59:44Z</time>
      </trkpt>
      <trkpt lat="45.32524" lon="5.76644">
        <ele>1776.17</ele>
        <time>2015-03-07T17:59:45Z</time>
      </trkpt>
      <trkpt lat="45.32524" lon="5.76643">
        <ele>1776.17</ele>
        <time>2015-03-07T17:59:46Z</time>
      </trkpt>
      <trkpt lat="45.32523" lon="5.76642">
        <ele>1780.02</ele>
        <time>2015-03-07T17:59:53Z</time>
      </trkpt>
      <trkpt lat="45.32522" lon="5.76642">
        <ele>1775.69</ele>
        <time>2015-03-07T17:59:55Z</time>
      </trkpt>
      <trkpt lat="45.32522" lon="5.76642">
        <ele>1775.69</ele>
        <time>2015-03-07T17:59:56Z</time>
      </trkpt>
      <trkpt lat="45.32522" lon="5.76642">
        <ele>1778.58</ele>
        <time>2015-03-07T17:59:58Z</time>
      </trkpt>
      <trkpt lat="45.32522" lon="5.76641">
        <ele>1776.17</ele>
        <time>2015-03-07T18:00:05Z</time>
      </trkpt>
      <trkpt lat="45.32523" lon="5.76641">
        <ele>1777.61</ele>
        <time>2015-03-07T18:00:09Z</time>
      </trkpt>
      <trkpt lat="45.32524" lon="5.7664">
        <ele>1775.69</ele>
        <time>2015-03-07T18:00:13Z</time>
      </trkpt>
      <trkpt lat="45.32523" lon="5.76639">
        <ele>1777.13</ele>
        <time>2015-03-07T18:00:16Z</time>
      </trkpt>
      <trkpt lat="45.32523" lon="5.76638">
        <ele>1778.1</ele>
        <time>2015-03-07T18:00:20Z</time>
      </trkpt>
      <trkpt lat="45.32522" lon="5.76636">
        <ele>1780.5</ele>
        <time>2015-03-07T18:00:25Z</time>
      </trkpt>
      <trkpt lat="45.32523" lon="5.76635">
        <ele>1777.61</ele>
        <time>2015-03-07T18:00:28Z</time>
      </trkpt>
      <trkpt lat="45.32523" lon="5.76635">
        <ele>1779.06</ele>
        <time>2015-03-07T18:00:31Z</time>
      </trkpt>
      <trkpt lat="45.32523" lon="5.76632">
        <ele>1780.98</ele>
        <time>2015-03-07T18:00:49Z</time>
      </trkpt>
      <trkpt lat="45.32524" lon="5.76629">
        <ele>1783.86</ele>
        <time>2015-03-07T18:01:09Z</time>
      </trkpt>
      <trkpt lat="45.32524" lon="5.76624">
        <ele>1786.27</ele>
        <time>2015-03-07T18:01:20Z</time>
      </trkpt>
      <trkpt lat="45.32524" lon="5.76623">
        <ele>1784.82</ele>
        <time>2015-03-07T18:01:24Z</time>
      </trkpt>
      <trkpt lat="45.32524" lon="5.76622">
        <ele>1786.75</ele>
        <time>2015-03-07T18:01:29Z</time>
      </trkpt>
      <trkpt lat="45.32524" lon="5.7662">
        <ele>1789.63</ele>
        <time>2015-03-07T18:01:35Z</time>
      </trkpt>
      <trkpt lat="45.32525" lon="5.76619">
        <ele>1792.03</ele>
        <time>2015-03-07T18:01:39Z</time>
      </trkpt>
      <trkpt lat="45.32526" lon="5.76615">
        <ele>1794.44</ele>
        <time>2015-03-07T18:01:48Z</time>
      </trkpt>
      <trkpt lat="45.32526" lon="5.76611">
        <ele>1797.8</ele>
        <time>2015-03-07T18:01:57Z</time>
      </trkpt>
      <trkpt lat="45.32526" lon="5.7661">
        <ele>1797.8</ele>
        <time>2015-03-07T18:01:58Z</time>
      </trkpt>
      <trkpt lat="45.32526" lon="5.76609">
        <ele>1795.88</ele>
        <time>2015-03-07T18:02:01Z</time>
      </trkpt>
      <trkpt lat="45.32527" lon="5.76608">
        <ele>1797.32</ele>
        <time>2015-03-07T18:02:04Z</time>
      </trkpt>
      <trkpt lat="45.32528" lon="5.76605">
        <ele>1798.28</ele>
        <time>2015-03-07T18:02:12Z</time>
      </trkpt>
      <trkpt lat="45.32528" lon="5.76605">
        <ele>1797.32</ele>
        <time>2015-03-07T18:02:14Z</time>
      </trkpt>
      <trkpt lat="45.32529" lon="5.76605">
        <ele>1800.21</ele>
        <time>2015-03-07T18:02:26Z</time>
      </trkpt>
      <trkpt lat="45.32529" lon="5.76604">
        <ele>1798.76</ele>
        <time>2015-03-07T18:02:29Z</time>
      </trkpt>
      <trkpt lat="45.32531" lon="5.76599">
        <ele>1801.65</ele>
        <time>2015-03-07T18:02:49Z</time>
      </trkpt>
      <trkpt lat="45.32533" lon="5.76593">
        <ele>1805.49</ele>
        <time>2015-03-07T18:03:06Z</time>
      </trkpt>
      <trkpt lat="45.32534" lon="5.76591">
        <ele>1806.94</ele>
        <time>2015-03-07T18:03:10Z</time>
      </trkpt>
      <trkpt lat="45.32534" lon="5.76588">
        <ele>1809.82</ele>
        <time>2015-03-07T18:03:16Z</time>
      </trkpt>
      <trkpt lat="45.32534" lon="5.76587">
        <ele>1807.9</ele>
        <time>2015-03-07T18:03:18Z</time>
      </trkpt>
      <trkpt lat="45.32533" lon="5.76582">
        <ele>1810.3</ele>
        <time>2015-03-07T18:03:28Z</time>
      </trkpt>
      <trkpt lat="45.32533" lon="5.76579">
        <ele>1813.66</ele>
        <time>2015-03-07T18:03:33Z</time>
      </trkpt>
      <trkpt lat="45.32533" lon="5.76576">
        <ele>1814.63</ele>
        <time>2015-03-07T18:03:38Z</time>
      </trkpt>
      <trkpt lat="45.32527" lon="5.7657">
        <ele>1815.11</ele>
        <time>2015-03-07T18:03:53Z</time>
      </trkpt>
      <trkpt lat="45.32526" lon="5.76567">
        <ele>1816.55</ele>
        <time>2015-03-07T18:04:01Z</time>
      </trkpt>
      <trkpt lat="45.32526" lon="5.76566">
        <ele>1815.11</ele>
        <time>2015-03-07T18:04:03Z</time>
      </trkpt>
      <trkpt lat="45.32524" lon="5.7656">
        <ele>1817.99</ele>
        <time>2015-03-07T18:04:15Z</time>
      </trkpt>
      <trkpt lat="45.32524" lon="5.76557">
        <ele>1816.07</ele>
        <time>2015-03-07T18:04:20Z</time>
      </trkpt>
      <trkpt lat="45.32523" lon="5.76556">
        <ele>1817.03</ele>
        <time>2015-03-07T18:04:22Z</time>
      </trkpt>
      <trkpt lat="45.32524" lon="5.76552">
        <ele>1819.91</ele>
        <time>2015-03-07T18:04:31Z</time>
      </trkpt>
      <trkpt lat="45.32525" lon="5.76548">
        <ele>1818.95</ele>
        <time>2015-03-07T18:04:39Z</time>
      </trkpt>
      <trkpt lat="45.32525" lon="5.76545">
        <ele>1822.32</ele>
        <time>2015-03-07T18:04:44Z</time>
      </trkpt>
      <trkpt lat="45.32525" lon="5.76544">
        <ele>1822.32</ele>
        <time>2015-03-07T18:04:45Z</time>
      </trkpt>
      <trkpt lat="45.32525" lon="5.76543">
        <ele>1824.24</ele>
        <time>2015-03-07T18:04:50Z</time>
      </trkpt>
      <trkpt lat="45.32524" lon="5.76536">
        <ele>1825.68</ele>
        <time>2015-03-07T18:05:05Z</time>
      </trkpt>
      <trkpt lat="45.32524" lon="5.76533">
        <ele>1828.56</ele>
        <time>2015-03-07T18:05:10Z</time>
      </trkpt>
      <trkpt lat="45.32523" lon="5.76532">
        <ele>1824.24</ele>
        <time>2015-03-07T18:05:12Z</time>
      </trkpt>
      <trkpt lat="45.32523" lon="5.76532">
        <ele>1823.28</ele>
        <time>2015-03-07T18:05:14Z</time>
      </trkpt>
      <trkpt lat="45.32523" lon="5.76531">
        <ele>1827.12</ele>
        <time>2015-03-07T18:05:16Z</time>
      </trkpt>
      <trkpt lat="45.32523" lon="5.7653">
        <ele>1830.01</ele>
        <time>2015-03-07T18:05:18Z</time>
      </trkpt>
      <trkpt lat="45.32523" lon="5.76529">
        <ele>1830.01</ele>
        <time>2015-03-07T18:05:19Z</time>
      </trkpt>
      <trkpt lat="45.32523" lon="5.76529">
        <ele>1826.16</ele>
        <time>2015-03-07T18:05:20Z</time>
      </trkpt>
      <trkpt lat="45.32522" lon="5.76522">
        <ele>1831.93</ele>
        <time>2015-03-07T18:05:33Z</time>
      </trkpt>
      <trkpt lat="45.32522" lon="5.76522">
        <ele>1830.01</ele>
        <time>2015-03-07T18:05:34Z</time>
      </trkpt>
      <trkpt lat="45.32522" lon="5.76521">
        <ele>1826.64</ele>
        <time>2015-03-07T18:05:35Z</time>
      </trkpt>
      <trkpt lat="45.32522" lon="5.76521">
        <ele>1828.56</ele>
        <time>2015-03-07T18:05:36Z</time>
      </trkpt>
      <trkpt lat="45.32521" lon="5.76516">
        <ele>1830.01</ele>
        <time>2015-03-07T18:05:47Z</time>
      </trkpt>
      <trkpt lat="45.32521" lon="5.76514">
        <ele>1833.37</ele>
        <time>2015-03-07T18:05:52Z</time>
      </trkpt>
      <trkpt lat="45.3252" lon="5.76506">
        <ele>1837.7</ele>
        <time>2015-03-07T18:06:05Z</time>
      </trkpt>
      <trkpt lat="45.3252" lon="5.76504">
        <ele>1833.37</ele>
        <time>2015-03-07T18:06:07Z</time>
      </trkpt>
      <trkpt lat="45.32519" lon="5.76503">
        <ele>1833.37</ele>
        <time>2015-03-07T18:06:08Z</time>
      </trkpt>
      <trkpt lat="45.32519" lon="5.76502">
        <ele>1835.29</ele>
        <time>2015-03-07T18:06:11Z</time>
      </trkpt>
      <trkpt lat="45.32519" lon="5.76501">
        <ele>1832.89</ele>
        <time>2015-03-07T18:06:13Z</time>
      </trkpt>
      <trkpt lat="45.32518" lon="5.765">
        <ele>1836.74</ele>
        <time>2015-03-07T18:06:15Z</time>
      </trkpt>
      <trkpt lat="45.32518" lon="5.76499">
        <ele>1833.85</ele>
        <time>2015-03-07T18:06:18Z</time>
      </trkpt>
      <trkpt lat="45.32517" lon="5.76494">
        <ele>1837.22</ele>
        <time>2015-03-07T18:06:29Z</time>
      </trkpt>
      <trkpt lat="45.32516" lon="5.76493">
        <ele>1837.22</ele>
        <time>2015-03-07T18:06:30Z</time>
      </trkpt>
      <trkpt lat="45.32515" lon="5.76492">
        <ele>1839.14</ele>
        <time>2015-03-07T18:06:33Z</time>
      </trkpt>
      <trkpt lat="45.32515" lon="5.76491">
        <ele>1837.22</ele>
        <time>2015-03-07T18:06:35Z</time>
      </trkpt>
      <trkpt lat="45.32514" lon="5.76488">
        <ele>1838.18</ele>
        <time>2015-03-07T18:06:40Z</time>
      </trkpt>
      <trkpt lat="45.32512" lon="5.76483">
        <ele>1837.7</ele>
        <time>2015-03-07T18:06:50Z</time>
      </trkpt>
      <trkpt lat="45.32511" lon="5.76482">
        <ele>1839.14</ele>
        <time>2015-03-07T18:06:53Z</time>
      </trkpt>
      <trkpt lat="45.3251" lon="5.7648">
        <ele>1840.58</ele>
        <time>2015-03-07T18:07:01Z</time>
      </trkpt>
      <trkpt lat="45.3251" lon="5.76478">
        <ele>1842.5</ele>
        <time>2015-03-07T18:07:09Z</time>
      </trkpt>
      <trkpt lat="45.3251" lon="5.76473">
        <ele>1846.35</ele>
        <time>2015-03-07T18:07:18Z</time>
      </trkpt>
      <trkpt lat="45.3251" lon="5.76473">
        <ele>1846.35</ele>
        <time>2015-03-07T18:07:19Z</time>
      </trkpt>
      <trkpt lat="45.3251" lon="5.76465">
        <ele>1844.91</ele>
        <time>2015-03-07T18:07:34Z</time>
      </trkpt>
      <trkpt lat="45.3251" lon="5.76464">
        <ele>1846.35</ele>
        <time>2015-03-07T18:07:37Z</time>
      </trkpt>
      <trkpt lat="45.32511" lon="5.76461">
        <ele>1850.68</ele>
        <time>2015-03-07T18:07:45Z</time>
      </trkpt>
      <trkpt lat="45.32511" lon="5.7646">
        <ele>1851.16</ele>
        <time>2015-03-07T18:07:47Z</time>
      </trkpt>
      <trkpt lat="45.32512" lon="5.76456">
        <ele>1850.68</ele>
        <time>2015-03-07T18:07:54Z</time>
      </trkpt>
      <trkpt lat="45.32512" lon="5.76454">
        <ele>1854.52</ele>
        <time>2015-03-07T18:07:58Z</time>
      </trkpt>
      <trkpt lat="45.32512" lon="5.76454">
        <ele>1854.52</ele>
        <time>2015-03-07T18:07:59Z</time>
      </trkpt>
      <trkpt lat="45.32512" lon="5.7645">
        <ele>1855</ele>
        <time>2015-03-07T18:08:08Z</time>
      </trkpt>
      <trkpt lat="45.32511" lon="5.76446">
        <ele>1856.92</ele>
        <time>2015-03-07T18:08:14Z</time>
      </trkpt>
      <trkpt lat="45.32509" lon="5.76441">
        <ele>1860.29</ele>
        <time>2015-03-07T18:08:23Z</time>
      </trkpt>
      <trkpt lat="45.32507" lon="5.76433">
        <ele>1860.29</ele>
        <time>2015-03-07T18:08:33Z</time>
      </trkpt>
      <trkpt lat="45.32506" lon="5.76428">
        <ele>1860.29</ele>
        <time>2015-03-07T18:08:42Z</time>
      </trkpt>
      <trkpt lat="45.32506" lon="5.76426">
        <ele>1858.85</ele>
        <time>2015-03-07T18:08:45Z</time>
      </trkpt>
      <trkpt lat="45.32506" lon="5.7642">
        <ele>1862.21</ele>
        <time>2015-03-07T18:09:01Z</time>
      </trkpt>
      <trkpt lat="45.32506" lon="5.76419">
        <ele>1861.73</ele>
        <time>2015-03-07T18:09:10Z</time>
      </trkpt>
      <trkpt lat="45.32507" lon="5.76413">
        <ele>1862.69</ele>
        <time>2015-03-07T18:09:25Z</time>
      </trkpt>
      <trkpt lat="45.3251" lon="5.76412">
        <ele>1864.61</ele>
        <time>2015-03-07T18:09:47Z</time>
      </trkpt>
      <trkpt lat="45.32509" lon="5.76411">
        <ele>1862.69</ele>
        <time>2015-03-07T18:09:50Z</time>
      </trkpt>
      <trkpt lat="45.32509" lon="5.76411">
        <ele>1864.13</ele>
        <time>2015-03-07T18:09:52Z</time>
      </trkpt>
      <trkpt lat="45.32509" lon="5.76411">
        <ele>1861.25</ele>
        <time>2015-03-07T18:09:55Z</time>
      </trkpt>
      <trkpt lat="45.32508" lon="5.76411">
        <ele>1863.65</ele>
        <time>2015-03-07T18:10:01Z</time>
      </trkpt>
      <trkpt lat="45.32508" lon="5.76411">
        <ele>1861.73</ele>
        <time>2015-03-07T18:10:03Z</time>
      </trkpt>
      <trkpt lat="45.32508" lon="5.76411">
        <ele>1864.13</ele>
        <time>2015-03-07T18:10:06Z</time>
      </trkpt>
      <trkpt lat="45.32508" lon="5.76411">
        <ele>1862.21</ele>
        <time>2015-03-07T18:10:08Z</time>
      </trkpt>
      <trkpt lat="45.32508" lon="5.76411">
        <ele>1863.17</ele>
        <time>2015-03-07T18:10:14Z</time>
      </trkpt>
      <trkpt lat="45.32509" lon="5.76411">
        <ele>1861.73</ele>
        <time>2015-03-07T18:10:16Z</time>
      </trkpt>
      <trkpt lat="45.32508" lon="5.76411">
        <ele>1863.17</ele>
        <time>2015-03-07T18:10:18Z</time>
      </trkpt>
      <trkpt lat="45.32509" lon="5.76411">
        <ele>1862.69</ele>
        <time>2015-03-07T18:10:26Z</time>
      </trkpt>
      <trkpt lat="45.32508" lon="5.76413">
        <ele>1863.17</ele>
        <time>2015-03-07T18:10:38Z</time>
      </trkpt>
      <trkpt lat="45.32507" lon="5.76412">
        <ele>1862.21</ele>
        <time>2015-03-07T18:10:53Z</time>
      </trkpt>
      <trkpt lat="45.32508" lon="5.76412">
        <ele>1860.77</ele>
        <time>2015-03-07T18:10:56Z</time>
      </trkpt>
      <trkpt lat="45.32508" lon="5.76412">
        <ele>1862.69</ele>
        <time>2015-03-07T18:10:59Z</time>
      </trkpt>
      <trkpt lat="45.32507" lon="5.76412">
        <ele>1863.17</ele>
        <time>2015-03-07T18:11:09Z</time>
      </trkpt>
      <trkpt lat="45.32507" lon="5.76414">
        <ele>1863.65</ele>
        <time>2015-03-07T18:11:19Z</time>
      </trkpt>
      <trkpt lat="45.32507" lon="5.76414">
        <ele>1866.54</ele>
        <time>2015-03-07T18:11:21Z</time>
      </trkpt>
      <trkpt lat="45.32507" lon="5.76413">
        <ele>1868.94</ele>
        <time>2015-03-07T18:11:24Z</time>
      </trkpt>
      <trkpt lat="45.32507" lon="5.76412">
        <ele>1865.09</ele>
        <time>2015-03-07T18:11:32Z</time>
      </trkpt>
      <trkpt lat="45.32507" lon="5.76412">
        <ele>1865.09</ele>
        <time>2015-03-07T18:11:33Z</time>
      </trkpt>
      <trkpt lat="45.32508" lon="5.76412">
        <ele>1867.98</ele>
        <time>2015-03-07T18:11:38Z</time>
      </trkpt>
      <trkpt lat="45.32508" lon="5.76412">
        <ele>1864.61</ele>
        <time>2015-03-07T18:11:39Z</time>
      </trkpt>
      <trkpt lat="45.32507" lon="5.76412">
        <ele>1868.94</ele>
        <time>2015-03-07T18:11:41Z</time>
      </trkpt>
      <trkpt lat="45.32507" lon="5.76412">
        <ele>1866.54</ele>
        <time>2015-03-07T18:11:44Z</time>
      </trkpt>
      <trkpt lat="45.32507" lon="5.76412">
        <ele>1867.98</ele>
        <time>2015-03-07T18:11:46Z</time>
      </trkpt>
      <trkpt lat="45.32507" lon="5.76412">
        <ele>1864.61</ele>
        <time>2015-03-07T18:11:50Z</time>
      </trkpt>
      <trkpt lat="45.32507" lon="5.76412">
        <ele>1864.61</ele>
        <time>2015-03-07T18:11:51Z</time>
      </trkpt>
      <trkpt lat="45.32506" lon="5.76413">
        <ele>1867.98</ele>
        <time>2015-03-07T18:11:57Z</time>
      </trkpt>
      <trkpt lat="45.32506" lon="5.76413">
        <ele>1867.98</ele>
        <time>2015-03-07T18:11:58Z</time>
      </trkpt>
      <trkpt lat="45.32506" lon="5.76413">
        <ele>1869.42</ele>
        <time>2015-03-07T18:12:02Z</time>
      </trkpt>
      <trkpt lat="45.32506" lon="5.76414">
        <ele>1866.54</ele>
        <time>2015-03-07T18:12:04Z</time>
      </trkpt>
      <trkpt lat="45.32506" lon="5.76413">
        <ele>1870.38</ele>
        <time>2015-03-07T18:12:07Z</time>
      </trkpt>
      <trkpt lat="45.32506" lon="5.76413">
        <ele>1870.38</ele>
        <time>2015-03-07T18:12:08Z</time>
      </trkpt>
      <trkpt lat="45.32506" lon="5.76413">
        <ele>1866.54</ele>
        <time>2015-03-07T18:12:13Z</time>
      </trkpt>
      <trkpt lat="45.32506" lon="5.76413">
        <ele>1866.54</ele>
        <time>2015-03-07T18:12:14Z</time>
      </trkpt>
      <trkpt lat="45.32507" lon="5.76413">
        <ele>1869.9</ele>
        <time>2015-03-07T18:12:18Z</time>
      </trkpt>
      <trkpt lat="45.32507" lon="5.76413">
        <ele>1867.5</ele>
        <time>2015-03-07T18:12:20Z</time>
      </trkpt>
      <trkpt lat="45.32507" lon="5.76413">
        <ele>1866.06</ele>
        <time>2015-03-07T18:12:24Z</time>
      </trkpt>
      <trkpt lat="45.32507" lon="5.76413">
        <ele>1871.34</ele>
        <time>2015-03-07T18:12:27Z</time>
      </trkpt>
      <trkpt lat="45.32507" lon="5.76413">
        <ele>1865.58</ele>
        <time>2015-03-07T18:12:28Z</time>
      </trkpt>
      <trkpt lat="45.32507" lon="5.76413">
        <ele>1863.17</ele>
        <time>2015-03-07T18:12:36Z</time>
      </trkpt>
      <trkpt lat="45.32507" lon="5.76413">
        <ele>1867.5</ele>
        <time>2015-03-07T18:12:37Z</time>
      </trkpt>
      <trkpt lat="45.32507" lon="5.76412">
        <ele>1864.13</ele>
        <time>2015-03-07T18:12:38Z</time>
      </trkpt>
      <trkpt lat="45.32508" lon="5.7641">
        <ele>1866.06</ele>
        <time>2015-03-07T18:12:44Z</time>
      </trkpt>
      <trkpt lat="45.32508" lon="5.7641">
        <ele>1869.42</ele>
        <time>2015-03-07T18:12:47Z</time>
      </trkpt>
      <trkpt lat="45.32508" lon="5.7641">
        <ele>1869.42</ele>
        <time>2015-03-07T18:12:48Z</time>
      </trkpt>
      <trkpt lat="45.32508" lon="5.76409">
        <ele>1867.02</ele>
        <time>2015-03-07T18:12:50Z</time>
      </trkpt>
      <trkpt lat="45.32509" lon="5.76406">
        <ele>1864.61</ele>
        <time>2015-03-07T18:12:54Z</time>
      </trkpt>
      <trkpt lat="45.32511" lon="5.76402">
        <ele>1863.65</ele>
        <time>2015-03-07T18:13:04Z</time>
      </trkpt>
      <trkpt lat="45.3251" lon="5.764">
        <ele>1861.73</ele>
        <time>2015-03-07T18:13:06Z</time>
      </trkpt>
      <trkpt lat="45.3251" lon="5.76399">
        <ele>1863.17</ele>
        <time>2015-03-07T18:13:08Z</time>
      </trkpt>
      <trkpt lat="45.32508" lon="5.764">
        <ele>1864.61</ele>
        <time>2015-03-07T18:13:12Z</time>
      </trkpt>
      <trkpt lat="45.32507" lon="5.76401">
        <ele>1863.17</ele>
        <time>2015-03-07T18:13:14Z</time>
      </trkpt>
      <trkpt lat="45.32507" lon="5.76405">
        <ele>1861.73</ele>
        <time>2015-03-07T18:13:22Z</time>
      </trkpt>
      <trkpt lat="45.32508" lon="5.76407">
        <ele>1863.17</ele>
        <time>2015-03-07T18:13:26Z</time>
      </trkpt>
      <trkpt lat="45.32509" lon="5.7641">
        <ele>1862.69</ele>
        <time>2015-03-07T18:13:35Z</time>
      </trkpt>
      <trkpt lat="45.32513" lon="5.76406">
        <ele>1867.98</ele>
        <time>2015-03-07T18:13:45Z</time>
      </trkpt>
      <trkpt lat="45.3251" lon="5.7641">
        <ele>1864.61</ele>
        <time>2015-03-07T18:13:46Z</time>
      </trkpt>
      <trkpt lat="45.3251" lon="5.7641">
        <ele>1861.73</ele>
        <time>2015-03-07T18:13:50Z</time>
      </trkpt>
      <trkpt lat="45.3251" lon="5.7641">
        <ele>1865.58</ele>
        <time>2015-03-07T18:13:51Z</time>
      </trkpt>
      <trkpt lat="45.3251" lon="5.76411">
        <ele>1861.73</ele>
        <time>2015-03-07T18:13:52Z</time>
      </trkpt>
      <trkpt lat="45.3251" lon="5.76411">
        <ele>1862.21</ele>
        <time>2015-03-07T18:13:57Z</time>
      </trkpt>
      <trkpt lat="45.3251" lon="5.76411">
        <ele>1865.09</ele>
        <time>2015-03-07T18:13:58Z</time>
      </trkpt>
      <trkpt lat="45.32509" lon="5.76412">
        <ele>1864.61</ele>
        <time>2015-03-07T18:14:02Z</time>
      </trkpt>
      <trkpt lat="45.32509" lon="5.76412">
        <ele>1866.54</ele>
        <time>2015-03-07T18:14:04Z</time>
      </trkpt>
      <trkpt lat="45.32509" lon="5.76412">
        <ele>1864.61</ele>
        <time>2015-03-07T18:14:06Z</time>
      </trkpt>
      <trkpt lat="45.32509" lon="5.76412">
        <ele>1865.58</ele>
        <time>2015-03-07T18:14:14Z</time>
      </trkpt>
      <trkpt lat="45.32509" lon="5.76412">
        <ele>1864.61</ele>
        <time>2015-03-07T18:14:16Z</time>
      </trkpt>
      <trkpt lat="45.32509" lon="5.76412">
        <ele>1866.06</ele>
        <time>2015-03-07T18:14:18Z</time>
      </trkpt>
      <trkpt lat="45.32509" lon="5.76411">
        <ele>1859.81</ele>
        <time>2015-03-07T18:14:20Z</time>
      </trkpt>
      <trkpt lat="45.32509" lon="5.7641">
        <ele>1866.54</ele>
        <time>2015-03-07T18:14:21Z</time>
      </trkpt>
      <trkpt lat="45.3251" lon="5.76406">
        <ele>1861.73</ele>
        <time>2015-03-07T18:14:25Z</time>
      </trkpt>
      <trkpt lat="45.3251" lon="5.76405">
        <ele>1865.58</ele>
        <time>2015-03-07T18:14:26Z</time>
      </trkpt>
      <trkpt lat="45.32511" lon="5.76406">
        <ele>1868.46</ele>
        <time>2015-03-07T18:14:33Z</time>
      </trkpt>
      <trkpt lat="45.3251" lon="5.76408">
        <ele>1865.09</ele>
        <time>2015-03-07T18:14:37Z</time>
      </trkpt>
      <trkpt lat="45.3251" lon="5.76411">
        <ele>1867.5</ele>
        <time>2015-03-07T18:14:42Z</time>
      </trkpt>
      <trkpt lat="45.3251" lon="5.76411">
        <ele>1863.65</ele>
        <time>2015-03-07T18:14:44Z</time>
      </trkpt>
      <trkpt lat="45.3251" lon="5.76411">
        <ele>1863.65</ele>
        <time>2015-03-07T18:14:45Z</time>
      </trkpt>
      <trkpt lat="45.3251" lon="5.76411">
        <ele>1865.58</ele>
        <time>2015-03-07T18:14:47Z</time>
      </trkpt>
      <trkpt lat="45.32509" lon="5.76411">
        <ele>1864.13</ele>
        <time>2015-03-07T18:14:49Z</time>
      </trkpt>
      <trkpt lat="45.32509" lon="5.76411">
        <ele>1866.54</ele>
        <time>2015-03-07T18:14:51Z</time>
      </trkpt>
      <trkpt lat="45.32509" lon="5.76411">
        <ele>1863.17</ele>
        <time>2015-03-07T18:14:52Z</time>
      </trkpt>
      <trkpt lat="45.32509" lon="5.76411">
        <ele>1862.69</ele>
        <time>2015-03-07T18:14:54Z</time>
      </trkpt>
      <trkpt lat="45.32509" lon="5.76412">
        <ele>1863.65</ele>
        <time>2015-03-07T18:14:58Z</time>
      </trkpt>
      <trkpt lat="45.32509" lon="5.76412">
        <ele>1858.37</ele>
        <time>2015-03-07T18:14:59Z</time>
      </trkpt>
      <trkpt lat="45.32509" lon="5.76413">
        <ele>1864.13</ele>
        <time>2015-03-07T18:15:00Z</time>
      </trkpt>
      <trkpt lat="45.32508" lon="5.76413">
        <ele>1859.33</ele>
        <time>2015-03-07T18:15:11Z</time>
      </trkpt>
      <trkpt lat="45.32508" lon="5.76413">
        <ele>1864.61</ele>
        <time>2015-03-07T18:15:12Z</time>
      </trkpt>
      <trkpt lat="45.32508" lon="5.76413">
        <ele>1864.61</ele>
        <time>2015-03-07T18:15:13Z</time>
      </trkpt>
      <trkpt lat="45.32507" lon="5.76413">
        <ele>1863.17</ele>
        <time>2015-03-07T18:15:20Z</time>
      </trkpt>
      <trkpt lat="45.32507" lon="5.76412">
        <ele>1864.61</ele>
        <time>2015-03-07T18:15:30Z</time>
      </trkpt>
      <trkpt lat="45.32507" lon="5.76412">
        <ele>1866.54</ele>
        <time>2015-03-07T18:15:33Z</time>
      </trkpt>
      <trkpt lat="45.32507" lon="5.76412">
        <ele>1862.69</ele>
        <time>2015-03-07T18:15:34Z</time>
      </trkpt>
      <trkpt lat="45.32507" lon="5.76412">
        <ele>1862.69</ele>
        <time>2015-03-07T18:15:35Z</time>
      </trkpt>
      <trkpt lat="45.32507" lon="5.76412">
        <ele>1865.58</ele>
        <time>2015-03-07T18:15:39Z</time>
      </trkpt>
      <trkpt lat="45.32507" lon="5.76411">
        <ele>1866.06</ele>
        <time>2015-03-07T18:15:40Z</time>
      </trkpt>
      <trkpt lat="45.32507" lon="5.76411">
        <ele>1867.5</ele>
        <time>2015-03-07T18:15:42Z</time>
      </trkpt>
      <trkpt lat="45.32508" lon="5.7641">
        <ele>1865.58</ele>
        <time>2015-03-07T18:15:49Z</time>
      </trkpt>
      <trkpt lat="45.32508" lon="5.7641">
        <ele>1868.46</ele>
        <time>2015-03-07T18:15:53Z</time>
      </trkpt>
      <trkpt lat="45.32508" lon="5.7641">
        <ele>1865.09</ele>
        <time>2015-03-07T18:15:56Z</time>
      </trkpt>
      <trkpt lat="45.32508" lon="5.7641">
        <ele>1864.13</ele>
        <time>2015-03-07T18:16:00Z</time>
      </trkpt>
      <trkpt lat="45.32508" lon="5.76411">
        <ele>1865.58</ele>
        <time>2015-03-07T18:16:11Z</time>
      </trkpt>
      <trkpt lat="45.32508" lon="5.7641">
        <ele>1862.69</ele>
        <time>2015-03-07T18:16:15Z</time>
      </trkpt>
      <trkpt lat="45.32508" lon="5.7641">
        <ele>1862.69</ele>
        <time>2015-03-07T18:16:40Z</time>
      </trkpt>
      <trkpt lat="45.32508" lon="5.7641">
        <ele>1859.33</ele>
        <time>2015-03-07T18:16:42Z</time>
      </trkpt>
      <trkpt lat="45.32508" lon="5.7641">
        <ele>1859.33</ele>
        <time>2015-03-07T18:16:43Z</time>
      </trkpt>
      <trkpt lat="45.32508" lon="5.7641">
        <ele>1861.73</ele>
        <time>2015-03-07T18:16:45Z</time>
      </trkpt>
      <trkpt lat="45.32508" lon="5.7641">
        <ele>1863.65</ele>
        <time>2015-03-07T18:16:50Z</time>
      </trkpt>
      <trkpt lat="45.32508" lon="5.76409">
        <ele>1865.58</ele>
        <time>2015-03-07T18:16:54Z</time>
      </trkpt>
      <trkpt lat="45.32508" lon="5.7641">
        <ele>1862.69</ele>
        <time>2015-03-07T18:16:55Z</time>
      </trkpt>
      <trkpt lat="45.32508" lon="5.76409">
        <ele>1864.61</ele>
        <time>2015-03-07T18:16:58Z</time>
      </trkpt>
      <trkpt lat="45.32508" lon="5.76409">
        <ele>1863.17</ele>
        <time>2015-03-07T18:17:04Z</time>
      </trkpt>
      <trkpt lat="45.32507" lon="5.76408">
        <ele>1860.77</ele>
        <time>2015-03-07T18:17:12Z</time>
      </trkpt>
      <trkpt lat="45.32507" lon="5.76409">
        <ele>1862.69</ele>
        <time>2015-03-07T18:17:14Z</time>
      </trkpt>
      <trkpt lat="45.32507" lon="5.76408">
        <ele>1861.73</ele>
        <time>2015-03-07T18:17:23Z</time>
      </trkpt>
      <trkpt lat="45.32507" lon="5.76408">
        <ele>1866.06</ele>
        <time>2015-03-07T18:17:32Z</time>
      </trkpt>
      <trkpt lat="45.32508" lon="5.76408">
        <ele>1862.69</ele>
        <time>2015-03-07T18:17:36Z</time>
      </trkpt>
      <trkpt lat="45.32508" lon="5.76408">
        <ele>1861.25</ele>
        <time>2015-03-07T18:17:38Z</time>
      </trkpt>
      <trkpt lat="45.32508" lon="5.76408">
        <ele>1863.17</ele>
        <time>2015-03-07T18:17:45Z</time>
      </trkpt>
      <trkpt lat="45.32508" lon="5.76408">
        <ele>1867.02</ele>
        <time>2015-03-07T18:17:54Z</time>
      </trkpt>
      <trkpt lat="45.32508" lon="5.76408">
        <ele>1867.02</ele>
        <time>2015-03-07T18:18:00Z</time>
      </trkpt>
      <trkpt lat="45.32508" lon="5.76408">
        <ele>1862.69</ele>
        <time>2015-03-07T18:18:02Z</time>
      </trkpt>
      <trkpt lat="45.32508" lon="5.76408">
        <ele>1862.69</ele>
        <time>2015-03-07T18:18:03Z</time>
      </trkpt>
      <trkpt lat="45.32508" lon="5.76409">
        <ele>1861.73</ele>
        <time>2015-03-07T18:18:07Z</time>
      </trkpt>
      <trkpt lat="45.32507" lon="5.76409">
        <ele>1863.65</ele>
        <time>2015-03-07T18:18:21Z</time>
      </trkpt>
      <trkpt lat="45.32507" lon="5.76409">
        <ele>1860.29</ele>
        <time>2015-03-07T18:18:23Z</time>
      </trkpt>
      <trkpt lat="45.32507" lon="5.76409">
        <ele>1863.65</ele>
        <time>2015-03-07T18:18:29Z</time>
      </trkpt>
      <trkpt lat="45.32507" lon="5.76409">
        <ele>1863.65</ele>
        <time>2015-03-07T18:18:30Z</time>
      </trkpt>
      <trkpt lat="45.32508" lon="5.76408">
        <ele>1860.29</ele>
        <time>2015-03-07T18:18:35Z</time>
      </trkpt>
      <trkpt lat="45.32507" lon="5.76408">
        <ele>1860.29</ele>
        <time>2015-03-07T18:18:36Z</time>
      </trkpt>
      <trkpt lat="45.32507" lon="5.76408">
        <ele>1862.21</ele>
        <time>2015-03-07T18:18:41Z</time>
      </trkpt>
      <trkpt lat="45.32507" lon="5.76412">
        <ele>1862.69</ele>
        <time>2015-03-07T18:18:50Z</time>
      </trkpt>
      <trkpt lat="45.32508" lon="5.76412">
        <ele>1860.77</ele>
        <time>2015-03-07T18:18:54Z</time>
      </trkpt>
      <trkpt lat="45.32508" lon="5.76411">
        <ele>1861.73</ele>
        <time>2015-03-07T18:18:59Z</time>
      </trkpt>
      <trkpt lat="45.32507" lon="5.76411">
        <ele>1861.73</ele>
        <time>2015-03-07T18:19:06Z</time>
      </trkpt>
      <trkpt lat="45.32508" lon="5.76411">
        <ele>1863.65</ele>
        <time>2015-03-07T18:19:09Z</time>
      </trkpt>
      <trkpt lat="45.32508" lon="5.76411">
        <ele>1865.58</ele>
        <time>2015-03-07T18:19:12Z</time>
      </trkpt>
      <trkpt lat="45.32508" lon="5.76411">
        <ele>1867.02</ele>
        <time>2015-03-07T18:19:15Z</time>
      </trkpt>
      <trkpt lat="45.32507" lon="5.7641">
        <ele>1862.21</ele>
        <time>2015-03-07T18:19:22Z</time>
      </trkpt>
      <trkpt lat="45.32507" lon="5.7641">
        <ele>1864.13</ele>
        <time>2015-03-07T18:19:26Z</time>
      </trkpt>
      <trkpt lat="45.32507" lon="5.76411">
        <ele>1861.25</ele>
        <time>2015-03-07T18:19:32Z</time>
      </trkpt>
      <trkpt lat="45.32507" lon="5.76411">
        <ele>1858.37</ele>
        <time>2015-03-07T18:19:34Z</time>
      </trkpt>
      <trkpt lat="45.32507" lon="5.76411">
        <ele>1866.54</ele>
        <time>2015-03-07T18:19:35Z</time>
      </trkpt>
      <trkpt lat="45.32507" lon="5.76411">
        <ele>1863.17</ele>
        <time>2015-03-07T18:19:36Z</time>
      </trkpt>
      <trkpt lat="45.32507" lon="5.76411">
        <ele>1857.4</ele>
        <time>2015-03-07T18:19:38Z</time>
      </trkpt>
      <trkpt lat="45.32507" lon="5.76411">
        <ele>1859.33</ele>
        <time>2015-03-07T18:19:39Z</time>
      </trkpt>
      <trkpt lat="45.32507" lon="5.76411">
        <ele>1862.21</ele>
        <time>2015-03-07T18:19:41Z</time>
      </trkpt>
      <trkpt lat="45.32507" lon="5.76411">
        <ele>1865.09</ele>
        <time>2015-03-07T18:19:42Z</time>
      </trkpt>
      <trkpt lat="45.32507" lon="5.76411">
        <ele>1864.13</ele>
        <time>2015-03-07T18:19:43Z</time>
      </trkpt>
      <trkpt lat="45.32507" lon="5.76411">
        <ele>1860.29</ele>
        <time>2015-03-07T18:19:45Z</time>
      </trkpt>
      <trkpt lat="45.32507" lon="5.76412">
        <ele>1863.65</ele>
        <time>2015-03-07T18:19:51Z</time>
      </trkpt>
      <trkpt lat="45.32506" lon="5.76412">
        <ele>1859.33</ele>
        <time>2015-03-07T18:19:54Z</time>
      </trkpt>
      <trkpt lat="45.32507" lon="5.76412">
        <ele>1868.94</ele>
        <time>2015-03-07T18:19:55Z</time>
      </trkpt>
      <trkpt lat="45.32507" lon="5.76412">
        <ele>1867.02</ele>
        <time>2015-03-07T18:19:56Z</time>
      </trkpt>
      <trkpt lat="45.32507" lon="5.76411">
        <ele>1866.54</ele>
        <time>2015-03-07T18:20:02Z</time>
      </trkpt>
      <trkpt lat="45.32506" lon="5.76411">
        <ele>1864.13</ele>
        <time>2015-03-07T18:20:05Z</time>
      </trkpt>
      <trkpt lat="45.32506" lon="5.7641">
        <ele>1862.21</ele>
        <time>2015-03-07T18:20:16Z</time>
      </trkpt>
      <trkpt lat="45.32506" lon="5.7641">
        <ele>1864.61</ele>
        <time>2015-03-07T18:20:18Z</time>
      </trkpt>
      <trkpt lat="45.32506" lon="5.7641">
        <ele>1862.69</ele>
        <time>2015-03-07T18:20:20Z</time>
      </trkpt>
      <trkpt lat="45.32506" lon="5.7641">
        <ele>1864.61</ele>
        <time>2015-03-07T18:20:22Z</time>
      </trkpt>
      <trkpt lat="45.32506" lon="5.7641">
        <ele>1863.17</ele>
        <time>2015-03-07T18:20:24Z</time>
      </trkpt>
      <trkpt lat="45.32506" lon="5.7641">
        <ele>1867.02</ele>
        <time>2015-03-07T18:20:25Z</time>
      </trkpt>
      <trkpt lat="45.32506" lon="5.7641">
        <ele>1865.09</ele>
        <time>2015-03-07T18:20:26Z</time>
      </trkpt>
      <trkpt lat="45.32507" lon="5.7641">
        <ele>1862.21</ele>
        <time>2015-03-07T18:20:33Z</time>
      </trkpt>
      <trkpt lat="45.32507" lon="5.7641">
        <ele>1862.21</ele>
        <time>2015-03-07T18:20:34Z</time>
      </trkpt>
      <trkpt lat="45.32507" lon="5.7641">
        <ele>1866.06</ele>
        <time>2015-03-07T18:20:35Z</time>
      </trkpt>
      <trkpt lat="45.32507" lon="5.7641">
        <ele>1861.73</ele>
        <time>2015-03-07T18:20:36Z</time>
      </trkpt>
      <trkpt lat="45.32507" lon="5.76411">
        <ele>1866.06</ele>
        <time>2015-03-07T18:20:41Z</time>
      </trkpt>
      <trkpt lat="45.32507" lon="5.76411">
        <ele>1866.06</ele>
        <time>2015-03-07T18:20:42Z</time>
      </trkpt>
      <trkpt lat="45.32507" lon="5.76411">
        <ele>1863.65</ele>
        <time>2015-03-07T18:20:44Z</time>
      </trkpt>
      <trkpt lat="45.32506" lon="5.76411">
        <ele>1865.09</ele>
        <time>2015-03-07T18:20:47Z</time>
      </trkpt>
      <trkpt lat="45.32506" lon="5.76412">
        <ele>1863.65</ele>
        <time>2015-03-07T18:20:51Z</time>
      </trkpt>
      <trkpt lat="45.32506" lon="5.76412">
        <ele>1865.09</ele>
        <time>2015-03-07T18:20:54Z</time>
      </trkpt>
      <trkpt lat="45.32506" lon="5.76412">
        <ele>1862.21</ele>
        <time>2015-03-07T18:20:59Z</time>
      </trkpt>
      <trkpt lat="45.32506" lon="5.76412">
        <ele>1863.17</ele>
        <time>2015-03-07T18:21:09Z</time>
      </trkpt>
      <trkpt lat="45.32506" lon="5.76412">
        <ele>1865.58</ele>
        <time>2015-03-07T18:21:19Z</time>
      </trkpt>
      <trkpt lat="45.32505" lon="5.76412">
        <ele>1866.54</ele>
        <time>2015-03-07T18:21:32Z</time>
      </trkpt>
      <trkpt lat="45.32504" lon="5.76412">
        <ele>1863.17</ele>
        <time>2015-03-07T18:21:37Z</time>
      </trkpt>
      <trkpt lat="45.32504" lon="5.76411">
        <ele>1863.17</ele>
        <time>2015-03-07T18:21:38Z</time>
      </trkpt>
      <trkpt lat="45.32503" lon="5.76411">
        <ele>1863.17</ele>
        <time>2015-03-07T18:21:39Z</time>
      </trkpt>
      <trkpt lat="45.32495" lon="5.764">
        <ele>1858.85</ele>
        <time>2015-03-07T18:21:45Z</time>
      </trkpt>
      <trkpt lat="45.32488" lon="5.76395">
        <ele>1857.89</ele>
        <time>2015-03-07T18:21:47Z</time>
      </trkpt>
      <trkpt lat="45.32477" lon="5.76384">
        <ele>1853.56</ele>
        <time>2015-03-07T18:21:50Z</time>
      </trkpt>
      <trkpt lat="45.32473" lon="5.76383">
        <ele>1853.56</ele>
        <time>2015-03-07T18:21:51Z</time>
      </trkpt>
      <trkpt lat="45.32462" lon="5.76375">
        <ele>1850.19</ele>
        <time>2015-03-07T18:21:54Z</time>
      </trkpt>
      <trkpt lat="45.32452" lon="5.76368">
        <ele>1846.35</ele>
        <time>2015-03-07T18:21:56Z</time>
      </trkpt>
      <trkpt lat="45.32444" lon="5.7636">
        <ele>1842.02</ele>
        <time>2015-03-07T18:21:58Z</time>
      </trkpt>
      <trkpt lat="45.32423" lon="5.76347">
        <ele>1837.7</ele>
        <time>2015-03-07T18:22:02Z</time>
      </trkpt>
      <trkpt lat="45.3241" lon="5.76337">
        <ele>1834.81</ele>
        <time>2015-03-07T18:22:04Z</time>
      </trkpt>
      <trkpt lat="45.32396" lon="5.76321">
        <ele>1829.05</ele>
        <time>2015-03-07T18:22:06Z</time>
      </trkpt>
      <trkpt lat="45.32374" lon="5.76292">
        <ele>1822.32</ele>
        <time>2015-03-07T18:22:09Z</time>
      </trkpt>
      <trkpt lat="45.32367" lon="5.76283">
        <ele>1821.84</ele>
        <time>2015-03-07T18:22:10Z</time>
      </trkpt>
      <trkpt lat="45.32335" lon="5.76236">
        <ele>1824.24</ele>
        <time>2015-03-07T18:22:17Z</time>
      </trkpt>
      <trkpt lat="45.32333" lon="5.7623">
        <ele>1826.64</ele>
        <time>2015-03-07T18:22:20Z</time>
      </trkpt>
      <trkpt lat="45.32321" lon="5.76213">
        <ele>1825.68</ele>
        <time>2015-03-07T18:22:30Z</time>
      </trkpt>
      <trkpt lat="45.32315" lon="5.76212">
        <ele>1826.16</ele>
        <time>2015-03-07T18:22:37Z</time>
      </trkpt>
      <trkpt lat="45.32311" lon="5.76213">
        <ele>1826.64</ele>
        <time>2015-03-07T18:22:40Z</time>
      </trkpt>
      <trkpt lat="45.32305" lon="5.7621">
        <ele>1830.01</ele>
        <time>2015-03-07T18:22:47Z</time>
      </trkpt>
      <trkpt lat="45.32303" lon="5.76207">
        <ele>1833.37</ele>
        <time>2015-03-07T18:22:53Z</time>
      </trkpt>
      <trkpt lat="45.32303" lon="5.76205">
        <ele>1832.41</ele>
        <time>2015-03-07T18:22:56Z</time>
      </trkpt>
      <trkpt lat="45.32299" lon="5.76193">
        <ele>1833.37</ele>
        <time>2015-03-07T18:23:06Z</time>
      </trkpt>
      <trkpt lat="45.32293" lon="5.76185">
        <ele>1832.41</ele>
        <time>2015-03-07T18:23:09Z</time>
      </trkpt>
      <trkpt lat="45.32286" lon="5.76175">
        <ele>1827.6</ele>
        <time>2015-03-07T18:23:11Z</time>
      </trkpt>
      <trkpt lat="45.32258" lon="5.76164">
        <ele>1826.64</ele>
        <time>2015-03-07T18:23:17Z</time>
      </trkpt>
      <trkpt lat="45.32257" lon="5.76163">
        <ele>1828.08</ele>
        <time>2015-03-07T18:23:19Z</time>
      </trkpt>
      <trkpt lat="45.32245" lon="5.76155">
        <ele>1826.64</ele>
        <time>2015-03-07T18:23:25Z</time>
      </trkpt>
      <trkpt lat="45.32229" lon="5.76152">
        <ele>1824.72</ele>
        <time>2015-03-07T18:23:30Z</time>
      </trkpt>
      <trkpt lat="45.32227" lon="5.76148">
        <ele>1823.76</ele>
        <time>2015-03-07T18:23:35Z</time>
      </trkpt>
      <trkpt lat="45.32219" lon="5.76146">
        <ele>1817.99</ele>
        <time>2015-03-07T18:23:38Z</time>
      </trkpt>
      <trkpt lat="45.32217" lon="5.76146">
        <ele>1817.99</ele>
        <time>2015-03-07T18:23:39Z</time>
      </trkpt>
      <trkpt lat="45.32215" lon="5.76139">
        <ele>1812.7</ele>
        <time>2015-03-07T18:23:41Z</time>
      </trkpt>
      <trkpt lat="45.32208" lon="5.76138">
        <ele>1811.74</ele>
        <time>2015-03-07T18:23:43Z</time>
      </trkpt>
      <trkpt lat="45.32201" lon="5.7613">
        <ele>1806.94</ele>
        <time>2015-03-07T18:23:46Z</time>
      </trkpt>
      <trkpt lat="45.32189" lon="5.7613">
        <ele>1803.09</ele>
        <time>2015-03-07T18:23:49Z</time>
      </trkpt>
      <trkpt lat="45.32188" lon="5.76123">
        <ele>1800.69</ele>
        <time>2015-03-07T18:23:51Z</time>
      </trkpt>
      <trkpt lat="45.32176" lon="5.76119">
        <ele>1795.4</ele>
        <time>2015-03-07T18:23:57Z</time>
      </trkpt>
      <trkpt lat="45.32173" lon="5.7612">
        <ele>1795.4</ele>
        <time>2015-03-07T18:23:58Z</time>
      </trkpt>
      <trkpt lat="45.32167" lon="5.76123">
        <ele>1793.48</ele>
        <time>2015-03-07T18:24:00Z</time>
      </trkpt>
      <trkpt lat="45.32167" lon="5.7611">
        <ele>1789.63</ele>
        <time>2015-03-07T18:24:04Z</time>
      </trkpt>
      <trkpt lat="45.32159" lon="5.76103">
        <ele>1786.27</ele>
        <time>2015-03-07T18:24:07Z</time>
      </trkpt>
      <trkpt lat="45.32155" lon="5.76104">
        <ele>1786.27</ele>
        <time>2015-03-07T18:24:08Z</time>
      </trkpt>
      <trkpt lat="45.32142" lon="5.76113">
        <ele>1783.86</ele>
        <time>2015-03-07T18:24:12Z</time>
      </trkpt>
      <trkpt lat="45.32136" lon="5.76111">
        <ele>1780.02</ele>
        <time>2015-03-07T18:24:15Z</time>
      </trkpt>
      <trkpt lat="45.32137" lon="5.76107">
        <ele>1779.06</ele>
        <time>2015-03-07T18:24:16Z</time>
      </trkpt>
      <trkpt lat="45.32139" lon="5.76096">
        <ele>1777.61</ele>
        <time>2015-03-07T18:24:19Z</time>
      </trkpt>
      <trkpt lat="45.32129" lon="5.76093">
        <ele>1773.29</ele>
        <time>2015-03-07T18:24:22Z</time>
      </trkpt>
      <trkpt lat="45.32125" lon="5.76095">
        <ele>1773.77</ele>
        <time>2015-03-07T18:24:23Z</time>
      </trkpt>
      <trkpt lat="45.32119" lon="5.76099">
        <ele>1773.77</ele>
        <time>2015-03-07T18:24:25Z</time>
      </trkpt>
      <trkpt lat="45.32104" lon="5.76114">
        <ele>1769.44</ele>
        <time>2015-03-07T18:24:29Z</time>
      </trkpt>
      <trkpt lat="45.32101" lon="5.76117">
        <ele>1768.48</ele>
        <time>2015-03-07T18:24:30Z</time>
      </trkpt>
      <trkpt lat="45.32096" lon="5.76108">
        <ele>1765.6</ele>
        <time>2015-03-07T18:24:33Z</time>
      </trkpt>
      <trkpt lat="45.32085" lon="5.76107">
        <ele>1761.27</ele>
        <time>2015-03-07T18:24:36Z</time>
      </trkpt>
      <trkpt lat="45.32079" lon="5.76114">
        <ele>1760.79</ele>
        <time>2015-03-07T18:24:38Z</time>
      </trkpt>
      <trkpt lat="45.32069" lon="5.7611">
        <ele>1756.47</ele>
        <time>2015-03-07T18:24:41Z</time>
      </trkpt>
      <trkpt lat="45.32064" lon="5.76087">
        <ele>1753.58</ele>
        <time>2015-03-07T18:24:46Z</time>
      </trkpt>
      <trkpt lat="45.32046" lon="5.76105">
        <ele>1749.26</ele>
        <time>2015-03-07T18:24:52Z</time>
      </trkpt>
      <trkpt lat="45.32044" lon="5.76096">
        <ele>1747.33</ele>
        <time>2015-03-07T18:24:54Z</time>
      </trkpt>
      <trkpt lat="45.32046" lon="5.76084">
        <ele>1746.85</ele>
        <time>2015-03-07T18:24:57Z</time>
      </trkpt>
      <trkpt lat="45.32036" lon="5.76078">
        <ele>1743.49</ele>
        <time>2015-03-07T18:25:01Z</time>
      </trkpt>
      <trkpt lat="45.32034" lon="5.76067">
        <ele>1740.6</ele>
        <time>2015-03-07T18:25:04Z</time>
      </trkpt>
      <trkpt lat="45.32024" lon="5.76065">
        <ele>1737.24</ele>
        <time>2015-03-07T18:25:07Z</time>
      </trkpt>
      <trkpt lat="45.32014" lon="5.76071">
        <ele>1735.8</ele>
        <time>2015-03-07T18:25:10Z</time>
      </trkpt>
      <trkpt lat="45.32007" lon="5.76074">
        <ele>1734.36</ele>
        <time>2015-03-07T18:25:12Z</time>
      </trkpt>
      <trkpt lat="45.32002" lon="5.76063">
        <ele>1731.95</ele>
        <time>2015-03-07T18:25:17Z</time>
      </trkpt>
      <trkpt lat="45.31993" lon="5.76061">
        <ele>1727.63</ele>
        <time>2015-03-07T18:25:20Z</time>
      </trkpt>
      <trkpt lat="45.31981" lon="5.76061">
        <ele>1723.78</ele>
        <time>2015-03-07T18:25:25Z</time>
      </trkpt>
      <trkpt lat="45.31982" lon="5.76058">
        <ele>1723.78</ele>
        <time>2015-03-07T18:25:26Z</time>
      </trkpt>
      <trkpt lat="45.31985" lon="5.76054">
        <ele>1723.3</ele>
        <time>2015-03-07T18:25:35Z</time>
      </trkpt>
      <trkpt lat="45.31985" lon="5.76053">
        <ele>1723.3</ele>
        <time>2015-03-07T18:25:40Z</time>
      </trkpt>
      <trkpt lat="45.31993" lon="5.76037">
        <ele>1719.94</ele>
        <time>2015-03-07T18:25:45Z</time>
      </trkpt>
      <trkpt lat="45.31997" lon="5.7603">
        <ele>1718.01</ele>
        <time>2015-03-07T18:25:47Z</time>
      </trkpt>
      <trkpt lat="45.32009" lon="5.76017">
        <ele>1714.65</ele>
        <time>2015-03-07T18:25:51Z</time>
      </trkpt>
      <trkpt lat="45.31998" lon="5.76009">
        <ele>1711.28</ele>
        <time>2015-03-07T18:25:55Z</time>
      </trkpt>
      <trkpt lat="45.3199" lon="5.76012">
        <ele>1710.32</ele>
        <time>2015-03-07T18:25:57Z</time>
      </trkpt>
      <trkpt lat="45.31987" lon="5.76001">
        <ele>1706.48</ele>
        <time>2015-03-07T18:26:01Z</time>
      </trkpt>
      <trkpt lat="45.31994" lon="5.7599">
        <ele>1703.59</ele>
        <time>2015-03-07T18:26:03Z</time>
      </trkpt>
      <trkpt lat="45.32001" lon="5.75981">
        <ele>1701.67</ele>
        <time>2015-03-07T18:26:05Z</time>
      </trkpt>
      <trkpt lat="45.32008" lon="5.75974">
        <ele>1699.75</ele>
        <time>2015-03-07T18:26:07Z</time>
      </trkpt>
      <trkpt lat="45.32009" lon="5.75957">
        <ele>1696.38</ele>
        <time>2015-03-07T18:26:11Z</time>
      </trkpt>
      <trkpt lat="45.32004" lon="5.75954">
        <ele>1696.38</ele>
        <time>2015-03-07T18:26:12Z</time>
      </trkpt>
      <trkpt lat="45.3199" lon="5.75955">
        <ele>1695.42</ele>
        <time>2015-03-07T18:26:15Z</time>
      </trkpt>
      <trkpt lat="45.31984" lon="5.75946">
        <ele>1690.62</ele>
        <time>2015-03-07T18:26:19Z</time>
      </trkpt>
      <trkpt lat="45.3199" lon="5.75934">
        <ele>1687.25</ele>
        <time>2015-03-07T18:26:21Z</time>
      </trkpt>
      <trkpt lat="45.31997" lon="5.7592">
        <ele>1687.25</ele>
        <time>2015-03-07T18:26:26Z</time>
      </trkpt>
      <trkpt lat="45.31996" lon="5.75921">
        <ele>1688.69</ele>
        <time>2015-03-07T18:26:28Z</time>
      </trkpt>
      <trkpt lat="45.31996" lon="5.75921">
        <ele>1689.17</ele>
        <time>2015-03-07T18:26:38Z</time>
      </trkpt>
      <trkpt lat="45.31981" lon="5.7592">
        <ele>1684.85</ele>
        <time>2015-03-07T18:26:43Z</time>
      </trkpt>
      <trkpt lat="45.31964" lon="5.75921">
        <ele>1681.96</ele>
        <time>2015-03-07T18:26:46Z</time>
      </trkpt>
      <trkpt lat="45.31955" lon="5.75908">
        <ele>1677.16</ele>
        <time>2015-03-07T18:26:48Z</time>
      </trkpt>
      <trkpt lat="45.31944" lon="5.75888">
        <ele>1679.08</ele>
        <time>2015-03-07T18:26:51Z</time>
      </trkpt>
      <trkpt lat="45.31933" lon="5.75872">
        <ele>1677.64</ele>
        <time>2015-03-07T18:26:54Z</time>
      </trkpt>
      <trkpt lat="45.31925" lon="5.7586">
        <ele>1675.72</ele>
        <time>2015-03-07T18:26:56Z</time>
      </trkpt>
      <trkpt lat="45.31915" lon="5.75832">
        <ele>1669.47</ele>
        <time>2015-03-07T18:26:59Z</time>
      </trkpt>
      <trkpt lat="45.31911" lon="5.75821">
        <ele>1664.66</ele>
        <time>2015-03-07T18:27:00Z</time>
      </trkpt>
      <trkpt lat="45.31904" lon="5.75798">
        <ele>1662.74</ele>
        <time>2015-03-07T18:27:02Z</time>
      </trkpt>
      <trkpt lat="45.31896" lon="5.75769">
        <ele>1665.14</ele>
        <time>2015-03-07T18:27:05Z</time>
      </trkpt>
      <trkpt lat="45.31883" lon="5.7572">
        <ele>1667.06</ele>
        <time>2015-03-07T18:27:12Z</time>
      </trkpt>
      <trkpt lat="45.31865" lon="5.75629">
        <ele>1664.66</ele>
        <time>2015-03-07T18:27:28Z</time>
      </trkpt>
      <trkpt lat="45.31857" lon="5.75605">
        <ele>1666.1</ele>
        <time>2015-03-07T18:27:34Z</time>
      </trkpt>
      <trkpt lat="45.31829" lon="5.75575">
        <ele>1664.66</ele>
        <time>2015-03-07T18:27:46Z</time>
      </trkpt>
      <trkpt lat="45.31796" lon="5.75568">
        <ele>1662.26</ele>
        <time>2015-03-07T18:27:56Z</time>
      </trkpt>
      <trkpt lat="45.3177" lon="5.75583">
        <ele>1660.33</ele>
        <time>2015-03-07T18:28:02Z</time>
      </trkpt>
      <trkpt lat="45.31736" lon="5.75572">
        <ele>1659.37</ele>
        <time>2015-03-07T18:28:10Z</time>
      </trkpt>
      <trkpt lat="45.31722" lon="5.75555">
        <ele>1656.97</ele>
        <time>2015-03-07T18:28:15Z</time>
      </trkpt>
      <trkpt lat="45.31709" lon="5.75544">
        <ele>1655.53</ele>
        <time>2015-03-07T18:28:18Z</time>
      </trkpt>
      <trkpt lat="45.31669" lon="5.75517">
        <ele>1653.6</ele>
        <time>2015-03-07T18:28:29Z</time>
      </trkpt>
      <trkpt lat="45.3163" lon="5.75473">
        <ele>1650.24</ele>
        <time>2015-03-07T18:28:41Z</time>
      </trkpt>
      <trkpt lat="45.31605" lon="5.75449">
        <ele>1648.8</ele>
        <time>2015-03-07T18:28:47Z</time>
      </trkpt>
      <trkpt lat="45.31589" lon="5.75441">
        <ele>1646.88</ele>
        <time>2015-03-07T18:28:50Z</time>
      </trkpt>
      <trkpt lat="45.31565" lon="5.75435">
        <ele>1646.4</ele>
        <time>2015-03-07T18:28:54Z</time>
      </trkpt>
      <trkpt lat="45.31552" lon="5.75424">
        <ele>1648.32</ele>
        <time>2015-03-07T18:29:00Z</time>
      </trkpt>
      <trkpt lat="45.31553" lon="5.75426">
        <ele>1648.32</ele>
        <time>2015-03-07T18:29:07Z</time>
      </trkpt>
      <trkpt lat="45.31543" lon="5.75426">
        <ele>1646.4</ele>
        <time>2015-03-07T18:29:11Z</time>
      </trkpt>
      <trkpt lat="45.31502" lon="5.75395">
        <ele>1642.55</ele>
        <time>2015-03-07T18:29:22Z</time>
      </trkpt>
      <trkpt lat="45.31478" lon="5.75385">
        <ele>1641.11</ele>
        <time>2015-03-07T18:29:27Z</time>
      </trkpt>
      <trkpt lat="45.31426" lon="5.75379">
        <ele>1637.74</ele>
        <time>2015-03-07T18:29:37Z</time>
      </trkpt>
      <trkpt lat="45.31414" lon="5.75378">
        <ele>1636.78</ele>
        <time>2015-03-07T18:29:39Z</time>
      </trkpt>
      <trkpt lat="45.31381" lon="5.75372">
        <ele>1637.74</ele>
        <time>2015-03-07T18:29:45Z</time>
      </trkpt>
      <trkpt lat="45.31362" lon="5.75371">
        <ele>1638.22</ele>
        <time>2015-03-07T18:29:49Z</time>
      </trkpt>
      <trkpt lat="45.31324" lon="5.75385">
        <ele>1637.74</ele>
        <time>2015-03-07T18:29:58Z</time>
      </trkpt>
      <trkpt lat="45.31317" lon="5.7539">
        <ele>1639.19</ele>
        <time>2015-03-07T18:30:00Z</time>
      </trkpt>
      <trkpt lat="45.3129" lon="5.75403">
        <ele>1638.7</ele>
        <time>2015-03-07T18:30:11Z</time>
      </trkpt>
      <trkpt lat="45.31243" lon="5.7543">
        <ele>1637.26</ele>
        <time>2015-03-07T18:30:25Z</time>
      </trkpt>
      <trkpt lat="45.31216" lon="5.7546">
        <ele>1636.3</ele>
        <time>2015-03-07T18:30:36Z</time>
      </trkpt>
      <trkpt lat="45.31205" lon="5.75471">
        <ele>1637.74</ele>
        <time>2015-03-07T18:30:42Z</time>
      </trkpt>
      <trkpt lat="45.31189" lon="5.75479">
        <ele>1636.3</ele>
        <time>2015-03-07T18:30:49Z</time>
      </trkpt>
      <trkpt lat="45.3116" lon="5.75475">
        <ele>1636.3</ele>
        <time>2015-03-07T18:31:01Z</time>
      </trkpt>
      <trkpt lat="45.31141" lon="5.75474">
        <ele>1637.74</ele>
        <time>2015-03-07T18:31:09Z</time>
      </trkpt>
      <trkpt lat="45.31125" lon="5.7547">
        <ele>1637.74</ele>
        <time>2015-03-07T18:31:16Z</time>
      </trkpt>
      <trkpt lat="45.31099" lon="5.75452">
        <ele>1638.22</ele>
        <time>2015-03-07T18:31:31Z</time>
      </trkpt>
      <trkpt lat="45.31086" lon="5.75441">
        <ele>1636.78</ele>
        <time>2015-03-07T18:31:42Z</time>
      </trkpt>
      <trkpt lat="45.31082" lon="5.75439">
        <ele>1635.82</ele>
        <time>2015-03-07T18:31:43Z</time>
      </trkpt>
      <trkpt lat="45.31074" lon="5.75432">
        <ele>1634.38</ele>
        <time>2015-03-07T18:31:45Z</time>
      </trkpt>
      <trkpt lat="45.3105" lon="5.75414">
        <ele>1630.05</ele>
        <time>2015-03-07T18:31:50Z</time>
      </trkpt>
      <trkpt lat="45.31039" lon="5.75408">
        <ele>1628.13</ele>
        <time>2015-03-07T18:31:52Z</time>
      </trkpt>
      <trkpt lat="45.31013" lon="5.75403">
        <ele>1624.28</ele>
        <time>2015-03-07T18:31:56Z</time>
      </trkpt>
      <trkpt lat="45.30979" lon="5.75404">
        <ele>1619.96</ele>
        <time>2015-03-07T18:32:01Z</time>
      </trkpt>
      <trkpt lat="45.30959" lon="5.75399">
        <ele>1615.63</ele>
        <time>2015-03-07T18:32:04Z</time>
      </trkpt>
      <trkpt lat="45.30935" lon="5.75378">
        <ele>1612.27</ele>
        <time>2015-03-07T18:32:08Z</time>
      </trkpt>
      <trkpt lat="45.30922" lon="5.75366">
        <ele>1610.83</ele>
        <time>2015-03-07T18:32:10Z</time>
      </trkpt>
      <trkpt lat="45.30903" lon="5.75349">
        <ele>1608.9</ele>
        <time>2015-03-07T18:32:13Z</time>
      </trkpt>
      <trkpt lat="45.30893" lon="5.75337">
        <ele>1607.46</ele>
        <time>2015-03-07T18:32:15Z</time>
      </trkpt>
      <trkpt lat="45.30873" lon="5.75327">
        <ele>1604.58</ele>
        <time>2015-03-07T18:32:18Z</time>
      </trkpt>
      <trkpt lat="45.30825" lon="5.75292">
        <ele>1600.73</ele>
        <time>2015-03-07T18:32:26Z</time>
      </trkpt>
      <trkpt lat="45.30813" lon="5.75283">
        <ele>1599.29</ele>
        <time>2015-03-07T18:32:28Z</time>
      </trkpt>
      <trkpt lat="45.3079" lon="5.75259">
        <ele>1595.93</ele>
        <time>2015-03-07T18:32:32Z</time>
      </trkpt>
      <trkpt lat="45.30779" lon="5.75244">
        <ele>1592.56</ele>
        <time>2015-03-07T18:32:34Z</time>
      </trkpt>
      <trkpt lat="45.30773" lon="5.75236">
        <ele>1591.6</ele>
        <time>2015-03-07T18:32:35Z</time>
      </trkpt>
      <trkpt lat="45.30763" lon="5.75219">
        <ele>1590.16</ele>
        <time>2015-03-07T18:32:37Z</time>
      </trkpt>
      <trkpt lat="45.30747" lon="5.75224">
        <ele>1587.27</ele>
        <time>2015-03-07T18:32:42Z</time>
      </trkpt>
      <trkpt lat="45.30757" lon="5.75248">
        <ele>1583.43</ele>
        <time>2015-03-07T18:32:46Z</time>
      </trkpt>
      <trkpt lat="45.3077" lon="5.75273">
        <ele>1579.58</ele>
        <time>2015-03-07T18:32:50Z</time>
      </trkpt>
      <trkpt lat="45.30789" lon="5.75293">
        <ele>1578.14</ele>
        <time>2015-03-07T18:32:58Z</time>
      </trkpt>
      <trkpt lat="45.30801" lon="5.75313">
        <ele>1575.26</ele>
        <time>2015-03-07T18:33:06Z</time>
      </trkpt>
      <trkpt lat="45.30803" lon="5.75318">
        <ele>1573.82</ele>
        <time>2015-03-07T18:33:07Z</time>
      </trkpt>
      <trkpt lat="45.3081" lon="5.75334">
        <ele>1571.89</ele>
        <time>2015-03-07T18:33:10Z</time>
      </trkpt>
      <trkpt lat="45.30816" lon="5.75347">
        <ele>1568.53</ele>
        <time>2015-03-07T18:33:12Z</time>
      </trkpt>
      <trkpt lat="45.3083" lon="5.75378">
        <ele>1564.68</ele>
        <time>2015-03-07T18:33:16Z</time>
      </trkpt>
      <trkpt lat="45.30846" lon="5.75405">
        <ele>1561.32</ele>
        <time>2015-03-07T18:33:20Z</time>
      </trkpt>
      <trkpt lat="45.30853" lon="5.75431">
        <ele>1558.43</ele>
        <time>2015-03-07T18:33:23Z</time>
      </trkpt>
      <trkpt lat="45.30871" lon="5.75476">
        <ele>1552.67</ele>
        <time>2015-03-07T18:33:28Z</time>
      </trkpt>
      <trkpt lat="45.30876" lon="5.75483">
        <ele>1552.67</ele>
        <time>2015-03-07T18:33:29Z</time>
      </trkpt>
      <trkpt lat="45.30891" lon="5.755">
        <ele>1551.22</ele>
        <time>2015-03-07T18:33:32Z</time>
      </trkpt>
      <trkpt lat="45.3089" lon="5.75516">
        <ele>1551.71</ele>
        <time>2015-03-07T18:33:36Z</time>
      </trkpt>
      <trkpt lat="45.30881" lon="5.75521">
        <ele>1549.3</ele>
        <time>2015-03-07T18:33:40Z</time>
      </trkpt>
      <trkpt lat="45.30865" lon="5.75514">
        <ele>1546.9</ele>
        <time>2015-03-07T18:33:44Z</time>
      </trkpt>
      <trkpt lat="45.3085" lon="5.75503">
        <ele>1542.09</ele>
        <time>2015-03-07T18:33:47Z</time>
      </trkpt>
      <trkpt lat="45.30844" lon="5.75498">
        <ele>1541.61</ele>
        <time>2015-03-07T18:33:48Z</time>
      </trkpt>
      <trkpt lat="45.30808" lon="5.7548">
        <ele>1535.36</ele>
        <time>2015-03-07T18:33:53Z</time>
      </trkpt>
      <trkpt lat="45.3078" lon="5.75464">
        <ele>1532.48</ele>
        <time>2015-03-07T18:33:57Z</time>
      </trkpt>
      <trkpt lat="45.30758" lon="5.75444">
        <ele>1529.11</ele>
        <time>2015-03-07T18:34:01Z</time>
      </trkpt>
      <trkpt lat="45.30732" lon="5.75421">
        <ele>1524.79</ele>
        <time>2015-03-07T18:34:06Z</time>
      </trkpt>
      <trkpt lat="45.30709" lon="5.75395">
        <ele>1519.5</ele>
        <time>2015-03-07T18:34:11Z</time>
      </trkpt>
      <trkpt lat="45.30704" lon="5.75388">
        <ele>1518.06</ele>
        <time>2015-03-07T18:34:12Z</time>
      </trkpt>
      <trkpt lat="45.30689" lon="5.7537">
        <ele>1515.66</ele>
        <time>2015-03-07T18:34:15Z</time>
      </trkpt>
      <trkpt lat="45.30666" lon="5.75354">
        <ele>1513.25</ele>
        <time>2015-03-07T18:34:19Z</time>
      </trkpt>
      <trkpt lat="45.3065" lon="5.75344">
        <ele>1509.89</ele>
        <time>2015-03-07T18:34:22Z</time>
      </trkpt>
      <trkpt lat="45.30639" lon="5.75336">
        <ele>1507.48</ele>
        <time>2015-03-07T18:34:24Z</time>
      </trkpt>
      <trkpt lat="45.30613" lon="5.75319">
        <ele>1503.16</ele>
        <time>2015-03-07T18:34:28Z</time>
      </trkpt>
      <trkpt lat="45.30586" lon="5.75304">
        <ele>1498.35</ele>
        <time>2015-03-07T18:34:32Z</time>
      </trkpt>
      <trkpt lat="45.30558" lon="5.75286">
        <ele>1493.55</ele>
        <time>2015-03-07T18:34:36Z</time>
      </trkpt>
      <trkpt lat="45.3055" lon="5.75283">
        <ele>1493.55</ele>
        <time>2015-03-07T18:34:37Z</time>
      </trkpt>
      <trkpt lat="45.30533" lon="5.75279">
        <ele>1491.14</ele>
        <time>2015-03-07T18:34:39Z</time>
      </trkpt>
      <trkpt lat="45.30509" lon="5.75279">
        <ele>1490.66</ele>
        <time>2015-03-07T18:34:42Z</time>
      </trkpt>
      <trkpt lat="45.30475" lon="5.75271">
        <ele>1491.14</ele>
        <time>2015-03-07T18:34:47Z</time>
      </trkpt>
      <trkpt lat="45.30458" lon="5.75274">
        <ele>1489.7</ele>
        <time>2015-03-07T18:34:50Z</time>
      </trkpt>
      <trkpt lat="45.30424" lon="5.75278">
        <ele>1487.78</ele>
        <time>2015-03-07T18:34:57Z</time>
      </trkpt>
      <trkpt lat="45.30407" lon="5.75291">
        <ele>1486.82</ele>
        <time>2015-03-07T18:35:01Z</time>
      </trkpt>
      <trkpt lat="45.30398" lon="5.75324">
        <ele>1483.45</ele>
        <time>2015-03-07T18:35:06Z</time>
      </trkpt>
      <trkpt lat="45.30406" lon="5.75321">
        <ele>1481.53</ele>
        <time>2015-03-07T18:35:09Z</time>
      </trkpt>
      <trkpt lat="45.30426" lon="5.75318">
        <ele>1479.61</ele>
        <time>2015-03-07T18:35:15Z</time>
      </trkpt>
      <trkpt lat="45.30453" lon="5.75333">
        <ele>1473.36</ele>
        <time>2015-03-07T18:35:21Z</time>
      </trkpt>
      <trkpt lat="45.30459" lon="5.75335">
        <ele>1472.88</ele>
        <time>2015-03-07T18:35:22Z</time>
      </trkpt>
      <trkpt lat="45.30478" lon="5.75343">
        <ele>1470.47</ele>
        <time>2015-03-07T18:35:25Z</time>
      </trkpt>
      <trkpt lat="45.30494" lon="5.75367">
        <ele>1467.11</ele>
        <time>2015-03-07T18:35:30Z</time>
      </trkpt>
      <trkpt lat="45.3049" lon="5.75368">
        <ele>1466.15</ele>
        <time>2015-03-07T18:35:31Z</time>
      </trkpt>
      <trkpt lat="45.30463" lon="5.75374">
        <ele>1463.26</ele>
        <time>2015-03-07T18:35:36Z</time>
      </trkpt>
      <trkpt lat="45.30443" lon="5.75376">
        <ele>1460.86</ele>
        <time>2015-03-07T18:35:39Z</time>
      </trkpt>
      <trkpt lat="45.30427" lon="5.75412">
        <ele>1456.05</ele>
        <time>2015-03-07T18:35:44Z</time>
      </trkpt>
      <trkpt lat="45.30427" lon="5.75428">
        <ele>1454.61</ele>
        <time>2015-03-07T18:35:46Z</time>
      </trkpt>
      <trkpt lat="45.30427" lon="5.75454">
        <ele>1452.69</ele>
        <time>2015-03-07T18:35:49Z</time>
      </trkpt>
      <trkpt lat="45.30426" lon="5.75495">
        <ele>1449.81</ele>
        <time>2015-03-07T18:35:54Z</time>
      </trkpt>
      <trkpt lat="45.30426" lon="5.75525">
        <ele>1446.44</ele>
        <time>2015-03-07T18:35:58Z</time>
      </trkpt>
      <trkpt lat="45.30426" lon="5.75531">
        <ele>1445.96</ele>
        <time>2015-03-07T18:35:59Z</time>
      </trkpt>
      <trkpt lat="45.30422" lon="5.75576">
        <ele>1443.56</ele>
        <time>2015-03-07T18:36:09Z</time>
      </trkpt>
      <trkpt lat="45.30424" lon="5.756">
        <ele>1441.15</ele>
        <time>2015-03-07T18:36:14Z</time>
      </trkpt>
      <trkpt lat="45.30425" lon="5.75605">
        <ele>1440.19</ele>
        <time>2015-03-07T18:36:15Z</time>
      </trkpt>
      <trkpt lat="45.30417" lon="5.75629">
        <ele>1437.79</ele>
        <time>2015-03-07T18:36:19Z</time>
      </trkpt>
      <trkpt lat="45.30415" lon="5.75635">
        <ele>1437.31</ele>
        <time>2015-03-07T18:36:20Z</time>
      </trkpt>
      <trkpt lat="45.30402" lon="5.75665">
        <ele>1432.98</ele>
        <time>2015-03-07T18:36:24Z</time>
      </trkpt>
      <trkpt lat="45.30381" lon="5.75666">
        <ele>1429.62</ele>
        <time>2015-03-07T18:36:28Z</time>
      </trkpt>
      <trkpt lat="45.30358" lon="5.7566">
        <ele>1425.77</ele>
        <time>2015-03-07T18:36:32Z</time>
      </trkpt>
      <trkpt lat="45.30339" lon="5.75654">
        <ele>1422.89</ele>
        <time>2015-03-07T18:36:35Z</time>
      </trkpt>
      <trkpt lat="45.30333" lon="5.75652">
        <ele>1422.89</ele>
        <time>2015-03-07T18:36:36Z</time>
      </trkpt>
      <trkpt lat="45.30305" lon="5.75645">
        <ele>1418.56</ele>
        <time>2015-03-07T18:36:41Z</time>
      </trkpt>
      <trkpt lat="45.30292" lon="5.7564">
        <ele>1416.64</ele>
        <time>2015-03-07T18:36:43Z</time>
      </trkpt>
      <trkpt lat="45.30268" lon="5.7561">
        <ele>1410.87</ele>
        <time>2015-03-07T18:36:47Z</time>
      </trkpt>
      <trkpt lat="45.30258" lon="5.75593">
        <ele>1408.95</ele>
        <time>2015-03-07T18:36:49Z</time>
      </trkpt>
      <trkpt lat="45.3023" lon="5.75555">
        <ele>1405.1</ele>
        <time>2015-03-07T18:36:54Z</time>
      </trkpt>
      <trkpt lat="45.30224" lon="5.75548">
        <ele>1403.66</ele>
        <time>2015-03-07T18:36:55Z</time>
      </trkpt>
      <trkpt lat="45.30197" lon="5.75522">
        <ele>1400.3</ele>
        <time>2015-03-07T18:36:59Z</time>
      </trkpt>
      <trkpt lat="45.30167" lon="5.75502">
        <ele>1395.01</ele>
        <time>2015-03-07T18:37:03Z</time>
      </trkpt>
      <trkpt lat="45.30145" lon="5.75484">
        <ele>1391.65</ele>
        <time>2015-03-07T18:37:06Z</time>
      </trkpt>
      <trkpt lat="45.30127" lon="5.75449">
        <ele>1390.68</ele>
        <time>2015-03-07T18:37:10Z</time>
      </trkpt>
      <trkpt lat="45.30118" lon="5.75434">
        <ele>1387.8</ele>
        <time>2015-03-07T18:37:12Z</time>
      </trkpt>
      <trkpt lat="45.30096" lon="5.75402">
        <ele>1382.03</ele>
        <time>2015-03-07T18:37:16Z</time>
      </trkpt>
      <trkpt lat="45.3009" lon="5.75394">
        <ele>1381.55</ele>
        <time>2015-03-07T18:37:17Z</time>
      </trkpt>
      <trkpt lat="45.3008" lon="5.75377">
        <ele>1379.15</ele>
        <time>2015-03-07T18:37:19Z</time>
      </trkpt>
      <trkpt lat="45.30061" lon="5.75351">
        <ele>1376.26</ele>
        <time>2015-03-07T18:37:22Z</time>
      </trkpt>
      <trkpt lat="45.30036" lon="5.75323">
        <ele>1372.9</ele>
        <time>2015-03-07T18:37:26Z</time>
      </trkpt>
      <trkpt lat="45.30023" lon="5.7531">
        <ele>1370.98</ele>
        <time>2015-03-07T18:37:28Z</time>
      </trkpt>
      <trkpt lat="45.3" lon="5.75283">
        <ele>1366.65</ele>
        <time>2015-03-07T18:37:32Z</time>
      </trkpt>
      <trkpt lat="45.29988" lon="5.75265">
        <ele>1364.25</ele>
        <time>2015-03-07T18:37:34Z</time>
      </trkpt>
      <trkpt lat="45.29979" lon="5.75246">
        <ele>1362.81</ele>
        <time>2015-03-07T18:37:36Z</time>
      </trkpt>
      <trkpt lat="45.29939" lon="5.75222">
        <ele>1360.4</ele>
        <time>2015-03-07T18:37:42Z</time>
      </trkpt>
      <trkpt lat="45.29932" lon="5.75226">
        <ele>1360.4</ele>
        <time>2015-03-07T18:37:43Z</time>
      </trkpt>
      <trkpt lat="45.29911" lon="5.75232">
        <ele>1359.44</ele>
        <time>2015-03-07T18:37:46Z</time>
      </trkpt>
      <trkpt lat="45.29874" lon="5.75231">
        <ele>1357.52</ele>
        <time>2015-03-07T18:37:52Z</time>
      </trkpt>
      <trkpt lat="45.29831" lon="5.75224">
        <ele>1355.6</ele>
        <time>2015-03-07T18:38:02Z</time>
      </trkpt>
      <trkpt lat="45.29812" lon="5.75243">
        <ele>1354.15</ele>
        <time>2015-03-07T18:38:06Z</time>
      </trkpt>
      <trkpt lat="45.29803" lon="5.75274">
        <ele>1350.31</ele>
        <time>2015-03-07T18:38:10Z</time>
      </trkpt>
      <trkpt lat="45.29801" lon="5.753">
        <ele>1348.39</ele>
        <time>2015-03-07T18:38:13Z</time>
      </trkpt>
      <trkpt lat="45.29802" lon="5.75317">
        <ele>1346.94</ele>
        <time>2015-03-07T18:38:15Z</time>
      </trkpt>
      <trkpt lat="45.29801" lon="5.7536">
        <ele>1343.58</ele>
        <time>2015-03-07T18:38:20Z</time>
      </trkpt>
      <trkpt lat="45.29803" lon="5.75398">
        <ele>1340.7</ele>
        <time>2015-03-07T18:38:24Z</time>
      </trkpt>
      <trkpt lat="45.29805" lon="5.75418">
        <ele>1338.77</ele>
        <time>2015-03-07T18:38:26Z</time>
      </trkpt>
      <trkpt lat="45.29811" lon="5.75458">
        <ele>1334.45</ele>
        <time>2015-03-07T18:38:30Z</time>
      </trkpt>
      <trkpt lat="45.29812" lon="5.75468">
        <ele>1333.97</ele>
        <time>2015-03-07T18:38:31Z</time>
      </trkpt>
      <trkpt lat="45.29807" lon="5.75517">
        <ele>1330.6</ele>
        <time>2015-03-07T18:38:36Z</time>
      </trkpt>
      <trkpt lat="45.29799" lon="5.75541">
        <ele>1329.16</ele>
        <time>2015-03-07T18:38:38Z</time>
      </trkpt>
      <trkpt lat="45.29781" lon="5.75563">
        <ele>1325.31</ele>
        <time>2015-03-07T18:38:41Z</time>
      </trkpt>
      <trkpt lat="45.29769" lon="5.75579">
        <ele>1323.39</ele>
        <time>2015-03-07T18:38:43Z</time>
      </trkpt>
      <trkpt lat="45.29749" lon="5.75627">
        <ele>1317.62</ele>
        <time>2015-03-07T18:38:48Z</time>
      </trkpt>
      <trkpt lat="45.29745" lon="5.75669">
        <ele>1315.22</ele>
        <time>2015-03-07T18:38:53Z</time>
      </trkpt>
      <trkpt lat="45.29746" lon="5.75699">
        <ele>1314.26</ele>
        <time>2015-03-07T18:38:57Z</time>
      </trkpt>
      <trkpt lat="45.29751" lon="5.7574">
        <ele>1311.38</ele>
        <time>2015-03-07T18:39:02Z</time>
      </trkpt>
      <trkpt lat="45.29747" lon="5.75793">
        <ele>1307.05</ele>
        <time>2015-03-07T18:39:07Z</time>
      </trkpt>
      <trkpt lat="45.29722" lon="5.7581">
        <ele>1302.72</ele>
        <time>2015-03-07T18:39:13Z</time>
      </trkpt>
      <trkpt lat="45.29718" lon="5.75812">
        <ele>1302.24</ele>
        <time>2015-03-07T18:39:14Z</time>
      </trkpt>
      <trkpt lat="45.29711" lon="5.75813">
        <ele>1300.8</ele>
        <time>2015-03-07T18:39:15Z</time>
      </trkpt>
      <trkpt lat="45.29682" lon="5.75835">
        <ele>1299.84</ele>
        <time>2015-03-07T18:39:21Z</time>
      </trkpt>
      <trkpt lat="45.29659" lon="5.75887">
        <ele>1301.76</ele>
        <time>2015-03-07T18:39:32Z</time>
      </trkpt>
      <trkpt lat="45.29652" lon="5.75913">
        <ele>1302.24</ele>
        <time>2015-03-07T18:39:38Z</time>
      </trkpt>
      <trkpt lat="45.29649" lon="5.75938">
        <ele>1302.24</ele>
        <time>2015-03-07T18:39:45Z</time>
      </trkpt>
      <trkpt lat="45.29644" lon="5.75952">
        <ele>1302.72</ele>
        <time>2015-03-07T18:39:51Z</time>
      </trkpt>
      <trkpt lat="45.29645" lon="5.75987">
        <ele>1302.72</ele>
        <time>2015-03-07T18:40:00Z</time>
      </trkpt>
      <trkpt lat="45.29638" lon="5.76033">
        <ele>1303.69</ele>
        <time>2015-03-07T18:40:12Z</time>
      </trkpt>
      <trkpt lat="45.29628" lon="5.76072">
        <ele>1303.69</ele>
        <time>2015-03-07T18:40:23Z</time>
      </trkpt>
      <trkpt lat="45.29617" lon="5.76098">
        <ele>1303.69</ele>
        <time>2015-03-07T18:40:29Z</time>
      </trkpt>
      <trkpt lat="45.29603" lon="5.76114">
        <ele>1303.69</ele>
        <time>2015-03-07T18:40:34Z</time>
      </trkpt>
      <trkpt lat="45.29579" lon="5.76128">
        <ele>1303.69</ele>
        <time>2015-03-07T18:40:44Z</time>
      </trkpt>
      <trkpt lat="45.29575" lon="5.76127">
        <ele>1303.69</ele>
        <time>2015-03-07T18:40:46Z</time>
      </trkpt>
      <trkpt lat="45.29556" lon="5.76124">
        <ele>1304.65</ele>
        <time>2015-03-07T18:40:57Z</time>
      </trkpt>
      <trkpt lat="45.2955" lon="5.76124">
        <ele>1304.17</ele>
        <time>2015-03-07T18:41:01Z</time>
      </trkpt>
      <trkpt lat="45.29539" lon="5.7613">
        <ele>1304.65</ele>
        <time>2015-03-07T18:41:06Z</time>
      </trkpt>
      <trkpt lat="45.29518" lon="5.7616">
        <ele>1305.61</ele>
        <time>2015-03-07T18:41:16Z</time>
      </trkpt>
      <trkpt lat="45.29511" lon="5.7618">
        <ele>1306.09</ele>
        <time>2015-03-07T18:41:23Z</time>
      </trkpt>
      <trkpt lat="45.29508" lon="5.76199">
        <ele>1306.09</ele>
        <time>2015-03-07T18:41:29Z</time>
      </trkpt>
      <trkpt lat="45.29506" lon="5.76232">
        <ele>1307.53</ele>
        <time>2015-03-07T18:41:39Z</time>
      </trkpt>
      <trkpt lat="45.29505" lon="5.76261">
        <ele>1308.01</ele>
        <time>2015-03-07T18:41:49Z</time>
      </trkpt>
      <trkpt lat="45.29505" lon="5.76267">
        <ele>1308.01</ele>
        <time>2015-03-07T18:41:51Z</time>
      </trkpt>
      <trkpt lat="45.29503" lon="5.76275">
        <ele>1308.97</ele>
        <time>2015-03-07T18:41:54Z</time>
      </trkpt>
      <trkpt lat="45.29487" lon="5.76297">
        <ele>1310.41</ele>
        <time>2015-03-07T18:42:05Z</time>
      </trkpt>
      <trkpt lat="45.29469" lon="5.7631">
        <ele>1311.38</ele>
        <time>2015-03-07T18:42:15Z</time>
      </trkpt>
      <trkpt lat="45.2946" lon="5.76315">
        <ele>1312.34</ele>
        <time>2015-03-07T18:42:20Z</time>
      </trkpt>
      <trkpt lat="45.29457" lon="5.76317">
        <ele>1312.34</ele>
        <time>2015-03-07T18:42:22Z</time>
      </trkpt>
      <trkpt lat="45.29441" lon="5.76329">
        <ele>1313.78</ele>
        <time>2015-03-07T18:42:33Z</time>
      </trkpt>
      <trkpt lat="45.29438" lon="5.76336">
        <ele>1313.78</ele>
        <time>2015-03-07T18:42:37Z</time>
      </trkpt>
      <trkpt lat="45.29433" lon="5.76344">
        <ele>1313.78</ele>
        <time>2015-03-07T18:42:42Z</time>
      </trkpt>
      <trkpt lat="45.2943" lon="5.7636">
        <ele>1314.26</ele>
        <time>2015-03-07T18:42:51Z</time>
      </trkpt>
      <trkpt lat="45.29433" lon="5.76378">
        <ele>1314.74</ele>
        <time>2015-03-07T18:43:00Z</time>
      </trkpt>
      <trkpt lat="45.29441" lon="5.76398">
        <ele>1315.22</ele>
        <time>2015-03-07T18:43:10Z</time>
      </trkpt>
      <trkpt lat="45.29446" lon="5.76407">
        <ele>1316.18</ele>
        <time>2015-03-07T18:43:16Z</time>
      </trkpt>
      <trkpt lat="45.29448" lon="5.76411">
        <ele>1316.18</ele>
        <time>2015-03-07T18:43:18Z</time>
      </trkpt>
      <trkpt lat="45.29456" lon="5.76435">
        <ele>1317.14</ele>
        <time>2015-03-07T18:43:29Z</time>
      </trkpt>
      <trkpt lat="45.29459" lon="5.76443">
        <ele>1317.14</ele>
        <time>2015-03-07T18:43:32Z</time>
      </trkpt>
      <trkpt lat="45.29462" lon="5.7645">
        <ele>1317.14</ele>
        <time>2015-03-07T18:43:35Z</time>
      </trkpt>
      <trkpt lat="45.29466" lon="5.7647">
        <ele>1318.59</ele>
        <time>2015-03-07T18:43:46Z</time>
      </trkpt>
      <trkpt lat="45.2946" lon="5.76493">
        <ele>1320.03</ele>
        <time>2015-03-07T18:43:58Z</time>
      </trkpt>
      <trkpt lat="45.29464" lon="5.76496">
        <ele>1320.03</ele>
        <time>2015-03-07T18:44:16Z</time>
      </trkpt>
      <trkpt lat="45.29465" lon="5.76499">
        <ele>1320.03</ele>
        <time>2015-03-07T18:44:41Z</time>
      </trkpt>
      <trkpt lat="45.2946" lon="5.76516">
        <ele>1318.59</ele>
        <time>2015-03-07T18:44:50Z</time>
      </trkpt>
      <trkpt lat="45.29465" lon="5.76544">
        <ele>1317.14</ele>
        <time>2015-03-07T18:45:04Z</time>
      </trkpt>
      <trkpt lat="45.2946" lon="5.76595">
        <ele>1314.74</ele>
        <time>2015-03-07T18:45:19Z</time>
      </trkpt>
      <trkpt lat="45.29448" lon="5.7663">
        <ele>1312.34</ele>
        <time>2015-03-07T18:45:29Z</time>
      </trkpt>
      <trkpt lat="45.29425" lon="5.76655">
        <ele>1309.93</ele>
        <time>2015-03-07T18:45:42Z</time>
      </trkpt>
      <trkpt lat="45.29398" lon="5.76671">
        <ele>1307.05</ele>
        <time>2015-03-07T18:45:54Z</time>
      </trkpt>
      <trkpt lat="45.29371" lon="5.76684">
        <ele>1305.13</ele>
        <time>2015-03-07T18:46:07Z</time>
      </trkpt>
      <trkpt lat="45.2934" lon="5.76699">
        <ele>1302.24</ele>
        <time>2015-03-07T18:46:19Z</time>
      </trkpt>
      <trkpt lat="45.29311" lon="5.76721">
        <ele>1300.32</ele>
        <time>2015-03-07T18:46:31Z</time>
      </trkpt>
      <trkpt lat="45.29299" lon="5.76728">
        <ele>1299.36</ele>
        <time>2015-03-07T18:46:38Z</time>
      </trkpt>
      <trkpt lat="45.29295" lon="5.76729">
        <ele>1299.36</ele>
        <time>2015-03-07T18:46:43Z</time>
      </trkpt>
      <trkpt lat="45.29289" lon="5.76727">
        <ele>1298.4</ele>
        <time>2015-03-07T18:46:57Z</time>
      </trkpt>
      <trkpt lat="45.29288" lon="5.76728">
        <ele>1297.44</ele>
        <time>2015-03-07T18:47:04Z</time>
      </trkpt>
      <trkpt lat="45.29288" lon="5.76728">
        <ele>1301.28</ele>
        <time>2015-03-07T18:47:05Z</time>
      </trkpt>
      <trkpt lat="45.29288" lon="5.76728">
        <ele>1298.88</ele>
        <time>2015-03-07T18:47:06Z</time>
      </trkpt>
      <trkpt lat="45.29285" lon="5.76719">
        <ele>1298.4</ele>
        <time>2015-03-07T18:47:22Z</time>
      </trkpt>
      <trkpt lat="45.29277" lon="5.7672">
        <ele>1297.92</ele>
        <time>2015-03-07T18:47:28Z</time>
      </trkpt>
      <trkpt lat="45.29259" lon="5.7673">
        <ele>1296.96</ele>
        <time>2015-03-07T18:47:44Z</time>
      </trkpt>
      <trkpt lat="45.29248" lon="5.76733">
        <ele>1296.48</ele>
        <time>2015-03-07T18:47:54Z</time>
      </trkpt>
      <trkpt lat="45.2924" lon="5.7673">
        <ele>1297.92</ele>
        <time>2015-03-07T18:48:02Z</time>
      </trkpt>
      <trkpt lat="45.29236" lon="5.7673">
        <ele>1297.92</ele>
        <time>2015-03-07T18:48:05Z</time>
      </trkpt>
      <trkpt lat="45.29233" lon="5.76729">
        <ele>1297.92</ele>
        <time>2015-03-07T18:48:08Z</time>
      </trkpt>
      <trkpt lat="45.29228" lon="5.76729">
        <ele>1298.4</ele>
        <time>2015-03-07T18:48:12Z</time>
      </trkpt>
      <trkpt lat="45.29222" lon="5.76724">
        <ele>1298.88</ele>
        <time>2015-03-07T18:48:18Z</time>
      </trkpt>
      <trkpt lat="45.29216" lon="5.76718">
        <ele>1299.36</ele>
        <time>2015-03-07T18:48:24Z</time>
      </trkpt>
      <trkpt lat="45.29201" lon="5.76711">
        <ele>1300.8</ele>
        <time>2015-03-07T18:48:37Z</time>
      </trkpt>
      <trkpt lat="45.29185" lon="5.76709">
        <ele>1301.76</ele>
        <time>2015-03-07T18:48:51Z</time>
      </trkpt>
      <trkpt lat="45.29166" lon="5.76711">
        <ele>1303.2</ele>
        <time>2015-03-07T18:49:07Z</time>
      </trkpt>
      <trkpt lat="45.29157" lon="5.76713">
        <ele>1304.17</ele>
        <time>2015-03-07T18:49:14Z</time>
      </trkpt>
      <trkpt lat="45.29151" lon="5.76714">
        <ele>1304.65</ele>
        <time>2015-03-07T18:49:19Z</time>
      </trkpt>
      <trkpt lat="45.29134" lon="5.76713">
        <ele>1306.09</ele>
        <time>2015-03-07T18:49:34Z</time>
      </trkpt>
      <trkpt lat="45.29117" lon="5.76714">
        <ele>1307.05</ele>
        <time>2015-03-07T18:49:50Z</time>
      </trkpt>
      <trkpt lat="45.29103" lon="5.76711">
        <ele>1308.01</ele>
        <time>2015-03-07T18:50:04Z</time>
      </trkpt>
      <trkpt lat="45.29097" lon="5.76709">
        <ele>1308.49</ele>
        <time>2015-03-07T18:50:10Z</time>
      </trkpt>
      <trkpt lat="45.2908" lon="5.76704">
        <ele>1309.93</ele>
        <time>2015-03-07T18:50:26Z</time>
      </trkpt>
      <trkpt lat="45.29065" lon="5.76702">
        <ele>1310.9</ele>
        <time>2015-03-07T18:50:41Z</time>
      </trkpt>
      <trkpt lat="45.29052" lon="5.76701">
        <ele>1311.38</ele>
        <time>2015-03-07T18:50:54Z</time>
      </trkpt>
      <trkpt lat="45.29039" lon="5.76699">
        <ele>1312.82</ele>
        <time>2015-03-07T18:51:07Z</time>
      </trkpt>
      <trkpt lat="45.29023" lon="5.76699">
        <ele>1313.78</ele>
        <time>2015-03-07T18:51:21Z</time>
      </trkpt>
      <trkpt lat="45.29007" lon="5.76699">
        <ele>1314.74</ele>
        <time>2015-03-07T18:51:37Z</time>
      </trkpt>
      <trkpt lat="45.28992" lon="5.76699">
        <ele>1315.22</ele>
        <time>2015-03-07T18:51:51Z</time>
      </trkpt>
      <trkpt lat="45.28979" lon="5.76711">
        <ele>1315.7</ele>
        <time>2015-03-07T18:52:04Z</time>
      </trkpt>
      <trkpt lat="45.28978" lon="5.76712">
        <ele>1315.7</ele>
        <time>2015-03-07T18:52:05Z</time>
      </trkpt>
      <trkpt lat="45.28974" lon="5.76713">
        <ele>1316.18</ele>
        <time>2015-03-07T18:52:22Z</time>
      </trkpt>
      <trkpt lat="45.28975" lon="5.76714">
        <ele>1317.62</ele>
        <time>2015-03-07T18:52:47Z</time>
      </trkpt>
      <trkpt lat="45.2898" lon="5.76717">
        <ele>1317.62</ele>
        <time>2015-03-07T18:53:12Z</time>
      </trkpt>
      <trkpt lat="45.28979" lon="5.76719">
        <ele>1317.62</ele>
        <time>2015-03-07T18:53:38Z</time>
      </trkpt>
      <trkpt lat="45.28979" lon="5.76718">
        <ele>1318.1</ele>
        <time>2015-03-07T18:54:09Z</time>
      </trkpt>
      <trkpt lat="45.28979" lon="5.76718">
        <ele>1316.66</ele>
        <time>2015-03-07T18:54:25Z</time>
      </trkpt>
      <trkpt lat="45.28977" lon="5.76716">
        <ele>1317.14</ele>
        <time>2015-03-07T18:54:51Z</time>
      </trkpt>
      <trkpt lat="45.28979" lon="5.76716">
        <ele>1317.14</ele>
        <time>2015-03-07T18:55:14Z</time>
      </trkpt>
      <trkpt lat="45.2898" lon="5.76719">
        <ele>1317.14</ele>
        <time>2015-03-07T18:55:39Z</time>
      </trkpt>
      <trkpt lat="45.28977" lon="5.76723">
        <ele>1317.62</ele>
        <time>2015-03-07T18:56:05Z</time>
      </trkpt>
      <trkpt lat="45.28976" lon="5.7672">
        <ele>1317.62</ele>
        <time>2015-03-07T18:56:33Z</time>
      </trkpt>
      <trkpt lat="45.28974" lon="5.76715">
        <ele>1317.62</ele>
        <time>2015-03-07T18:56:57Z</time>
      </trkpt>
      <trkpt lat="45.28974" lon="5.76714">
        <ele>1318.1</ele>
        <time>2015-03-07T18:57:27Z</time>
      </trkpt>
      <trkpt lat="45.28976" lon="5.76719">
        <ele>1318.1</ele>
        <time>2015-03-07T18:57:49Z</time>
      </trkpt>
      <trkpt lat="45.28976" lon="5.76717">
        <ele>1318.1</ele>
        <time>2015-03-07T18:58:11Z</time>
      </trkpt>
      <trkpt lat="45.28976" lon="5.76716">
        <ele>1318.1</ele>
        <time>2015-03-07T18:58:30Z</time>
      </trkpt>
      <trkpt lat="45.2898" lon="5.76716">
        <ele>1318.1</ele>
        <time>2015-03-07T18:59:00Z</time>
      </trkpt>
      <trkpt lat="45.28983" lon="5.76716">
        <ele>1318.1</ele>
        <time>2015-03-07T18:59:27Z</time>
      </trkpt>
      <trkpt lat="45.28982" lon="5.76718">
        <ele>1318.1</ele>
        <time>2015-03-07T19:00:00Z</time>
      </trkpt>
      <trkpt lat="45.28983" lon="5.76722">
        <ele>1318.1</ele>
        <time>2015-03-07T19:00:25Z</time>
      </trkpt>
      <trkpt lat="45.28981" lon="5.76719">
        <ele>1318.1</ele>
        <time>2015-03-07T19:00:50Z</time>
      </trkpt>
      <trkpt lat="45.28982" lon="5.76721">
        <ele>1318.1</ele>
        <time>2015-03-07T19:01:14Z</time>
      </trkpt>
      <trkpt lat="45.28982" lon="5.76718">
        <ele>1318.1</ele>
        <time>2015-03-07T19:01:42Z</time>
      </trkpt>
      <trkpt lat="45.28987" lon="5.76721">
        <ele>1318.1</ele>
        <time>2015-03-07T19:01:57Z</time>
      </trkpt>
      <trkpt lat="45.28975" lon="5.76713">
        <ele>1320.03</ele>
        <time>2015-03-07T19:02:13Z</time>
      </trkpt>
      <trkpt lat="45.28976" lon="5.76715">
        <ele>1318.59</ele>
        <time>2015-03-07T19:02:36Z</time>
      </trkpt>
      <trkpt lat="45.28978" lon="5.76716">
        <ele>1318.59</ele>
        <time>2015-03-07T19:03:01Z</time>
      </trkpt>
      <trkpt lat="45.28976" lon="5.76715">
        <ele>1318.1</ele>
        <time>2015-03-07T19:03:29Z</time>
      </trkpt>
      <trkpt lat="45.28977" lon="5.76717">
        <ele>1318.1</ele>
        <time>2015-03-07T19:03:51Z</time>
      </trkpt>
      <trkpt lat="45.28979" lon="5.76721">
        <ele>1318.59</ele>
        <time>2015-03-07T19:04:18Z</time>
      </trkpt>
      <trkpt lat="45.28981" lon="5.76721">
        <ele>1318.59</ele>
        <time>2015-03-07T19:04:35Z</time>
      </trkpt>
      <trkpt lat="45.28979" lon="5.76719">
        <ele>1319.55</ele>
        <time>2015-03-07T19:04:54Z</time>
      </trkpt>
      <trkpt lat="45.28977" lon="5.76715">
        <ele>1319.55</ele>
        <time>2015-03-07T19:05:13Z</time>
      </trkpt>
      <trkpt lat="45.28978" lon="5.76719">
        <ele>1318.1</ele>
        <time>2015-03-07T19:05:19Z</time>
      </trkpt>
      <trkpt lat="45.28978" lon="5.76719">
        <ele>1320.03</ele>
        <time>2015-03-07T19:05:21Z</time>
      </trkpt>
      <trkpt lat="45.28978" lon="5.76722">
        <ele>1318.59</ele>
        <time>2015-03-07T19:05:49Z</time>
      </trkpt>
      <trkpt lat="45.28975" lon="5.76716">
        <ele>1318.59</ele>
        <time>2015-03-07T19:06:06Z</time>
      </trkpt>
      <trkpt lat="45.28983" lon="5.76724">
        <ele>1318.59</ele>
        <time>2015-03-07T19:06:20Z</time>
      </trkpt>
      <trkpt lat="45.28982" lon="5.76724">
        <ele>1318.59</ele>
        <time>2015-03-07T19:06:45Z</time>
      </trkpt>
      <trkpt lat="45.28976" lon="5.76716">
        <ele>1318.59</ele>
        <time>2015-03-07T19:06:58Z</time>
      </trkpt>
      <trkpt lat="45.28977" lon="5.76718">
        <ele>1319.55</ele>
        <time>2015-03-07T19:07:21Z</time>
      </trkpt>
      <trkpt lat="45.28975" lon="5.76713">
        <ele>1319.55</ele>
        <time>2015-03-07T19:07:46Z</time>
      </trkpt>
      <trkpt lat="45.28975" lon="5.76716">
        <ele>1318.59</ele>
        <time>2015-03-07T19:08:01Z</time>
      </trkpt>
      <trkpt lat="45.28974" lon="5.76715">
        <ele>1318.59</ele>
        <time>2015-03-07T19:08:25Z</time>
      </trkpt>
      <trkpt lat="45.28974" lon="5.76714">
        <ele>1318.59</ele>
        <time>2015-03-07T19:08:53Z</time>
      </trkpt>
      <trkpt lat="45.28975" lon="5.76717">
        <ele>1318.59</ele>
        <time>2015-03-07T19:09:27Z</time>
      </trkpt>
      <trkpt lat="45.28971" lon="5.76715">
        <ele>1318.59</ele>
        <time>2015-03-07T19:09:56Z</time>
      </trkpt>
      <trkpt lat="45.28969" lon="5.76713">
        <ele>1318.59</ele>
        <time>2015-03-07T19:10:21Z</time>
      </trkpt>
      <trkpt lat="45.2897" lon="5.76715">
        <ele>1318.59</ele>
        <time>2015-03-07T19:10:54Z</time>
      </trkpt>
      <trkpt lat="45.28971" lon="5.76713">
        <ele>1318.59</ele>
        <time>2015-03-07T19:11:21Z</time>
      </trkpt>
      <trkpt lat="45.28971" lon="5.76715">
        <ele>1319.07</ele>
        <time>2015-03-07T19:11:51Z</time>
      </trkpt>
      <trkpt lat="45.28972" lon="5.76714">
        <ele>1320.03</ele>
        <time>2015-03-07T19:12:16Z</time>
      </trkpt>
      <trkpt lat="45.28974" lon="5.76716">
        <ele>1320.03</ele>
        <time>2015-03-07T19:12:32Z</time>
      </trkpt>
      <trkpt lat="45.2897" lon="5.76724">
        <ele>1319.07</ele>
        <time>2015-03-07T19:12:51Z</time>
      </trkpt>
      <trkpt lat="45.28961" lon="5.76736">
        <ele>1319.07</ele>
        <time>2015-03-07T19:13:04Z</time>
      </trkpt>
      <trkpt lat="45.28949" lon="5.76753">
        <ele>1319.07</ele>
        <time>2015-03-07T19:13:21Z</time>
      </trkpt>
      <trkpt lat="45.28944" lon="5.7676">
        <ele>1320.03</ele>
        <time>2015-03-07T19:13:37Z</time>
      </trkpt>
      <trkpt lat="45.28944" lon="5.76758">
        <ele>1319.55</ele>
        <time>2015-03-07T19:13:56Z</time>
      </trkpt>
      <trkpt lat="45.28941" lon="5.7676">
        <ele>1319.55</ele>
        <time>2015-03-07T19:14:20Z</time>
      </trkpt>
      <trkpt lat="45.2894" lon="5.76759">
        <ele>1320.99</ele>
        <time>2015-03-07T19:14:32Z</time>
      </trkpt>
      <trkpt lat="45.28941" lon="5.76759">
        <ele>1318.59</ele>
        <time>2015-03-07T19:14:34Z</time>
      </trkpt>
      <trkpt lat="45.28946" lon="5.76753">
        <ele>1322.91</ele>
        <time>2015-03-07T19:14:46Z</time>
      </trkpt>
      <trkpt lat="45.28942" lon="5.76754">
        <ele>1319.55</ele>
        <time>2015-03-07T19:14:50Z</time>
      </trkpt>
      <trkpt lat="45.28942" lon="5.76757">
        <ele>1320.99</ele>
        <time>2015-03-07T19:14:58Z</time>
      </trkpt>
      <trkpt lat="45.28941" lon="5.76759">
        <ele>1320.51</ele>
        <time>2015-03-07T19:15:19Z</time>
      </trkpt>
      <trkpt lat="45.2894" lon="5.76759">
        <ele>1320.51</ele>
        <time>2015-03-07T19:15:41Z</time>
      </trkpt>
      <trkpt lat="45.2894" lon="5.76758">
        <ele>1318.59</ele>
        <time>2015-03-07T19:15:44Z</time>
      </trkpt>
      <trkpt lat="45.2894" lon="5.76757">
        <ele>1322.43</ele>
        <time>2015-03-07T19:15:46Z</time>
      </trkpt>
      <trkpt lat="45.28939" lon="5.76761">
        <ele>1320.03</ele>
        <time>2015-03-07T19:16:03Z</time>
      </trkpt>
      <trkpt lat="45.2894" lon="5.76758">
        <ele>1320.51</ele>
        <time>2015-03-07T19:16:28Z</time>
      </trkpt>
      <trkpt lat="45.28938" lon="5.76762">
        <ele>1320.03</ele>
        <time>2015-03-07T19:16:40Z</time>
      </trkpt>
      <trkpt lat="45.28929" lon="5.76769">
        <ele>1320.03</ele>
        <time>2015-03-07T19:17:00Z</time>
      </trkpt>
      <trkpt lat="45.28924" lon="5.76775">
        <ele>1320.03</ele>
        <time>2015-03-07T19:17:29Z</time>
      </trkpt>
      <trkpt lat="45.28914" lon="5.76785">
        <ele>1320.03</ele>
        <time>2015-03-07T19:17:44Z</time>
      </trkpt>
      <trkpt lat="45.28897" lon="5.76801">
        <ele>1320.51</ele>
        <time>2015-03-07T19:18:02Z</time>
      </trkpt>
      <trkpt lat="45.28882" lon="5.76821">
        <ele>1320.51</ele>
        <time>2015-03-07T19:18:18Z</time>
      </trkpt>
      <trkpt lat="45.28876" lon="5.76847">
        <ele>1320.51</ele>
        <time>2015-03-07T19:18:33Z</time>
      </trkpt>
      <trkpt lat="45.28876" lon="5.76869">
        <ele>1320.51</ele>
        <time>2015-03-07T19:18:48Z</time>
      </trkpt>
      <trkpt lat="45.28871" lon="5.76893">
        <ele>1322.43</ele>
        <time>2015-03-07T19:19:05Z</time>
      </trkpt>
      <trkpt lat="45.28862" lon="5.76915">
        <ele>1325.31</ele>
        <time>2015-03-07T19:19:23Z</time>
      </trkpt>
      <trkpt lat="45.28854" lon="5.76933">
        <ele>1327.72</ele>
        <time>2015-03-07T19:19:40Z</time>
      </trkpt>
      <trkpt lat="45.28844" lon="5.7695">
        <ele>1329.64</ele>
        <time>2015-03-07T19:19:56Z</time>
      </trkpt>
      <trkpt lat="45.28834" lon="5.76968">
        <ele>1332.04</ele>
        <time>2015-03-07T19:20:14Z</time>
      </trkpt>
      <trkpt lat="45.28826" lon="5.76983">
        <ele>1333.97</ele>
        <time>2015-03-07T19:20:31Z</time>
      </trkpt>
      <trkpt lat="45.28819" lon="5.77">
        <ele>1336.37</ele>
        <time>2015-03-07T19:20:49Z</time>
      </trkpt>
      <trkpt lat="45.28814" lon="5.77017">
        <ele>1339.25</ele>
        <time>2015-03-07T19:21:05Z</time>
      </trkpt>
      <trkpt lat="45.28808" lon="5.77033">
        <ele>1341.18</ele>
        <time>2015-03-07T19:21:22Z</time>
      </trkpt>
      <trkpt lat="45.28803" lon="5.7705">
        <ele>1343.1</ele>
        <time>2015-03-07T19:21:37Z</time>
      </trkpt>
      <trkpt lat="45.288" lon="5.77065">
        <ele>1345.5</ele>
        <time>2015-03-07T19:21:51Z</time>
      </trkpt>
      <trkpt lat="45.28798" lon="5.7708">
        <ele>1346.94</ele>
        <time>2015-03-07T19:22:06Z</time>
      </trkpt>
      <trkpt lat="45.28795" lon="5.77095">
        <ele>1348.87</ele>
        <time>2015-03-07T19:22:20Z</time>
      </trkpt>
      <trkpt lat="45.28793" lon="5.77109">
        <ele>1351.75</ele>
        <time>2015-03-07T19:22:34Z</time>
      </trkpt>
      <trkpt lat="45.28788" lon="5.77124">
        <ele>1353.19</ele>
        <time>2015-03-07T19:22:48Z</time>
      </trkpt>
      <trkpt lat="45.28785" lon="5.77137">
        <ele>1355.6</ele>
        <time>2015-03-07T19:23:01Z</time>
      </trkpt>
      <trkpt lat="45.28784" lon="5.77152">
        <ele>1357.04</ele>
        <time>2015-03-07T19:23:16Z</time>
      </trkpt>
      <trkpt lat="45.2878" lon="5.77171">
        <ele>1358.48</ele>
        <time>2015-03-07T19:23:33Z</time>
      </trkpt>
      <trkpt lat="45.28774" lon="5.77185">
        <ele>1361.36</ele>
        <time>2015-03-07T19:23:50Z</time>
      </trkpt>
      <trkpt lat="45.28768" lon="5.772">
        <ele>1363.29</ele>
        <time>2015-03-07T19:24:05Z</time>
      </trkpt>
      <trkpt lat="45.28764" lon="5.77213">
        <ele>1366.17</ele>
        <time>2015-03-07T19:24:20Z</time>
      </trkpt>
      <trkpt lat="45.28761" lon="5.7722">
        <ele>1369.05</ele>
        <time>2015-03-07T19:24:30Z</time>
      </trkpt>
      <trkpt lat="45.2876" lon="5.77221">
        <ele>1370.02</ele>
        <time>2015-03-07T19:24:32Z</time>
      </trkpt>
      <trkpt lat="45.28752" lon="5.77238">
        <ele>1371.46</ele>
        <time>2015-03-07T19:24:51Z</time>
      </trkpt>
      <trkpt lat="45.28744" lon="5.77253">
        <ele>1372.9</ele>
        <time>2015-03-07T19:25:08Z</time>
      </trkpt>
      <trkpt lat="45.28739" lon="5.77266">
        <ele>1376.26</ele>
        <time>2015-03-07T19:25:24Z</time>
      </trkpt>
      <trkpt lat="45.28729" lon="5.7728">
        <ele>1379.15</ele>
        <time>2015-03-07T19:25:40Z</time>
      </trkpt>
      <trkpt lat="45.28728" lon="5.77285">
        <ele>1380.11</ele>
        <time>2015-03-07T19:25:58Z</time>
      </trkpt>
      <trkpt lat="45.2872" lon="5.77297">
        <ele>1383.47</ele>
        <time>2015-03-07T19:26:14Z</time>
      </trkpt>
      <trkpt lat="45.28713" lon="5.77308">
        <ele>1386.36</ele>
        <time>2015-03-07T19:26:31Z</time>
      </trkpt>
      <trkpt lat="45.28708" lon="5.77318">
        <ele>1389.24</ele>
        <time>2015-03-07T19:26:49Z</time>
      </trkpt>
      <trkpt lat="45.2871" lon="5.7732">
        <ele>1389.24</ele>
        <time>2015-03-07T19:27:06Z</time>
      </trkpt>
      <trkpt lat="45.28708" lon="5.77318">
        <ele>1389.24</ele>
        <time>2015-03-07T19:27:37Z</time>
      </trkpt>
      <trkpt lat="45.28706" lon="5.7732">
        <ele>1389.72</ele>
        <time>2015-03-07T19:27:59Z</time>
      </trkpt>
      <trkpt lat="45.28708" lon="5.77323">
        <ele>1389.24</ele>
        <time>2015-03-07T19:28:30Z</time>
      </trkpt>
      <trkpt lat="45.28707" lon="5.77325">
        <ele>1389.24</ele>
        <time>2015-03-07T19:28:57Z</time>
      </trkpt>
      <trkpt lat="45.28705" lon="5.77328">
        <ele>1390.68</ele>
        <time>2015-03-07T19:29:14Z</time>
      </trkpt>
      <trkpt lat="45.28699" lon="5.77335">
        <ele>1394.05</ele>
        <time>2015-03-07T19:29:32Z</time>
      </trkpt>
      <trkpt lat="45.28693" lon="5.77344">
        <ele>1397.41</ele>
        <time>2015-03-07T19:29:50Z</time>
      </trkpt>
      <trkpt lat="45.28686" lon="5.77352">
        <ele>1400.78</ele>
        <time>2015-03-07T19:30:05Z</time>
      </trkpt>
      <trkpt lat="45.28682" lon="5.77363">
        <ele>1403.66</ele>
        <time>2015-03-07T19:30:20Z</time>
      </trkpt>
      <trkpt lat="45.28675" lon="5.77374">
        <ele>1407.03</ele>
        <time>2015-03-07T19:30:36Z</time>
      </trkpt>
      <trkpt lat="45.28665" lon="5.77386">
        <ele>1409.43</ele>
        <time>2015-03-07T19:30:54Z</time>
      </trkpt>
      <trkpt lat="45.28662" lon="5.77398">
        <ele>1412.31</ele>
        <time>2015-03-07T19:31:12Z</time>
      </trkpt>
      <trkpt lat="45.28669" lon="5.77412">
        <ele>1415.68</ele>
        <time>2015-03-07T19:31:29Z</time>
      </trkpt>
      <trkpt lat="45.2866" lon="5.77417">
        <ele>1418.56</ele>
        <time>2015-03-07T19:31:46Z</time>
      </trkpt>
      <trkpt lat="45.28645" lon="5.77418">
        <ele>1420.97</ele>
        <time>2015-03-07T19:32:06Z</time>
      </trkpt>
      <trkpt lat="45.28632" lon="5.77416">
        <ele>1423.85</ele>
        <time>2015-03-07T19:32:23Z</time>
      </trkpt>
      <trkpt lat="45.28635" lon="5.77429">
        <ele>1426.25</ele>
        <time>2015-03-07T19:32:38Z</time>
      </trkpt>
      <trkpt lat="45.28646" lon="5.77448">
        <ele>1428.66</ele>
        <time>2015-03-07T19:32:57Z</time>
      </trkpt>
      <trkpt lat="45.28654" lon="5.77463">
        <ele>1430.58</ele>
        <time>2015-03-07T19:33:14Z</time>
      </trkpt>
      <trkpt lat="45.28651" lon="5.77467">
        <ele>1432.5</ele>
        <time>2015-03-07T19:33:29Z</time>
      </trkpt>
      <trkpt lat="45.28638" lon="5.77461">
        <ele>1435.39</ele>
        <time>2015-03-07T19:33:47Z</time>
      </trkpt>
      <trkpt lat="45.28623" lon="5.77455">
        <ele>1438.27</ele>
        <time>2015-03-07T19:34:07Z</time>
      </trkpt>
      <trkpt lat="45.28619" lon="5.77458">
        <ele>1440.19</ele>
        <time>2015-03-07T19:34:23Z</time>
      </trkpt>
      <trkpt lat="45.2862" lon="5.77461">
        <ele>1440.19</ele>
        <time>2015-03-07T19:34:51Z</time>
      </trkpt>
      <trkpt lat="45.28631" lon="5.77478">
        <ele>1442.6</ele>
        <time>2015-03-07T19:35:08Z</time>
      </trkpt>
      <trkpt lat="45.2864" lon="5.77496">
        <ele>1444.52</ele>
        <time>2015-03-07T19:35:27Z</time>
      </trkpt>
      <trkpt lat="45.28648" lon="5.77517">
        <ele>1446.44</ele>
        <time>2015-03-07T19:35:48Z</time>
      </trkpt>
      <trkpt lat="45.2864" lon="5.77517">
        <ele>1448.36</ele>
        <time>2015-03-07T19:36:03Z</time>
      </trkpt>
      <trkpt lat="45.28628" lon="5.77508">
        <ele>1451.73</ele>
        <time>2015-03-07T19:36:23Z</time>
      </trkpt>
      <trkpt lat="45.28613" lon="5.77501">
        <ele>1454.13</ele>
        <time>2015-03-07T19:36:42Z</time>
      </trkpt>
      <trkpt lat="45.2861" lon="5.77496">
        <ele>1454.13</ele>
        <time>2015-03-07T19:37:13Z</time>
      </trkpt>
      <trkpt lat="45.28604" lon="5.77501">
        <ele>1455.09</ele>
        <time>2015-03-07T19:37:50Z</time>
      </trkpt>
      <trkpt lat="45.28602" lon="5.77502">
        <ele>1455.57</ele>
        <time>2015-03-07T19:38:11Z</time>
      </trkpt>
      <trkpt lat="45.286" lon="5.77507">
        <ele>1457.98</ele>
        <time>2015-03-07T19:38:29Z</time>
      </trkpt>
      <trkpt lat="45.28612" lon="5.77523">
        <ele>1460.38</ele>
        <time>2015-03-07T19:38:50Z</time>
      </trkpt>
      <trkpt lat="45.28609" lon="5.77528">
        <ele>1462.3</ele>
        <time>2015-03-07T19:39:07Z</time>
      </trkpt>
      <trkpt lat="45.28592" lon="5.77523">
        <ele>1465.19</ele>
        <time>2015-03-07T19:39:29Z</time>
      </trkpt>
      <trkpt lat="45.28596" lon="5.77534">
        <ele>1466.63</ele>
        <time>2015-03-07T19:39:44Z</time>
      </trkpt>
      <trkpt lat="45.28597" lon="5.77538">
        <ele>1469.03</ele>
        <time>2015-03-07T19:40:01Z</time>
      </trkpt>
      <trkpt lat="45.28584" lon="5.77537">
        <ele>1471.44</ele>
        <time>2015-03-07T19:40:20Z</time>
      </trkpt>
      <trkpt lat="45.2859" lon="5.77548">
        <ele>1473.36</ele>
        <time>2015-03-07T19:40:37Z</time>
      </trkpt>
      <trkpt lat="45.28594" lon="5.77555">
        <ele>1475.76</ele>
        <time>2015-03-07T19:40:56Z</time>
      </trkpt>
      <trkpt lat="45.28578" lon="5.77554">
        <ele>1478.65</ele>
        <time>2015-03-07T19:41:16Z</time>
      </trkpt>
      <trkpt lat="45.28585" lon="5.77567">
        <ele>1480.57</ele>
        <time>2015-03-07T19:41:33Z</time>
      </trkpt>
      <trkpt lat="45.28582" lon="5.77571">
        <ele>1482.01</ele>
        <time>2015-03-07T19:41:50Z</time>
      </trkpt>
      <trkpt lat="45.28576" lon="5.77574">
        <ele>1484.41</ele>
        <time>2015-03-07T19:42:07Z</time>
      </trkpt>
      <trkpt lat="45.28582" lon="5.77585">
        <ele>1486.82</ele>
        <time>2015-03-07T19:42:26Z</time>
      </trkpt>
      <trkpt lat="45.28573" lon="5.77583">
        <ele>1488.26</ele>
        <time>2015-03-07T19:42:47Z</time>
      </trkpt>
      <trkpt lat="45.28567" lon="5.77586">
        <ele>1488.74</ele>
        <time>2015-03-07T19:43:18Z</time>
      </trkpt>
      <trkpt lat="45.28566" lon="5.77583">
        <ele>1488.74</ele>
        <time>2015-03-07T19:43:57Z</time>
      </trkpt>
      <trkpt lat="45.28567" lon="5.77581">
        <ele>1488.74</ele>
        <time>2015-03-07T19:44:40Z</time>
      </trkpt>
      <trkpt lat="45.2856" lon="5.7759">
        <ele>1489.22</ele>
        <time>2015-03-07T19:45:16Z</time>
      </trkpt>
      <trkpt lat="45.28564" lon="5.77593">
        <ele>1489.22</ele>
        <time>2015-03-07T19:45:56Z</time>
      </trkpt>
      <trkpt lat="45.2857" lon="5.77591">
        <ele>1490.66</ele>
        <time>2015-03-07T19:46:19Z</time>
      </trkpt>
      <trkpt lat="45.28577" lon="5.77594">
        <ele>1491.62</ele>
        <time>2015-03-07T19:46:40Z</time>
      </trkpt>
      <trkpt lat="45.28577" lon="5.77599">
        <ele>1491.62</ele>
        <time>2015-03-07T19:47:06Z</time>
      </trkpt>
      <trkpt lat="45.28576" lon="5.77594">
        <ele>1492.1</ele>
        <time>2015-03-07T19:47:43Z</time>
      </trkpt>
      <trkpt lat="45.28576" lon="5.77597">
        <ele>1493.06</ele>
        <time>2015-03-07T19:48:08Z</time>
      </trkpt>
      <trkpt lat="45.28566" lon="5.77595">
        <ele>1494.99</ele>
        <time>2015-03-07T19:48:26Z</time>
      </trkpt>
      <trkpt lat="45.28573" lon="5.77608">
        <ele>1497.39</ele>
        <time>2015-03-07T19:48:44Z</time>
      </trkpt>
      <trkpt lat="45.28574" lon="5.77611">
        <ele>1497.87</ele>
        <time>2015-03-07T19:48:59Z</time>
      </trkpt>
      <trkpt lat="45.28569" lon="5.7761">
        <ele>1497.87</ele>
        <time>2015-03-07T19:49:23Z</time>
      </trkpt>
      <trkpt lat="45.2857" lon="5.77604">
        <ele>1497.87</ele>
        <time>2015-03-07T19:49:48Z</time>
      </trkpt>
      <trkpt lat="45.28566" lon="5.77605">
        <ele>1498.83</ele>
        <time>2015-03-07T19:50:05Z</time>
      </trkpt>
      <trkpt lat="45.28572" lon="5.77615">
        <ele>1500.76</ele>
        <time>2015-03-07T19:50:25Z</time>
      </trkpt>
      <trkpt lat="45.28562" lon="5.77615">
        <ele>1502.2</ele>
        <time>2015-03-07T19:50:42Z</time>
      </trkpt>
      <trkpt lat="45.28567" lon="5.77624">
        <ele>1505.08</ele>
        <time>2015-03-07T19:50:58Z</time>
      </trkpt>
      <trkpt lat="45.28563" lon="5.77627">
        <ele>1506.52</ele>
        <time>2015-03-07T19:51:16Z</time>
      </trkpt>
      <trkpt lat="45.28569" lon="5.77635">
        <ele>1507.48</ele>
        <time>2015-03-07T19:51:33Z</time>
      </trkpt>
      <trkpt lat="45.28559" lon="5.77636">
        <ele>1509.41</ele>
        <time>2015-03-07T19:51:49Z</time>
      </trkpt>
      <trkpt lat="45.28548" lon="5.77638">
        <ele>1512.77</ele>
        <time>2015-03-07T19:52:07Z</time>
      </trkpt>
      <trkpt lat="45.28536" lon="5.77642">
        <ele>1516.14</ele>
        <time>2015-03-07T19:52:25Z</time>
      </trkpt>
      <trkpt lat="45.28523" lon="5.77647">
        <ele>1519.02</ele>
        <time>2015-03-07T19:52:46Z</time>
      </trkpt>
      <trkpt lat="45.28514" lon="5.77656">
        <ele>1522.39</ele>
        <time>2015-03-07T19:53:05Z</time>
      </trkpt>
      <trkpt lat="45.28524" lon="5.77669">
        <ele>1525.27</ele>
        <time>2015-03-07T19:53:24Z</time>
      </trkpt>
      <trkpt lat="45.28536" lon="5.77676">
        <ele>1528.15</ele>
        <time>2015-03-07T19:53:43Z</time>
      </trkpt>
      <trkpt lat="45.28548" lon="5.77685">
        <ele>1531.04</ele>
        <time>2015-03-07T19:54:03Z</time>
      </trkpt>
      <trkpt lat="45.28557" lon="5.77697">
        <ele>1533.44</ele>
        <time>2015-03-07T19:54:20Z</time>
      </trkpt>
      <trkpt lat="45.28548" lon="5.77706">
        <ele>1534.88</ele>
        <time>2015-03-07T19:54:39Z</time>
      </trkpt>
      <trkpt lat="45.28541" lon="5.77712">
        <ele>1538.25</ele>
        <time>2015-03-07T19:54:57Z</time>
      </trkpt>
      <trkpt lat="45.28552" lon="5.77721">
        <ele>1540.65</ele>
        <time>2015-03-07T19:55:18Z</time>
      </trkpt>
      <trkpt lat="45.2856" lon="5.77727">
        <ele>1543.05</ele>
        <time>2015-03-07T19:55:37Z</time>
      </trkpt>
      <trkpt lat="45.28562" lon="5.77734">
        <ele>1545.94</ele>
        <time>2015-03-07T19:55:49Z</time>
      </trkpt>
      <trkpt lat="45.28568" lon="5.77747">
        <ele>1548.82</ele>
        <time>2015-03-07T19:56:08Z</time>
      </trkpt>
      <trkpt lat="45.2857" lon="5.7776">
        <ele>1551.71</ele>
        <time>2015-03-07T19:56:22Z</time>
      </trkpt>
      <trkpt lat="45.28572" lon="5.77772">
        <ele>1555.07</ele>
        <time>2015-03-07T19:56:41Z</time>
      </trkpt>
      <trkpt lat="45.28577" lon="5.77786">
        <ele>1558.43</ele>
        <time>2015-03-07T19:57:01Z</time>
      </trkpt>
      <trkpt lat="45.28578" lon="5.77796">
        <ele>1561.8</ele>
        <time>2015-03-07T19:57:20Z</time>
      </trkpt>
      <trkpt lat="45.28579" lon="5.77808">
        <ele>1565.16</ele>
        <time>2015-03-07T19:57:34Z</time>
      </trkpt>
      <trkpt lat="45.28582" lon="5.77822">
        <ele>1568.53</ele>
        <time>2015-03-07T19:57:54Z</time>
      </trkpt>
      <trkpt lat="45.28585" lon="5.77836">
        <ele>1570.45</ele>
        <time>2015-03-07T19:58:13Z</time>
      </trkpt>
      <trkpt lat="45.28588" lon="5.77849">
        <ele>1574.3</ele>
        <time>2015-03-07T19:58:26Z</time>
      </trkpt>
      <trkpt lat="45.28593" lon="5.77863">
        <ele>1577.18</ele>
        <time>2015-03-07T19:58:46Z</time>
      </trkpt>
      <trkpt lat="45.286" lon="5.77871">
        <ele>1580.06</ele>
        <time>2015-03-07T19:59:04Z</time>
      </trkpt>
      <trkpt lat="45.2861" lon="5.77878">
        <ele>1581.99</ele>
        <time>2015-03-07T19:59:23Z</time>
      </trkpt>
      <trkpt lat="45.28614" lon="5.77885">
        <ele>1585.35</ele>
        <time>2015-03-07T19:59:42Z</time>
      </trkpt>
      <trkpt lat="45.28621" lon="5.77889">
        <ele>1587.75</ele>
        <time>2015-03-07T20:00:00Z</time>
      </trkpt>
      <trkpt lat="45.28632" lon="5.77892">
        <ele>1590.16</ele>
        <time>2015-03-07T20:00:17Z</time>
      </trkpt>
      <trkpt lat="45.28637" lon="5.77898">
        <ele>1593.04</ele>
        <time>2015-03-07T20:00:32Z</time>
      </trkpt>
      <trkpt lat="45.28641" lon="5.77904">
        <ele>1596.41</ele>
        <time>2015-03-07T20:00:47Z</time>
      </trkpt>
      <trkpt lat="45.2864" lon="5.77907">
        <ele>1596.89</ele>
        <time>2015-03-07T20:01:09Z</time>
      </trkpt>
      <trkpt lat="45.28637" lon="5.77907">
        <ele>1596.89</ele>
        <time>2015-03-07T20:01:38Z</time>
      </trkpt>
      <trkpt lat="45.28639" lon="5.77908">
        <ele>1595.93</ele>
        <time>2015-03-07T20:01:59Z</time>
      </trkpt>
      <trkpt lat="45.28639" lon="5.77908">
        <ele>1596.89</ele>
        <time>2015-03-07T20:02:04Z</time>
      </trkpt>
      <trkpt lat="45.28642" lon="5.77915">
        <ele>1597.37</ele>
        <time>2015-03-07T20:02:20Z</time>
      </trkpt>
      <trkpt lat="45.28645" lon="5.77929">
        <ele>1597.85</ele>
        <time>2015-03-07T20:02:45Z</time>
      </trkpt>
      <trkpt lat="45.28645" lon="5.77909">
        <ele>1597.85</ele>
        <time>2015-03-07T20:03:13Z</time>
      </trkpt>
      <trkpt lat="45.28643" lon="5.77912">
        <ele>1597.85</ele>
        <time>2015-03-07T20:03:34Z</time>
      </trkpt>
      <trkpt lat="45.28638" lon="5.77907">
        <ele>1597.85</ele>
        <time>2015-03-07T20:03:57Z</time>
      </trkpt>
      <trkpt lat="45.28641" lon="5.77906">
        <ele>1597.85</ele>
        <time>2015-03-07T20:04:26Z</time>
      </trkpt>
      <trkpt lat="45.28641" lon="5.77905">
        <ele>1597.85</ele>
        <time>2015-03-07T20:04:56Z</time>
      </trkpt>
      <trkpt lat="45.28637" lon="5.77905">
        <ele>1597.85</ele>
        <time>2015-03-07T20:05:28Z</time>
      </trkpt>
      <trkpt lat="45.28638" lon="5.77912">
        <ele>1599.29</ele>
        <time>2015-03-07T20:05:50Z</time>
      </trkpt>
      <trkpt lat="45.28633" lon="5.77915">
        <ele>1602.66</ele>
        <time>2015-03-07T20:06:09Z</time>
      </trkpt>
      <trkpt lat="45.28626" lon="5.77923">
        <ele>1605.54</ele>
        <time>2015-03-07T20:06:28Z</time>
      </trkpt>
      <trkpt lat="45.28618" lon="5.77933">
        <ele>1608.42</ele>
        <time>2015-03-07T20:06:47Z</time>
      </trkpt>
      <trkpt lat="45.2861" lon="5.7794">
        <ele>1611.79</ele>
        <time>2015-03-07T20:07:06Z</time>
      </trkpt>
      <trkpt lat="45.28604" lon="5.77952">
        <ele>1615.15</ele>
        <time>2015-03-07T20:07:22Z</time>
      </trkpt>
      <trkpt lat="45.28598" lon="5.77959">
        <ele>1618.04</ele>
        <time>2015-03-07T20:07:41Z</time>
      </trkpt>
      <trkpt lat="45.28591" lon="5.77961">
        <ele>1621.4</ele>
        <time>2015-03-07T20:08:00Z</time>
      </trkpt>
      <trkpt lat="45.28584" lon="5.77961">
        <ele>1624.28</ele>
        <time>2015-03-07T20:08:19Z</time>
      </trkpt>
      <trkpt lat="45.28576" lon="5.77956">
        <ele>1627.17</ele>
        <time>2015-03-07T20:08:38Z</time>
      </trkpt>
      <trkpt lat="45.28578" lon="5.77968">
        <ele>1629.57</ele>
        <time>2015-03-07T20:08:55Z</time>
      </trkpt>
      <trkpt lat="45.28581" lon="5.7798">
        <ele>1631.98</ele>
        <time>2015-03-07T20:09:14Z</time>
      </trkpt>
      <trkpt lat="45.28584" lon="5.77991">
        <ele>1635.34</ele>
        <time>2015-03-07T20:09:33Z</time>
      </trkpt>
      <trkpt lat="45.28586" lon="5.78002">
        <ele>1638.22</ele>
        <time>2015-03-07T20:09:52Z</time>
      </trkpt>
      <trkpt lat="45.28594" lon="5.78011">
        <ele>1640.63</ele>
        <time>2015-03-07T20:10:13Z</time>
      </trkpt>
      <trkpt lat="45.28604" lon="5.78016">
        <ele>1643.03</ele>
        <time>2015-03-07T20:10:32Z</time>
      </trkpt>
      <trkpt lat="45.28608" lon="5.78023">
        <ele>1646.4</ele>
        <time>2015-03-07T20:10:55Z</time>
      </trkpt>
      <trkpt lat="45.28618" lon="5.78027">
        <ele>1648.8</ele>
        <time>2015-03-07T20:11:14Z</time>
      </trkpt>
      <trkpt lat="45.2863" lon="5.7803">
        <ele>1651.2</ele>
        <time>2015-03-07T20:11:36Z</time>
      </trkpt>
      <trkpt lat="45.28637" lon="5.78033">
        <ele>1654.09</ele>
        <time>2015-03-07T20:11:59Z</time>
      </trkpt>
      <trkpt lat="45.28647" lon="5.78036">
        <ele>1656.49</ele>
        <time>2015-03-07T20:12:17Z</time>
      </trkpt>
      <trkpt lat="45.28656" lon="5.78041">
        <ele>1658.89</ele>
        <time>2015-03-07T20:12:40Z</time>
      </trkpt>
      <trkpt lat="45.28663" lon="5.78045">
        <ele>1659.85</ele>
        <time>2015-03-07T20:13:00Z</time>
      </trkpt>
      <trkpt lat="45.2867" lon="5.78044">
        <ele>1663.22</ele>
        <time>2015-03-07T20:13:18Z</time>
      </trkpt>
      <trkpt lat="45.28678" lon="5.78042">
        <ele>1665.14</ele>
        <time>2015-03-07T20:13:37Z</time>
      </trkpt>
      <trkpt lat="45.28685" lon="5.78042">
        <ele>1667.06</ele>
        <time>2015-03-07T20:13:53Z</time>
      </trkpt>
      <trkpt lat="45.28692" lon="5.78042">
        <ele>1670.43</ele>
        <time>2015-03-07T20:14:10Z</time>
      </trkpt>
      <trkpt lat="45.28701" lon="5.78045">
        <ele>1673.79</ele>
        <time>2015-03-07T20:14:30Z</time>
      </trkpt>
      <trkpt lat="45.28708" lon="5.78051">
        <ele>1676.68</ele>
        <time>2015-03-07T20:14:50Z</time>
      </trkpt>
      <trkpt lat="45.28707" lon="5.78058">
        <ele>1677.64</ele>
        <time>2015-03-07T20:15:08Z</time>
      </trkpt>
      <trkpt lat="45.28699" lon="5.78064">
        <ele>1678.6</ele>
        <time>2015-03-07T20:15:24Z</time>
      </trkpt>
      <trkpt lat="45.28691" lon="5.78075">
        <ele>1680.52</ele>
        <time>2015-03-07T20:15:42Z</time>
      </trkpt>
      <trkpt lat="45.28685" lon="5.78089">
        <ele>1682.44</ele>
        <time>2015-03-07T20:16:04Z</time>
      </trkpt>
      <trkpt lat="45.28673" lon="5.78096">
        <ele>1684.37</ele>
        <time>2015-03-07T20:16:24Z</time>
      </trkpt>
      <trkpt lat="45.28663" lon="5.78104">
        <ele>1686.77</ele>
        <time>2015-03-07T20:16:47Z</time>
      </trkpt>
      <trkpt lat="45.28654" lon="5.78112">
        <ele>1688.69</ele>
        <time>2015-03-07T20:17:09Z</time>
      </trkpt>
      <trkpt lat="45.28644" lon="5.78119">
        <ele>1691.1</ele>
        <time>2015-03-07T20:17:32Z</time>
      </trkpt>
      <trkpt lat="45.28636" lon="5.78123">
        <ele>1693.98</ele>
        <time>2015-03-07T20:17:55Z</time>
      </trkpt>
      <trkpt lat="45.28628" lon="5.78127">
        <ele>1696.86</ele>
        <time>2015-03-07T20:18:18Z</time>
      </trkpt>
      <trkpt lat="45.28641" lon="5.78129">
        <ele>1699.27</ele>
        <time>2015-03-07T20:18:40Z</time>
      </trkpt>
      <trkpt lat="45.28653" lon="5.78138">
        <ele>1701.67</ele>
        <time>2015-03-07T20:19:02Z</time>
      </trkpt>
      <trkpt lat="45.28662" lon="5.78146">
        <ele>1704.55</ele>
        <time>2015-03-07T20:19:23Z</time>
      </trkpt>
      <trkpt lat="45.28658" lon="5.78151">
        <ele>1706</ele>
        <time>2015-03-07T20:19:43Z</time>
      </trkpt>
      <trkpt lat="45.28648" lon="5.78156">
        <ele>1708.4</ele>
        <time>2015-03-07T20:20:04Z</time>
      </trkpt>
      <trkpt lat="45.28634" lon="5.78161">
        <ele>1710.8</ele>
        <time>2015-03-07T20:20:26Z</time>
      </trkpt>
      <trkpt lat="45.28626" lon="5.78164">
        <ele>1712.25</ele>
        <time>2015-03-07T20:20:46Z</time>
      </trkpt>
      <trkpt lat="45.28635" lon="5.78162">
        <ele>1713.69</ele>
        <time>2015-03-07T20:21:05Z</time>
      </trkpt>
      <trkpt lat="45.28637" lon="5.78172">
        <ele>1715.61</ele>
        <time>2015-03-07T20:21:27Z</time>
      </trkpt>
      <trkpt lat="45.28628" lon="5.78175">
        <ele>1717.53</ele>
        <time>2015-03-07T20:21:48Z</time>
      </trkpt>
      <trkpt lat="45.28636" lon="5.78179">
        <ele>1718.97</ele>
        <time>2015-03-07T20:22:08Z</time>
      </trkpt>
      <trkpt lat="45.28648" lon="5.78182">
        <ele>1720.9</ele>
        <time>2015-03-07T20:22:29Z</time>
      </trkpt>
      <trkpt lat="45.28657" lon="5.78183">
        <ele>1722.34</ele>
        <time>2015-03-07T20:22:49Z</time>
      </trkpt>
      <trkpt lat="45.28666" lon="5.78193">
        <ele>1724.26</ele>
        <time>2015-03-07T20:23:10Z</time>
      </trkpt>
      <trkpt lat="45.28656" lon="5.78197">
        <ele>1725.22</ele>
        <time>2015-03-07T20:23:29Z</time>
      </trkpt>
      <trkpt lat="45.28643" lon="5.78201">
        <ele>1727.63</ele>
        <time>2015-03-07T20:23:50Z</time>
      </trkpt>
      <trkpt lat="45.28647" lon="5.78201">
        <ele>1728.11</ele>
        <time>2015-03-07T20:24:10Z</time>
      </trkpt>
      <trkpt lat="45.28662" lon="5.78205">
        <ele>1730.51</ele>
        <time>2015-03-07T20:24:32Z</time>
      </trkpt>
      <trkpt lat="45.28667" lon="5.78209">
        <ele>1732.91</ele>
        <time>2015-03-07T20:24:46Z</time>
      </trkpt>
      <trkpt lat="45.28675" lon="5.78208">
        <ele>1734.84</ele>
        <time>2015-03-07T20:25:06Z</time>
      </trkpt>
      <trkpt lat="45.28671" lon="5.78211">
        <ele>1736.28</ele>
        <time>2015-03-07T20:25:26Z</time>
      </trkpt>
      <trkpt lat="45.2866" lon="5.78218">
        <ele>1739.16</ele>
        <time>2015-03-07T20:25:49Z</time>
      </trkpt>
      <trkpt lat="45.28655" lon="5.78223">
        <ele>1742.05</ele>
        <time>2015-03-07T20:26:09Z</time>
      </trkpt>
      <trkpt lat="45.2865" lon="5.78226">
        <ele>1743.01</ele>
        <time>2015-03-07T20:26:27Z</time>
      </trkpt>
      <trkpt lat="45.28639" lon="5.78218">
        <ele>1743.49</ele>
        <time>2015-03-07T20:26:50Z</time>
      </trkpt>
      <trkpt lat="45.28631" lon="5.78209">
        <ele>1745.41</ele>
        <time>2015-03-07T20:27:09Z</time>
      </trkpt>
      <trkpt lat="45.28623" lon="5.78198">
        <ele>1748.29</ele>
        <time>2015-03-07T20:27:30Z</time>
      </trkpt>
      <trkpt lat="45.28611" lon="5.78194">
        <ele>1750.7</ele>
        <time>2015-03-07T20:27:53Z</time>
      </trkpt>
      <trkpt lat="45.28607" lon="5.78196">
        <ele>1752.62</ele>
        <time>2015-03-07T20:28:17Z</time>
      </trkpt>
      <trkpt lat="45.28598" lon="5.78198">
        <ele>1755.5</ele>
        <time>2015-03-07T20:28:38Z</time>
      </trkpt>
      <trkpt lat="45.28589" lon="5.78203">
        <ele>1758.87</ele>
        <time>2015-03-07T20:28:58Z</time>
      </trkpt>
      <trkpt lat="45.28583" lon="5.78203">
        <ele>1761.75</ele>
        <time>2015-03-07T20:29:17Z</time>
      </trkpt>
      <trkpt lat="45.28574" lon="5.78206">
        <ele>1764.16</ele>
        <time>2015-03-07T20:29:39Z</time>
      </trkpt>
      <trkpt lat="45.28565" lon="5.78207">
        <ele>1767.52</ele>
        <time>2015-03-07T20:29:57Z</time>
      </trkpt>
      <trkpt lat="45.28556" lon="5.78209">
        <ele>1770.89</ele>
        <time>2015-03-07T20:30:18Z</time>
      </trkpt>
      <trkpt lat="45.28545" lon="5.78211">
        <ele>1773.29</ele>
        <time>2015-03-07T20:30:40Z</time>
      </trkpt>
      <trkpt lat="45.28538" lon="5.78212">
        <ele>1776.17</ele>
        <time>2015-03-07T20:31:00Z</time>
      </trkpt>
      <trkpt lat="45.28528" lon="5.7821">
        <ele>1779.06</ele>
        <time>2015-03-07T20:31:24Z</time>
      </trkpt>
      <trkpt lat="45.28516" lon="5.78205">
        <ele>1780.98</ele>
        <time>2015-03-07T20:31:45Z</time>
      </trkpt>
      <trkpt lat="45.28508" lon="5.78206">
        <ele>1782.42</ele>
        <time>2015-03-07T20:32:02Z</time>
      </trkpt>
      <trkpt lat="45.28498" lon="5.78207">
        <ele>1785.79</ele>
        <time>2015-03-07T20:32:23Z</time>
      </trkpt>
      <trkpt lat="45.2849" lon="5.78206">
        <ele>1788.67</ele>
        <time>2015-03-07T20:32:43Z</time>
      </trkpt>
      <trkpt lat="45.28481" lon="5.78205">
        <ele>1792.03</ele>
        <time>2015-03-07T20:33:02Z</time>
      </trkpt>
      <trkpt lat="45.28472" lon="5.78205">
        <ele>1794.92</ele>
        <time>2015-03-07T20:33:26Z</time>
      </trkpt>
      <trkpt lat="45.28462" lon="5.78203">
        <ele>1798.28</ele>
        <time>2015-03-07T20:33:48Z</time>
      </trkpt>
      <trkpt lat="45.28453" lon="5.78203">
        <ele>1800.69</ele>
        <time>2015-03-07T20:34:11Z</time>
      </trkpt>
      <trkpt lat="45.28441" lon="5.78203">
        <ele>1803.57</ele>
        <time>2015-03-07T20:34:34Z</time>
      </trkpt>
      <trkpt lat="45.28433" lon="5.78205">
        <ele>1805.97</ele>
        <time>2015-03-07T20:34:53Z</time>
      </trkpt>
      <trkpt lat="45.28423" lon="5.78207">
        <ele>1808.38</ele>
        <time>2015-03-07T20:35:13Z</time>
      </trkpt>
      <trkpt lat="45.28414" lon="5.78211">
        <ele>1809.82</ele>
        <time>2015-03-07T20:35:35Z</time>
      </trkpt>
      <trkpt lat="45.28409" lon="5.78215">
        <ele>1809.82</ele>
        <time>2015-03-07T20:36:09Z</time>
      </trkpt>
      <trkpt lat="45.28412" lon="5.7821">
        <ele>1810.3</ele>
        <time>2015-03-07T20:36:47Z</time>
      </trkpt>
      <trkpt lat="45.28413" lon="5.7821">
        <ele>1810.3</ele>
        <time>2015-03-07T20:37:23Z</time>
      </trkpt>
      <trkpt lat="45.28415" lon="5.78213">
        <ele>1811.74</ele>
        <time>2015-03-07T20:37:47Z</time>
      </trkpt>
      <trkpt lat="45.28414" lon="5.78219">
        <ele>1812.22</ele>
        <time>2015-03-07T20:38:02Z</time>
      </trkpt>
      <trkpt lat="45.2842" lon="5.78226">
        <ele>1814.63</ele>
        <time>2015-03-07T20:38:16Z</time>
      </trkpt>
      <trkpt lat="45.28427" lon="5.78234">
        <ele>1816.07</ele>
        <time>2015-03-07T20:38:33Z</time>
      </trkpt>
      <trkpt lat="45.28433" lon="5.78247">
        <ele>1819.43</ele>
        <time>2015-03-07T20:38:56Z</time>
      </trkpt>
      <trkpt lat="45.28436" lon="5.78254">
        <ele>1821.84</ele>
        <time>2015-03-07T20:39:11Z</time>
      </trkpt>
      <trkpt lat="45.28438" lon="5.78263">
        <ele>1823.28</ele>
        <time>2015-03-07T20:39:26Z</time>
      </trkpt>
      <trkpt lat="45.28442" lon="5.78271">
        <ele>1824.72</ele>
        <time>2015-03-07T20:39:42Z</time>
      </trkpt>
      <trkpt lat="45.28444" lon="5.78274">
        <ele>1827.12</ele>
        <time>2015-03-07T20:39:48Z</time>
      </trkpt>
      <trkpt lat="45.28445" lon="5.78281">
        <ele>1827.6</ele>
        <time>2015-03-07T20:40:02Z</time>
      </trkpt>
      <trkpt lat="45.28445" lon="5.78291">
        <ele>1830.49</ele>
        <time>2015-03-07T20:40:19Z</time>
      </trkpt>
      <trkpt lat="45.28448" lon="5.78302">
        <ele>1833.37</ele>
        <time>2015-03-07T20:40:40Z</time>
      </trkpt>
      <trkpt lat="45.28442" lon="5.78309">
        <ele>1835.29</ele>
        <time>2015-03-07T20:40:59Z</time>
      </trkpt>
      <trkpt lat="45.28438" lon="5.78315">
        <ele>1838.66</ele>
        <time>2015-03-07T20:41:17Z</time>
      </trkpt>
      <trkpt lat="45.28433" lon="5.7832">
        <ele>1841.54</ele>
        <time>2015-03-07T20:41:32Z</time>
      </trkpt>
      <trkpt lat="45.28425" lon="5.78324">
        <ele>1842.02</ele>
        <time>2015-03-07T20:41:51Z</time>
      </trkpt>
      <trkpt lat="45.28418" lon="5.78329">
        <ele>1843.95</ele>
        <time>2015-03-07T20:42:08Z</time>
      </trkpt>
      <trkpt lat="45.28412" lon="5.78334">
        <ele>1845.39</ele>
        <time>2015-03-07T20:42:23Z</time>
      </trkpt>
      <trkpt lat="45.28409" lon="5.78344">
        <ele>1847.79</ele>
        <time>2015-03-07T20:42:40Z</time>
      </trkpt>
      <trkpt lat="45.28411" lon="5.78355">
        <ele>1851.16</ele>
        <time>2015-03-07T20:43:00Z</time>
      </trkpt>
      <trkpt lat="45.28412" lon="5.78359">
        <ele>1852.12</ele>
        <time>2015-03-07T20:43:07Z</time>
      </trkpt>
      <trkpt lat="45.28418" lon="5.78367">
        <ele>1853.08</ele>
        <time>2015-03-07T20:43:25Z</time>
      </trkpt>
      <trkpt lat="45.28426" lon="5.78374">
        <ele>1856.92</ele>
        <time>2015-03-07T20:43:45Z</time>
      </trkpt>
      <trkpt lat="45.28427" lon="5.78375">
        <ele>1856.92</ele>
        <time>2015-03-07T20:43:46Z</time>
      </trkpt>
      <trkpt lat="45.28432" lon="5.7838">
        <ele>1858.37</ele>
        <time>2015-03-07T20:43:58Z</time>
      </trkpt>
      <trkpt lat="45.28436" lon="5.78386">
        <ele>1859.81</ele>
        <time>2015-03-07T20:44:14Z</time>
      </trkpt>
      <trkpt lat="45.28427" lon="5.78392">
        <ele>1861.73</ele>
        <time>2015-03-07T20:44:34Z</time>
      </trkpt>
      <trkpt lat="45.28419" lon="5.78397">
        <ele>1862.69</ele>
        <time>2015-03-07T20:44:50Z</time>
      </trkpt>
      <trkpt lat="45.28416" lon="5.78399">
        <ele>1864.61</ele>
        <time>2015-03-07T20:44:56Z</time>
      </trkpt>
      <trkpt lat="45.28413" lon="5.784">
        <ele>1863.65</ele>
        <time>2015-03-07T20:45:02Z</time>
      </trkpt>
      <trkpt lat="45.28406" lon="5.78402">
        <ele>1865.58</ele>
        <time>2015-03-07T20:45:17Z</time>
      </trkpt>
      <trkpt lat="45.28406" lon="5.78407">
        <ele>1867.02</ele>
        <time>2015-03-07T20:45:36Z</time>
      </trkpt>
      <trkpt lat="45.28407" lon="5.78409">
        <ele>1866.54</ele>
        <time>2015-03-07T20:45:41Z</time>
      </trkpt>
      <trkpt lat="45.28415" lon="5.78418">
        <ele>1869.9</ele>
        <time>2015-03-07T20:45:57Z</time>
      </trkpt>
      <trkpt lat="45.28428" lon="5.7843">
        <ele>1873.27</ele>
        <time>2015-03-07T20:46:20Z</time>
      </trkpt>
      <trkpt lat="45.2844" lon="5.78438">
        <ele>1874.71</ele>
        <time>2015-03-07T20:46:43Z</time>
      </trkpt>
      <trkpt lat="45.28445" lon="5.78446">
        <ele>1877.11</ele>
        <time>2015-03-07T20:47:05Z</time>
      </trkpt>
      <trkpt lat="45.28437" lon="5.78451">
        <ele>1879.03</ele>
        <time>2015-03-07T20:47:23Z</time>
      </trkpt>
      <trkpt lat="45.28426" lon="5.78456">
        <ele>1880</ele>
        <time>2015-03-07T20:47:44Z</time>
      </trkpt>
      <trkpt lat="45.2842" lon="5.78462">
        <ele>1882.4</ele>
        <time>2015-03-07T20:48:03Z</time>
      </trkpt>
      <trkpt lat="45.28409" lon="5.78464">
        <ele>1884.32</ele>
        <time>2015-03-07T20:48:24Z</time>
      </trkpt>
      <trkpt lat="45.284" lon="5.78463">
        <ele>1887.21</ele>
        <time>2015-03-07T20:48:40Z</time>
      </trkpt>
      <trkpt lat="45.284" lon="5.78463">
        <ele>1887.21</ele>
        <time>2015-03-07T20:48:41Z</time>
      </trkpt>
      <trkpt lat="45.28397" lon="5.78463">
        <ele>1891.05</ele>
        <time>2015-03-07T20:48:47Z</time>
      </trkpt>
      <trkpt lat="45.28397" lon="5.78463">
        <ele>1889.13</ele>
        <time>2015-03-07T20:48:48Z</time>
      </trkpt>
      <trkpt lat="45.28395" lon="5.78462">
        <ele>1886.72</ele>
        <time>2015-03-07T20:48:51Z</time>
      </trkpt>
      <trkpt lat="45.2839" lon="5.78465">
        <ele>1888.65</ele>
        <time>2015-03-07T20:49:08Z</time>
      </trkpt>
      <trkpt lat="45.28399" lon="5.78474">
        <ele>1890.09</ele>
        <time>2015-03-07T20:49:30Z</time>
      </trkpt>
      <trkpt lat="45.28406" lon="5.78483">
        <ele>1892.97</ele>
        <time>2015-03-07T20:49:44Z</time>
      </trkpt>
      <trkpt lat="45.28407" lon="5.78484">
        <ele>1893.93</ele>
        <time>2015-03-07T20:49:46Z</time>
      </trkpt>
      <trkpt lat="45.2841" lon="5.78488">
        <ele>1896.82</ele>
        <time>2015-03-07T20:49:52Z</time>
      </trkpt>
      <trkpt lat="45.28413" lon="5.7849">
        <ele>1894.42</ele>
        <time>2015-03-07T20:49:57Z</time>
      </trkpt>
      <trkpt lat="45.28414" lon="5.78491">
        <ele>1895.38</ele>
        <time>2015-03-07T20:50:01Z</time>
      </trkpt>
      <trkpt lat="45.28416" lon="5.78494">
        <ele>1893.93</ele>
        <time>2015-03-07T20:50:05Z</time>
      </trkpt>
      <trkpt lat="45.28418" lon="5.78499">
        <ele>1896.34</ele>
        <time>2015-03-07T20:50:15Z</time>
      </trkpt>
      <trkpt lat="45.28424" lon="5.78505">
        <ele>1896.82</ele>
        <time>2015-03-07T20:50:30Z</time>
      </trkpt>
      <trkpt lat="45.28431" lon="5.7851">
        <ele>1899.22</ele>
        <time>2015-03-07T20:50:51Z</time>
      </trkpt>
      <trkpt lat="45.28435" lon="5.78513">
        <ele>1901.14</ele>
        <time>2015-03-07T20:51:00Z</time>
      </trkpt>
      <trkpt lat="45.28441" lon="5.78519">
        <ele>1902.11</ele>
        <time>2015-03-07T20:51:18Z</time>
      </trkpt>
      <trkpt lat="45.2843" lon="5.78521">
        <ele>1903.07</ele>
        <time>2015-03-07T20:51:37Z</time>
      </trkpt>
      <trkpt lat="45.28421" lon="5.78521">
        <ele>1904.99</ele>
        <time>2015-03-07T20:51:56Z</time>
      </trkpt>
      <trkpt lat="45.28412" lon="5.78524">
        <ele>1908.35</ele>
        <time>2015-03-07T20:52:17Z</time>
      </trkpt>
      <trkpt lat="45.28403" lon="5.78525">
        <ele>1911.24</ele>
        <time>2015-03-07T20:52:36Z</time>
      </trkpt>
      <trkpt lat="45.28398" lon="5.78528">
        <ele>1911.24</ele>
        <time>2015-03-07T20:52:51Z</time>
      </trkpt>
      <trkpt lat="45.28405" lon="5.78538">
        <ele>1914.6</ele>
        <time>2015-03-07T20:53:09Z</time>
      </trkpt>
      <trkpt lat="45.28407" lon="5.7854">
        <ele>1913.16</ele>
        <time>2015-03-07T20:53:12Z</time>
      </trkpt>
      <trkpt lat="45.2841" lon="5.78542">
        <ele>1915.08</ele>
        <time>2015-03-07T20:53:19Z</time>
      </trkpt>
      <trkpt lat="45.28419" lon="5.78548">
        <ele>1914.6</ele>
        <time>2015-03-07T20:53:38Z</time>
      </trkpt>
      <trkpt lat="45.28421" lon="5.7855">
        <ele>1917.49</ele>
        <time>2015-03-07T20:53:44Z</time>
      </trkpt>
      <trkpt lat="45.28429" lon="5.78555">
        <ele>1917.97</ele>
        <time>2015-03-07T20:54:04Z</time>
      </trkpt>
      <trkpt lat="45.28431" lon="5.78557">
        <ele>1919.41</ele>
        <time>2015-03-07T20:54:09Z</time>
      </trkpt>
      <trkpt lat="45.2843" lon="5.78558">
        <ele>1919.41</ele>
        <time>2015-03-07T20:54:18Z</time>
      </trkpt>
      <trkpt lat="45.28422" lon="5.7856">
        <ele>1920.37</ele>
        <time>2015-03-07T20:54:29Z</time>
      </trkpt>
      <trkpt lat="45.28414" lon="5.7856">
        <ele>1923.74</ele>
        <time>2015-03-07T20:54:44Z</time>
      </trkpt>
      <trkpt lat="45.28407" lon="5.7856">
        <ele>1924.22</ele>
        <time>2015-03-07T20:55:01Z</time>
      </trkpt>
      <trkpt lat="45.28402" lon="5.78561">
        <ele>1928.06</ele>
        <time>2015-03-07T20:55:11Z</time>
      </trkpt>
      <trkpt lat="45.28397" lon="5.78563">
        <ele>1926.62</ele>
        <time>2015-03-07T20:55:23Z</time>
      </trkpt>
      <trkpt lat="45.28393" lon="5.78564">
        <ele>1928.06</ele>
        <time>2015-03-07T20:55:30Z</time>
      </trkpt>
      <trkpt lat="45.28389" lon="5.78565">
        <ele>1929.5</ele>
        <time>2015-03-07T20:55:37Z</time>
      </trkpt>
      <trkpt lat="45.28378" lon="5.78565">
        <ele>1932.87</ele>
        <time>2015-03-07T20:55:57Z</time>
      </trkpt>
      <trkpt lat="45.28377" lon="5.78565">
        <ele>1932.87</ele>
        <time>2015-03-07T20:55:58Z</time>
      </trkpt>
      <trkpt lat="45.28376" lon="5.78565">
        <ele>1931.91</ele>
        <time>2015-03-07T20:56:00Z</time>
      </trkpt>
      <trkpt lat="45.28374" lon="5.78568">
        <ele>1933.35</ele>
        <time>2015-03-07T20:56:11Z</time>
      </trkpt>
      <trkpt lat="45.28382" lon="5.78579">
        <ele>1932.87</ele>
        <time>2015-03-07T20:56:29Z</time>
      </trkpt>
      <trkpt lat="45.28387" lon="5.78585">
        <ele>1935.75</ele>
        <time>2015-03-07T20:56:45Z</time>
      </trkpt>
      <trkpt lat="45.28391" lon="5.78589">
        <ele>1938.64</ele>
        <time>2015-03-07T20:56:57Z</time>
      </trkpt>
      <trkpt lat="45.28393" lon="5.7859">
        <ele>1937.19</ele>
        <time>2015-03-07T20:57:01Z</time>
      </trkpt>
      <trkpt lat="45.28395" lon="5.78591">
        <ele>1938.16</ele>
        <time>2015-03-07T20:57:07Z</time>
      </trkpt>
      <trkpt lat="45.284" lon="5.78596">
        <ele>1941.52</ele>
        <time>2015-03-07T20:57:19Z</time>
      </trkpt>
      <trkpt lat="45.28397" lon="5.78597">
        <ele>1941.52</ele>
        <time>2015-03-07T20:57:33Z</time>
      </trkpt>
      <trkpt lat="45.28398" lon="5.78599">
        <ele>1941.04</ele>
        <time>2015-03-07T20:57:46Z</time>
      </trkpt>
      <trkpt lat="45.28404" lon="5.78604">
        <ele>1942.96</ele>
        <time>2015-03-07T20:58:03Z</time>
      </trkpt>
      <trkpt lat="45.28413" lon="5.78613">
        <ele>1944.4</ele>
        <time>2015-03-07T20:58:21Z</time>
      </trkpt>
      <trkpt lat="45.28424" lon="5.78617">
        <ele>1946.33</ele>
        <time>2015-03-07T20:58:41Z</time>
      </trkpt>
      <trkpt lat="45.28431" lon="5.78621">
        <ele>1945.85</ele>
        <time>2015-03-07T20:58:55Z</time>
      </trkpt>
      <trkpt lat="45.28433" lon="5.78621">
        <ele>1948.73</ele>
        <time>2015-03-07T20:58:59Z</time>
      </trkpt>
      <trkpt lat="45.28437" lon="5.78621">
        <ele>1952.09</ele>
        <time>2015-03-07T20:59:07Z</time>
      </trkpt>
      <trkpt lat="45.28443" lon="5.78622">
        <ele>1948.25</ele>
        <time>2015-03-07T20:59:19Z</time>
      </trkpt>
      <trkpt lat="45.28445" lon="5.78624">
        <ele>1953.06</ele>
        <time>2015-03-07T20:59:24Z</time>
      </trkpt>
      <trkpt lat="45.28454" lon="5.78628">
        <ele>1953.06</ele>
        <time>2015-03-07T20:59:47Z</time>
      </trkpt>
      <trkpt lat="45.28454" lon="5.78629">
        <ele>1950.17</ele>
        <time>2015-03-07T20:59:50Z</time>
      </trkpt>
      <trkpt lat="45.28456" lon="5.7863">
        <ele>1951.61</ele>
        <time>2015-03-07T20:59:53Z</time>
      </trkpt>
      <trkpt lat="45.28457" lon="5.7863">
        <ele>1950.65</ele>
        <time>2015-03-07T20:59:56Z</time>
      </trkpt>
      <trkpt lat="45.28463" lon="5.78633">
        <ele>1951.61</ele>
        <time>2015-03-07T21:00:06Z</time>
      </trkpt>
      <trkpt lat="45.28466" lon="5.78633">
        <ele>1953.06</ele>
        <time>2015-03-07T21:00:12Z</time>
      </trkpt>
      <trkpt lat="45.28467" lon="5.78633">
        <ele>1955.94</ele>
        <time>2015-03-07T21:00:15Z</time>
      </trkpt>
      <trkpt lat="45.28469" lon="5.78633">
        <ele>1954.02</ele>
        <time>2015-03-07T21:00:18Z</time>
      </trkpt>
      <trkpt lat="45.28471" lon="5.78634">
        <ele>1953.06</ele>
        <time>2015-03-07T21:00:23Z</time>
      </trkpt>
      <trkpt lat="45.2848" lon="5.78636">
        <ele>1956.42</ele>
        <time>2015-03-07T21:00:41Z</time>
      </trkpt>
      <trkpt lat="45.28481" lon="5.78636">
        <ele>1953.06</ele>
        <time>2015-03-07T21:00:44Z</time>
      </trkpt>
      <trkpt lat="45.28481" lon="5.78637">
        <ele>1956.42</ele>
        <time>2015-03-07T21:00:45Z</time>
      </trkpt>
      <trkpt lat="45.28482" lon="5.78638">
        <ele>1955.46</ele>
        <time>2015-03-07T21:00:53Z</time>
      </trkpt>
      <trkpt lat="45.2848" lon="5.78641">
        <ele>1959.3</ele>
        <time>2015-03-07T21:01:04Z</time>
      </trkpt>
      <trkpt lat="45.2847" lon="5.78645">
        <ele>1960.27</ele>
        <time>2015-03-07T21:01:22Z</time>
      </trkpt>
      <trkpt lat="45.28468" lon="5.78645">
        <ele>1959.3</ele>
        <time>2015-03-07T21:01:26Z</time>
      </trkpt>
      <trkpt lat="45.28468" lon="5.78647">
        <ele>1960.27</ele>
        <time>2015-03-07T21:01:37Z</time>
      </trkpt>
      <trkpt lat="45.28471" lon="5.78649">
        <ele>1958.34</ele>
        <time>2015-03-07T21:01:45Z</time>
      </trkpt>
      <trkpt lat="45.28472" lon="5.7865">
        <ele>1960.75</ele>
        <time>2015-03-07T21:01:48Z</time>
      </trkpt>
      <trkpt lat="45.28475" lon="5.78652">
        <ele>1962.67</ele>
        <time>2015-03-07T21:01:53Z</time>
      </trkpt>
      <trkpt lat="45.28478" lon="5.78653">
        <ele>1965.07</ele>
        <time>2015-03-07T21:01:59Z</time>
      </trkpt>
      <trkpt lat="45.28479" lon="5.78654">
        <ele>1963.63</ele>
        <time>2015-03-07T21:02:01Z</time>
      </trkpt>
      <trkpt lat="45.28486" lon="5.78655">
        <ele>1966.99</ele>
        <time>2015-03-07T21:02:18Z</time>
      </trkpt>
      <trkpt lat="45.28489" lon="5.78657">
        <ele>1965.07</ele>
        <time>2015-03-07T21:02:27Z</time>
      </trkpt>
      <trkpt lat="45.2849" lon="5.78657">
        <ele>1966.51</ele>
        <time>2015-03-07T21:02:29Z</time>
      </trkpt>
      <trkpt lat="45.28496" lon="5.7866">
        <ele>1970.36</ele>
        <time>2015-03-07T21:02:44Z</time>
      </trkpt>
      <trkpt lat="45.28496" lon="5.78661">
        <ele>1970.36</ele>
        <time>2015-03-07T21:02:45Z</time>
      </trkpt>
      <trkpt lat="45.28497" lon="5.78662">
        <ele>1964.59</ele>
        <time>2015-03-07T21:02:49Z</time>
      </trkpt>
      <trkpt lat="45.28497" lon="5.78662">
        <ele>1971.32</ele>
        <time>2015-03-07T21:02:50Z</time>
      </trkpt>
      <trkpt lat="45.28498" lon="5.78663">
        <ele>1972.76</ele>
        <time>2015-03-07T21:02:57Z</time>
      </trkpt>
      <trkpt lat="45.28498" lon="5.78664">
        <ele>1970.36</ele>
        <time>2015-03-07T21:03:00Z</time>
      </trkpt>
      <trkpt lat="45.28491" lon="5.78672">
        <ele>1973.24</ele>
        <time>2015-03-07T21:03:19Z</time>
      </trkpt>
      <trkpt lat="45.28489" lon="5.78673">
        <ele>1974.2</ele>
        <time>2015-03-07T21:03:24Z</time>
      </trkpt>
      <trkpt lat="45.28484" lon="5.78678">
        <ele>1973.24</ele>
        <time>2015-03-07T21:03:44Z</time>
      </trkpt>
      <trkpt lat="45.28486" lon="5.78677">
        <ele>1974.69</ele>
        <time>2015-03-07T21:03:49Z</time>
      </trkpt>
      <trkpt lat="45.28495" lon="5.78679">
        <ele>1975.65</ele>
        <time>2015-03-07T21:04:06Z</time>
      </trkpt>
      <trkpt lat="45.28499" lon="5.7868">
        <ele>1977.09</ele>
        <time>2015-03-07T21:04:13Z</time>
      </trkpt>
      <trkpt lat="45.28501" lon="5.78681">
        <ele>1975.17</ele>
        <time>2015-03-07T21:04:17Z</time>
      </trkpt>
      <trkpt lat="45.28503" lon="5.78681">
        <ele>1977.09</ele>
        <time>2015-03-07T21:04:21Z</time>
      </trkpt>
      <trkpt lat="45.2851" lon="5.7868">
        <ele>1977.57</ele>
        <time>2015-03-07T21:04:38Z</time>
      </trkpt>
      <trkpt lat="45.28518" lon="5.7868">
        <ele>1981.9</ele>
        <time>2015-03-07T21:04:55Z</time>
      </trkpt>
      <trkpt lat="45.2852" lon="5.78681">
        <ele>1978.05</ele>
        <time>2015-03-07T21:04:59Z</time>
      </trkpt>
      <trkpt lat="45.28525" lon="5.78681">
        <ele>1981.9</ele>
        <time>2015-03-07T21:05:08Z</time>
      </trkpt>
      <trkpt lat="45.28525" lon="5.78681">
        <ele>1981.9</ele>
        <time>2015-03-07T21:05:09Z</time>
      </trkpt>
      <trkpt lat="45.28521" lon="5.78687">
        <ele>1983.82</ele>
        <time>2015-03-07T21:05:26Z</time>
      </trkpt>
      <trkpt lat="45.28512" lon="5.78695">
        <ele>1986.22</ele>
        <time>2015-03-07T21:05:48Z</time>
      </trkpt>
      <trkpt lat="45.2851" lon="5.78696">
        <ele>1989.1</ele>
        <time>2015-03-07T21:05:55Z</time>
      </trkpt>
      <trkpt lat="45.28509" lon="5.78697">
        <ele>1989.1</ele>
        <time>2015-03-07T21:06:02Z</time>
      </trkpt>
      <trkpt lat="45.2851" lon="5.78697">
        <ele>1986.22</ele>
        <time>2015-03-07T21:06:08Z</time>
      </trkpt>
      <trkpt lat="45.2851" lon="5.78697">
        <ele>1986.22</ele>
        <time>2015-03-07T21:06:09Z</time>
      </trkpt>
      <trkpt lat="45.28513" lon="5.78697">
        <ele>1987.66</ele>
        <time>2015-03-07T21:06:14Z</time>
      </trkpt>
      <trkpt lat="45.28516" lon="5.78697">
        <ele>1982.86</ele>
        <time>2015-03-07T21:06:19Z</time>
      </trkpt>
      <trkpt lat="45.28516" lon="5.78697">
        <ele>1985.74</ele>
        <time>2015-03-07T21:06:20Z</time>
      </trkpt>
      <trkpt lat="45.28523" lon="5.78697">
        <ele>1989.59</ele>
        <time>2015-03-07T21:06:32Z</time>
      </trkpt>
      <trkpt lat="45.28523" lon="5.78697">
        <ele>1989.59</ele>
        <time>2015-03-07T21:06:33Z</time>
      </trkpt>
      <trkpt lat="45.28525" lon="5.78698">
        <ele>1988.14</ele>
        <time>2015-03-07T21:06:37Z</time>
      </trkpt>
      <trkpt lat="45.28532" lon="5.78698">
        <ele>1986.7</ele>
        <time>2015-03-07T21:06:50Z</time>
      </trkpt>
      <trkpt lat="45.28533" lon="5.78698">
        <ele>1989.1</ele>
        <time>2015-03-07T21:06:54Z</time>
      </trkpt>
      <trkpt lat="45.2854" lon="5.78699">
        <ele>1990.07</ele>
        <time>2015-03-07T21:07:13Z</time>
      </trkpt>
      <trkpt lat="45.28538" lon="5.787">
        <ele>1993.91</ele>
        <time>2015-03-07T21:07:18Z</time>
      </trkpt>
      <trkpt lat="45.28537" lon="5.78701">
        <ele>1991.99</ele>
        <time>2015-03-07T21:07:22Z</time>
      </trkpt>
      <trkpt lat="45.28533" lon="5.78704">
        <ele>1993.43</ele>
        <time>2015-03-07T21:07:32Z</time>
      </trkpt>
      <trkpt lat="45.28532" lon="5.78706">
        <ele>1994.87</ele>
        <time>2015-03-07T21:07:35Z</time>
      </trkpt>
      <trkpt lat="45.2853" lon="5.78709">
        <ele>1996.32</ele>
        <time>2015-03-07T21:07:40Z</time>
      </trkpt>
      <trkpt lat="45.28528" lon="5.78711">
        <ele>1995.35</ele>
        <time>2015-03-07T21:07:46Z</time>
      </trkpt>
      <trkpt lat="45.28527" lon="5.78711">
        <ele>1996.8</ele>
        <time>2015-03-07T21:07:49Z</time>
      </trkpt>
      <trkpt lat="45.28527" lon="5.78711">
        <ele>1998.24</ele>
        <time>2015-03-07T21:07:52Z</time>
      </trkpt>
      <trkpt lat="45.28527" lon="5.78711">
        <ele>1993.43</ele>
        <time>2015-03-07T21:07:54Z</time>
      </trkpt>
      <trkpt lat="45.28527" lon="5.78711">
        <ele>1990.55</ele>
        <time>2015-03-07T21:07:56Z</time>
      </trkpt>
      <trkpt lat="45.28528" lon="5.78711">
        <ele>1994.87</ele>
        <time>2015-03-07T21:07:57Z</time>
      </trkpt>
      <trkpt lat="45.2853" lon="5.7871">
        <ele>1995.83</ele>
        <time>2015-03-07T21:08:01Z</time>
      </trkpt>
      <trkpt lat="45.2853" lon="5.7871">
        <ele>2000.64</ele>
        <time>2015-03-07T21:08:10Z</time>
      </trkpt>
      <trkpt lat="45.2853" lon="5.7871">
        <ele>1997.76</ele>
        <time>2015-03-07T21:08:12Z</time>
      </trkpt>
      <trkpt lat="45.2853" lon="5.7871">
        <ele>1997.76</ele>
        <time>2015-03-07T21:08:13Z</time>
      </trkpt>
      <trkpt lat="45.28529" lon="5.7871">
        <ele>1996.32</ele>
        <time>2015-03-07T21:08:22Z</time>
      </trkpt>
      <trkpt lat="45.28529" lon="5.78709">
        <ele>1999.2</ele>
        <time>2015-03-07T21:08:32Z</time>
      </trkpt>
      <trkpt lat="45.28529" lon="5.7871">
        <ele>2000.16</ele>
        <time>2015-03-07T21:08:34Z</time>
      </trkpt>
      <trkpt lat="45.28529" lon="5.7871">
        <ele>1997.28</ele>
        <time>2015-03-07T21:08:37Z</time>
      </trkpt>
      <trkpt lat="45.28529" lon="5.7871">
        <ele>1997.28</ele>
        <time>2015-03-07T21:08:38Z</time>
      </trkpt>
      <trkpt lat="45.28528" lon="5.78708">
        <ele>1998.24</ele>
        <time>2015-03-07T21:08:47Z</time>
      </trkpt>
      <trkpt lat="45.28528" lon="5.78708">
        <ele>1996.32</ele>
        <time>2015-03-07T21:08:53Z</time>
      </trkpt>
      <trkpt lat="45.28528" lon="5.78708">
        <ele>1998.24</ele>
        <time>2015-03-07T21:08:57Z</time>
      </trkpt>
      <trkpt lat="45.28528" lon="5.78708">
        <ele>2000.16</ele>
        <time>2015-03-07T21:09:03Z</time>
      </trkpt>
      <trkpt lat="45.28528" lon="5.78709">
        <ele>1996.8</ele>
        <time>2015-03-07T21:09:06Z</time>
      </trkpt>
      <trkpt lat="45.28528" lon="5.78709">
        <ele>1996.8</ele>
        <time>2015-03-07T21:09:07Z</time>
      </trkpt>
      <trkpt lat="45.28528" lon="5.78707">
        <ele>1999.2</ele>
        <time>2015-03-07T21:09:25Z</time>
      </trkpt>
      <trkpt lat="45.28528" lon="5.78706">
        <ele>1999.2</ele>
        <time>2015-03-07T21:09:36Z</time>
      </trkpt>
      <trkpt lat="45.28528" lon="5.78706">
        <ele>1997.76</ele>
        <time>2015-03-07T21:09:38Z</time>
      </trkpt>
      <trkpt lat="45.28527" lon="5.78705">
        <ele>1999.2</ele>
        <time>2015-03-07T21:09:45Z</time>
      </trkpt>
      <trkpt lat="45.28526" lon="5.78705">
        <ele>1997.28</ele>
        <time>2015-03-07T21:09:49Z</time>
      </trkpt>
      <trkpt lat="45.28527" lon="5.78703">
        <ele>1995.35</ele>
        <time>2015-03-07T21:10:07Z</time>
      </trkpt>
      <trkpt lat="45.28527" lon="5.78703">
        <ele>1997.76</ele>
        <time>2015-03-07T21:10:10Z</time>
      </trkpt>
      <trkpt lat="45.28527" lon="5.78704">
        <ele>1995.83</ele>
        <time>2015-03-07T21:10:17Z</time>
      </trkpt>
      <trkpt lat="45.28527" lon="5.78705">
        <ele>1998.72</ele>
        <time>2015-03-07T21:10:27Z</time>
      </trkpt>
      <trkpt lat="45.28527" lon="5.78704">
        <ele>1996.32</ele>
        <time>2015-03-07T21:10:29Z</time>
      </trkpt>
      <trkpt lat="45.28526" lon="5.78705">
        <ele>2000.16</ele>
        <time>2015-03-07T21:10:36Z</time>
      </trkpt>
      <trkpt lat="45.28526" lon="5.78704">
        <ele>1996.8</ele>
        <time>2015-03-07T21:10:38Z</time>
      </trkpt>
      <trkpt lat="45.28526" lon="5.78704">
        <ele>1996.8</ele>
        <time>2015-03-07T21:10:39Z</time>
      </trkpt>
      <trkpt lat="45.28525" lon="5.78704">
        <ele>1998.24</ele>
        <time>2015-03-07T21:10:42Z</time>
      </trkpt>
      <trkpt lat="45.28525" lon="5.78704">
        <ele>1995.35</ele>
        <time>2015-03-07T21:10:45Z</time>
      </trkpt>
      <trkpt lat="45.28525" lon="5.78704">
        <ele>1996.8</ele>
        <time>2015-03-07T21:10:56Z</time>
      </trkpt>
      <trkpt lat="45.28525" lon="5.78705">
        <ele>2000.64</ele>
        <time>2015-03-07T21:11:00Z</time>
      </trkpt>
      <trkpt lat="45.28526" lon="5.78705">
        <ele>1994.87</ele>
        <time>2015-03-07T21:11:02Z</time>
      </trkpt>
      <trkpt lat="45.28527" lon="5.78705">
        <ele>1994.87</ele>
        <time>2015-03-07T21:11:13Z</time>
      </trkpt>
      <trkpt lat="45.28528" lon="5.78705">
        <ele>1992.47</ele>
        <time>2015-03-07T21:11:17Z</time>
      </trkpt>
      <trkpt lat="45.28528" lon="5.78705">
        <ele>1994.39</ele>
        <time>2015-03-07T21:11:21Z</time>
      </trkpt>
      <trkpt lat="45.28532" lon="5.78706">
        <ele>1994.87</ele>
        <time>2015-03-07T21:11:34Z</time>
      </trkpt>
      <trkpt lat="45.28533" lon="5.78705">
        <ele>1996.32</ele>
        <time>2015-03-07T21:11:37Z</time>
      </trkpt>
      <trkpt lat="45.28538" lon="5.78704">
        <ele>1997.28</ele>
        <time>2015-03-07T21:11:47Z</time>
      </trkpt>
      <trkpt lat="45.28541" lon="5.78704">
        <ele>1997.76</ele>
        <time>2015-03-07T21:11:52Z</time>
      </trkpt>
      <trkpt lat="45.28542" lon="5.78704">
        <ele>1998.72</ele>
        <time>2015-03-07T21:11:55Z</time>
      </trkpt>
      <trkpt lat="45.28539" lon="5.7871">
        <ele>2000.16</ele>
        <time>2015-03-07T21:12:11Z</time>
      </trkpt>
      <trkpt lat="45.28541" lon="5.78714">
        <ele>2001.6</ele>
        <time>2015-03-07T21:12:29Z</time>
      </trkpt>
      <trkpt lat="45.28545" lon="5.78713">
        <ele>2002.56</ele>
        <time>2015-03-07T21:12:37Z</time>
      </trkpt>
      <trkpt lat="45.28555" lon="5.78712">
        <ele>2003.52</ele>
        <time>2015-03-07T21:12:59Z</time>
      </trkpt>
      <trkpt lat="45.28564" lon="5.78708">
        <ele>2003.04</ele>
        <time>2015-03-07T21:13:18Z</time>
      </trkpt>
      <trkpt lat="45.28566" lon="5.78708">
        <ele>2001.6</ele>
        <time>2015-03-07T21:13:22Z</time>
      </trkpt>
      <trkpt lat="45.28567" lon="5.78708">
        <ele>2003.04</ele>
        <time>2015-03-07T21:13:24Z</time>
      </trkpt>
      <trkpt lat="45.28568" lon="5.78708">
        <ele>2001.6</ele>
        <time>2015-03-07T21:13:27Z</time>
      </trkpt>
      <trkpt lat="45.2857" lon="5.78709">
        <ele>2004.01</ele>
        <time>2015-03-07T21:13:31Z</time>
      </trkpt>
      <trkpt lat="45.28572" lon="5.78707">
        <ele>2003.52</ele>
        <time>2015-03-07T21:13:35Z</time>
      </trkpt>
      <trkpt lat="45.28572" lon="5.78706">
        <ele>2002.56</ele>
        <time>2015-03-07T21:13:37Z</time>
      </trkpt>
      <trkpt lat="45.28576" lon="5.78703">
        <ele>1999.2</ele>
        <time>2015-03-07T21:13:48Z</time>
      </trkpt>
      <trkpt lat="45.28576" lon="5.78703">
        <ele>2001.6</ele>
        <time>2015-03-07T21:13:50Z</time>
      </trkpt>
      <trkpt lat="45.28578" lon="5.78701">
        <ele>2000.64</ele>
        <time>2015-03-07T21:13:56Z</time>
      </trkpt>
      <trkpt lat="45.28578" lon="5.787">
        <ele>2002.08</ele>
        <time>2015-03-07T21:13:59Z</time>
      </trkpt>
      <trkpt lat="45.28579" lon="5.78698">
        <ele>1999.2</ele>
        <time>2015-03-07T21:14:04Z</time>
      </trkpt>
      <trkpt lat="45.28581" lon="5.78697">
        <ele>1997.28</ele>
        <time>2015-03-07T21:14:12Z</time>
      </trkpt>
      <trkpt lat="45.28581" lon="5.78697">
        <ele>1999.68</ele>
        <time>2015-03-07T21:14:14Z</time>
      </trkpt>
      <trkpt lat="45.28586" lon="5.78698">
        <ele>2003.04</ele>
        <time>2015-03-07T21:14:29Z</time>
      </trkpt>
      <trkpt lat="45.28587" lon="5.78699">
        <ele>1999.68</ele>
        <time>2015-03-07T21:14:32Z</time>
      </trkpt>
      <trkpt lat="45.28589" lon="5.78701">
        <ele>2000.16</ele>
        <time>2015-03-07T21:14:41Z</time>
      </trkpt>
      <trkpt lat="45.28589" lon="5.78701">
        <ele>2001.12</ele>
        <time>2015-03-07T21:14:43Z</time>
      </trkpt>
      <trkpt lat="45.2859" lon="5.78701">
        <ele>1999.68</ele>
        <time>2015-03-07T21:14:45Z</time>
      </trkpt>
      <trkpt lat="45.28592" lon="5.787">
        <ele>2003.04</ele>
        <time>2015-03-07T21:14:52Z</time>
      </trkpt>
      <trkpt lat="45.28593" lon="5.78699">
        <ele>2002.56</ele>
        <time>2015-03-07T21:14:53Z</time>
      </trkpt>
      <trkpt lat="45.28595" lon="5.78699">
        <ele>2003.04</ele>
        <time>2015-03-07T21:14:57Z</time>
      </trkpt>
      <trkpt lat="45.28601" lon="5.78699">
        <ele>2004.01</ele>
        <time>2015-03-07T21:15:13Z</time>
      </trkpt>
      <trkpt lat="45.28602" lon="5.787">
        <ele>2003.52</ele>
        <time>2015-03-07T21:15:19Z</time>
      </trkpt>
      <trkpt lat="45.28603" lon="5.787">
        <ele>2008.81</ele>
        <time>2015-03-07T21:15:21Z</time>
      </trkpt>
      <trkpt lat="45.28603" lon="5.78701">
        <ele>2004.49</ele>
        <time>2015-03-07T21:15:22Z</time>
      </trkpt>
      <trkpt lat="45.28604" lon="5.78701">
        <ele>2007.85</ele>
        <time>2015-03-07T21:15:24Z</time>
      </trkpt>
      <trkpt lat="45.28604" lon="5.78701">
        <ele>2004.01</ele>
        <time>2015-03-07T21:15:25Z</time>
      </trkpt>
      <trkpt lat="45.28606" lon="5.78702">
        <ele>2002.08</ele>
        <time>2015-03-07T21:15:33Z</time>
      </trkpt>
      <trkpt lat="45.28606" lon="5.78702">
        <ele>2004.97</ele>
        <time>2015-03-07T21:15:35Z</time>
      </trkpt>
      <trkpt lat="45.28607" lon="5.78702">
        <ele>2006.41</ele>
        <time>2015-03-07T21:15:40Z</time>
      </trkpt>
      <trkpt lat="45.28607" lon="5.78702">
        <ele>2009.77</ele>
        <time>2015-03-07T21:15:42Z</time>
      </trkpt>
      <trkpt lat="45.28607" lon="5.78702">
        <ele>2004.97</ele>
        <time>2015-03-07T21:15:43Z</time>
      </trkpt>
      <trkpt lat="45.28608" lon="5.78702">
        <ele>2005.45</ele>
        <time>2015-03-07T21:15:48Z</time>
      </trkpt>
      <trkpt lat="45.28608" lon="5.78702">
        <ele>2008.81</ele>
        <time>2015-03-07T21:15:49Z</time>
      </trkpt>
      <trkpt lat="45.28608" lon="5.78702">
        <ele>2006.89</ele>
        <time>2015-03-07T21:15:50Z</time>
      </trkpt>
      <trkpt lat="45.28609" lon="5.78703">
        <ele>2004.49</ele>
        <time>2015-03-07T21:15:58Z</time>
      </trkpt>
      <trkpt lat="45.28609" lon="5.78703">
        <ele>2009.29</ele>
        <time>2015-03-07T21:15:59Z</time>
      </trkpt>
      <trkpt lat="45.2861" lon="5.78704">
        <ele>2007.37</ele>
        <time>2015-03-07T21:16:00Z</time>
      </trkpt>
      <trkpt lat="45.2861" lon="5.78704">
        <ele>2010.25</ele>
        <time>2015-03-07T21:16:04Z</time>
      </trkpt>
      <trkpt lat="45.2861" lon="5.78704">
        <ele>2006.89</ele>
        <time>2015-03-07T21:16:05Z</time>
      </trkpt>
      <trkpt lat="45.28611" lon="5.78703">
        <ele>2007.85</ele>
        <time>2015-03-07T21:16:18Z</time>
      </trkpt>
      <trkpt lat="45.28616" lon="5.78701">
        <ele>2008.33</ele>
        <time>2015-03-07T21:16:38Z</time>
      </trkpt>
      <trkpt lat="45.28616" lon="5.78701">
        <ele>2008.33</ele>
        <time>2015-03-07T21:16:39Z</time>
      </trkpt>
      <trkpt lat="45.28617" lon="5.78701">
        <ele>2011.22</ele>
        <time>2015-03-07T21:16:50Z</time>
      </trkpt>
      <trkpt lat="45.28617" lon="5.78701">
        <ele>2015.54</ele>
        <time>2015-03-07T21:16:53Z</time>
      </trkpt>
      <trkpt lat="45.28617" lon="5.78702">
        <ele>2014.1</ele>
        <time>2015-03-07T21:16:54Z</time>
      </trkpt>
      <trkpt lat="45.28616" lon="5.78701">
        <ele>2012.66</ele>
        <time>2015-03-07T21:16:56Z</time>
      </trkpt>
      <trkpt lat="45.28616" lon="5.78702">
        <ele>2013.62</ele>
        <time>2015-03-07T21:17:01Z</time>
      </trkpt>
      <trkpt lat="45.28616" lon="5.78704">
        <ele>2011.7</ele>
        <time>2015-03-07T21:17:03Z</time>
      </trkpt>
      <trkpt lat="45.28614" lon="5.78706">
        <ele>2013.14</ele>
        <time>2015-03-07T21:17:08Z</time>
      </trkpt>
      <trkpt lat="45.28613" lon="5.78707">
        <ele>2011.7</ele>
        <time>2015-03-07T21:17:13Z</time>
      </trkpt>
      <trkpt lat="45.2861" lon="5.78709">
        <ele>2013.14</ele>
        <time>2015-03-07T21:17:24Z</time>
      </trkpt>
      <trkpt lat="45.28606" lon="5.78711">
        <ele>2013.62</ele>
        <time>2015-03-07T21:17:42Z</time>
      </trkpt>
      <trkpt lat="45.28606" lon="5.7871">
        <ele>2015.06</ele>
        <time>2015-03-07T21:17:46Z</time>
      </trkpt>
      <trkpt lat="45.28607" lon="5.7871">
        <ele>2010.73</ele>
        <time>2015-03-07T21:17:48Z</time>
      </trkpt>
      <trkpt lat="45.28607" lon="5.78711">
        <ele>2010.73</ele>
        <time>2015-03-07T21:17:49Z</time>
      </trkpt>
      <trkpt lat="45.2861" lon="5.78709">
        <ele>2011.22</ele>
        <time>2015-03-07T21:17:56Z</time>
      </trkpt>
      <trkpt lat="45.28612" lon="5.78707">
        <ele>2010.73</ele>
        <time>2015-03-07T21:18:01Z</time>
      </trkpt>
      <trkpt lat="45.28615" lon="5.78707">
        <ele>2014.58</ele>
        <time>2015-03-07T21:18:11Z</time>
      </trkpt>
      <trkpt lat="45.28615" lon="5.78706">
        <ele>2014.58</ele>
        <time>2015-03-07T21:18:12Z</time>
      </trkpt>
      <trkpt lat="45.28618" lon="5.78705">
        <ele>2011.7</ele>
        <time>2015-03-07T21:18:21Z</time>
      </trkpt>
      <trkpt lat="45.28625" lon="5.78708">
        <ele>2011.22</ele>
        <time>2015-03-07T21:18:42Z</time>
      </trkpt>
      <trkpt lat="45.28626" lon="5.78708">
        <ele>2013.62</ele>
        <time>2015-03-07T21:18:45Z</time>
      </trkpt>
      <trkpt lat="45.28627" lon="5.78708">
        <ele>2015.54</ele>
        <time>2015-03-07T21:18:48Z</time>
      </trkpt>
      <trkpt lat="45.28628" lon="5.78709">
        <ele>2013.14</ele>
        <time>2015-03-07T21:18:51Z</time>
      </trkpt>
      <trkpt lat="45.28629" lon="5.78709">
        <ele>2015.06</ele>
        <time>2015-03-07T21:18:54Z</time>
      </trkpt>
      <trkpt lat="45.28633" lon="5.7871">
        <ele>2014.1</ele>
        <time>2015-03-07T21:19:12Z</time>
      </trkpt>
      <trkpt lat="45.28632" lon="5.78709">
        <ele>2017.94</ele>
        <time>2015-03-07T21:19:29Z</time>
      </trkpt>
      <trkpt lat="45.28632" lon="5.78709">
        <ele>2019.87</ele>
        <time>2015-03-07T21:19:39Z</time>
      </trkpt>
      <trkpt lat="45.28632" lon="5.78709">
        <ele>2016.5</ele>
        <time>2015-03-07T21:19:43Z</time>
      </trkpt>
      <trkpt lat="45.28633" lon="5.78707">
        <ele>2018.43</ele>
        <time>2015-03-07T21:20:05Z</time>
      </trkpt>
      <trkpt lat="45.28634" lon="5.78707">
        <ele>2015.54</ele>
        <time>2015-03-07T21:20:09Z</time>
      </trkpt>
      <trkpt lat="45.28634" lon="5.78708">
        <ele>2011.22</ele>
        <time>2015-03-07T21:20:12Z</time>
      </trkpt>
      <trkpt lat="45.28634" lon="5.78708">
        <ele>2011.22</ele>
        <time>2015-03-07T21:20:13Z</time>
      </trkpt>
      <trkpt lat="45.28634" lon="5.78708">
        <ele>2014.58</ele>
        <time>2015-03-07T21:20:15Z</time>
      </trkpt>
      <trkpt lat="45.28634" lon="5.78709">
        <ele>2015.54</ele>
        <time>2015-03-07T21:20:17Z</time>
      </trkpt>
      <trkpt lat="45.28634" lon="5.78709">
        <ele>2013.62</ele>
        <time>2015-03-07T21:20:19Z</time>
      </trkpt>
      <trkpt lat="45.28633" lon="5.78708">
        <ele>2015.54</ele>
        <time>2015-03-07T21:20:23Z</time>
      </trkpt>
      <trkpt lat="45.28633" lon="5.78708">
        <ele>2014.58</ele>
        <time>2015-03-07T21:20:28Z</time>
      </trkpt>
      <trkpt lat="45.28632" lon="5.78707">
        <ele>2018.43</ele>
        <time>2015-03-07T21:20:32Z</time>
      </trkpt>
      <trkpt lat="45.28632" lon="5.78709">
        <ele>2014.58</ele>
        <time>2015-03-07T21:20:48Z</time>
      </trkpt>
      <trkpt lat="45.28632" lon="5.78709">
        <ele>2014.58</ele>
        <time>2015-03-07T21:20:49Z</time>
      </trkpt>
      <trkpt lat="45.28631" lon="5.78709">
        <ele>2016.5</ele>
        <time>2015-03-07T21:20:51Z</time>
      </trkpt>
      <trkpt lat="45.28631" lon="5.7871">
        <ele>2015.54</ele>
        <time>2015-03-07T21:21:04Z</time>
      </trkpt>
      <trkpt lat="45.28631" lon="5.7871">
        <ele>2015.54</ele>
        <time>2015-03-07T21:21:17Z</time>
      </trkpt>
      <trkpt lat="45.28632" lon="5.7871">
        <ele>2018.43</ele>
        <time>2015-03-07T21:21:36Z</time>
      </trkpt>
      <trkpt lat="45.28631" lon="5.78712">
        <ele>2018.43</ele>
        <time>2015-03-07T21:21:52Z</time>
      </trkpt>
      <trkpt lat="45.28631" lon="5.78712">
        <ele>2016.98</ele>
        <time>2015-03-07T21:21:54Z</time>
      </trkpt>
      <trkpt lat="45.2863" lon="5.78712">
        <ele>2018.43</ele>
        <time>2015-03-07T21:22:02Z</time>
      </trkpt>
      <trkpt lat="45.28628" lon="5.78711">
        <ele>2017.46</ele>
        <time>2015-03-07T21:22:11Z</time>
      </trkpt>
      <trkpt lat="45.28628" lon="5.78711">
        <ele>2019.39</ele>
        <time>2015-03-07T21:22:13Z</time>
      </trkpt>
      <trkpt lat="45.28627" lon="5.78711">
        <ele>2016.02</ele>
        <time>2015-03-07T21:22:19Z</time>
      </trkpt>
      <trkpt lat="45.28626" lon="5.78712">
        <ele>2018.43</ele>
        <time>2015-03-07T21:22:23Z</time>
      </trkpt>
      <trkpt lat="45.28626" lon="5.78712">
        <ele>2018.43</ele>
        <time>2015-03-07T21:22:29Z</time>
      </trkpt>
      <trkpt lat="45.28626" lon="5.78711">
        <ele>2016.98</ele>
        <time>2015-03-07T21:22:32Z</time>
      </trkpt>
      <trkpt lat="45.28627" lon="5.78711">
        <ele>2018.43</ele>
        <time>2015-03-07T21:22:41Z</time>
      </trkpt>
      <trkpt lat="45.28627" lon="5.78712">
        <ele>2014.58</ele>
        <time>2015-03-07T21:22:46Z</time>
      </trkpt>
      <trkpt lat="45.28627" lon="5.78711">
        <ele>2014.58</ele>
        <time>2015-03-07T21:22:47Z</time>
      </trkpt>
      <trkpt lat="45.28629" lon="5.78708">
        <ele>2017.94</ele>
        <time>2015-03-07T21:22:59Z</time>
      </trkpt>
      <trkpt lat="45.28629" lon="5.78709">
        <ele>2017.94</ele>
        <time>2015-03-07T21:23:04Z</time>
      </trkpt>
      <trkpt lat="45.28629" lon="5.78709">
        <ele>2019.39</ele>
        <time>2015-03-07T21:23:07Z</time>
      </trkpt>
      <trkpt lat="45.28629" lon="5.7871">
        <ele>2017.46</ele>
        <time>2015-03-07T21:23:12Z</time>
      </trkpt>
      <trkpt lat="45.28629" lon="5.7871">
        <ele>2015.54</ele>
        <time>2015-03-07T21:23:17Z</time>
      </trkpt>
      <trkpt lat="45.28629" lon="5.7871">
        <ele>2016.98</ele>
        <time>2015-03-07T21:23:22Z</time>
      </trkpt>
      <trkpt lat="45.28631" lon="5.7871">
        <ele>2017.46</ele>
        <time>2015-03-07T21:23:36Z</time>
      </trkpt>
      <trkpt lat="45.28631" lon="5.78707">
        <ele>2014.58</ele>
        <time>2015-03-07T21:23:48Z</time>
      </trkpt>
      <trkpt lat="45.2863" lon="5.78708">
        <ele>2017.94</ele>
        <time>2015-03-07T21:23:51Z</time>
      </trkpt>
      <trkpt lat="45.2863" lon="5.78706">
        <ele>2016.98</ele>
        <time>2015-03-07T21:24:03Z</time>
      </trkpt>
      <trkpt lat="45.28629" lon="5.78706">
        <ele>2016.5</ele>
        <time>2015-03-07T21:24:13Z</time>
      </trkpt>
      <trkpt lat="45.28629" lon="5.78705">
        <ele>2017.94</ele>
        <time>2015-03-07T21:24:17Z</time>
      </trkpt>
      <trkpt lat="45.28629" lon="5.78705">
        <ele>2016.02</ele>
        <time>2015-03-07T21:24:22Z</time>
      </trkpt>
      <trkpt lat="45.28627" lon="5.78707">
        <ele>2020.83</ele>
        <time>2015-03-07T21:24:33Z</time>
      </trkpt>
      <trkpt lat="45.28627" lon="5.78708">
        <ele>2019.39</ele>
        <time>2015-03-07T21:24:34Z</time>
      </trkpt>
      <trkpt lat="45.28627" lon="5.78708">
        <ele>2016.98</ele>
        <time>2015-03-07T21:24:39Z</time>
      </trkpt>
      <trkpt lat="45.28627" lon="5.78708">
        <ele>2018.43</ele>
        <time>2015-03-07T21:24:41Z</time>
      </trkpt>
      <trkpt lat="45.28628" lon="5.78708">
        <ele>2015.06</ele>
        <time>2015-03-07T21:24:48Z</time>
      </trkpt>
      <trkpt lat="45.28631" lon="5.78713">
        <ele>2019.87</ele>
        <time>2015-03-07T21:24:58Z</time>
      </trkpt>
      <trkpt lat="45.28632" lon="5.78713">
        <ele>2019.87</ele>
        <time>2015-03-07T21:24:59Z</time>
      </trkpt>
      <trkpt lat="45.28633" lon="5.78713">
        <ele>2017.94</ele>
        <time>2015-03-07T21:25:02Z</time>
      </trkpt>
      <trkpt lat="45.28635" lon="5.78713">
        <ele>2019.87</ele>
        <time>2015-03-07T21:25:05Z</time>
      </trkpt>
      <trkpt lat="45.28635" lon="5.78714">
        <ele>2024.19</ele>
        <time>2015-03-07T21:25:07Z</time>
      </trkpt>
      <trkpt lat="45.28636" lon="5.78714">
        <ele>2019.87</ele>
        <time>2015-03-07T21:25:08Z</time>
      </trkpt>
      <trkpt lat="45.28636" lon="5.78715">
        <ele>2021.79</ele>
        <time>2015-03-07T21:25:12Z</time>
      </trkpt>
      <trkpt lat="45.28636" lon="5.78717">
        <ele>2026.12</ele>
        <time>2015-03-07T21:25:18Z</time>
      </trkpt>
      <trkpt lat="45.28636" lon="5.78717">
        <ele>2022.75</ele>
        <time>2015-03-07T21:25:20Z</time>
      </trkpt>
      <trkpt lat="45.28637" lon="5.78718">
        <ele>2022.75</ele>
        <time>2015-03-07T21:25:21Z</time>
      </trkpt>
      <trkpt lat="45.28636" lon="5.78719">
        <ele>2026.6</ele>
        <time>2015-03-07T21:25:25Z</time>
      </trkpt>
      <trkpt lat="45.28636" lon="5.7872">
        <ele>2026.6</ele>
        <time>2015-03-07T21:25:26Z</time>
      </trkpt>
      <trkpt lat="45.28636" lon="5.78724">
        <ele>2026.12</ele>
        <time>2015-03-07T21:25:36Z</time>
      </trkpt>
      <trkpt lat="45.28634" lon="5.78726">
        <ele>2029</ele>
        <time>2015-03-07T21:25:42Z</time>
      </trkpt>
      <trkpt lat="45.28633" lon="5.78727">
        <ele>2027.56</ele>
        <time>2015-03-07T21:25:45Z</time>
      </trkpt>
      <trkpt lat="45.28632" lon="5.78728">
        <ele>2029</ele>
        <time>2015-03-07T21:25:47Z</time>
      </trkpt>
      <trkpt lat="45.2863" lon="5.78729">
        <ele>2031.4</ele>
        <time>2015-03-07T21:25:51Z</time>
      </trkpt>
      <trkpt lat="45.28628" lon="5.7873">
        <ele>2029.48</ele>
        <time>2015-03-07T21:25:55Z</time>
      </trkpt>
      <trkpt lat="45.28627" lon="5.78731">
        <ele>2031.4</ele>
        <time>2015-03-07T21:25:58Z</time>
      </trkpt>
      <trkpt lat="45.28625" lon="5.78732">
        <ele>2033.33</ele>
        <time>2015-03-07T21:26:01Z</time>
      </trkpt>
      <trkpt lat="45.28623" lon="5.78733">
        <ele>2031.4</ele>
        <time>2015-03-07T21:26:11Z</time>
      </trkpt>
      <trkpt lat="45.28623" lon="5.78734">
        <ele>2030.92</ele>
        <time>2015-03-07T21:26:16Z</time>
      </trkpt>
      <trkpt lat="45.28627" lon="5.78737">
        <ele>2036.69</ele>
        <time>2015-03-07T21:26:27Z</time>
      </trkpt>
      <trkpt lat="45.28626" lon="5.78737">
        <ele>2036.69</ele>
        <time>2015-03-07T21:26:28Z</time>
      </trkpt>
      <trkpt lat="45.28623" lon="5.7874">
        <ele>2032.84</ele>
        <time>2015-03-07T21:26:37Z</time>
      </trkpt>
      <trkpt lat="45.28623" lon="5.7874">
        <ele>2032.84</ele>
        <time>2015-03-07T21:26:38Z</time>
      </trkpt>
      <trkpt lat="45.28622" lon="5.78741">
        <ele>2035.25</ele>
        <time>2015-03-07T21:26:41Z</time>
      </trkpt>
      <trkpt lat="45.28617" lon="5.78745">
        <ele>2036.69</ele>
        <time>2015-03-07T21:26:56Z</time>
      </trkpt>
      <trkpt lat="45.28616" lon="5.78745">
        <ele>2039.09</ele>
        <time>2015-03-07T21:26:58Z</time>
      </trkpt>
      <trkpt lat="45.28616" lon="5.78746">
        <ele>2037.17</ele>
        <time>2015-03-07T21:27:00Z</time>
      </trkpt>
      <trkpt lat="45.28614" lon="5.78748">
        <ele>2041.98</ele>
        <time>2015-03-07T21:27:06Z</time>
      </trkpt>
      <trkpt lat="45.28614" lon="5.78748">
        <ele>2040.54</ele>
        <time>2015-03-07T21:27:07Z</time>
      </trkpt>
      <trkpt lat="45.28612" lon="5.7875">
        <ele>2042.94</ele>
        <time>2015-03-07T21:27:13Z</time>
      </trkpt>
      <trkpt lat="45.28612" lon="5.78751">
        <ele>2041.02</ele>
        <time>2015-03-07T21:27:15Z</time>
      </trkpt>
      <trkpt lat="45.28612" lon="5.78752">
        <ele>2041.98</ele>
        <time>2015-03-07T21:27:17Z</time>
      </trkpt>
      <trkpt lat="45.28611" lon="5.78752">
        <ele>2044.38</ele>
        <time>2015-03-07T21:27:19Z</time>
      </trkpt>
      <trkpt lat="45.2861" lon="5.78753">
        <ele>2047.75</ele>
        <time>2015-03-07T21:27:21Z</time>
      </trkpt>
      <trkpt lat="45.2861" lon="5.78753">
        <ele>2047.75</ele>
        <time>2015-03-07T21:27:22Z</time>
      </trkpt>
      <trkpt lat="45.28608" lon="5.78755">
        <ele>2043.9</ele>
        <time>2015-03-07T21:27:27Z</time>
      </trkpt>
      <trkpt lat="45.28608" lon="5.78755">
        <ele>2047.75</ele>
        <time>2015-03-07T21:27:29Z</time>
      </trkpt>
      <trkpt lat="45.28609" lon="5.78756">
        <ele>2041.5</ele>
        <time>2015-03-07T21:27:30Z</time>
      </trkpt>
      <trkpt lat="45.28609" lon="5.78756">
        <ele>2043.42</ele>
        <time>2015-03-07T21:27:31Z</time>
      </trkpt>
      <trkpt lat="45.28613" lon="5.78758">
        <ele>2043.9</ele>
        <time>2015-03-07T21:27:47Z</time>
      </trkpt>
      <trkpt lat="45.28615" lon="5.7876">
        <ele>2047.75</ele>
        <time>2015-03-07T21:27:56Z</time>
      </trkpt>
      <trkpt lat="45.28615" lon="5.78761">
        <ele>2046.3</ele>
        <time>2015-03-07T21:27:59Z</time>
      </trkpt>
      <trkpt lat="45.28614" lon="5.78762">
        <ele>2047.75</ele>
        <time>2015-03-07T21:28:01Z</time>
      </trkpt>
      <trkpt lat="45.28612" lon="5.78763">
        <ele>2046.3</ele>
        <time>2015-03-07T21:28:04Z</time>
      </trkpt>
      <trkpt lat="45.2861" lon="5.78765">
        <ele>2048.71</ele>
        <time>2015-03-07T21:28:08Z</time>
      </trkpt>
      <trkpt lat="45.28607" lon="5.78768">
        <ele>2047.26</ele>
        <time>2015-03-07T21:28:15Z</time>
      </trkpt>
      <trkpt lat="45.28603" lon="5.7877">
        <ele>2050.15</ele>
        <time>2015-03-07T21:28:26Z</time>
      </trkpt>
      <trkpt lat="45.28599" lon="5.78775">
        <ele>2051.59</ele>
        <time>2015-03-07T21:28:40Z</time>
      </trkpt>
      <trkpt lat="45.28598" lon="5.78776">
        <ele>2050.63</ele>
        <time>2015-03-07T21:28:42Z</time>
      </trkpt>
      <trkpt lat="45.28597" lon="5.78778">
        <ele>2052.07</ele>
        <time>2015-03-07T21:28:50Z</time>
      </trkpt>
      <trkpt lat="45.28601" lon="5.78784">
        <ele>2053.51</ele>
        <time>2015-03-07T21:29:08Z</time>
      </trkpt>
      <trkpt lat="45.28606" lon="5.78785">
        <ele>2054.96</ele>
        <time>2015-03-07T21:29:24Z</time>
      </trkpt>
      <trkpt lat="45.28609" lon="5.78786">
        <ele>2056.4</ele>
        <time>2015-03-07T21:29:32Z</time>
      </trkpt>
      <trkpt lat="45.28613" lon="5.78789">
        <ele>2058.8</ele>
        <time>2015-03-07T21:29:49Z</time>
      </trkpt>
      <trkpt lat="45.2862" lon="5.78791">
        <ele>2062.17</ele>
        <time>2015-03-07T21:30:05Z</time>
      </trkpt>
      <trkpt lat="45.2862" lon="5.78791">
        <ele>2062.65</ele>
        <time>2015-03-07T21:30:07Z</time>
      </trkpt>
      <trkpt lat="45.28623" lon="5.78792">
        <ele>2059.76</ele>
        <time>2015-03-07T21:30:13Z</time>
      </trkpt>
      <trkpt lat="45.28629" lon="5.78795">
        <ele>2063.13</ele>
        <time>2015-03-07T21:30:27Z</time>
      </trkpt>
      <trkpt lat="45.28636" lon="5.78795">
        <ele>2063.61</ele>
        <time>2015-03-07T21:30:40Z</time>
      </trkpt>
      <trkpt lat="45.2864" lon="5.78795">
        <ele>2065.53</ele>
        <time>2015-03-07T21:30:46Z</time>
      </trkpt>
      <trkpt lat="45.28646" lon="5.78796">
        <ele>2066.01</ele>
        <time>2015-03-07T21:30:56Z</time>
      </trkpt>
      <trkpt lat="45.28651" lon="5.78796">
        <ele>2068.89</ele>
        <time>2015-03-07T21:31:05Z</time>
      </trkpt>
      <trkpt lat="45.28661" lon="5.78796">
        <ele>2073.22</ele>
        <time>2015-03-07T21:31:20Z</time>
      </trkpt>
      <trkpt lat="45.28661" lon="5.78796">
        <ele>2073.22</ele>
        <time>2015-03-07T21:31:21Z</time>
      </trkpt>
      <trkpt lat="45.28662" lon="5.78795">
        <ele>2070.34</ele>
        <time>2015-03-07T21:31:23Z</time>
      </trkpt>
      <trkpt lat="45.28667" lon="5.78795">
        <ele>2071.78</ele>
        <time>2015-03-07T21:31:31Z</time>
      </trkpt>
      <trkpt lat="45.28667" lon="5.78795">
        <ele>2069.38</ele>
        <time>2015-03-07T21:31:33Z</time>
      </trkpt>
      <trkpt lat="45.28668" lon="5.78795">
        <ele>2070.82</ele>
        <time>2015-03-07T21:31:35Z</time>
      </trkpt>
      <trkpt lat="45.2867" lon="5.78795">
        <ele>2072.26</ele>
        <time>2015-03-07T21:31:37Z</time>
      </trkpt>
      <trkpt lat="45.2867" lon="5.78795">
        <ele>2070.82</ele>
        <time>2015-03-07T21:31:39Z</time>
      </trkpt>
      <trkpt lat="45.28676" lon="5.78793">
        <ele>2074.18</ele>
        <time>2015-03-07T21:31:47Z</time>
      </trkpt>
      <trkpt lat="45.28679" lon="5.78793">
        <ele>2073.7</ele>
        <time>2015-03-07T21:31:51Z</time>
      </trkpt>
      <trkpt lat="45.28681" lon="5.78793">
        <ele>2071.3</ele>
        <time>2015-03-07T21:31:53Z</time>
      </trkpt>
      <trkpt lat="45.28684" lon="5.78793">
        <ele>2074.18</ele>
        <time>2015-03-07T21:31:56Z</time>
      </trkpt>
      <trkpt lat="45.28699" lon="5.78791">
        <ele>2074.18</ele>
        <time>2015-03-07T21:32:12Z</time>
      </trkpt>
      <trkpt lat="45.28706" lon="5.78789">
        <ele>2076.1</ele>
        <time>2015-03-07T21:32:20Z</time>
      </trkpt>
      <trkpt lat="45.28707" lon="5.78789">
        <ele>2072.74</ele>
        <time>2015-03-07T21:32:21Z</time>
      </trkpt>
      <trkpt lat="45.28708" lon="5.78788">
        <ele>2076.59</ele>
        <time>2015-03-07T21:32:23Z</time>
      </trkpt>
      <trkpt lat="45.28709" lon="5.78788">
        <ele>2081.39</ele>
        <time>2015-03-07T21:32:24Z</time>
      </trkpt>
      <trkpt lat="45.2871" lon="5.78787">
        <ele>2078.03</ele>
        <time>2015-03-07T21:32:25Z</time>
      </trkpt>
      <trkpt lat="45.2871" lon="5.78787">
        <ele>2081.87</ele>
        <time>2015-03-07T21:32:26Z</time>
      </trkpt>
      <trkpt lat="45.28711" lon="5.78787">
        <ele>2077.07</ele>
        <time>2015-03-07T21:32:28Z</time>
      </trkpt>
      <trkpt lat="45.28711" lon="5.78787">
        <ele>2077.07</ele>
        <time>2015-03-07T21:32:29Z</time>
      </trkpt>
      <trkpt lat="45.28711" lon="5.78787">
        <ele>2073.22</ele>
        <time>2015-03-07T21:32:34Z</time>
      </trkpt>
      <trkpt lat="45.2871" lon="5.78788">
        <ele>2073.7</ele>
        <time>2015-03-07T21:32:40Z</time>
      </trkpt>
      <trkpt lat="45.2871" lon="5.78788">
        <ele>2076.1</ele>
        <time>2015-03-07T21:32:42Z</time>
      </trkpt>
      <trkpt lat="45.2871" lon="5.78788">
        <ele>2073.22</ele>
        <time>2015-03-07T21:32:45Z</time>
      </trkpt>
      <trkpt lat="45.28711" lon="5.78786">
        <ele>2077.07</ele>
        <time>2015-03-07T21:32:51Z</time>
      </trkpt>
      <trkpt lat="45.28711" lon="5.78786">
        <ele>2077.07</ele>
        <time>2015-03-07T21:32:52Z</time>
      </trkpt>
      <trkpt lat="45.28711" lon="5.78787">
        <ele>2075.62</ele>
        <time>2015-03-07T21:33:00Z</time>
      </trkpt>
      <trkpt lat="45.28711" lon="5.78787">
        <ele>2079.47</ele>
        <time>2015-03-07T21:33:01Z</time>
      </trkpt>
      <trkpt lat="45.28711" lon="5.78787">
        <ele>2077.07</ele>
        <time>2015-03-07T21:33:02Z</time>
      </trkpt>
      <trkpt lat="45.28712" lon="5.78787">
        <ele>2080.91</ele>
        <time>2015-03-07T21:33:04Z</time>
      </trkpt>
      <trkpt lat="45.28712" lon="5.78787">
        <ele>2076.1</ele>
        <time>2015-03-07T21:33:05Z</time>
      </trkpt>
      <trkpt lat="45.28715" lon="5.78786">
        <ele>2073.22</ele>
        <time>2015-03-07T21:33:15Z</time>
      </trkpt>
      <trkpt lat="45.28715" lon="5.78786">
        <ele>2073.22</ele>
        <time>2015-03-07T21:33:16Z</time>
      </trkpt>
      <trkpt lat="45.28715" lon="5.78787">
        <ele>2075.14</ele>
        <time>2015-03-07T21:33:18Z</time>
      </trkpt>
      <trkpt lat="45.28716" lon="5.78787">
        <ele>2076.59</ele>
        <time>2015-03-07T21:33:20Z</time>
      </trkpt>
      <trkpt lat="45.28715" lon="5.78785">
        <ele>2073.7</ele>
        <time>2015-03-07T21:33:31Z</time>
      </trkpt>
      <trkpt lat="45.28715" lon="5.78785">
        <ele>2077.55</ele>
        <time>2015-03-07T21:33:34Z</time>
      </trkpt>
      <trkpt lat="45.28715" lon="5.78785">
        <ele>2075.62</ele>
        <time>2015-03-07T21:33:35Z</time>
      </trkpt>
      <trkpt lat="45.28715" lon="5.78784">
        <ele>2076.59</ele>
        <time>2015-03-07T21:33:39Z</time>
      </trkpt>
      <trkpt lat="45.28714" lon="5.78783">
        <ele>2078.51</ele>
        <time>2015-03-07T21:33:46Z</time>
      </trkpt>
      <trkpt lat="45.28714" lon="5.78783">
        <ele>2073.7</ele>
        <time>2015-03-07T21:33:54Z</time>
      </trkpt>
      <trkpt lat="45.28714" lon="5.78783">
        <ele>2075.62</ele>
        <time>2015-03-07T21:33:55Z</time>
      </trkpt>
      <trkpt lat="45.28714" lon="5.78782">
        <ele>2077.55</ele>
        <time>2015-03-07T21:33:57Z</time>
      </trkpt>
      <trkpt lat="45.28714" lon="5.78782">
        <ele>2076.1</ele>
        <time>2015-03-07T21:33:59Z</time>
      </trkpt>
      <trkpt lat="45.28717" lon="5.78782">
        <ele>2078.51</ele>
        <time>2015-03-07T21:34:07Z</time>
      </trkpt>
      <trkpt lat="45.28717" lon="5.78782">
        <ele>2073.22</ele>
        <time>2015-03-07T21:34:09Z</time>
      </trkpt>
      <trkpt lat="45.28717" lon="5.78783">
        <ele>2077.55</ele>
        <time>2015-03-07T21:34:10Z</time>
      </trkpt>
      <trkpt lat="45.28718" lon="5.78783">
        <ele>2073.7</ele>
        <time>2015-03-07T21:34:11Z</time>
      </trkpt>
      <trkpt lat="45.28719" lon="5.78784">
        <ele>2077.07</ele>
        <time>2015-03-07T21:34:13Z</time>
      </trkpt>
      <trkpt lat="45.28722" lon="5.78786">
        <ele>2079.95</ele>
        <time>2015-03-07T21:34:22Z</time>
      </trkpt>
      <trkpt lat="45.28722" lon="5.78786">
        <ele>2079.95</ele>
        <time>2015-03-07T21:34:23Z</time>
      </trkpt>
      <trkpt lat="45.28722" lon="5.78786">
        <ele>2080.43</ele>
        <time>2015-03-07T21:34:32Z</time>
      </trkpt>
      <trkpt lat="45.28722" lon="5.78786">
        <ele>2079.47</ele>
        <time>2015-03-07T21:34:38Z</time>
      </trkpt>
      <trkpt lat="45.28722" lon="5.78786">
        <ele>2080.43</ele>
        <time>2015-03-07T21:34:44Z</time>
      </trkpt>
      <trkpt lat="45.28722" lon="5.78786">
        <ele>2078.51</ele>
        <time>2015-03-07T21:34:50Z</time>
      </trkpt>
      <trkpt lat="45.28722" lon="5.78786">
        <ele>2080.91</ele>
        <time>2015-03-07T21:34:55Z</time>
      </trkpt>
      <trkpt lat="45.28723" lon="5.78787">
        <ele>2078.03</ele>
        <time>2015-03-07T21:35:09Z</time>
      </trkpt>
      <trkpt lat="45.28724" lon="5.78787">
        <ele>2079.47</ele>
        <time>2015-03-07T21:35:11Z</time>
      </trkpt>
      <trkpt lat="45.28724" lon="5.78787">
        <ele>2077.55</ele>
        <time>2015-03-07T21:35:13Z</time>
      </trkpt>
      <trkpt lat="45.28724" lon="5.78787">
        <ele>2079.47</ele>
        <time>2015-03-07T21:35:15Z</time>
      </trkpt>
      <trkpt lat="45.28725" lon="5.78788">
        <ele>2078.03</ele>
        <time>2015-03-07T21:35:19Z</time>
      </trkpt>
      <trkpt lat="45.28725" lon="5.78788">
        <ele>2078.03</ele>
        <time>2015-03-07T21:35:29Z</time>
      </trkpt>
      <trkpt lat="45.28725" lon="5.78788">
        <ele>2082.83</ele>
        <time>2015-03-07T21:35:31Z</time>
      </trkpt>
      <trkpt lat="45.28725" lon="5.78788">
        <ele>2080.91</ele>
        <time>2015-03-07T21:35:32Z</time>
      </trkpt>
      <trkpt lat="45.28726" lon="5.7879">
        <ele>2077.55</ele>
        <time>2015-03-07T21:35:48Z</time>
      </trkpt>
      <trkpt lat="45.28726" lon="5.7879">
        <ele>2077.55</ele>
        <time>2015-03-07T21:35:49Z</time>
      </trkpt>
      <trkpt lat="45.28726" lon="5.78791">
        <ele>2081.39</ele>
        <time>2015-03-07T21:35:51Z</time>
      </trkpt>
      <trkpt lat="45.28726" lon="5.78791">
        <ele>2081.39</ele>
        <time>2015-03-07T21:35:52Z</time>
      </trkpt>
      <trkpt lat="45.28726" lon="5.7879">
        <ele>2078.99</ele>
        <time>2015-03-07T21:35:55Z</time>
      </trkpt>
      <trkpt lat="45.28724" lon="5.78789">
        <ele>2080.43</ele>
        <time>2015-03-07T21:36:06Z</time>
      </trkpt>
      <trkpt lat="45.28724" lon="5.78789">
        <ele>2083.79</ele>
        <time>2015-03-07T21:36:11Z</time>
      </trkpt>
      <trkpt lat="45.28724" lon="5.78789">
        <ele>2080.91</ele>
        <time>2015-03-07T21:36:12Z</time>
      </trkpt>
      <trkpt lat="45.28724" lon="5.78788">
        <ele>2077.07</ele>
        <time>2015-03-07T21:36:15Z</time>
      </trkpt>
      <trkpt lat="45.28724" lon="5.78788">
        <ele>2077.07</ele>
        <time>2015-03-07T21:36:16Z</time>
      </trkpt>
      <trkpt lat="45.28724" lon="5.78788">
        <ele>2078.99</ele>
        <time>2015-03-07T21:36:24Z</time>
      </trkpt>
      <trkpt lat="45.28725" lon="5.78788">
        <ele>2075.14</ele>
        <time>2015-03-07T21:36:25Z</time>
      </trkpt>
      <trkpt lat="45.28725" lon="5.78788">
        <ele>2076.59</ele>
        <time>2015-03-07T21:36:26Z</time>
      </trkpt>
      <trkpt lat="45.28735" lon="5.78789">
        <ele>2077.07</ele>
        <time>2015-03-07T21:36:39Z</time>
      </trkpt>
      <trkpt lat="45.28738" lon="5.78791">
        <ele>2080.43</ele>
        <time>2015-03-07T21:36:43Z</time>
      </trkpt>
      <trkpt lat="45.28739" lon="5.78791">
        <ele>2080.43</ele>
        <time>2015-03-07T21:36:44Z</time>
      </trkpt>
      <trkpt lat="45.28741" lon="5.78792">
        <ele>2084.28</ele>
        <time>2015-03-07T21:36:48Z</time>
      </trkpt>
      <trkpt lat="45.28742" lon="5.78793">
        <ele>2078.03</ele>
        <time>2015-03-07T21:36:50Z</time>
      </trkpt>
      <trkpt lat="45.28743" lon="5.78794">
        <ele>2085.24</ele>
        <time>2015-03-07T21:36:51Z</time>
      </trkpt>
      <trkpt lat="45.28743" lon="5.78794">
        <ele>2078.99</ele>
        <time>2015-03-07T21:36:52Z</time>
      </trkpt>
      <trkpt lat="45.28744" lon="5.78795">
        <ele>2084.28</ele>
        <time>2015-03-07T21:36:54Z</time>
      </trkpt>
      <trkpt lat="45.28745" lon="5.78796">
        <ele>2081.87</ele>
        <time>2015-03-07T21:36:55Z</time>
      </trkpt>
      <trkpt lat="45.28748" lon="5.78797">
        <ele>2088.6</ele>
        <time>2015-03-07T21:36:59Z</time>
      </trkpt>
      <trkpt lat="45.28748" lon="5.78798">
        <ele>2081.87</ele>
        <time>2015-03-07T21:37:00Z</time>
      </trkpt>
      <trkpt lat="45.2875" lon="5.788">
        <ele>2078.99</ele>
        <time>2015-03-07T21:37:03Z</time>
      </trkpt>
      <trkpt lat="45.2875" lon="5.788">
        <ele>2082.35</ele>
        <time>2015-03-07T21:37:04Z</time>
      </trkpt>
      <trkpt lat="45.28751" lon="5.78801">
        <ele>2082.35</ele>
        <time>2015-03-07T21:37:05Z</time>
      </trkpt>
      <trkpt lat="45.28752" lon="5.78802">
        <ele>2078.99</ele>
        <time>2015-03-07T21:37:07Z</time>
      </trkpt>
      <trkpt lat="45.28757" lon="5.78807">
        <ele>2080.43</ele>
        <time>2015-03-07T21:37:15Z</time>
      </trkpt>
      <trkpt lat="45.28768" lon="5.78816">
        <ele>2079.47</ele>
        <time>2015-03-07T21:37:33Z</time>
      </trkpt>
      <trkpt lat="45.2877" lon="5.78818">
        <ele>2081.39</ele>
        <time>2015-03-07T21:37:39Z</time>
      </trkpt>
      <trkpt lat="45.2877" lon="5.78818">
        <ele>2079.95</ele>
        <time>2015-03-07T21:37:45Z</time>
      </trkpt>
      <trkpt lat="45.28769" lon="5.78818">
        <ele>2082.83</ele>
        <time>2015-03-07T21:37:58Z</time>
      </trkpt>
      <trkpt lat="45.28769" lon="5.78818">
        <ele>2080.91</ele>
        <time>2015-03-07T21:38:01Z</time>
      </trkpt>
      <trkpt lat="45.2877" lon="5.78819">
        <ele>2082.83</ele>
        <time>2015-03-07T21:38:06Z</time>
      </trkpt>
      <trkpt lat="45.2877" lon="5.7882">
        <ele>2080.91</ele>
        <time>2015-03-07T21:38:08Z</time>
      </trkpt>
      <trkpt lat="45.2877" lon="5.7882">
        <ele>2082.35</ele>
        <time>2015-03-07T21:38:10Z</time>
      </trkpt>
      <trkpt lat="45.2877" lon="5.7882">
        <ele>2079.95</ele>
        <time>2015-03-07T21:38:15Z</time>
      </trkpt>
      <trkpt lat="45.2877" lon="5.7882">
        <ele>2083.31</ele>
        <time>2015-03-07T21:38:26Z</time>
      </trkpt>
      <trkpt lat="45.28771" lon="5.78821">
        <ele>2083.79</ele>
        <time>2015-03-07T21:38:28Z</time>
      </trkpt>
      <trkpt lat="45.28771" lon="5.78821">
        <ele>2081.87</ele>
        <time>2015-03-07T21:38:30Z</time>
      </trkpt>
      <trkpt lat="45.28771" lon="5.7882">
        <ele>2082.35</ele>
        <time>2015-03-07T21:38:38Z</time>
      </trkpt>
      <trkpt lat="45.28771" lon="5.78818">
        <ele>2079.95</ele>
        <time>2015-03-07T21:38:43Z</time>
      </trkpt>
      <trkpt lat="45.28772" lon="5.78818">
        <ele>2082.35</ele>
        <time>2015-03-07T21:38:47Z</time>
      </trkpt>
      <trkpt lat="45.28772" lon="5.78818">
        <ele>2081.87</ele>
        <time>2015-03-07T21:38:56Z</time>
      </trkpt>
      <trkpt lat="45.28772" lon="5.78818">
        <ele>2082.35</ele>
        <time>2015-03-07T21:39:06Z</time>
      </trkpt>
      <trkpt lat="45.28772" lon="5.78818">
        <ele>2079.47</ele>
        <time>2015-03-07T21:39:08Z</time>
      </trkpt>
      <trkpt lat="45.28772" lon="5.78818">
        <ele>2082.35</ele>
        <time>2015-03-07T21:39:13Z</time>
      </trkpt>
      <trkpt lat="45.28772" lon="5.78818">
        <ele>2082.35</ele>
        <time>2015-03-07T21:39:14Z</time>
      </trkpt>
      <trkpt lat="45.28772" lon="5.78818">
        <ele>2081.87</ele>
        <time>2015-03-07T21:39:20Z</time>
      </trkpt>
      <trkpt lat="45.28772" lon="5.78818">
        <ele>2078.51</ele>
        <time>2015-03-07T21:39:31Z</time>
      </trkpt>
      <trkpt lat="45.28771" lon="5.78818">
        <ele>2081.87</ele>
        <time>2015-03-07T21:39:36Z</time>
      </trkpt>
      <trkpt lat="45.28771" lon="5.78817">
        <ele>2081.87</ele>
        <time>2015-03-07T21:39:37Z</time>
      </trkpt>
      <trkpt lat="45.28771" lon="5.78817">
        <ele>2080.43</ele>
        <time>2015-03-07T21:39:39Z</time>
      </trkpt>
      <trkpt lat="45.28772" lon="5.78818">
        <ele>2078.03</ele>
        <time>2015-03-07T21:39:50Z</time>
      </trkpt>
      <trkpt lat="45.28772" lon="5.78818">
        <ele>2079.47</ele>
        <time>2015-03-07T21:39:55Z</time>
      </trkpt>
      <trkpt lat="45.28772" lon="5.78818">
        <ele>2078.51</ele>
        <time>2015-03-07T21:40:04Z</time>
      </trkpt>
      <trkpt lat="45.28772" lon="5.78818">
        <ele>2078.51</ele>
        <time>2015-03-07T21:40:12Z</time>
      </trkpt>
      <trkpt lat="45.28772" lon="5.78818">
        <ele>2081.39</ele>
        <time>2015-03-07T21:40:18Z</time>
      </trkpt>
      <trkpt lat="45.28772" lon="5.78817">
        <ele>2079.95</ele>
        <time>2015-03-07T21:40:23Z</time>
      </trkpt>
      <trkpt lat="45.28771" lon="5.78818">
        <ele>2077.55</ele>
        <time>2015-03-07T21:40:32Z</time>
      </trkpt>
      <trkpt lat="45.28771" lon="5.78818">
        <ele>2078.99</ele>
        <time>2015-03-07T21:40:34Z</time>
      </trkpt>
      <trkpt lat="45.28772" lon="5.78819">
        <ele>2079.95</ele>
        <time>2015-03-07T21:40:55Z</time>
      </trkpt>
      <trkpt lat="45.28772" lon="5.7882">
        <ele>2080.43</ele>
        <time>2015-03-07T21:41:02Z</time>
      </trkpt>
      <trkpt lat="45.28773" lon="5.78819">
        <ele>2080.91</ele>
        <time>2015-03-07T21:41:17Z</time>
      </trkpt>
      <trkpt lat="45.28773" lon="5.78819">
        <ele>2079.47</ele>
        <time>2015-03-07T21:41:20Z</time>
      </trkpt>
      <trkpt lat="45.28773" lon="5.78819">
        <ele>2079.95</ele>
        <time>2015-03-07T21:41:42Z</time>
      </trkpt>
      <trkpt lat="45.28773" lon="5.78819">
        <ele>2080.91</ele>
        <time>2015-03-07T21:41:47Z</time>
      </trkpt>
      <trkpt lat="45.28773" lon="5.78819">
        <ele>2079.47</ele>
        <time>2015-03-07T21:41:49Z</time>
      </trkpt>
      <trkpt lat="45.28774" lon="5.78818">
        <ele>2081.39</ele>
        <time>2015-03-07T21:41:56Z</time>
      </trkpt>
      <trkpt lat="45.28774" lon="5.78818">
        <ele>2079.95</ele>
        <time>2015-03-07T21:41:58Z</time>
      </trkpt>
      <trkpt lat="45.28772" lon="5.78818">
        <ele>2080.43</ele>
        <time>2015-03-07T21:42:07Z</time>
      </trkpt>
      <trkpt lat="45.28772" lon="5.78819">
        <ele>2079.47</ele>
        <time>2015-03-07T21:42:11Z</time>
      </trkpt>
      <trkpt lat="45.28772" lon="5.78819">
        <ele>2079.47</ele>
        <time>2015-03-07T21:42:21Z</time>
      </trkpt>
      <trkpt lat="45.28771" lon="5.7882">
        <ele>2080.91</ele>
        <time>2015-03-07T21:42:39Z</time>
      </trkpt>
      <trkpt lat="45.28771" lon="5.7882">
        <ele>2078.03</ele>
        <time>2015-03-07T21:42:48Z</time>
      </trkpt>
      <trkpt lat="45.28771" lon="5.7882">
        <ele>2083.79</ele>
        <time>2015-03-07T21:42:50Z</time>
      </trkpt>
      <trkpt lat="45.28772" lon="5.7882">
        <ele>2082.35</ele>
        <time>2015-03-07T21:42:51Z</time>
      </trkpt>
      <trkpt lat="45.28772" lon="5.78819">
        <ele>2079.47</ele>
        <time>2015-03-07T21:42:56Z</time>
      </trkpt>
      <trkpt lat="45.28771" lon="5.78819">
        <ele>2078.99</ele>
        <time>2015-03-07T21:43:02Z</time>
      </trkpt>
      <trkpt lat="45.28772" lon="5.78819">
        <ele>2081.87</ele>
        <time>2015-03-07T21:43:07Z</time>
      </trkpt>
      <trkpt lat="45.28771" lon="5.78819">
        <ele>2081.39</ele>
        <time>2015-03-07T21:43:13Z</time>
      </trkpt>
      <trkpt lat="45.2877" lon="5.78819">
        <ele>2079.47</ele>
        <time>2015-03-07T21:43:16Z</time>
      </trkpt>
      <trkpt lat="45.28771" lon="5.78817">
        <ele>2081.39</ele>
        <time>2015-03-07T21:43:39Z</time>
      </trkpt>
      <trkpt lat="45.28771" lon="5.78817">
        <ele>2079.95</ele>
        <time>2015-03-07T21:43:41Z</time>
      </trkpt>
      <trkpt lat="45.28769" lon="5.78819">
        <ele>2080.43</ele>
        <time>2015-03-07T21:43:56Z</time>
      </trkpt>
      <trkpt lat="45.28769" lon="5.7882">
        <ele>2078.51</ele>
        <time>2015-03-07T21:44:02Z</time>
      </trkpt>
      <trkpt lat="45.28769" lon="5.7882">
        <ele>2081.87</ele>
        <time>2015-03-07T21:44:05Z</time>
      </trkpt>
      <trkpt lat="45.28769" lon="5.78821">
        <ele>2078.99</ele>
        <time>2015-03-07T21:44:07Z</time>
      </trkpt>
      <trkpt lat="45.28768" lon="5.78821">
        <ele>2078.99</ele>
        <time>2015-03-07T21:44:08Z</time>
      </trkpt>
      <trkpt lat="45.28766" lon="5.78819">
        <ele>2080.43</ele>
        <time>2015-03-07T21:44:12Z</time>
      </trkpt>
      <trkpt lat="45.28765" lon="5.78818">
        <ele>2078.99</ele>
        <time>2015-03-07T21:44:14Z</time>
      </trkpt>
      <trkpt lat="45.28759" lon="5.78811">
        <ele>2079.95</ele>
        <time>2015-03-07T21:44:22Z</time>
      </trkpt>
      <trkpt lat="45.28752" lon="5.78805">
        <ele>2076.59</ele>
        <time>2015-03-07T21:44:30Z</time>
      </trkpt>
      <trkpt lat="45.28749" lon="5.78804">
        <ele>2081.39</ele>
        <time>2015-03-07T21:44:33Z</time>
      </trkpt>
      <trkpt lat="45.28749" lon="5.78803">
        <ele>2081.39</ele>
        <time>2015-03-07T21:44:34Z</time>
      </trkpt>
      <trkpt lat="45.28748" lon="5.78802">
        <ele>2087.64</ele>
        <time>2015-03-07T21:44:35Z</time>
      </trkpt>
      <trkpt lat="45.28745" lon="5.78799">
        <ele>2083.31</ele>
        <time>2015-03-07T21:44:40Z</time>
      </trkpt>
      <trkpt lat="45.28744" lon="5.78799">
        <ele>2082.35</ele>
        <time>2015-03-07T21:44:42Z</time>
      </trkpt>
      <trkpt lat="45.28742" lon="5.78798">
        <ele>2084.28</ele>
        <time>2015-03-07T21:44:44Z</time>
      </trkpt>
      <trkpt lat="45.28741" lon="5.78798">
        <ele>2080.91</ele>
        <time>2015-03-07T21:44:45Z</time>
      </trkpt>
      <trkpt lat="45.2874" lon="5.78797">
        <ele>2079.95</ele>
        <time>2015-03-07T21:44:47Z</time>
      </trkpt>
      <trkpt lat="45.28739" lon="5.78797">
        <ele>2083.31</ele>
        <time>2015-03-07T21:44:48Z</time>
      </trkpt>
      <trkpt lat="45.28734" lon="5.78793">
        <ele>2078.99</ele>
        <time>2015-03-07T21:44:55Z</time>
      </trkpt>
      <trkpt lat="45.28732" lon="5.78792">
        <ele>2078.51</ele>
        <time>2015-03-07T21:45:00Z</time>
      </trkpt>
      <trkpt lat="45.2873" lon="5.78792">
        <ele>2080.91</ele>
        <time>2015-03-07T21:45:03Z</time>
      </trkpt>
      <trkpt lat="45.28727" lon="5.78789">
        <ele>2077.55</ele>
        <time>2015-03-07T21:45:08Z</time>
      </trkpt>
      <trkpt lat="45.28726" lon="5.78789">
        <ele>2077.55</ele>
        <time>2015-03-07T21:45:09Z</time>
      </trkpt>
      <trkpt lat="45.28725" lon="5.78788">
        <ele>2077.55</ele>
        <time>2015-03-07T21:45:10Z</time>
      </trkpt>
      <trkpt lat="45.28721" lon="5.78787">
        <ele>2078.51</ele>
        <time>2015-03-07T21:45:15Z</time>
      </trkpt>
      <trkpt lat="45.28719" lon="5.78786">
        <ele>2077.07</ele>
        <time>2015-03-07T21:45:18Z</time>
      </trkpt>
      <trkpt lat="45.28719" lon="5.78785">
        <ele>2078.51</ele>
        <time>2015-03-07T21:45:20Z</time>
      </trkpt>
      <trkpt lat="45.28717" lon="5.78784">
        <ele>2080.43</ele>
        <time>2015-03-07T21:45:25Z</time>
      </trkpt>
      <trkpt lat="45.28717" lon="5.78783">
        <ele>2078.99</ele>
        <time>2015-03-07T21:45:27Z</time>
      </trkpt>
      <trkpt lat="45.28716" lon="5.78782">
        <ele>2076.59</ele>
        <time>2015-03-07T21:45:30Z</time>
      </trkpt>
      <trkpt lat="45.28714" lon="5.78784">
        <ele>2072.74</ele>
        <time>2015-03-07T21:45:44Z</time>
      </trkpt>
      <trkpt lat="45.28714" lon="5.78785">
        <ele>2073.22</ele>
        <time>2015-03-07T21:45:51Z</time>
      </trkpt>
      <trkpt lat="45.28714" lon="5.78785">
        <ele>2075.14</ele>
        <time>2015-03-07T21:45:53Z</time>
      </trkpt>
      <trkpt lat="45.28714" lon="5.78786">
        <ele>2072.26</ele>
        <time>2015-03-07T21:45:56Z</time>
      </trkpt>
      <trkpt lat="45.28713" lon="5.78787">
        <ele>2076.1</ele>
        <time>2015-03-07T21:46:02Z</time>
      </trkpt>
      <trkpt lat="45.28713" lon="5.78787">
        <ele>2077.55</ele>
        <time>2015-03-07T21:46:04Z</time>
      </trkpt>
      <trkpt lat="45.28713" lon="5.78787">
        <ele>2074.18</ele>
        <time>2015-03-07T21:46:06Z</time>
      </trkpt>
      <trkpt lat="45.28713" lon="5.78787">
        <ele>2073.22</ele>
        <time>2015-03-07T21:46:08Z</time>
      </trkpt>
      <trkpt lat="45.28714" lon="5.78788">
        <ele>2075.62</ele>
        <time>2015-03-07T21:46:13Z</time>
      </trkpt>
      <trkpt lat="45.28714" lon="5.78787">
        <ele>2073.7</ele>
        <time>2015-03-07T21:46:16Z</time>
      </trkpt>
      <trkpt lat="45.28713" lon="5.78787">
        <ele>2075.14</ele>
        <time>2015-03-07T21:46:18Z</time>
      </trkpt>
      <trkpt lat="45.28713" lon="5.78786">
        <ele>2073.7</ele>
        <time>2015-03-07T21:46:24Z</time>
      </trkpt>
      <trkpt lat="45.28711" lon="5.78785">
        <ele>2075.14</ele>
        <time>2015-03-07T21:46:36Z</time>
      </trkpt>
      <trkpt lat="45.28711" lon="5.78786">
        <ele>2072.74</ele>
        <time>2015-03-07T21:46:38Z</time>
      </trkpt>
      <trkpt lat="45.28709" lon="5.78789">
        <ele>2076.1</ele>
        <time>2015-03-07T21:46:46Z</time>
      </trkpt>
      <trkpt lat="45.28707" lon="5.7879">
        <ele>2070.82</ele>
        <time>2015-03-07T21:46:49Z</time>
      </trkpt>
      <trkpt lat="45.28707" lon="5.7879">
        <ele>2070.82</ele>
        <time>2015-03-07T21:46:50Z</time>
      </trkpt>
      <trkpt lat="45.28705" lon="5.7879">
        <ele>2075.62</ele>
        <time>2015-03-07T21:46:52Z</time>
      </trkpt>
      <trkpt lat="45.28703" lon="5.78792">
        <ele>2072.26</ele>
        <time>2015-03-07T21:46:57Z</time>
      </trkpt>
      <trkpt lat="45.28702" lon="5.78792">
        <ele>2075.14</ele>
        <time>2015-03-07T21:46:58Z</time>
      </trkpt>
      <trkpt lat="45.28701" lon="5.78792">
        <ele>2075.14</ele>
        <time>2015-03-07T21:46:59Z</time>
      </trkpt>
      <trkpt lat="45.28701" lon="5.78792">
        <ele>2072.26</ele>
        <time>2015-03-07T21:47:00Z</time>
      </trkpt>
      <trkpt lat="45.28697" lon="5.78793">
        <ele>2071.3</ele>
        <time>2015-03-07T21:47:05Z</time>
      </trkpt>
      <trkpt lat="45.28694" lon="5.78793">
        <ele>2074.66</ele>
        <time>2015-03-07T21:47:08Z</time>
      </trkpt>
      <trkpt lat="45.28691" lon="5.78793">
        <ele>2072.26</ele>
        <time>2015-03-07T21:47:12Z</time>
      </trkpt>
      <trkpt lat="45.28689" lon="5.78794">
        <ele>2075.62</ele>
        <time>2015-03-07T21:47:14Z</time>
      </trkpt>
      <trkpt lat="45.28686" lon="5.78794">
        <ele>2075.14</ele>
        <time>2015-03-07T21:47:17Z</time>
      </trkpt>
      <trkpt lat="45.28684" lon="5.78794">
        <ele>2072.74</ele>
        <time>2015-03-07T21:47:19Z</time>
      </trkpt>
      <trkpt lat="45.28681" lon="5.78794">
        <ele>2071.3</ele>
        <time>2015-03-07T21:47:22Z</time>
      </trkpt>
      <trkpt lat="45.28671" lon="5.78795">
        <ele>2068.89</ele>
        <time>2015-03-07T21:47:34Z</time>
      </trkpt>
      <trkpt lat="45.28666" lon="5.78797">
        <ele>2066.01</ele>
        <time>2015-03-07T21:47:41Z</time>
      </trkpt>
      <trkpt lat="45.28665" lon="5.78797">
        <ele>2066.01</ele>
        <time>2015-03-07T21:47:42Z</time>
      </trkpt>
      <trkpt lat="45.28656" lon="5.78799">
        <ele>2064.57</ele>
        <time>2015-03-07T21:47:50Z</time>
      </trkpt>
      <trkpt lat="45.28639" lon="5.78797">
        <ele>2061.2</ele>
        <time>2015-03-07T21:48:07Z</time>
      </trkpt>
      <trkpt lat="45.28638" lon="5.78797">
        <ele>2061.2</ele>
        <time>2015-03-07T21:48:08Z</time>
      </trkpt>
      <trkpt lat="45.28635" lon="5.78797">
        <ele>2062.17</ele>
        <time>2015-03-07T21:48:11Z</time>
      </trkpt>
      <trkpt lat="45.28627" lon="5.78796">
        <ele>2061.2</ele>
        <time>2015-03-07T21:48:19Z</time>
      </trkpt>
      <trkpt lat="45.28613" lon="5.78792">
        <ele>2058.32</ele>
        <time>2015-03-07T21:48:37Z</time>
      </trkpt>
      <trkpt lat="45.28603" lon="5.78787">
        <ele>2054.47</ele>
        <time>2015-03-07T21:48:53Z</time>
      </trkpt>
      <trkpt lat="45.28596" lon="5.78784">
        <ele>2052.07</ele>
        <time>2015-03-07T21:49:02Z</time>
      </trkpt>
      <trkpt lat="45.28595" lon="5.78775">
        <ele>2048.23</ele>
        <time>2015-03-07T21:49:17Z</time>
      </trkpt>
      <trkpt lat="45.28599" lon="5.78772">
        <ele>2045.34</ele>
        <time>2015-03-07T21:49:21Z</time>
      </trkpt>
      <trkpt lat="45.286" lon="5.78771">
        <ele>2043.9</ele>
        <time>2015-03-07T21:49:23Z</time>
      </trkpt>
      <trkpt lat="45.28603" lon="5.78769">
        <ele>2042.94</ele>
        <time>2015-03-07T21:49:27Z</time>
      </trkpt>
      <trkpt lat="45.28615" lon="5.7876">
        <ele>2043.9</ele>
        <time>2015-03-07T21:49:43Z</time>
      </trkpt>
      <trkpt lat="45.28612" lon="5.78758">
        <ele>2043.9</ele>
        <time>2015-03-07T21:49:47Z</time>
      </trkpt>
      <trkpt lat="45.2861" lon="5.78758">
        <ele>2041.02</ele>
        <time>2015-03-07T21:49:50Z</time>
      </trkpt>
      <trkpt lat="45.28607" lon="5.78755">
        <ele>2038.13</ele>
        <time>2015-03-07T21:49:55Z</time>
      </trkpt>
      <trkpt lat="45.28609" lon="5.78753">
        <ele>2032.36</ele>
        <time>2015-03-07T21:49:58Z</time>
      </trkpt>
      <trkpt lat="45.2861" lon="5.78753">
        <ele>2032.36</ele>
        <time>2015-03-07T21:49:59Z</time>
      </trkpt>
      <trkpt lat="45.28614" lon="5.78749">
        <ele>2031.4</ele>
        <time>2015-03-07T21:50:04Z</time>
      </trkpt>
      <trkpt lat="45.2862" lon="5.78742">
        <ele>2029.96</ele>
        <time>2015-03-07T21:50:12Z</time>
      </trkpt>
      <trkpt lat="45.28621" lon="5.78741">
        <ele>2026.6</ele>
        <time>2015-03-07T21:50:14Z</time>
      </trkpt>
      <trkpt lat="45.28622" lon="5.78741">
        <ele>2026.6</ele>
        <time>2015-03-07T21:50:15Z</time>
      </trkpt>
      <trkpt lat="45.28628" lon="5.78734">
        <ele>2026.12</ele>
        <time>2015-03-07T21:50:24Z</time>
      </trkpt>
      <trkpt lat="45.28628" lon="5.78734">
        <ele>2029.48</ele>
        <time>2015-03-07T21:50:25Z</time>
      </trkpt>
      <trkpt lat="45.28628" lon="5.78733">
        <ele>2029.48</ele>
        <time>2015-03-07T21:50:26Z</time>
      </trkpt>
      <trkpt lat="45.28622" lon="5.78729">
        <ele>2025.15</ele>
        <time>2015-03-07T21:50:35Z</time>
      </trkpt>
      <trkpt lat="45.28624" lon="5.78728">
        <ele>2022.75</ele>
        <time>2015-03-07T21:50:37Z</time>
      </trkpt>
      <trkpt lat="45.28627" lon="5.78727">
        <ele>2019.87</ele>
        <time>2015-03-07T21:50:41Z</time>
      </trkpt>
      <trkpt lat="45.28631" lon="5.78725">
        <ele>2021.79</ele>
        <time>2015-03-07T21:50:45Z</time>
      </trkpt>
      <trkpt lat="45.28634" lon="5.7872">
        <ele>2018.91</ele>
        <time>2015-03-07T21:50:51Z</time>
      </trkpt>
      <trkpt lat="45.28637" lon="5.78716">
        <ele>2016.98</ele>
        <time>2015-03-07T21:50:56Z</time>
      </trkpt>
      <trkpt lat="45.28638" lon="5.78714">
        <ele>2015.54</ele>
        <time>2015-03-07T21:51:00Z</time>
      </trkpt>
      <trkpt lat="45.28637" lon="5.78713">
        <ele>2017.46</ele>
        <time>2015-03-07T21:51:04Z</time>
      </trkpt>
      <trkpt lat="45.28636" lon="5.78713">
        <ele>2015.54</ele>
        <time>2015-03-07T21:51:06Z</time>
      </trkpt>
      <trkpt lat="45.28633" lon="5.78713">
        <ele>2016.98</ele>
        <time>2015-03-07T21:51:09Z</time>
      </trkpt>
      <trkpt lat="45.28629" lon="5.78711">
        <ele>2013.62</ele>
        <time>2015-03-07T21:51:15Z</time>
      </trkpt>
      <trkpt lat="45.28629" lon="5.7871">
        <ele>2011.7</ele>
        <time>2015-03-07T21:51:20Z</time>
      </trkpt>
      <trkpt lat="45.28629" lon="5.78709">
        <ele>2013.62</ele>
        <time>2015-03-07T21:51:23Z</time>
      </trkpt>
      <trkpt lat="45.2863" lon="5.78708">
        <ele>2010.73</ele>
        <time>2015-03-07T21:51:27Z</time>
      </trkpt>
      <trkpt lat="45.2863" lon="5.78709">
        <ele>2012.66</ele>
        <time>2015-03-07T21:51:31Z</time>
      </trkpt>
      <trkpt lat="45.28631" lon="5.78709">
        <ele>2013.62</ele>
        <time>2015-03-07T21:51:35Z</time>
      </trkpt>
      <trkpt lat="45.28632" lon="5.78709">
        <ele>2015.06</ele>
        <time>2015-03-07T21:51:41Z</time>
      </trkpt>
      <trkpt lat="45.28629" lon="5.78708">
        <ele>2011.7</ele>
        <time>2015-03-07T21:51:58Z</time>
      </trkpt>
      <trkpt lat="45.2863" lon="5.78708">
        <ele>2011.7</ele>
        <time>2015-03-07T21:51:59Z</time>
      </trkpt>
      <trkpt lat="45.2863" lon="5.78708">
        <ele>2013.62</ele>
        <time>2015-03-07T21:52:03Z</time>
      </trkpt>
      <trkpt lat="45.28629" lon="5.78708">
        <ele>2012.66</ele>
        <time>2015-03-07T21:52:07Z</time>
      </trkpt>
      <trkpt lat="45.2863" lon="5.78708">
        <ele>2011.7</ele>
        <time>2015-03-07T21:52:23Z</time>
      </trkpt>
      <trkpt lat="45.28629" lon="5.78708">
        <ele>2012.18</ele>
        <time>2015-03-07T21:52:37Z</time>
      </trkpt>
      <trkpt lat="45.2863" lon="5.78708">
        <ele>2013.62</ele>
        <time>2015-03-07T21:52:40Z</time>
      </trkpt>
      <trkpt lat="45.28631" lon="5.78708">
        <ele>2010.25</ele>
        <time>2015-03-07T21:52:47Z</time>
      </trkpt>
      <trkpt lat="45.28631" lon="5.78708">
        <ele>2014.1</ele>
        <time>2015-03-07T21:52:55Z</time>
      </trkpt>
      <trkpt lat="45.28631" lon="5.78707">
        <ele>2010.73</ele>
        <time>2015-03-07T21:52:59Z</time>
      </trkpt>
      <trkpt lat="45.28631" lon="5.78707">
        <ele>2010.73</ele>
        <time>2015-03-07T21:53:00Z</time>
      </trkpt>
      <trkpt lat="45.28631" lon="5.78707">
        <ele>2013.14</ele>
        <time>2015-03-07T21:53:02Z</time>
      </trkpt>
      <trkpt lat="45.28631" lon="5.78706">
        <ele>2013.14</ele>
        <time>2015-03-07T21:53:12Z</time>
      </trkpt>
      <trkpt lat="45.28631" lon="5.78706">
        <ele>2011.22</ele>
        <time>2015-03-07T21:53:15Z</time>
      </trkpt>
      <trkpt lat="45.28631" lon="5.78706">
        <ele>2012.66</ele>
        <time>2015-03-07T21:53:17Z</time>
      </trkpt>
      <trkpt lat="45.28631" lon="5.78706">
        <ele>2011.22</ele>
        <time>2015-03-07T21:53:22Z</time>
      </trkpt>
      <trkpt lat="45.28631" lon="5.78706">
        <ele>2012.66</ele>
        <time>2015-03-07T21:53:32Z</time>
      </trkpt>
      <trkpt lat="45.28631" lon="5.78706">
        <ele>2014.1</ele>
        <time>2015-03-07T21:53:35Z</time>
      </trkpt>
      <trkpt lat="45.28631" lon="5.78706">
        <ele>2011.22</ele>
        <time>2015-03-07T21:53:38Z</time>
      </trkpt>
      <trkpt lat="45.28631" lon="5.78706">
        <ele>2013.14</ele>
        <time>2015-03-07T21:53:44Z</time>
      </trkpt>
      <trkpt lat="45.28629" lon="5.78709">
        <ele>2012.66</ele>
        <time>2015-03-07T21:53:57Z</time>
      </trkpt>
      <trkpt lat="45.28629" lon="5.7871">
        <ele>2012.66</ele>
        <time>2015-03-07T21:54:26Z</time>
      </trkpt>
      <trkpt lat="45.28629" lon="5.78707">
        <ele>2014.1</ele>
        <time>2015-03-07T21:54:48Z</time>
      </trkpt>
      <trkpt lat="45.28629" lon="5.78707">
        <ele>2012.18</ele>
        <time>2015-03-07T21:54:50Z</time>
      </trkpt>
      <trkpt lat="45.28629" lon="5.78706">
        <ele>2013.62</ele>
        <time>2015-03-07T21:54:55Z</time>
      </trkpt>
      <trkpt lat="45.2863" lon="5.78705">
        <ele>2014.1</ele>
        <time>2015-03-07T21:55:12Z</time>
      </trkpt>
      <trkpt lat="45.28629" lon="5.78707">
        <ele>2012.66</ele>
        <time>2015-03-07T21:55:33Z</time>
      </trkpt>
      <trkpt lat="45.2863" lon="5.78707">
        <ele>2011.7</ele>
        <time>2015-03-07T21:55:40Z</time>
      </trkpt>
      <trkpt lat="45.28629" lon="5.78707">
        <ele>2012.66</ele>
        <time>2015-03-07T21:55:46Z</time>
      </trkpt>
      <trkpt lat="45.28629" lon="5.78706">
        <ele>2016.02</ele>
        <time>2015-03-07T21:55:54Z</time>
      </trkpt>
      <trkpt lat="45.28629" lon="5.78706">
        <ele>2016.02</ele>
        <time>2015-03-07T21:55:55Z</time>
      </trkpt>
      <trkpt lat="45.28629" lon="5.78706">
        <ele>2014.1</ele>
        <time>2015-03-07T21:55:59Z</time>
      </trkpt>
      <trkpt lat="45.28629" lon="5.78706">
        <ele>2008.81</ele>
        <time>2015-03-07T21:56:03Z</time>
      </trkpt>
      <trkpt lat="45.28629" lon="5.78706">
        <ele>2012.18</ele>
        <time>2015-03-07T21:56:04Z</time>
      </trkpt>
      <trkpt lat="45.28632" lon="5.78709">
        <ele>2012.66</ele>
        <time>2015-03-07T21:56:11Z</time>
      </trkpt>
      <trkpt lat="45.28632" lon="5.7871">
        <ele>2012.66</ele>
        <time>2015-03-07T21:56:16Z</time>
      </trkpt>
      <trkpt lat="45.28631" lon="5.78709">
        <ele>2016.02</ele>
        <time>2015-03-07T21:56:19Z</time>
      </trkpt>
      <trkpt lat="45.28631" lon="5.78708">
        <ele>2014.58</ele>
        <time>2015-03-07T21:56:20Z</time>
      </trkpt>
      <trkpt lat="45.28631" lon="5.78708">
        <ele>2013.14</ele>
        <time>2015-03-07T21:56:23Z</time>
      </trkpt>
      <trkpt lat="45.28631" lon="5.78707">
        <ele>2013.62</ele>
        <time>2015-03-07T21:56:28Z</time>
      </trkpt>
      <trkpt lat="45.28629" lon="5.78706">
        <ele>2011.22</ele>
        <time>2015-03-07T21:56:51Z</time>
      </trkpt>
      <trkpt lat="45.28628" lon="5.78703">
        <ele>2015.06</ele>
        <time>2015-03-07T21:57:00Z</time>
      </trkpt>
      <trkpt lat="45.28628" lon="5.78703">
        <ele>2011.7</ele>
        <time>2015-03-07T21:57:01Z</time>
      </trkpt>
      <trkpt lat="45.28627" lon="5.78704">
        <ele>2007.37</ele>
        <time>2015-03-07T21:57:05Z</time>
      </trkpt>
      <trkpt lat="45.28628" lon="5.78705">
        <ele>2007.37</ele>
        <time>2015-03-07T21:57:06Z</time>
      </trkpt>
      <trkpt lat="45.28628" lon="5.78705">
        <ele>2016.98</ele>
        <time>2015-03-07T21:57:07Z</time>
      </trkpt>
      <trkpt lat="45.28628" lon="5.78706">
        <ele>2014.1</ele>
        <time>2015-03-07T21:57:08Z</time>
      </trkpt>
      <trkpt lat="45.28625" lon="5.78708">
        <ele>2008.33</ele>
        <time>2015-03-07T21:57:16Z</time>
      </trkpt>
      <trkpt lat="45.28623" lon="5.78712">
        <ele>2019.87</ele>
        <time>2015-03-07T21:57:19Z</time>
      </trkpt>
      <trkpt lat="45.28623" lon="5.78714">
        <ele>2013.62</ele>
        <time>2015-03-07T21:57:20Z</time>
      </trkpt>
      <trkpt lat="45.28623" lon="5.78711">
        <ele>2012.18</ele>
        <time>2015-03-07T21:57:23Z</time>
      </trkpt>
      <trkpt lat="45.28625" lon="5.78708">
        <ele>2012.66</ele>
        <time>2015-03-07T21:57:30Z</time>
      </trkpt>
      <trkpt lat="45.28625" lon="5.78708">
        <ele>2010.73</ele>
        <time>2015-03-07T21:57:32Z</time>
      </trkpt>
      <trkpt lat="45.28624" lon="5.78708">
        <ele>2012.18</ele>
        <time>2015-03-07T21:57:35Z</time>
      </trkpt>
      <trkpt lat="45.28623" lon="5.78709">
        <ele>2007.85</ele>
        <time>2015-03-07T21:57:38Z</time>
      </trkpt>
      <trkpt lat="45.28623" lon="5.7871">
        <ele>2012.66</ele>
        <time>2015-03-07T21:57:39Z</time>
      </trkpt>
      <trkpt lat="45.28623" lon="5.78711">
        <ele>2012.66</ele>
        <time>2015-03-07T21:57:40Z</time>
      </trkpt>
      <trkpt lat="45.28623" lon="5.78714">
        <ele>2014.1</ele>
        <time>2015-03-07T21:57:42Z</time>
      </trkpt>
      <trkpt lat="45.28623" lon="5.78714">
        <ele>2020.35</ele>
        <time>2015-03-07T21:57:43Z</time>
      </trkpt>
      <trkpt lat="45.28623" lon="5.78715">
        <ele>2013.14</ele>
        <time>2015-03-07T21:57:44Z</time>
      </trkpt>
      <trkpt lat="45.28627" lon="5.78707">
        <ele>2011.7</ele>
        <time>2015-03-07T21:58:01Z</time>
      </trkpt>
      <trkpt lat="45.28627" lon="5.78707">
        <ele>2011.22</ele>
        <time>2015-03-07T21:58:10Z</time>
      </trkpt>
      <trkpt lat="45.28627" lon="5.78707">
        <ele>2014.1</ele>
        <time>2015-03-07T21:58:13Z</time>
      </trkpt>
      <trkpt lat="45.28626" lon="5.78709">
        <ele>2013.14</ele>
        <time>2015-03-07T21:58:46Z</time>
      </trkpt>
      <trkpt lat="45.28626" lon="5.78708">
        <ele>2012.66</ele>
        <time>2015-03-07T21:59:08Z</time>
      </trkpt>
      <trkpt lat="45.28623" lon="5.78707">
        <ele>2013.14</ele>
        <time>2015-03-07T21:59:15Z</time>
      </trkpt>
      <trkpt lat="45.28619" lon="5.78706">
        <ele>2011.7</ele>
        <time>2015-03-07T21:59:18Z</time>
      </trkpt>
      <trkpt lat="45.28612" lon="5.78704">
        <ele>2010.25</ele>
        <time>2015-03-07T21:59:23Z</time>
      </trkpt>
      <trkpt lat="45.28601" lon="5.787">
        <ele>2007.37</ele>
        <time>2015-03-07T21:59:28Z</time>
      </trkpt>
      <trkpt lat="45.28597" lon="5.787">
        <ele>2005.93</ele>
        <time>2015-03-07T21:59:30Z</time>
      </trkpt>
      <trkpt lat="45.28598" lon="5.787">
        <ele>2004.01</ele>
        <time>2015-03-07T21:59:37Z</time>
      </trkpt>
      <trkpt lat="45.28598" lon="5.787">
        <ele>2007.85</ele>
        <time>2015-03-07T21:59:41Z</time>
      </trkpt>
      <trkpt lat="45.28594" lon="5.78695">
        <ele>2003.52</ele>
        <time>2015-03-07T21:59:59Z</time>
      </trkpt>
      <trkpt lat="45.28593" lon="5.78694">
        <ele>2003.52</ele>
        <time>2015-03-07T22:00:00Z</time>
      </trkpt>
      <trkpt lat="45.28592" lon="5.78693">
        <ele>2002.56</ele>
        <time>2015-03-07T22:00:01Z</time>
      </trkpt>
      <trkpt lat="45.28588" lon="5.78688">
        <ele>1996.8</ele>
        <time>2015-03-07T22:00:05Z</time>
      </trkpt>
      <trkpt lat="45.28584" lon="5.78683">
        <ele>1993.91</ele>
        <time>2015-03-07T22:00:09Z</time>
      </trkpt>
      <trkpt lat="45.2858" lon="5.78679">
        <ele>1988.62</ele>
        <time>2015-03-07T22:00:13Z</time>
      </trkpt>
      <trkpt lat="45.2858" lon="5.78677">
        <ele>1987.66</ele>
        <time>2015-03-07T22:00:14Z</time>
      </trkpt>
      <trkpt lat="45.28582" lon="5.78675">
        <ele>1986.22</ele>
        <time>2015-03-07T22:00:16Z</time>
      </trkpt>
      <trkpt lat="45.28585" lon="5.78671">
        <ele>1985.26</ele>
        <time>2015-03-07T22:00:19Z</time>
      </trkpt>
      <trkpt lat="45.28578" lon="5.78665">
        <ele>1981.9</ele>
        <time>2015-03-07T22:00:23Z</time>
      </trkpt>
      <trkpt lat="45.28576" lon="5.78664">
        <ele>1981.9</ele>
        <time>2015-03-07T22:00:24Z</time>
      </trkpt>
      <trkpt lat="45.28559" lon="5.78661">
        <ele>1979.49</ele>
        <time>2015-03-07T22:00:30Z</time>
      </trkpt>
      <trkpt lat="45.28551" lon="5.78659">
        <ele>1976.61</ele>
        <time>2015-03-07T22:00:33Z</time>
      </trkpt>
      <trkpt lat="45.28545" lon="5.78658">
        <ele>1972.76</ele>
        <time>2015-03-07T22:00:35Z</time>
      </trkpt>
      <trkpt lat="45.28536" lon="5.78655">
        <ele>1967.96</ele>
        <time>2015-03-07T22:00:39Z</time>
      </trkpt>
      <trkpt lat="45.28541" lon="5.78648">
        <ele>1969.4</ele>
        <time>2015-03-07T22:00:42Z</time>
      </trkpt>
      <trkpt lat="45.28546" lon="5.7864">
        <ele>1964.59</ele>
        <time>2015-03-07T22:00:45Z</time>
      </trkpt>
      <trkpt lat="45.28545" lon="5.78634">
        <ele>1959.3</ele>
        <time>2015-03-07T22:00:49Z</time>
      </trkpt>
      <trkpt lat="45.28542" lon="5.78634">
        <ele>1958.34</ele>
        <time>2015-03-07T22:00:50Z</time>
      </trkpt>
      <trkpt lat="45.28527" lon="5.78631">
        <ele>1954.02</ele>
        <time>2015-03-07T22:00:56Z</time>
      </trkpt>
      <trkpt lat="45.28525" lon="5.78629">
        <ele>1952.57</ele>
        <time>2015-03-07T22:00:58Z</time>
      </trkpt>
      <trkpt lat="45.28528" lon="5.78625">
        <ele>1952.09</ele>
        <time>2015-03-07T22:01:00Z</time>
      </trkpt>
      <trkpt lat="45.28534" lon="5.78621">
        <ele>1951.13</ele>
        <time>2015-03-07T22:01:02Z</time>
      </trkpt>
      <trkpt lat="45.2855" lon="5.78611">
        <ele>1947.29</ele>
        <time>2015-03-07T22:01:08Z</time>
      </trkpt>
      <trkpt lat="45.28553" lon="5.78609">
        <ele>1947.29</ele>
        <time>2015-03-07T22:01:09Z</time>
      </trkpt>
      <trkpt lat="45.28547" lon="5.786">
        <ele>1941.52</ele>
        <time>2015-03-07T22:01:13Z</time>
      </trkpt>
      <trkpt lat="45.28526" lon="5.78596">
        <ele>1937.19</ele>
        <time>2015-03-07T22:01:19Z</time>
      </trkpt>
      <trkpt lat="45.28501" lon="5.78594">
        <ele>1933.83</ele>
        <time>2015-03-07T22:01:26Z</time>
      </trkpt>
      <trkpt lat="45.28495" lon="5.78591">
        <ele>1931.43</ele>
        <time>2015-03-07T22:01:29Z</time>
      </trkpt>
      <trkpt lat="45.28507" lon="5.78574">
        <ele>1926.14</ele>
        <time>2015-03-07T22:01:34Z</time>
      </trkpt>
      <trkpt lat="45.28506" lon="5.78569">
        <ele>1921.81</ele>
        <time>2015-03-07T22:01:36Z</time>
      </trkpt>
      <trkpt lat="45.28505" lon="5.78569">
        <ele>1921.81</ele>
        <time>2015-03-07T22:01:37Z</time>
      </trkpt>
      <trkpt lat="45.28502" lon="5.78569">
        <ele>1923.74</ele>
        <time>2015-03-07T22:01:53Z</time>
      </trkpt>
      <trkpt lat="45.28498" lon="5.78566">
        <ele>1921.33</ele>
        <time>2015-03-07T22:01:57Z</time>
      </trkpt>
      <trkpt lat="45.28506" lon="5.78553">
        <ele>1915.56</ele>
        <time>2015-03-07T22:02:02Z</time>
      </trkpt>
      <trkpt lat="45.28508" lon="5.7855">
        <ele>1914.6</ele>
        <time>2015-03-07T22:02:03Z</time>
      </trkpt>
      <trkpt lat="45.28497" lon="5.78545">
        <ele>1909.8</ele>
        <time>2015-03-07T22:02:08Z</time>
      </trkpt>
      <trkpt lat="45.28486" lon="5.78543">
        <ele>1908.35</ele>
        <time>2015-03-07T22:02:11Z</time>
      </trkpt>
      <trkpt lat="45.2848" lon="5.7854">
        <ele>1904.03</ele>
        <time>2015-03-07T22:02:13Z</time>
      </trkpt>
      <trkpt lat="45.28475" lon="5.78537">
        <ele>1900.66</ele>
        <time>2015-03-07T22:02:15Z</time>
      </trkpt>
      <trkpt lat="45.28474" lon="5.78533">
        <ele>1899.7</ele>
        <time>2015-03-07T22:02:17Z</time>
      </trkpt>
      <trkpt lat="45.28494" lon="5.78515">
        <ele>1895.86</ele>
        <time>2015-03-07T22:02:22Z</time>
      </trkpt>
      <trkpt lat="45.28492" lon="5.78509">
        <ele>1894.9</ele>
        <time>2015-03-07T22:02:24Z</time>
      </trkpt>
      <trkpt lat="45.28489" lon="5.78508">
        <ele>1893.45</ele>
        <time>2015-03-07T22:02:25Z</time>
      </trkpt>
      <trkpt lat="45.28474" lon="5.78502">
        <ele>1891.53</ele>
        <time>2015-03-07T22:02:29Z</time>
      </trkpt>
      <trkpt lat="45.28467" lon="5.78496">
        <ele>1887.69</ele>
        <time>2015-03-07T22:02:32Z</time>
      </trkpt>
      <trkpt lat="45.2847" lon="5.78494">
        <ele>1886.24</ele>
        <time>2015-03-07T22:02:33Z</time>
      </trkpt>
      <trkpt lat="45.28483" lon="5.78486">
        <ele>1883.36</ele>
        <time>2015-03-07T22:02:36Z</time>
      </trkpt>
      <trkpt lat="45.28487" lon="5.78478">
        <ele>1881.44</ele>
        <time>2015-03-07T22:02:38Z</time>
      </trkpt>
      <trkpt lat="45.28479" lon="5.78469">
        <ele>1879.51</ele>
        <time>2015-03-07T22:02:42Z</time>
      </trkpt>
      <trkpt lat="45.28472" lon="5.78466">
        <ele>1878.07</ele>
        <time>2015-03-07T22:02:44Z</time>
      </trkpt>
      <trkpt lat="45.28477" lon="5.78454">
        <ele>1873.27</ele>
        <time>2015-03-07T22:02:48Z</time>
      </trkpt>
      <trkpt lat="45.28482" lon="5.7845">
        <ele>1872.3</ele>
        <time>2015-03-07T22:02:50Z</time>
      </trkpt>
      <trkpt lat="45.28483" lon="5.7844">
        <ele>1869.42</ele>
        <time>2015-03-07T22:02:53Z</time>
      </trkpt>
      <trkpt lat="45.28481" lon="5.78439">
        <ele>1868.94</ele>
        <time>2015-03-07T22:02:54Z</time>
      </trkpt>
      <trkpt lat="45.28454" lon="5.7843">
        <ele>1866.54</ele>
        <time>2015-03-07T22:03:03Z</time>
      </trkpt>
      <trkpt lat="45.28455" lon="5.78423">
        <ele>1864.61</ele>
        <time>2015-03-07T22:03:06Z</time>
      </trkpt>
      <trkpt lat="45.28462" lon="5.78418">
        <ele>1862.21</ele>
        <time>2015-03-07T22:03:09Z</time>
      </trkpt>
      <trkpt lat="45.28468" lon="5.78415">
        <ele>1862.21</ele>
        <time>2015-03-07T22:03:11Z</time>
      </trkpt>
      <trkpt lat="45.28465" lon="5.78405">
        <ele>1859.33</ele>
        <time>2015-03-07T22:03:15Z</time>
      </trkpt>
      <trkpt lat="45.28462" lon="5.78404">
        <ele>1858.85</ele>
        <time>2015-03-07T22:03:16Z</time>
      </trkpt>
      <trkpt lat="45.28474" lon="5.78394">
        <ele>1853.56</ele>
        <time>2015-03-07T22:03:22Z</time>
      </trkpt>
      <trkpt lat="45.28471" lon="5.78382">
        <ele>1849.23</ele>
        <time>2015-03-07T22:03:27Z</time>
      </trkpt>
      <trkpt lat="45.28451" lon="5.78369">
        <ele>1845.87</ele>
        <time>2015-03-07T22:03:32Z</time>
      </trkpt>
      <trkpt lat="45.28433" lon="5.78359">
        <ele>1844.91</ele>
        <time>2015-03-07T22:03:36Z</time>
      </trkpt>
      <trkpt lat="45.28428" lon="5.78349">
        <ele>1841.54</ele>
        <time>2015-03-07T22:03:40Z</time>
      </trkpt>
      <trkpt lat="45.2843" lon="5.78347">
        <ele>1841.54</ele>
        <time>2015-03-07T22:03:41Z</time>
      </trkpt>
      <trkpt lat="45.28435" lon="5.78341">
        <ele>1841.06</ele>
        <time>2015-03-07T22:03:51Z</time>
      </trkpt>
      <trkpt lat="45.28435" lon="5.78339">
        <ele>1840.58</ele>
        <time>2015-03-07T22:04:02Z</time>
      </trkpt>
      <trkpt lat="45.28435" lon="5.78327">
        <ele>1838.18</ele>
        <time>2015-03-07T22:04:07Z</time>
      </trkpt>
      <trkpt lat="45.2844" lon="5.78317">
        <ele>1833.85</ele>
        <time>2015-03-07T22:04:10Z</time>
      </trkpt>
      <trkpt lat="45.28443" lon="5.78314">
        <ele>1833.85</ele>
        <time>2015-03-07T22:04:11Z</time>
      </trkpt>
      <trkpt lat="45.2845" lon="5.78301">
        <ele>1830.01</ele>
        <time>2015-03-07T22:04:14Z</time>
      </trkpt>
      <trkpt lat="45.28457" lon="5.78299">
        <ele>1827.12</ele>
        <time>2015-03-07T22:04:16Z</time>
      </trkpt>
      <trkpt lat="45.28467" lon="5.78297">
        <ele>1826.16</ele>
        <time>2015-03-07T22:04:22Z</time>
      </trkpt>
      <trkpt lat="45.28478" lon="5.78297">
        <ele>1823.76</ele>
        <time>2015-03-07T22:04:26Z</time>
      </trkpt>
      <trkpt lat="45.28511" lon="5.78304">
        <ele>1821.35</ele>
        <time>2015-03-07T22:04:38Z</time>
      </trkpt>
      <trkpt lat="45.28513" lon="5.78303">
        <ele>1820.87</ele>
        <time>2015-03-07T22:04:42Z</time>
      </trkpt>
      <trkpt lat="45.28522" lon="5.78302">
        <ele>1818.47</ele>
        <time>2015-03-07T22:04:46Z</time>
      </trkpt>
      <trkpt lat="45.28542" lon="5.78304">
        <ele>1816.55</ele>
        <time>2015-03-07T22:04:55Z</time>
      </trkpt>
      <trkpt lat="45.28548" lon="5.78296">
        <ele>1813.18</ele>
        <time>2015-03-07T22:05:00Z</time>
      </trkpt>
      <trkpt lat="45.28547" lon="5.78294">
        <ele>1812.22</ele>
        <time>2015-03-07T22:05:02Z</time>
      </trkpt>
      <trkpt lat="45.28551" lon="5.78292">
        <ele>1809.82</ele>
        <time>2015-03-07T22:05:05Z</time>
      </trkpt>
      <trkpt lat="45.28554" lon="5.78292">
        <ele>1809.34</ele>
        <time>2015-03-07T22:05:07Z</time>
      </trkpt>
      <trkpt lat="45.28555" lon="5.78287">
        <ele>1805.97</ele>
        <time>2015-03-07T22:05:10Z</time>
      </trkpt>
      <trkpt lat="45.28555" lon="5.78281">
        <ele>1804.53</ele>
        <time>2015-03-07T22:05:15Z</time>
      </trkpt>
      <trkpt lat="45.2856" lon="5.78275">
        <ele>1800.21</ele>
        <time>2015-03-07T22:05:21Z</time>
      </trkpt>
      <trkpt lat="45.28563" lon="5.7827">
        <ele>1796.84</ele>
        <time>2015-03-07T22:05:31Z</time>
      </trkpt>
      <trkpt lat="45.28563" lon="5.78269">
        <ele>1795.88</ele>
        <time>2015-03-07T22:05:32Z</time>
      </trkpt>
      <trkpt lat="45.2857" lon="5.78265">
        <ele>1792.03</ele>
        <time>2015-03-07T22:05:38Z</time>
      </trkpt>
      <trkpt lat="45.28575" lon="5.78268">
        <ele>1791.55</ele>
        <time>2015-03-07T22:05:53Z</time>
      </trkpt>
      <trkpt lat="45.28575" lon="5.78261">
        <ele>1788.19</ele>
        <time>2015-03-07T22:05:57Z</time>
      </trkpt>
      <trkpt lat="45.28576" lon="5.78259">
        <ele>1787.23</ele>
        <time>2015-03-07T22:05:59Z</time>
      </trkpt>
      <trkpt lat="45.28583" lon="5.78254">
        <ele>1783.86</ele>
        <time>2015-03-07T22:06:07Z</time>
      </trkpt>
      <trkpt lat="45.28587" lon="5.78248">
        <ele>1781.46</ele>
        <time>2015-03-07T22:06:19Z</time>
      </trkpt>
      <trkpt lat="45.28587" lon="5.78247">
        <ele>1780.5</ele>
        <time>2015-03-07T22:06:20Z</time>
      </trkpt>
      <trkpt lat="45.28586" lon="5.78239">
        <ele>1776.65</ele>
        <time>2015-03-07T22:06:23Z</time>
      </trkpt>
      <trkpt lat="45.28581" lon="5.78233">
        <ele>1774.73</ele>
        <time>2015-03-07T22:06:26Z</time>
      </trkpt>
      <trkpt lat="45.28577" lon="5.78231">
        <ele>1774.25</ele>
        <time>2015-03-07T22:06:32Z</time>
      </trkpt>
      <trkpt lat="45.28585" lon="5.78228">
        <ele>1769.44</ele>
        <time>2015-03-07T22:06:36Z</time>
      </trkpt>
      <trkpt lat="45.28592" lon="5.78227">
        <ele>1768.48</ele>
        <time>2015-03-07T22:06:40Z</time>
      </trkpt>
      <trkpt lat="45.28595" lon="5.78226">
        <ele>1767.04</ele>
        <time>2015-03-07T22:06:42Z</time>
      </trkpt>
      <trkpt lat="45.28589" lon="5.78221">
        <ele>1764.16</ele>
        <time>2015-03-07T22:06:46Z</time>
      </trkpt>
      <trkpt lat="45.28587" lon="5.78211">
        <ele>1760.31</ele>
        <time>2015-03-07T22:06:53Z</time>
      </trkpt>
      <trkpt lat="45.28588" lon="5.7821">
        <ele>1759.35</ele>
        <time>2015-03-07T22:06:54Z</time>
      </trkpt>
      <trkpt lat="45.28599" lon="5.78207">
        <ele>1755.5</ele>
        <time>2015-03-07T22:07:01Z</time>
      </trkpt>
      <trkpt lat="45.28612" lon="5.78209">
        <ele>1752.62</ele>
        <time>2015-03-07T22:07:12Z</time>
      </trkpt>
      <trkpt lat="45.2863" lon="5.78207">
        <ele>1749.74</ele>
        <time>2015-03-07T22:07:32Z</time>
      </trkpt>
      <trkpt lat="45.28653" lon="5.78222">
        <ele>1746.37</ele>
        <time>2015-03-07T22:07:40Z</time>
      </trkpt>
      <trkpt lat="45.2867" lon="5.78223">
        <ele>1743.49</ele>
        <time>2015-03-07T22:07:45Z</time>
      </trkpt>
      <trkpt lat="45.28685" lon="5.78216">
        <ele>1740.6</ele>
        <time>2015-03-07T22:07:49Z</time>
      </trkpt>
      <trkpt lat="45.28701" lon="5.78206">
        <ele>1737.24</ele>
        <time>2015-03-07T22:07:57Z</time>
      </trkpt>
      <trkpt lat="45.28714" lon="5.78192">
        <ele>1734.36</ele>
        <time>2015-03-07T22:08:06Z</time>
      </trkpt>
      <trkpt lat="45.2872" lon="5.78187">
        <ele>1731.47</ele>
        <time>2015-03-07T22:08:10Z</time>
      </trkpt>
      <trkpt lat="45.28738" lon="5.78178">
        <ele>1729.07</ele>
        <time>2015-03-07T22:08:18Z</time>
      </trkpt>
      <trkpt lat="45.28737" lon="5.78175">
        <ele>1727.63</ele>
        <time>2015-03-07T22:08:21Z</time>
      </trkpt>
      <trkpt lat="45.2872" lon="5.7817">
        <ele>1725.22</ele>
        <time>2015-03-07T22:08:33Z</time>
      </trkpt>
      <trkpt lat="45.28718" lon="5.78167">
        <ele>1725.22</ele>
        <time>2015-03-07T22:08:43Z</time>
      </trkpt>
      <trkpt lat="45.28726" lon="5.7816">
        <ele>1721.38</ele>
        <time>2015-03-07T22:08:48Z</time>
      </trkpt>
      <trkpt lat="45.28726" lon="5.78154">
        <ele>1718.49</ele>
        <time>2015-03-07T22:08:51Z</time>
      </trkpt>
      <trkpt lat="45.28719" lon="5.78147">
        <ele>1714.65</ele>
        <time>2015-03-07T22:08:55Z</time>
      </trkpt>
      <trkpt lat="45.28716" lon="5.78146">
        <ele>1714.65</ele>
        <time>2015-03-07T22:08:56Z</time>
      </trkpt>
      <trkpt lat="45.287" lon="5.78145">
        <ele>1710.8</ele>
        <time>2015-03-07T22:09:03Z</time>
      </trkpt>
      <trkpt lat="45.28678" lon="5.78149">
        <ele>1707.44</ele>
        <time>2015-03-07T22:09:15Z</time>
      </trkpt>
      <trkpt lat="45.28668" lon="5.78147">
        <ele>1706.48</ele>
        <time>2015-03-07T22:09:19Z</time>
      </trkpt>
      <trkpt lat="45.28665" lon="5.78141">
        <ele>1703.11</ele>
        <time>2015-03-07T22:09:23Z</time>
      </trkpt>
      <trkpt lat="45.28669" lon="5.78139">
        <ele>1701.67</ele>
        <time>2015-03-07T22:09:25Z</time>
      </trkpt>
      <trkpt lat="45.28695" lon="5.78124">
        <ele>1698.31</ele>
        <time>2015-03-07T22:09:35Z</time>
      </trkpt>
      <trkpt lat="45.28699" lon="5.7812">
        <ele>1697.34</ele>
        <time>2015-03-07T22:09:37Z</time>
      </trkpt>
      <trkpt lat="45.28705" lon="5.78114">
        <ele>1696.38</ele>
        <time>2015-03-07T22:09:40Z</time>
      </trkpt>
      <trkpt lat="45.28709" lon="5.78107">
        <ele>1695.9</ele>
        <time>2015-03-07T22:09:44Z</time>
      </trkpt>
      <trkpt lat="45.28718" lon="5.78096">
        <ele>1692.54</ele>
        <time>2015-03-07T22:09:49Z</time>
      </trkpt>
      <trkpt lat="45.28725" lon="5.78085">
        <ele>1688.69</ele>
        <time>2015-03-07T22:09:54Z</time>
      </trkpt>
      <trkpt lat="45.28724" lon="5.78076">
        <ele>1684.85</ele>
        <time>2015-03-07T22:10:01Z</time>
      </trkpt>
      <trkpt lat="45.28723" lon="5.78075">
        <ele>1684.37</ele>
        <time>2015-03-07T22:10:02Z</time>
      </trkpt>
      <trkpt lat="45.2872" lon="5.78074">
        <ele>1683.41</ele>
        <time>2015-03-07T22:10:04Z</time>
      </trkpt>
      <trkpt lat="45.28701" lon="5.78071">
        <ele>1680.52</ele>
        <time>2015-03-07T22:10:12Z</time>
      </trkpt>
      <trkpt lat="45.28695" lon="5.78074">
        <ele>1679.56</ele>
        <time>2015-03-07T22:10:15Z</time>
      </trkpt>
      <trkpt lat="45.28666" lon="5.7808">
        <ele>1675.72</ele>
        <time>2015-03-07T22:10:27Z</time>
      </trkpt>
      <trkpt lat="45.2863" lon="5.78081">
        <ele>1672.83</ele>
        <time>2015-03-07T22:10:43Z</time>
      </trkpt>
      <trkpt lat="45.28625" lon="5.78077">
        <ele>1670.43</ele>
        <time>2015-03-07T22:10:47Z</time>
      </trkpt>
      <trkpt lat="45.28616" lon="5.78073">
        <ele>1667.54</ele>
        <time>2015-03-07T22:10:55Z</time>
      </trkpt>
      <trkpt lat="45.28609" lon="5.78066">
        <ele>1663.22</ele>
        <time>2015-03-07T22:11:00Z</time>
      </trkpt>
      <trkpt lat="45.286" lon="5.78058">
        <ele>1659.85</ele>
        <time>2015-03-07T22:11:05Z</time>
      </trkpt>
      <trkpt lat="45.28594" lon="5.7805">
        <ele>1656.97</ele>
        <time>2015-03-07T22:11:09Z</time>
      </trkpt>
      <trkpt lat="45.28592" lon="5.78047">
        <ele>1655.53</ele>
        <time>2015-03-07T22:11:11Z</time>
      </trkpt>
      <trkpt lat="45.28595" lon="5.78041">
        <ele>1653.12</ele>
        <time>2015-03-07T22:11:14Z</time>
      </trkpt>
      <trkpt lat="45.28615" lon="5.78037">
        <ele>1650.24</ele>
        <time>2015-03-07T22:11:25Z</time>
      </trkpt>
      <trkpt lat="45.28622" lon="5.78035">
        <ele>1648.8</ele>
        <time>2015-03-07T22:11:38Z</time>
      </trkpt>
      <trkpt lat="45.28628" lon="5.78036">
        <ele>1647.84</ele>
        <time>2015-03-07T22:12:06Z</time>
      </trkpt>
      <trkpt lat="45.28636" lon="5.78025">
        <ele>1644.95</ele>
        <time>2015-03-07T22:12:27Z</time>
      </trkpt>
      <trkpt lat="45.28645" lon="5.78017">
        <ele>1641.59</ele>
        <time>2015-03-07T22:12:31Z</time>
      </trkpt>
      <trkpt lat="45.28647" lon="5.78015">
        <ele>1641.59</ele>
        <time>2015-03-07T22:12:32Z</time>
      </trkpt>
      <trkpt lat="45.28667" lon="5.78">
        <ele>1637.26</ele>
        <time>2015-03-07T22:12:41Z</time>
      </trkpt>
      <trkpt lat="45.2868" lon="5.77986">
        <ele>1633.9</ele>
        <time>2015-03-07T22:12:48Z</time>
      </trkpt>
      <trkpt lat="45.28692" lon="5.77971">
        <ele>1631.98</ele>
        <time>2015-03-07T22:12:56Z</time>
      </trkpt>
      <trkpt lat="45.28694" lon="5.77959">
        <ele>1629.09</ele>
        <time>2015-03-07T22:13:01Z</time>
      </trkpt>
      <trkpt lat="45.28692" lon="5.77958">
        <ele>1627.65</ele>
        <time>2015-03-07T22:13:04Z</time>
      </trkpt>
      <trkpt lat="45.28686" lon="5.77959">
        <ele>1626.21</ele>
        <time>2015-03-07T22:13:08Z</time>
      </trkpt>
      <trkpt lat="45.28661" lon="5.77965">
        <ele>1621.88</ele>
        <time>2015-03-07T22:13:19Z</time>
      </trkpt>
      <trkpt lat="45.28656" lon="5.77963">
        <ele>1618.52</ele>
        <time>2015-03-07T22:13:23Z</time>
      </trkpt>
      <trkpt lat="45.28655" lon="5.77961">
        <ele>1617.56</ele>
        <time>2015-03-07T22:13:24Z</time>
      </trkpt>
      <trkpt lat="45.28646" lon="5.77953">
        <ele>1613.71</ele>
        <time>2015-03-07T22:13:30Z</time>
      </trkpt>
      <trkpt lat="45.28641" lon="5.77947">
        <ele>1609.86</ele>
        <time>2015-03-07T22:13:37Z</time>
      </trkpt>
      <trkpt lat="45.28642" lon="5.7794">
        <ele>1606.98</ele>
        <time>2015-03-07T22:13:44Z</time>
      </trkpt>
      <trkpt lat="45.28645" lon="5.77933">
        <ele>1605.06</ele>
        <time>2015-03-07T22:13:47Z</time>
      </trkpt>
      <trkpt lat="45.28646" lon="5.77929">
        <ele>1603.62</ele>
        <time>2015-03-07T22:13:51Z</time>
      </trkpt>
      <trkpt lat="45.28644" lon="5.77925">
        <ele>1600.73</ele>
        <time>2015-03-07T22:14:00Z</time>
      </trkpt>
      <trkpt lat="45.28645" lon="5.77917">
        <ele>1597.37</ele>
        <time>2015-03-07T22:14:11Z</time>
      </trkpt>
      <trkpt lat="45.2865" lon="5.77912">
        <ele>1595.45</ele>
        <time>2015-03-07T22:14:16Z</time>
      </trkpt>
      <trkpt lat="45.28651" lon="5.77909">
        <ele>1594.48</ele>
        <time>2015-03-07T22:14:18Z</time>
      </trkpt>
      <trkpt lat="45.28647" lon="5.77902">
        <ele>1592.56</ele>
        <time>2015-03-07T22:14:31Z</time>
      </trkpt>
      <trkpt lat="45.28643" lon="5.77898">
        <ele>1590.16</ele>
        <time>2015-03-07T22:14:36Z</time>
      </trkpt>
      <trkpt lat="45.28641" lon="5.77898">
        <ele>1586.79</ele>
        <time>2015-03-07T22:14:43Z</time>
      </trkpt>
      <trkpt lat="45.28638" lon="5.77898">
        <ele>1584.39</ele>
        <time>2015-03-07T22:14:46Z</time>
      </trkpt>
      <trkpt lat="45.28627" lon="5.77891">
        <ele>1581.99</ele>
        <time>2015-03-07T22:14:58Z</time>
      </trkpt>
      <trkpt lat="45.28625" lon="5.77887">
        <ele>1580.06</ele>
        <time>2015-03-07T22:15:03Z</time>
      </trkpt>
      <trkpt lat="45.28624" lon="5.77881">
        <ele>1577.18</ele>
        <time>2015-03-07T22:15:11Z</time>
      </trkpt>
      <trkpt lat="45.28619" lon="5.77878">
        <ele>1575.74</ele>
        <time>2015-03-07T22:15:17Z</time>
      </trkpt>
      <trkpt lat="45.28616" lon="5.77873">
        <ele>1574.3</ele>
        <time>2015-03-07T22:15:20Z</time>
      </trkpt>
      <trkpt lat="45.28604" lon="5.77867">
        <ele>1573.82</ele>
        <time>2015-03-07T22:15:44Z</time>
      </trkpt>
      <trkpt lat="45.28594" lon="5.77875">
        <ele>1572.85</ele>
        <time>2015-03-07T22:16:18Z</time>
      </trkpt>
      <trkpt lat="45.28595" lon="5.77868">
        <ele>1569.49</ele>
        <time>2015-03-07T22:16:23Z</time>
      </trkpt>
      <trkpt lat="45.28595" lon="5.77864">
        <ele>1568.53</ele>
        <time>2015-03-07T22:16:25Z</time>
      </trkpt>
      <trkpt lat="45.28592" lon="5.77852">
        <ele>1564.68</ele>
        <time>2015-03-07T22:16:31Z</time>
      </trkpt>
      <trkpt lat="45.2859" lon="5.77848">
        <ele>1561.8</ele>
        <time>2015-03-07T22:16:35Z</time>
      </trkpt>
      <trkpt lat="45.28589" lon="5.77843">
        <ele>1560.36</ele>
        <time>2015-03-07T22:16:38Z</time>
      </trkpt>
      <trkpt lat="45.28588" lon="5.77839">
        <ele>1558.43</ele>
        <time>2015-03-07T22:16:40Z</time>
      </trkpt>
      <trkpt lat="45.28584" lon="5.77828">
        <ele>1553.63</ele>
        <time>2015-03-07T22:16:45Z</time>
      </trkpt>
      <trkpt lat="45.28581" lon="5.77819">
        <ele>1550.26</ele>
        <time>2015-03-07T22:16:50Z</time>
      </trkpt>
      <trkpt lat="45.28576" lon="5.77812">
        <ele>1546.9</ele>
        <time>2015-03-07T22:16:54Z</time>
      </trkpt>
      <trkpt lat="45.28573" lon="5.77798">
        <ele>1543.53</ele>
        <time>2015-03-07T22:16:58Z</time>
      </trkpt>
      <trkpt lat="45.28569" lon="5.77775">
        <ele>1540.17</ele>
        <time>2015-03-07T22:17:05Z</time>
      </trkpt>
      <trkpt lat="45.28566" lon="5.77773">
        <ele>1537.29</ele>
        <time>2015-03-07T22:17:11Z</time>
      </trkpt>
      <trkpt lat="45.28556" lon="5.77752">
        <ele>1533.44</ele>
        <time>2015-03-07T22:17:17Z</time>
      </trkpt>
      <trkpt lat="45.28553" lon="5.77748">
        <ele>1532.48</ele>
        <time>2015-03-07T22:17:18Z</time>
      </trkpt>
      <trkpt lat="45.2854" lon="5.77718">
        <ele>1532</ele>
        <time>2015-03-07T22:17:29Z</time>
      </trkpt>
      <trkpt lat="45.28542" lon="5.77708">
        <ele>1532</ele>
        <time>2015-03-07T22:17:35Z</time>
      </trkpt>
      <trkpt lat="45.2855" lon="5.77708">
        <ele>1530.08</ele>
        <time>2015-03-07T22:17:39Z</time>
      </trkpt>
      <trkpt lat="45.28552" lon="5.77694">
        <ele>1526.71</ele>
        <time>2015-03-07T22:17:44Z</time>
      </trkpt>
      <trkpt lat="45.28548" lon="5.77688">
        <ele>1524.79</ele>
        <time>2015-03-07T22:17:47Z</time>
      </trkpt>
      <trkpt lat="45.28538" lon="5.77679">
        <ele>1520.94</ele>
        <time>2015-03-07T22:17:51Z</time>
      </trkpt>
      <trkpt lat="45.2853" lon="5.7767">
        <ele>1518.06</ele>
        <time>2015-03-07T22:17:54Z</time>
      </trkpt>
      <trkpt lat="45.28535" lon="5.77653">
        <ele>1513.25</ele>
        <time>2015-03-07T22:17:58Z</time>
      </trkpt>
      <trkpt lat="45.28547" lon="5.77646">
        <ele>1509.41</ele>
        <time>2015-03-07T22:18:02Z</time>
      </trkpt>
      <trkpt lat="45.28551" lon="5.77645">
        <ele>1508.93</ele>
        <time>2015-03-07T22:18:03Z</time>
      </trkpt>
      <trkpt lat="45.2856" lon="5.77645">
        <ele>1507.48</ele>
        <time>2015-03-07T22:18:06Z</time>
      </trkpt>
      <trkpt lat="45.28573" lon="5.77646">
        <ele>1504.6</ele>
        <time>2015-03-07T22:18:11Z</time>
      </trkpt>
      <trkpt lat="45.28573" lon="5.77638">
        <ele>1501.24</ele>
        <time>2015-03-07T22:18:15Z</time>
      </trkpt>
      <trkpt lat="45.28573" lon="5.77628">
        <ele>1497.39</ele>
        <time>2015-03-07T22:18:18Z</time>
      </trkpt>
      <trkpt lat="45.28574" lon="5.77617">
        <ele>1493.06</ele>
        <time>2015-03-07T22:18:21Z</time>
      </trkpt>
      <trkpt lat="45.28576" lon="5.77606">
        <ele>1489.22</ele>
        <time>2015-03-07T22:18:24Z</time>
      </trkpt>
      <trkpt lat="45.28578" lon="5.77598">
        <ele>1485.85</ele>
        <time>2015-03-07T22:18:27Z</time>
      </trkpt>
      <trkpt lat="45.28587" lon="5.77592">
        <ele>1481.53</ele>
        <time>2015-03-07T22:18:32Z</time>
      </trkpt>
      <trkpt lat="45.28591" lon="5.77584">
        <ele>1478.16</ele>
        <time>2015-03-07T22:18:35Z</time>
      </trkpt>
      <trkpt lat="45.28592" lon="5.77582">
        <ele>1476.72</ele>
        <time>2015-03-07T22:18:36Z</time>
      </trkpt>
      <trkpt lat="45.28592" lon="5.77577">
        <ele>1475.28</ele>
        <time>2015-03-07T22:18:38Z</time>
      </trkpt>
      <trkpt lat="45.28591" lon="5.77571">
        <ele>1472.88</ele>
        <time>2015-03-07T22:18:40Z</time>
      </trkpt>
      <trkpt lat="45.28595" lon="5.77563">
        <ele>1469.03</ele>
        <time>2015-03-07T22:18:43Z</time>
      </trkpt>
      <trkpt lat="45.28599" lon="5.77561">
        <ele>1468.55</ele>
        <time>2015-03-07T22:18:45Z</time>
      </trkpt>
      <trkpt lat="45.28607" lon="5.77562">
        <ele>1465.67</ele>
        <time>2015-03-07T22:18:49Z</time>
      </trkpt>
      <trkpt lat="45.28609" lon="5.77548">
        <ele>1459.9</ele>
        <time>2015-03-07T22:18:54Z</time>
      </trkpt>
      <trkpt lat="45.28606" lon="5.77537">
        <ele>1457.02</ele>
        <time>2015-03-07T22:18:58Z</time>
      </trkpt>
      <trkpt lat="45.28617" lon="5.77532">
        <ele>1452.21</ele>
        <time>2015-03-07T22:19:03Z</time>
      </trkpt>
      <trkpt lat="45.28623" lon="5.77533">
        <ele>1451.73</ele>
        <time>2015-03-07T22:19:05Z</time>
      </trkpt>
      <trkpt lat="45.28628" lon="5.77529">
        <ele>1447.88</ele>
        <time>2015-03-07T22:19:08Z</time>
      </trkpt>
      <trkpt lat="45.28624" lon="5.7751">
        <ele>1444.52</ele>
        <time>2015-03-07T22:19:13Z</time>
      </trkpt>
      <trkpt lat="45.28624" lon="5.77506">
        <ele>1443.56</ele>
        <time>2015-03-07T22:19:14Z</time>
      </trkpt>
      <trkpt lat="45.28623" lon="5.77491">
        <ele>1440.19</ele>
        <time>2015-03-07T22:19:17Z</time>
      </trkpt>
      <trkpt lat="45.28626" lon="5.77481">
        <ele>1435.87</ele>
        <time>2015-03-07T22:19:21Z</time>
      </trkpt>
      <trkpt lat="45.28632" lon="5.77481">
        <ele>1434.42</ele>
        <time>2015-03-07T22:19:24Z</time>
      </trkpt>
      <trkpt lat="45.2864" lon="5.77478">
        <ele>1429.14</ele>
        <time>2015-03-07T22:19:28Z</time>
      </trkpt>
      <trkpt lat="45.28641" lon="5.77465">
        <ele>1425.77</ele>
        <time>2015-03-07T22:19:31Z</time>
      </trkpt>
      <trkpt lat="45.2864" lon="5.7746">
        <ele>1424.81</ele>
        <time>2015-03-07T22:19:32Z</time>
      </trkpt>
      <trkpt lat="45.28635" lon="5.77443">
        <ele>1422.41</ele>
        <time>2015-03-07T22:19:36Z</time>
      </trkpt>
      <trkpt lat="45.2864" lon="5.77426">
        <ele>1418.08</ele>
        <time>2015-03-07T22:19:41Z</time>
      </trkpt>
      <trkpt lat="45.28659" lon="5.77426">
        <ele>1415.68</ele>
        <time>2015-03-07T22:19:47Z</time>
      </trkpt>
      <trkpt lat="45.28653" lon="5.77412">
        <ele>1411.83</ele>
        <time>2015-03-07T22:19:53Z</time>
      </trkpt>
      <trkpt lat="45.28657" lon="5.77405">
        <ele>1407.99</ele>
        <time>2015-03-07T22:19:57Z</time>
      </trkpt>
      <trkpt lat="45.28659" lon="5.77404">
        <ele>1407.99</ele>
        <time>2015-03-07T22:19:58Z</time>
      </trkpt>
      <trkpt lat="45.28662" lon="5.77404">
        <ele>1407.51</ele>
        <time>2015-03-07T22:19:59Z</time>
      </trkpt>
      <trkpt lat="45.28668" lon="5.77404">
        <ele>1407.03</ele>
        <time>2015-03-07T22:20:01Z</time>
      </trkpt>
      <trkpt lat="45.28674" lon="5.77392">
        <ele>1403.18</ele>
        <time>2015-03-07T22:20:06Z</time>
      </trkpt>
      <trkpt lat="45.28677" lon="5.7738">
        <ele>1399.82</ele>
        <time>2015-03-07T22:20:13Z</time>
      </trkpt>
      <trkpt lat="45.28686" lon="5.77371">
        <ele>1396.45</ele>
        <time>2015-03-07T22:20:17Z</time>
      </trkpt>
      <trkpt lat="45.28692" lon="5.77359">
        <ele>1393.09</ele>
        <time>2015-03-07T22:20:20Z</time>
      </trkpt>
      <trkpt lat="45.28702" lon="5.77347">
        <ele>1390.2</ele>
        <time>2015-03-07T22:20:23Z</time>
      </trkpt>
      <trkpt lat="45.28706" lon="5.77336">
        <ele>1386.84</ele>
        <time>2015-03-07T22:20:25Z</time>
      </trkpt>
      <trkpt lat="45.28709" lon="5.77325">
        <ele>1383.96</ele>
        <time>2015-03-07T22:20:27Z</time>
      </trkpt>
      <trkpt lat="45.28729" lon="5.77304">
        <ele>1380.11</ele>
        <time>2015-03-07T22:20:32Z</time>
      </trkpt>
      <trkpt lat="45.28739" lon="5.77281">
        <ele>1375.3</ele>
        <time>2015-03-07T22:20:36Z</time>
      </trkpt>
      <trkpt lat="45.28749" lon="5.77258">
        <ele>1369.54</ele>
        <time>2015-03-07T22:20:40Z</time>
      </trkpt>
      <trkpt lat="45.28761" lon="5.77234">
        <ele>1366.65</ele>
        <time>2015-03-07T22:20:45Z</time>
      </trkpt>
      <trkpt lat="45.28765" lon="5.77221">
        <ele>1364.25</ele>
        <time>2015-03-07T22:20:49Z</time>
      </trkpt>
      <trkpt lat="45.28774" lon="5.77219">
        <ele>1364.73</ele>
        <time>2015-03-07T22:21:00Z</time>
      </trkpt>
      <trkpt lat="45.2878" lon="5.77204">
        <ele>1361.36</ele>
        <time>2015-03-07T22:21:05Z</time>
      </trkpt>
      <trkpt lat="45.2879" lon="5.77183">
        <ele>1357.04</ele>
        <time>2015-03-07T22:21:09Z</time>
      </trkpt>
      <trkpt lat="45.28795" lon="5.77167">
        <ele>1354.15</ele>
        <time>2015-03-07T22:21:11Z</time>
      </trkpt>
      <trkpt lat="45.28799" lon="5.7714">
        <ele>1349.83</ele>
        <time>2015-03-07T22:21:14Z</time>
      </trkpt>
      <trkpt lat="45.28808" lon="5.77105">
        <ele>1345.5</ele>
        <time>2015-03-07T22:21:18Z</time>
      </trkpt>
      <trkpt lat="45.28814" lon="5.77082">
        <ele>1342.14</ele>
        <time>2015-03-07T22:21:21Z</time>
      </trkpt>
      <trkpt lat="45.28821" lon="5.77056">
        <ele>1338.29</ele>
        <time>2015-03-07T22:21:25Z</time>
      </trkpt>
      <trkpt lat="45.28826" lon="5.7703">
        <ele>1334.45</ele>
        <time>2015-03-07T22:21:29Z</time>
      </trkpt>
      <trkpt lat="45.2883" lon="5.77007">
        <ele>1334.45</ele>
        <time>2015-03-07T22:21:36Z</time>
      </trkpt>
      <trkpt lat="45.28835" lon="5.77018">
        <ele>1333.97</ele>
        <time>2015-03-07T22:22:02Z</time>
      </trkpt>
      <trkpt lat="45.28834" lon="5.77016">
        <ele>1333.49</ele>
        <time>2015-03-07T22:22:36Z</time>
      </trkpt>
      <trkpt lat="45.28838" lon="5.76999">
        <ele>1330.12</ele>
        <time>2015-03-07T22:22:41Z</time>
      </trkpt>
      <trkpt lat="45.28849" lon="5.76976">
        <ele>1326.76</ele>
        <time>2015-03-07T22:22:45Z</time>
      </trkpt>
      <trkpt lat="45.2886" lon="5.76955">
        <ele>1324.35</ele>
        <time>2015-03-07T22:22:48Z</time>
      </trkpt>
      <trkpt lat="45.28881" lon="5.76913">
        <ele>1318.1</ele>
        <time>2015-03-07T22:22:53Z</time>
      </trkpt>
      <trkpt lat="45.28891" lon="5.769">
        <ele>1317.14</ele>
        <time>2015-03-07T22:22:55Z</time>
      </trkpt>
      <trkpt lat="45.28904" lon="5.76881">
        <ele>1314.74</ele>
        <time>2015-03-07T22:22:58Z</time>
      </trkpt>
      <trkpt lat="45.28922" lon="5.76862">
        <ele>1311.86</ele>
        <time>2015-03-07T22:23:02Z</time>
      </trkpt>
      <trkpt lat="45.28926" lon="5.76859">
        <ele>1311.86</ele>
        <time>2015-03-07T22:23:03Z</time>
      </trkpt>
      <trkpt lat="45.2893" lon="5.76857">
        <ele>1311.38</ele>
        <time>2015-03-07T22:23:04Z</time>
      </trkpt>
      <trkpt lat="45.28967" lon="5.76847">
        <ele>1307.05</ele>
        <time>2015-03-07T22:23:11Z</time>
      </trkpt>
      <trkpt lat="45.28996" lon="5.7684">
        <ele>1304.65</ele>
        <time>2015-03-07T22:23:16Z</time>
      </trkpt>
      <trkpt lat="45.29023" lon="5.76833">
        <ele>1303.69</ele>
        <time>2015-03-07T22:23:23Z</time>
      </trkpt>
      <trkpt lat="45.29031" lon="5.76818">
        <ele>1303.2</ele>
        <time>2015-03-07T22:23:36Z</time>
      </trkpt>
      <trkpt lat="45.29035" lon="5.76812">
        <ele>1302.72</ele>
        <time>2015-03-07T22:23:44Z</time>
      </trkpt>
      <trkpt lat="45.29049" lon="5.76799">
        <ele>1299.36</ele>
        <time>2015-03-07T22:23:50Z</time>
      </trkpt>
      <trkpt lat="45.29053" lon="5.76796">
        <ele>1299.36</ele>
        <time>2015-03-07T22:23:51Z</time>
      </trkpt>
      <trkpt lat="45.29059" lon="5.7679">
        <ele>1298.4</ele>
        <time>2015-03-07T22:23:53Z</time>
      </trkpt>
      <trkpt lat="45.29092" lon="5.76785">
        <ele>1294.55</ele>
        <time>2015-03-07T22:24:05Z</time>
      </trkpt>
      <trkpt lat="45.29096" lon="5.76785">
        <ele>1294.55</ele>
        <time>2015-03-07T22:24:06Z</time>
      </trkpt>
      <trkpt lat="45.29118" lon="5.76783">
        <ele>1293.11</ele>
        <time>2015-03-07T22:24:11Z</time>
      </trkpt>
      <trkpt lat="45.29139" lon="5.76783">
        <ele>1290.23</ele>
        <time>2015-03-07T22:24:15Z</time>
      </trkpt>
      <trkpt lat="45.29158" lon="5.76787">
        <ele>1290.23</ele>
        <time>2015-03-07T22:24:19Z</time>
      </trkpt>
      <trkpt lat="45.2919" lon="5.76793">
        <ele>1289.75</ele>
        <time>2015-03-07T22:24:30Z</time>
      </trkpt>
      <trkpt lat="45.29196" lon="5.76795">
        <ele>1288.3</ele>
        <time>2015-03-07T22:24:33Z</time>
      </trkpt>
      <trkpt lat="45.29198" lon="5.76796">
        <ele>1287.82</ele>
        <time>2015-03-07T22:24:35Z</time>
      </trkpt>
      <trkpt lat="45.29205" lon="5.76797">
        <ele>1287.34</ele>
        <time>2015-03-07T22:24:38Z</time>
      </trkpt>
      <trkpt lat="45.29239" lon="5.76805">
        <ele>1283.5</ele>
        <time>2015-03-07T22:24:53Z</time>
      </trkpt>
      <trkpt lat="45.29255" lon="5.76807">
        <ele>1280.61</ele>
        <time>2015-03-07T22:24:57Z</time>
      </trkpt>
      <trkpt lat="45.29297" lon="5.76817">
        <ele>1276.29</ele>
        <time>2015-03-07T22:25:08Z</time>
      </trkpt>
      <trkpt lat="45.29306" lon="5.76821">
        <ele>1275.33</ele>
        <time>2015-03-07T22:25:10Z</time>
      </trkpt>
      <trkpt lat="45.29342" lon="5.76843">
        <ele>1271.48</ele>
        <time>2015-03-07T22:25:17Z</time>
      </trkpt>
      <trkpt lat="45.29363" lon="5.76853">
        <ele>1268.6</ele>
        <time>2015-03-07T22:25:20Z</time>
      </trkpt>
      <trkpt lat="45.29388" lon="5.76856">
        <ele>1268.12</ele>
        <time>2015-03-07T22:25:24Z</time>
      </trkpt>
      <trkpt lat="45.29463" lon="5.76846">
        <ele>1271.96</ele>
        <time>2015-03-07T22:25:34Z</time>
      </trkpt>
      <trkpt lat="45.2951" lon="5.76838">
        <ele>1271.48</ele>
        <time>2015-03-07T22:25:49Z</time>
      </trkpt>
      <trkpt lat="45.29537" lon="5.76852">
        <ele>1267.16</ele>
        <time>2015-03-07T22:26:00Z</time>
      </trkpt>
      <trkpt lat="45.29547" lon="5.76865">
        <ele>1265.23</ele>
        <time>2015-03-07T22:26:03Z</time>
      </trkpt>
      <trkpt lat="45.29563" lon="5.76887">
        <ele>1264.75</ele>
        <time>2015-03-07T22:26:08Z</time>
      </trkpt>
      <trkpt lat="45.29578" lon="5.76915">
        <ele>1262.35</ele>
        <time>2015-03-07T22:26:13Z</time>
      </trkpt>
      <trkpt lat="45.29588" lon="5.76925">
        <ele>1264.75</ele>
        <time>2015-03-07T22:26:16Z</time>
      </trkpt>
      <trkpt lat="45.29606" lon="5.76949">
        <ele>1265.71</ele>
        <time>2015-03-07T22:26:29Z</time>
      </trkpt>
      <trkpt lat="45.29611" lon="5.76955">
        <ele>1265.23</ele>
        <time>2015-03-07T22:26:37Z</time>
      </trkpt>
      <trkpt lat="45.29632" lon="5.76969">
        <ele>1261.87</ele>
        <time>2015-03-07T22:26:50Z</time>
      </trkpt>
      <trkpt lat="45.29638" lon="5.76968">
        <ele>1258.98</ele>
        <time>2015-03-07T22:26:55Z</time>
      </trkpt>
      <trkpt lat="45.29639" lon="5.76969">
        <ele>1258.98</ele>
        <time>2015-03-07T22:26:56Z</time>
      </trkpt>
      <trkpt lat="45.29651" lon="5.76974">
        <ele>1258.5</ele>
        <time>2015-03-07T22:27:03Z</time>
      </trkpt>
      <trkpt lat="45.29695" lon="5.76991">
        <ele>1255.62</ele>
        <time>2015-03-07T22:27:17Z</time>
      </trkpt>
      <trkpt lat="45.29741" lon="5.76978">
        <ele>1255.14</ele>
        <time>2015-03-07T22:27:33Z</time>
      </trkpt>
      <trkpt lat="45.29754" lon="5.76962">
        <ele>1254.66</ele>
        <time>2015-03-07T22:27:47Z</time>
      </trkpt>
      <trkpt lat="45.29763" lon="5.76965">
        <ele>1251.29</ele>
        <time>2015-03-07T22:27:55Z</time>
      </trkpt>
      <trkpt lat="45.29763" lon="5.76969">
        <ele>1247.93</ele>
        <time>2015-03-07T22:28:00Z</time>
      </trkpt>
      <trkpt lat="45.29759" lon="5.7699">
        <ele>1244.56</ele>
        <time>2015-03-07T22:28:05Z</time>
      </trkpt>
      <trkpt lat="45.29772" lon="5.76988">
        <ele>1242.64</ele>
        <time>2015-03-07T22:28:10Z</time>
      </trkpt>
      <trkpt lat="45.29781" lon="5.76986">
        <ele>1240.72</ele>
        <time>2015-03-07T22:28:13Z</time>
      </trkpt>
      <trkpt lat="45.29788" lon="5.76987">
        <ele>1237.83</ele>
        <time>2015-03-07T22:28:17Z</time>
      </trkpt>
      <trkpt lat="45.29797" lon="5.76992">
        <ele>1234.95</ele>
        <time>2015-03-07T22:28:21Z</time>
      </trkpt>
      <trkpt lat="45.29798" lon="5.76996">
        <ele>1232.55</ele>
        <time>2015-03-07T22:28:24Z</time>
      </trkpt>
      <trkpt lat="45.29799" lon="5.76997">
        <ele>1231.59</ele>
        <time>2015-03-07T22:28:25Z</time>
      </trkpt>
      <trkpt lat="45.29825" lon="5.77008">
        <ele>1229.66</ele>
        <time>2015-03-07T22:28:30Z</time>
      </trkpt>
      <trkpt lat="45.29841" lon="5.77014">
        <ele>1227.74</ele>
        <time>2015-03-07T22:28:33Z</time>
      </trkpt>
      <trkpt lat="45.29867" lon="5.77024">
        <ele>1225.34</ele>
        <time>2015-03-07T22:28:38Z</time>
      </trkpt>
      <trkpt lat="45.29886" lon="5.7703">
        <ele>1222.45</ele>
        <time>2015-03-07T22:28:42Z</time>
      </trkpt>
      <trkpt lat="45.29903" lon="5.77035">
        <ele>1219.09</ele>
        <time>2015-03-07T22:28:47Z</time>
      </trkpt>
      <trkpt lat="45.29911" lon="5.77042">
        <ele>1215.72</ele>
        <time>2015-03-07T22:28:52Z</time>
      </trkpt>
      <trkpt lat="45.29925" lon="5.77054">
        <ele>1212.84</ele>
        <time>2015-03-07T22:28:56Z</time>
      </trkpt>
      <trkpt lat="45.29953" lon="5.77062">
        <ele>1211.4</ele>
        <time>2015-03-07T22:28:59Z</time>
      </trkpt>
      <trkpt lat="45.29963" lon="5.77073">
        <ele>1208.03</ele>
        <time>2015-03-07T22:29:03Z</time>
      </trkpt>
      <trkpt lat="45.29984" lon="5.77087">
        <ele>1204.67</ele>
        <time>2015-03-07T22:29:09Z</time>
      </trkpt>
      <trkpt lat="45.3" lon="5.77103">
        <ele>1201.3</ele>
        <time>2015-03-07T22:29:15Z</time>
      </trkpt>
      <trkpt lat="45.30038" lon="5.77136">
        <ele>1197.94</ele>
        <time>2015-03-07T22:29:25Z</time>
      </trkpt>
      <trkpt lat="45.30114" lon="5.77156">
        <ele>1194.09</ele>
        <time>2015-03-07T22:29:36Z</time>
      </trkpt>
      <trkpt lat="45.30138" lon="5.77165">
        <ele>1191.21</ele>
        <time>2015-03-07T22:29:41Z</time>
      </trkpt>
      <trkpt lat="45.30148" lon="5.77169">
        <ele>1190.25</ele>
        <time>2015-03-07T22:29:43Z</time>
      </trkpt>
      <trkpt lat="45.30167" lon="5.77177">
        <ele>1186.88</ele>
        <time>2015-03-07T22:29:48Z</time>
      </trkpt>
      <trkpt lat="45.30178" lon="5.77181">
        <ele>1185.92</ele>
        <time>2015-03-07T22:29:50Z</time>
      </trkpt>
      <trkpt lat="45.30195" lon="5.77191">
        <ele>1182.56</ele>
        <time>2015-03-07T22:29:54Z</time>
      </trkpt>
      <trkpt lat="45.3021" lon="5.77201">
        <ele>1180.16</ele>
        <time>2015-03-07T22:29:58Z</time>
      </trkpt>
      <trkpt lat="45.30213" lon="5.77205">
        <ele>1179.19</ele>
        <time>2015-03-07T22:30:01Z</time>
      </trkpt>
      <trkpt lat="45.30255" lon="5.77216">
        <ele>1176.79</ele>
        <time>2015-03-07T22:30:17Z</time>
      </trkpt>
      <trkpt lat="45.3024" lon="5.77201">
        <ele>1174.87</ele>
        <time>2015-03-07T22:30:35Z</time>
      </trkpt>
      <trkpt lat="45.30239" lon="5.77197">
        <ele>1173.91</ele>
        <time>2015-03-07T22:30:37Z</time>
      </trkpt>
      <trkpt lat="45.30233" lon="5.77194">
        <ele>1172.47</ele>
        <time>2015-03-07T22:30:40Z</time>
      </trkpt>
      <trkpt lat="45.30225" lon="5.7719">
        <ele>1169.1</ele>
        <time>2015-03-07T22:30:44Z</time>
      </trkpt>
      <trkpt lat="45.30218" lon="5.77188">
        <ele>1167.18</ele>
        <time>2015-03-07T22:30:47Z</time>
      </trkpt>
      <trkpt lat="45.30184" lon="5.77176">
        <ele>1168.62</ele>
        <time>2015-03-07T22:31:00Z</time>
      </trkpt>
      <trkpt lat="45.30143" lon="5.77183">
        <ele>1167.18</ele>
        <time>2015-03-07T22:31:27Z</time>
      </trkpt>
      <trkpt lat="45.30142" lon="5.77213">
        <ele>1165.74</ele>
        <time>2015-03-07T22:31:47Z</time>
      </trkpt>
      <trkpt lat="45.30154" lon="5.77223">
        <ele>1164.29</ele>
        <time>2015-03-07T22:32:07Z</time>
      </trkpt>
      <trkpt lat="45.30159" lon="5.77238">
        <ele>1162.85</ele>
        <time>2015-03-07T22:32:32Z</time>
      </trkpt>
      <trkpt lat="45.3017" lon="5.77266">
        <ele>1161.41</ele>
        <time>2015-03-07T22:33:12Z</time>
      </trkpt>
      <trkpt lat="45.30167" lon="5.77291">
        <ele>1162.37</ele>
        <time>2015-03-07T22:33:45Z</time>
      </trkpt>
      <trkpt lat="45.30191" lon="5.77285">
        <ele>1164.77</ele>
        <time>2015-03-07T22:34:04Z</time>
      </trkpt>
      <trkpt lat="45.302" lon="5.77285">
        <ele>1165.74</ele>
        <time>2015-03-07T22:34:09Z</time>
      </trkpt>
      <trkpt lat="45.30236" lon="5.77281">
        <ele>1166.7</ele>
        <time>2015-03-07T22:34:30Z</time>
      </trkpt>
      <trkpt lat="45.30248" lon="5.7727">
        <ele>1166.7</ele>
        <time>2015-03-07T22:34:36Z</time>
      </trkpt>
      <trkpt lat="45.30285" lon="5.77248">
        <ele>1167.66</ele>
        <time>2015-03-07T22:34:55Z</time>
      </trkpt>
      <trkpt lat="45.30308" lon="5.77212">
        <ele>1170.06</ele>
        <time>2015-03-07T22:35:13Z</time>
      </trkpt>
      <trkpt lat="45.30319" lon="5.77207">
        <ele>1170.06</ele>
        <time>2015-03-07T22:35:36Z</time>
      </trkpt>
      <trkpt lat="45.30338" lon="5.77216">
        <ele>1168.62</ele>
        <time>2015-03-07T22:35:56Z</time>
      </trkpt>
      <trkpt lat="45.30356" lon="5.77223">
        <ele>1168.14</ele>
        <time>2015-03-07T22:36:15Z</time>
      </trkpt>
      <trkpt lat="45.30377" lon="5.77216">
        <ele>1168.62</ele>
        <time>2015-03-07T22:36:39Z</time>
      </trkpt>
      <trkpt lat="45.30376" lon="5.77213">
        <ele>1166.22</ele>
        <time>2015-03-07T22:36:52Z</time>
      </trkpt>
      <trkpt lat="45.30377" lon="5.77209">
        <ele>1165.26</ele>
        <time>2015-03-07T22:36:56Z</time>
      </trkpt>
      <trkpt lat="45.30374" lon="5.7718">
        <ele>1163.81</ele>
        <time>2015-03-07T22:37:10Z</time>
      </trkpt>
      <trkpt lat="45.30378" lon="5.77151">
        <ele>1163.33</ele>
        <time>2015-03-07T22:37:33Z</time>
      </trkpt>
      <trkpt lat="45.3038" lon="5.77141">
        <ele>1165.26</ele>
        <time>2015-03-07T22:37:38Z</time>
      </trkpt>
      <trkpt lat="45.30371" lon="5.77138">
        <ele>1165.26</ele>
        <time>2015-03-07T22:38:03Z</time>
      </trkpt>
      <trkpt lat="45.30376" lon="5.77136">
        <ele>1165.74</ele>
        <time>2015-03-07T22:38:29Z</time>
      </trkpt>
      <trkpt lat="45.30381" lon="5.77139">
        <ele>1166.22</ele>
        <time>2015-03-07T22:38:55Z</time>
      </trkpt>
      <trkpt lat="45.30383" lon="5.77137">
        <ele>1167.18</ele>
        <time>2015-03-07T22:39:18Z</time>
      </trkpt>
      <trkpt lat="45.30379" lon="5.77144">
        <ele>1167.66</ele>
        <time>2015-03-07T22:39:43Z</time>
      </trkpt>
      <trkpt lat="45.30382" lon="5.77146">
        <ele>1168.14</ele>
        <time>2015-03-07T22:40:05Z</time>
      </trkpt>
      <trkpt lat="45.30382" lon="5.77141">
        <ele>1168.62</ele>
        <time>2015-03-07T22:40:31Z</time>
      </trkpt>
      <trkpt lat="45.30378" lon="5.77142">
        <ele>1168.14</ele>
        <time>2015-03-07T22:40:55Z</time>
      </trkpt>
      <trkpt lat="45.30378" lon="5.77132">
        <ele>1168.62</ele>
        <time>2015-03-07T22:41:10Z</time>
      </trkpt>
      <trkpt lat="45.30374" lon="5.77129">
        <ele>1169.1</ele>
        <time>2015-03-07T22:41:25Z</time>
      </trkpt>
      <trkpt lat="45.30381" lon="5.77123">
        <ele>1170.06</ele>
        <time>2015-03-07T22:41:53Z</time>
      </trkpt>
      <trkpt lat="45.30383" lon="5.77131">
        <ele>1171.02</ele>
        <time>2015-03-07T22:42:21Z</time>
      </trkpt>
      <trkpt lat="45.30376" lon="5.77133">
        <ele>1171.98</ele>
        <time>2015-03-07T22:42:48Z</time>
      </trkpt>
      <trkpt lat="45.30382" lon="5.77122">
        <ele>1173.43</ele>
        <time>2015-03-07T22:43:23Z</time>
      </trkpt>
      <trkpt lat="45.30375" lon="5.77123">
        <ele>1174.87</ele>
        <time>2015-03-07T22:43:51Z</time>
      </trkpt>
      <trkpt lat="45.30373" lon="5.77122">
        <ele>1175.83</ele>
        <time>2015-03-07T22:44:14Z</time>
      </trkpt>
      <trkpt lat="45.3037" lon="5.77122">
        <ele>1176.31</ele>
        <time>2015-03-07T22:44:33Z</time>
      </trkpt>
      <trkpt lat="45.30371" lon="5.77128">
        <ele>1177.27</ele>
        <time>2015-03-07T22:44:55Z</time>
      </trkpt>
      <trkpt lat="45.30383" lon="5.77125">
        <ele>1178.23</ele>
        <time>2015-03-07T22:45:15Z</time>
      </trkpt>
      <trkpt lat="45.30383" lon="5.77128">
        <ele>1179.19</ele>
        <time>2015-03-07T22:45:43Z</time>
      </trkpt>
      <trkpt lat="45.30385" lon="5.77133">
        <ele>1180.16</ele>
        <time>2015-03-07T22:46:15Z</time>
      </trkpt>
      <trkpt lat="45.30382" lon="5.77134">
        <ele>1181.6</ele>
        <time>2015-03-07T22:46:47Z</time>
      </trkpt>
      <trkpt lat="45.30385" lon="5.77125">
        <ele>1181.6</ele>
        <time>2015-03-07T22:47:00Z</time>
      </trkpt>
      <trkpt lat="45.30393" lon="5.77121">
        <ele>1182.08</ele>
        <time>2015-03-07T22:47:12Z</time>
      </trkpt>
      <trkpt lat="45.30403" lon="5.77112">
        <ele>1182.56</ele>
        <time>2015-03-07T22:47:27Z</time>
      </trkpt>
      <trkpt lat="45.30399" lon="5.77105">
        <ele>1184</ele>
        <time>2015-03-07T22:47:36Z</time>
      </trkpt>
      <trkpt lat="45.30394" lon="5.77095">
        <ele>1185.44</ele>
        <time>2015-03-07T22:47:51Z</time>
      </trkpt>
      <trkpt lat="45.30394" lon="5.77084">
        <ele>1186.88</ele>
        <time>2015-03-07T22:48:07Z</time>
      </trkpt>
      <trkpt lat="45.30387" lon="5.77073">
        <ele>1187.85</ele>
        <time>2015-03-07T22:48:23Z</time>
      </trkpt>
      <trkpt lat="45.30381" lon="5.77062">
        <ele>1188.81</ele>
        <time>2015-03-07T22:48:39Z</time>
      </trkpt>
      <trkpt lat="45.30374" lon="5.77053">
        <ele>1190.25</ele>
        <time>2015-03-07T22:48:53Z</time>
      </trkpt>
      <trkpt lat="45.30374" lon="5.77045">
        <ele>1190.73</ele>
        <time>2015-03-07T22:49:01Z</time>
      </trkpt>
      <trkpt lat="45.30376" lon="5.77042">
        <ele>1190.73</ele>
        <time>2015-03-07T22:49:12Z</time>
      </trkpt>
      <trkpt lat="45.30379" lon="5.7703">
        <ele>1191.21</ele>
        <time>2015-03-07T22:49:26Z</time>
      </trkpt>
      <trkpt lat="45.3038" lon="5.77027">
        <ele>1191.21</ele>
        <time>2015-03-07T22:49:30Z</time>
      </trkpt>
      <trkpt lat="45.30386" lon="5.77027">
        <ele>1191.21</ele>
        <time>2015-03-07T22:49:43Z</time>
      </trkpt>
      <trkpt lat="45.30395" lon="5.7702">
        <ele>1192.65</ele>
        <time>2015-03-07T22:50:01Z</time>
      </trkpt>
      <trkpt lat="45.30403" lon="5.77008">
        <ele>1192.65</ele>
        <time>2015-03-07T22:50:16Z</time>
      </trkpt>
      <trkpt lat="45.30403" lon="5.77001">
        <ele>1191.21</ele>
        <time>2015-03-07T22:50:22Z</time>
      </trkpt>
      <trkpt lat="45.30401" lon="5.76982">
        <ele>1191.69</ele>
        <time>2015-03-07T22:50:39Z</time>
      </trkpt>
      <trkpt lat="45.30412" lon="5.76973">
        <ele>1193.13</ele>
        <time>2015-03-07T22:50:57Z</time>
      </trkpt>
      <trkpt lat="45.30425" lon="5.76962">
        <ele>1193.13</ele>
        <time>2015-03-07T22:51:15Z</time>
      </trkpt>
      <trkpt lat="45.30428" lon="5.76953">
        <ele>1194.09</ele>
        <time>2015-03-07T22:51:29Z</time>
      </trkpt>
      <trkpt lat="45.30431" lon="5.76938">
        <ele>1194.58</ele>
        <time>2015-03-07T22:51:47Z</time>
      </trkpt>
      <trkpt lat="45.30433" lon="5.76923">
        <ele>1195.54</ele>
        <time>2015-03-07T22:52:04Z</time>
      </trkpt>
      <trkpt lat="45.30432" lon="5.76903">
        <ele>1196.5</ele>
        <time>2015-03-07T22:52:21Z</time>
      </trkpt>
      <trkpt lat="45.30433" lon="5.76887">
        <ele>1196.5</ele>
        <time>2015-03-07T22:52:36Z</time>
      </trkpt>
      <trkpt lat="45.30429" lon="5.76867">
        <ele>1196.5</ele>
        <time>2015-03-07T22:52:51Z</time>
      </trkpt>
      <trkpt lat="45.30427" lon="5.76866">
        <ele>1196.5</ele>
        <time>2015-03-07T22:53:05Z</time>
      </trkpt>
      <trkpt lat="45.30421" lon="5.76855">
        <ele>1196.5</ele>
        <time>2015-03-07T22:53:24Z</time>
      </trkpt>
      <trkpt lat="45.30413" lon="5.76847">
        <ele>1196.5</ele>
        <time>2015-03-07T22:53:38Z</time>
      </trkpt>
      <trkpt lat="45.30404" lon="5.76823">
        <ele>1196.5</ele>
        <time>2015-03-07T22:53:54Z</time>
      </trkpt>
      <trkpt lat="45.30396" lon="5.76807">
        <ele>1196.5</ele>
        <time>2015-03-07T22:54:11Z</time>
      </trkpt>
      <trkpt lat="45.30394" lon="5.76803">
        <ele>1196.98</ele>
        <time>2015-03-07T22:54:22Z</time>
      </trkpt>
      <trkpt lat="45.30389" lon="5.76795">
        <ele>1196.98</ele>
        <time>2015-03-07T22:54:35Z</time>
      </trkpt>
      <trkpt lat="45.30393" lon="5.76794">
        <ele>1195.06</ele>
        <time>2015-03-07T22:54:51Z</time>
      </trkpt>
      <trkpt lat="45.30399" lon="5.76797">
        <ele>1195.06</ele>
        <time>2015-03-07T22:55:11Z</time>
      </trkpt>
      <trkpt lat="45.30399" lon="5.76799">
        <ele>1195.06</ele>
        <time>2015-03-07T22:55:26Z</time>
      </trkpt>
      <trkpt lat="45.30402" lon="5.76799">
        <ele>1195.54</ele>
        <time>2015-03-07T22:55:46Z</time>
      </trkpt>
      <trkpt lat="45.30397" lon="5.76799">
        <ele>1195.54</ele>
        <time>2015-03-07T22:56:04Z</time>
      </trkpt>
    </trkseg>
  </trk>
</gpx>